<?xml version='1.0' encoding='UTF-8'?><gpx version="1.1" creator="JPX - https://github.com/jenetics/jpx" xmlns="http://www.topografix.com/GPX/1/1"><trk><trkseg><trkpt lat="48.701593952591146" lon="3.26732468086095"><ele>149.0</ele><time>2026-05-01T14:24:46Z</time></trkpt><trkpt lat="48.70157410268269" lon="3.2674586815397824"><ele>149.0</ele><time>2026-05-01T14:24:48Z</time></trkpt><trkpt lat="48.70156539671453" lon="3.2675937627122194"><ele>149.0</ele><time>2026-05-01T14:24:50Z</time></trkpt><trkpt lat="48.70157147103451" lon="3.2677354735906627"><ele>149.0</ele><time>2026-05-01T14:25:00Z</time></trkpt><trkpt lat="48.70157944595004" lon="3.2678969489058844"><ele>149.0</ele><time>2026-05-01T14:25:02Z</time></trkpt><trkpt lat="48.701562849739545" lon="3.2679915877003403"><ele>149.0</ele><time>2026-05-01T14:25:03Z</time></trkpt><trkpt lat="48.70153725004899" lon="3.268096110929493"><ele>149.16666666666666</ele><time>2026-05-01T14:25:04Z</time></trkpt><trkpt lat="48.70148540635556" lon="3.2681997793580373"><ele>149.33333333333331</ele><time>2026-05-01T14:25:05Z</time></trkpt><trkpt lat="48.70146005773654" lon="3.268316492918268"><ele>149.5</ele><time>2026-05-01T14:25:05.999Z</time></trkpt><trkpt lat="48.70143288391357" lon="3.268441610326863"><ele>149.66666666666666</ele><time>2026-05-01T14:25:06.999Z</time></trkpt><trkpt lat="48.70141421710327" lon="3.268576513664816"><ele>149.83333333333334</ele><time>2026-05-01T14:25:07.999Z</time></trkpt><trkpt lat="48.701379187545875" lon="3.268712992010536"><ele>150.0</ele><time>2026-05-01T14:25:08.999Z</time></trkpt><trkpt lat="48.701350686801376" lon="3.2688355173984647"><ele>150.0</ele><time>2026-05-01T14:25:09.999Z</time></trkpt><trkpt lat="48.70130921078179" lon="3.2689199588644637"><ele>150.0</ele><time>2026-05-01T14:25:10.999Z</time></trkpt><trkpt lat="48.701244530917464" lon="3.2690382405543463"><ele>150.0</ele><time>2026-05-01T14:25:12.999Z</time></trkpt><trkpt lat="48.70113921009859" lon="3.2690391702735107"><ele>150.0</ele><time>2026-05-01T14:25:14.999Z</time></trkpt><trkpt lat="48.70108942123436" lon="3.2689615707499806"><ele>150.0</ele><time>2026-05-01T14:25:15.999Z</time></trkpt><trkpt lat="48.70102917606384" lon="3.2689243892092823"><ele>150.0</ele><time>2026-05-01T14:25:16.999Z</time></trkpt><trkpt lat="48.70096259240391" lon="3.268883367503373"><ele>149.33333333333334</ele><time>2026-05-01T14:25:17.999Z</time></trkpt><trkpt lat="48.70089313456291" lon="3.2688426947526907"><ele>148.66666666666666</ele><time>2026-05-01T14:25:18.999Z</time></trkpt><trkpt lat="48.70082428399237" lon="3.2688069368948076"><ele>148.0</ele><time>2026-05-01T14:25:19.999Z</time></trkpt><trkpt lat="48.70075224502576" lon="3.268769523175697"><ele>147.33333333333331</ele><time>2026-05-01T14:25:20.999Z</time></trkpt><trkpt lat="48.70068102888881" lon="3.2687325367959534"><ele>146.66666666666666</ele><time>2026-05-01T14:25:21.999Z</time></trkpt><trkpt lat="48.700612093290275" lon="3.2686967348207565"><ele>146.0</ele><time>2026-05-01T14:25:22.999Z</time></trkpt><trkpt lat="48.70051709882298" lon="3.2687663208177025"><ele>146.0</ele><time>2026-05-01T14:25:23.999Z</time></trkpt><trkpt lat="48.700436748045696" lon="3.2687596023691396"><ele>146.0</ele><time>2026-05-01T14:25:24.999Z</time></trkpt><trkpt lat="48.70034102115006" lon="3.2687448215466803"><ele>146.0</ele><time>2026-05-01T14:25:25.999Z</time></trkpt><trkpt lat="48.7002224190093" lon="3.268740474599344"><ele>146.0</ele><time>2026-05-01T14:25:26.999Z</time></trkpt><trkpt lat="48.70010021603853" lon="3.2687403200638516"><ele>146.0</ele><time>2026-05-01T14:25:27.999Z</time></trkpt><trkpt lat="48.69998223539134" lon="3.268732924688318"><ele>145.0</ele><time>2026-05-01T14:25:28.999Z</time></trkpt><trkpt lat="48.699869326112385" lon="3.2687263481843036"><ele>144.0</ele><time>2026-05-01T14:25:29.999Z</time></trkpt><trkpt lat="48.699758127329645" lon="3.26872505057711"><ele>143.0</ele><time>2026-05-01T14:25:30.999Z</time></trkpt><trkpt lat="48.699649470949296" lon="3.2687223843783957"><ele>142.0</ele><time>2026-05-01T14:25:31.999Z</time></trkpt><trkpt lat="48.69954806091343" lon="3.268712419603225"><ele>141.0</ele><time>2026-05-01T14:25:32.999Z</time></trkpt><trkpt lat="48.69945680023884" lon="3.268710475512893"><ele>139.83333333333334</ele><time>2026-05-01T14:25:33.999Z</time></trkpt><trkpt lat="48.699374578312096" lon="3.268709121198433"><ele>138.66666666666666</ele><time>2026-05-01T14:25:34.999Z</time></trkpt><trkpt lat="48.69930657489257" lon="3.268715362321894"><ele>137.5</ele><time>2026-05-01T14:25:35.999Z</time></trkpt><trkpt lat="48.699204241249284" lon="3.2686814999974567"><ele>136.33333333333331</ele><time>2026-05-01T14:25:37.999Z</time></trkpt><trkpt lat="48.69914392130535" lon="3.2686294634621222"><ele>135.16666666666666</ele><time>2026-05-01T14:25:51.999Z</time></trkpt><trkpt lat="48.69910650815206" lon="3.2684648386234083"><ele>134.0</ele><time>2026-05-01T14:25:53.998Z</time></trkpt><trkpt lat="48.699084020035066" lon="3.268318211454556"><ele>134.0</ele><time>2026-05-01T14:25:54.998Z</time></trkpt><trkpt lat="48.699082286891944" lon="3.2682193041223226"><ele>134.0</ele><time>2026-05-01T14:25:55.998Z</time></trkpt><trkpt lat="48.69907238798483" lon="3.2681234210480756"><ele>134.0</ele><time>2026-05-01T14:25:56.999Z</time></trkpt><trkpt lat="48.699029770684135" lon="3.267985542172316"><ele>134.0</ele><time>2026-05-01T14:25:58.999Z</time></trkpt><trkpt lat="48.69893771678617" lon="3.2679187594115504"><ele>134.0</ele><time>2026-05-01T14:26:00.999Z</time></trkpt><trkpt lat="48.698814025189044" lon="3.267868606304805"><ele>134.0</ele><time>2026-05-01T14:26:02.999Z</time></trkpt><trkpt lat="48.698746041445" lon="3.2678575644662993"><ele>134.0</ele><time>2026-05-01T14:26:03.999Z</time></trkpt><trkpt lat="48.69867629269706" lon="3.267847923051073"><ele>134.0</ele><time>2026-05-01T14:26:04.999Z</time></trkpt><trkpt lat="48.69859841508611" lon="3.2678403657204123"><ele>134.0</ele><time>2026-05-01T14:26:05.999Z</time></trkpt><trkpt lat="48.69851693005624" lon="3.267835552480598"><ele>134.0</ele><time>2026-05-01T14:26:06.999Z</time></trkpt><trkpt lat="48.698440790376836" lon="3.2678315514144973"><ele>134.0</ele><time>2026-05-01T14:26:07.999Z</time></trkpt><trkpt lat="48.69836500538585" lon="3.2678292167949357"><ele>133.4</ele><time>2026-05-01T14:26:08.999Z</time></trkpt><trkpt lat="48.698274181541834" lon="3.267826509858832"><ele>132.8</ele><time>2026-05-01T14:26:09.999Z</time></trkpt><trkpt lat="48.698187509148426" lon="3.2678235739151282"><ele>132.2</ele><time>2026-05-01T14:26:10.999Z</time></trkpt><trkpt lat="48.69809406730907" lon="3.2678199308867577"><ele>131.6</ele><time>2026-05-01T14:26:11.999Z</time></trkpt><trkpt lat="48.69800141046389" lon="3.2678155262900566"><ele>131.0</ele><time>2026-05-01T14:26:12.999Z</time></trkpt><trkpt lat="48.697898159950576" lon="3.2678084983761395"><ele>131.0</ele><time>2026-05-01T14:26:13.999Z</time></trkpt><trkpt lat="48.697798407047586" lon="3.2678230306163147"><ele>131.0</ele><time>2026-05-01T14:26:14.999Z</time></trkpt><trkpt lat="48.697694740141" lon="3.2677817230860033"><ele>131.0</ele><time>2026-05-01T14:26:15.999Z</time></trkpt><trkpt lat="48.697598636844454" lon="3.267761227371295"><ele>131.0</ele><time>2026-05-01T14:26:16.999Z</time></trkpt><trkpt lat="48.69751840233576" lon="3.2677448306439985"><ele>131.0</ele><time>2026-05-01T14:26:17.999Z</time></trkpt><trkpt lat="48.69745048106835" lon="3.2677327206519595"><ele>130.83333333333331</ele><time>2026-05-01T14:26:18.999Z</time></trkpt><trkpt lat="48.69733476505307" lon="3.2677173482792155"><ele>130.66666666666666</ele><time>2026-05-01T14:26:20.999Z</time></trkpt><trkpt lat="48.69729528984139" lon="3.2675594318116"><ele>130.5</ele><time>2026-05-01T14:26:22.999Z</time></trkpt><trkpt lat="48.69726045547629" lon="3.2674747366704415"><ele>130.33333333333334</ele><time>2026-05-01T14:26:23.999Z</time></trkpt><trkpt lat="48.697224725517394" lon="3.267387864021708"><ele>130.16666666666669</ele><time>2026-05-01T14:26:24.999Z</time></trkpt><trkpt lat="48.697189880596305" lon="3.267303143227581"><ele>130.0</ele><time>2026-05-01T14:26:25.999Z</time></trkpt><trkpt lat="48.69706491381" lon="3.2673113208884987"><ele>130.0</ele><time>2026-05-01T14:26:26.999Z</time></trkpt><trkpt lat="48.69698784637914" lon="3.267275453446511"><ele>130.0</ele><time>2026-05-01T14:26:27.999Z</time></trkpt><trkpt lat="48.69689849313069" lon="3.267227703136066"><ele>130.0</ele><time>2026-05-01T14:26:28.999Z</time></trkpt><trkpt lat="48.69679072343493" lon="3.267171532590936"><ele>130.0</ele><time>2026-05-01T14:26:29.999Z</time></trkpt><trkpt lat="48.69666871833634" lon="3.2671194317574157"><ele>130.0</ele><time>2026-05-01T14:26:30.999Z</time></trkpt><trkpt lat="48.69654393168907" lon="3.2670546958493687"><ele>130.5</ele><time>2026-05-01T14:26:31.999Z</time></trkpt><trkpt lat="48.69641548590905" lon="3.266996283940248"><ele>131.0</ele><time>2026-05-01T14:26:32.999Z</time></trkpt><trkpt lat="48.69629046383247" lon="3.2669286238130884"><ele>131.5</ele><time>2026-05-01T14:26:33.999Z</time></trkpt><trkpt lat="48.696164215397225" lon="3.2668658118243132"><ele>132.0</ele><time>2026-05-01T14:26:34.999Z</time></trkpt><trkpt lat="48.69603539582489" lon="3.2668015242795216"><ele>132.25</ele><time>2026-05-01T14:26:35.999Z</time></trkpt><trkpt lat="48.695905321306306" lon="3.2667468913915023"><ele>132.5</ele><time>2026-05-01T14:26:36.999Z</time></trkpt><trkpt lat="48.69577211138337" lon="3.266684016822542"><ele>132.75</ele><time>2026-05-01T14:26:37.999Z</time></trkpt><trkpt lat="48.69563830878407" lon="3.266618110873799"><ele>133.0</ele><time>2026-05-01T14:26:38.999Z</time></trkpt><trkpt lat="48.69550803025861" lon="3.2665422979887433"><ele>133.0</ele><time>2026-05-01T14:26:39.999Z</time></trkpt><trkpt lat="48.69537212401403" lon="3.2664805766018854"><ele>133.0</ele><time>2026-05-01T14:26:40.999Z</time></trkpt><trkpt lat="48.69522724233897" lon="3.266413282293629"><ele>133.0</ele><time>2026-05-01T14:26:42Z</time></trkpt><trkpt lat="48.69508003952741" lon="3.26634938186916"><ele>133.0</ele><time>2026-05-01T14:26:43Z</time></trkpt><trkpt lat="48.694928452357416" lon="3.2662747971746087"><ele>134.33333333333334</ele><time>2026-05-01T14:26:44Z</time></trkpt><trkpt lat="48.69477574721169" lon="3.2662018567703393"><ele>135.66666666666666</ele><time>2026-05-01T14:26:45Z</time></trkpt><trkpt lat="48.69461564266595" lon="3.266136381740392"><ele>137.0</ele><time>2026-05-01T14:26:46Z</time></trkpt><trkpt lat="48.694451659095584" lon="3.2660770363650857"><ele>137.33333333333331</ele><time>2026-05-01T14:26:47Z</time></trkpt><trkpt lat="48.694288753396954" lon="3.2659942667555195"><ele>137.66666666666666</ele><time>2026-05-01T14:26:48Z</time></trkpt><trkpt lat="48.6941269297275" lon="3.265901446253882"><ele>138.0</ele><time>2026-05-01T14:26:49Z</time></trkpt><trkpt lat="48.69395834363432" lon="3.2658233946393738"><ele>138.0</ele><time>2026-05-01T14:26:50Z</time></trkpt><trkpt lat="48.69379014024017" lon="3.265752674258164"><ele>138.0</ele><time>2026-05-01T14:26:51Z</time></trkpt><trkpt lat="48.69362264100336" lon="3.2656706794574095"><ele>138.0</ele><time>2026-05-01T14:26:52Z</time></trkpt><trkpt lat="48.69347338685487" lon="3.2656056968299265"><ele>138.33333333333334</ele><time>2026-05-01T14:26:53Z</time></trkpt><trkpt lat="48.69333117095374" lon="3.2655442464075413"><ele>138.66666666666669</ele><time>2026-05-01T14:26:54Z</time></trkpt><trkpt lat="48.693177130011804" lon="3.2654825391243025"><ele>139.0</ele><time>2026-05-01T14:26:55Z</time></trkpt><trkpt lat="48.69301531386765" lon="3.265426532619309"><ele>139.0</ele><time>2026-05-01T14:26:56Z</time></trkpt><trkpt lat="48.6928378822262" lon="3.2654104844874827"><ele>139.0</ele><time>2026-05-01T14:26:57Z</time></trkpt><trkpt lat="48.6926600106219" lon="3.2654024136473274"><ele>139.0</ele><time>2026-05-01T14:26:58Z</time></trkpt><trkpt lat="48.69248022843632" lon="3.265394615845059"><ele>139.33333333333334</ele><time>2026-05-01T14:26:59Z</time></trkpt><trkpt lat="48.6922962874954" lon="3.2653916669804315"><ele>139.66666666666666</ele><time>2026-05-01T14:27:00Z</time></trkpt><trkpt lat="48.69211205269951" lon="3.265381223961261"><ele>140.0</ele><time>2026-05-01T14:27:01Z</time></trkpt><trkpt lat="48.69192477847388" lon="3.265368352477113"><ele>141.0</ele><time>2026-05-01T14:27:02Z</time></trkpt><trkpt lat="48.69174037566048" lon="3.2653556903618046"><ele>142.0</ele><time>2026-05-01T14:27:03Z</time></trkpt><trkpt lat="48.691556935476086" lon="3.2653451849653177"><ele>143.0</ele><time>2026-05-01T14:27:04Z</time></trkpt><trkpt lat="48.69137189539071" lon="3.265325426318225"><ele>143.0</ele><time>2026-05-01T14:27:05Z</time></trkpt><trkpt lat="48.69118180780954" lon="3.265313959104476"><ele>143.0</ele><time>2026-05-01T14:27:06Z</time></trkpt><trkpt lat="48.690990922597386" lon="3.265305466893479"><ele>143.0</ele><time>2026-05-01T14:27:07Z</time></trkpt><trkpt lat="48.69079938806747" lon="3.265298147818311"><ele>143.0</ele><time>2026-05-01T14:27:08Z</time></trkpt><trkpt lat="48.69060878169751" lon="3.2652863940371657"><ele>143.0</ele><time>2026-05-01T14:27:09Z</time></trkpt><trkpt lat="48.690415897064995" lon="3.2652756627774417"><ele>143.0</ele><time>2026-05-01T14:27:10Z</time></trkpt><trkpt lat="48.69022303296545" lon="3.2652569119110466"><ele>142.66666666666666</ele><time>2026-05-01T14:27:11Z</time></trkpt><trkpt lat="48.69002609026766" lon="3.2652401418735573"><ele>142.33333333333334</ele><time>2026-05-01T14:27:12Z</time></trkpt><trkpt lat="48.689835620575295" lon="3.265225488545883"><ele>142.0</ele><time>2026-05-01T14:27:13Z</time></trkpt><trkpt lat="48.68966757233244" lon="3.2652102262105376"><ele>142.0</ele><time>2026-05-01T14:27:14Z</time></trkpt><trkpt lat="48.68952195071676" lon="3.265198119323335"><ele>142.0</ele><time>2026-05-01T14:27:15Z</time></trkpt><trkpt lat="48.68940606870608" lon="3.2651925701583697"><ele>142.0</ele><time>2026-05-01T14:27:16Z</time></trkpt><trkpt lat="48.689308871296184" lon="3.2651864319952284"><ele>142.0</ele><time>2026-05-01T14:27:17Z</time></trkpt><trkpt lat="48.689231387541625" lon="3.26517323823088"><ele>142.0</ele><time>2026-05-01T14:27:18Z</time></trkpt><trkpt lat="48.68916090100132" lon="3.2651680216437375"><ele>141.79999999999998</ele><time>2026-05-01T14:27:20Z</time></trkpt><trkpt lat="48.689073567496145" lon="3.265151156834207"><ele>141.6</ele><time>2026-05-01T14:27:40Z</time></trkpt><trkpt lat="48.68903922518633" lon="3.2650445858035337"><ele>141.39999999999998</ele><time>2026-05-01T14:27:41Z</time></trkpt><trkpt lat="48.68902247644068" lon="3.2649106396757994"><ele>141.2</ele><time>2026-05-01T14:27:42Z</time></trkpt><trkpt lat="48.68903183035878" lon="3.264780990535814"><ele>141.0</ele><time>2026-05-01T14:27:43Z</time></trkpt><trkpt lat="48.68903024955408" lon="3.2646172895508965"><ele>141.0</ele><time>2026-05-01T14:27:44Z</time></trkpt><trkpt lat="48.689001146127914" lon="3.2644334208512458"><ele>141.0</ele><time>2026-05-01T14:27:45Z</time></trkpt><trkpt lat="48.68898631509429" lon="3.2642356252247193"><ele>141.0</ele><time>2026-05-01T14:27:46Z</time></trkpt><trkpt lat="48.688977816544664" lon="3.264025460064553"><ele>141.0</ele><time>2026-05-01T14:27:47Z</time></trkpt><trkpt lat="48.68895077151051" lon="3.2637970185965317"><ele>141.33333333333334</ele><time>2026-05-01T14:27:48Z</time></trkpt><trkpt lat="48.68891966872709" lon="3.2635702066490317"><ele>141.66666666666669</ele><time>2026-05-01T14:27:49Z</time></trkpt><trkpt lat="48.68890171796631" lon="3.2633382983020556"><ele>142.0</ele><time>2026-05-01T14:27:50Z</time></trkpt><trkpt lat="48.68888260066034" lon="3.2630891115965417"><ele>142.0</ele><time>2026-05-01T14:27:51Z</time></trkpt><trkpt lat="48.68886460927459" lon="3.262834657345917"><ele>142.0</ele><time>2026-05-01T14:27:52Z</time></trkpt><trkpt lat="48.68884590360426" lon="3.2625694160590384"><ele>142.0</ele><time>2026-05-01T14:27:53Z</time></trkpt><trkpt lat="48.68882513487557" lon="3.2623046467359607"><ele>142.0</ele><time>2026-05-01T14:27:54Z</time></trkpt><trkpt lat="48.688800418679016" lon="3.26203928715596"><ele>142.0</ele><time>2026-05-01T14:27:55Z</time></trkpt><trkpt lat="48.68878250793025" lon="3.2617582496801116"><ele>142.0</ele><time>2026-05-01T14:27:56Z</time></trkpt><trkpt lat="48.68876858688235" lon="3.261463433855463"><ele>142.66666666666669</ele><time>2026-05-01T14:27:57Z</time></trkpt><trkpt lat="48.6887574008338" lon="3.2611569378371272"><ele>143.33333333333334</ele><time>2026-05-01T14:27:58Z</time></trkpt><trkpt lat="48.688681433279335" lon="3.260957853810716"><ele>144.0</ele><time>2026-05-01T14:27:59Z</time></trkpt><trkpt lat="48.68865549247782" lon="3.2607526886476967"><ele>144.2</ele><time>2026-05-01T14:27:59.999Z</time></trkpt><trkpt lat="48.68862553885521" lon="3.26055428113161"><ele>144.4</ele><time>2026-05-01T14:28:00.999Z</time></trkpt><trkpt lat="48.688580190957936" lon="3.2604167403310416"><ele>144.6</ele><time>2026-05-01T14:28:01.999Z</time></trkpt><trkpt lat="48.68854671717891" lon="3.260281770331615"><ele>144.8</ele><time>2026-05-01T14:28:03.999Z</time></trkpt><trkpt lat="48.68852022625534" lon="3.2601848657284216"><ele>145.0</ele><time>2026-05-01T14:28:04.999Z</time></trkpt><trkpt lat="48.68848611969779" lon="3.2600425951870537"><ele>145.25</ele><time>2026-05-01T14:28:05.999Z</time></trkpt><trkpt lat="48.688452569576164" lon="3.2598679802383597"><ele>145.5</ele><time>2026-05-01T14:28:06.999Z</time></trkpt><trkpt lat="48.68842936923075" lon="3.259670205509788"><ele>145.75</ele><time>2026-05-01T14:28:07.999Z</time></trkpt><trkpt lat="48.68839501733558" lon="3.259462854202208"><ele>146.0</ele><time>2026-05-01T14:28:08.999Z</time></trkpt><trkpt lat="48.688353032079206" lon="3.25924169795447"><ele>146.33333333333331</ele><time>2026-05-01T14:28:09.999Z</time></trkpt><trkpt lat="48.688305620254056" lon="3.259013623845528"><ele>146.66666666666666</ele><time>2026-05-01T14:28:10.999Z</time></trkpt><trkpt lat="48.688258031852286" lon="3.2587761023218063"><ele>147.0</ele><time>2026-05-01T14:28:11.999Z</time></trkpt><trkpt lat="48.688207412802996" lon="3.258528961561035"><ele>147.0</ele><time>2026-05-01T14:28:12.999Z</time></trkpt><trkpt lat="48.68815514403481" lon="3.2582805152906373"><ele>147.0</ele><time>2026-05-01T14:28:13.999Z</time></trkpt><trkpt lat="48.68810526514206" lon="3.258021832057611"><ele>147.0</ele><time>2026-05-01T14:28:14.999Z</time></trkpt><trkpt lat="48.68805390507242" lon="3.2577500726725632"><ele>148.0</ele><time>2026-05-01T14:28:15.999Z</time></trkpt><trkpt lat="48.68801052300394" lon="3.2574727304864086"><ele>149.0</ele><time>2026-05-01T14:28:16.999Z</time></trkpt><trkpt lat="48.68796901654677" lon="3.2571915499623683"><ele>150.0</ele><time>2026-05-01T14:28:17.999Z</time></trkpt><trkpt lat="48.68793373705496" lon="3.256897205174897"><ele>151.0</ele><time>2026-05-01T14:28:18.999Z</time></trkpt><trkpt lat="48.68790444236227" lon="3.256648523239849"><ele>152.0</ele><time>2026-05-01T14:28:19.999Z</time></trkpt><trkpt lat="48.68789004968981" lon="3.2564562317394303"><ele>153.0</ele><time>2026-05-01T14:28:20.999Z</time></trkpt><trkpt lat="48.68786623944586" lon="3.2562728340542217"><ele>154.0</ele><time>2026-05-01T14:28:21.999Z</time></trkpt><trkpt lat="48.687795175881305" lon="3.2558594094871816"><ele>155.0</ele><time>2026-05-01T14:28:22.999Z</time></trkpt><trkpt lat="48.68774838679351" lon="3.255587577047165"><ele>156.0</ele><time>2026-05-01T14:28:23.999Z</time></trkpt><trkpt lat="48.68769561511033" lon="3.255311713192825"><ele>157.0</ele><time>2026-05-01T14:28:25Z</time></trkpt><trkpt lat="48.68764313238238" lon="3.255028558435132"><ele>157.0</ele><time>2026-05-01T14:28:26Z</time></trkpt><trkpt lat="48.687584105591384" lon="3.2547453210323143"><ele>157.0</ele><time>2026-05-01T14:28:27Z</time></trkpt><trkpt lat="48.68752411918459" lon="3.2544526293289415"><ele>157.0</ele><time>2026-05-01T14:28:28Z</time></trkpt><trkpt lat="48.68746073462706" lon="3.254151569808071"><ele>157.0</ele><time>2026-05-01T14:28:29Z</time></trkpt><trkpt lat="48.687395526867675" lon="3.2538440164881974"><ele>157.0</ele><time>2026-05-01T14:28:30Z</time></trkpt><trkpt lat="48.68733559667673" lon="3.2535284466246868"><ele>157.0</ele><time>2026-05-01T14:28:31Z</time></trkpt><trkpt lat="48.68727115886745" lon="3.2532103723489856"><ele>156.66666666666669</ele><time>2026-05-01T14:28:32Z</time></trkpt><trkpt lat="48.68720924396497" lon="3.2528932240126043"><ele>156.33333333333334</ele><time>2026-05-01T14:28:33Z</time></trkpt><trkpt lat="48.68713894237341" lon="3.2525798289098726"><ele>156.0</ele><time>2026-05-01T14:28:34Z</time></trkpt><trkpt lat="48.687065103712335" lon="3.2522619871248994"><ele>156.0</ele><time>2026-05-01T14:28:35Z</time></trkpt><trkpt lat="48.68700233691572" lon="3.2519906593729906"><ele>156.0</ele><time>2026-05-01T14:28:36Z</time></trkpt><trkpt lat="48.68695033264915" lon="3.251746456376913"><ele>156.0</ele><time>2026-05-01T14:28:37Z</time></trkpt><trkpt lat="48.68690524230547" lon="3.251531461288533"><ele>158.0</ele><time>2026-05-01T14:28:38Z</time></trkpt><trkpt lat="48.6868693542192" lon="3.251328386749097"><ele>160.0</ele><time>2026-05-01T14:28:39Z</time></trkpt><trkpt lat="48.6868303128139" lon="3.2511472715501406"><ele>162.0</ele><time>2026-05-01T14:28:40Z</time></trkpt><trkpt lat="48.68679137960708" lon="3.250964887840171"><ele>164.0</ele><time>2026-05-01T14:28:41Z</time></trkpt><trkpt lat="48.68673748102117" lon="3.2507467545416553"><ele>162.0</ele><time>2026-05-01T14:28:42Z</time></trkpt><trkpt lat="48.68666962343152" lon="3.2505212821729663"><ele>160.0</ele><time>2026-05-01T14:28:43Z</time></trkpt><trkpt lat="48.68662264833274" lon="3.250270946731094"><ele>158.0</ele><time>2026-05-01T14:28:44Z</time></trkpt><trkpt lat="48.68657743873416" lon="3.249989887025903"><ele>156.0</ele><time>2026-05-01T14:28:45Z</time></trkpt><trkpt lat="48.68652437935348" lon="3.24969001253481"><ele>154.0</ele><time>2026-05-01T14:28:46Z</time></trkpt><trkpt lat="48.686474720651255" lon="3.2494065412149338"><ele>152.0</ele><time>2026-05-01T14:28:47Z</time></trkpt><trkpt lat="48.6864323852183" lon="3.2491137901067213"><ele>151.33333333333331</ele><time>2026-05-01T14:28:48Z</time></trkpt><trkpt lat="48.686388489173325" lon="3.2488097046633753"><ele>150.66666666666666</ele><time>2026-05-01T14:28:49Z</time></trkpt><trkpt lat="48.686344818952726" lon="3.248516160828069"><ele>150.0</ele><time>2026-05-01T14:28:50Z</time></trkpt><trkpt lat="48.68630923236513" lon="3.2482591265206415"><ele>149.66666666666666</ele><time>2026-05-01T14:28:51Z</time></trkpt><trkpt lat="48.68627651590761" lon="3.248014475495347"><ele>149.33333333333331</ele><time>2026-05-01T14:28:52Z</time></trkpt><trkpt lat="48.68623876229176" lon="3.247776877308907"><ele>149.0</ele><time>2026-05-01T14:28:53Z</time></trkpt><trkpt lat="48.68620360307471" lon="3.2475657759502203"><ele>149.0</ele><time>2026-05-01T14:28:54Z</time></trkpt><trkpt lat="48.686182111764275" lon="3.2473783370226026"><ele>149.0</ele><time>2026-05-01T14:28:55Z</time></trkpt><trkpt lat="48.68616373371654" lon="3.24719469687812"><ele>149.0</ele><time>2026-05-01T14:28:56Z</time></trkpt><trkpt lat="48.68614085786001" lon="3.246998920655035"><ele>149.0</ele><time>2026-05-01T14:28:57Z</time></trkpt><trkpt lat="48.68611780214742" lon="3.246817782136818"><ele>149.5</ele><time>2026-05-01T14:28:58Z</time></trkpt><trkpt lat="48.686087531013825" lon="3.2466664323615015"><ele>150.0</ele><time>2026-05-01T14:28:59Z</time></trkpt><trkpt lat="48.686059071715405" lon="3.24650634566851"><ele>150.5</ele><time>2026-05-01T14:29:00Z</time></trkpt><trkpt lat="48.686029323940794" lon="3.2463104283209296"><ele>151.0</ele><time>2026-05-01T14:29:01Z</time></trkpt><trkpt lat="48.68600287022025" lon="3.2461358388354626"><ele>151.5</ele><time>2026-05-01T14:29:02Z</time></trkpt><trkpt lat="48.68598749470426" lon="3.24601139671968"><ele>152.0</ele><time>2026-05-01T14:29:03Z</time></trkpt><trkpt lat="48.68598020196559" lon="3.2459082623992317"><ele>152.5</ele><time>2026-05-01T14:29:05Z</time></trkpt><trkpt lat="48.68596165033196" lon="3.245786821016466"><ele>153.0</ele><time>2026-05-01T14:29:22Z</time></trkpt><trkpt lat="48.68593812729321" lon="3.2456769461820256"><ele>153.5</ele><time>2026-05-01T14:29:23Z</time></trkpt><trkpt lat="48.685906031963704" lon="3.2455359725046673"><ele>154.0</ele><time>2026-05-01T14:29:24Z</time></trkpt><trkpt lat="48.6858759030432" lon="3.2453481626458225"><ele>154.25</ele><time>2026-05-01T14:29:25Z</time></trkpt><trkpt lat="48.685838637450956" lon="3.2451520466674157"><ele>154.5</ele><time>2026-05-01T14:29:26Z</time></trkpt><trkpt lat="48.68579873927406" lon="3.2449359989347433"><ele>154.75</ele><time>2026-05-01T14:29:27Z</time></trkpt><trkpt lat="48.68576369048549" lon="3.2447131577786044"><ele>155.0</ele><time>2026-05-01T14:29:28Z</time></trkpt><trkpt lat="48.685723748487376" lon="3.24450399366076"><ele>155.0</ele><time>2026-05-01T14:29:29Z</time></trkpt><trkpt lat="48.685699512247616" lon="3.24433234958334"><ele>155.0</ele><time>2026-05-01T14:29:30Z</time></trkpt><trkpt lat="48.685677552172585" lon="3.244194243878679"><ele>155.0</ele><time>2026-05-01T14:29:31Z</time></trkpt><trkpt lat="48.685660818963" lon="3.244100358345731"><ele>155.0</ele><time>2026-05-01T14:29:32Z</time></trkpt><trkpt lat="48.68563444759386" lon="3.243962428107428"><ele>155.0</ele><time>2026-05-01T14:29:49Z</time></trkpt><trkpt lat="48.68556018129712" lon="3.243874701618383"><ele>154.75</ele><time>2026-05-01T14:29:50Z</time></trkpt><trkpt lat="48.6854423392521" lon="3.2438107843088773"><ele>154.5</ele><time>2026-05-01T14:29:51Z</time></trkpt><trkpt lat="48.685321714801695" lon="3.243703371717239"><ele>154.25</ele><time>2026-05-01T14:29:52Z</time></trkpt><trkpt lat="48.6851856673422" lon="3.243601517336211"><ele>154.0</ele><time>2026-05-01T14:29:53Z</time></trkpt><trkpt lat="48.68504216304568" lon="3.2434940802571917"><ele>154.0</ele><time>2026-05-01T14:29:54Z</time></trkpt><trkpt lat="48.68487855485066" lon="3.2433980719928424"><ele>154.0</ele><time>2026-05-01T14:29:55Z</time></trkpt><trkpt lat="48.68471988290969" lon="3.243275809894878"><ele>154.0</ele><time>2026-05-01T14:29:56Z</time></trkpt><trkpt lat="48.684573864002566" lon="3.243170829227462"><ele>154.0</ele><time>2026-05-01T14:29:57Z</time></trkpt><trkpt lat="48.68445756864096" lon="3.243057698917818"><ele>154.0</ele><time>2026-05-01T14:29:58Z</time></trkpt><trkpt lat="48.684364976006194" lon="3.2429887014512717"><ele>154.0</ele><time>2026-05-01T14:29:59Z</time></trkpt><trkpt lat="48.68427903041797" lon="3.242924658833878"><ele>154.0</ele><time>2026-05-01T14:30:00Z</time></trkpt><trkpt lat="48.68420566532329" lon="3.242869989622903"><ele>154.0</ele><time>2026-05-01T14:30:01Z</time></trkpt><trkpt lat="48.684147914225" lon="3.242826955283361"><ele>154.0</ele><time>2026-05-01T14:30:02Z</time></trkpt><trkpt lat="48.68410625411581" lon="3.242743799817456"><ele>154.0</ele><time>2026-05-01T14:30:04Z</time></trkpt><trkpt lat="48.68423796959755" lon="3.2425607556367715"><ele>154.0</ele><time>2026-05-01T14:30:06Z</time></trkpt><trkpt lat="48.684334012314636" lon="3.2424504946959525"><ele>154.0</ele><time>2026-05-01T14:30:07Z</time></trkpt><trkpt lat="48.684441013266735" lon="3.2423296146446408"><ele>153.25</ele><time>2026-05-01T14:30:08Z</time></trkpt><trkpt lat="48.68454974530047" lon="3.242192037910171"><ele>152.5</ele><time>2026-05-01T14:30:09Z</time></trkpt><trkpt lat="48.68466218435545" lon="3.242041664265081"><ele>151.75</ele><time>2026-05-01T14:30:10Z</time></trkpt><trkpt lat="48.68478015126451" lon="3.241892701884824"><ele>151.0</ele><time>2026-05-01T14:30:11Z</time></trkpt><trkpt lat="48.684898927679754" lon="3.2417402547230147"><ele>151.0</ele><time>2026-05-01T14:30:12Z</time></trkpt><trkpt lat="48.68499562533091" lon="3.2416123059118847"><ele>151.0</ele><time>2026-05-01T14:30:13Z</time></trkpt><trkpt lat="48.685066103624564" lon="3.24151793083388"><ele>151.0</ele><time>2026-05-01T14:30:14Z</time></trkpt><trkpt lat="48.68515057356048" lon="3.241404716222584"><ele>151.0</ele><time>2026-05-01T14:30:16Z</time></trkpt><trkpt lat="48.685170178321066" lon="3.2413056847097903"><ele>151.0</ele><time>2026-05-01T14:30:17Z</time></trkpt><trkpt lat="48.68517526276242" lon="3.2411569529890194"><ele>151.0</ele><time>2026-05-01T14:30:18Z</time></trkpt><trkpt lat="48.68515780087059" lon="3.2409859273673556"><ele>151.0</ele><time>2026-05-01T14:30:19Z</time></trkpt><trkpt lat="48.685132783111634" lon="3.2408065617341615"><ele>151.0</ele><time>2026-05-01T14:30:20Z</time></trkpt><trkpt lat="48.685123100338785" lon="3.2406031545766667"><ele>151.0</ele><time>2026-05-01T14:30:21Z</time></trkpt><trkpt lat="48.68511269217424" lon="3.2403895805820295"><ele>151.0</ele><time>2026-05-01T14:30:22Z</time></trkpt><trkpt lat="48.6850833991759" lon="3.240184690573967"><ele>151.0</ele><time>2026-05-01T14:30:23Z</time></trkpt><trkpt lat="48.68503224136027" lon="3.239976067822024"><ele>151.0</ele><time>2026-05-01T14:30:24Z</time></trkpt><trkpt lat="48.684978319227795" lon="3.2397612641540876"><ele>151.0</ele><time>2026-05-01T14:30:25Z</time></trkpt><trkpt lat="48.68493134439472" lon="3.239531933814997"><ele>151.66666666666669</ele><time>2026-05-01T14:30:26Z</time></trkpt><trkpt lat="48.684885589430564" lon="3.239290050227095"><ele>152.33333333333334</ele><time>2026-05-01T14:30:27Z</time></trkpt><trkpt lat="48.68483583571818" lon="3.239036849580011"><ele>153.0</ele><time>2026-05-01T14:30:28Z</time></trkpt><trkpt lat="48.684784686140674" lon="3.2387910890233544"><ele>153.33333333333334</ele><time>2026-05-01T14:30:29Z</time></trkpt><trkpt lat="48.68473136909232" lon="3.23853796101147"><ele>153.66666666666669</ele><time>2026-05-01T14:30:30Z</time></trkpt><trkpt lat="48.684677669746286" lon="3.238294767962995"><ele>154.0</ele><time>2026-05-01T14:30:31Z</time></trkpt><trkpt lat="48.68462435467552" lon="3.2380379068351948"><ele>154.0</ele><time>2026-05-01T14:30:32Z</time></trkpt><trkpt lat="48.68457316051294" lon="3.237787927901481"><ele>154.0</ele><time>2026-05-01T14:30:33Z</time></trkpt><trkpt lat="48.68451891003885" lon="3.2375318054662676"><ele>154.0</ele><time>2026-05-01T14:30:34Z</time></trkpt><trkpt lat="48.6844695632871" lon="3.2372840702261105"><ele>154.0</ele><time>2026-05-01T14:30:35Z</time></trkpt><trkpt lat="48.684413652710525" lon="3.2370307825766056"><ele>154.0</ele><time>2026-05-01T14:30:36Z</time></trkpt><trkpt lat="48.68436094249999" lon="3.2367731866726857"><ele>154.0</ele><time>2026-05-01T14:30:37Z</time></trkpt><trkpt lat="48.68430726501363" lon="3.236518109292858"><ele>154.66666666666669</ele><time>2026-05-01T14:30:38Z</time></trkpt><trkpt lat="48.6842610661318" lon="3.236258647577973"><ele>155.33333333333334</ele><time>2026-05-01T14:30:39Z</time></trkpt><trkpt lat="48.68421443925928" lon="3.2360028728597854"><ele>156.0</ele><time>2026-05-01T14:30:40Z</time></trkpt><trkpt lat="48.68415937414761" lon="3.2357439013207157"><ele>156.0</ele><time>2026-05-01T14:30:41Z</time></trkpt><trkpt lat="48.68408697427802" lon="3.2355050600993236"><ele>156.0</ele><time>2026-05-01T14:30:42Z</time></trkpt><trkpt lat="48.68399141233418" lon="3.235278854003973"><ele>156.0</ele><time>2026-05-01T14:30:43Z</time></trkpt><trkpt lat="48.68387969658964" lon="3.2350716789752547"><ele>156.0</ele><time>2026-05-01T14:30:44Z</time></trkpt><trkpt lat="48.683769162485596" lon="3.2348814112882804"><ele>156.0</ele><time>2026-05-01T14:30:45Z</time></trkpt><trkpt lat="48.683662646497844" lon="3.234672619883371"><ele>156.0</ele><time>2026-05-01T14:30:46Z</time></trkpt><trkpt lat="48.68355906687496" lon="3.2344510808640727"><ele>156.66666666666666</ele><time>2026-05-01T14:30:47Z</time></trkpt><trkpt lat="48.683452541409764" lon="3.2342444179235175"><ele>157.33333333333331</ele><time>2026-05-01T14:30:48Z</time></trkpt><trkpt lat="48.68335771062607" lon="3.234042691816418"><ele>158.0</ele><time>2026-05-01T14:30:49Z</time></trkpt><trkpt lat="48.68326264163078" lon="3.2338598957794438"><ele>158.20000000000002</ele><time>2026-05-01T14:30:50Z</time></trkpt><trkpt lat="48.683174237267885" lon="3.2337142140975828"><ele>158.4</ele><time>2026-05-01T14:30:51Z</time></trkpt><trkpt lat="48.68310530598451" lon="3.233582273453946"><ele>158.60000000000002</ele><time>2026-05-01T14:30:52Z</time></trkpt><trkpt lat="48.68304979219876" lon="3.233457913678345"><ele>158.8</ele><time>2026-05-01T14:30:53Z</time></trkpt><trkpt lat="48.68300280052913" lon="3.2333529355647816"><ele>159.0</ele><time>2026-05-01T14:30:54Z</time></trkpt><trkpt lat="48.68296012998669" lon="3.233273466448392"><ele>158.8</ele><time>2026-05-01T14:30:55Z</time></trkpt><trkpt lat="48.68295300882881" lon="3.2331389254988165"><ele>158.60000000000002</ele><time>2026-05-01T14:31:39Z</time></trkpt><trkpt lat="48.683005800571195" lon="3.2330142749389097"><ele>158.4</ele><time>2026-05-01T14:31:40Z</time></trkpt><trkpt lat="48.683032674284036" lon="3.232839008639755"><ele>158.20000000000002</ele><time>2026-05-01T14:31:41Z</time></trkpt><trkpt lat="48.683059774349026" lon="3.232648911325241"><ele>158.0</ele><time>2026-05-01T14:31:42Z</time></trkpt><trkpt lat="48.68308330194208" lon="3.232483873624281"><ele>158.0</ele><time>2026-05-01T14:31:43Z</time></trkpt><trkpt lat="48.68311002083427" lon="3.232296450135053"><ele>158.0</ele><time>2026-05-01T14:31:44Z</time></trkpt><trkpt lat="48.68314069996909" lon="3.23208124685497"><ele>158.0</ele><time>2026-05-01T14:31:45Z</time></trkpt><trkpt lat="48.68317348651026" lon="3.2318553309018396"><ele>158.0</ele><time>2026-05-01T14:31:46Z</time></trkpt><trkpt lat="48.683202785490636" lon="3.2316605100539286"><ele>158.0</ele><time>2026-05-01T14:31:47Z</time></trkpt><trkpt lat="48.683226538211336" lon="3.231502568555693"><ele>158.0</ele><time>2026-05-01T14:31:48Z</time></trkpt><trkpt lat="48.683244479104914" lon="3.231383272305585"><ele>158.0</ele><time>2026-05-01T14:31:49Z</time></trkpt><trkpt lat="48.6832599193649" lon="3.2312148196541477"><ele>158.0</ele><time>2026-05-01T14:31:51Z</time></trkpt><trkpt lat="48.683398995651075" lon="3.2311802339855396"><ele>158.0</ele><time>2026-05-01T14:31:53Z</time></trkpt><trkpt lat="48.683485708239594" lon="3.231221102188811"><ele>158.0</ele><time>2026-05-01T14:31:54Z</time></trkpt><trkpt lat="48.68359211439147" lon="3.2312546137684457"><ele>158.0</ele><time>2026-05-01T14:31:55Z</time></trkpt><trkpt lat="48.68372063712334" lon="3.2312923143646644"><ele>158.0</ele><time>2026-05-01T14:31:56Z</time></trkpt><trkpt lat="48.683865836987984" lon="3.231332163566762"><ele>158.0</ele><time>2026-05-01T14:31:57Z</time></trkpt><trkpt lat="48.684023173670646" lon="3.2313832322305522"><ele>158.0</ele><time>2026-05-01T14:31:58Z</time></trkpt><trkpt lat="48.68416113738932" lon="3.231428393718025"><ele>158.0</ele><time>2026-05-01T14:31:59Z</time></trkpt><trkpt lat="48.68428747187295" lon="3.2314801075411426"><ele>158.0</ele><time>2026-05-01T14:32:00Z</time></trkpt><trkpt lat="48.68441600645087" lon="3.2315515726707997"><ele>158.0</ele><time>2026-05-01T14:32:01Z</time></trkpt><trkpt lat="48.684541478760295" lon="3.23163254434667"><ele>157.4</ele><time>2026-05-01T14:32:02Z</time></trkpt><trkpt lat="48.68465755127335" lon="3.2317238332253035"><ele>156.8</ele><time>2026-05-01T14:32:03Z</time></trkpt><trkpt lat="48.68475406835759" lon="3.231805695388177"><ele>156.2</ele><time>2026-05-01T14:32:04Z</time></trkpt><trkpt lat="48.68482709054534" lon="3.2318720833806815"><ele>155.6</ele><time>2026-05-01T14:32:05Z</time></trkpt><trkpt lat="48.68488603834015" lon="3.23192427305606"><ele>155.0</ele><time>2026-05-01T14:32:06Z</time></trkpt><trkpt lat="48.684974438010485" lon="3.2320000476906823"><ele>155.0</ele><time>2026-05-01T14:32:08Z</time></trkpt><trkpt lat="48.68510297520182" lon="3.2316646606409782"><ele>155.0</ele><time>2026-05-01T14:32:11Z</time></trkpt><trkpt lat="48.68516413173809" lon="3.231512463369711"><ele>155.0</ele><time>2026-05-01T14:32:12Z</time></trkpt><trkpt lat="48.68523398597261" lon="3.2313455006037524"><ele>155.0</ele><time>2026-05-01T14:32:13Z</time></trkpt><trkpt lat="48.68530673834702" lon="3.2311694521848326"><ele>155.0</ele><time>2026-05-01T14:32:14Z</time></trkpt><trkpt lat="48.68538552503299" lon="3.230980588842537"><ele>155.0</ele><time>2026-05-01T14:32:15Z</time></trkpt><trkpt lat="48.6854652890808" lon="3.2307777848488177"><ele>155.0</ele><time>2026-05-01T14:32:16Z</time></trkpt><trkpt lat="48.685542457887095" lon="3.230578193218261"><ele>155.0</ele><time>2026-05-01T14:32:17Z</time></trkpt><trkpt lat="48.68562080092614" lon="3.230383180617423"><ele>155.0</ele><time>2026-05-01T14:32:18Z</time></trkpt><trkpt lat="48.685698767724155" lon="3.230187236782835"><ele>155.0</ele><time>2026-05-01T14:32:19Z</time></trkpt><trkpt lat="48.685773913665685" lon="3.2300006993441364"><ele>155.0</ele><time>2026-05-01T14:32:20Z</time></trkpt><trkpt lat="48.685833269072326" lon="3.2298398641490493"><ele>155.2</ele><time>2026-05-01T14:32:21Z</time></trkpt><trkpt lat="48.68588828570016" lon="3.229694786018457"><ele>155.4</ele><time>2026-05-01T14:32:22Z</time></trkpt><trkpt lat="48.68594328178882" lon="3.2295392391835924"><ele>155.6</ele><time>2026-05-01T14:32:23Z</time></trkpt><trkpt lat="48.68599139094941" lon="3.229405830779498"><ele>155.8</ele><time>2026-05-01T14:32:24Z</time></trkpt><trkpt lat="48.68602142697607" lon="3.229271733882165"><ele>156.0</ele><time>2026-05-01T14:32:25Z</time></trkpt><trkpt lat="48.686031048815195" lon="3.229116153399196"><ele>156.0</ele><time>2026-05-01T14:32:26Z</time></trkpt><trkpt lat="48.68602793086422" lon="3.228946508419891"><ele>156.0</ele><time>2026-05-01T14:32:27Z</time></trkpt><trkpt lat="48.68601376123693" lon="3.22875716481592"><ele>156.0</ele><time>2026-05-01T14:32:28Z</time></trkpt><trkpt lat="48.68600429167559" lon="3.2285585442918334"><ele>156.0</ele><time>2026-05-01T14:32:29Z</time></trkpt><trkpt lat="48.686002157468856" lon="3.228348312158364"><ele>156.25</ele><time>2026-05-01T14:32:30Z</time></trkpt><trkpt lat="48.685993917035255" lon="3.228136429345858"><ele>156.5</ele><time>2026-05-01T14:32:31Z</time></trkpt><trkpt lat="48.68598936898688" lon="3.227926075238196"><ele>156.75</ele><time>2026-05-01T14:32:32Z</time></trkpt><trkpt lat="48.68598469883851" lon="3.2277211995423096"><ele>157.0</ele><time>2026-05-01T14:32:33Z</time></trkpt><trkpt lat="48.68597451264983" lon="3.227534095600102"><ele>157.0</ele><time>2026-05-01T14:32:34Z</time></trkpt><trkpt lat="48.68597150099284" lon="3.227370937453914"><ele>157.0</ele><time>2026-05-01T14:32:35Z</time></trkpt><trkpt lat="48.68596260632033" lon="3.2272136944140306"><ele>157.0</ele><time>2026-05-01T14:32:36Z</time></trkpt><trkpt lat="48.68594687343134" lon="3.227083295633854"><ele>157.0</ele><time>2026-05-01T14:32:37Z</time></trkpt><trkpt lat="48.685942879831316" lon="3.226973349871226"><ele>157.0</ele><time>2026-05-01T14:32:38Z</time></trkpt><trkpt lat="48.6859464382918" lon="3.226869584605173"><ele>157.0</ele><time>2026-05-01T14:32:39Z</time></trkpt><trkpt lat="48.68595262725133" lon="3.2267492768034742"><ele>157.2</ele><time>2026-05-01T14:32:40Z</time></trkpt><trkpt lat="48.68597619911189" lon="3.2266220951222477"><ele>157.39999999999998</ele><time>2026-05-01T14:32:41Z</time></trkpt><trkpt lat="48.685990718426496" lon="3.226482276141099"><ele>157.60000000000002</ele><time>2026-05-01T14:32:42Z</time></trkpt><trkpt lat="48.686006183261675" lon="3.226335390242192"><ele>157.8</ele><time>2026-05-01T14:32:43Z</time></trkpt><trkpt lat="48.686022284911665" lon="3.226182455931928"><ele>158.0</ele><time>2026-05-01T14:32:44Z</time></trkpt><trkpt lat="48.68604031837649" lon="3.2260263026078593"><ele>158.0</ele><time>2026-05-01T14:32:45Z</time></trkpt><trkpt lat="48.68604893871446" lon="3.2258618773480623"><ele>158.0</ele><time>2026-05-01T14:32:46Z</time></trkpt><trkpt lat="48.68607634248496" lon="3.225697713438378"><ele>158.0</ele><time>2026-05-01T14:32:47Z</time></trkpt><trkpt lat="48.68612329997089" lon="3.2255383606088395"><ele>158.0</ele><time>2026-05-01T14:32:48Z</time></trkpt><trkpt lat="48.68616219790682" lon="3.2253741286004707"><ele>158.0</ele><time>2026-05-01T14:32:49Z</time></trkpt><trkpt lat="48.68620608918788" lon="3.225207837298596"><ele>158.0</ele><time>2026-05-01T14:32:50Z</time></trkpt><trkpt lat="48.68624047751369" lon="3.2250360682099783"><ele>158.0</ele><time>2026-05-01T14:32:51Z</time></trkpt><trkpt lat="48.6862948660376" lon="3.2248766673882736"><ele>158.0</ele><time>2026-05-01T14:32:52Z</time></trkpt><trkpt lat="48.68636929175462" lon="3.2247350450320496"><ele>158.0</ele><time>2026-05-01T14:32:53Z</time></trkpt><trkpt lat="48.68642922009896" lon="3.2245799700312126"><ele>158.0</ele><time>2026-05-01T14:32:54Z</time></trkpt><trkpt lat="48.686475436097304" lon="3.224414441719524"><ele>158.0</ele><time>2026-05-01T14:32:55Z</time></trkpt><trkpt lat="48.68655093230387" lon="3.2242737318616146"><ele>158.0</ele><time>2026-05-01T14:32:56Z</time></trkpt><trkpt lat="48.68661268196078" lon="3.224119847794877"><ele>157.75</ele><time>2026-05-01T14:32:57Z</time></trkpt><trkpt lat="48.6866734652206" lon="3.223960546486261"><ele>157.5</ele><time>2026-05-01T14:32:58Z</time></trkpt><trkpt lat="48.68672551787492" lon="3.223783131284957"><ele>157.25</ele><time>2026-05-01T14:32:59Z</time></trkpt><trkpt lat="48.68678696068914" lon="3.223605914161518"><ele>157.0</ele><time>2026-05-01T14:33:00Z</time></trkpt><trkpt lat="48.68684958439814" lon="3.223423433611481"><ele>157.0</ele><time>2026-05-01T14:33:01Z</time></trkpt><trkpt lat="48.68691521291781" lon="3.2232355416025076"><ele>157.0</ele><time>2026-05-01T14:33:02Z</time></trkpt><trkpt lat="48.686979766539494" lon="3.2230465878865235"><ele>157.0</ele><time>2026-05-01T14:33:03Z</time></trkpt><trkpt lat="48.68703745660655" lon="3.2228577646376007"><ele>157.0</ele><time>2026-05-01T14:33:04Z</time></trkpt><trkpt lat="48.68707927448467" lon="3.2226852249034565"><ele>157.0</ele><time>2026-05-01T14:33:05Z</time></trkpt><trkpt lat="48.6871087106775" lon="3.2225261345050886"><ele>157.0</ele><time>2026-05-01T14:33:06Z</time></trkpt><trkpt lat="48.68714425783308" lon="3.222386957732051"><ele>157.0</ele><time>2026-05-01T14:33:07Z</time></trkpt><trkpt lat="48.68716295993617" lon="3.222264196143411"><ele>157.0</ele><time>2026-05-01T14:33:08Z</time></trkpt><trkpt lat="48.68717969761985" lon="3.2221514171949672"><ele>157.0</ele><time>2026-05-01T14:33:09Z</time></trkpt><trkpt lat="48.687188005439154" lon="3.221987126172396"><ele>157.25</ele><time>2026-05-01T14:33:11Z</time></trkpt><trkpt lat="48.687210387156796" lon="3.221783837110886"><ele>157.5</ele><time>2026-05-01T14:33:13Z</time></trkpt><trkpt lat="48.68721378552355" lon="3.2216369501344633"><ele>157.75</ele><time>2026-05-01T14:33:14Z</time></trkpt><trkpt lat="48.687094100161545" lon="3.2214540917331265"><ele>158.0</ele><time>2026-05-01T14:33:15Z</time></trkpt><trkpt lat="48.68705851530332" lon="3.2212517139520767"><ele>158.0</ele><time>2026-05-01T14:33:16Z</time></trkpt><trkpt lat="48.68700432884217" lon="3.221028959568244"><ele>158.0</ele><time>2026-05-01T14:33:17Z</time></trkpt><trkpt lat="48.686947889876095" lon="3.2208027833432"><ele>158.0</ele><time>2026-05-01T14:33:18Z</time></trkpt><trkpt lat="48.686887562029085" lon="3.2206031189383504"><ele>157.33333333333331</ele><time>2026-05-01T14:33:19Z</time></trkpt><trkpt lat="48.68683405580524" lon="3.220291797447445"><ele>156.66666666666666</ele><time>2026-05-01T14:33:20Z</time></trkpt><trkpt lat="48.68677078200737" lon="3.2200139804577215"><ele>156.0</ele><time>2026-05-01T14:33:21Z</time></trkpt><trkpt lat="48.68671460307932" lon="3.2197823409056223"><ele>156.0</ele><time>2026-05-01T14:33:22Z</time></trkpt><trkpt lat="48.68664789423467" lon="3.2195006948812543"><ele>156.0</ele><time>2026-05-01T14:33:23Z</time></trkpt><trkpt lat="48.68657999353367" lon="3.2192083051788596"><ele>156.0</ele><time>2026-05-01T14:33:24Z</time></trkpt><trkpt lat="48.68651240538058" lon="3.218914254674401"><ele>156.0</ele><time>2026-05-01T14:33:25Z</time></trkpt><trkpt lat="48.686445706901594" lon="3.218614816809458"><ele>156.0</ele><time>2026-05-01T14:33:26Z</time></trkpt><trkpt lat="48.68637894667837" lon="3.2183063023330503"><ele>156.0</ele><time>2026-05-01T14:33:27Z</time></trkpt><trkpt lat="48.6863126135468" lon="3.2179920275870697"><ele>155.66666666666666</ele><time>2026-05-01T14:33:28Z</time></trkpt><trkpt lat="48.68624235753245" lon="3.2176707374550095"><ele>155.33333333333331</ele><time>2026-05-01T14:33:29Z</time></trkpt><trkpt lat="48.68616843821863" lon="3.2173560866225706"><ele>155.0</ele><time>2026-05-01T14:33:30Z</time></trkpt><trkpt lat="48.68609785466699" lon="3.217073088574868"><ele>155.33333333333331</ele><time>2026-05-01T14:33:31Z</time></trkpt><trkpt lat="48.686040516943955" lon="3.216825127651866"><ele>155.66666666666666</ele><time>2026-05-01T14:33:32Z</time></trkpt><trkpt lat="48.68599757047385" lon="3.216607704044813"><ele>156.0</ele><time>2026-05-01T14:33:33Z</time></trkpt><trkpt lat="48.685954777976555" lon="3.2164063701037127"><ele>156.5</ele><time>2026-05-01T14:33:34Z</time></trkpt><trkpt lat="48.68590773448531" lon="3.216234474976718"><ele>157.0</ele><time>2026-05-01T14:33:35Z</time></trkpt><trkpt lat="48.68586948605576" lon="3.216063052685497"><ele>157.5</ele><time>2026-05-01T14:33:36Z</time></trkpt><trkpt lat="48.685838923998546" lon="3.215909805955964"><ele>158.0</ele><time>2026-05-01T14:33:37Z</time></trkpt><trkpt lat="48.685805710970264" lon="3.2157603303973215"><ele>158.16666666666666</ele><time>2026-05-01T14:33:38Z</time></trkpt><trkpt lat="48.6857735657126" lon="3.2156160311215367"><ele>158.33333333333331</ele><time>2026-05-01T14:33:39Z</time></trkpt><trkpt lat="48.685749964321865" lon="3.2155068062092633"><ele>158.5</ele><time>2026-05-01T14:33:40Z</time></trkpt><trkpt lat="48.6857290723147" lon="3.215414610377997"><ele>158.66666666666666</ele><time>2026-05-01T14:33:41Z</time></trkpt><trkpt lat="48.68573980280272" lon="3.2152973618330796"><ele>158.83333333333334</ele><time>2026-05-01T14:33:42Z</time></trkpt><trkpt lat="48.68579079153274" lon="3.2151741060441665"><ele>159.0</ele><time>2026-05-01T14:33:43Z</time></trkpt><trkpt lat="48.6858492331627" lon="3.215007419016746"><ele>159.66666666666666</ele><time>2026-05-01T14:33:44Z</time></trkpt><trkpt lat="48.68591092209018" lon="3.214813204689736"><ele>160.33333333333331</ele><time>2026-05-01T14:33:45Z</time></trkpt><trkpt lat="48.6859854837785" lon="3.2146046627374742"><ele>161.0</ele><time>2026-05-01T14:33:46Z</time></trkpt><trkpt lat="48.68605861889034" lon="3.214385353584959"><ele>160.66666666666666</ele><time>2026-05-01T14:33:47Z</time></trkpt><trkpt lat="48.68613927117247" lon="3.214167773916336"><ele>160.33333333333334</ele><time>2026-05-01T14:33:48Z</time></trkpt><trkpt lat="48.68622982965545" lon="3.2139466900381803"><ele>160.0</ele><time>2026-05-01T14:33:49Z</time></trkpt><trkpt lat="48.68631561694639" lon="3.2137081231329057"><ele>160.0</ele><time>2026-05-01T14:33:50Z</time></trkpt><trkpt lat="48.68640409108853" lon="3.2134709387608207"><ele>160.0</ele><time>2026-05-01T14:33:51Z</time></trkpt><trkpt lat="48.686486791374065" lon="3.2132746378119643"><ele>160.0</ele><time>2026-05-01T14:33:52Z</time></trkpt><trkpt lat="48.68656305083308" lon="3.2130911162107902"><ele>159.75</ele><time>2026-05-01T14:33:53Z</time></trkpt><trkpt lat="48.68662973256946" lon="3.2129467802800065"><ele>159.5</ele><time>2026-05-01T14:33:54Z</time></trkpt><trkpt lat="48.68669585941108" lon="3.2128046512002495"><ele>159.25</ele><time>2026-05-01T14:33:55Z</time></trkpt><trkpt lat="48.68674786784615" lon="3.2126443632178217"><ele>159.0</ele><time>2026-05-01T14:33:56Z</time></trkpt><trkpt lat="48.6867944590604" lon="3.212480594806434"><ele>158.5</ele><time>2026-05-01T14:33:57Z</time></trkpt><trkpt lat="48.6868307139603" lon="3.2123182652242326"><ele>158.0</ele><time>2026-05-01T14:33:58Z</time></trkpt><trkpt lat="48.68686571958446" lon="3.2121529222835035"><ele>157.5</ele><time>2026-05-01T14:33:59Z</time></trkpt><trkpt lat="48.686891164549955" lon="3.2119892650596262"><ele>157.0</ele><time>2026-05-01T14:34:00Z</time></trkpt><trkpt lat="48.68691797153809" lon="3.2118232275213465"><ele>157.0</ele><time>2026-05-01T14:34:01Z</time></trkpt><trkpt lat="48.68693793219881" lon="3.2116516247786944"><ele>157.0</ele><time>2026-05-01T14:34:02Z</time></trkpt><trkpt lat="48.686964477072536" lon="3.2114807781677857"><ele>157.0</ele><time>2026-05-01T14:34:03Z</time></trkpt><trkpt lat="48.686994340309276" lon="3.211302122235928"><ele>157.0</ele><time>2026-05-01T14:34:04Z</time></trkpt><trkpt lat="48.68702454269293" lon="3.2111104358442253"><ele>157.0</ele><time>2026-05-01T14:34:05Z</time></trkpt><trkpt lat="48.6870555320652" lon="3.2109123300580382"><ele>157.0</ele><time>2026-05-01T14:34:06Z</time></trkpt><trkpt lat="48.687086104230204" lon="3.210705345999535"><ele>157.0</ele><time>2026-05-01T14:34:07Z</time></trkpt><trkpt lat="48.6871155951042" lon="3.210494583202522"><ele>157.0</ele><time>2026-05-01T14:34:08Z</time></trkpt><trkpt lat="48.687149828142324" lon="3.210277958911972"><ele>156.75</ele><time>2026-05-01T14:34:09Z</time></trkpt><trkpt lat="48.68718498602467" lon="3.2100603528638363"><ele>156.5</ele><time>2026-05-01T14:34:10Z</time></trkpt><trkpt lat="48.6872148572543" lon="3.209837864871432"><ele>156.25</ele><time>2026-05-01T14:34:11Z</time></trkpt><trkpt lat="48.68724481738352" lon="3.2096178543200278"><ele>156.0</ele><time>2026-05-01T14:34:12Z</time></trkpt><trkpt lat="48.68728078974593" lon="3.2093939855987776"><ele>156.0</ele><time>2026-05-01T14:34:13Z</time></trkpt><trkpt lat="48.687313881267514" lon="3.2091706806208204"><ele>156.0</ele><time>2026-05-01T14:34:14Z</time></trkpt><trkpt lat="48.68734865550931" lon="3.208943476006979"><ele>156.0</ele><time>2026-05-01T14:34:15Z</time></trkpt><trkpt lat="48.68738347919033" lon="3.208719358959284"><ele>155.66666666666666</ele><time>2026-05-01T14:34:16Z</time></trkpt><trkpt lat="48.68742141709552" lon="3.208497406838378"><ele>155.33333333333331</ele><time>2026-05-01T14:34:17Z</time></trkpt><trkpt lat="48.68745695670447" lon="3.208275089735749"><ele>155.0</ele><time>2026-05-01T14:34:18Z</time></trkpt><trkpt lat="48.68748852818108" lon="3.2080505706642466"><ele>155.0</ele><time>2026-05-01T14:34:19Z</time></trkpt><trkpt lat="48.68751757286259" lon="3.207825968771515"><ele>155.0</ele><time>2026-05-01T14:34:20Z</time></trkpt><trkpt lat="48.68754755870083" lon="3.207601952808178"><ele>155.0</ele><time>2026-05-01T14:34:21Z</time></trkpt><trkpt lat="48.687588875555114" lon="3.207384434988866"><ele>155.25</ele><time>2026-05-01T14:34:22Z</time></trkpt><trkpt lat="48.68761220178923" lon="3.207160373331154"><ele>155.5</ele><time>2026-05-01T14:34:23Z</time></trkpt><trkpt lat="48.68765885199813" lon="3.2069439689802084"><ele>155.75</ele><time>2026-05-01T14:34:24Z</time></trkpt><trkpt lat="48.68769606312511" lon="3.2067309300160867"><ele>156.0</ele><time>2026-05-01T14:34:25Z</time></trkpt><trkpt lat="48.6877281782838" lon="3.206501973589027"><ele>156.0</ele><time>2026-05-01T14:34:26Z</time></trkpt><trkpt lat="48.6877607915266" lon="3.206276197550183"><ele>156.0</ele><time>2026-05-01T14:34:27Z</time></trkpt><trkpt lat="48.68779691003423" lon="3.2060488309886845"><ele>156.0</ele><time>2026-05-01T14:34:28Z</time></trkpt><trkpt lat="48.68783388536691" lon="3.205824222382421"><ele>156.0</ele><time>2026-05-01T14:34:29Z</time></trkpt><trkpt lat="48.68786964688647" lon="3.2055986710525524"><ele>156.0</ele><time>2026-05-01T14:34:30Z</time></trkpt><trkpt lat="48.687904200648546" lon="3.205369701627523"><ele>156.0</ele><time>2026-05-01T14:34:31Z</time></trkpt><trkpt lat="48.687945683376526" lon="3.2051327063410304"><ele>156.0</ele><time>2026-05-01T14:34:32Z</time></trkpt><trkpt lat="48.68797893322853" lon="3.20489892764856"><ele>156.0</ele><time>2026-05-01T14:34:33Z</time></trkpt><trkpt lat="48.6880077254258" lon="3.2046792363054704"><ele>156.0</ele><time>2026-05-01T14:34:34Z</time></trkpt><trkpt lat="48.68803726692981" lon="3.2044965970255492"><ele>156.0</ele><time>2026-05-01T14:34:35Z</time></trkpt><trkpt lat="48.68806706117949" lon="3.204327392473475"><ele>156.2</ele><time>2026-05-01T14:34:36Z</time></trkpt><trkpt lat="48.688072452839855" lon="3.204181777639446"><ele>156.39999999999998</ele><time>2026-05-01T14:34:37Z</time></trkpt><trkpt lat="48.688070342626446" lon="3.2040305066713137"><ele>156.6</ele><time>2026-05-01T14:34:38Z</time></trkpt><trkpt lat="48.688059317011565" lon="3.2038767342739236"><ele>156.79999999999998</ele><time>2026-05-01T14:34:39Z</time></trkpt><trkpt lat="48.688034991445846" lon="3.203735178454336"><ele>157.0</ele><time>2026-05-01T14:34:40Z</time></trkpt><trkpt lat="48.68801391903134" lon="3.2035930974597866"><ele>157.0</ele><time>2026-05-01T14:34:41Z</time></trkpt><trkpt lat="48.68798925673806" lon="3.2034458845230604"><ele>157.0</ele><time>2026-05-01T14:34:42Z</time></trkpt><trkpt lat="48.687965130724955" lon="3.203298265266835"><ele>157.0</ele><time>2026-05-01T14:34:43Z</time></trkpt><trkpt lat="48.68794325478746" lon="3.2031467456937497"><ele>157.0</ele><time>2026-05-01T14:34:44Z</time></trkpt><trkpt lat="48.68794515866282" lon="3.202983411594035"><ele>157.0</ele><time>2026-05-01T14:34:45Z</time></trkpt><trkpt lat="48.68792031274703" lon="3.2028364492860346"><ele>157.0</ele><time>2026-05-01T14:34:46Z</time></trkpt><trkpt lat="48.68790088721634" lon="3.202672247689749"><ele>157.0</ele><time>2026-05-01T14:34:47Z</time></trkpt><trkpt lat="48.68787616996147" lon="3.2024765444807843"><ele>157.0</ele><time>2026-05-01T14:34:48Z</time></trkpt><trkpt lat="48.68784757152422" lon="3.2022537375473883"><ele>157.0</ele><time>2026-05-01T14:34:49Z</time></trkpt><trkpt lat="48.68782277207749" lon="3.202060099987399"><ele>156.79999999999998</ele><time>2026-05-01T14:34:50Z</time></trkpt><trkpt lat="48.68780332493776" lon="3.201897996321861"><ele>156.6</ele><time>2026-05-01T14:34:51Z</time></trkpt><trkpt lat="48.68778650158948" lon="3.2017529095707316"><ele>156.39999999999998</ele><time>2026-05-01T14:34:52Z</time></trkpt><trkpt lat="48.687769254172586" lon="3.2015979193064914"><ele>156.2</ele><time>2026-05-01T14:34:53Z</time></trkpt><trkpt lat="48.68775158968276" lon="3.201439180471907"><ele>156.0</ele><time>2026-05-01T14:34:54Z</time></trkpt><trkpt lat="48.68773358308289" lon="3.201276102646425"><ele>155.6</ele><time>2026-05-01T14:34:55Z</time></trkpt><trkpt lat="48.68771621471597" lon="3.2011113575004404"><ele>155.2</ele><time>2026-05-01T14:34:56Z</time></trkpt><trkpt lat="48.687695861090035" lon="3.2009494555522395"><ele>154.8</ele><time>2026-05-01T14:34:57Z</time></trkpt><trkpt lat="48.68766779005729" lon="3.2008126742883176"><ele>154.4</ele><time>2026-05-01T14:34:58Z</time></trkpt><trkpt lat="48.687635754395885" lon="3.2007004848317497"><ele>154.0</ele><time>2026-05-01T14:34:59Z</time></trkpt><trkpt lat="48.68755194964121" lon="3.200620917117637"><ele>153.8</ele><time>2026-05-01T14:35:00Z</time></trkpt><trkpt lat="48.68746742322147" lon="3.200536628383687"><ele>153.60000000000002</ele><time>2026-05-01T14:35:01Z</time></trkpt><trkpt lat="48.68737775141818" lon="3.2004496191937815"><ele>153.4</ele><time>2026-05-01T14:35:02Z</time></trkpt><trkpt lat="48.68727856017609" lon="3.2003533735020713"><ele>153.20000000000002</ele><time>2026-05-01T14:35:03Z</time></trkpt><trkpt lat="48.68717387677057" lon="3.2002528526940046"><ele>153.0</ele><time>2026-05-01T14:35:04Z</time></trkpt><trkpt lat="48.68706605243883" lon="3.2001497298589037"><ele>153.0</ele><time>2026-05-01T14:35:05Z</time></trkpt><trkpt lat="48.686954281725804" lon="3.200042832260665"><ele>153.0</ele><time>2026-05-01T14:35:06Z</time></trkpt><trkpt lat="48.68684009319908" lon="3.199933621098344"><ele>153.0</ele><time>2026-05-01T14:35:07Z</time></trkpt><trkpt lat="48.6867225176194" lon="3.199821172108618"><ele>153.0</ele><time>2026-05-01T14:35:08Z</time></trkpt><trkpt lat="48.686603334120335" lon="3.1997040020771728"><ele>152.0</ele><time>2026-05-01T14:35:09Z</time></trkpt><trkpt lat="48.68648224287478" lon="3.1995837493363934"><ele>151.0</ele><time>2026-05-01T14:35:10Z</time></trkpt><trkpt lat="48.6863581389718" lon="3.1994605046627895"><ele>150.0</ele><time>2026-05-01T14:35:11Z</time></trkpt><trkpt lat="48.68623012419014" lon="3.1993357162063925"><ele>149.0</ele><time>2026-05-01T14:35:12Z</time></trkpt><trkpt lat="48.686100472360835" lon="3.199210551107677"><ele>147.66666666666666</ele><time>2026-05-01T14:35:13Z</time></trkpt><trkpt lat="48.685966608648116" lon="3.1990823101595387"><ele>146.33333333333334</ele><time>2026-05-01T14:35:14Z</time></trkpt><trkpt lat="48.68583057669809" lon="3.198952381391875"><ele>145.0</ele><time>2026-05-01T14:35:15Z</time></trkpt><trkpt lat="48.68568790690786" lon="3.198816112621736"><ele>144.33333333333334</ele><time>2026-05-01T14:35:16Z</time></trkpt><trkpt lat="48.68552543695826" lon="3.1986609320525754"><ele>143.66666666666666</ele><time>2026-05-01T14:35:17Z</time></trkpt><trkpt lat="48.6853590907695" lon="3.1985012803056874"><ele>143.0</ele><time>2026-05-01T14:35:18Z</time></trkpt><trkpt lat="48.685186528100715" lon="3.198333131627822"><ele>140.66666666666666</ele><time>2026-05-01T14:35:19Z</time></trkpt><trkpt lat="48.68500987991929" lon="3.1981610019598117"><ele>138.33333333333334</ele><time>2026-05-01T14:35:20Z</time></trkpt><trkpt lat="48.68483229268945" lon="3.1979872264125264"><ele>136.0</ele><time>2026-05-01T14:35:21Z</time></trkpt><trkpt lat="48.684658265638895" lon="3.197816816026549"><ele>136.0</ele><time>2026-05-01T14:35:22Z</time></trkpt><trkpt lat="48.68448779312461" lon="3.197649853461397"><ele>136.0</ele><time>2026-05-01T14:35:23Z</time></trkpt><trkpt lat="48.68433501458666" lon="3.1975002117402926"><ele>136.0</ele><time>2026-05-01T14:35:24Z</time></trkpt><trkpt lat="48.68419873069064" lon="3.1973667260648018"><ele>136.33333333333334</ele><time>2026-05-01T14:35:25Z</time></trkpt><trkpt lat="48.684070809187475" lon="3.197240881848533"><ele>136.66666666666666</ele><time>2026-05-01T14:35:26Z</time></trkpt><trkpt lat="48.6839431768131" lon="3.197115283840196"><ele>137.0</ele><time>2026-05-01T14:35:27Z</time></trkpt><trkpt lat="48.68381764979931" lon="3.196991705202438"><ele>137.0</ele><time>2026-05-01T14:35:28Z</time></trkpt><trkpt lat="48.68369479910002" lon="3.196870410294881"><ele>137.0</ele><time>2026-05-01T14:35:29Z</time></trkpt><trkpt lat="48.683579721644335" lon="3.1967581961929845"><ele>137.0</ele><time>2026-05-01T14:35:30Z</time></trkpt><trkpt lat="48.68348048452243" lon="3.1966620173793916"><ele>137.0</ele><time>2026-05-01T14:35:31Z</time></trkpt><trkpt lat="48.68339375848644" lon="3.1965793393185273"><ele>137.2</ele><time>2026-05-01T14:35:32Z</time></trkpt><trkpt lat="48.683305896891994" lon="3.196495580497622"><ele>137.39999999999998</ele><time>2026-05-01T14:35:33Z</time></trkpt><trkpt lat="48.68321535184044" lon="3.196409261451001"><ele>137.60000000000002</ele><time>2026-05-01T14:35:34Z</time></trkpt><trkpt lat="48.683122728825246" lon="3.1963200632292392"><ele>137.8</ele><time>2026-05-01T14:35:35Z</time></trkpt><trkpt lat="48.68303756964227" lon="3.1962374274841716"><ele>138.0</ele><time>2026-05-01T14:35:36Z</time></trkpt><trkpt lat="48.68296862067573" lon="3.1961705216071223"><ele>138.0</ele><time>2026-05-01T14:35:37Z</time></trkpt><trkpt lat="48.68287014287876" lon="3.1960991154558487"><ele>138.0</ele><time>2026-05-01T14:35:39Z</time></trkpt><trkpt lat="48.68283578809907" lon="3.1959987507394603"><ele>138.0</ele><time>2026-05-01T14:35:41Z</time></trkpt><trkpt lat="48.682934177806914" lon="3.1957712969579846"><ele>138.0</ele><time>2026-05-01T14:35:42Z</time></trkpt><trkpt lat="48.682983210232926" lon="3.1956205039053343"><ele>137.75</ele><time>2026-05-01T14:35:43Z</time></trkpt><trkpt lat="48.683035379279616" lon="3.195464172419518"><ele>137.5</ele><time>2026-05-01T14:35:44Z</time></trkpt><trkpt lat="48.68309322177329" lon="3.195300390165989"><ele>137.25</ele><time>2026-05-01T14:35:45Z</time></trkpt><trkpt lat="48.68315278960035" lon="3.195131705082795"><ele>137.0</ele><time>2026-05-01T14:35:46Z</time></trkpt><trkpt lat="48.68321227118646" lon="3.194962679888908"><ele>136.66666666666666</ele><time>2026-05-01T14:35:47Z</time></trkpt><trkpt lat="48.68327189865126" lon="3.194771453753004"><ele>136.33333333333334</ele><time>2026-05-01T14:35:48Z</time></trkpt><trkpt lat="48.683342698128385" lon="3.194559702857048"><ele>136.0</ele><time>2026-05-01T14:35:49Z</time></trkpt><trkpt lat="48.683421187368054" lon="3.194341580301645"><ele>136.0</ele><time>2026-05-01T14:35:50Z</time></trkpt><trkpt lat="48.683505112873895" lon="3.1941222419847253"><ele>136.0</ele><time>2026-05-01T14:35:51Z</time></trkpt><trkpt lat="48.683584604993214" lon="3.1938832555006638"><ele>136.0</ele><time>2026-05-01T14:35:52Z</time></trkpt><trkpt lat="48.68366777802838" lon="3.1936394394104997"><ele>136.0</ele><time>2026-05-01T14:35:53Z</time></trkpt><trkpt lat="48.683749761691374" lon="3.193408060853898"><ele>136.0</ele><time>2026-05-01T14:35:54Z</time></trkpt><trkpt lat="48.68383731094308" lon="3.193160062914122"><ele>136.0</ele><time>2026-05-01T14:35:55Z</time></trkpt><trkpt lat="48.68391949987251" lon="3.1929086836661544"><ele>136.0</ele><time>2026-05-01T14:35:56Z</time></trkpt><trkpt lat="48.68400343128402" lon="3.1926576386948655"><ele>136.0</ele><time>2026-05-01T14:35:57Z</time></trkpt><trkpt lat="48.684088203189205" lon="3.1924311279182214"><ele>136.0</ele><time>2026-05-01T14:35:58Z</time></trkpt><trkpt lat="48.68415392980428" lon="3.192245812527352"><ele>136.5</ele><time>2026-05-01T14:35:59Z</time></trkpt><trkpt lat="48.684204657766735" lon="3.192092393849893"><ele>137.0</ele><time>2026-05-01T14:36:00Z</time></trkpt><trkpt lat="48.68423034152374" lon="3.1919398446606277"><ele>137.5</ele><time>2026-05-01T14:36:01Z</time></trkpt><trkpt lat="48.684216275491686" lon="3.191768126134527"><ele>138.0</ele><time>2026-05-01T14:36:02Z</time></trkpt><trkpt lat="48.68417338285121" lon="3.1915868594308474"><ele>138.25</ele><time>2026-05-01T14:36:03Z</time></trkpt><trkpt lat="48.68412737876838" lon="3.1913991743591654"><ele>138.5</ele><time>2026-05-01T14:36:04Z</time></trkpt><trkpt lat="48.684082350315336" lon="3.191195617039516"><ele>138.75</ele><time>2026-05-01T14:36:05Z</time></trkpt><trkpt lat="48.68404458906278" lon="3.1909945862576214"><ele>139.0</ele><time>2026-05-01T14:36:06Z</time></trkpt><trkpt lat="48.68400697550366" lon="3.1907922290773287"><ele>138.25</ele><time>2026-05-01T14:36:07Z</time></trkpt><trkpt lat="48.68396530804349" lon="3.1905795244838786"><ele>137.5</ele><time>2026-05-01T14:36:08Z</time></trkpt><trkpt lat="48.683925649645865" lon="3.1903764093494105"><ele>136.75</ele><time>2026-05-01T14:36:09Z</time></trkpt><trkpt lat="48.68389210361434" lon="3.1901689013594456"><ele>136.0</ele><time>2026-05-01T14:36:10Z</time></trkpt><trkpt lat="48.68385444292972" lon="3.189991331647701"><ele>135.5</ele><time>2026-05-01T14:36:11Z</time></trkpt><trkpt lat="48.68382809938401" lon="3.1898006224696642"><ele>135.0</ele><time>2026-05-01T14:36:12Z</time></trkpt><trkpt lat="48.683789760498925" lon="3.1896103713496458"><ele>134.5</ele><time>2026-05-01T14:36:13Z</time></trkpt><trkpt lat="48.68375169168961" lon="3.18941364015738"><ele>134.0</ele><time>2026-05-01T14:36:14Z</time></trkpt><trkpt lat="48.68371921045961" lon="3.1892097294005928"><ele>134.0</ele><time>2026-05-01T14:36:15Z</time></trkpt><trkpt lat="48.683666674097616" lon="3.1890193780150735"><ele>134.0</ele><time>2026-05-01T14:36:16Z</time></trkpt><trkpt lat="48.683623306145115" lon="3.1888145662462515"><ele>134.0</ele><time>2026-05-01T14:36:17Z</time></trkpt><trkpt lat="48.68358439675398" lon="3.1886124889979954"><ele>134.0</ele><time>2026-05-01T14:36:18Z</time></trkpt><trkpt lat="48.683544882898005" lon="3.188443939520023"><ele>134.0</ele><time>2026-05-01T14:36:19Z</time></trkpt><trkpt lat="48.683515764335375" lon="3.1883189060166495"><ele>134.0</ele><time>2026-05-01T14:36:20Z</time></trkpt><trkpt lat="48.683494897069785" lon="3.1882169524788786"><ele>134.0</ele><time>2026-05-01T14:36:21Z</time></trkpt><trkpt lat="48.68347617254806" lon="3.188107214444396"><ele>134.0</ele><time>2026-05-01T14:36:23Z</time></trkpt><trkpt lat="48.683487744221374" lon="3.1879594197420658"><ele>134.0</ele><time>2026-05-01T14:36:27Z</time></trkpt><trkpt lat="48.68356015260211" lon="3.187923753359353"><ele>134.0</ele><time>2026-05-01T14:36:28Z</time></trkpt><trkpt lat="48.68364118637275" lon="3.187897051523178"><ele>134.0</ele><time>2026-05-01T14:36:29Z</time></trkpt><trkpt lat="48.683722450665634" lon="3.187821550592859"><ele>134.0</ele><time>2026-05-01T14:36:30Z</time></trkpt><trkpt lat="48.683816559240896" lon="3.187694205500768"><ele>134.0</ele><time>2026-05-01T14:36:31Z</time></trkpt><trkpt lat="48.68389340239907" lon="3.1875129798724435"><ele>134.0</ele><time>2026-05-01T14:36:32Z</time></trkpt><trkpt lat="48.68397170504641" lon="3.1873148546652352"><ele>134.0</ele><time>2026-05-01T14:36:33Z</time></trkpt><trkpt lat="48.684063602688646" lon="3.187112464940814"><ele>134.0</ele><time>2026-05-01T14:36:34Z</time></trkpt><trkpt lat="48.684159028400394" lon="3.186907206578782"><ele>134.0</ele><time>2026-05-01T14:36:35Z</time></trkpt><trkpt lat="48.68424774655765" lon="3.186689381449031"><ele>134.0</ele><time>2026-05-01T14:36:36Z</time></trkpt><trkpt lat="48.684331642750244" lon="3.186493818689227"><ele>134.0</ele><time>2026-05-01T14:36:37Z</time></trkpt><trkpt lat="48.684518111962475" lon="3.1863175777582184"><ele>134.0</ele><time>2026-05-01T14:36:38Z</time></trkpt><trkpt lat="48.68467416225323" lon="3.186146365350702"><ele>135.0</ele><time>2026-05-01T14:36:39Z</time></trkpt><trkpt lat="48.68483697469004" lon="3.1859713889531647"><ele>136.0</ele><time>2026-05-01T14:36:40Z</time></trkpt><trkpt lat="48.6849923060337" lon="3.1857765742603674"><ele>137.0</ele><time>2026-05-01T14:36:41Z</time></trkpt><trkpt lat="48.68514304619067" lon="3.185621762663616"><ele>137.0</ele><time>2026-05-01T14:36:42Z</time></trkpt><trkpt lat="48.68523729533978" lon="3.185521428496308"><ele>137.0</ele><time>2026-05-01T14:36:43Z</time></trkpt><trkpt lat="48.685309171075815" lon="3.185459318660826"><ele>137.0</ele><time>2026-05-01T14:36:44Z</time></trkpt><trkpt lat="48.6853726343079" lon="3.185372317075254"><ele>137.0</ele><time>2026-05-01T14:36:54Z</time></trkpt><trkpt lat="48.68525734792589" lon="3.185064805193256"><ele>137.0</ele><time>2026-05-01T14:36:55Z</time></trkpt><trkpt lat="48.685210594211085" lon="3.184867282859483"><ele>137.0</ele><time>2026-05-01T14:36:56Z</time></trkpt><trkpt lat="48.68516478842398" lon="3.1846459425634244"><ele>137.0</ele><time>2026-05-01T14:36:57Z</time></trkpt><trkpt lat="48.68513191558916" lon="3.184397155439188"><ele>136.66666666666666</ele><time>2026-05-01T14:36:58Z</time></trkpt><trkpt lat="48.685084223371916" lon="3.184145910425016"><ele>136.33333333333334</ele><time>2026-05-01T14:36:59Z</time></trkpt><trkpt lat="48.68503957242194" lon="3.183869003579941"><ele>136.0</ele><time>2026-05-01T14:37:00Z</time></trkpt><trkpt lat="48.684999204349204" lon="3.183643322904383"><ele>134.66666666666669</ele><time>2026-05-01T14:37:01Z</time></trkpt><trkpt lat="48.684961554054716" lon="3.1834183744932174"><ele>133.33333333333334</ele><time>2026-05-01T14:37:02Z</time></trkpt><trkpt lat="48.684921944106385" lon="3.183169455964015"><ele>132.0</ele><time>2026-05-01T14:37:03Z</time></trkpt><trkpt lat="48.68489358897322" lon="3.182966841297624"><ele>131.6</ele><time>2026-05-01T14:37:04Z</time></trkpt><trkpt lat="48.68488174365971" lon="3.1828117708842596"><ele>131.2</ele><time>2026-05-01T14:37:05Z</time></trkpt><trkpt lat="48.68486879933456" lon="3.1826974817898193"><ele>130.8</ele><time>2026-05-01T14:37:06Z</time></trkpt><trkpt lat="48.68485653552093" lon="3.182595221012723"><ele>130.4</ele><time>2026-05-01T14:37:07Z</time></trkpt><trkpt lat="48.684842897659315" lon="3.1824614761145282"><ele>130.0</ele><time>2026-05-01T14:37:08Z</time></trkpt><trkpt lat="48.684821884724904" lon="3.1822714752773242"><ele>130.0</ele><time>2026-05-01T14:37:09Z</time></trkpt><trkpt lat="48.6847978091645" lon="3.1820537582291957"><ele>130.0</ele><time>2026-05-01T14:37:10Z</time></trkpt><trkpt lat="48.68476927359057" lon="3.181826412721962"><ele>130.0</ele><time>2026-05-01T14:37:11Z</time></trkpt><trkpt lat="48.684745557798095" lon="3.1815916746749795"><ele>131.0</ele><time>2026-05-01T14:37:12Z</time></trkpt><trkpt lat="48.68472044980645" lon="3.181347624926686"><ele>132.0</ele><time>2026-05-01T14:37:13Z</time></trkpt><trkpt lat="48.68469675706604" lon="3.1811072953983985"><ele>133.0</ele><time>2026-05-01T14:37:14Z</time></trkpt><trkpt lat="48.68467525988468" lon="3.1808694742497527"><ele>134.0</ele><time>2026-05-01T14:37:15Z</time></trkpt><trkpt lat="48.68465773283259" lon="3.180629732479937"><ele>135.0</ele><time>2026-05-01T14:37:16Z</time></trkpt><trkpt lat="48.68463089483804" lon="3.180399299261217"><ele>136.0</ele><time>2026-05-01T14:37:17Z</time></trkpt><trkpt lat="48.68461410065648" lon="3.1801618504892115"><ele>136.0</ele><time>2026-05-01T14:37:18Z</time></trkpt><trkpt lat="48.684586275738084" lon="3.1799197045654495"><ele>136.0</ele><time>2026-05-01T14:37:19Z</time></trkpt><trkpt lat="48.684569979665504" lon="3.179669747061881"><ele>136.0</ele><time>2026-05-01T14:37:20Z</time></trkpt><trkpt lat="48.68455231287667" lon="3.1794316900517066"><ele>136.33333333333334</ele><time>2026-05-01T14:37:21Z</time></trkpt><trkpt lat="48.68453607003166" lon="3.1791876002332615"><ele>136.66666666666666</ele><time>2026-05-01T14:37:22Z</time></trkpt><trkpt lat="48.68451231606899" lon="3.178936523117305"><ele>137.0</ele><time>2026-05-01T14:37:23Z</time></trkpt><trkpt lat="48.68448539610699" lon="3.1787259207469996"><ele>137.6</ele><time>2026-05-01T14:37:24Z</time></trkpt><trkpt lat="48.684455906264496" lon="3.1785421699922334"><ele>138.2</ele><time>2026-05-01T14:37:25Z</time></trkpt><trkpt lat="48.68443650920023" lon="3.1783824693232354"><ele>138.8</ele><time>2026-05-01T14:37:26Z</time></trkpt><trkpt lat="48.684422306650276" lon="3.178223947287837"><ele>139.4</ele><time>2026-05-01T14:37:27Z</time></trkpt><trkpt lat="48.684405529246256" lon="3.1780576805155687"><ele>140.0</ele><time>2026-05-01T14:37:28Z</time></trkpt><trkpt lat="48.68438431381228" lon="3.177883433153167"><ele>140.5</ele><time>2026-05-01T14:37:29Z</time></trkpt><trkpt lat="48.68436178873032" lon="3.1777000345770725"><ele>141.0</ele><time>2026-05-01T14:37:30Z</time></trkpt><trkpt lat="48.68434416093586" lon="3.177510499419564"><ele>141.5</ele><time>2026-05-01T14:37:31Z</time></trkpt><trkpt lat="48.68432469222548" lon="3.177319043392179"><ele>142.0</ele><time>2026-05-01T14:37:32Z</time></trkpt><trkpt lat="48.68430167644878" lon="3.1771259265718266"><ele>142.25</ele><time>2026-05-01T14:37:33Z</time></trkpt><trkpt lat="48.684281197935285" lon="3.176927968187642"><ele>142.5</ele><time>2026-05-01T14:37:34Z</time></trkpt><trkpt lat="48.68426189848859" lon="3.1767304617931797"><ele>142.75</ele><time>2026-05-01T14:37:35Z</time></trkpt><trkpt lat="48.68424682495276" lon="3.1765269845232855"><ele>143.0</ele><time>2026-05-01T14:37:36Z</time></trkpt><trkpt lat="48.68423104216851" lon="3.176317833540581"><ele>143.0</ele><time>2026-05-01T14:37:37Z</time></trkpt><trkpt lat="48.68421203331471" lon="3.1760761744479744"><ele>143.0</ele><time>2026-05-01T14:37:38Z</time></trkpt><trkpt lat="48.68417710477568" lon="3.175835313984068"><ele>143.0</ele><time>2026-05-01T14:37:39Z</time></trkpt><trkpt lat="48.68415866578089" lon="3.1756216369563797"><ele>142.6</ele><time>2026-05-01T14:37:40Z</time></trkpt><trkpt lat="48.68415237686042" lon="3.1754451763644593"><ele>142.20000000000002</ele><time>2026-05-01T14:37:41Z</time></trkpt><trkpt lat="48.68414556986399" lon="3.175320335411993"><ele>141.8</ele><time>2026-05-01T14:37:42Z</time></trkpt><trkpt lat="48.684135302425574" lon="3.175181699028365"><ele>141.4</ele><time>2026-05-01T14:37:44Z</time></trkpt><trkpt lat="48.68413732189991" lon="3.1750231388385046"><ele>141.0</ele><time>2026-05-01T14:38:00Z</time></trkpt><trkpt lat="48.6841350468901" lon="3.174884540155213"><ele>141.5</ele><time>2026-05-01T14:38:01Z</time></trkpt><trkpt lat="48.68413971648688" lon="3.174704169884244"><ele>142.0</ele><time>2026-05-01T14:38:02Z</time></trkpt><trkpt lat="48.684146569870755" lon="3.1745075952499873"><ele>142.5</ele><time>2026-05-01T14:38:03Z</time></trkpt><trkpt lat="48.684149219363476" lon="3.174289936432285"><ele>143.0</ele><time>2026-05-01T14:38:04Z</time></trkpt><trkpt lat="48.684164566251965" lon="3.1740681606985"><ele>143.66666666666666</ele><time>2026-05-01T14:38:05Z</time></trkpt><trkpt lat="48.68418363480986" lon="3.173842348299757"><ele>144.33333333333334</ele><time>2026-05-01T14:38:06Z</time></trkpt><trkpt lat="48.68420106247699" lon="3.1736078087800346"><ele>145.0</ele><time>2026-05-01T14:38:07Z</time></trkpt><trkpt lat="48.684216200121426" lon="3.173377139743066"><ele>144.25</ele><time>2026-05-01T14:38:08Z</time></trkpt><trkpt lat="48.68424095976092" lon="3.17317148569706"><ele>143.5</ele><time>2026-05-01T14:38:09Z</time></trkpt><trkpt lat="48.68425319754903" lon="3.172952183689852"><ele>142.75</ele><time>2026-05-01T14:38:10Z</time></trkpt><trkpt lat="48.68424737222215" lon="3.172710979901077"><ele>142.0</ele><time>2026-05-01T14:38:11Z</time></trkpt><trkpt lat="48.684233327896564" lon="3.172477708848359"><ele>141.5</ele><time>2026-05-01T14:38:12Z</time></trkpt><trkpt lat="48.684237512989405" lon="3.1722507146778605"><ele>141.0</ele><time>2026-05-01T14:38:13Z</time></trkpt><trkpt lat="48.68424025156556" lon="3.172040376373954"><ele>140.5</ele><time>2026-05-01T14:38:14Z</time></trkpt><trkpt lat="48.68422539245462" lon="3.1718216693579415"><ele>140.0</ele><time>2026-05-01T14:38:15Z</time></trkpt><trkpt lat="48.684210203485726" lon="3.1716113468997844"><ele>139.75</ele><time>2026-05-01T14:38:16Z</time></trkpt><trkpt lat="48.684190583031295" lon="3.171400629114439"><ele>139.5</ele><time>2026-05-01T14:38:17Z</time></trkpt><trkpt lat="48.684167424715625" lon="3.1711957238713335"><ele>139.25</ele><time>2026-05-01T14:38:18Z</time></trkpt><trkpt lat="48.684152020695315" lon="3.1709914867797195"><ele>139.0</ele><time>2026-05-01T14:38:19Z</time></trkpt><trkpt lat="48.6841357893402" lon="3.1707897710064534"><ele>138.66666666666669</ele><time>2026-05-01T14:38:20Z</time></trkpt><trkpt lat="48.68412058562117" lon="3.1705594966407467"><ele>138.33333333333334</ele><time>2026-05-01T14:38:21Z</time></trkpt><trkpt lat="48.68411049382226" lon="3.170308137018059"><ele>138.0</ele><time>2026-05-01T14:38:22Z</time></trkpt><trkpt lat="48.68409146192163" lon="3.17004958727882"><ele>137.66666666666666</ele><time>2026-05-01T14:38:23Z</time></trkpt><trkpt lat="48.684060238081464" lon="3.1697804946541477"><ele>137.33333333333331</ele><time>2026-05-01T14:38:24Z</time></trkpt><trkpt lat="48.68403990647847" lon="3.169498394336183"><ele>137.0</ele><time>2026-05-01T14:38:25Z</time></trkpt><trkpt lat="48.684013526289704" lon="3.169216862412259"><ele>137.33333333333331</ele><time>2026-05-01T14:38:26Z</time></trkpt><trkpt lat="48.68399154621468" lon="3.168935452644893"><ele>137.66666666666666</ele><time>2026-05-01T14:38:27Z</time></trkpt><trkpt lat="48.68397595039684" lon="3.168637251383622"><ele>138.0</ele><time>2026-05-01T14:38:28Z</time></trkpt><trkpt lat="48.68394292226777" lon="3.168408260745619"><ele>138.33333333333334</ele><time>2026-05-01T14:38:29Z</time></trkpt><trkpt lat="48.68392069086196" lon="3.16814480441353"><ele>138.66666666666669</ele><time>2026-05-01T14:38:30Z</time></trkpt><trkpt lat="48.68389503334415" lon="3.1678843371392333"><ele>139.0</ele><time>2026-05-01T14:38:31Z</time></trkpt><trkpt lat="48.68387659459655" lon="3.1676237683799067"><ele>139.0</ele><time>2026-05-01T14:38:32Z</time></trkpt><trkpt lat="48.683852513389716" lon="3.167365189359138"><ele>139.0</ele><time>2026-05-01T14:38:33Z</time></trkpt><trkpt lat="48.68383763969398" lon="3.1671079401908027"><ele>139.0</ele><time>2026-05-01T14:38:34Z</time></trkpt><trkpt lat="48.6837976872682" lon="3.1668450421342764"><ele>139.33333333333334</ele><time>2026-05-01T14:38:35Z</time></trkpt><trkpt lat="48.683782171698276" lon="3.166577963834255"><ele>139.66666666666666</ele><time>2026-05-01T14:38:36Z</time></trkpt><trkpt lat="48.683772415976165" lon="3.1663003682337414"><ele>140.0</ele><time>2026-05-01T14:38:37Z</time></trkpt><trkpt lat="48.683774922709354" lon="3.166018875950776"><ele>140.0</ele><time>2026-05-01T14:38:38Z</time></trkpt><trkpt lat="48.68377564821422" lon="3.165729468861947"><ele>140.0</ele><time>2026-05-01T14:38:39Z</time></trkpt><trkpt lat="48.683783401706165" lon="3.165439570445739"><ele>140.0</ele><time>2026-05-01T14:38:40Z</time></trkpt><trkpt lat="48.68379384189061" lon="3.1651396103551646"><ele>139.66666666666666</ele><time>2026-05-01T14:38:41Z</time></trkpt><trkpt lat="48.683804364040256" lon="3.164829433273217"><ele>139.33333333333334</ele><time>2026-05-01T14:38:42Z</time></trkpt><trkpt lat="48.683757637289986" lon="3.164523500389576"><ele>139.0</ele><time>2026-05-01T14:38:43Z</time></trkpt><trkpt lat="48.68371009021573" lon="3.164209729636159"><ele>138.33333333333334</ele><time>2026-05-01T14:38:44Z</time></trkpt><trkpt lat="48.683659350096974" lon="3.163895230139977"><ele>137.66666666666666</ele><time>2026-05-01T14:38:45Z</time></trkpt><trkpt lat="48.683594830308685" lon="3.163598542417226"><ele>137.0</ele><time>2026-05-01T14:38:46Z</time></trkpt><trkpt lat="48.68353871735565" lon="3.163335884485295"><ele>136.33333333333331</ele><time>2026-05-01T14:38:47Z</time></trkpt><trkpt lat="48.68348367082831" lon="3.1631006610438086"><ele>135.66666666666666</ele><time>2026-05-01T14:38:48Z</time></trkpt><trkpt lat="48.68342517286039" lon="3.1628516978922705"><ele>135.0</ele><time>2026-05-01T14:38:49Z</time></trkpt><trkpt lat="48.68337757179543" lon="3.162566281567793"><ele>134.66666666666666</ele><time>2026-05-01T14:38:50Z</time></trkpt><trkpt lat="48.683325137846644" lon="3.162277288927854"><ele>134.33333333333331</ele><time>2026-05-01T14:38:51Z</time></trkpt><trkpt lat="48.68327884760769" lon="3.162023828965977"><ele>134.0</ele><time>2026-05-01T14:38:52Z</time></trkpt><trkpt lat="48.6832340987159" lon="3.1617568210682943"><ele>133.66666666666666</ele><time>2026-05-01T14:38:53Z</time></trkpt><trkpt lat="48.68320892386967" lon="3.1615132579754004"><ele>133.33333333333334</ele><time>2026-05-01T14:38:54Z</time></trkpt><trkpt lat="48.68319223979151" lon="3.1612659663220852"><ele>133.0</ele><time>2026-05-01T14:38:55Z</time></trkpt><trkpt lat="48.68320020261065" lon="3.1609949279124363"><ele>133.0</ele><time>2026-05-01T14:38:56Z</time></trkpt><trkpt lat="48.68322676471349" lon="3.1607169447688603"><ele>133.0</ele><time>2026-05-01T14:38:57Z</time></trkpt><trkpt lat="48.68325132290671" lon="3.1604343720950423"><ele>133.0</ele><time>2026-05-01T14:38:58Z</time></trkpt><trkpt lat="48.68327843308646" lon="3.1601409756080208"><ele>133.66666666666669</ele><time>2026-05-01T14:38:59Z</time></trkpt><trkpt lat="48.68330629340481" lon="3.1598411915618265"><ele>134.33333333333334</ele><time>2026-05-01T14:39:00Z</time></trkpt><trkpt lat="48.68333160158147" lon="3.1595404991469924"><ele>135.0</ele><time>2026-05-01T14:39:01Z</time></trkpt><trkpt lat="48.68335343189746" lon="3.1592344316626124"><ele>135.0</ele><time>2026-05-01T14:39:02Z</time></trkpt><trkpt lat="48.68337266020859" lon="3.1589603617635404"><ele>135.0</ele><time>2026-05-01T14:39:03Z</time></trkpt><trkpt lat="48.683385742027454" lon="3.15872644867277"><ele>135.0</ele><time>2026-05-01T14:39:04Z</time></trkpt><trkpt lat="48.68338121671228" lon="3.1585031155592156"><ele>135.0</ele><time>2026-05-01T14:39:05Z</time></trkpt><trkpt lat="48.683358500379995" lon="3.1582807919520812"><ele>135.0</ele><time>2026-05-01T14:39:06Z</time></trkpt><trkpt lat="48.683328584868526" lon="3.158083290491838"><ele>135.0</ele><time>2026-05-01T14:39:07Z</time></trkpt><trkpt lat="48.68328265940938" lon="3.1579269423261596"><ele>135.0</ele><time>2026-05-01T14:39:08Z</time></trkpt><trkpt lat="48.68322385581418" lon="3.1577872181869484"><ele>135.0</ele><time>2026-05-01T14:39:09Z</time></trkpt><trkpt lat="48.68316774504496" lon="3.1576522120661235"><ele>135.0</ele><time>2026-05-01T14:39:10Z</time></trkpt><trkpt lat="48.68311067733866" lon="3.157521536312112"><ele>135.0</ele><time>2026-05-01T14:39:11Z</time></trkpt><trkpt lat="48.68305404169162" lon="3.157393001947265"><ele>135.0</ele><time>2026-05-01T14:39:12Z</time></trkpt><trkpt lat="48.682999867703" lon="3.1572594636751297"><ele>135.0</ele><time>2026-05-01T14:39:13Z</time></trkpt><trkpt lat="48.68294866260638" lon="3.157124278136521"><ele>134.8</ele><time>2026-05-01T14:39:14Z</time></trkpt><trkpt lat="48.68289364901274" lon="3.1569955556717257"><ele>134.6</ele><time>2026-05-01T14:39:15Z</time></trkpt><trkpt lat="48.682838814770975" lon="3.1568694763447094"><ele>134.4</ele><time>2026-05-01T14:39:16Z</time></trkpt><trkpt lat="48.68278723826424" lon="3.1567567483147445"><ele>134.2</ele><time>2026-05-01T14:39:17Z</time></trkpt><trkpt lat="48.68273368961094" lon="3.1566539235816395"><ele>134.0</ele><time>2026-05-01T14:39:18Z</time></trkpt><trkpt lat="48.68267965438901" lon="3.1565554536584517"><ele>134.8</ele><time>2026-05-01T14:39:19Z</time></trkpt><trkpt lat="48.68264244284663" lon="3.1564393558936508"><ele>135.60000000000002</ele><time>2026-05-01T14:39:20Z</time></trkpt><trkpt lat="48.682605628351915" lon="3.1563157662546093"><ele>136.4</ele><time>2026-05-01T14:39:21Z</time></trkpt><trkpt lat="48.682578317026866" lon="3.1561834816066323"><ele>137.20000000000002</ele><time>2026-05-01T14:39:22Z</time></trkpt><trkpt lat="48.68255143750972" lon="3.156048896326417"><ele>138.0</ele><time>2026-05-01T14:39:23Z</time></trkpt><trkpt lat="48.68252587160853" lon="3.1559117193992496"><ele>138.0</ele><time>2026-05-01T14:39:24Z</time></trkpt><trkpt lat="48.68249965047181" lon="3.155770021114826"><ele>138.0</ele><time>2026-05-01T14:39:25Z</time></trkpt><trkpt lat="48.68247634420659" lon="3.1556263774522413"><ele>138.0</ele><time>2026-05-01T14:39:26Z</time></trkpt><trkpt lat="48.68244202220009" lon="3.1554850364149054"><ele>138.0</ele><time>2026-05-01T14:39:27Z</time></trkpt><trkpt lat="48.68240353324327" lon="3.1553527412722024"><ele>138.0</ele><time>2026-05-01T14:39:28Z</time></trkpt><trkpt lat="48.68237285323832" lon="3.155232714353435"><ele>137.83333333333334</ele><time>2026-05-01T14:39:29Z</time></trkpt><trkpt lat="48.682341746988456" lon="3.1551461800606933"><ele>137.66666666666666</ele><time>2026-05-01T14:39:30Z</time></trkpt><trkpt lat="48.68229889794897" lon="3.155029236228307"><ele>137.5</ele><time>2026-05-01T14:39:32Z</time></trkpt><trkpt lat="48.68224922118186" lon="3.1549388379194547"><ele>137.33333333333331</ele><time>2026-05-01T14:39:36Z</time></trkpt><trkpt lat="48.68218069207509" lon="3.1549479780426415"><ele>137.16666666666666</ele><time>2026-05-01T14:39:42Z</time></trkpt><trkpt lat="48.68207073771713" lon="3.1549761972654973"><ele>137.0</ele><time>2026-05-01T14:39:44Z</time></trkpt><trkpt lat="48.68194857396501" lon="3.1550322753013256"><ele>137.2857142857143</ele><time>2026-05-01T14:39:46Z</time></trkpt><trkpt lat="48.68188841891778" lon="3.1550626356935636"><ele>137.57142857142858</ele><time>2026-05-01T14:39:47Z</time></trkpt><trkpt lat="48.6818331666384" lon="3.155114924103539"><ele>137.85714285714286</ele><time>2026-05-01T14:39:48Z</time></trkpt><trkpt lat="48.68176220119776" lon="3.1551331773246782"><ele>138.14285714285717</ele><time>2026-05-01T14:39:49Z</time></trkpt><trkpt lat="48.68169252684772" lon="3.155195523411483"><ele>138.42857142857144</ele><time>2026-05-01T14:39:50Z</time></trkpt><trkpt lat="48.6816113354738" lon="3.1552140748267195"><ele>138.71428571428572</ele><time>2026-05-01T14:39:51Z</time></trkpt><trkpt lat="48.68153934230872" lon="3.155250677853768"><ele>139.0</ele><time>2026-05-01T14:39:52Z</time></trkpt><trkpt lat="48.681468371398026" lon="3.1552899789204107"><ele>139.0</ele><time>2026-05-01T14:39:53Z</time></trkpt><trkpt lat="48.681394572962105" lon="3.1553321005338297"><ele>139.0</ele><time>2026-05-01T14:39:54Z</time></trkpt><trkpt lat="48.68132333410711" lon="3.155380817706158"><ele>139.0</ele><time>2026-05-01T14:39:55Z</time></trkpt><trkpt lat="48.68125848264611" lon="3.155453869709913"><ele>139.0</ele><time>2026-05-01T14:39:56Z</time></trkpt><trkpt lat="48.681189900652946" lon="3.1555203617717638"><ele>139.0</ele><time>2026-05-01T14:39:57Z</time></trkpt><trkpt lat="48.68111948189888" lon="3.1555856864481706"><ele>139.0</ele><time>2026-05-01T14:39:58Z</time></trkpt><trkpt lat="48.681045467235926" lon="3.1556526076927667"><ele>138.8</ele><time>2026-05-01T14:39:59Z</time></trkpt><trkpt lat="48.68096885133523" lon="3.1557214090171715"><ele>138.60000000000002</ele><time>2026-05-01T14:40:00Z</time></trkpt><trkpt lat="48.68088841330556" lon="3.1557930683120983"><ele>138.4</ele><time>2026-05-01T14:40:01Z</time></trkpt><trkpt lat="48.68080588711816" lon="3.15587069644722"><ele>138.20000000000002</ele><time>2026-05-01T14:40:02Z</time></trkpt><trkpt lat="48.68071393118499" lon="3.1559458835182164"><ele>138.0</ele><time>2026-05-01T14:40:03Z</time></trkpt><trkpt lat="48.68061835449426" lon="3.1560342119089757"><ele>138.0</ele><time>2026-05-01T14:40:04Z</time></trkpt><trkpt lat="48.68050896100304" lon="3.156106312312438"><ele>138.0</ele><time>2026-05-01T14:40:05Z</time></trkpt><trkpt lat="48.68040281809856" lon="3.15619568981877"><ele>138.0</ele><time>2026-05-01T14:40:06Z</time></trkpt><trkpt lat="48.680290407934564" lon="3.1562794646170427"><ele>138.0</ele><time>2026-05-01T14:40:07Z</time></trkpt><trkpt lat="48.68017529211161" lon="3.156363107101212"><ele>137.75</ele><time>2026-05-01T14:40:08Z</time></trkpt><trkpt lat="48.68005385421546" lon="3.1564389946119236"><ele>137.5</ele><time>2026-05-01T14:40:09Z</time></trkpt><trkpt lat="48.67992908414254" lon="3.156511679726718"><ele>137.25</ele><time>2026-05-01T14:40:10Z</time></trkpt><trkpt lat="48.67979907968363" lon="3.156588970736817"><ele>137.0</ele><time>2026-05-01T14:40:11Z</time></trkpt><trkpt lat="48.67966630723498" lon="3.1566796322097237"><ele>137.0</ele><time>2026-05-01T14:40:12Z</time></trkpt><trkpt lat="48.67954554886564" lon="3.1567802565503693"><ele>137.0</ele><time>2026-05-01T14:40:13Z</time></trkpt><trkpt lat="48.679438810359976" lon="3.156868894745286"><ele>137.0</ele><time>2026-05-01T14:40:14Z</time></trkpt><trkpt lat="48.67934903101639" lon="3.156936517295982"><ele>137.0</ele><time>2026-05-01T14:40:15Z</time></trkpt><trkpt lat="48.67927477460113" lon="3.156995783018263"><ele>137.0</ele><time>2026-05-01T14:40:16Z</time></trkpt><trkpt lat="48.679211816164326" lon="3.1570417339451193"><ele>136.79999999999998</ele><time>2026-05-01T14:40:17Z</time></trkpt><trkpt lat="48.679128526472766" lon="3.1571610364113485"><ele>136.6</ele><time>2026-05-01T14:40:19Z</time></trkpt><trkpt lat="48.67913710227527" lon="3.157280653332596"><ele>136.39999999999998</ele><time>2026-05-01T14:40:20Z</time></trkpt><trkpt lat="48.67917997556625" lon="3.1574326399786234"><ele>136.2</ele><time>2026-05-01T14:40:21Z</time></trkpt><trkpt lat="48.67923591316516" lon="3.1576013177421465"><ele>136.0</ele><time>2026-05-01T14:40:22Z</time></trkpt><trkpt lat="48.679285309250766" lon="3.1577905305423406"><ele>136.0</ele><time>2026-05-01T14:40:23Z</time></trkpt><trkpt lat="48.67934475556118" lon="3.158000735396623"><ele>136.0</ele><time>2026-05-01T14:40:24Z</time></trkpt><trkpt lat="48.67941114440108" lon="3.158213648130208"><ele>136.0</ele><time>2026-05-01T14:40:25Z</time></trkpt><trkpt lat="48.679474656944635" lon="3.1584470969146903"><ele>136.4</ele><time>2026-05-01T14:40:26Z</time></trkpt><trkpt lat="48.67952054709355" lon="3.1586545192415816"><ele>136.8</ele><time>2026-05-01T14:40:27Z</time></trkpt><trkpt lat="48.679556390555426" lon="3.1588231557480455"><ele>137.20000000000002</ele><time>2026-05-01T14:40:28Z</time></trkpt><trkpt lat="48.67958394517767" lon="3.1589644719278653"><ele>137.6</ele><time>2026-05-01T14:40:29Z</time></trkpt><trkpt lat="48.679608765061374" lon="3.159091062453472"><ele>138.0</ele><time>2026-05-01T14:40:30Z</time></trkpt><trkpt lat="48.67963363519854" lon="3.159206818916117"><ele>138.20000000000002</ele><time>2026-05-01T14:40:31Z</time></trkpt><trkpt lat="48.67961902328526" lon="3.1593643040563335"><ele>138.4</ele><time>2026-05-01T14:40:33Z</time></trkpt><trkpt lat="48.67955370796059" lon="3.159424723667977"><ele>138.60000000000002</ele><time>2026-05-01T14:40:34Z</time></trkpt><trkpt lat="48.679459265883324" lon="3.159454232242509"><ele>138.8</ele><time>2026-05-01T14:40:35Z</time></trkpt><trkpt lat="48.679344677069984" lon="3.1594902802802864"><ele>139.0</ele><time>2026-05-01T14:40:36Z</time></trkpt><trkpt lat="48.679221118978056" lon="3.1595607051234684"><ele>139.0</ele><time>2026-05-01T14:40:37Z</time></trkpt><trkpt lat="48.679093535027846" lon="3.1596508245571577"><ele>139.0</ele><time>2026-05-01T14:40:38Z</time></trkpt><trkpt lat="48.67896173129851" lon="3.1597587456244822"><ele>139.0</ele><time>2026-05-01T14:40:39Z</time></trkpt><trkpt lat="48.678811059680704" lon="3.159849109576782"><ele>139.33333333333334</ele><time>2026-05-01T14:40:40Z</time></trkpt><trkpt lat="48.67865661772436" lon="3.1599466207148006"><ele>139.66666666666666</ele><time>2026-05-01T14:40:41Z</time></trkpt><trkpt lat="48.67849427634369" lon="3.1600505985494163"><ele>140.0</ele><time>2026-05-01T14:40:42Z</time></trkpt><trkpt lat="48.678325698695716" lon="3.160161420235151"><ele>140.33333333333331</ele><time>2026-05-01T14:40:43Z</time></trkpt><trkpt lat="48.67816859397419" lon="3.1602633647241767"><ele>140.66666666666666</ele><time>2026-05-01T14:40:44Z</time></trkpt><trkpt lat="48.6780360465661" lon="3.1603573347619363"><ele>141.0</ele><time>2026-05-01T14:40:45Z</time></trkpt><trkpt lat="48.6779089016526" lon="3.16043870632481"><ele>141.0</ele><time>2026-05-01T14:40:46Z</time></trkpt><trkpt lat="48.677789526577186" lon="3.160517184253851"><ele>141.0</ele><time>2026-05-01T14:40:47Z</time></trkpt><trkpt lat="48.67768583514028" lon="3.16059118259095"><ele>141.0</ele><time>2026-05-01T14:40:48Z</time></trkpt><trkpt lat="48.67758323839312" lon="3.1606590339190195"><ele>141.0</ele><time>2026-05-01T14:40:49Z</time></trkpt><trkpt lat="48.677492873308786" lon="3.1607263239010925"><ele>140.8</ele><time>2026-05-01T14:40:50Z</time></trkpt><trkpt lat="48.677414608756" lon="3.160774831480385"><ele>140.6</ele><time>2026-05-01T14:40:51Z</time></trkpt><trkpt lat="48.67734739014037" lon="3.1608214473333858"><ele>140.4</ele><time>2026-05-01T14:40:52Z</time></trkpt><trkpt lat="48.677251165991855" lon="3.160894073874211"><ele>140.2</ele><time>2026-05-01T14:40:54Z</time></trkpt><trkpt lat="48.677155241685256" lon="3.1609007351823353"><ele>140.0</ele><time>2026-05-01T14:42:05Z</time></trkpt><trkpt lat="48.67709737272539" lon="3.1607720043907164"><ele>140.0</ele><time>2026-05-01T14:42:07Z</time></trkpt><trkpt lat="48.677073028979336" lon="3.1606766358528864"><ele>140.0</ele><time>2026-05-01T14:42:08Z</time></trkpt><trkpt lat="48.67704251561174" lon="3.1605781954059986"><ele>140.0</ele><time>2026-05-01T14:42:09Z</time></trkpt><trkpt lat="48.677008026596674" lon="3.1604724270399336"><ele>140.0</ele><time>2026-05-01T14:42:10Z</time></trkpt><trkpt lat="48.676971092402944" lon="3.1603606982404453"><ele>140.0</ele><time>2026-05-01T14:42:11Z</time></trkpt><trkpt lat="48.67693064508522" lon="3.160241177357101"><ele>140.0</ele><time>2026-05-01T14:42:12Z</time></trkpt><trkpt lat="48.67688803965547" lon="3.1601186578061164"><ele>139.6</ele><time>2026-05-01T14:42:13Z</time></trkpt><trkpt lat="48.676845519287895" lon="3.159993129278065"><ele>139.2</ele><time>2026-05-01T14:42:14Z</time></trkpt><trkpt lat="48.67680102932004" lon="3.159855382240225"><ele>138.8</ele><time>2026-05-01T14:42:15Z</time></trkpt><trkpt lat="48.67675899472367" lon="3.159730637103599"><ele>138.4</ele><time>2026-05-01T14:42:16Z</time></trkpt><trkpt lat="48.67671305333523" lon="3.159604193205066"><ele>138.0</ele><time>2026-05-01T14:42:17Z</time></trkpt><trkpt lat="48.676666964282404" lon="3.159474644252784"><ele>137.8</ele><time>2026-05-01T14:42:18Z</time></trkpt><trkpt lat="48.67661917003238" lon="3.1593418672940308"><ele>137.60000000000002</ele><time>2026-05-01T14:42:19Z</time></trkpt><trkpt lat="48.676570349703006" lon="3.159210301984406"><ele>137.39999999999998</ele><time>2026-05-01T14:42:20Z</time></trkpt><trkpt lat="48.67652021828769" lon="3.1590798276775836"><ele>137.2</ele><time>2026-05-01T14:42:21Z</time></trkpt><trkpt lat="48.67646814893583" lon="3.158949901561554"><ele>137.0</ele><time>2026-05-01T14:42:22Z</time></trkpt><trkpt lat="48.6764203724286" lon="3.1588169494163423"><ele>136.79999999999998</ele><time>2026-05-01T14:42:23Z</time></trkpt><trkpt lat="48.676370463097854" lon="3.1586810019117832"><ele>136.6</ele><time>2026-05-01T14:42:24Z</time></trkpt><trkpt lat="48.67631582185332" lon="3.1585496751488598"><ele>136.39999999999998</ele><time>2026-05-01T14:42:25Z</time></trkpt><trkpt lat="48.67626086376707" lon="3.1584155307557986"><ele>136.2</ele><time>2026-05-01T14:42:26Z</time></trkpt><trkpt lat="48.67621053971365" lon="3.1582729987767846"><ele>136.0</ele><time>2026-05-01T14:42:27Z</time></trkpt><trkpt lat="48.67615608784194" lon="3.158132411580508"><ele>136.5</ele><time>2026-05-01T14:42:28Z</time></trkpt><trkpt lat="48.676093131845924" lon="3.1579856264318833"><ele>137.0</ele><time>2026-05-01T14:42:29Z</time></trkpt><trkpt lat="48.67602539887044" lon="3.1578440095875884"><ele>137.5</ele><time>2026-05-01T14:42:30Z</time></trkpt><trkpt lat="48.67595258477086" lon="3.157716376876934"><ele>138.0</ele><time>2026-05-01T14:42:31Z</time></trkpt><trkpt lat="48.67586565234714" lon="3.1576049318357997"><ele>138.0</ele><time>2026-05-01T14:42:32Z</time></trkpt><trkpt lat="48.6757695627628" lon="3.157497669865111"><ele>138.0</ele><time>2026-05-01T14:42:33Z</time></trkpt><trkpt lat="48.67566762959109" lon="3.157387566808752"><ele>138.0</ele><time>2026-05-01T14:42:34Z</time></trkpt><trkpt lat="48.67556059751837" lon="3.1572805890451607"><ele>138.0</ele><time>2026-05-01T14:42:35Z</time></trkpt><trkpt lat="48.675453121258094" lon="3.1571739591439743"><ele>136.75</ele><time>2026-05-01T14:42:36Z</time></trkpt><trkpt lat="48.675340091204994" lon="3.157069311565595"><ele>135.5</ele><time>2026-05-01T14:42:37Z</time></trkpt><trkpt lat="48.67523538419047" lon="3.1569794817338512"><ele>134.25</ele><time>2026-05-01T14:42:38Z</time></trkpt><trkpt lat="48.67513882429996" lon="3.1568962979848654"><ele>133.0</ele><time>2026-05-01T14:42:39Z</time></trkpt><trkpt lat="48.67504120204723" lon="3.1568101035079676"><ele>132.75</ele><time>2026-05-01T14:42:40Z</time></trkpt><trkpt lat="48.67494202130621" lon="3.156716679513945"><ele>132.5</ele><time>2026-05-01T14:42:41Z</time></trkpt><trkpt lat="48.67484758139151" lon="3.156615006991131"><ele>132.25</ele><time>2026-05-01T14:42:42Z</time></trkpt><trkpt lat="48.67475312879445" lon="3.156512152010108"><ele>132.0</ele><time>2026-05-01T14:42:43Z</time></trkpt><trkpt lat="48.674660814828485" lon="3.156396325881789"><ele>130.75</ele><time>2026-05-01T14:42:44Z</time></trkpt><trkpt lat="48.674566106485976" lon="3.1562680913459635"><ele>129.5</ele><time>2026-05-01T14:42:45Z</time></trkpt><trkpt lat="48.67446363624059" lon="3.156144283970091"><ele>128.25</ele><time>2026-05-01T14:42:46Z</time></trkpt><trkpt lat="48.674360853208256" lon="3.1560259377393387"><ele>127.0</ele><time>2026-05-01T14:42:47Z</time></trkpt><trkpt lat="48.67426198251185" lon="3.155906008098967"><ele>127.0</ele><time>2026-05-01T14:42:48Z</time></trkpt><trkpt lat="48.67416657441372" lon="3.1557769452453006"><ele>127.0</ele><time>2026-05-01T14:42:49Z</time></trkpt><trkpt lat="48.674065594332575" lon="3.1556384355895157"><ele>127.0</ele><time>2026-05-01T14:42:50Z</time></trkpt><trkpt lat="48.673957820290575" lon="3.155482281176551"><ele>127.0</ele><time>2026-05-01T14:42:51Z</time></trkpt><trkpt lat="48.6738569978958" lon="3.1553370236027245"><ele>127.16666666666667</ele><time>2026-05-01T14:42:52Z</time></trkpt><trkpt lat="48.673770251884136" lon="3.1552184485948165"><ele>127.33333333333334</ele><time>2026-05-01T14:42:53Z</time></trkpt><trkpt lat="48.67370739366907" lon="3.1551288735065484"><ele>127.5</ele><time>2026-05-01T14:42:54Z</time></trkpt><trkpt lat="48.67365910350829" lon="3.155045648097548"><ele>127.66666666666666</ele><time>2026-05-01T14:42:55Z</time></trkpt><trkpt lat="48.67363895783815" lon="3.154942362456305"><ele>127.83333333333333</ele><time>2026-05-01T14:42:56Z</time></trkpt><trkpt lat="48.67366120218025" lon="3.154806560967923"><ele>128.0</ele><time>2026-05-01T14:42:57Z</time></trkpt><trkpt lat="48.67372807235569" lon="3.154681868311858"><ele>128.25</ele><time>2026-05-01T14:42:58Z</time></trkpt><trkpt lat="48.67379295551009" lon="3.154523686395001"><ele>128.5</ele><time>2026-05-01T14:42:59Z</time></trkpt><trkpt lat="48.67386109696159" lon="3.1543505270528818"><ele>128.75</ele><time>2026-05-01T14:43:00Z</time></trkpt><trkpt lat="48.67393419875602" lon="3.1541568500382855"><ele>129.0</ele><time>2026-05-01T14:43:01Z</time></trkpt><trkpt lat="48.674010978729555" lon="3.1539482638284273"><ele>129.66666666666666</ele><time>2026-05-01T14:43:02Z</time></trkpt><trkpt lat="48.674090235499136" lon="3.153730948972003"><ele>130.33333333333331</ele><time>2026-05-01T14:43:03Z</time></trkpt><trkpt lat="48.67417202755872" lon="3.153506356580924"><ele>131.0</ele><time>2026-05-01T14:43:04Z</time></trkpt><trkpt lat="48.674263066110456" lon="3.1532823355933113"><ele>131.0</ele><time>2026-05-01T14:43:05Z</time></trkpt><trkpt lat="48.67434921606528" lon="3.1530840620483844"><ele>131.0</ele><time>2026-05-01T14:43:06Z</time></trkpt><trkpt lat="48.674409877173126" lon="3.1529377750470573"><ele>131.0</ele><time>2026-05-01T14:43:07Z</time></trkpt><trkpt lat="48.674473721929296" lon="3.1528346549050292"><ele>131.0</ele><time>2026-05-01T14:43:08Z</time></trkpt><trkpt lat="48.6747290598096" lon="3.1525026280366797"><ele>131.66666666666666</ele><time>2026-05-01T14:43:09Z</time></trkpt><trkpt lat="48.67487220396432" lon="3.152347605824543"><ele>132.33333333333334</ele><time>2026-05-01T14:43:10Z</time></trkpt><trkpt lat="48.67499279276792" lon="3.1522090040010444"><ele>133.0</ele><time>2026-05-01T14:43:11Z</time></trkpt><trkpt lat="48.67512457675305" lon="3.152116794419611"><ele>132.75</ele><time>2026-05-01T14:43:12Z</time></trkpt><trkpt lat="48.675280438308675" lon="3.152058386345493"><ele>132.5</ele><time>2026-05-01T14:43:13Z</time></trkpt><trkpt lat="48.675416834307434" lon="3.1520197292888814"><ele>132.25</ele><time>2026-05-01T14:43:14Z</time></trkpt><trkpt lat="48.6755336697793" lon="3.151960630797685"><ele>132.0</ele><time>2026-05-01T14:43:15Z</time></trkpt><trkpt lat="48.67563855301929" lon="3.1518388080874336"><ele>132.0</ele><time>2026-05-01T14:43:16Z</time></trkpt><trkpt lat="48.67572836817173" lon="3.151674821066964"><ele>132.0</ele><time>2026-05-01T14:43:17Z</time></trkpt><trkpt lat="48.67579769318336" lon="3.1515153935041087"><ele>132.0</ele><time>2026-05-01T14:43:18Z</time></trkpt><trkpt lat="48.675839157054405" lon="3.1513234084251245"><ele>132.0</ele><time>2026-05-01T14:43:19Z</time></trkpt><trkpt lat="48.67586842194673" lon="3.15112321800659"><ele>132.5</ele><time>2026-05-01T14:43:20Z</time></trkpt><trkpt lat="48.67591410715508" lon="3.1509368316318866"><ele>133.0</ele><time>2026-05-01T14:43:21Z</time></trkpt><trkpt lat="48.67595078278609" lon="3.1507360184713553"><ele>133.5</ele><time>2026-05-01T14:43:22Z</time></trkpt><trkpt lat="48.67599434622925" lon="3.1505405042157344"><ele>134.0</ele><time>2026-05-01T14:43:23Z</time></trkpt><trkpt lat="48.67602998792324" lon="3.1503636675613707"><ele>134.0</ele><time>2026-05-01T14:43:24Z</time></trkpt><trkpt lat="48.67606068029839" lon="3.1502205921289104"><ele>134.0</ele><time>2026-05-01T14:43:25Z</time></trkpt><trkpt lat="48.6760942878385" lon="3.150098563225983"><ele>134.0</ele><time>2026-05-01T14:43:26Z</time></trkpt><trkpt lat="48.67612497786314" lon="3.14997303456561"><ele>134.0</ele><time>2026-05-01T14:43:27Z</time></trkpt><trkpt lat="48.67615287509375" lon="3.149848053903336"><ele>134.0</ele><time>2026-05-01T14:43:28Z</time></trkpt><trkpt lat="48.67618080207987" lon="3.149739118045238"><ele>134.0</ele><time>2026-05-01T14:43:29Z</time></trkpt><trkpt lat="48.67620644506834" lon="3.1495804276520794"><ele>134.16666666666666</ele><time>2026-05-01T14:43:31Z</time></trkpt><trkpt lat="48.67615289813324" lon="3.14952626639481"><ele>134.33333333333331</ele><time>2026-05-01T14:43:35Z</time></trkpt><trkpt lat="48.67608386109685" lon="3.1494825927861902"><ele>134.5</ele><time>2026-05-01T14:44:00Z</time></trkpt><trkpt lat="48.675951740027415" lon="3.149468560232635"><ele>134.66666666666666</ele><time>2026-05-01T14:44:02Z</time></trkpt><trkpt lat="48.67587755170728" lon="3.1494572358649124"><ele>134.83333333333334</ele><time>2026-05-01T14:44:03Z</time></trkpt><trkpt lat="48.67580390973168" lon="3.1494036145423245"><ele>135.0</ele><time>2026-05-01T14:44:04Z</time></trkpt><trkpt lat="48.6757269482448" lon="3.149366646553024"><ele>135.0</ele><time>2026-05-01T14:44:05Z</time></trkpt><trkpt lat="48.6756482092594" lon="3.149321266783222"><ele>135.0</ele><time>2026-05-01T14:44:06Z</time></trkpt><trkpt lat="48.67557500750999" lon="3.1492764916842377"><ele>135.0</ele><time>2026-05-01T14:44:07Z</time></trkpt><trkpt lat="48.67551571193565" lon="3.1492322237543764"><ele>135.0</ele><time>2026-05-01T14:44:08Z</time></trkpt><trkpt lat="48.67546376753839" lon="3.149173024350721"><ele>135.0</ele><time>2026-05-01T14:44:09Z</time></trkpt><trkpt lat="48.67542886115665" lon="3.1490893877575"><ele>135.0</ele><time>2026-05-01T14:44:10Z</time></trkpt><trkpt lat="48.67539120588695" lon="3.1489970158982716"><ele>135.0</ele><time>2026-05-01T14:44:11Z</time></trkpt><trkpt lat="48.67534757061073" lon="3.148904398518386"><ele>135.0</ele><time>2026-05-01T14:44:12Z</time></trkpt><trkpt lat="48.675295862997146" lon="3.1488118388516693"><ele>135.0</ele><time>2026-05-01T14:44:13Z</time></trkpt><trkpt lat="48.675234546500036" lon="3.148726925481854"><ele>135.0</ele><time>2026-05-01T14:44:14Z</time></trkpt><trkpt lat="48.67516751336569" lon="3.1486470754896296"><ele>135.0</ele><time>2026-05-01T14:44:15Z</time></trkpt><trkpt lat="48.67509983210734" lon="3.1485721699572364"><ele>135.0</ele><time>2026-05-01T14:44:16Z</time></trkpt><trkpt lat="48.675028514926474" lon="3.148499343599586"><ele>135.0</ele><time>2026-05-01T14:44:17Z</time></trkpt><trkpt lat="48.67495626839509" lon="3.1484300194871837"><ele>135.4</ele><time>2026-05-01T14:44:18Z</time></trkpt><trkpt lat="48.67488302811599" lon="3.1483600677004224"><ele>135.8</ele><time>2026-05-01T14:44:19Z</time></trkpt><trkpt lat="48.67480159004722" lon="3.1482976842816353"><ele>136.2</ele><time>2026-05-01T14:44:20Z</time></trkpt><trkpt lat="48.67472097807861" lon="3.148215028881185"><ele>136.6</ele><time>2026-05-01T14:44:21Z</time></trkpt><trkpt lat="48.67463509753082" lon="3.1481326928252606"><ele>137.0</ele><time>2026-05-01T14:44:22Z</time></trkpt><trkpt lat="48.674551223014554" lon="3.148042246996485"><ele>137.0</ele><time>2026-05-01T14:44:23Z</time></trkpt><trkpt lat="48.674501886695566" lon="3.1479038159683563"><ele>137.0</ele><time>2026-05-01T14:44:24Z</time></trkpt><trkpt lat="48.67445881604891" lon="3.1477677113941396"><ele>137.0</ele><time>2026-05-01T14:44:25Z</time></trkpt><trkpt lat="48.674410838784226" lon="3.147610818545101"><ele>137.0</ele><time>2026-05-01T14:44:26Z</time></trkpt><trkpt lat="48.67435819962675" lon="3.1474249399064997"><ele>137.0</ele><time>2026-05-01T14:44:27Z</time></trkpt><trkpt lat="48.6743014221166" lon="3.1472192129922125"><ele>137.0</ele><time>2026-05-01T14:44:28Z</time></trkpt><trkpt lat="48.674244967277076" lon="3.1470146548149227"><ele>137.0</ele><time>2026-05-01T14:44:29Z</time></trkpt><trkpt lat="48.674187175417664" lon="3.1468052514341824"><ele>137.0</ele><time>2026-05-01T14:44:30Z</time></trkpt><trkpt lat="48.67412943093646" lon="3.1465960197242997"><ele>136.0</ele><time>2026-05-01T14:44:31Z</time></trkpt><trkpt lat="48.674016674137405" lon="3.1464104696159914"><ele>135.0</ele><time>2026-05-01T14:44:32Z</time></trkpt><trkpt lat="48.673943264028345" lon="3.1461930952839334"><ele>134.0</ele><time>2026-05-01T14:44:33Z</time></trkpt><trkpt lat="48.673868996907366" lon="3.1459732400092686"><ele>134.0</ele><time>2026-05-01T14:44:34Z</time></trkpt><trkpt lat="48.673795588747794" lon="3.1457497603264373"><ele>134.0</ele><time>2026-05-01T14:44:35Z</time></trkpt><trkpt lat="48.67372277272016" lon="3.1455212589387953"><ele>134.0</ele><time>2026-05-01T14:44:36Z</time></trkpt><trkpt lat="48.673649798870926" lon="3.145286443854741"><ele>133.33333333333331</ele><time>2026-05-01T14:44:37Z</time></trkpt><trkpt lat="48.67357544370208" lon="3.145060539610134"><ele>132.66666666666666</ele><time>2026-05-01T14:44:38Z</time></trkpt><trkpt lat="48.67350918470665" lon="3.1448540015795388"><ele>132.0</ele><time>2026-05-01T14:44:39Z</time></trkpt><trkpt lat="48.673448715605076" lon="3.1446771658228"><ele>131.66666666666666</ele><time>2026-05-01T14:44:40Z</time></trkpt><trkpt lat="48.673401154039134" lon="3.144522563997152"><ele>131.33333333333334</ele><time>2026-05-01T14:44:41Z</time></trkpt><trkpt lat="48.67336369499476" lon="3.144397537014753"><ele>131.0</ele><time>2026-05-01T14:44:42Z</time></trkpt><trkpt lat="48.67333097687899" lon="3.1442997044585903"><ele>130.66666666666669</ele><time>2026-05-01T14:44:43Z</time></trkpt><trkpt lat="48.67328146480136" lon="3.1442166305695465"><ele>130.33333333333334</ele><time>2026-05-01T14:44:44Z</time></trkpt><trkpt lat="48.673208271305676" lon="3.144185600116309"><ele>130.0</ele><time>2026-05-01T14:44:45Z</time></trkpt><trkpt lat="48.673107845764115" lon="3.144229592871353"><ele>130.0</ele><time>2026-05-01T14:44:46Z</time></trkpt><trkpt lat="48.67298687201974" lon="3.1442784213279382"><ele>130.0</ele><time>2026-05-01T14:44:47Z</time></trkpt><trkpt lat="48.67285552416147" lon="3.144314454854666"><ele>130.0</ele><time>2026-05-01T14:44:48Z</time></trkpt><trkpt lat="48.67271614302178" lon="3.144340422383531"><ele>130.0</ele><time>2026-05-01T14:44:49Z</time></trkpt><trkpt lat="48.672571216912004" lon="3.144362165061098"><ele>130.66666666666669</ele><time>2026-05-01T14:44:50Z</time></trkpt><trkpt lat="48.6724203474072" lon="3.144389858846485"><ele>131.33333333333334</ele><time>2026-05-01T14:44:51Z</time></trkpt><trkpt lat="48.67226652126028" lon="3.1444091806700123"><ele>132.0</ele><time>2026-05-01T14:44:52Z</time></trkpt><trkpt lat="48.672109050858474" lon="3.144441173217312"><ele>132.0</ele><time>2026-05-01T14:44:53Z</time></trkpt><trkpt lat="48.67194365314523" lon="3.1444717599322036"><ele>132.0</ele><time>2026-05-01T14:44:54Z</time></trkpt><trkpt lat="48.67177139403472" lon="3.1445038071032054"><ele>132.0</ele><time>2026-05-01T14:44:55Z</time></trkpt><trkpt lat="48.67158654992211" lon="3.144526851010267"><ele>132.66666666666666</ele><time>2026-05-01T14:44:56Z</time></trkpt><trkpt lat="48.671411010626535" lon="3.1445458765289036"><ele>133.33333333333331</ele><time>2026-05-01T14:44:57Z</time></trkpt><trkpt lat="48.67124922813973" lon="3.1445829311747233"><ele>134.0</ele><time>2026-05-01T14:44:58Z</time></trkpt><trkpt lat="48.67107479404807" lon="3.144610326966318"><ele>134.0</ele><time>2026-05-01T14:44:59Z</time></trkpt><trkpt lat="48.670904543405975" lon="3.144633985607236"><ele>134.0</ele><time>2026-05-01T14:45:00Z</time></trkpt><trkpt lat="48.670728074752176" lon="3.1446502305287822"><ele>134.0</ele><time>2026-05-01T14:45:01Z</time></trkpt><trkpt lat="48.670552601308174" lon="3.1446740877799932"><ele>134.0</ele><time>2026-05-01T14:45:02Z</time></trkpt><trkpt lat="48.670375163382715" lon="3.144699680145657"><ele>134.0</ele><time>2026-05-01T14:45:03Z</time></trkpt><trkpt lat="48.670197002509255" lon="3.144742328395939"><ele>134.0</ele><time>2026-05-01T14:45:04Z</time></trkpt><trkpt lat="48.67002727984102" lon="3.1447692817658233"><ele>134.66666666666666</ele><time>2026-05-01T14:45:05Z</time></trkpt><trkpt lat="48.66986657004602" lon="3.144788491420344"><ele>135.33333333333334</ele><time>2026-05-01T14:45:06Z</time></trkpt><trkpt lat="48.669700255575016" lon="3.144819176616778"><ele>136.0</ele><time>2026-05-01T14:45:07Z</time></trkpt><trkpt lat="48.6695282778632" lon="3.144845698576302"><ele>136.5</ele><time>2026-05-01T14:45:08Z</time></trkpt><trkpt lat="48.669375950125996" lon="3.1448729064283922"><ele>137.0</ele><time>2026-05-01T14:45:09Z</time></trkpt><trkpt lat="48.66924197512768" lon="3.144900528168796"><ele>137.5</ele><time>2026-05-01T14:45:10Z</time></trkpt><trkpt lat="48.66910355464254" lon="3.1449287834203727"><ele>138.0</ele><time>2026-05-01T14:45:11Z</time></trkpt><trkpt lat="48.66896646485384" lon="3.1449562421512964"><ele>138.0</ele><time>2026-05-01T14:45:12Z</time></trkpt><trkpt lat="48.66884798298345" lon="3.144968934505783"><ele>138.0</ele><time>2026-05-01T14:45:13Z</time></trkpt><trkpt lat="48.668743554873224" lon="3.1449735266263046"><ele>138.0</ele><time>2026-05-01T14:45:14Z</time></trkpt><trkpt lat="48.66865061041299" lon="3.1449668747016895"><ele>138.0</ele><time>2026-05-01T14:45:15Z</time></trkpt><trkpt lat="48.66858011593097" lon="3.1449532628073884"><ele>138.0</ele><time>2026-05-01T14:45:16Z</time></trkpt><trkpt lat="48.66849621095344" lon="3.14490444215147"><ele>137.25</ele><time>2026-05-01T14:45:18Z</time></trkpt><trkpt lat="48.668370087007766" lon="3.1448352646026816"><ele>136.5</ele><time>2026-05-01T14:45:20Z</time></trkpt><trkpt lat="48.6682826067422" lon="3.1447693866580826"><ele>135.75</ele><time>2026-05-01T14:45:21Z</time></trkpt><trkpt lat="48.66818009018651" lon="3.144687660169097"><ele>135.0</ele><time>2026-05-01T14:45:22Z</time></trkpt><trkpt lat="48.66806165406065" lon="3.144589270748564"><ele>135.0</ele><time>2026-05-01T14:45:23Z</time></trkpt><trkpt lat="48.667926082376226" lon="3.1444721354192504"><ele>135.0</ele><time>2026-05-01T14:45:24Z</time></trkpt><trkpt lat="48.66778035748797" lon="3.14434360748538"><ele>135.0</ele><time>2026-05-01T14:45:25Z</time></trkpt><trkpt lat="48.667634114063986" lon="3.1442283602574954"><ele>133.5</ele><time>2026-05-01T14:45:26Z</time></trkpt><trkpt lat="48.66750335571033" lon="3.1441157101943062"><ele>132.0</ele><time>2026-05-01T14:45:27Z</time></trkpt><trkpt lat="48.667385751486016" lon="3.14401157557031"><ele>130.5</ele><time>2026-05-01T14:45:28Z</time></trkpt><trkpt lat="48.66726364908733" lon="3.1439144961235477"><ele>129.0</ele><time>2026-05-01T14:45:29Z</time></trkpt><trkpt lat="48.66715228408351" lon="3.143819114730575"><ele>128.5</ele><time>2026-05-01T14:45:30Z</time></trkpt><trkpt lat="48.667052991243104" lon="3.1437179813865206"><ele>128.0</ele><time>2026-05-01T14:45:31Z</time></trkpt><trkpt lat="48.66696937222068" lon="3.1435910533549203"><ele>127.5</ele><time>2026-05-01T14:45:32Z</time></trkpt><trkpt lat="48.666901417337044" lon="3.143443460676198"><ele>127.0</ele><time>2026-05-01T14:45:33Z</time></trkpt><trkpt lat="48.66685505436722" lon="3.1432833853289437"><ele>126.25</ele><time>2026-05-01T14:45:34Z</time></trkpt><trkpt lat="48.666842233585264" lon="3.143127110835621"><ele>125.5</ele><time>2026-05-01T14:45:35Z</time></trkpt><trkpt lat="48.666859788110415" lon="3.1429656713707823"><ele>124.75</ele><time>2026-05-01T14:45:36Z</time></trkpt><trkpt lat="48.66690434447926" lon="3.1427763045897685"><ele>124.0</ele><time>2026-05-01T14:45:37Z</time></trkpt><trkpt lat="48.6669430056353" lon="3.1426013574837794"><ele>124.16666666666667</ele><time>2026-05-01T14:45:38Z</time></trkpt><trkpt lat="48.66694939797835" lon="3.1424793495350576"><ele>124.33333333333334</ele><time>2026-05-01T14:45:39Z</time></trkpt><trkpt lat="48.666937853911584" lon="3.1423703317502683"><ele>124.5</ele><time>2026-05-01T14:45:40Z</time></trkpt><trkpt lat="48.66691807944725" lon="3.142254122909362"><ele>124.66666666666666</ele><time>2026-05-01T14:45:41Z</time></trkpt><trkpt lat="48.66689619281354" lon="3.1421051575982224"><ele>124.83333333333333</ele><time>2026-05-01T14:45:43Z</time></trkpt><trkpt lat="48.66689287570195" lon="3.14220317835353"><ele>125.0</ele><time>2026-05-01T14:45:54Z</time></trkpt><trkpt lat="48.6669210048971" lon="3.142326926993386"><ele>124.83333333333333</ele><time>2026-05-01T14:45:56Z</time></trkpt><trkpt lat="48.6669353139662" lon="3.1424594288788437"><ele>124.66666666666666</ele><time>2026-05-01T14:45:58Z</time></trkpt><trkpt lat="48.66688465621652" lon="3.1425236121112152"><ele>124.5</ele><time>2026-05-01T14:46:06Z</time></trkpt><trkpt lat="48.66679711097785" lon="3.14255965544793"><ele>124.33333333333334</ele><time>2026-05-01T14:46:07Z</time></trkpt><trkpt lat="48.66672985481888" lon="3.1425818418062046"><ele>124.16666666666667</ele><time>2026-05-01T14:46:08Z</time></trkpt><trkpt lat="48.666656740450584" lon="3.142624926487367"><ele>124.0</ele><time>2026-05-01T14:46:09Z</time></trkpt><trkpt lat="48.6665798497374" lon="3.1426918397730748"><ele>124.0</ele><time>2026-05-01T14:46:10Z</time></trkpt><trkpt lat="48.66647666400547" lon="3.1427701393808682"><ele>124.0</ele><time>2026-05-01T14:46:11Z</time></trkpt><trkpt lat="48.666357866740775" lon="3.1428626957930974"><ele>124.0</ele><time>2026-05-01T14:46:12Z</time></trkpt><trkpt lat="48.66622761014059" lon="3.142963068251506"><ele>124.0</ele><time>2026-05-01T14:46:13Z</time></trkpt><trkpt lat="48.66609038553015" lon="3.1430687077478714"><ele>123.66666666666667</ele><time>2026-05-01T14:46:14Z</time></trkpt><trkpt lat="48.665949045900426" lon="3.1431750526008018"><ele>123.33333333333334</ele><time>2026-05-01T14:46:15Z</time></trkpt><trkpt lat="48.66580851931693" lon="3.1432813644838764"><ele>123.0</ele><time>2026-05-01T14:46:16Z</time></trkpt><trkpt lat="48.66566330874824" lon="3.1433932199748216"><ele>123.0</ele><time>2026-05-01T14:46:17Z</time></trkpt><trkpt lat="48.66551638974865" lon="3.143500719009297"><ele>123.0</ele><time>2026-05-01T14:46:18Z</time></trkpt><trkpt lat="48.66536951354138" lon="3.1436109476297744"><ele>123.0</ele><time>2026-05-01T14:46:19Z</time></trkpt><trkpt lat="48.6652205047439" lon="3.1437224179602787"><ele>123.33333333333334</ele><time>2026-05-01T14:46:20Z</time></trkpt><trkpt lat="48.66507478581156" lon="3.1438391147627924"><ele>123.66666666666667</ele><time>2026-05-01T14:46:21Z</time></trkpt><trkpt lat="48.66492855431262" lon="3.1439520511557664"><ele>124.0</ele><time>2026-05-01T14:46:22Z</time></trkpt><trkpt lat="48.66478384794298" lon="3.1440637615656484"><ele>124.0</ele><time>2026-05-01T14:46:23Z</time></trkpt><trkpt lat="48.66463616248447" lon="3.144173012902843"><ele>124.0</ele><time>2026-05-01T14:46:24Z</time></trkpt><trkpt lat="48.66448814472305" lon="3.1442840234841016"><ele>124.0</ele><time>2026-05-01T14:46:25Z</time></trkpt><trkpt lat="48.66433965463184" lon="3.1443929493854204"><ele>123.66666666666667</ele><time>2026-05-01T14:46:26Z</time></trkpt><trkpt lat="48.664192796580195" lon="3.144501267328365"><ele>123.33333333333334</ele><time>2026-05-01T14:46:27Z</time></trkpt><trkpt lat="48.66403731223848" lon="3.1446158402016207"><ele>123.0</ele><time>2026-05-01T14:46:28Z</time></trkpt><trkpt lat="48.66389749719466" lon="3.1447278027562535"><ele>123.0</ele><time>2026-05-01T14:46:29Z</time></trkpt><trkpt lat="48.663781707559444" lon="3.144823107825669"><ele>123.00000000000001</ele><time>2026-05-01T14:46:30Z</time></trkpt><trkpt lat="48.66368990575411" lon="3.1449013144757463"><ele>123.00000000000001</ele><time>2026-05-01T14:46:31Z</time></trkpt><trkpt lat="48.663611510917285" lon="3.144967196607523"><ele>123.0</ele><time>2026-05-01T14:46:32Z</time></trkpt><trkpt lat="48.6635478667152" lon="3.1450213579020305"><ele>123.0</ele><time>2026-05-01T14:46:33Z</time></trkpt><trkpt lat="48.66344282425473" lon="3.1449766388090867"><ele>123.0</ele><time>2026-05-01T14:46:35Z</time></trkpt><trkpt lat="48.66338330854361" lon="3.1450168459421426"><ele>123.0</ele><time>2026-05-01T14:46:37Z</time></trkpt><trkpt lat="48.66337952188201" lon="3.1452102822845376"><ele>123.0</ele><time>2026-05-01T14:46:39Z</time></trkpt><trkpt lat="48.663366316270604" lon="3.1453210567851"><ele>123.0</ele><time>2026-05-01T14:46:40Z</time></trkpt><trkpt lat="48.66334874299217" lon="3.1454425553702055"><ele>123.0</ele><time>2026-05-01T14:46:41Z</time></trkpt><trkpt lat="48.66331308683509" lon="3.145566725871609"><ele>123.0</ele><time>2026-05-01T14:46:42Z</time></trkpt><trkpt lat="48.66328807851348" lon="3.145704577330242"><ele>123.5</ele><time>2026-05-01T14:46:43Z</time></trkpt><trkpt lat="48.66327422762198" lon="3.1458525473954486"><ele>124.0</ele><time>2026-05-01T14:46:44Z</time></trkpt><trkpt lat="48.66324371883618" lon="3.145997478549502"><ele>124.5</ele><time>2026-05-01T14:46:45Z</time></trkpt><trkpt lat="48.66322499331653" lon="3.146128490690697"><ele>125.0</ele><time>2026-05-01T14:46:46Z</time></trkpt><trkpt lat="48.66320512516394" lon="3.1462224206614735"><ele>125.5</ele><time>2026-05-01T14:46:47Z</time></trkpt><trkpt lat="48.663230576224045" lon="3.1463292724138907"><ele>126.0</ele><time>2026-05-01T14:46:48Z</time></trkpt><trkpt lat="48.663273149260974" lon="3.1464536794711604"><ele>127.0</ele><time>2026-05-01T14:46:49Z</time></trkpt><trkpt lat="48.66330965942098" lon="3.146617674335296"><ele>128.0</ele><time>2026-05-01T14:46:50Z</time></trkpt><trkpt lat="48.663369536187076" lon="3.146784695614077"><ele>129.0</ele><time>2026-05-01T14:46:51Z</time></trkpt><trkpt lat="48.66343643638918" lon="3.1469708867477086"><ele>130.0</ele><time>2026-05-01T14:46:52Z</time></trkpt><trkpt lat="48.66350163131757" lon="3.1471634635201697"><ele>130.0</ele><time>2026-05-01T14:46:53Z</time></trkpt><trkpt lat="48.663563403304174" lon="3.1473561734005893"><ele>130.0</ele><time>2026-05-01T14:46:54Z</time></trkpt><trkpt lat="48.66362788498998" lon="3.147557704364567"><ele>130.0</ele><time>2026-05-01T14:46:55Z</time></trkpt><trkpt lat="48.66370491368256" lon="3.1477621830864386"><ele>130.0</ele><time>2026-05-01T14:46:56Z</time></trkpt><trkpt lat="48.66375161735094" lon="3.1479988940430883"><ele>132.66666666666669</ele><time>2026-05-01T14:46:57Z</time></trkpt><trkpt lat="48.66381055131765" lon="3.1482348395956388"><ele>135.33333333333334</ele><time>2026-05-01T14:46:58Z</time></trkpt><trkpt lat="48.6638707439813" lon="3.1484826757542472"><ele>138.0</ele><time>2026-05-01T14:46:59Z</time></trkpt><trkpt lat="48.663924525482685" lon="3.1487364361797723"><ele>138.0</ele><time>2026-05-01T14:47:00Z</time></trkpt><trkpt lat="48.66398182805794" lon="3.149018443400366"><ele>138.0</ele><time>2026-05-01T14:47:01Z</time></trkpt><trkpt lat="48.66403810567165" lon="3.1492836608504553"><ele>138.0</ele><time>2026-05-01T14:47:02Z</time></trkpt><trkpt lat="48.66409208155209" lon="3.149519740398056"><ele>138.5</ele><time>2026-05-01T14:47:03Z</time></trkpt><trkpt lat="48.66414856466166" lon="3.149761104394143"><ele>139.0</ele><time>2026-05-01T14:47:04Z</time></trkpt><trkpt lat="48.66419953000359" lon="3.149980872274348"><ele>139.5</ele><time>2026-05-01T14:47:05Z</time></trkpt><trkpt lat="48.664228387744814" lon="3.150106567902102"><ele>140.0</ele><time>2026-05-01T14:47:06Z</time></trkpt><trkpt lat="48.664250642219784" lon="3.1502035017059677"><ele>141.0</ele><time>2026-05-01T14:47:07Z</time></trkpt><trkpt lat="48.66438835458965" lon="3.1508140638512363"><ele>142.0</ele><time>2026-05-01T14:47:08Z</time></trkpt><trkpt lat="48.664465661739904" lon="3.1510825642611042"><ele>142.0</ele><time>2026-05-01T14:47:09Z</time></trkpt><trkpt lat="48.66452714111394" lon="3.151362395457751"><ele>142.0</ele><time>2026-05-01T14:47:10Z</time></trkpt><trkpt lat="48.664587431063225" lon="3.151641897909331"><ele>142.0</ele><time>2026-05-01T14:47:11Z</time></trkpt><trkpt lat="48.66463926295868" lon="3.151879483470672"><ele>142.5</ele><time>2026-05-01T14:47:12Z</time></trkpt><trkpt lat="48.664685464958616" lon="3.1520869568664223"><ele>143.0</ele><time>2026-05-01T14:47:13Z</time></trkpt><trkpt lat="48.66472529513515" lon="3.1522724296914957"><ele>143.5</ele><time>2026-05-01T14:47:14Z</time></trkpt><trkpt lat="48.66475706206678" lon="3.1524453844877676"><ele>144.0</ele><time>2026-05-01T14:47:15Z</time></trkpt><trkpt lat="48.664794565175995" lon="3.1526262400126637"><ele>144.0</ele><time>2026-05-01T14:47:16Z</time></trkpt><trkpt lat="48.66482133653979" lon="3.152831217478729"><ele>144.0</ele><time>2026-05-01T14:47:17Z</time></trkpt><trkpt lat="48.66481416418433" lon="3.1530141332480652"><ele>144.0</ele><time>2026-05-01T14:47:18Z</time></trkpt><trkpt lat="48.66472322564924" lon="3.1531668340829953"><ele>144.0</ele><time>2026-05-01T14:47:19Z</time></trkpt><trkpt lat="48.66464972251394" lon="3.153383860938373"><ele>144.0</ele><time>2026-05-01T14:47:20Z</time></trkpt><trkpt lat="48.66456962531861" lon="3.153616475509281"><ele>144.0</ele><time>2026-05-01T14:47:21Z</time></trkpt><trkpt lat="48.66448836929138" lon="3.153857984560159"><ele>144.0</ele><time>2026-05-01T14:47:22Z</time></trkpt><trkpt lat="48.66440548693119" lon="3.154105792826257"><ele>143.66666666666666</ele><time>2026-05-01T14:47:23Z</time></trkpt><trkpt lat="48.66432209911493" lon="3.154356373907327"><ele>143.33333333333331</ele><time>2026-05-01T14:47:24Z</time></trkpt><trkpt lat="48.66423836963574" lon="3.1546079816839296"><ele>143.0</ele><time>2026-05-01T14:47:25Z</time></trkpt><trkpt lat="48.66415516829447" lon="3.154858002414156"><ele>143.0</ele><time>2026-05-01T14:47:26Z</time></trkpt><trkpt lat="48.66407206672148" lon="3.155110733421568"><ele>143.0</ele><time>2026-05-01T14:47:27Z</time></trkpt><trkpt lat="48.66398677367907" lon="3.1553576259955087"><ele>143.0</ele><time>2026-05-01T14:47:28Z</time></trkpt><trkpt lat="48.663900964478806" lon="3.1556044914995383"><ele>143.33333333333331</ele><time>2026-05-01T14:47:29Z</time></trkpt><trkpt lat="48.663817295960264" lon="3.1558451984530325"><ele>143.66666666666666</ele><time>2026-05-01T14:47:30Z</time></trkpt><trkpt lat="48.663734601997476" lon="3.1560907212677445"><ele>144.0</ele><time>2026-05-01T14:47:31Z</time></trkpt><trkpt lat="48.663664913896824" lon="3.156342219917261"><ele>143.66666666666666</ele><time>2026-05-01T14:47:32Z</time></trkpt><trkpt lat="48.663586784099365" lon="3.15658505338896"><ele>143.33333333333331</ele><time>2026-05-01T14:47:33Z</time></trkpt><trkpt lat="48.66351954193142" lon="3.1568262807475054"><ele>143.0</ele><time>2026-05-01T14:47:34Z</time></trkpt><trkpt lat="48.6634468672462" lon="3.1570688713308384"><ele>143.0</ele><time>2026-05-01T14:47:35Z</time></trkpt><trkpt lat="48.66335737097251" lon="3.1572986649773167"><ele>143.0</ele><time>2026-05-01T14:47:36Z</time></trkpt><trkpt lat="48.66328003023247" lon="3.1575349480503716"><ele>143.0</ele><time>2026-05-01T14:47:37Z</time></trkpt><trkpt lat="48.66319983579943" lon="3.157768859310621"><ele>143.0</ele><time>2026-05-01T14:47:38Z</time></trkpt><trkpt lat="48.66312096023192" lon="3.1580034117571936"><ele>143.0</ele><time>2026-05-01T14:47:39Z</time></trkpt><trkpt lat="48.6630603215981" lon="3.158255032684919"><ele>143.0</ele><time>2026-05-01T14:47:40Z</time></trkpt><trkpt lat="48.66298228593028" lon="3.1584967621342885"><ele>143.0</ele><time>2026-05-01T14:47:41Z</time></trkpt><trkpt lat="48.66291505356201" lon="3.1587482929478568"><ele>143.0</ele><time>2026-05-01T14:47:42Z</time></trkpt><trkpt lat="48.66284605503216" lon="3.1589997442268096"><ele>143.0</ele><time>2026-05-01T14:47:43Z</time></trkpt><trkpt lat="48.66278568581529" lon="3.1592570722987907"><ele>143.0</ele><time>2026-05-01T14:47:44Z</time></trkpt><trkpt lat="48.66271495087791" lon="3.1595138160407332"><ele>143.0</ele><time>2026-05-01T14:47:45Z</time></trkpt><trkpt lat="48.66264668517466" lon="3.15976943710078"><ele>143.0</ele><time>2026-05-01T14:47:46Z</time></trkpt><trkpt lat="48.66258948549965" lon="3.1599946587813346"><ele>143.25</ele><time>2026-05-01T14:47:47Z</time></trkpt><trkpt lat="48.66253737407756" lon="3.1601938674099443"><ele>143.5</ele><time>2026-05-01T14:47:48Z</time></trkpt><trkpt lat="48.66249740840306" lon="3.1603778440623547"><ele>143.75</ele><time>2026-05-01T14:47:49Z</time></trkpt><trkpt lat="48.66245376792965" lon="3.160538353766865"><ele>144.0</ele><time>2026-05-01T14:47:50Z</time></trkpt><trkpt lat="48.66242074539549" lon="3.1606722414876525"><ele>143.85714285714286</ele><time>2026-05-01T14:47:51Z</time></trkpt><trkpt lat="48.66239714207514" lon="3.1607666159650734"><ele>143.71428571428572</ele><time>2026-05-01T14:47:52Z</time></trkpt><trkpt lat="48.662356936677526" lon="3.1608461718197334"><ele>143.57142857142856</ele><time>2026-05-01T14:47:54Z</time></trkpt><trkpt lat="48.662323340455075" lon="3.16095125466872"><ele>143.42857142857144</ele><time>2026-05-01T14:47:56Z</time></trkpt><trkpt lat="48.662301186459764" lon="3.1610419269387386"><ele>143.28571428571428</ele><time>2026-05-01T14:47:57Z</time></trkpt><trkpt lat="48.66227552015795" lon="3.1611438164550205"><ele>143.14285714285714</ele><time>2026-05-01T14:47:58Z</time></trkpt><trkpt lat="48.66224741626375" lon="3.1612553826666048"><ele>143.0</ele><time>2026-05-01T14:47:59Z</time></trkpt><trkpt lat="48.66221610919839" lon="3.161379664756503"><ele>143.0</ele><time>2026-05-01T14:48:00Z</time></trkpt><trkpt lat="48.66219087448951" lon="3.1615031134847547"><ele>143.0</ele><time>2026-05-01T14:48:01Z</time></trkpt><trkpt lat="48.66217061658537" lon="3.161597117897319"><ele>143.0</ele><time>2026-05-01T14:48:02Z</time></trkpt><trkpt lat="48.66215200020042" lon="3.161707475211423"><ele>143.0</ele><time>2026-05-01T14:48:05Z</time></trkpt><trkpt lat="48.662140915496614" lon="3.1618923707513535"><ele>143.0</ele><time>2026-05-01T14:48:07Z</time></trkpt><trkpt lat="48.66214488597598" lon="3.162033900264363"><ele>143.0</ele><time>2026-05-01T14:48:08Z</time></trkpt><trkpt lat="48.66213409500053" lon="3.1622092775825767"><ele>143.25</ele><time>2026-05-01T14:48:09Z</time></trkpt><trkpt lat="48.66212462874387" lon="3.162407784667214"><ele>143.5</ele><time>2026-05-01T14:48:10Z</time></trkpt><trkpt lat="48.66210858985017" lon="3.1626187835032926"><ele>143.75</ele><time>2026-05-01T14:48:11Z</time></trkpt><trkpt lat="48.66209111175145" lon="3.1628331698122505"><ele>144.0</ele><time>2026-05-01T14:48:12Z</time></trkpt><trkpt lat="48.662077296691706" lon="3.1630486185385958"><ele>144.0</ele><time>2026-05-01T14:48:13Z</time></trkpt><trkpt lat="48.66206867724063" lon="3.1632546611444634"><ele>144.0</ele><time>2026-05-01T14:48:14Z</time></trkpt><trkpt lat="48.66205565830101" lon="3.163452819268304"><ele>144.0</ele><time>2026-05-01T14:48:15Z</time></trkpt><trkpt lat="48.66204182683392" lon="3.163638568533849"><ele>144.0</ele><time>2026-05-01T14:48:16Z</time></trkpt><trkpt lat="48.66203552604305" lon="3.1637963768577646"><ele>144.0</ele><time>2026-05-01T14:48:17Z</time></trkpt><trkpt lat="48.66203333814852" lon="3.163924702029426"><ele>144.0</ele><time>2026-05-01T14:48:18Z</time></trkpt><trkpt lat="48.662014947163975" lon="3.1640398423954825"><ele>144.0</ele><time>2026-05-01T14:48:19Z</time></trkpt><trkpt lat="48.66187690274392" lon="3.1640692157087726"><ele>144.0</ele><time>2026-05-01T14:48:21Z</time></trkpt><trkpt lat="48.66179481587973" lon="3.164099131623053"><ele>144.0</ele><time>2026-05-01T14:48:22Z</time></trkpt><trkpt lat="48.66170951640095" lon="3.1641099776407495"><ele>143.8</ele><time>2026-05-01T14:48:23Z</time></trkpt><trkpt lat="48.661611500096505" lon="3.164107303407228"><ele>143.60000000000002</ele><time>2026-05-01T14:48:24Z</time></trkpt><trkpt lat="48.6615027058201" lon="3.1641019830279236"><ele>143.4</ele><time>2026-05-01T14:48:25Z</time></trkpt><trkpt lat="48.66138941248218" lon="3.1640964426274754"><ele>143.20000000000002</ele><time>2026-05-01T14:48:26Z</time></trkpt><trkpt lat="48.66127373047476" lon="3.1640889581263814"><ele>143.0</ele><time>2026-05-01T14:48:27Z</time></trkpt><trkpt lat="48.66115368635069" lon="3.164069542035096"><ele>143.0</ele><time>2026-05-01T14:48:28Z</time></trkpt><trkpt lat="48.66103582480223" lon="3.1640421875756255"><ele>143.0</ele><time>2026-05-01T14:48:29Z</time></trkpt><trkpt lat="48.6609126597892" lon="3.1640022611616954"><ele>143.0</ele><time>2026-05-01T14:48:30Z</time></trkpt><trkpt lat="48.66078385107501" lon="3.1639771170269158"><ele>143.0</ele><time>2026-05-01T14:48:31Z</time></trkpt><trkpt lat="48.66065666444555" lon="3.1639513341247008"><ele>143.0</ele><time>2026-05-01T14:48:32Z</time></trkpt><trkpt lat="48.660529084740226" lon="3.163924076980331"><ele>143.0</ele><time>2026-05-01T14:48:33Z</time></trkpt><trkpt lat="48.66039741468086" lon="3.1639111307009222"><ele>143.0</ele><time>2026-05-01T14:48:34Z</time></trkpt><trkpt lat="48.66026151595061" lon="3.1638698122248026"><ele>143.0</ele><time>2026-05-01T14:48:35Z</time></trkpt><trkpt lat="48.66012111812968" lon="3.1638674688833133"><ele>142.4</ele><time>2026-05-01T14:48:36Z</time></trkpt><trkpt lat="48.659987688690194" lon="3.163828405334945"><ele>141.8</ele><time>2026-05-01T14:48:37Z</time></trkpt><trkpt lat="48.659876908831755" lon="3.1637995237947005"><ele>141.2</ele><time>2026-05-01T14:48:38Z</time></trkpt><trkpt lat="48.659782894332444" lon="3.163773717528279"><ele>140.6</ele><time>2026-05-01T14:48:39Z</time></trkpt><trkpt lat="48.65970186693459" lon="3.163757813718427"><ele>140.0</ele><time>2026-05-01T14:48:40Z</time></trkpt><trkpt lat="48.6596240368848" lon="3.163747186034414"><ele>140.0</ele><time>2026-05-01T14:48:41Z</time></trkpt><trkpt lat="48.65954547959756" lon="3.163774006715098"><ele>140.0</ele><time>2026-05-01T14:48:42Z</time></trkpt><trkpt lat="48.659472349109855" lon="3.1638684392459693"><ele>140.0</ele><time>2026-05-01T14:48:43Z</time></trkpt><trkpt lat="48.65943025281797" lon="3.1640094076625283"><ele>140.0</ele><time>2026-05-01T14:48:44Z</time></trkpt><trkpt lat="48.65940572207164" lon="3.164184469327087"><ele>140.0</ele><time>2026-05-01T14:48:45Z</time></trkpt><trkpt lat="48.65935054014147" lon="3.1643731289125627"><ele>139.0</ele><time>2026-05-01T14:48:46Z</time></trkpt><trkpt lat="48.659315916413135" lon="3.1645991854140205"><ele>138.0</ele><time>2026-05-01T14:48:47Z</time></trkpt><trkpt lat="48.659248253649295" lon="3.1648268189803552"><ele>137.0</ele><time>2026-05-01T14:48:48Z</time></trkpt><trkpt lat="48.659189463482555" lon="3.1650742437898245"><ele>137.0</ele><time>2026-05-01T14:48:49Z</time></trkpt><trkpt lat="48.65913196741934" lon="3.1653291454583554"><ele>137.0</ele><time>2026-05-01T14:48:50Z</time></trkpt><trkpt lat="48.6590730307469" lon="3.1655888567076826"><ele>137.0</ele><time>2026-05-01T14:48:51Z</time></trkpt><trkpt lat="48.6590106027087" lon="3.1658480717548683"><ele>136.0</ele><time>2026-05-01T14:48:52Z</time></trkpt><trkpt lat="48.658947734100224" lon="3.1661091164967603"><ele>135.0</ele><time>2026-05-01T14:48:53Z</time></trkpt><trkpt lat="48.658886953428954" lon="3.166375299981983"><ele>134.0</ele><time>2026-05-01T14:48:54Z</time></trkpt><trkpt lat="48.65882741958092" lon="3.166636852301582"><ele>134.0</ele><time>2026-05-01T14:48:55Z</time></trkpt><trkpt lat="48.65876936888936" lon="3.1668994848315197"><ele>134.0</ele><time>2026-05-01T14:48:56Z</time></trkpt><trkpt lat="48.658713463768976" lon="3.167144917641483"><ele>134.0</ele><time>2026-05-01T14:48:57Z</time></trkpt><trkpt lat="48.65866548088403" lon="3.167367576382057"><ele>133.75</ele><time>2026-05-01T14:48:58Z</time></trkpt><trkpt lat="48.65863315578507" lon="3.167580443540981"><ele>133.5</ele><time>2026-05-01T14:48:59Z</time></trkpt><trkpt lat="48.65858439567672" lon="3.1677678769139375"><ele>133.25</ele><time>2026-05-01T14:49:00Z</time></trkpt><trkpt lat="48.65854680449227" lon="3.1679415050815765"><ele>133.0</ele><time>2026-05-01T14:49:01Z</time></trkpt><trkpt lat="48.658483073657706" lon="3.1680988722500953"><ele>132.75</ele><time>2026-05-01T14:49:02Z</time></trkpt><trkpt lat="48.65841067273977" lon="3.1682601500794885"><ele>132.5</ele><time>2026-05-01T14:49:03Z</time></trkpt><trkpt lat="48.65830240649841" lon="3.1683925834751907"><ele>132.25</ele><time>2026-05-01T14:49:04Z</time></trkpt><trkpt lat="48.65819150693171" lon="3.1685523746309983"><ele>132.0</ele><time>2026-05-01T14:49:05Z</time></trkpt><trkpt lat="48.65807583643936" lon="3.1687190400428342"><ele>132.5</ele><time>2026-05-01T14:49:06Z</time></trkpt><trkpt lat="48.658132472404844" lon="3.1691693624005914"><ele>133.0</ele><time>2026-05-01T14:49:07Z</time></trkpt><trkpt lat="48.658045592864084" lon="3.1694139871334364"><ele>133.0</ele><time>2026-05-01T14:49:08Z</time></trkpt><trkpt lat="48.657963658352955" lon="3.1696653237189554"><ele>133.0</ele><time>2026-05-01T14:49:09Z</time></trkpt><trkpt lat="48.65788198156923" lon="3.169926004680103"><ele>133.0</ele><time>2026-05-01T14:49:10Z</time></trkpt><trkpt lat="48.65779984470999" lon="3.170186736246514"><ele>133.0</ele><time>2026-05-01T14:49:11Z</time></trkpt><trkpt lat="48.65770428607704" lon="3.170438981502476"><ele>133.0</ele><time>2026-05-01T14:49:12Z</time></trkpt><trkpt lat="48.65761424597946" lon="3.17066731590013"><ele>133.0</ele><time>2026-05-01T14:49:13Z</time></trkpt><trkpt lat="48.65752805174592" lon="3.1708648842859892"><ele>133.5</ele><time>2026-05-01T14:49:14Z</time></trkpt><trkpt lat="48.657446950162026" lon="3.171039966122915"><ele>134.0</ele><time>2026-05-01T14:49:15Z</time></trkpt><trkpt lat="48.657366315993926" lon="3.1712013956119947"><ele>134.5</ele><time>2026-05-01T14:49:16Z</time></trkpt><trkpt lat="48.65727794274036" lon="3.171368012806437"><ele>135.0</ele><time>2026-05-01T14:49:17Z</time></trkpt><trkpt lat="48.65719040388655" lon="3.171560336340574"><ele>135.0</ele><time>2026-05-01T14:49:18Z</time></trkpt><trkpt lat="48.65710647708377" lon="3.171776085108236"><ele>135.0</ele><time>2026-05-01T14:49:19Z</time></trkpt><trkpt lat="48.65701905245456" lon="3.172006049430814"><ele>135.0</ele><time>2026-05-01T14:49:20Z</time></trkpt><trkpt lat="48.65692347945685" lon="3.172219670280836"><ele>135.33333333333334</ele><time>2026-05-01T14:49:21Z</time></trkpt><trkpt lat="48.65682606784329" lon="3.1724457215220947"><ele>135.66666666666669</ele><time>2026-05-01T14:49:22Z</time></trkpt><trkpt lat="48.65672962192857" lon="3.172649456676749"><ele>136.0</ele><time>2026-05-01T14:49:23Z</time></trkpt><trkpt lat="48.656644096599564" lon="3.1728216922632475"><ele>136.0</ele><time>2026-05-01T14:49:24Z</time></trkpt><trkpt lat="48.65656627301079" lon="3.1729868846485596"><ele>136.0</ele><time>2026-05-01T14:49:25Z</time></trkpt><trkpt lat="48.65648453916567" lon="3.173161216526055"><ele>136.0</ele><time>2026-05-01T14:49:26Z</time></trkpt><trkpt lat="48.656401028306114" lon="3.173335948144217"><ele>136.0</ele><time>2026-05-01T14:49:27Z</time></trkpt><trkpt lat="48.65630972118047" lon="3.1735108330285065"><ele>136.0</ele><time>2026-05-01T14:49:28Z</time></trkpt><trkpt lat="48.656228011831736" lon="3.173706838829855"><ele>136.0</ele><time>2026-05-01T14:49:29Z</time></trkpt><trkpt lat="48.65614472179115" lon="3.173912836221241"><ele>136.0</ele><time>2026-05-01T14:49:30Z</time></trkpt><trkpt lat="48.65605610132469" lon="3.1741216057056834"><ele>136.0</ele><time>2026-05-01T14:49:31Z</time></trkpt><trkpt lat="48.65595698121186" lon="3.174318350772173"><ele>136.0</ele><time>2026-05-01T14:49:32Z</time></trkpt><trkpt lat="48.65586285211379" lon="3.174519085617584"><ele>136.0</ele><time>2026-05-01T14:49:33Z</time></trkpt><trkpt lat="48.6557676753258" lon="3.174724566868083"><ele>136.33333333333334</ele><time>2026-05-01T14:49:34Z</time></trkpt><trkpt lat="48.655668159088115" lon="3.1749275612767334"><ele>136.66666666666666</ele><time>2026-05-01T14:49:35Z</time></trkpt><trkpt lat="48.65556576001185" lon="3.175138078497399"><ele>137.0</ele><time>2026-05-01T14:49:36Z</time></trkpt><trkpt lat="48.655467474154726" lon="3.1753539935742716"><ele>137.0</ele><time>2026-05-01T14:49:37Z</time></trkpt><trkpt lat="48.65536268666288" lon="3.1755782159103627"><ele>137.0</ele><time>2026-05-01T14:49:38Z</time></trkpt><trkpt lat="48.65526175698892" lon="3.175800551804543"><ele>137.0</ele><time>2026-05-01T14:49:39Z</time></trkpt><trkpt lat="48.65516384308052" lon="3.1760274247125575"><ele>137.33333333333331</ele><time>2026-05-01T14:49:40Z</time></trkpt><trkpt lat="48.65506609634842" lon="3.1762842224825305"><ele>137.66666666666666</ele><time>2026-05-01T14:49:41Z</time></trkpt><trkpt lat="48.65496644218956" lon="3.1765546114825294"><ele>138.0</ele><time>2026-05-01T14:49:42Z</time></trkpt><trkpt lat="48.65489051446526" lon="3.1767756614662965"><ele>138.0</ele><time>2026-05-01T14:49:43Z</time></trkpt><trkpt lat="48.654793825760905" lon="3.177028836867876"><ele>138.0</ele><time>2026-05-01T14:49:44Z</time></trkpt><trkpt lat="48.65470231685275" lon="3.1772924539408427"><ele>138.0</ele><time>2026-05-01T14:49:45Z</time></trkpt><trkpt lat="48.65460778309813" lon="3.1775533432481815"><ele>137.66666666666666</ele><time>2026-05-01T14:49:46Z</time></trkpt><trkpt lat="48.654503905713526" lon="3.177809606999976"><ele>137.33333333333331</ele><time>2026-05-01T14:49:47Z</time></trkpt><trkpt lat="48.65440255319168" lon="3.1780719224982787"><ele>137.0</ele><time>2026-05-01T14:49:48Z</time></trkpt><trkpt lat="48.65428931749525" lon="3.17831621256219"><ele>136.66666666666666</ele><time>2026-05-01T14:49:49Z</time></trkpt><trkpt lat="48.65418080125415" lon="3.178560218552612"><ele>136.33333333333334</ele><time>2026-05-01T14:49:50Z</time></trkpt><trkpt lat="48.65408941773944" lon="3.1788047285807077"><ele>136.0</ele><time>2026-05-01T14:49:51Z</time></trkpt><trkpt lat="48.65400899699901" lon="3.179005700933357"><ele>136.0</ele><time>2026-05-01T14:49:52Z</time></trkpt><trkpt lat="48.65393361038066" lon="3.179194150414626"><ele>136.0</ele><time>2026-05-01T14:49:53Z</time></trkpt><trkpt lat="48.65386465341118" lon="3.179390173383902"><ele>136.0</ele><time>2026-05-01T14:49:54Z</time></trkpt><trkpt lat="48.6538010731398" lon="3.179544834776477"><ele>136.0</ele><time>2026-05-01T14:49:55Z</time></trkpt><trkpt lat="48.65374858250064" lon="3.179677083038262"><ele>136.0</ele><time>2026-05-01T14:49:56Z</time></trkpt><trkpt lat="48.653687455584546" lon="3.179806156558977"><ele>136.0</ele><time>2026-05-01T14:49:57Z</time></trkpt><trkpt lat="48.65362284794229" lon="3.179945685941577"><ele>136.0</ele><time>2026-05-01T14:49:58Z</time></trkpt><trkpt lat="48.65355309429345" lon="3.180079377083069"><ele>136.0</ele><time>2026-05-01T14:49:59Z</time></trkpt><trkpt lat="48.653477831207134" lon="3.180206566975813"><ele>136.0</ele><time>2026-05-01T14:50:00Z</time></trkpt><trkpt lat="48.65340071169609" lon="3.180343591381526"><ele>136.2</ele><time>2026-05-01T14:50:01Z</time></trkpt><trkpt lat="48.65333642502351" lon="3.1804790336328628"><ele>136.39999999999998</ele><time>2026-05-01T14:50:02Z</time></trkpt><trkpt lat="48.6532732277798" lon="3.180591495226658"><ele>136.6</ele><time>2026-05-01T14:50:03Z</time></trkpt><trkpt lat="48.65322802073687" lon="3.180675617835322"><ele>136.79999999999998</ele><time>2026-05-01T14:50:04Z</time></trkpt><trkpt lat="48.65314825818403" lon="3.1808261283325576"><ele>137.0</ele><time>2026-05-01T14:50:06Z</time></trkpt><trkpt lat="48.65309361111121" lon="3.1809516342344866"><ele>137.25</ele><time>2026-05-01T14:50:07Z</time></trkpt><trkpt lat="48.65303624272873" lon="3.181106383376835"><ele>137.5</ele><time>2026-05-01T14:50:08Z</time></trkpt><trkpt lat="48.652962999008714" lon="3.1812628460942745"><ele>137.75</ele><time>2026-05-01T14:50:09Z</time></trkpt><trkpt lat="48.65288263730198" lon="3.1814333236150762"><ele>138.0</ele><time>2026-05-01T14:50:10Z</time></trkpt><trkpt lat="48.65280479065349" lon="3.1816234718085274"><ele>138.66666666666666</ele><time>2026-05-01T14:50:11Z</time></trkpt><trkpt lat="48.65272291353577" lon="3.1818194715932773"><ele>139.33333333333331</ele><time>2026-05-01T14:50:12Z</time></trkpt><trkpt lat="48.65263734307557" lon="3.1820160874562897"><ele>140.0</ele><time>2026-05-01T14:50:13Z</time></trkpt><trkpt lat="48.65254648466129" lon="3.182237027175667"><ele>141.0</ele><time>2026-05-01T14:50:14Z</time></trkpt><trkpt lat="48.6524592902068" lon="3.1824488630972447"><ele>142.0</ele><time>2026-05-01T14:50:15Z</time></trkpt><trkpt lat="48.652359203767276" lon="3.1826599905067123"><ele>143.0</ele><time>2026-05-01T14:50:16Z</time></trkpt><trkpt lat="48.65226620744964" lon="3.1828726785316"><ele>143.0</ele><time>2026-05-01T14:50:17Z</time></trkpt><trkpt lat="48.652175529269954" lon="3.1830842417113545"><ele>143.0</ele><time>2026-05-01T14:50:18Z</time></trkpt><trkpt lat="48.65209294874419" lon="3.1833050822038444"><ele>143.0</ele><time>2026-05-01T14:50:19Z</time></trkpt><trkpt lat="48.652004908860434" lon="3.1835209558265145"><ele>143.33333333333331</ele><time>2026-05-01T14:50:20Z</time></trkpt><trkpt lat="48.65191164900851" lon="3.1837323927798757"><ele>143.66666666666666</ele><time>2026-05-01T14:50:21Z</time></trkpt><trkpt lat="48.65182883547595" lon="3.183948464251716"><ele>144.0</ele><time>2026-05-01T14:50:22Z</time></trkpt><trkpt lat="48.65174445986044" lon="3.1841681699645497"><ele>144.0</ele><time>2026-05-01T14:50:23Z</time></trkpt><trkpt lat="48.65165139152582" lon="3.184388893522789"><ele>144.0</ele><time>2026-05-01T14:50:24Z</time></trkpt><trkpt lat="48.65156421134508" lon="3.1846137882046253"><ele>144.0</ele><time>2026-05-01T14:50:25Z</time></trkpt><trkpt lat="48.65147209809064" lon="3.1848376235146434"><ele>144.0</ele><time>2026-05-01T14:50:26Z</time></trkpt><trkpt lat="48.65138580929594" lon="3.1850695893295775"><ele>144.0</ele><time>2026-05-01T14:50:27Z</time></trkpt><trkpt lat="48.651295992635305" lon="3.185278286078181"><ele>144.0</ele><time>2026-05-01T14:50:28Z</time></trkpt><trkpt lat="48.651207709130404" lon="3.18553257622397"><ele>143.66666666666666</ele><time>2026-05-01T14:50:29Z</time></trkpt><trkpt lat="48.651130398084945" lon="3.1857632402417395"><ele>143.33333333333331</ele><time>2026-05-01T14:50:30Z</time></trkpt><trkpt lat="48.651036906766876" lon="3.1859898764635597"><ele>143.0</ele><time>2026-05-01T14:50:31Z</time></trkpt><trkpt lat="48.65094969669099" lon="3.1862489593340593"><ele>144.0</ele><time>2026-05-01T14:50:32Z</time></trkpt><trkpt lat="48.65086014909204" lon="3.1865056677897208"><ele>145.0</ele><time>2026-05-01T14:50:33Z</time></trkpt><trkpt lat="48.65077222460076" lon="3.1867313301814733"><ele>146.0</ele><time>2026-05-01T14:50:34Z</time></trkpt><trkpt lat="48.650676468065946" lon="3.186980495698791"><ele>146.0</ele><time>2026-05-01T14:50:35Z</time></trkpt><trkpt lat="48.650586404619226" lon="3.187236871178905"><ele>146.0</ele><time>2026-05-01T14:50:36Z</time></trkpt><trkpt lat="48.65049647393537" lon="3.1874852069708917"><ele>146.0</ele><time>2026-05-01T14:50:37Z</time></trkpt><trkpt lat="48.65040448464209" lon="3.1877346404659748"><ele>146.0</ele><time>2026-05-01T14:50:38Z</time></trkpt><trkpt lat="48.65031602682955" lon="3.187991980734937"><ele>146.0</ele><time>2026-05-01T14:50:39Z</time></trkpt><trkpt lat="48.65022617828263" lon="3.1882460924179092"><ele>146.0</ele><time>2026-05-01T14:50:40Z</time></trkpt><trkpt lat="48.650133338006825" lon="3.18850181926263"><ele>147.33333333333331</ele><time>2026-05-01T14:50:41Z</time></trkpt><trkpt lat="48.65004779009788" lon="3.1887594882145525"><ele>148.66666666666666</ele><time>2026-05-01T14:50:42Z</time></trkpt><trkpt lat="48.64995132165513" lon="3.189013895057657"><ele>150.0</ele><time>2026-05-01T14:50:43Z</time></trkpt><trkpt lat="48.64986088632288" lon="3.189269308307871"><ele>150.33333333333334</ele><time>2026-05-01T14:50:44Z</time></trkpt><trkpt lat="48.649766078949455" lon="3.1895263896544996"><ele>150.66666666666669</ele><time>2026-05-01T14:50:45Z</time></trkpt><trkpt lat="48.64967960063164" lon="3.1897728596948545"><ele>151.0</ele><time>2026-05-01T14:50:46Z</time></trkpt><trkpt lat="48.64959222979715" lon="3.1900125994725395"><ele>151.0</ele><time>2026-05-01T14:50:47Z</time></trkpt><trkpt lat="48.649498536939504" lon="3.1902414306054765"><ele>151.0</ele><time>2026-05-01T14:50:48Z</time></trkpt><trkpt lat="48.64941871761726" lon="3.190479156332372"><ele>151.0</ele><time>2026-05-01T14:50:49Z</time></trkpt><trkpt lat="48.64933996210285" lon="3.1907125173187603"><ele>152.0</ele><time>2026-05-01T14:50:50Z</time></trkpt><trkpt lat="48.649258575025584" lon="3.190941873290023"><ele>153.0</ele><time>2026-05-01T14:50:51Z</time></trkpt><trkpt lat="48.64917651310197" lon="3.191160039573671"><ele>154.0</ele><time>2026-05-01T14:50:52Z</time></trkpt><trkpt lat="48.64909287693465" lon="3.191377948606536"><ele>154.0</ele><time>2026-05-01T14:50:53Z</time></trkpt><trkpt lat="48.649018467661605" lon="3.191592463439427"><ele>154.0</ele><time>2026-05-01T14:50:54Z</time></trkpt><trkpt lat="48.64895900149099" lon="3.191775593757599"><ele>154.0</ele><time>2026-05-01T14:50:55Z</time></trkpt><trkpt lat="48.648897865915934" lon="3.191933284441855"><ele>154.0</ele><time>2026-05-01T14:50:56Z</time></trkpt><trkpt lat="48.64883885458133" lon="3.1920906366884436"><ele>154.0</ele><time>2026-05-01T14:50:57Z</time></trkpt><trkpt lat="48.648783584290406" lon="3.1922484713714407"><ele>154.0</ele><time>2026-05-01T14:50:58Z</time></trkpt><trkpt lat="48.64872362348534" lon="3.1924044758666064"><ele>154.0</ele><time>2026-05-01T14:50:59Z</time></trkpt><trkpt lat="48.648670988769176" lon="3.192566611660232"><ele>154.0</ele><time>2026-05-01T14:51:00Z</time></trkpt><trkpt lat="48.648608517290555" lon="3.192731199539799"><ele>154.5</ele><time>2026-05-01T14:51:01Z</time></trkpt><trkpt lat="48.64854973640807" lon="3.1928933971215105"><ele>155.0</ele><time>2026-05-01T14:51:02Z</time></trkpt><trkpt lat="48.64850267369988" lon="3.1930256386298566"><ele>155.5</ele><time>2026-05-01T14:51:03Z</time></trkpt><trkpt lat="48.64846198370177" lon="3.193135613291528"><ele>156.0</ele><time>2026-05-01T14:51:04Z</time></trkpt><trkpt lat="48.648431060133404" lon="3.193227616021466"><ele>156.5</ele><time>2026-05-01T14:51:05Z</time></trkpt><trkpt lat="48.64841047147324" lon="3.193331433231416"><ele>157.0</ele><time>2026-05-01T14:51:07Z</time></trkpt><trkpt lat="48.64833328351822" lon="3.1933605068460453"><ele>157.0</ele><time>2026-05-01T14:51:28Z</time></trkpt><trkpt lat="48.648269874209035" lon="3.1933181251817944"><ele>157.0</ele><time>2026-05-01T14:51:29Z</time></trkpt><trkpt lat="48.64818428940172" lon="3.1933224303565746"><ele>157.0</ele><time>2026-05-01T14:51:30Z</time></trkpt><trkpt lat="48.64808856707796" lon="3.193327245480012"><ele>157.0</ele><time>2026-05-01T14:51:31Z</time></trkpt><trkpt lat="48.647980177612794" lon="3.1933326977990264"><ele>157.0</ele><time>2026-05-01T14:51:32Z</time></trkpt><trkpt lat="48.64786684107494" lon="3.1933383989704724"><ele>157.25</ele><time>2026-05-01T14:51:33Z</time></trkpt><trkpt lat="48.64774781039875" lon="3.193344386575845"><ele>157.5</ele><time>2026-05-01T14:51:34Z</time></trkpt><trkpt lat="48.647626216882564" lon="3.19335050309873"><ele>157.75</ele><time>2026-05-01T14:51:35Z</time></trkpt><trkpt lat="48.647500350725004" lon="3.193357509956865"><ele>158.0</ele><time>2026-05-01T14:51:36Z</time></trkpt><trkpt lat="48.647372454809506" lon="3.193367267517502"><ele>158.0</ele><time>2026-05-01T14:51:37Z</time></trkpt><trkpt lat="48.64724197817807" lon="3.193374554697881"><ele>158.0</ele><time>2026-05-01T14:51:38Z</time></trkpt><trkpt lat="48.64711034569767" lon="3.193381906433709"><ele>158.0</ele><time>2026-05-01T14:51:39Z</time></trkpt><trkpt lat="48.64697957187732" lon="3.19338941189689"><ele>158.0</ele><time>2026-05-01T14:51:40Z</time></trkpt><trkpt lat="48.64684879540255" lon="3.1933985686873867"><ele>158.75</ele><time>2026-05-01T14:51:41Z</time></trkpt><trkpt lat="48.64671788742163" lon="3.1934078663125356"><ele>159.5</ele><time>2026-05-01T14:51:42Z</time></trkpt><trkpt lat="48.64658910351154" lon="3.193419224341126"><ele>160.25</ele><time>2026-05-01T14:51:43Z</time></trkpt><trkpt lat="48.64647025499813" lon="3.193429706122393"><ele>161.0</ele><time>2026-05-01T14:51:44Z</time></trkpt><trkpt lat="48.64636185996662" lon="3.1934422283338435"><ele>161.0</ele><time>2026-05-01T14:51:45Z</time></trkpt><trkpt lat="48.646261582407995" lon="3.1934758505904415"><ele>161.0</ele><time>2026-05-01T14:51:46Z</time></trkpt><trkpt lat="48.64616960853297" lon="3.19348277840488"><ele>161.0</ele><time>2026-05-01T14:51:47Z</time></trkpt><trkpt lat="48.64608338932798" lon="3.1934533206361495"><ele>161.0</ele><time>2026-05-01T14:51:48Z</time></trkpt><trkpt lat="48.645997447423795" lon="3.1934749915681153"><ele>161.0</ele><time>2026-05-01T14:51:49Z</time></trkpt><trkpt lat="48.6459127167804" lon="3.193475094665707"><ele>161.8</ele><time>2026-05-01T14:51:50Z</time></trkpt><trkpt lat="48.645827509543395" lon="3.193451068855149"><ele>162.60000000000002</ele><time>2026-05-01T14:51:51Z</time></trkpt><trkpt lat="48.64574315112147" lon="3.193452128451207"><ele>163.4</ele><time>2026-05-01T14:51:52Z</time></trkpt><trkpt lat="48.64565119538342" lon="3.193453719992884"><ele>164.2</ele><time>2026-05-01T14:51:53Z</time></trkpt><trkpt lat="48.64555124357555" lon="3.1934580504806616"><ele>165.0</ele><time>2026-05-01T14:51:54Z</time></trkpt><trkpt lat="48.6454482390454" lon="3.1934880855796477"><ele>165.0</ele><time>2026-05-01T14:51:55Z</time></trkpt><trkpt lat="48.64534131265197" lon="3.193482789363854"><ele>165.0</ele><time>2026-05-01T14:51:56Z</time></trkpt><trkpt lat="48.645228470674624" lon="3.1934886947608243"><ele>165.0</ele><time>2026-05-01T14:51:57Z</time></trkpt><trkpt lat="48.645121939881875" lon="3.1934959433567625"><ele>165.0</ele><time>2026-05-01T14:51:58Z</time></trkpt><trkpt lat="48.64502926435748" lon="3.1934995660568717"><ele>165.0</ele><time>2026-05-01T14:51:59Z</time></trkpt><trkpt lat="48.644949876449225" lon="3.1935007393624106"><ele>165.0</ele><time>2026-05-01T14:52:00Z</time></trkpt><trkpt lat="48.64488437744857" lon="3.193513071027159"><ele>165.0</ele><time>2026-05-01T14:52:01Z</time></trkpt><trkpt lat="48.64482621010087" lon="3.1935584504357872"><ele>165.0</ele><time>2026-05-01T14:52:02Z</time></trkpt><trkpt lat="48.64476554802921" lon="3.193618187373998"><ele>165.0</ele><time>2026-05-01T14:52:03Z</time></trkpt><trkpt lat="48.64475209470789" lon="3.1937558156550083"><ele>165.0</ele><time>2026-05-01T14:52:04Z</time></trkpt><trkpt lat="48.644740600724816" lon="3.1938957524407297"><ele>165.0</ele><time>2026-05-01T14:52:05Z</time></trkpt><trkpt lat="48.64476492999812" lon="3.194060073403547"><ele>165.0</ele><time>2026-05-01T14:52:06Z</time></trkpt><trkpt lat="48.64479675327071" lon="3.1942478421971026"><ele>165.0</ele><time>2026-05-01T14:52:07Z</time></trkpt><trkpt lat="48.64481411840583" lon="3.194465444603747"><ele>165.0</ele><time>2026-05-01T14:52:08Z</time></trkpt><trkpt lat="48.64483644121226" lon="3.1947047059088964"><ele>165.0</ele><time>2026-05-01T14:52:09Z</time></trkpt><trkpt lat="48.64485356892086" lon="3.1949664846267796"><ele>165.0</ele><time>2026-05-01T14:52:10Z</time></trkpt><trkpt lat="48.64488119074471" lon="3.1952385340117204"><ele>165.0</ele><time>2026-05-01T14:52:11Z</time></trkpt><trkpt lat="48.64490377607184" lon="3.195519034894467"><ele>165.0</ele><time>2026-05-01T14:52:12Z</time></trkpt><trkpt lat="48.64491050242544" lon="3.1958215446925426"><ele>165.33333333333334</ele><time>2026-05-01T14:52:13Z</time></trkpt><trkpt lat="48.64493449551683" lon="3.1961280735875897"><ele>165.66666666666669</ele><time>2026-05-01T14:52:14Z</time></trkpt><trkpt lat="48.644959371290334" lon="3.196443089493728"><ele>166.0</ele><time>2026-05-01T14:52:15Z</time></trkpt><trkpt lat="48.64498483322794" lon="3.1967655283359484"><ele>165.33333333333334</ele><time>2026-05-01T14:52:16Z</time></trkpt><trkpt lat="48.64501036090251" lon="3.1970928922733037"><ele>164.66666666666666</ele><time>2026-05-01T14:52:17Z</time></trkpt><trkpt lat="48.645034406565145" lon="3.197416742394976"><ele>164.0</ele><time>2026-05-01T14:52:18Z</time></trkpt><trkpt lat="48.64505753511845" lon="3.197728240767099"><ele>163.66666666666666</ele><time>2026-05-01T14:52:19Z</time></trkpt><trkpt lat="48.64508212608324" lon="3.1980594350752796"><ele>163.33333333333334</ele><time>2026-05-01T14:52:20Z</time></trkpt><trkpt lat="48.64510598022529" lon="3.198377844709103"><ele>163.0</ele><time>2026-05-01T14:52:21Z</time></trkpt><trkpt lat="48.64513090153302" lon="3.1986992507546637"><ele>161.66666666666669</ele><time>2026-05-01T14:52:22Z</time></trkpt><trkpt lat="48.64515585619664" lon="3.199021086980505"><ele>160.33333333333334</ele><time>2026-05-01T14:52:23Z</time></trkpt><trkpt lat="48.64518081984436" lon="3.1993407629770583"><ele>159.0</ele><time>2026-05-01T14:52:24Z</time></trkpt><trkpt lat="48.645206562185095" lon="3.1996645516818383"><ele>158.66666666666666</ele><time>2026-05-01T14:52:25Z</time></trkpt><trkpt lat="48.64523142394533" lon="3.199977264382572"><ele>158.33333333333331</ele><time>2026-05-01T14:52:26Z</time></trkpt><trkpt lat="48.64527296664982" lon="3.2002943141861455"><ele>158.0</ele><time>2026-05-01T14:52:27Z</time></trkpt><trkpt lat="48.64528096510743" lon="3.200614867463493"><ele>157.33333333333331</ele><time>2026-05-01T14:52:28Z</time></trkpt><trkpt lat="48.645304210009826" lon="3.200934170571821"><ele>156.66666666666666</ele><time>2026-05-01T14:52:29Z</time></trkpt><trkpt lat="48.645327112641766" lon="3.201248772086392"><ele>156.0</ele><time>2026-05-01T14:52:30Z</time></trkpt><trkpt lat="48.64534992126219" lon="3.201562082208126"><ele>156.0</ele><time>2026-05-01T14:52:31Z</time></trkpt><trkpt lat="48.64537378501478" lon="3.201870311350508"><ele>156.0</ele><time>2026-05-01T14:52:32Z</time></trkpt><trkpt lat="48.64539662441913" lon="3.2021597639474217"><ele>156.0</ele><time>2026-05-01T14:52:33Z</time></trkpt><trkpt lat="48.64541666089752" lon="3.20241369398121"><ele>156.0</ele><time>2026-05-01T14:52:34Z</time></trkpt><trkpt lat="48.645435892852134" lon="3.2026484493876297"><ele>156.0</ele><time>2026-05-01T14:52:35Z</time></trkpt><trkpt lat="48.64545444775079" lon="3.202856277551458"><ele>156.0</ele><time>2026-05-01T14:52:36Z</time></trkpt><trkpt lat="48.64547117438077" lon="3.20304362778479"><ele>156.0</ele><time>2026-05-01T14:52:37Z</time></trkpt><trkpt lat="48.64548616426791" lon="3.203212232950857"><ele>156.5</ele><time>2026-05-01T14:52:38Z</time></trkpt><trkpt lat="48.64549757124049" lon="3.2033542643771926"><ele>157.0</ele><time>2026-05-01T14:52:39Z</time></trkpt><trkpt lat="48.64550626774877" lon="3.203470424295285"><ele>157.5</ele><time>2026-05-01T14:52:40Z</time></trkpt><trkpt lat="48.64550766259129" lon="3.2035853820059916"><ele>158.0</ele><time>2026-05-01T14:52:41Z</time></trkpt><trkpt lat="48.64550207245014" lon="3.2036910365440794"><ele>158.5</ele><time>2026-05-01T14:52:42Z</time></trkpt><trkpt lat="48.64549711779672" lon="3.2037968297240558"><ele>159.0</ele><time>2026-05-01T14:52:43Z</time></trkpt><trkpt lat="48.645444486368234" lon="3.203890679090186"><ele>159.0</ele><time>2026-05-01T14:52:44Z</time></trkpt><trkpt lat="48.6453903280835" lon="3.2039812364543994"><ele>159.0</ele><time>2026-05-01T14:52:45Z</time></trkpt><trkpt lat="48.64531762736475" lon="3.2040630036558344"><ele>159.0</ele><time>2026-05-01T14:52:46Z</time></trkpt><trkpt lat="48.64523626967115" lon="3.204150087250357"><ele>159.0</ele><time>2026-05-01T14:52:47Z</time></trkpt><trkpt lat="48.64514870397676" lon="3.2042409078732605"><ele>159.0</ele><time>2026-05-01T14:52:48Z</time></trkpt><trkpt lat="48.64505522297803" lon="3.2043629176250668"><ele>160.0</ele><time>2026-05-01T14:52:49Z</time></trkpt><trkpt lat="48.64494820050508" lon="3.204463420781869"><ele>161.0</ele><time>2026-05-01T14:52:50Z</time></trkpt><trkpt lat="48.64485361333748" lon="3.2045938351948338"><ele>162.0</ele><time>2026-05-01T14:52:51Z</time></trkpt><trkpt lat="48.644768999332385" lon="3.2047468152239076"><ele>163.0</ele><time>2026-05-01T14:52:52Z</time></trkpt><trkpt lat="48.644666397487185" lon="3.204900548363591"><ele>163.0</ele><time>2026-05-01T14:52:53Z</time></trkpt><trkpt lat="48.64454143021331" lon="3.2050499379363346"><ele>163.0</ele><time>2026-05-01T14:52:54Z</time></trkpt><trkpt lat="48.64439679945585" lon="3.2051941717281944"><ele>163.0</ele><time>2026-05-01T14:52:55Z</time></trkpt><trkpt lat="48.644255720335806" lon="3.2053598097777725"><ele>163.0</ele><time>2026-05-01T14:52:56Z</time></trkpt><trkpt lat="48.64409775945484" lon="3.205543487796201"><ele>163.0</ele><time>2026-05-01T14:52:57Z</time></trkpt><trkpt lat="48.64393371726309" lon="3.205734237051471"><ele>163.0</ele><time>2026-05-01T14:52:58Z</time></trkpt><trkpt lat="48.64376828523594" lon="3.205926602419067"><ele>162.66666666666669</ele><time>2026-05-01T14:52:59Z</time></trkpt><trkpt lat="48.64359755053304" lon="3.206127335188123"><ele>162.33333333333334</ele><time>2026-05-01T14:53:00Z</time></trkpt><trkpt lat="48.64342381812405" lon="3.206335060099834"><ele>162.0</ele><time>2026-05-01T14:53:01Z</time></trkpt><trkpt lat="48.64324769535321" lon="3.206545643054561"><ele>161.0</ele><time>2026-05-01T14:53:02Z</time></trkpt><trkpt lat="48.643077463983964" lon="3.2067738502135636"><ele>160.0</ele><time>2026-05-01T14:53:03Z</time></trkpt><trkpt lat="48.6428901877672" lon="3.2069671223078697"><ele>159.66666666666669</ele><time>2026-05-01T14:53:04Z</time></trkpt><trkpt lat="48.642727531380174" lon="3.207157939004566"><ele>159.33333333333334</ele><time>2026-05-01T14:53:05Z</time></trkpt><trkpt lat="48.64258831279263" lon="3.2073492446343965"><ele>159.0</ele><time>2026-05-01T14:53:06Z</time></trkpt><trkpt lat="48.64245203379073" lon="3.2075029538989486"><ele>158.75</ele><time>2026-05-01T14:53:07Z</time></trkpt><trkpt lat="48.64232276708454" lon="3.20762578647824"><ele>158.5</ele><time>2026-05-01T14:53:08Z</time></trkpt><trkpt lat="48.64221485265135" lon="3.207745405578655"><ele>158.25</ele><time>2026-05-01T14:53:09Z</time></trkpt><trkpt lat="48.642116359405854" lon="3.2078513167224005"><ele>158.0</ele><time>2026-05-01T14:53:10Z</time></trkpt><trkpt lat="48.64201973833471" lon="3.2079539947875393"><ele>159.8</ele><time>2026-05-01T14:53:11Z</time></trkpt><trkpt lat="48.64192128431081" lon="3.208058171982386"><ele>161.60000000000002</ele><time>2026-05-01T14:53:12Z</time></trkpt><trkpt lat="48.64183639153738" lon="3.208147819292532"><ele>163.39999999999998</ele><time>2026-05-01T14:53:13Z</time></trkpt><trkpt lat="48.64175558319912" lon="3.2082331534280306"><ele>165.2</ele><time>2026-05-01T14:53:14Z</time></trkpt><trkpt lat="48.64165889831755" lon="3.2083362024415094"><ele>167.0</ele><time>2026-05-01T14:53:15Z</time></trkpt><trkpt lat="48.641553504085124" lon="3.2084542244534355"><ele>167.0</ele><time>2026-05-01T14:53:16Z</time></trkpt><trkpt lat="48.64144855972164" lon="3.208578027238765"><ele>167.0</ele><time>2026-05-01T14:53:17Z</time></trkpt><trkpt lat="48.641341941988" lon="3.2086986775388007"><ele>167.0</ele><time>2026-05-01T14:53:18Z</time></trkpt><trkpt lat="48.641233326753984" lon="3.208816646888717"><ele>167.0</ele><time>2026-05-01T14:53:19Z</time></trkpt><trkpt lat="48.641119745438694" lon="3.2089358088809825"><ele>167.75</ele><time>2026-05-01T14:53:20Z</time></trkpt><trkpt lat="48.64100228865331" lon="3.209053790573345"><ele>168.5</ele><time>2026-05-01T14:53:21Z</time></trkpt><trkpt lat="48.64089239460974" lon="3.209190218825831"><ele>169.25</ele><time>2026-05-01T14:53:22Z</time></trkpt><trkpt lat="48.64079874443137" lon="3.2093463070928454"><ele>170.0</ele><time>2026-05-01T14:53:23Z</time></trkpt><trkpt lat="48.640689472329825" lon="3.209498933012682"><ele>170.0</ele><time>2026-05-01T14:53:24Z</time></trkpt><trkpt lat="48.640589367277435" lon="3.2096093164516417"><ele>170.0</ele><time>2026-05-01T14:53:25Z</time></trkpt><trkpt lat="48.640517028541986" lon="3.209702314936355"><ele>170.0</ele><time>2026-05-01T14:53:26Z</time></trkpt><trkpt lat="48.64045556792569" lon="3.209766168410863"><ele>170.0</ele><time>2026-05-01T14:53:27Z</time></trkpt><trkpt lat="48.640388470622916" lon="3.209823253419835"><ele>170.0</ele><time>2026-05-01T14:53:29Z</time></trkpt><trkpt lat="48.64028456900037" lon="3.209794591603811"><ele>170.25</ele><time>2026-05-01T14:53:49Z</time></trkpt><trkpt lat="48.64018942273401" lon="3.2097229481830873"><ele>170.5</ele><time>2026-05-01T14:53:50Z</time></trkpt><trkpt lat="48.64006440255549" lon="3.2096508507987833"><ele>170.75</ele><time>2026-05-01T14:53:51Z</time></trkpt><trkpt lat="48.639940673890216" lon="3.209549967135209"><ele>171.0</ele><time>2026-05-01T14:53:52Z</time></trkpt><trkpt lat="48.639798160324524" lon="3.2094427364989406"><ele>171.0</ele><time>2026-05-01T14:53:53Z</time></trkpt><trkpt lat="48.63964806751259" lon="3.209331994987271"><ele>171.0</ele><time>2026-05-01T14:53:54Z</time></trkpt><trkpt lat="48.63949210622676" lon="3.2092023883126637"><ele>171.0</ele><time>2026-05-01T14:53:55Z</time></trkpt><trkpt lat="48.639334538045006" lon="3.2090833774487257"><ele>172.0</ele><time>2026-05-01T14:53:56Z</time></trkpt><trkpt lat="48.639164831313266" lon="3.20895966937244"><ele>173.0</ele><time>2026-05-01T14:53:57Z</time></trkpt><trkpt lat="48.63898498408602" lon="3.2088270225808464"><ele>174.0</ele><time>2026-05-01T14:53:58Z</time></trkpt><trkpt lat="48.63880330570326" lon="3.2086883048915316"><ele>173.66666666666666</ele><time>2026-05-01T14:53:59Z</time></trkpt><trkpt lat="48.63861663953688" lon="3.2085511065750802"><ele>173.33333333333331</ele><time>2026-05-01T14:54:00Z</time></trkpt><trkpt lat="48.63843094021227" lon="3.2084052339618867"><ele>173.0</ele><time>2026-05-01T14:54:01Z</time></trkpt><trkpt lat="48.6382384808321" lon="3.2082603009308093"><ele>173.33333333333331</ele><time>2026-05-01T14:54:02Z</time></trkpt><trkpt lat="48.63804266424831" lon="3.2081119859249827"><ele>173.66666666666666</ele><time>2026-05-01T14:54:03Z</time></trkpt><trkpt lat="48.63784609805171" lon="3.2079610901589364"><ele>174.0</ele><time>2026-05-01T14:54:04Z</time></trkpt><trkpt lat="48.63764772293395" lon="3.2078098121168828"><ele>174.0</ele><time>2026-05-01T14:54:05Z</time></trkpt><trkpt lat="48.63744606347458" lon="3.2076514109645493"><ele>174.0</ele><time>2026-05-01T14:54:06Z</time></trkpt><trkpt lat="48.637245054415196" lon="3.207495160936422"><ele>174.0</ele><time>2026-05-01T14:54:07Z</time></trkpt><trkpt lat="48.6370378409893" lon="3.2073440519476923"><ele>174.0</ele><time>2026-05-01T14:54:08Z</time></trkpt><trkpt lat="48.63682885381919" lon="3.207196092470982"><ele>174.5</ele><time>2026-05-01T14:54:09Z</time></trkpt><trkpt lat="48.636621090973286" lon="3.2070394591660274"><ele>175.0</ele><time>2026-05-01T14:54:10Z</time></trkpt><trkpt lat="48.636416269690145" lon="3.2068815863743665"><ele>175.0</ele><time>2026-05-01T14:54:11Z</time></trkpt><trkpt lat="48.636208452004084" lon="3.206725243416736"><ele>175.0</ele><time>2026-05-01T14:54:12Z</time></trkpt><trkpt lat="48.63599743460468" lon="3.2065685942887296"><ele>175.0</ele><time>2026-05-01T14:54:13Z</time></trkpt><trkpt lat="48.63578556306562" lon="3.2064122589114583"><ele>175.0</ele><time>2026-05-01T14:54:14Z</time></trkpt><trkpt lat="48.635591441818825" lon="3.2062613099945265"><ele>175.0</ele><time>2026-05-01T14:54:15Z</time></trkpt><trkpt lat="48.63542190883857" lon="3.206126709983599"><ele>175.0</ele><time>2026-05-01T14:54:16Z</time></trkpt><trkpt lat="48.6352618743519" lon="3.206008513986554"><ele>175.0</ele><time>2026-05-01T14:54:17Z</time></trkpt><trkpt lat="48.6351139854488" lon="3.205896251362078"><ele>173.25</ele><time>2026-05-01T14:54:18Z</time></trkpt><trkpt lat="48.634978828459204" lon="3.2057977907362902"><ele>171.5</ele><time>2026-05-01T14:54:19Z</time></trkpt><trkpt lat="48.63485885693091" lon="3.205703061980562"><ele>169.75</ele><time>2026-05-01T14:54:20Z</time></trkpt><trkpt lat="48.63474739611347" lon="3.205617517261055"><ele>168.0</ele><time>2026-05-01T14:54:21Z</time></trkpt><trkpt lat="48.63464635896651" lon="3.205541813796145"><ele>167.83333333333334</ele><time>2026-05-01T14:54:22Z</time></trkpt><trkpt lat="48.63455045734499" lon="3.20547168388185"><ele>167.66666666666666</ele><time>2026-05-01T14:54:23Z</time></trkpt><trkpt lat="48.63445646315524" lon="3.2053996787917707"><ele>167.5</ele><time>2026-05-01T14:54:24Z</time></trkpt><trkpt lat="48.63436967176003" lon="3.205341930919738"><ele>167.33333333333331</ele><time>2026-05-01T14:54:25Z</time></trkpt><trkpt lat="48.63430686801697" lon="3.2052879889179478"><ele>167.16666666666666</ele><time>2026-05-01T14:54:26Z</time></trkpt><trkpt lat="48.63424001601673" lon="3.205258721498279"><ele>167.0</ele><time>2026-05-01T14:54:27Z</time></trkpt><trkpt lat="48.634189095702325" lon="3.205193691010692"><ele>167.0</ele><time>2026-05-01T14:54:28Z</time></trkpt><trkpt lat="48.634094927345956" lon="3.205342528884068"><ele>167.0</ele><time>2026-05-01T14:54:29Z</time></trkpt><trkpt lat="48.63401900484458" lon="3.205437426467353"><ele>167.0</ele><time>2026-05-01T14:54:30Z</time></trkpt><trkpt lat="48.63393821466801" lon="3.2055276135880777"><ele>167.0</ele><time>2026-05-01T14:54:31Z</time></trkpt><trkpt lat="48.633842555977424" lon="3.205614195005005"><ele>167.0</ele><time>2026-05-01T14:54:32Z</time></trkpt><trkpt lat="48.63374350257009" lon="3.2056927035960205"><ele>167.25</ele><time>2026-05-01T14:54:33Z</time></trkpt><trkpt lat="48.63363292474368" lon="3.2058080230897015"><ele>167.5</ele><time>2026-05-01T14:54:34Z</time></trkpt><trkpt lat="48.63351639309628" lon="3.205916637457704"><ele>167.75</ele><time>2026-05-01T14:54:35Z</time></trkpt><trkpt lat="48.63339386435685" lon="3.2060374275049623"><ele>168.0</ele><time>2026-05-01T14:54:36Z</time></trkpt><trkpt lat="48.633273620419516" lon="3.2061687759361805"><ele>168.0</ele><time>2026-05-01T14:54:37Z</time></trkpt><trkpt lat="48.63313412720925" lon="3.2062783846172334"><ele>168.0</ele><time>2026-05-01T14:54:38Z</time></trkpt><trkpt lat="48.63299087750749" lon="3.206418994877663"><ele>168.0</ele><time>2026-05-01T14:54:39Z</time></trkpt><trkpt lat="48.6328454582071" lon="3.2065619998926245"><ele>166.66666666666666</ele><time>2026-05-01T14:54:40Z</time></trkpt><trkpt lat="48.63268221365551" lon="3.2067230367903012"><ele>165.33333333333331</ele><time>2026-05-01T14:54:41Z</time></trkpt><trkpt lat="48.632512246748774" lon="3.2068907053209212"><ele>164.0</ele><time>2026-05-01T14:54:42Z</time></trkpt><trkpt lat="48.632341180033876" lon="3.2070594586363157"><ele>164.0</ele><time>2026-05-01T14:54:43Z</time></trkpt><trkpt lat="48.632164090412836" lon="3.2072341534854125"><ele>164.0</ele><time>2026-05-01T14:54:44Z</time></trkpt><trkpt lat="48.631984982325946" lon="3.207410114559942"><ele>164.0</ele><time>2026-05-01T14:54:45Z</time></trkpt><trkpt lat="48.63181263392046" lon="3.2075783860378424"><ele>166.0</ele><time>2026-05-01T14:54:46Z</time></trkpt><trkpt lat="48.631658392832406" lon="3.2077292317580035"><ele>168.0</ele><time>2026-05-01T14:54:47Z</time></trkpt><trkpt lat="48.631511323861055" lon="3.2078755983507787"><ele>170.0</ele><time>2026-05-01T14:54:48Z</time></trkpt><trkpt lat="48.631369770929496" lon="3.208016380721201"><ele>170.0</ele><time>2026-05-01T14:54:49Z</time></trkpt><trkpt lat="48.631242969480375" lon="3.208144448794872"><ele>170.0</ele><time>2026-05-01T14:54:50Z</time></trkpt><trkpt lat="48.63113043842672" lon="3.2082644624673256"><ele>170.0</ele><time>2026-05-01T14:54:51Z</time></trkpt><trkpt lat="48.63101736534863" lon="3.2083846357839736"><ele>170.0</ele><time>2026-05-01T14:54:52Z</time></trkpt><trkpt lat="48.630904349265975" lon="3.2085047057536666"><ele>169.5</ele><time>2026-05-01T14:54:53Z</time></trkpt><trkpt lat="48.63078939270037" lon="3.2086285413280526"><ele>169.0</ele><time>2026-05-01T14:54:54Z</time></trkpt><trkpt lat="48.63068720226472" lon="3.2087720073645336"><ele>168.5</ele><time>2026-05-01T14:54:55Z</time></trkpt><trkpt lat="48.63057439632696" lon="3.2088663994363347"><ele>168.0</ele><time>2026-05-01T14:54:56Z</time></trkpt><trkpt lat="48.630477279668064" lon="3.2089738430115617"><ele>168.4</ele><time>2026-05-01T14:54:57Z</time></trkpt><trkpt lat="48.63038423344796" lon="3.2090785424635655"><ele>168.8</ele><time>2026-05-01T14:54:58Z</time></trkpt><trkpt lat="48.63030770322353" lon="3.209197517619156"><ele>169.2</ele><time>2026-05-01T14:54:59Z</time></trkpt><trkpt lat="48.63022611875073" lon="3.209290106393961"><ele>169.6</ele><time>2026-05-01T14:55:00Z</time></trkpt><trkpt lat="48.63014814640232" lon="3.209378487979549"><ele>170.0</ele><time>2026-05-01T14:55:01Z</time></trkpt><trkpt lat="48.63007000876954" lon="3.209465229578019"><ele>169.2</ele><time>2026-05-01T14:55:02Z</time></trkpt><trkpt lat="48.629991018105144" lon="3.2095584929473104"><ele>168.4</ele><time>2026-05-01T14:55:03Z</time></trkpt><trkpt lat="48.62990794150427" lon="3.2096439989611665"><ele>167.60000000000002</ele><time>2026-05-01T14:55:04Z</time></trkpt><trkpt lat="48.62982821155054" lon="3.209737324557651"><ele>166.8</ele><time>2026-05-01T14:55:05Z</time></trkpt><trkpt lat="48.62974898745929" lon="3.2098307102635726"><ele>166.0</ele><time>2026-05-01T14:55:06Z</time></trkpt><trkpt lat="48.62966984377157" lon="3.209923999975412"><ele>166.0</ele><time>2026-05-01T14:55:07Z</time></trkpt><trkpt lat="48.629589072222714" lon="3.2100125497131837"><ele>166.0</ele><time>2026-05-01T14:55:08Z</time></trkpt><trkpt lat="48.629507823776514" lon="3.210070626071333"><ele>166.0</ele><time>2026-05-01T14:55:09Z</time></trkpt><trkpt lat="48.6294467012733" lon="3.2101313799086606"><ele>166.0</ele><time>2026-05-01T14:55:10Z</time></trkpt><trkpt lat="48.6293853301975" lon="3.210191479856976"><ele>166.0</ele><time>2026-05-01T14:55:11Z</time></trkpt><trkpt lat="48.62932342936904" lon="3.2102478193309856"><ele>166.0</ele><time>2026-05-01T14:55:12Z</time></trkpt><trkpt lat="48.62925937493557" lon="3.210300261331399"><ele>165.5</ele><time>2026-05-01T14:55:13Z</time></trkpt><trkpt lat="48.62919646362021" lon="3.2103471726348456"><ele>165.0</ele><time>2026-05-01T14:55:14Z</time></trkpt><trkpt lat="48.62913100395861" lon="3.2103964490667254"><ele>164.5</ele><time>2026-05-01T14:55:15Z</time></trkpt><trkpt lat="48.62906289576458" lon="3.2104468648173037"><ele>164.0</ele><time>2026-05-01T14:55:16Z</time></trkpt><trkpt lat="48.62899481174543" lon="3.21049638960615"><ele>163.5</ele><time>2026-05-01T14:55:17Z</time></trkpt><trkpt lat="48.62892247286623" lon="3.210548077493649"><ele>163.0</ele><time>2026-05-01T14:55:18Z</time></trkpt><trkpt lat="48.62885545505224" lon="3.2106217925277196"><ele>163.33333333333334</ele><time>2026-05-01T14:55:19Z</time></trkpt><trkpt lat="48.628774779099984" lon="3.210660418597661"><ele>163.66666666666669</ele><time>2026-05-01T14:55:20Z</time></trkpt><trkpt lat="48.62869650756529" lon="3.210712000448089"><ele>164.0</ele><time>2026-05-01T14:55:21Z</time></trkpt><trkpt lat="48.62861806829048" lon="3.210767170353256"><ele>164.33333333333334</ele><time>2026-05-01T14:55:22Z</time></trkpt><trkpt lat="48.628539365052" lon="3.210827547550458"><ele>164.66666666666666</ele><time>2026-05-01T14:55:23Z</time></trkpt><trkpt lat="48.628462151665694" lon="3.210891260759532"><ele>165.0</ele><time>2026-05-01T14:55:24Z</time></trkpt><trkpt lat="48.62838768169968" lon="3.2109596468757577"><ele>165.16666666666666</ele><time>2026-05-01T14:55:25Z</time></trkpt><trkpt lat="48.62831501124489" lon="3.2110205824646636"><ele>165.33333333333334</ele><time>2026-05-01T14:55:26Z</time></trkpt><trkpt lat="48.62824285005348" lon="3.211079165581142"><ele>165.5</ele><time>2026-05-01T14:55:27Z</time></trkpt><trkpt lat="48.62817175488948" lon="3.211138889438045"><ele>165.66666666666669</ele><time>2026-05-01T14:55:28Z</time></trkpt><trkpt lat="48.628101246089585" lon="3.211198301425716"><ele>165.83333333333334</ele><time>2026-05-01T14:55:29Z</time></trkpt><trkpt lat="48.62803140893139" lon="3.2112561594581597"><ele>166.0</ele><time>2026-05-01T14:55:30Z</time></trkpt><trkpt lat="48.627962086443254" lon="3.211316210527855"><ele>166.0</ele><time>2026-05-01T14:55:31Z</time></trkpt><trkpt lat="48.627889955601965" lon="3.211378773823784"><ele>166.0</ele><time>2026-05-01T14:55:32Z</time></trkpt><trkpt lat="48.62781348791466" lon="3.2114433015129946"><ele>166.0</ele><time>2026-05-01T14:55:33Z</time></trkpt><trkpt lat="48.627736643207356" lon="3.2115133373586455"><ele>166.0</ele><time>2026-05-01T14:55:34Z</time></trkpt><trkpt lat="48.62767173079025" lon="3.211577642497417"><ele>166.0</ele><time>2026-05-01T14:55:35Z</time></trkpt><trkpt lat="48.627589642919524" lon="3.2116631824261175"><ele>166.0</ele><time>2026-05-01T14:55:37Z</time></trkpt><trkpt lat="48.62766029409602" lon="3.211902536362183"><ele>166.0</ele><time>2026-05-01T14:55:41Z</time></trkpt><trkpt lat="48.62770297562729" lon="3.211988083574354"><ele>166.0</ele><time>2026-05-01T14:55:42Z</time></trkpt><trkpt lat="48.62774473414327" lon="3.21208877414384"><ele>166.0</ele><time>2026-05-01T14:55:43Z</time></trkpt><trkpt lat="48.6277878242951" lon="3.21219822230237"><ele>166.0</ele><time>2026-05-01T14:55:44Z</time></trkpt><trkpt lat="48.627830419385845" lon="3.21231796873569"><ele>166.0</ele><time>2026-05-01T14:55:45Z</time></trkpt><trkpt lat="48.62788052034924" lon="3.212441466682877"><ele>166.0</ele><time>2026-05-01T14:55:46Z</time></trkpt><trkpt lat="48.62791458429037" lon="3.2125847557481633"><ele>165.8</ele><time>2026-05-01T14:55:47Z</time></trkpt><trkpt lat="48.627974746406906" lon="3.212710543372595"><ele>165.60000000000002</ele><time>2026-05-01T14:55:48Z</time></trkpt><trkpt lat="48.62801645346785" lon="3.212850010604341"><ele>165.4</ele><time>2026-05-01T14:55:49Z</time></trkpt><trkpt lat="48.62805510463525" lon="3.2129933951054137"><ele>165.2</ele><time>2026-05-01T14:55:50Z</time></trkpt><trkpt lat="48.628115380147925" lon="3.2131099024389407"><ele>165.0</ele><time>2026-05-01T14:55:51Z</time></trkpt><trkpt lat="48.628168687313554" lon="3.213212581998854"><ele>164.75</ele><time>2026-05-01T14:55:52Z</time></trkpt><trkpt lat="48.628226663384616" lon="3.213308667629592"><ele>164.5</ele><time>2026-05-01T14:55:53Z</time></trkpt><trkpt lat="48.628301498031114" lon="3.213354205293804"><ele>164.25</ele><time>2026-05-01T14:55:54Z</time></trkpt><trkpt lat="48.62833903427918" lon="3.2137174899773484"><ele>164.0</ele><time>2026-05-01T14:55:56Z</time></trkpt><trkpt lat="48.62838025337679" lon="3.2138537137387684"><ele>163.75</ele><time>2026-05-01T14:55:57Z</time></trkpt><trkpt lat="48.628429203023416" lon="3.2139991858780403"><ele>163.5</ele><time>2026-05-01T14:55:58Z</time></trkpt><trkpt lat="48.628482527629835" lon="3.2141533594468803"><ele>163.25</ele><time>2026-05-01T14:55:59Z</time></trkpt><trkpt lat="48.62853761612392" lon="3.2143165246259437"><ele>163.0</ele><time>2026-05-01T14:56:00Z</time></trkpt><trkpt lat="48.62859194310437" lon="3.2144856746240578"><ele>163.0</ele><time>2026-05-01T14:56:01Z</time></trkpt><trkpt lat="48.62864813251776" lon="3.2146599020722535"><ele>163.0</ele><time>2026-05-01T14:56:02Z</time></trkpt><trkpt lat="48.628708931884454" lon="3.214843546913374"><ele>163.0</ele><time>2026-05-01T14:56:03Z</time></trkpt><trkpt lat="48.62877524400567" lon="3.2150424632909633"><ele>163.0</ele><time>2026-05-01T14:56:04Z</time></trkpt><trkpt lat="48.62885219389407" lon="3.2152628586293277"><ele>163.0</ele><time>2026-05-01T14:56:05Z</time></trkpt><trkpt lat="48.62893393259808" lon="3.2154968056358175"><ele>163.0</ele><time>2026-05-01T14:56:06Z</time></trkpt><trkpt lat="48.62901488501026" lon="3.2157332827316343"><ele>163.0</ele><time>2026-05-01T14:56:07Z</time></trkpt><trkpt lat="48.6291035447146" lon="3.2159726482694375"><ele>163.0</ele><time>2026-05-01T14:56:08Z</time></trkpt><trkpt lat="48.62919482580517" lon="3.21623972331465"><ele>163.0</ele><time>2026-05-01T14:56:09Z</time></trkpt><trkpt lat="48.62928387315887" lon="3.2165003645537587"><ele>163.0</ele><time>2026-05-01T14:56:10Z</time></trkpt><trkpt lat="48.62937127332449" lon="3.2167712473791834"><ele>162.66666666666669</ele><time>2026-05-01T14:56:11Z</time></trkpt><trkpt lat="48.62945456797795" lon="3.2170161800331267"><ele>162.33333333333334</ele><time>2026-05-01T14:56:12Z</time></trkpt><trkpt lat="48.629538910596565" lon="3.2172514954729152"><ele>162.0</ele><time>2026-05-01T14:56:13Z</time></trkpt><trkpt lat="48.629617903435275" lon="3.2174795986486417"><ele>162.66666666666666</ele><time>2026-05-01T14:56:14Z</time></trkpt><trkpt lat="48.629685147596945" lon="3.2177052008553657"><ele>163.33333333333331</ele><time>2026-05-01T14:56:15Z</time></trkpt><trkpt lat="48.62975832588681" lon="3.2179258154704695"><ele>164.0</ele><time>2026-05-01T14:56:16Z</time></trkpt><trkpt lat="48.62982904698564" lon="3.2181487552589747"><ele>163.66666666666666</ele><time>2026-05-01T14:56:17Z</time></trkpt><trkpt lat="48.62990294332273" lon="3.2183673578396066"><ele>163.33333333333334</ele><time>2026-05-01T14:56:18Z</time></trkpt><trkpt lat="48.62998349020239" lon="3.2185785373814486"><ele>163.0</ele><time>2026-05-01T14:56:19Z</time></trkpt><trkpt lat="48.630070812331525" lon="3.2187936322976545"><ele>163.0</ele><time>2026-05-01T14:56:20Z</time></trkpt><trkpt lat="48.63015302500182" lon="3.2190107663344247"><ele>163.0</ele><time>2026-05-01T14:56:21Z</time></trkpt><trkpt lat="48.63021094739015" lon="3.219208460869254"><ele>163.0</ele><time>2026-05-01T14:56:22Z</time></trkpt><trkpt lat="48.63027063446528" lon="3.2193777255575653"><ele>163.0</ele><time>2026-05-01T14:56:23Z</time></trkpt><trkpt lat="48.63031977059287" lon="3.219520677563559"><ele>163.0</ele><time>2026-05-01T14:56:24Z</time></trkpt><trkpt lat="48.63036936730726" lon="3.2196419141642187"><ele>163.0</ele><time>2026-05-01T14:56:25Z</time></trkpt><trkpt lat="48.63040524459316" lon="3.219743717182724"><ele>163.0</ele><time>2026-05-01T14:56:26Z</time></trkpt><trkpt lat="48.630432599866445" lon="3.2198305160887855"><ele>163.0</ele><time>2026-05-01T14:56:27Z</time></trkpt><trkpt lat="48.63041142571307" lon="3.2199714864573585"><ele>163.0</ele><time>2026-05-01T14:56:29Z</time></trkpt><trkpt lat="48.630344130411345" lon="3.2200481313544826"><ele>163.0</ele><time>2026-05-01T14:56:30Z</time></trkpt><trkpt lat="48.63023305671546" lon="3.2201094572977573"><ele>163.66666666666669</ele><time>2026-05-01T14:56:31Z</time></trkpt><trkpt lat="48.63010704719309" lon="3.2201883244448917"><ele>164.33333333333334</ele><time>2026-05-01T14:56:32Z</time></trkpt><trkpt lat="48.62994957070681" lon="3.2203046038374508"><ele>165.0</ele><time>2026-05-01T14:56:33Z</time></trkpt><trkpt lat="48.629807557905316" lon="3.220413091082444"><ele>165.0</ele><time>2026-05-01T14:56:34Z</time></trkpt><trkpt lat="48.62966023698578" lon="3.220538007118919"><ele>165.0</ele><time>2026-05-01T14:56:35Z</time></trkpt><trkpt lat="48.629503265032184" lon="3.220672262608021"><ele>165.0</ele><time>2026-05-01T14:56:36Z</time></trkpt><trkpt lat="48.62933185637932" lon="3.2208165817891166"><ele>164.33333333333334</ele><time>2026-05-01T14:56:37Z</time></trkpt><trkpt lat="48.62916635913314" lon="3.220951575013884"><ele>163.66666666666669</ele><time>2026-05-01T14:56:38Z</time></trkpt><trkpt lat="48.62899781803394" lon="3.2210994257379024"><ele>163.0</ele><time>2026-05-01T14:56:39Z</time></trkpt><trkpt lat="48.62882335828149" lon="3.221242903554561"><ele>163.0</ele><time>2026-05-01T14:56:40Z</time></trkpt><trkpt lat="48.62864999039622" lon="3.2213985036813657"><ele>163.0</ele><time>2026-05-01T14:56:41Z</time></trkpt><trkpt lat="48.62846629370483" lon="3.2215551102066033"><ele>163.0</ele><time>2026-05-01T14:56:42Z</time></trkpt><trkpt lat="48.62828216772201" lon="3.2216988280936523"><ele>162.66666666666669</ele><time>2026-05-01T14:56:43Z</time></trkpt><trkpt lat="48.62809937598404" lon="3.221853982678732"><ele>162.33333333333334</ele><time>2026-05-01T14:56:44Z</time></trkpt><trkpt lat="48.62791472557161" lon="3.2220137285541384"><ele>162.0</ele><time>2026-05-01T14:56:45Z</time></trkpt><trkpt lat="48.62772596075988" lon="3.2221699674405624"><ele>161.66666666666666</ele><time>2026-05-01T14:56:46Z</time></trkpt><trkpt lat="48.62752929493604" lon="3.222318288312989"><ele>161.33333333333331</ele><time>2026-05-01T14:56:47Z</time></trkpt><trkpt lat="48.62733457691487" lon="3.222464881125258"><ele>161.0</ele><time>2026-05-01T14:56:48Z</time></trkpt><trkpt lat="48.62714215997166" lon="3.22262639687053"><ele>160.0</ele><time>2026-05-01T14:56:49Z</time></trkpt><trkpt lat="48.62695013211457" lon="3.2227930514016343"><ele>159.0</ele><time>2026-05-01T14:56:50Z</time></trkpt><trkpt lat="48.62676422486847" lon="3.2229538532148085"><ele>158.0</ele><time>2026-05-01T14:56:51Z</time></trkpt><trkpt lat="48.62661027014619" lon="3.2231085416130174"><ele>158.0</ele><time>2026-05-01T14:56:52Z</time></trkpt><trkpt lat="48.62647857951542" lon="3.2232485752007283"><ele>158.0</ele><time>2026-05-01T14:56:53Z</time></trkpt><trkpt lat="48.62634883121264" lon="3.223378180628175"><ele>158.0</ele><time>2026-05-01T14:56:54Z</time></trkpt><trkpt lat="48.62623261602742" lon="3.223496088519644"><ele>158.25</ele><time>2026-05-01T14:56:55Z</time></trkpt><trkpt lat="48.62612692388199" lon="3.22360321343369"><ele>158.5</ele><time>2026-05-01T14:56:56Z</time></trkpt><trkpt lat="48.626025714729124" lon="3.2237104011701203"><ele>158.75</ele><time>2026-05-01T14:56:57Z</time></trkpt><trkpt lat="48.62592012396679" lon="3.2238127385109374"><ele>159.0</ele><time>2026-05-01T14:56:58Z</time></trkpt><trkpt lat="48.62583208452034" lon="3.2239097515901087"><ele>159.4</ele><time>2026-05-01T14:56:59Z</time></trkpt><trkpt lat="48.62576130140525" lon="3.22399563680177"><ele>159.8</ele><time>2026-05-01T14:57:00Z</time></trkpt><trkpt lat="48.625682139194744" lon="3.224077489668005"><ele>160.20000000000002</ele><time>2026-05-01T14:57:02Z</time></trkpt><trkpt lat="48.62566798417953" lon="3.224186989761357"><ele>160.60000000000002</ele><time>2026-05-01T14:57:34Z</time></trkpt><trkpt lat="48.625705643500545" lon="3.2243408727012124"><ele>161.0</ele><time>2026-05-01T14:57:35Z</time></trkpt><trkpt lat="48.625758495792645" lon="3.2245030980527654"><ele>161.0</ele><time>2026-05-01T14:57:36Z</time></trkpt><trkpt lat="48.6257977030514" lon="3.2246245475741326"><ele>161.0</ele><time>2026-05-01T14:57:37Z</time></trkpt><trkpt lat="48.62582280108912" lon="3.2247242020271596"><ele>161.0</ele><time>2026-05-01T14:57:38Z</time></trkpt><trkpt lat="48.62583122468677" lon="3.224824866345793"><ele>161.0</ele><time>2026-05-01T14:57:39Z</time></trkpt><trkpt lat="48.62568904825045" lon="3.224977120597303"><ele>161.0</ele><time>2026-05-01T14:57:41Z</time></trkpt><trkpt lat="48.62557850593021" lon="3.2250752331889525"><ele>161.0</ele><time>2026-05-01T14:57:42Z</time></trkpt><trkpt lat="48.62546290272261" lon="3.2251856957773"><ele>161.0</ele><time>2026-05-01T14:57:43Z</time></trkpt><trkpt lat="48.62533683726364" lon="3.225312681332126"><ele>161.0</ele><time>2026-05-01T14:57:44Z</time></trkpt><trkpt lat="48.625203407371046" lon="3.22544629928537"><ele>161.0</ele><time>2026-05-01T14:57:45Z</time></trkpt><trkpt lat="48.625067623387736" lon="3.2255775845348458"><ele>160.75</ele><time>2026-05-01T14:57:46Z</time></trkpt><trkpt lat="48.6249457621635" lon="3.2256887612194416"><ele>160.5</ele><time>2026-05-01T14:57:47Z</time></trkpt><trkpt lat="48.62484235504402" lon="3.2257955206467264"><ele>160.25</ele><time>2026-05-01T14:57:48Z</time></trkpt><trkpt lat="48.624746469556186" lon="3.2258933355485135"><ele>160.0</ele><time>2026-05-01T14:57:49Z</time></trkpt><trkpt lat="48.624662209219984" lon="3.2259670686739006"><ele>160.0</ele><time>2026-05-01T14:57:50Z</time></trkpt><trkpt lat="48.624587893875734" lon="3.226040991391521"><ele>160.0</ele><time>2026-05-01T14:57:51Z</time></trkpt><trkpt lat="48.62452485098576" lon="3.2261086845858524"><ele>160.0</ele><time>2026-05-01T14:57:52Z</time></trkpt><trkpt lat="48.6244664978523" lon="3.2261680926269793"><ele>160.0</ele><time>2026-05-01T14:57:53Z</time></trkpt><trkpt lat="48.62439212218491" lon="3.2262351192842513"><ele>160.0</ele><time>2026-05-01T14:57:54Z</time></trkpt><trkpt lat="48.624296638751105" lon="3.2263304669520205"><ele>160.0</ele><time>2026-05-01T14:57:55Z</time></trkpt><trkpt lat="48.624185374926" lon="3.226436013663863"><ele>159.0</ele><time>2026-05-01T14:57:56Z</time></trkpt><trkpt lat="48.624063859365044" lon="3.226559186550498"><ele>158.0</ele><time>2026-05-01T14:57:57Z</time></trkpt><trkpt lat="48.62393140784567" lon="3.2266913123156087"><ele>157.0</ele><time>2026-05-01T14:57:58Z</time></trkpt><trkpt lat="48.623785428939684" lon="3.226830660380851"><ele>156.66666666666669</ele><time>2026-05-01T14:57:59Z</time></trkpt><trkpt lat="48.623641130924874" lon="3.2269760507942924"><ele>156.33333333333334</ele><time>2026-05-01T14:58:00Z</time></trkpt><trkpt lat="48.623486550369805" lon="3.2271260359027893"><ele>156.0</ele><time>2026-05-01T14:58:01Z</time></trkpt><trkpt lat="48.62332309290375" lon="3.2272894747325873"><ele>155.0</ele><time>2026-05-01T14:58:02Z</time></trkpt><trkpt lat="48.6231551027152" lon="3.2274530995557944"><ele>154.0</ele><time>2026-05-01T14:58:03Z</time></trkpt><trkpt lat="48.6229918065867" lon="3.227611852998945"><ele>153.0</ele><time>2026-05-01T14:58:04Z</time></trkpt><trkpt lat="48.62282504986729" lon="3.2277758982181486"><ele>152.66666666666666</ele><time>2026-05-01T14:58:05Z</time></trkpt><trkpt lat="48.62265704634782" lon="3.22793378870762"><ele>152.33333333333331</ele><time>2026-05-01T14:58:06Z</time></trkpt><trkpt lat="48.62249124686438" lon="3.228098475771341"><ele>152.0</ele><time>2026-05-01T14:58:07Z</time></trkpt><trkpt lat="48.62232499709806" lon="3.228270240361596"><ele>151.33333333333331</ele><time>2026-05-01T14:58:08Z</time></trkpt><trkpt lat="48.62217750291247" lon="3.2284172661632624"><ele>150.66666666666666</ele><time>2026-05-01T14:58:09Z</time></trkpt><trkpt lat="48.622050465073016" lon="3.2285499560271838"><ele>150.0</ele><time>2026-05-01T14:58:10Z</time></trkpt><trkpt lat="48.62192941861032" lon="3.228678356904913"><ele>149.75</ele><time>2026-05-01T14:58:11Z</time></trkpt><trkpt lat="48.62181678022197" lon="3.228808848464358"><ele>149.5</ele><time>2026-05-01T14:58:12Z</time></trkpt><trkpt lat="48.62171645604633" lon="3.2289117964427465"><ele>149.25</ele><time>2026-05-01T14:58:13Z</time></trkpt><trkpt lat="48.62160943388756" lon="3.229009455971118"><ele>149.0</ele><time>2026-05-01T14:58:14Z</time></trkpt><trkpt lat="48.621502862225604" lon="3.2291046619661263"><ele>149.0</ele><time>2026-05-01T14:58:15Z</time></trkpt><trkpt lat="48.621417909434086" lon="3.229188801398367"><ele>149.0</ele><time>2026-05-01T14:58:16Z</time></trkpt><trkpt lat="48.62134538665974" lon="3.22925302842559"><ele>149.0</ele><time>2026-05-01T14:58:17Z</time></trkpt><trkpt lat="48.6212816838082" lon="3.229310320001062"><ele>149.0</ele><time>2026-05-01T14:58:18Z</time></trkpt><trkpt lat="48.621225836554835" lon="3.2294071681481156"><ele>149.0</ele><time>2026-05-01T14:58:43Z</time></trkpt><trkpt lat="48.62123304159528" lon="3.229523384178203"><ele>149.0</ele><time>2026-05-01T14:58:44Z</time></trkpt><trkpt lat="48.62130173892464" lon="3.2296752063006635"><ele>148.75</ele><time>2026-05-01T14:58:45Z</time></trkpt><trkpt lat="48.62133768274696" lon="3.229810315115563"><ele>148.5</ele><time>2026-05-01T14:58:46Z</time></trkpt><trkpt lat="48.62137503772639" lon="3.2300127953367794"><ele>148.25</ele><time>2026-05-01T14:58:47Z</time></trkpt><trkpt lat="48.62142258367096" lon="3.230230517065001"><ele>148.0</ele><time>2026-05-01T14:58:48Z</time></trkpt><trkpt lat="48.621474942646685" lon="3.230453729815859"><ele>148.33333333333334</ele><time>2026-05-01T14:58:49Z</time></trkpt><trkpt lat="48.62153253481696" lon="3.230685624476805"><ele>148.66666666666666</ele><time>2026-05-01T14:58:50Z</time></trkpt><trkpt lat="48.62159071697944" lon="3.230928323705687"><ele>149.0</ele><time>2026-05-01T14:58:51Z</time></trkpt><trkpt lat="48.62164098351521" lon="3.2311818910242724"><ele>149.0</ele><time>2026-05-01T14:58:52Z</time></trkpt><trkpt lat="48.621685883996825" lon="3.2314407294638117"><ele>149.0</ele><time>2026-05-01T14:58:53Z</time></trkpt><trkpt lat="48.62173727008911" lon="3.231696877055455"><ele>149.0</ele><time>2026-05-01T14:58:54Z</time></trkpt><trkpt lat="48.62179358640659" lon="3.2319584063366498"><ele>149.66666666666666</ele><time>2026-05-01T14:58:55Z</time></trkpt><trkpt lat="48.621849225143265" lon="3.23221683458279"><ele>150.33333333333334</ele><time>2026-05-01T14:58:56Z</time></trkpt><trkpt lat="48.621911395775285" lon="3.232476435633268"><ele>151.0</ele><time>2026-05-01T14:58:57Z</time></trkpt><trkpt lat="48.62197029165688" lon="3.2327366111945826"><ele>151.66666666666669</ele><time>2026-05-01T14:58:58Z</time></trkpt><trkpt lat="48.62202170819505" lon="3.2330090021331195"><ele>152.33333333333334</ele><time>2026-05-01T14:58:59Z</time></trkpt><trkpt lat="48.622077764391264" lon="3.2332766835535804"><ele>153.0</ele><time>2026-05-01T14:59:00Z</time></trkpt><trkpt lat="48.62214088351925" lon="3.2335415180575815"><ele>153.33333333333334</ele><time>2026-05-01T14:59:01Z</time></trkpt><trkpt lat="48.622193323504995" lon="3.2338113489557867"><ele>153.66666666666669</ele><time>2026-05-01T14:59:02Z</time></trkpt><trkpt lat="48.62225780589653" lon="3.23408226134782"><ele>154.0</ele><time>2026-05-01T14:59:03Z</time></trkpt><trkpt lat="48.62231837673122" lon="3.2343512587832284"><ele>154.0</ele><time>2026-05-01T14:59:04Z</time></trkpt><trkpt lat="48.622380359618404" lon="3.2346212205537936"><ele>154.0</ele><time>2026-05-01T14:59:05Z</time></trkpt><trkpt lat="48.6224379675433" lon="3.234893738490835"><ele>154.0</ele><time>2026-05-01T14:59:06Z</time></trkpt><trkpt lat="48.62248927868928" lon="3.2351681985970306"><ele>153.75</ele><time>2026-05-01T14:59:07Z</time></trkpt><trkpt lat="48.62254441538575" lon="3.2354147019952637"><ele>153.5</ele><time>2026-05-01T14:59:08Z</time></trkpt><trkpt lat="48.622590032310164" lon="3.2355951548913717"><ele>153.25</ele><time>2026-05-01T14:59:09Z</time></trkpt><trkpt lat="48.62262472335901" lon="3.2357686553301717"><ele>153.0</ele><time>2026-05-01T14:59:10Z</time></trkpt><trkpt lat="48.622654855067964" lon="3.235920340990448"><ele>152.75</ele><time>2026-05-01T14:59:11Z</time></trkpt><trkpt lat="48.622694505226335" lon="3.2360814891955685"><ele>152.5</ele><time>2026-05-01T14:59:12Z</time></trkpt><trkpt lat="48.62272877485221" lon="3.236252791372443"><ele>152.25</ele><time>2026-05-01T14:59:13Z</time></trkpt><trkpt lat="48.62276995547029" lon="3.2364332813213723"><ele>152.0</ele><time>2026-05-01T14:59:14Z</time></trkpt><trkpt lat="48.622801028524265" lon="3.2365801473070768"><ele>152.0</ele><time>2026-05-01T14:59:15Z</time></trkpt><trkpt lat="48.62282283470666" lon="3.2366929509690316"><ele>152.0</ele><time>2026-05-01T14:59:16Z</time></trkpt><trkpt lat="48.62285121912834" lon="3.236839091987075"><ele>152.0</ele><time>2026-05-01T14:59:18Z</time></trkpt><trkpt lat="48.622778049969504" lon="3.236958827099918"><ele>152.0</ele><time>2026-05-01T14:59:22Z</time></trkpt><trkpt lat="48.62267865374374" lon="3.2369932683006604"><ele>152.0</ele><time>2026-05-01T14:59:23Z</time></trkpt><trkpt lat="48.62257366493679" lon="3.2370598324272093"><ele>152.0</ele><time>2026-05-01T14:59:24Z</time></trkpt><trkpt lat="48.62245457872043" lon="3.23714064819775"><ele>152.0</ele><time>2026-05-01T14:59:25Z</time></trkpt><trkpt lat="48.622327648281775" lon="3.2372201659888074"><ele>152.0</ele><time>2026-05-01T14:59:26Z</time></trkpt><trkpt lat="48.622195269517576" lon="3.237306182337394"><ele>152.0</ele><time>2026-05-01T14:59:27Z</time></trkpt><trkpt lat="48.62204968005805" lon="3.237409224410859"><ele>151.33333333333331</ele><time>2026-05-01T14:59:28Z</time></trkpt><trkpt lat="48.62189786430411" lon="3.2375058972411614"><ele>150.66666666666666</ele><time>2026-05-01T14:59:29Z</time></trkpt><trkpt lat="48.621731731526424" lon="3.23760401222341"><ele>150.0</ele><time>2026-05-01T14:59:30Z</time></trkpt><trkpt lat="48.621565669133055" lon="3.2377033332224605"><ele>150.0</ele><time>2026-05-01T14:59:31Z</time></trkpt><trkpt lat="48.621401054358316" lon="3.237815854335472"><ele>150.0</ele><time>2026-05-01T14:59:32Z</time></trkpt><trkpt lat="48.62122651669954" lon="3.2379345482598683"><ele>150.0</ele><time>2026-05-01T14:59:33Z</time></trkpt><trkpt lat="48.62105021198511" lon="3.2380481950198687"><ele>150.0</ele><time>2026-05-01T14:59:34Z</time></trkpt><trkpt lat="48.62087288154328" lon="3.238165606023384"><ele>150.0</ele><time>2026-05-01T14:59:35Z</time></trkpt><trkpt lat="48.620697954046186" lon="3.23827858392305"><ele>150.0</ele><time>2026-05-01T14:59:36Z</time></trkpt><trkpt lat="48.62052254721652" lon="3.2383780150444923"><ele>150.0</ele><time>2026-05-01T14:59:37Z</time></trkpt><trkpt lat="48.62034687447679" lon="3.238478580577344"><ele>150.0</ele><time>2026-05-01T14:59:38Z</time></trkpt><trkpt lat="48.6201630774419" lon="3.2385559653860487"><ele>150.0</ele><time>2026-05-01T14:59:39Z</time></trkpt><trkpt lat="48.61996998985831" lon="3.2386020998165117"><ele>150.0</ele><time>2026-05-01T14:59:40Z</time></trkpt><trkpt lat="48.61977657720371" lon="3.238630510764206"><ele>150.0</ele><time>2026-05-01T14:59:41Z</time></trkpt><trkpt lat="48.61958218725627" lon="3.238667888776439"><ele>150.0</ele><time>2026-05-01T14:59:42Z</time></trkpt><trkpt lat="48.61938743635235" lon="3.2387145346971233"><ele>149.66666666666666</ele><time>2026-05-01T14:59:43Z</time></trkpt><trkpt lat="48.619198035801936" lon="3.238774004289293"><ele>149.33333333333331</ele><time>2026-05-01T14:59:44Z</time></trkpt><trkpt lat="48.61900681931681" lon="3.2388334711113256"><ele>149.0</ele><time>2026-05-01T14:59:45Z</time></trkpt><trkpt lat="48.618832696271355" lon="3.238892685392525"><ele>149.0</ele><time>2026-05-01T14:59:46Z</time></trkpt><trkpt lat="48.6186569367264" lon="3.2389583166800295"><ele>149.0</ele><time>2026-05-01T14:59:47Z</time></trkpt><trkpt lat="48.61847932944646" lon="3.2389903241673257"><ele>149.0</ele><time>2026-05-01T14:59:48Z</time></trkpt><trkpt lat="48.61830367301051" lon="3.239028602174035"><ele>149.0</ele><time>2026-05-01T14:59:49Z</time></trkpt><trkpt lat="48.61812755819117" lon="3.2390745880807734"><ele>149.0</ele><time>2026-05-01T14:59:50Z</time></trkpt><trkpt lat="48.617955977723405" lon="3.2391105216767597"><ele>149.0</ele><time>2026-05-01T14:59:51Z</time></trkpt><trkpt lat="48.617786334762584" lon="3.2391446243341675"><ele>149.0</ele><time>2026-05-01T14:59:52Z</time></trkpt><trkpt lat="48.617603734587526" lon="3.239174736350802"><ele>149.0</ele><time>2026-05-01T14:59:53Z</time></trkpt><trkpt lat="48.61742340593054" lon="3.239194629887261"><ele>149.0</ele><time>2026-05-01T14:59:54Z</time></trkpt><trkpt lat="48.6172451614067" lon="3.2392307787050987"><ele>149.0</ele><time>2026-05-01T14:59:55Z</time></trkpt><trkpt lat="48.61706691240547" lon="3.239265624468231"><ele>149.0</ele><time>2026-05-01T14:59:56Z</time></trkpt><trkpt lat="48.616884400018314" lon="3.2393003316660494"><ele>149.0</ele><time>2026-05-01T14:59:57Z</time></trkpt><trkpt lat="48.61669944072918" lon="3.2393382608433137"><ele>148.66666666666666</ele><time>2026-05-01T14:59:58Z</time></trkpt><trkpt lat="48.616513214220106" lon="3.2393735903747314"><ele>148.33333333333334</ele><time>2026-05-01T14:59:59Z</time></trkpt><trkpt lat="48.6163294448829" lon="3.2394061901737894"><ele>148.0</ele><time>2026-05-01T15:00:00Z</time></trkpt><trkpt lat="48.61614442927938" lon="3.2394559856574006"><ele>148.0</ele><time>2026-05-01T15:00:01Z</time></trkpt><trkpt lat="48.61595648200382" lon="3.2395056599683234"><ele>148.0</ele><time>2026-05-01T15:00:02Z</time></trkpt><trkpt lat="48.61576209717493" lon="3.239563374720503"><ele>148.0</ele><time>2026-05-01T15:00:03Z</time></trkpt><trkpt lat="48.61557302479318" lon="3.2396194171433996"><ele>148.0</ele><time>2026-05-01T15:00:04Z</time></trkpt><trkpt lat="48.61537706535439" lon="3.239662971194434"><ele>148.0</ele><time>2026-05-01T15:00:05Z</time></trkpt><trkpt lat="48.61517249342228" lon="3.239702192087391"><ele>148.0</ele><time>2026-05-01T15:00:06Z</time></trkpt><trkpt lat="48.6149755924484" lon="3.239751296623925"><ele>147.33333333333334</ele><time>2026-05-01T15:00:07Z</time></trkpt><trkpt lat="48.61478322477943" lon="3.239815530869746"><ele>146.66666666666666</ele><time>2026-05-01T15:00:08Z</time></trkpt><trkpt lat="48.61458672106225" lon="3.239881701738546"><ele>146.0</ele><time>2026-05-01T15:00:09Z</time></trkpt><trkpt lat="48.614388815241746" lon="3.239945236586873"><ele>146.0</ele><time>2026-05-01T15:00:10Z</time></trkpt><trkpt lat="48.61419097057159" lon="3.2400064646903237"><ele>146.0</ele><time>2026-05-01T15:00:11Z</time></trkpt><trkpt lat="48.6139923105368" lon="3.24007174690424"><ele>146.0</ele><time>2026-05-01T15:00:12Z</time></trkpt><trkpt lat="48.6137947268707" lon="3.2401372467504532"><ele>146.0</ele><time>2026-05-01T15:00:13Z</time></trkpt><trkpt lat="48.61361888932652" lon="3.240203229039963"><ele>146.0</ele><time>2026-05-01T15:00:14Z</time></trkpt><trkpt lat="48.61347306357008" lon="3.2402627028565285"><ele>146.0</ele><time>2026-05-01T15:00:15Z</time></trkpt><trkpt lat="48.6133433460327" lon="3.2403257880425107"><ele>146.0</ele><time>2026-05-01T15:00:16Z</time></trkpt><trkpt lat="48.61322076911379" lon="3.2403770963573515"><ele>146.0</ele><time>2026-05-01T15:00:17Z</time></trkpt><trkpt lat="48.6131102415671" lon="3.240416048393706"><ele>146.0</ele><time>2026-05-01T15:00:18Z</time></trkpt><trkpt lat="48.612999966045805" lon="3.2404606175095316"><ele>146.0</ele><time>2026-05-01T15:00:19Z</time></trkpt><trkpt lat="48.61287816731729" lon="3.2405082406025727"><ele>146.0</ele><time>2026-05-01T15:00:20Z</time></trkpt><trkpt lat="48.61275357001088" lon="3.240556504160183"><ele>146.0</ele><time>2026-05-01T15:00:21Z</time></trkpt><trkpt lat="48.612626050389956" lon="3.24061754647033"><ele>146.0</ele><time>2026-05-01T15:00:22Z</time></trkpt><trkpt lat="48.612501048544694" lon="3.240684021064923"><ele>146.0</ele><time>2026-05-01T15:00:23Z</time></trkpt><trkpt lat="48.61238994806536" lon="3.240741900427209"><ele>146.0</ele><time>2026-05-01T15:00:24Z</time></trkpt><trkpt lat="48.61231003000021" lon="3.2407861457456337"><ele>146.0</ele><time>2026-05-01T15:00:25Z</time></trkpt><trkpt lat="48.6122468872988" lon="3.240829616188782"><ele>146.0</ele><time>2026-05-01T15:00:27Z</time></trkpt><trkpt lat="48.61212102422048" lon="3.2408971428313413"><ele>146.0</ele><time>2026-05-01T15:00:48Z</time></trkpt><trkpt lat="48.6120116672155" lon="3.2409147690546987"><ele>146.0</ele><time>2026-05-01T15:00:49Z</time></trkpt><trkpt lat="48.611878942109534" lon="3.240945867022881"><ele>145.75</ele><time>2026-05-01T15:00:50Z</time></trkpt><trkpt lat="48.61173827867822" lon="3.2409673458669515"><ele>145.5</ele><time>2026-05-01T15:00:51Z</time></trkpt><trkpt lat="48.61158758355892" lon="3.2409917212493675"><ele>145.25</ele><time>2026-05-01T15:00:52Z</time></trkpt><trkpt lat="48.611434576149925" lon="3.2410198943806323"><ele>145.0</ele><time>2026-05-01T15:00:53Z</time></trkpt><trkpt lat="48.611277586132964" lon="3.241052523310235"><ele>144.66666666666669</ele><time>2026-05-01T15:00:54Z</time></trkpt><trkpt lat="48.61112085427992" lon="3.2410748532850318"><ele>144.33333333333334</ele><time>2026-05-01T15:00:55Z</time></trkpt><trkpt lat="48.61096549827387" lon="3.241099937129782"><ele>144.0</ele><time>2026-05-01T15:00:56Z</time></trkpt><trkpt lat="48.6108041215519" lon="3.2411226319735715"><ele>144.0</ele><time>2026-05-01T15:00:57Z</time></trkpt><trkpt lat="48.61063362479935" lon="3.2411324180487977"><ele>144.0</ele><time>2026-05-01T15:00:58Z</time></trkpt><trkpt lat="48.61046413772047" lon="3.2411624886935755"><ele>144.0</ele><time>2026-05-01T15:00:59Z</time></trkpt><trkpt lat="48.61029731314434" lon="3.2411847901638993"><ele>143.66666666666666</ele><time>2026-05-01T15:01:00Z</time></trkpt><trkpt lat="48.610127828506805" lon="3.241213819428853"><ele>143.33333333333331</ele><time>2026-05-01T15:01:01Z</time></trkpt><trkpt lat="48.6099544209401" lon="3.2412310970953593"><ele>143.0</ele><time>2026-05-01T15:01:02Z</time></trkpt><trkpt lat="48.60978195011965" lon="3.241259383044193"><ele>143.0</ele><time>2026-05-01T15:01:03Z</time></trkpt><trkpt lat="48.60960835273749" lon="3.2412826260735397"><ele>143.0</ele><time>2026-05-01T15:01:04Z</time></trkpt><trkpt lat="48.60943607853619" lon="3.2413024205566803"><ele>143.0</ele><time>2026-05-01T15:01:05Z</time></trkpt><trkpt lat="48.609269468037304" lon="3.2413350612582867"><ele>143.66666666666666</ele><time>2026-05-01T15:01:06Z</time></trkpt><trkpt lat="48.609080805301645" lon="3.2413600211992195"><ele>144.33333333333334</ele><time>2026-05-01T15:01:07Z</time></trkpt><trkpt lat="48.60891380461752" lon="3.2413884745920574"><ele>145.0</ele><time>2026-05-01T15:01:08Z</time></trkpt><trkpt lat="48.6087350970521" lon="3.24142112398237"><ele>145.0</ele><time>2026-05-01T15:01:09Z</time></trkpt><trkpt lat="48.60855719019873" lon="3.241451706061104"><ele>145.0</ele><time>2026-05-01T15:01:10Z</time></trkpt><trkpt lat="48.6083748914521" lon="3.2414840520070447"><ele>145.0</ele><time>2026-05-01T15:01:11Z</time></trkpt><trkpt lat="48.608197126357624" lon="3.241503298661944"><ele>144.66666666666669</ele><time>2026-05-01T15:01:12Z</time></trkpt><trkpt lat="48.60802134120933" lon="3.2415305067920896"><ele>144.33333333333334</ele><time>2026-05-01T15:01:13Z</time></trkpt><trkpt lat="48.60783664863188" lon="3.2415477702343"><ele>144.0</ele><time>2026-05-01T15:01:14Z</time></trkpt><trkpt lat="48.60765664677512" lon="3.2415732009881837"><ele>144.0</ele><time>2026-05-01T15:01:15Z</time></trkpt><trkpt lat="48.607484863592425" lon="3.2415949874352497"><ele>144.0</ele><time>2026-05-01T15:01:16Z</time></trkpt><trkpt lat="48.60730275502959" lon="3.24160786681828"><ele>144.0</ele><time>2026-05-01T15:01:17Z</time></trkpt><trkpt lat="48.60711696130015" lon="3.2416276246295648"><ele>143.33333333333334</ele><time>2026-05-01T15:01:18Z</time></trkpt><trkpt lat="48.60692634290147" lon="3.241656318592962"><ele>142.66666666666669</ele><time>2026-05-01T15:01:19Z</time></trkpt><trkpt lat="48.606732256387154" lon="3.2416880944210202"><ele>142.0</ele><time>2026-05-01T15:01:20Z</time></trkpt><trkpt lat="48.606542220410816" lon="3.2417184766852"><ele>142.0</ele><time>2026-05-01T15:01:21Z</time></trkpt><trkpt lat="48.60638327971023" lon="3.241739238559503"><ele>142.0</ele><time>2026-05-01T15:01:22Z</time></trkpt><trkpt lat="48.60625122308152" lon="3.2417630381244185"><ele>142.0</ele><time>2026-05-01T15:01:23Z</time></trkpt><trkpt lat="48.60613712798912" lon="3.241783252820642"><ele>142.0</ele><time>2026-05-01T15:01:24Z</time></trkpt><trkpt lat="48.60604163156699" lon="3.2417923882995994"><ele>141.83333333333334</ele><time>2026-05-01T15:01:25Z</time></trkpt><trkpt lat="48.60595943041539" lon="3.24178921976606"><ele>141.66666666666669</ele><time>2026-05-01T15:01:26Z</time></trkpt><trkpt lat="48.60589361171179" lon="3.2417919785752547"><ele>141.5</ele><time>2026-05-01T15:01:27Z</time></trkpt><trkpt lat="48.605829325699666" lon="3.2418445260759445"><ele>141.33333333333334</ele><time>2026-05-01T15:01:29Z</time></trkpt><trkpt lat="48.60585123951336" lon="3.241941827902592"><ele>141.16666666666666</ele><time>2026-05-01T15:01:30Z</time></trkpt><trkpt lat="48.60588946441962" lon="3.2420774269980304"><ele>141.0</ele><time>2026-05-01T15:01:31Z</time></trkpt><trkpt lat="48.60592461148374" lon="3.242257553235895"><ele>140.75</ele><time>2026-05-01T15:01:32Z</time></trkpt><trkpt lat="48.60595745264099" lon="3.2424614094278628"><ele>140.5</ele><time>2026-05-01T15:01:33Z</time></trkpt><trkpt lat="48.6059912971102" lon="3.2426846647291705"><ele>140.25</ele><time>2026-05-01T15:01:34Z</time></trkpt><trkpt lat="48.60602840416532" lon="3.242916019443824"><ele>140.0</ele><time>2026-05-01T15:01:35Z</time></trkpt><trkpt lat="48.60607050672903" lon="3.2431708804989867"><ele>139.66666666666666</ele><time>2026-05-01T15:01:36Z</time></trkpt><trkpt lat="48.606110494380054" lon="3.2434336290353283"><ele>139.33333333333334</ele><time>2026-05-01T15:01:37Z</time></trkpt><trkpt lat="48.606148157902346" lon="3.2437075354073173"><ele>139.0</ele><time>2026-05-01T15:01:38Z</time></trkpt><trkpt lat="48.60619050473872" lon="3.24400564552804"><ele>139.66666666666669</ele><time>2026-05-01T15:01:39Z</time></trkpt><trkpt lat="48.60623501590549" lon="3.244284722557809"><ele>140.33333333333334</ele><time>2026-05-01T15:01:40Z</time></trkpt><trkpt lat="48.6062797757592" lon="3.244566954291619"><ele>141.0</ele><time>2026-05-01T15:01:41Z</time></trkpt><trkpt lat="48.606322999892434" lon="3.244846653427562"><ele>141.0</ele><time>2026-05-01T15:01:42Z</time></trkpt><trkpt lat="48.60636886625685" lon="3.2451354312952447"><ele>141.0</ele><time>2026-05-01T15:01:43Z</time></trkpt><trkpt lat="48.60641921376112" lon="3.2454296100106106"><ele>141.0</ele><time>2026-05-01T15:01:44Z</time></trkpt><trkpt lat="48.60646596932156" lon="3.2457307486302076"><ele>140.66666666666666</ele><time>2026-05-01T15:01:45Z</time></trkpt><trkpt lat="48.60651225043792" lon="3.246037361519867"><ele>140.33333333333331</ele><time>2026-05-01T15:01:46Z</time></trkpt><trkpt lat="48.60656327881974" lon="3.2463445733428737"><ele>140.0</ele><time>2026-05-01T15:01:47Z</time></trkpt><trkpt lat="48.60661081770606" lon="3.246654900294265"><ele>139.66666666666666</ele><time>2026-05-01T15:01:48Z</time></trkpt><trkpt lat="48.606655843203015" lon="3.2469701672635067"><ele>139.33333333333334</ele><time>2026-05-01T15:01:49Z</time></trkpt><trkpt lat="48.60670037961834" lon="3.247290795082325"><ele>139.0</ele><time>2026-05-01T15:01:50Z</time></trkpt><trkpt lat="48.60674245562304" lon="3.2475948783669577"><ele>138.66666666666669</ele><time>2026-05-01T15:01:51Z</time></trkpt><trkpt lat="48.606784374929454" lon="3.2478485364368774"><ele>138.33333333333334</ele><time>2026-05-01T15:01:52Z</time></trkpt><trkpt lat="48.60682134678293" lon="3.2480747765300775"><ele>138.0</ele><time>2026-05-01T15:01:53Z</time></trkpt><trkpt lat="48.60685342178201" lon="3.248274354575123"><ele>138.5</ele><time>2026-05-01T15:01:54Z</time></trkpt><trkpt lat="48.60688125956512" lon="3.2484537091253665"><ele>139.0</ele><time>2026-05-01T15:01:55Z</time></trkpt><trkpt lat="48.606908851019256" lon="3.2486469963447804"><ele>139.5</ele><time>2026-05-01T15:01:56Z</time></trkpt><trkpt lat="48.606942230534436" lon="3.2488657809296178"><ele>140.0</ele><time>2026-05-01T15:01:57Z</time></trkpt><trkpt lat="48.606984883550126" lon="3.249100690684917"><ele>140.33333333333331</ele><time>2026-05-01T15:01:58Z</time></trkpt><trkpt lat="48.6070241686121" lon="3.249351412644603"><ele>140.66666666666666</ele><time>2026-05-01T15:01:59Z</time></trkpt><trkpt lat="48.60706353232268" lon="3.2496099264192146"><ele>141.0</ele><time>2026-05-01T15:02:00Z</time></trkpt><trkpt lat="48.60710968053157" lon="3.249878951520003"><ele>141.0</ele><time>2026-05-01T15:02:01Z</time></trkpt><trkpt lat="48.607159741704734" lon="3.25015925904093"><ele>141.0</ele><time>2026-05-01T15:02:02Z</time></trkpt><trkpt lat="48.60720259653943" lon="3.250449230632122"><ele>141.0</ele><time>2026-05-01T15:02:03Z</time></trkpt><trkpt lat="48.6072451678657" lon="3.250746130368883"><ele>140.66666666666666</ele><time>2026-05-01T15:02:04Z</time></trkpt><trkpt lat="48.60729019935994" lon="3.25104899874923"><ele>140.33333333333331</ele><time>2026-05-01T15:02:05Z</time></trkpt><trkpt lat="48.607336316137605" lon="3.2513570590968515"><ele>140.0</ele><time>2026-05-01T15:02:06Z</time></trkpt><trkpt lat="48.607389153955175" lon="3.25166390295327"><ele>139.66666666666666</ele><time>2026-05-01T15:02:07Z</time></trkpt><trkpt lat="48.60743837782575" lon="3.251982496050005"><ele>139.33333333333334</ele><time>2026-05-01T15:02:08Z</time></trkpt><trkpt lat="48.60748765814574" lon="3.2523023586421127"><ele>139.0</ele><time>2026-05-01T15:02:09Z</time></trkpt><trkpt lat="48.6075391887583" lon="3.2526282145413328"><ele>138.66666666666669</ele><time>2026-05-01T15:02:10Z</time></trkpt><trkpt lat="48.6075860098123" lon="3.2529573026095506"><ele>138.33333333333334</ele><time>2026-05-01T15:02:11Z</time></trkpt><trkpt lat="48.60763201475205" lon="3.25329233795646"><ele>138.0</ele><time>2026-05-01T15:02:12Z</time></trkpt><trkpt lat="48.60768928514511" lon="3.2536243940247624"><ele>137.33333333333334</ele><time>2026-05-01T15:02:13Z</time></trkpt><trkpt lat="48.60774059950688" lon="3.2539499084066006"><ele>136.66666666666669</ele><time>2026-05-01T15:02:14Z</time></trkpt><trkpt lat="48.60778247963957" lon="3.2542399786122154"><ele>136.0</ele><time>2026-05-01T15:02:15Z</time></trkpt><trkpt lat="48.607821823681526" lon="3.2545032645903107"><ele>136.0</ele><time>2026-05-01T15:02:16Z</time></trkpt><trkpt lat="48.60785782598866" lon="3.254741637141636"><ele>136.0</ele><time>2026-05-01T15:02:17Z</time></trkpt><trkpt lat="48.60789201819768" lon="3.2549605409460822"><ele>136.0</ele><time>2026-05-01T15:02:18Z</time></trkpt><trkpt lat="48.60793147243264" lon="3.255169706625544"><ele>135.33333333333334</ele><time>2026-05-01T15:02:19Z</time></trkpt><trkpt lat="48.60796105703937" lon="3.2553904818376993"><ele>134.66666666666666</ele><time>2026-05-01T15:02:20Z</time></trkpt><trkpt lat="48.60800073687537" lon="3.25561528738592"><ele>134.0</ele><time>2026-05-01T15:02:21Z</time></trkpt><trkpt lat="48.60804194919693" lon="3.255848059586714"><ele>134.0</ele><time>2026-05-01T15:02:22Z</time></trkpt><trkpt lat="48.60807889575451" lon="3.2561031294229257"><ele>134.0</ele><time>2026-05-01T15:02:23Z</time></trkpt><trkpt lat="48.6081191760646" lon="3.2563509753752347"><ele>134.0</ele><time>2026-05-01T15:02:24Z</time></trkpt><trkpt lat="48.60815665375175" lon="3.256618899346921"><ele>134.66666666666666</ele><time>2026-05-01T15:02:25Z</time></trkpt><trkpt lat="48.60819614706248" lon="3.256898950177923"><ele>135.33333333333334</ele><time>2026-05-01T15:02:26Z</time></trkpt><trkpt lat="48.6082423932474" lon="3.2571730790940814"><ele>136.0</ele><time>2026-05-01T15:02:27Z</time></trkpt><trkpt lat="48.60828726351513" lon="3.257455690193022"><ele>136.66666666666669</ele><time>2026-05-01T15:02:28Z</time></trkpt><trkpt lat="48.60833160041909" lon="3.2577461045407166"><ele>137.33333333333334</ele><time>2026-05-01T15:02:29Z</time></trkpt><trkpt lat="48.608376370035316" lon="3.258036963364918"><ele>138.0</ele><time>2026-05-01T15:02:30Z</time></trkpt><trkpt lat="48.60841514681386" lon="3.2583056538151873"><ele>138.66666666666666</ele><time>2026-05-01T15:02:31Z</time></trkpt><trkpt lat="48.608451047742854" lon="3.2585425928273457"><ele>139.33333333333331</ele><time>2026-05-01T15:02:32Z</time></trkpt><trkpt lat="48.60848800053845" lon="3.2587777872248136"><ele>140.0</ele><time>2026-05-01T15:02:33Z</time></trkpt><trkpt lat="48.608520173422534" lon="3.258989146535526"><ele>140.0</ele><time>2026-05-01T15:02:34Z</time></trkpt><trkpt lat="48.60854533238974" lon="3.2591600720515066"><ele>140.0</ele><time>2026-05-01T15:02:35Z</time></trkpt><trkpt lat="48.608562845287445" lon="3.2592861852607373"><ele>140.0</ele><time>2026-05-01T15:02:36Z</time></trkpt><trkpt lat="48.60861229534155" lon="3.259431174207949"><ele>140.0</ele><time>2026-05-01T15:02:43Z</time></trkpt><trkpt lat="48.608707692514784" lon="3.2594660534927464"><ele>140.0</ele><time>2026-05-01T15:02:44Z</time></trkpt><trkpt lat="48.6088416926595" lon="3.259460298592205"><ele>140.5</ele><time>2026-05-01T15:02:45Z</time></trkpt><trkpt lat="48.60898364888255" lon="3.2594622312070176"><ele>141.0</ele><time>2026-05-01T15:02:46Z</time></trkpt><trkpt lat="48.6091283003869" lon="3.2594944764722906"><ele>141.5</ele><time>2026-05-01T15:02:47Z</time></trkpt><trkpt lat="48.60925080688876" lon="3.2595024361092677"><ele>142.0</ele><time>2026-05-01T15:02:48Z</time></trkpt><trkpt lat="48.609350366273084" lon="3.259506684959258"><ele>142.0</ele><time>2026-05-01T15:02:49Z</time></trkpt><trkpt lat="48.60942500417823" lon="3.259509870243228"><ele>142.0</ele><time>2026-05-01T15:02:50Z</time></trkpt><trkpt lat="48.609489680488956" lon="3.2595378671891306"><ele>142.0</ele><time>2026-05-01T15:02:52Z</time></trkpt><trkpt lat="48.60947933936715" lon="3.259760041640299"><ele>142.0</ele><time>2026-05-01T15:02:53Z</time></trkpt><trkpt lat="48.6094763551792" lon="3.259913479136711"><ele>142.0</ele><time>2026-05-01T15:02:54Z</time></trkpt><trkpt lat="48.60947166749959" lon="3.2600874093256493"><ele>142.0</ele><time>2026-05-01T15:02:55Z</time></trkpt><trkpt lat="48.6094710835356" lon="3.260269138897668"><ele>142.0</ele><time>2026-05-01T15:02:56Z</time></trkpt><trkpt lat="48.60947733970724" lon="3.26046870424505"><ele>142.0</ele><time>2026-05-01T15:02:57Z</time></trkpt><trkpt lat="48.60949162253421" lon="3.2606757469329786"><ele>142.0</ele><time>2026-05-01T15:02:58Z</time></trkpt><trkpt lat="48.60949419005964" lon="3.260894819721764"><ele>142.0</ele><time>2026-05-01T15:02:59Z</time></trkpt><trkpt lat="48.609496801320674" lon="3.261123058001714"><ele>142.0</ele><time>2026-05-01T15:03:00Z</time></trkpt><trkpt lat="48.60950080358638" lon="3.261356732291019"><ele>142.0</ele><time>2026-05-01T15:03:01Z</time></trkpt><trkpt lat="48.609503519187115" lon="3.261601939404032"><ele>141.33333333333334</ele><time>2026-05-01T15:03:02Z</time></trkpt><trkpt lat="48.60950705514713" lon="3.261847655185669"><ele>140.66666666666666</ele><time>2026-05-01T15:03:03Z</time></trkpt><trkpt lat="48.60951018586991" lon="3.262095632784138"><ele>140.0</ele><time>2026-05-01T15:03:04Z</time></trkpt><trkpt lat="48.60951449636695" lon="3.262351017983685"><ele>139.66666666666666</ele><time>2026-05-01T15:03:05Z</time></trkpt><trkpt lat="48.60951362805162" lon="3.2626079658535923"><ele>139.33333333333334</ele><time>2026-05-01T15:03:06Z</time></trkpt><trkpt lat="48.60951747771298" lon="3.2628715095795155"><ele>139.0</ele><time>2026-05-01T15:03:07Z</time></trkpt><trkpt lat="48.60952351973209" lon="3.2631360299661982"><ele>139.0</ele><time>2026-05-01T15:03:08Z</time></trkpt><trkpt lat="48.6095253567516" lon="3.263400156893226"><ele>139.0</ele><time>2026-05-01T15:03:09Z</time></trkpt><trkpt lat="48.60952894423784" lon="3.263669549679375"><ele>139.0</ele><time>2026-05-01T15:03:10Z</time></trkpt><trkpt lat="48.60952792122314" lon="3.263938262767592"><ele>139.0</ele><time>2026-05-01T15:03:11Z</time></trkpt><trkpt lat="48.609525339232846" lon="3.264205817488856"><ele>139.0</ele><time>2026-05-01T15:03:12Z</time></trkpt><trkpt lat="48.60953067921603" lon="3.2644759026582646"><ele>139.0</ele><time>2026-05-01T15:03:13Z</time></trkpt><trkpt lat="48.609538759012814" lon="3.264772144649272"><ele>138.75</ele><time>2026-05-01T15:03:14Z</time></trkpt><trkpt lat="48.60954671509723" lon="3.2650454915975917"><ele>138.5</ele><time>2026-05-01T15:03:15Z</time></trkpt><trkpt lat="48.609544237147716" lon="3.265260850274006"><ele>138.25</ele><time>2026-05-01T15:03:16Z</time></trkpt><trkpt lat="48.609543350903216" lon="3.2654393100842474"><ele>138.0</ele><time>2026-05-01T15:03:17Z</time></trkpt><trkpt lat="48.60954510938244" lon="3.265578663128582"><ele>138.0</ele><time>2026-05-01T15:03:18Z</time></trkpt><trkpt lat="48.60956311977934" lon="3.2657152835292353"><ele>138.0</ele><time>2026-05-01T15:03:20Z</time></trkpt><trkpt lat="48.60956640917273" lon="3.2658428002465993"><ele>138.0</ele><time>2026-05-01T15:03:22Z</time></trkpt><trkpt lat="48.6095598405107" lon="3.2659436636807446"><ele>138.0</ele><time>2026-05-01T15:03:23Z</time></trkpt><trkpt lat="48.60955706123789" lon="3.2660669548965315"><ele>138.0</ele><time>2026-05-01T15:03:24Z</time></trkpt><trkpt lat="48.609555010776084" lon="3.266209784148132"><ele>138.0</ele><time>2026-05-01T15:03:25Z</time></trkpt><trkpt lat="48.609545938457686" lon="3.266359239116216"><ele>138.0</ele><time>2026-05-01T15:03:26Z</time></trkpt><trkpt lat="48.60952553495454" lon="3.2665122719659943"><ele>138.0</ele><time>2026-05-01T15:03:27Z</time></trkpt><trkpt lat="48.60949818072295" lon="3.266679420865533"><ele>138.0</ele><time>2026-05-01T15:03:28Z</time></trkpt><trkpt lat="48.60947690465641" lon="3.266852473097691"><ele>138.0</ele><time>2026-05-01T15:03:29Z</time></trkpt><trkpt lat="48.60946148969832" lon="3.267026881700205"><ele>137.75</ele><time>2026-05-01T15:03:30Z</time></trkpt><trkpt lat="48.60944279404815" lon="3.2672002471961337"><ele>137.5</ele><time>2026-05-01T15:03:31Z</time></trkpt><trkpt lat="48.60942011777641" lon="3.2673751904040214"><ele>137.25</ele><time>2026-05-01T15:03:32Z</time></trkpt><trkpt lat="48.60940018962196" lon="3.267553128842979"><ele>137.0</ele><time>2026-05-01T15:03:33Z</time></trkpt><trkpt lat="48.60938446907226" lon="3.2677298180554426"><ele>137.0</ele><time>2026-05-01T15:03:34Z</time></trkpt><trkpt lat="48.60936235782881" lon="3.2679085944087274"><ele>137.0</ele><time>2026-05-01T15:03:35Z</time></trkpt><trkpt lat="48.609342068761855" lon="3.2680820977984206"><ele>137.0</ele><time>2026-05-01T15:03:36Z</time></trkpt><trkpt lat="48.60931936859512" lon="3.2682584092007576"><ele>137.0</ele><time>2026-05-01T15:03:37Z</time></trkpt><trkpt lat="48.6093034773739" lon="3.268434485665606"><ele>136.75</ele><time>2026-05-01T15:03:38Z</time></trkpt><trkpt lat="48.60928744061792" lon="3.2686099237314017"><ele>136.5</ele><time>2026-05-01T15:03:39Z</time></trkpt><trkpt lat="48.60926453344659" lon="3.2687814696209214"><ele>136.25</ele><time>2026-05-01T15:03:40Z</time></trkpt><trkpt lat="48.60924562978879" lon="3.2689546003417465"><ele>136.0</ele><time>2026-05-01T15:03:41Z</time></trkpt><trkpt lat="48.609228550392906" lon="3.2691279851930672"><ele>136.0</ele><time>2026-05-01T15:03:42Z</time></trkpt><trkpt lat="48.60920037967161" lon="3.2693020281922145"><ele>136.0</ele><time>2026-05-01T15:03:43Z</time></trkpt><trkpt lat="48.60918008753556" lon="3.2694760110934022"><ele>136.0</ele><time>2026-05-01T15:03:44Z</time></trkpt><trkpt lat="48.60916854450842" lon="3.2696517874680295"><ele>136.0</ele><time>2026-05-01T15:03:45Z</time></trkpt><trkpt lat="48.60915071047404" lon="3.2698285339772006"><ele>136.0</ele><time>2026-05-01T15:03:46Z</time></trkpt><trkpt lat="48.6091290600743" lon="3.2700016913436136"><ele>136.0</ele><time>2026-05-01T15:03:47Z</time></trkpt><trkpt lat="48.60910838019937" lon="3.270172194394128"><ele>136.0</ele><time>2026-05-01T15:03:48Z</time></trkpt><trkpt lat="48.60909034868501" lon="3.2703409831627814"><ele>136.0</ele><time>2026-05-01T15:03:49Z</time></trkpt><trkpt lat="48.60907363024801" lon="3.270513007849225"><ele>136.0</ele><time>2026-05-01T15:03:50Z</time></trkpt><trkpt lat="48.609056193692844" lon="3.2706823787902684"><ele>136.0</ele><time>2026-05-01T15:03:51Z</time></trkpt><trkpt lat="48.609034367709874" lon="3.270855812750842"><ele>136.0</ele><time>2026-05-01T15:03:52Z</time></trkpt><trkpt lat="48.609021298112" lon="3.2710314228253994"><ele>136.0</ele><time>2026-05-01T15:03:53Z</time></trkpt><trkpt lat="48.60899316795067" lon="3.2711967786355722"><ele>136.0</ele><time>2026-05-01T15:03:54Z</time></trkpt><trkpt lat="48.60896841798626" lon="3.2713781375165345"><ele>136.0</ele><time>2026-05-01T15:03:55Z</time></trkpt><trkpt lat="48.608938356597" lon="3.2715646259292908"><ele>136.0</ele><time>2026-05-01T15:03:56Z</time></trkpt><trkpt lat="48.60892168145389" lon="3.2717467960411297"><ele>136.0</ele><time>2026-05-01T15:03:57Z</time></trkpt><trkpt lat="48.608903308972444" lon="3.2719335502885505"><ele>136.5</ele><time>2026-05-01T15:03:58Z</time></trkpt><trkpt lat="48.60888070886757" lon="3.2721205305658865"><ele>137.0</ele><time>2026-05-01T15:03:59Z</time></trkpt><trkpt lat="48.60886376200287" lon="3.27231265941904"><ele>137.5</ele><time>2026-05-01T15:04:00Z</time></trkpt><trkpt lat="48.60884420405971" lon="3.272507573737065"><ele>138.0</ele><time>2026-05-01T15:04:01Z</time></trkpt><trkpt lat="48.608817553748125" lon="3.272713196227478"><ele>138.0</ele><time>2026-05-01T15:04:02Z</time></trkpt><trkpt lat="48.608791605058286" lon="3.2729306049721587"><ele>138.0</ele><time>2026-05-01T15:04:03Z</time></trkpt><trkpt lat="48.60876693544705" lon="3.2731362908217863"><ele>138.0</ele><time>2026-05-01T15:04:04Z</time></trkpt><trkpt lat="48.60874131276435" lon="3.2733370123601913"><ele>138.0</ele><time>2026-05-01T15:04:05Z</time></trkpt><trkpt lat="48.608719468417796" lon="3.273540622787646"><ele>138.25</ele><time>2026-05-01T15:04:06Z</time></trkpt><trkpt lat="48.60869685054657" lon="3.273745529337301"><ele>138.5</ele><time>2026-05-01T15:04:07Z</time></trkpt><trkpt lat="48.60867258078442" lon="3.2739519903728844"><ele>138.75</ele><time>2026-05-01T15:04:08Z</time></trkpt><trkpt lat="48.608650754106506" lon="3.274156400250897"><ele>139.0</ele><time>2026-05-01T15:04:09Z</time></trkpt><trkpt lat="48.60863512393367" lon="3.2743624726897282"><ele>138.5</ele><time>2026-05-01T15:04:10Z</time></trkpt><trkpt lat="48.608611041180275" lon="3.2745682791810307"><ele>138.0</ele><time>2026-05-01T15:04:11Z</time></trkpt><trkpt lat="48.60858181526284" lon="3.274774603835029"><ele>137.5</ele><time>2026-05-01T15:04:12Z</time></trkpt><trkpt lat="48.608555385013574" lon="3.2749843937494636"><ele>137.0</ele><time>2026-05-01T15:04:13Z</time></trkpt><trkpt lat="48.6085308096125" lon="3.2751912176430484"><ele>137.0</ele><time>2026-05-01T15:04:14Z</time></trkpt><trkpt lat="48.60851128028225" lon="3.2753975756725455"><ele>137.0</ele><time>2026-05-01T15:04:15Z</time></trkpt><trkpt lat="48.60849198407094" lon="3.27559874548951"><ele>137.0</ele><time>2026-05-01T15:04:16Z</time></trkpt><trkpt lat="48.608471123542095" lon="3.2757912095894444"><ele>137.0</ele><time>2026-05-01T15:04:17Z</time></trkpt><trkpt lat="48.60844825151152" lon="3.275982676422433"><ele>137.25</ele><time>2026-05-01T15:04:18Z</time></trkpt><trkpt lat="48.608423681145446" lon="3.2761727664838776"><ele>137.5</ele><time>2026-05-01T15:04:19Z</time></trkpt><trkpt lat="48.60839650631793" lon="3.2763679424079695"><ele>137.75</ele><time>2026-05-01T15:04:20Z</time></trkpt><trkpt lat="48.60837481454098" lon="3.276578632284267"><ele>138.0</ele><time>2026-05-01T15:04:21Z</time></trkpt><trkpt lat="48.60835205600685" lon="3.2767575397762845"><ele>138.0</ele><time>2026-05-01T15:04:22Z</time></trkpt><trkpt lat="48.608327072670654" lon="3.276897331062496"><ele>138.0</ele><time>2026-05-01T15:04:23Z</time></trkpt><trkpt lat="48.6083204847093" lon="3.277019415497109"><ele>138.0</ele><time>2026-05-01T15:04:24Z</time></trkpt><trkpt lat="48.608267299628004" lon="3.277157615563523"><ele>138.0</ele><time>2026-05-01T15:04:26Z</time></trkpt><trkpt lat="48.6081898563592" lon="3.277145833854702"><ele>138.0</ele><time>2026-05-01T15:04:27Z</time></trkpt><trkpt lat="48.60809510046912" lon="3.2770898367091212"><ele>138.0</ele><time>2026-05-01T15:04:28Z</time></trkpt><trkpt lat="48.60797632942998" lon="3.277043578898107"><ele>138.0</ele><time>2026-05-01T15:04:29Z</time></trkpt><trkpt lat="48.60784358509613" lon="3.2770072198277584"><ele>138.0</ele><time>2026-05-01T15:04:30Z</time></trkpt><trkpt lat="48.607700342043515" lon="3.27697603884719"><ele>138.0</ele><time>2026-05-01T15:04:31Z</time></trkpt><trkpt lat="48.60754917261919" lon="3.2769397026709477"><ele>137.75</ele><time>2026-05-01T15:04:32Z</time></trkpt><trkpt lat="48.60740132966395" lon="3.276894207323612"><ele>137.5</ele><time>2026-05-01T15:04:33Z</time></trkpt><trkpt lat="48.607258448228286" lon="3.2768489214578653"><ele>137.25</ele><time>2026-05-01T15:04:34Z</time></trkpt><trkpt lat="48.60711363759291" lon="3.276824175426074"><ele>137.0</ele><time>2026-05-01T15:04:35Z</time></trkpt><trkpt lat="48.60697352989943" lon="3.276802088452888"><ele>136.66666666666666</ele><time>2026-05-01T15:04:36Z</time></trkpt><trkpt lat="48.60682958145731" lon="3.2767651458592972"><ele>136.33333333333334</ele><time>2026-05-01T15:04:37Z</time></trkpt><trkpt lat="48.60668315337431" lon="3.2767275015434727"><ele>136.0</ele><time>2026-05-01T15:04:38Z</time></trkpt><trkpt lat="48.60652623344696" lon="3.276696252536069"><ele>136.0</ele><time>2026-05-01T15:04:39Z</time></trkpt><trkpt lat="48.60636336937893" lon="3.276635186875016"><ele>136.0</ele><time>2026-05-01T15:04:40Z</time></trkpt><trkpt lat="48.60620273877608" lon="3.276596175710182"><ele>136.0</ele><time>2026-05-01T15:04:41Z</time></trkpt><trkpt lat="48.6060443686712" lon="3.2765410809925544"><ele>136.0</ele><time>2026-05-01T15:04:42Z</time></trkpt><trkpt lat="48.60588719339748" lon="3.276519745284439"><ele>136.0</ele><time>2026-05-01T15:04:43Z</time></trkpt><trkpt lat="48.605729394312824" lon="3.27650351061861"><ele>136.0</ele><time>2026-05-01T15:04:44Z</time></trkpt><trkpt lat="48.605571751736235" lon="3.2764590370077764"><ele>136.0</ele><time>2026-05-01T15:04:45Z</time></trkpt><trkpt lat="48.60541241155905" lon="3.276407520743219"><ele>136.0</ele><time>2026-05-01T15:04:46Z</time></trkpt><trkpt lat="48.6052560128805" lon="3.276367948067269"><ele>136.0</ele><time>2026-05-01T15:04:47Z</time></trkpt><trkpt lat="48.60510621900538" lon="3.2763282835437124"><ele>136.0</ele><time>2026-05-01T15:04:48Z</time></trkpt><trkpt lat="48.60497894458124" lon="3.276301507460047"><ele>136.0</ele><time>2026-05-01T15:04:49Z</time></trkpt><trkpt lat="48.60486319728909" lon="3.276270299602263"><ele>136.0</ele><time>2026-05-01T15:04:50Z</time></trkpt><trkpt lat="48.60473869238633" lon="3.276229924633388"><ele>136.0</ele><time>2026-05-01T15:04:51Z</time></trkpt><trkpt lat="48.60462864670156" lon="3.276198892107747"><ele>136.0</ele><time>2026-05-01T15:04:52Z</time></trkpt><trkpt lat="48.60454000559906" lon="3.276169054179157"><ele>136.0</ele><time>2026-05-01T15:04:53Z</time></trkpt><trkpt lat="48.60446750031428" lon="3.2761453558103524"><ele>136.0</ele><time>2026-05-01T15:04:54Z</time></trkpt><trkpt lat="48.6044025147462" lon="3.276126670831351"><ele>136.0</ele><time>2026-05-01T15:04:55Z</time></trkpt><trkpt lat="48.6043274884677" lon="3.276115027404701"><ele>136.0</ele><time>2026-05-01T15:04:56Z</time></trkpt><trkpt lat="48.6042404019922" lon="3.2760908582430996"><ele>136.0</ele><time>2026-05-01T15:04:57Z</time></trkpt><trkpt lat="48.60413786584522" lon="3.2760622884082027"><ele>136.0</ele><time>2026-05-01T15:04:58Z</time></trkpt><trkpt lat="48.604026099710225" lon="3.27602578219218"><ele>136.0</ele><time>2026-05-01T15:04:59Z</time></trkpt><trkpt lat="48.60390220008363" lon="3.2759996220325576"><ele>136.0</ele><time>2026-05-01T15:05:00Z</time></trkpt><trkpt lat="48.6037719858223" lon="3.275971175846405"><ele>136.0</ele><time>2026-05-01T15:05:01Z</time></trkpt><trkpt lat="48.603637712060504" lon="3.2759302467148816"><ele>136.0</ele><time>2026-05-01T15:05:02Z</time></trkpt><trkpt lat="48.60349614066283" lon="3.2759077608568345"><ele>136.0</ele><time>2026-05-01T15:05:03Z</time></trkpt><trkpt lat="48.60334691898479" lon="3.2758602986781082"><ele>136.0</ele><time>2026-05-01T15:05:04Z</time></trkpt><trkpt lat="48.603190047485604" lon="3.27581688866512"><ele>136.0</ele><time>2026-05-01T15:05:05Z</time></trkpt><trkpt lat="48.60302865076233" lon="3.275769182902528"><ele>136.0</ele><time>2026-05-01T15:05:06Z</time></trkpt><trkpt lat="48.60286333328532" lon="3.2757511162854445"><ele>136.0</ele><time>2026-05-01T15:05:07Z</time></trkpt><trkpt lat="48.60269820504608" lon="3.2757081066639793"><ele>136.0</ele><time>2026-05-01T15:05:08Z</time></trkpt><trkpt lat="48.60253286202104" lon="3.2756539528069135"><ele>136.0</ele><time>2026-05-01T15:05:09Z</time></trkpt><trkpt lat="48.60237027578126" lon="3.2756000210842715"><ele>136.0</ele><time>2026-05-01T15:05:10Z</time></trkpt><trkpt lat="48.60219789921772" lon="3.275565324141654"><ele>136.0</ele><time>2026-05-01T15:05:11Z</time></trkpt><trkpt lat="48.60202530281498" lon="3.275531470979186"><ele>136.0</ele><time>2026-05-01T15:05:12Z</time></trkpt><trkpt lat="48.601848464464204" lon="3.275488674153622"><ele>136.0</ele><time>2026-05-01T15:05:13Z</time></trkpt><trkpt lat="48.60167148768557" lon="3.275439196304561"><ele>137.66666666666669</ele><time>2026-05-01T15:05:14Z</time></trkpt><trkpt lat="48.60148929015467" lon="3.2753933539139015"><ele>139.33333333333334</ele><time>2026-05-01T15:05:15Z</time></trkpt><trkpt lat="48.60131529771343" lon="3.275350515663213"><ele>141.0</ele><time>2026-05-01T15:05:16Z</time></trkpt><trkpt lat="48.60116328788936" lon="3.275310966305464"><ele>141.5</ele><time>2026-05-01T15:05:17Z</time></trkpt><trkpt lat="48.60103294032572" lon="3.27528854144433"><ele>142.0</ele><time>2026-05-01T15:05:18Z</time></trkpt><trkpt lat="48.60091556510097" lon="3.275268722276665"><ele>142.5</ele><time>2026-05-01T15:05:19Z</time></trkpt><trkpt lat="48.60080134232331" lon="3.2752374722829667"><ele>143.0</ele><time>2026-05-01T15:05:20Z</time></trkpt><trkpt lat="48.60068821467125" lon="3.2752020005130174"><ele>143.0</ele><time>2026-05-01T15:05:21Z</time></trkpt><trkpt lat="48.60058339078481" lon="3.275181472590965"><ele>143.0</ele><time>2026-05-01T15:05:22Z</time></trkpt><trkpt lat="48.60050076633281" lon="3.2751450232799257"><ele>143.0</ele><time>2026-05-01T15:05:23Z</time></trkpt><trkpt lat="48.60041168151076" lon="3.275136356465846"><ele>143.0</ele><time>2026-05-01T15:05:25Z</time></trkpt><trkpt lat="48.60038819359944" lon="3.2752444317266294"><ele>143.0</ele><time>2026-05-01T15:05:27Z</time></trkpt><trkpt lat="48.60040383476445" lon="3.2753587075919506"><ele>143.0</ele><time>2026-05-01T15:06:35Z</time></trkpt><trkpt lat="48.600396390824194" lon="3.2754595601450647"><ele>143.0</ele><time>2026-05-01T15:06:36Z</time></trkpt><trkpt lat="48.6003903873531" lon="3.275581487850279"><ele>143.0</ele><time>2026-05-01T15:06:37Z</time></trkpt><trkpt lat="48.60038147745914" lon="3.275722185297665"><ele>143.0</ele><time>2026-05-01T15:06:38Z</time></trkpt><trkpt lat="48.60036741481911" lon="3.275886089682194"><ele>143.0</ele><time>2026-05-01T15:06:39Z</time></trkpt><trkpt lat="48.60035328945428" lon="3.276079736996571"><ele>143.0</ele><time>2026-05-01T15:06:40Z</time></trkpt><trkpt lat="48.60033449897325" lon="3.276291394695397"><ele>143.33333333333331</ele><time>2026-05-01T15:06:41Z</time></trkpt><trkpt lat="48.600315682763444" lon="3.2765226708748685"><ele>143.66666666666666</ele><time>2026-05-01T15:06:42Z</time></trkpt><trkpt lat="48.60030077456958" lon="3.2767619768318017"><ele>144.0</ele><time>2026-05-01T15:06:43Z</time></trkpt><trkpt lat="48.600284280207354" lon="3.2770053743242906"><ele>144.0</ele><time>2026-05-01T15:06:44Z</time></trkpt><trkpt lat="48.60026595882782" lon="3.277250131443555"><ele>144.0</ele><time>2026-05-01T15:06:45Z</time></trkpt><trkpt lat="48.60024650526955" lon="3.277498391967275"><ele>144.0</ele><time>2026-05-01T15:06:46Z</time></trkpt><trkpt lat="48.60023042941286" lon="3.2777517327616335"><ele>144.0</ele><time>2026-05-01T15:06:47Z</time></trkpt><trkpt lat="48.60020339459132" lon="3.2780051831289096"><ele>144.0</ele><time>2026-05-01T15:06:48Z</time></trkpt><trkpt lat="48.60018359254672" lon="3.2782762698506467"><ele>144.0</ele><time>2026-05-01T15:06:49Z</time></trkpt><trkpt lat="48.600167467820874" lon="3.278546687590744"><ele>144.0</ele><time>2026-05-01T15:06:50Z</time></trkpt><trkpt lat="48.60014201188856" lon="3.2788262439043514"><ele>144.0</ele><time>2026-05-01T15:06:51Z</time></trkpt><trkpt lat="48.600122358499476" lon="3.2791131644364073"><ele>144.0</ele><time>2026-05-01T15:06:52Z</time></trkpt><trkpt lat="48.60010571574386" lon="3.2793709929750747"><ele>144.0</ele><time>2026-05-01T15:06:53Z</time></trkpt><trkpt lat="48.60009222950266" lon="3.279590776333075"><ele>144.0</ele><time>2026-05-01T15:06:54Z</time></trkpt><trkpt lat="48.600085317470274" lon="3.2797839218308"><ele>144.0</ele><time>2026-05-01T15:06:55Z</time></trkpt><trkpt lat="48.60006647901353" lon="3.2799704712086974"><ele>144.0</ele><time>2026-05-01T15:06:56Z</time></trkpt><trkpt lat="48.600056919835396" lon="3.280145344196922"><ele>144.0</ele><time>2026-05-01T15:06:57Z</time></trkpt><trkpt lat="48.60004858012992" lon="3.2802825515412395"><ele>144.0</ele><time>2026-05-01T15:06:58Z</time></trkpt><trkpt lat="48.60004147056852" lon="3.2803862018105687"><ele>144.0</ele><time>2026-05-01T15:06:59Z</time></trkpt><trkpt lat="48.600001167689236" lon="3.2804766874550952"><ele>144.0</ele><time>2026-05-01T15:07:01Z</time></trkpt><trkpt lat="48.5998425511253" lon="3.280425928750814"><ele>144.0</ele><time>2026-05-01T15:07:03Z</time></trkpt><trkpt lat="48.59970942975961" lon="3.2803963688795585"><ele>144.0</ele><time>2026-05-01T15:07:04Z</time></trkpt><trkpt lat="48.59956419685756" lon="3.280367396921339"><ele>144.0</ele><time>2026-05-01T15:07:05Z</time></trkpt><trkpt lat="48.59940323752381" lon="3.2803508317077523"><ele>144.0</ele><time>2026-05-01T15:07:06Z</time></trkpt><trkpt lat="48.59922821571836" lon="3.2803327509948286"><ele>143.66666666666666</ele><time>2026-05-01T15:07:07Z</time></trkpt><trkpt lat="48.599052740203255" lon="3.2803138807570242"><ele>143.33333333333331</ele><time>2026-05-01T15:07:08Z</time></trkpt><trkpt lat="48.598879138124765" lon="3.2803035042697317"><ele>143.0</ele><time>2026-05-01T15:07:09Z</time></trkpt><trkpt lat="48.598707690276704" lon="3.280290677221082"><ele>142.33333333333331</ele><time>2026-05-01T15:07:10Z</time></trkpt><trkpt lat="48.59853641788831" lon="3.2802850140079722"><ele>141.66666666666666</ele><time>2026-05-01T15:07:11Z</time></trkpt><trkpt lat="48.59837554375638" lon="3.280272598351003"><ele>141.0</ele><time>2026-05-01T15:07:12Z</time></trkpt><trkpt lat="48.59823993375681" lon="3.2802579648956045"><ele>141.0</ele><time>2026-05-01T15:07:13Z</time></trkpt><trkpt lat="48.59811643248355" lon="3.280249589634159"><ele>141.0</ele><time>2026-05-01T15:07:14Z</time></trkpt><trkpt lat="48.59800461633957" lon="3.280242628165334"><ele>141.0</ele><time>2026-05-01T15:07:15Z</time></trkpt><trkpt lat="48.59789336307063" lon="3.2802304912621523"><ele>141.0</ele><time>2026-05-01T15:07:16Z</time></trkpt><trkpt lat="48.59777904706131" lon="3.2802184036160655"><ele>140.8</ele><time>2026-05-01T15:07:17Z</time></trkpt><trkpt lat="48.59766942480361" lon="3.280219689391803"><ele>140.6</ele><time>2026-05-01T15:07:18Z</time></trkpt><trkpt lat="48.59757718197524" lon="3.2802197686759107"><ele>140.4</ele><time>2026-05-01T15:07:19Z</time></trkpt><trkpt lat="48.59748364493383" lon="3.280198048793398"><ele>140.2</ele><time>2026-05-01T15:07:20Z</time></trkpt><trkpt lat="48.597382573132855" lon="3.2801788316447116"><ele>140.0</ele><time>2026-05-01T15:07:21Z</time></trkpt><trkpt lat="48.59727874714267" lon="3.2801640754427956"><ele>140.0</ele><time>2026-05-01T15:07:22Z</time></trkpt><trkpt lat="48.5971701403335" lon="3.2801427210253116"><ele>140.0</ele><time>2026-05-01T15:07:23Z</time></trkpt><trkpt lat="48.59705961441771" lon="3.280107880029955"><ele>140.0</ele><time>2026-05-01T15:07:24Z</time></trkpt><trkpt lat="48.59693954480981" lon="3.2800725477337607"><ele>140.0</ele><time>2026-05-01T15:07:25Z</time></trkpt><trkpt lat="48.59681928795662" lon="3.28004140732796"><ele>139.5</ele><time>2026-05-01T15:07:26Z</time></trkpt><trkpt lat="48.59671781800774" lon="3.2799996147092765"><ele>139.0</ele><time>2026-05-01T15:07:27Z</time></trkpt><trkpt lat="48.59662467510674" lon="3.2799817493420815"><ele>138.5</ele><time>2026-05-01T15:07:28Z</time></trkpt><trkpt lat="48.59654449966537" lon="3.279968090305355"><ele>138.0</ele><time>2026-05-01T15:07:29Z</time></trkpt><trkpt lat="48.59647395016308" lon="3.279982364196312"><ele>137.5</ele><time>2026-05-01T15:07:30Z</time></trkpt><trkpt lat="48.59646375577124" lon="3.2800885200399885"><ele>137.0</ele><time>2026-05-01T15:07:32Z</time></trkpt><trkpt lat="48.59646870292062" lon="3.2802537666464526"><ele>137.0</ele><time>2026-05-01T15:07:34Z</time></trkpt><trkpt lat="48.596480163216825" lon="3.280372569831337"><ele>137.0</ele><time>2026-05-01T15:07:35Z</time></trkpt><trkpt lat="48.59649596807349" lon="3.280490572378567"><ele>137.0</ele><time>2026-05-01T15:07:36Z</time></trkpt><trkpt lat="48.59650569692827" lon="3.280615797443023"><ele>137.0</ele><time>2026-05-01T15:07:37Z</time></trkpt><trkpt lat="48.59651052381801" lon="3.2807508033499686"><ele>137.0</ele><time>2026-05-01T15:07:38Z</time></trkpt><trkpt lat="48.596513172018675" lon="3.2808868999986154"><ele>137.0</ele><time>2026-05-01T15:07:39Z</time></trkpt><trkpt lat="48.596516309249644" lon="3.281027284395123"><ele>136.4</ele><time>2026-05-01T15:07:40Z</time></trkpt><trkpt lat="48.59653192061134" lon="3.281187130648547"><ele>135.79999999999998</ele><time>2026-05-01T15:07:41Z</time></trkpt><trkpt lat="48.59654531711771" lon="3.2813463665923894"><ele>135.2</ele><time>2026-05-01T15:07:42Z</time></trkpt><trkpt lat="48.5965666620591" lon="3.2815086706739325"><ele>134.6</ele><time>2026-05-01T15:07:43Z</time></trkpt><trkpt lat="48.596590870645386" lon="3.2816737858918104"><ele>134.0</ele><time>2026-05-01T15:07:44Z</time></trkpt><trkpt lat="48.596601242084475" lon="3.2818460342121623"><ele>133.75</ele><time>2026-05-01T15:07:45Z</time></trkpt><trkpt lat="48.59662455603218" lon="3.282018121197666"><ele>133.5</ele><time>2026-05-01T15:07:46Z</time></trkpt><trkpt lat="48.59665164009905" lon="3.282187423742123"><ele>133.25</ele><time>2026-05-01T15:07:47Z</time></trkpt><trkpt lat="48.59666943683773" lon="3.2823622377178205"><ele>133.0</ele><time>2026-05-01T15:07:48Z</time></trkpt><trkpt lat="48.59668814271859" lon="3.2825186394219794"><ele>133.0</ele><time>2026-05-01T15:07:49Z</time></trkpt><trkpt lat="48.59670011841257" lon="3.282649163207379"><ele>133.0</ele><time>2026-05-01T15:07:50Z</time></trkpt><trkpt lat="48.596720194157506" lon="3.2827688371757002"><ele>133.0</ele><time>2026-05-01T15:07:51Z</time></trkpt><trkpt lat="48.59673673771244" lon="3.2828760576964053"><ele>133.0</ele><time>2026-05-01T15:07:52Z</time></trkpt><trkpt lat="48.59675064776992" lon="3.282977313494152"><ele>133.0</ele><time>2026-05-01T15:07:53Z</time></trkpt><trkpt lat="48.59676718146149" lon="3.283099994600498"><ele>133.0</ele><time>2026-05-01T15:07:54Z</time></trkpt><trkpt lat="48.59678223493837" lon="3.2832316367472543"><ele>133.0</ele><time>2026-05-01T15:07:55Z</time></trkpt><trkpt lat="48.59680226455373" lon="3.2833729087790817"><ele>133.0</ele><time>2026-05-01T15:07:56Z</time></trkpt><trkpt lat="48.59682458349583" lon="3.2835201470625885"><ele>133.0</ele><time>2026-05-01T15:07:57Z</time></trkpt><trkpt lat="48.59684079812825" lon="3.2836758224993057"><ele>133.0</ele><time>2026-05-01T15:07:58Z</time></trkpt><trkpt lat="48.59685897879583" lon="3.283837865492036"><ele>133.0</ele><time>2026-05-01T15:07:59Z</time></trkpt><trkpt lat="48.596874255678046" lon="3.2840080926876647"><ele>133.0</ele><time>2026-05-01T15:08:00Z</time></trkpt><trkpt lat="48.59689293401618" lon="3.284174513464619"><ele>133.0</ele><time>2026-05-01T15:08:01Z</time></trkpt><trkpt lat="48.59690079842752" lon="3.2843158169736304"><ele>133.0</ele><time>2026-05-01T15:08:02Z</time></trkpt><trkpt lat="48.59691710556783" lon="3.2844530428824283"><ele>133.0</ele><time>2026-05-01T15:08:03Z</time></trkpt><trkpt lat="48.59693750989959" lon="3.284571768861783"><ele>133.0</ele><time>2026-05-01T15:08:04Z</time></trkpt><trkpt lat="48.59696158090485" lon="3.28470043750419"><ele>133.6</ele><time>2026-05-01T15:08:05Z</time></trkpt><trkpt lat="48.59699160679669" lon="3.284832605263085"><ele>134.20000000000002</ele><time>2026-05-01T15:08:06Z</time></trkpt><trkpt lat="48.59702167076608" lon="3.284958891867905"><ele>134.8</ele><time>2026-05-01T15:08:07Z</time></trkpt><trkpt lat="48.5970691219989" lon="3.285093003159449"><ele>135.4</ele><time>2026-05-01T15:08:08Z</time></trkpt><trkpt lat="48.59711478546118" lon="3.2852235245820878"><ele>136.0</ele><time>2026-05-01T15:08:09Z</time></trkpt><trkpt lat="48.597151626805825" lon="3.285355268923798"><ele>136.2</ele><time>2026-05-01T15:08:10Z</time></trkpt><trkpt lat="48.59718962284024" lon="3.2855097856895976"><ele>136.39999999999998</ele><time>2026-05-01T15:08:11Z</time></trkpt><trkpt lat="48.597229315123194" lon="3.2856538126525185"><ele>136.6</ele><time>2026-05-01T15:08:12Z</time></trkpt><trkpt lat="48.597261910008676" lon="3.285805721371865"><ele>136.79999999999998</ele><time>2026-05-01T15:08:13Z</time></trkpt><trkpt lat="48.59727761164655" lon="3.28596447751813"><ele>137.0</ele><time>2026-05-01T15:08:14Z</time></trkpt><trkpt lat="48.597274265794475" lon="3.286123376998702"><ele>137.0</ele><time>2026-05-01T15:08:15Z</time></trkpt><trkpt lat="48.59725986282767" lon="3.2862844922436376"><ele>137.0</ele><time>2026-05-01T15:08:16Z</time></trkpt><trkpt lat="48.5972419577941" lon="3.286445650478134"><ele>137.0</ele><time>2026-05-01T15:08:17Z</time></trkpt><trkpt lat="48.59721759712456" lon="3.2866106570183975"><ele>137.0</ele><time>2026-05-01T15:08:18Z</time></trkpt><trkpt lat="48.59718113301954" lon="3.2867764780243394"><ele>137.0</ele><time>2026-05-01T15:08:19Z</time></trkpt><trkpt lat="48.59714220813988" lon="3.2869377926151753"><ele>136.5</ele><time>2026-05-01T15:08:20Z</time></trkpt><trkpt lat="48.597109362510736" lon="3.287106950156321"><ele>136.0</ele><time>2026-05-01T15:08:21Z</time></trkpt><trkpt lat="48.59707148266635" lon="3.287271229336205"><ele>135.5</ele><time>2026-05-01T15:08:22Z</time></trkpt><trkpt lat="48.59702923774778" lon="3.2874356138929723"><ele>135.0</ele><time>2026-05-01T15:08:23Z</time></trkpt><trkpt lat="48.59697617118273" lon="3.2875914940205457"><ele>134.2</ele><time>2026-05-01T15:08:24Z</time></trkpt><trkpt lat="48.59692687210559" lon="3.287745600257977"><ele>133.4</ele><time>2026-05-01T15:08:25Z</time></trkpt><trkpt lat="48.59689058023681" lon="3.287880468040008"><ele>132.6</ele><time>2026-05-01T15:08:26Z</time></trkpt><trkpt lat="48.59686537282232" lon="3.2880045591565144"><ele>131.8</ele><time>2026-05-01T15:08:27Z</time></trkpt><trkpt lat="48.596854719872844" lon="3.2881305982384146"><ele>131.0</ele><time>2026-05-01T15:08:28Z</time></trkpt><trkpt lat="48.59685795505594" lon="3.288266151685525"><ele>131.0</ele><time>2026-05-01T15:08:29Z</time></trkpt><trkpt lat="48.59686400564668" lon="3.2884057616852336"><ele>131.0</ele><time>2026-05-01T15:08:30Z</time></trkpt><trkpt lat="48.5968604824758" lon="3.2885475336689103"><ele>131.0</ele><time>2026-05-01T15:08:31Z</time></trkpt><trkpt lat="48.59685623513664" lon="3.288669237531662"><ele>131.0</ele><time>2026-05-01T15:08:32Z</time></trkpt><trkpt lat="48.59684161418609" lon="3.288769572857485"><ele>131.0</ele><time>2026-05-01T15:08:33Z</time></trkpt><trkpt lat="48.596756309503235" lon="3.288833612620273"><ele>131.0</ele><time>2026-05-01T15:08:35Z</time></trkpt><trkpt lat="48.59664885448277" lon="3.2887888555850444"><ele>131.0</ele><time>2026-05-01T15:08:37Z</time></trkpt><trkpt lat="48.596563323326386" lon="3.28874414994441"><ele>131.0</ele><time>2026-05-01T15:08:39Z</time></trkpt><trkpt lat="48.59645335911749" lon="3.288693544096919"><ele>131.0</ele><time>2026-05-01T15:08:41Z</time></trkpt><trkpt lat="48.59637962852643" lon="3.2886679258878364"><ele>131.0</ele><time>2026-05-01T15:08:42Z</time></trkpt><trkpt lat="48.59629709237217" lon="3.2886419449392847"><ele>131.0</ele><time>2026-05-01T15:08:43Z</time></trkpt><trkpt lat="48.59619983819956" lon="3.288597225697859"><ele>131.75</ele><time>2026-05-01T15:08:44Z</time></trkpt><trkpt lat="48.59608173031936" lon="3.2885638914158797"><ele>132.5</ele><time>2026-05-01T15:08:45Z</time></trkpt><trkpt lat="48.59593632849914" lon="3.288485756503306"><ele>133.25</ele><time>2026-05-01T15:08:46Z</time></trkpt><trkpt lat="48.59578655831757" lon="3.288418167466825"><ele>134.0</ele><time>2026-05-01T15:08:47Z</time></trkpt><trkpt lat="48.59563792243297" lon="3.2883485174737204"><ele>134.0</ele><time>2026-05-01T15:08:48Z</time></trkpt><trkpt lat="48.59548306865947" lon="3.2882835668607884"><ele>134.0</ele><time>2026-05-01T15:08:49Z</time></trkpt><trkpt lat="48.59531734042632" lon="3.288228953016499"><ele>134.0</ele><time>2026-05-01T15:08:50Z</time></trkpt><trkpt lat="48.59515181741561" lon="3.2881808798532752"><ele>135.0</ele><time>2026-05-01T15:08:51Z</time></trkpt><trkpt lat="48.59498151590944" lon="3.2881476130472422"><ele>136.0</ele><time>2026-05-01T15:08:52Z</time></trkpt><trkpt lat="48.5948022608535" lon="3.28812431463201"><ele>137.0</ele><time>2026-05-01T15:08:53Z</time></trkpt><trkpt lat="48.59463433204345" lon="3.288084060131901"><ele>138.0</ele><time>2026-05-01T15:08:54Z</time></trkpt><trkpt lat="48.59447549673036" lon="3.2880499799171177"><ele>139.0</ele><time>2026-05-01T15:08:55Z</time></trkpt><trkpt lat="48.59434075680487" lon="3.2880317645665853"><ele>140.0</ele><time>2026-05-01T15:08:56Z</time></trkpt><trkpt lat="48.59421182818996" lon="3.2880135411073335"><ele>141.0</ele><time>2026-05-01T15:08:57Z</time></trkpt><trkpt lat="48.594085153535836" lon="3.2879934374214743"><ele>141.0</ele><time>2026-05-01T15:08:58Z</time></trkpt><trkpt lat="48.593952503273684" lon="3.2879598722657026"><ele>141.0</ele><time>2026-05-01T15:08:59Z</time></trkpt><trkpt lat="48.59382354624337" lon="3.2879484507330945"><ele>141.0</ele><time>2026-05-01T15:09:00Z</time></trkpt><trkpt lat="48.59369758377691" lon="3.2879095753296363"><ele>141.0</ele><time>2026-05-01T15:09:01Z</time></trkpt><trkpt lat="48.593583013393825" lon="3.2878794621894336"><ele>140.8</ele><time>2026-05-01T15:09:02Z</time></trkpt><trkpt lat="48.59348414622775" lon="3.287841613087248"><ele>140.6</ele><time>2026-05-01T15:09:03Z</time></trkpt><trkpt lat="48.593380410143006" lon="3.2878070627853972"><ele>140.4</ele><time>2026-05-01T15:09:04Z</time></trkpt><trkpt lat="48.5932681412346" lon="3.2877664865691485"><ele>140.2</ele><time>2026-05-01T15:09:05Z</time></trkpt><trkpt lat="48.59314944653256" lon="3.2877226438496403"><ele>140.0</ele><time>2026-05-01T15:09:06Z</time></trkpt><trkpt lat="48.593029563738504" lon="3.2876796733024496"><ele>140.0</ele><time>2026-05-01T15:09:07Z</time></trkpt><trkpt lat="48.59290421588504" lon="3.287649884822363"><ele>140.0</ele><time>2026-05-01T15:09:08Z</time></trkpt><trkpt lat="48.592776966800216" lon="3.287642014171817"><ele>140.0</ele><time>2026-05-01T15:09:09Z</time></trkpt><trkpt lat="48.59264833401699" lon="3.2876484612866084"><ele>140.0</ele><time>2026-05-01T15:09:10Z</time></trkpt><trkpt lat="48.59250951549773" lon="3.2876751694300035"><ele>139.75</ele><time>2026-05-01T15:09:11Z</time></trkpt><trkpt lat="48.592379045397145" lon="3.2877093202896117"><ele>139.5</ele><time>2026-05-01T15:09:12Z</time></trkpt><trkpt lat="48.59225855875254" lon="3.2877300358730497"><ele>139.25</ele><time>2026-05-01T15:09:13Z</time></trkpt><trkpt lat="48.5921338625575" lon="3.287749973728922"><ele>139.0</ele><time>2026-05-01T15:09:14Z</time></trkpt><trkpt lat="48.592003302898554" lon="3.2877688152064537"><ele>138.6</ele><time>2026-05-01T15:09:15Z</time></trkpt><trkpt lat="48.59189453241633" lon="3.2877749159413048"><ele>138.2</ele><time>2026-05-01T15:09:16Z</time></trkpt><trkpt lat="48.59181625465923" lon="3.2877837508919785"><ele>137.79999999999998</ele><time>2026-05-01T15:09:17Z</time></trkpt><trkpt lat="48.591712297424536" lon="3.2878096432391146"><ele>137.4</ele><time>2026-05-01T15:09:19Z</time></trkpt><trkpt lat="48.59169574972226" lon="3.288021940705738"><ele>137.0</ele><time>2026-05-01T15:09:21Z</time></trkpt><trkpt lat="48.59170712914164" lon="3.2881878223954706"><ele>136.75</ele><time>2026-05-01T15:09:22Z</time></trkpt><trkpt lat="48.591725449897915" lon="3.288392734329296"><ele>136.5</ele><time>2026-05-01T15:09:23Z</time></trkpt><trkpt lat="48.591742681772175" lon="3.28861232992469"><ele>136.25</ele><time>2026-05-01T15:09:24Z</time></trkpt><trkpt lat="48.591752230268604" lon="3.2888560280723365"><ele>136.0</ele><time>2026-05-01T15:09:25Z</time></trkpt><trkpt lat="48.59175833299692" lon="3.2890954924657145"><ele>135.66666666666669</ele><time>2026-05-01T15:09:26Z</time></trkpt><trkpt lat="48.591762101340294" lon="3.289331067818653"><ele>135.33333333333334</ele><time>2026-05-01T15:09:27Z</time></trkpt><trkpt lat="48.59177197384173" lon="3.2895656892314222"><ele>135.0</ele><time>2026-05-01T15:09:28Z</time></trkpt><trkpt lat="48.591777608895995" lon="3.2898005427887966"><ele>135.66666666666666</ele><time>2026-05-01T15:09:29Z</time></trkpt><trkpt lat="48.591782157848364" lon="3.2900396048569207"><ele>136.33333333333331</ele><time>2026-05-01T15:09:30Z</time></trkpt><trkpt lat="48.59179152358162" lon="3.2902658570492536"><ele>137.0</ele><time>2026-05-01T15:09:31Z</time></trkpt><trkpt lat="48.5917975827997" lon="3.2904856866010945"><ele>137.0</ele><time>2026-05-01T15:09:32Z</time></trkpt><trkpt lat="48.591810320575455" lon="3.290698377895443"><ele>137.0</ele><time>2026-05-01T15:09:33Z</time></trkpt><trkpt lat="48.591817425896416" lon="3.290901951688724"><ele>137.0</ele><time>2026-05-01T15:09:34Z</time></trkpt><trkpt lat="48.59182293926175" lon="3.291105401334103"><ele>137.0</ele><time>2026-05-01T15:09:35Z</time></trkpt><trkpt lat="48.59182682268046" lon="3.2912914639903668"><ele>137.4</ele><time>2026-05-01T15:09:36Z</time></trkpt><trkpt lat="48.59183051722496" lon="3.291451121027704"><ele>137.79999999999998</ele><time>2026-05-01T15:09:37Z</time></trkpt><trkpt lat="48.591833335833016" lon="3.2915747438510063"><ele>138.2</ele><time>2026-05-01T15:09:38Z</time></trkpt><trkpt lat="48.59181357139744" lon="3.2917343309972518"><ele>138.6</ele><time>2026-05-01T15:09:40Z</time></trkpt><trkpt lat="48.59180309876319" lon="3.291906089006823"><ele>139.0</ele><time>2026-05-01T15:09:42Z</time></trkpt><trkpt lat="48.59179328511066" lon="3.2920434587073606"><ele>139.0</ele><time>2026-05-01T15:09:44Z</time></trkpt><trkpt lat="48.59185791626581" lon="3.2921733625872887"><ele>139.0</ele><time>2026-05-01T15:10:08Z</time></trkpt><trkpt lat="48.59193673092277" lon="3.2922369265144975"><ele>139.0</ele><time>2026-05-01T15:10:09Z</time></trkpt><trkpt lat="48.59204276487441" lon="3.2923197345287956"><ele>139.0</ele><time>2026-05-01T15:10:10Z</time></trkpt><trkpt lat="48.59216596251013" lon="3.292409088636862"><ele>139.5</ele><time>2026-05-01T15:10:11Z</time></trkpt><trkpt lat="48.59229795871714" lon="3.2925072196562932"><ele>140.0</ele><time>2026-05-01T15:10:12Z</time></trkpt><trkpt lat="48.59239253201999" lon="3.292603252811247"><ele>140.5</ele><time>2026-05-01T15:10:13Z</time></trkpt><trkpt lat="48.592464881682425" lon="3.2926580176299884"><ele>141.0</ele><time>2026-05-01T15:10:14Z</time></trkpt><trkpt lat="48.592559574690355" lon="3.2927496303711465"><ele>141.0</ele><time>2026-05-01T15:10:16Z</time></trkpt><trkpt lat="48.59261644404783" lon="3.2928100796931368"><ele>141.0</ele><time>2026-05-01T15:10:18Z</time></trkpt><trkpt lat="48.5925135352535" lon="3.2932339146724248"><ele>141.0</ele><time>2026-05-01T15:10:19Z</time></trkpt><trkpt lat="48.592507706390414" lon="3.2934534068598853"><ele>141.33333333333334</ele><time>2026-05-01T15:10:20Z</time></trkpt><trkpt lat="48.59250586322741" lon="3.29368196555474"><ele>141.66666666666669</ele><time>2026-05-01T15:10:21Z</time></trkpt><trkpt lat="48.59250974961762" lon="3.2939210726854533"><ele>142.0</ele><time>2026-05-01T15:10:22Z</time></trkpt><trkpt lat="48.59250926353182" lon="3.2941695083365437"><ele>143.0</ele><time>2026-05-01T15:10:23Z</time></trkpt><trkpt lat="48.5924964741088" lon="3.2944218550488045"><ele>144.0</ele><time>2026-05-01T15:10:24Z</time></trkpt><trkpt lat="48.59248333201238" lon="3.29468081281099"><ele>145.0</ele><time>2026-05-01T15:10:25Z</time></trkpt><trkpt lat="48.59247207342753" lon="3.2949395254123486"><ele>145.33333333333334</ele><time>2026-05-01T15:10:26Z</time></trkpt><trkpt lat="48.59245943370271" lon="3.2952047624293366"><ele>145.66666666666666</ele><time>2026-05-01T15:10:27Z</time></trkpt><trkpt lat="48.592455458538204" lon="3.295466243909878"><ele>146.0</ele><time>2026-05-01T15:10:28Z</time></trkpt><trkpt lat="48.592455053681086" lon="3.2957273026311427"><ele>147.0</ele><time>2026-05-01T15:10:29Z</time></trkpt><trkpt lat="48.592451087731355" lon="3.295993542997626"><ele>148.0</ele><time>2026-05-01T15:10:30Z</time></trkpt><trkpt lat="48.59243926589034" lon="3.2962545010742192"><ele>149.0</ele><time>2026-05-01T15:10:31Z</time></trkpt><trkpt lat="48.59243821482551" lon="3.2964699047931423"><ele>149.16666666666666</ele><time>2026-05-01T15:10:32Z</time></trkpt><trkpt lat="48.59243393186951" lon="3.296635198307826"><ele>149.33333333333331</ele><time>2026-05-01T15:10:33Z</time></trkpt><trkpt lat="48.592433998452094" lon="3.296750652283459"><ele>149.5</ele><time>2026-05-01T15:10:34Z</time></trkpt><trkpt lat="48.592440528720466" lon="3.2968467556038425"><ele>149.66666666666666</ele><time>2026-05-01T15:10:35Z</time></trkpt><trkpt lat="48.592438046464366" lon="3.2969560335996944"><ele>149.83333333333334</ele><time>2026-05-01T15:10:36Z</time></trkpt><trkpt lat="48.59239228847427" lon="3.2970219030101355"><ele>150.0</ele><time>2026-05-01T15:10:37Z</time></trkpt><trkpt lat="48.59229128364271" lon="3.2970310372725318"><ele>150.0</ele><time>2026-05-01T15:10:38Z</time></trkpt><trkpt lat="48.59219667252279" lon="3.2969646563725625"><ele>150.0</ele><time>2026-05-01T15:10:39Z</time></trkpt><trkpt lat="48.59210954408214" lon="3.296842478118783"><ele>150.0</ele><time>2026-05-01T15:10:40Z</time></trkpt><trkpt lat="48.59198160660144" lon="3.296744578787082"><ele>150.0</ele><time>2026-05-01T15:10:41Z</time></trkpt><trkpt lat="48.59185766302155" lon="3.2966424935171754"><ele>149.75</ele><time>2026-05-01T15:10:42Z</time></trkpt><trkpt lat="48.59174605987666" lon="3.296524403653872"><ele>149.5</ele><time>2026-05-01T15:10:43Z</time></trkpt><trkpt lat="48.591639984491415" lon="3.2964485859769"><ele>149.25</ele><time>2026-05-01T15:10:44Z</time></trkpt><trkpt lat="48.59153401627603" lon="3.296371384114622"><ele>149.0</ele><time>2026-05-01T15:10:45Z</time></trkpt><trkpt lat="48.59142443255223" lon="3.2962872014164386"><ele>148.5</ele><time>2026-05-01T15:10:46Z</time></trkpt><trkpt lat="48.591313584327374" lon="3.296195119785708"><ele>148.0</ele><time>2026-05-01T15:10:47Z</time></trkpt><trkpt lat="48.59119437788672" lon="3.2961009677925466"><ele>147.5</ele><time>2026-05-01T15:10:48Z</time></trkpt><trkpt lat="48.591067200375555" lon="3.2960016822362674"><ele>147.0</ele><time>2026-05-01T15:10:49Z</time></trkpt><trkpt lat="48.59095693569652" lon="3.2959190485308536"><ele>146.66666666666666</ele><time>2026-05-01T15:10:50Z</time></trkpt><trkpt lat="48.59086586868334" lon="3.2958522873233767"><ele>146.33333333333334</ele><time>2026-05-01T15:10:51Z</time></trkpt><trkpt lat="48.5908003747445" lon="3.2957964328836904"><ele>146.0</ele><time>2026-05-01T15:10:52Z</time></trkpt><trkpt lat="48.59073438844965" lon="3.2957411717121468"><ele>145.66666666666669</ele><time>2026-05-01T15:10:53Z</time></trkpt><trkpt lat="48.59066085187848" lon="3.2956900632088764"><ele>145.33333333333334</ele><time>2026-05-01T15:10:54Z</time></trkpt><trkpt lat="48.59059045928317" lon="3.295640473489219"><ele>145.0</ele><time>2026-05-01T15:10:55Z</time></trkpt><trkpt lat="48.59051620471695" lon="3.2955898405523465"><ele>144.66666666666669</ele><time>2026-05-01T15:10:57Z</time></trkpt><trkpt lat="48.59041771769433" lon="3.2955302995607316"><ele>144.33333333333334</ele><time>2026-05-01T15:13:26Z</time></trkpt><trkpt lat="48.59035754763106" lon="3.2954921960161148"><ele>144.0</ele><time>2026-05-01T15:13:27Z</time></trkpt><trkpt lat="48.59029254802927" lon="3.2954346848502376"><ele>143.66666666666666</ele><time>2026-05-01T15:13:28Z</time></trkpt><trkpt lat="48.59022274974371" lon="3.2953739203153587"><ele>143.33333333333331</ele><time>2026-05-01T15:13:29Z</time></trkpt><trkpt lat="48.59014021376553" lon="3.2953286221223164"><ele>143.0</ele><time>2026-05-01T15:13:30Z</time></trkpt><trkpt lat="48.59005230753821" lon="3.2952686170191563"><ele>142.75</ele><time>2026-05-01T15:13:31Z</time></trkpt><trkpt lat="48.5899438272843" lon="3.2951907619498417"><ele>142.5</ele><time>2026-05-01T15:13:32Z</time></trkpt><trkpt lat="48.58981102821783" lon="3.295097308816861"><ele>142.25</ele><time>2026-05-01T15:13:33Z</time></trkpt><trkpt lat="48.589662785926514" lon="3.2949855462336366"><ele>142.0</ele><time>2026-05-01T15:13:34Z</time></trkpt><trkpt lat="48.5895251309191" lon="3.2948812555062075"><ele>141.75</ele><time>2026-05-01T15:13:35Z</time></trkpt><trkpt lat="48.58939767823426" lon="3.294798809244027"><ele>141.5</ele><time>2026-05-01T15:13:36Z</time></trkpt><trkpt lat="48.589279787007925" lon="3.29471605596391"><ele>141.25</ele><time>2026-05-01T15:13:37Z</time></trkpt><trkpt lat="48.58916753274027" lon="3.2946236310483736"><ele>141.0</ele><time>2026-05-01T15:13:38Z</time></trkpt><trkpt lat="48.589051286159346" lon="3.2945466812769175"><ele>140.75</ele><time>2026-05-01T15:13:39Z</time></trkpt><trkpt lat="48.58893244683923" lon="3.2944540834078024"><ele>140.5</ele><time>2026-05-01T15:13:40Z</time></trkpt><trkpt lat="48.58880255096894" lon="3.2943627998365272"><ele>140.25</ele><time>2026-05-01T15:13:41Z</time></trkpt><trkpt lat="48.588662325783886" lon="3.2942454466862956"><ele>140.0</ele><time>2026-05-01T15:13:42Z</time></trkpt><trkpt lat="48.58851946906626" lon="3.294123762640845"><ele>140.66666666666666</ele><time>2026-05-01T15:13:43Z</time></trkpt><trkpt lat="48.588370091798176" lon="3.2940013862368605"><ele>141.33333333333334</ele><time>2026-05-01T15:13:44Z</time></trkpt><trkpt lat="48.588209580464074" lon="3.293890867884473"><ele>142.0</ele><time>2026-05-01T15:13:45Z</time></trkpt><trkpt lat="48.58804855868578" lon="3.293778725080491"><ele>142.0</ele><time>2026-05-01T15:13:46Z</time></trkpt><trkpt lat="48.5878918700033" lon="3.2936729832777782"><ele>142.0</ele><time>2026-05-01T15:13:47Z</time></trkpt><trkpt lat="48.5877400044649" lon="3.2935639157648184"><ele>142.0</ele><time>2026-05-01T15:13:48Z</time></trkpt><trkpt lat="48.58759211505311" lon="3.2934585273714854"><ele>143.33333333333334</ele><time>2026-05-01T15:13:49Z</time></trkpt><trkpt lat="48.587444734059424" lon="3.2933535161099914"><ele>144.66666666666666</ele><time>2026-05-01T15:13:50Z</time></trkpt><trkpt lat="48.5872994673771" lon="3.2932500422760977"><ele>146.0</ele><time>2026-05-01T15:13:51Z</time></trkpt><trkpt lat="48.58715403072231" lon="3.293146199277056"><ele>146.0</ele><time>2026-05-01T15:13:52Z</time></trkpt><trkpt lat="48.58701449346757" lon="3.293041371993999"><ele>146.0</ele><time>2026-05-01T15:13:53Z</time></trkpt><trkpt lat="48.58687461164331" lon="3.292934031168174"><ele>146.0</ele><time>2026-05-01T15:13:54Z</time></trkpt><trkpt lat="48.586737619605906" lon="3.292823814036526"><ele>146.0</ele><time>2026-05-01T15:13:55Z</time></trkpt><trkpt lat="48.58662589986016" lon="3.2927268692340257"><ele>146.0</ele><time>2026-05-01T15:13:56Z</time></trkpt><trkpt lat="48.58653423056424" lon="3.292652623816376"><ele>146.0</ele><time>2026-05-01T15:13:57Z</time></trkpt><trkpt lat="48.58646265763437" lon="3.2926014661799035"><ele>146.0</ele><time>2026-05-01T15:13:58Z</time></trkpt><trkpt lat="48.5863721072834" lon="3.2925212970757354"><ele>146.0</ele><time>2026-05-01T15:14:00Z</time></trkpt><trkpt lat="48.58631638089533" lon="3.2926804673999372"><ele>146.0</ele><time>2026-05-01T15:14:02Z</time></trkpt><trkpt lat="48.586321547815544" lon="3.292803806478062"><ele>146.0</ele><time>2026-05-01T15:14:03Z</time></trkpt><trkpt lat="48.58632521598709" lon="3.292934713980413"><ele>146.0</ele><time>2026-05-01T15:14:04Z</time></trkpt><trkpt lat="48.58632718462164" lon="3.2930705962959395"><ele>146.0</ele><time>2026-05-01T15:14:05Z</time></trkpt><trkpt lat="48.58632234477212" lon="3.2932136468442503"><ele>146.0</ele><time>2026-05-01T15:14:06Z</time></trkpt><trkpt lat="48.586314811050556" lon="3.2933603315853572"><ele>146.4</ele><time>2026-05-01T15:14:07Z</time></trkpt><trkpt lat="48.58630317935822" lon="3.293508216076251"><ele>146.8</ele><time>2026-05-01T15:14:08Z</time></trkpt><trkpt lat="48.58628699985804" lon="3.293652983771347"><ele>147.20000000000002</ele><time>2026-05-01T15:14:09Z</time></trkpt><trkpt lat="48.586274381539674" lon="3.293796231342941"><ele>147.6</ele><time>2026-05-01T15:14:10Z</time></trkpt><trkpt lat="48.58626024475724" lon="3.293939610440908"><ele>148.0</ele><time>2026-05-01T15:14:11Z</time></trkpt><trkpt lat="48.58624683414536" lon="3.2940792439459545"><ele>148.0</ele><time>2026-05-01T15:14:12Z</time></trkpt><trkpt lat="48.586239706075325" lon="3.294209411571508"><ele>148.0</ele><time>2026-05-01T15:14:13Z</time></trkpt><trkpt lat="48.58623507837162" lon="3.2943349213901314"><ele>148.0</ele><time>2026-05-01T15:14:14Z</time></trkpt><trkpt lat="48.586222063322815" lon="3.294454766281302"><ele>148.0</ele><time>2026-05-01T15:14:15Z</time></trkpt><trkpt lat="48.58620945164316" lon="3.294571163200496"><ele>148.0</ele><time>2026-05-01T15:14:16Z</time></trkpt><trkpt lat="48.586199982055376" lon="3.2946773953395714"><ele>148.0</ele><time>2026-05-01T15:14:17Z</time></trkpt><trkpt lat="48.586188032204205" lon="3.294826901771221"><ele>148.5</ele><time>2026-05-01T15:14:20Z</time></trkpt><trkpt lat="48.58617463670635" lon="3.2949308282385736"><ele>149.0</ele><time>2026-05-01T15:14:37Z</time></trkpt><trkpt lat="48.58616295918177" lon="3.295025483746747"><ele>149.5</ele><time>2026-05-01T15:14:38Z</time></trkpt><trkpt lat="48.58615315217433" lon="3.295139388669412"><ele>150.0</ele><time>2026-05-01T15:14:39Z</time></trkpt><trkpt lat="48.58614583591158" lon="3.2952650682980553"><ele>150.5</ele><time>2026-05-01T15:14:40Z</time></trkpt><trkpt lat="48.586137413370935" lon="3.2953966012867832"><ele>151.0</ele><time>2026-05-01T15:14:41Z</time></trkpt><trkpt lat="48.58612752734768" lon="3.295533612354877"><ele>151.0</ele><time>2026-05-01T15:14:42Z</time></trkpt><trkpt lat="48.58612228556854" lon="3.2956769667083883"><ele>151.0</ele><time>2026-05-01T15:14:43Z</time></trkpt><trkpt lat="48.58611390287" lon="3.2958283508602633"><ele>151.0</ele><time>2026-05-01T15:14:44Z</time></trkpt><trkpt lat="48.58609977797347" lon="3.2959897869317465"><ele>151.0</ele><time>2026-05-01T15:14:45Z</time></trkpt><trkpt lat="48.586086665292655" lon="3.2961597871511006"><ele>151.0</ele><time>2026-05-01T15:14:46Z</time></trkpt><trkpt lat="48.586067829949705" lon="3.2963410282679404"><ele>151.0</ele><time>2026-05-01T15:14:47Z</time></trkpt><trkpt lat="48.5860431710316" lon="3.296527271393234"><ele>151.0</ele><time>2026-05-01T15:14:48Z</time></trkpt><trkpt lat="48.5860301982603" lon="3.2967183265521944"><ele>151.0</ele><time>2026-05-01T15:14:49Z</time></trkpt><trkpt lat="48.58601956393615" lon="3.296931525633469"><ele>151.0</ele><time>2026-05-01T15:14:50Z</time></trkpt><trkpt lat="48.58600275575375" lon="3.2971673875239027"><ele>151.0</ele><time>2026-05-01T15:14:51Z</time></trkpt><trkpt lat="48.585984515894836" lon="3.2974191141641924"><ele>151.0</ele><time>2026-05-01T15:14:52Z</time></trkpt><trkpt lat="48.585965975585815" lon="3.297678326916397"><ele>151.0</ele><time>2026-05-01T15:14:53Z</time></trkpt><trkpt lat="48.58594089480053" lon="3.297947447407945"><ele>151.25</ele><time>2026-05-01T15:14:54Z</time></trkpt><trkpt lat="48.58592069636931" lon="3.298200394543519"><ele>151.5</ele><time>2026-05-01T15:14:55Z</time></trkpt><trkpt lat="48.58590997111949" lon="3.2984236354498533"><ele>151.75</ele><time>2026-05-01T15:14:56Z</time></trkpt><trkpt lat="48.585893785966896" lon="3.298604842893276"><ele>152.0</ele><time>2026-05-01T15:14:57Z</time></trkpt><trkpt lat="48.58588966692536" lon="3.2987133330982257"><ele>152.0</ele><time>2026-05-01T15:14:58Z</time></trkpt><trkpt lat="48.58584245718196" lon="3.298827743645532"><ele>152.0</ele><time>2026-05-01T15:15:00Z</time></trkpt><trkpt lat="48.585705375312905" lon="3.2988137686246457"><ele>152.0</ele><time>2026-05-01T15:15:02Z</time></trkpt><trkpt lat="48.58559334532064" lon="3.298781562643334"><ele>152.0</ele><time>2026-05-01T15:15:03Z</time></trkpt><trkpt lat="48.585463620787195" lon="3.2987592812897835"><ele>152.25</ele><time>2026-05-01T15:15:04Z</time></trkpt><trkpt lat="48.585324864600146" lon="3.298738034215857"><ele>152.5</ele><time>2026-05-01T15:15:05Z</time></trkpt><trkpt lat="48.585177687925636" lon="3.2987184369079743"><ele>152.75</ele><time>2026-05-01T15:15:06Z</time></trkpt><trkpt lat="48.585023652861096" lon="3.298704328944671"><ele>153.0</ele><time>2026-05-01T15:15:07Z</time></trkpt><trkpt lat="48.584865666835306" lon="3.298674837324281"><ele>153.0</ele><time>2026-05-01T15:15:08Z</time></trkpt><trkpt lat="48.584706377906706" lon="3.2986596551085103"><ele>153.0</ele><time>2026-05-01T15:15:09Z</time></trkpt><trkpt lat="48.584551179160854" lon="3.298638171607026"><ele>153.0</ele><time>2026-05-01T15:15:10Z</time></trkpt><trkpt lat="48.584391942129976" lon="3.2986049510833024"><ele>153.33333333333334</ele><time>2026-05-01T15:15:11Z</time></trkpt><trkpt lat="48.58422232647024" lon="3.298588653548589"><ele>153.66666666666669</ele><time>2026-05-01T15:15:12Z</time></trkpt><trkpt lat="48.58405647977508" lon="3.2985732400272565"><ele>154.0</ele><time>2026-05-01T15:15:13Z</time></trkpt><trkpt lat="48.58389329935973" lon="3.298543710111204"><ele>154.0</ele><time>2026-05-01T15:15:14Z</time></trkpt><trkpt lat="48.58372718521658" lon="3.298533402420779"><ele>154.0</ele><time>2026-05-01T15:15:15Z</time></trkpt><trkpt lat="48.5835634047964" lon="3.2985088158049063"><ele>154.0</ele><time>2026-05-01T15:15:16Z</time></trkpt><trkpt lat="48.58339288129873" lon="3.298494644723778"><ele>155.0</ele><time>2026-05-01T15:15:17Z</time></trkpt><trkpt lat="48.58321964129456" lon="3.2984592589223594"><ele>156.0</ele><time>2026-05-01T15:15:18Z</time></trkpt><trkpt lat="48.58304058084531" lon="3.2984303463464077"><ele>157.0</ele><time>2026-05-01T15:15:19Z</time></trkpt><trkpt lat="48.58286994268044" lon="3.298405291780605"><ele>157.33333333333334</ele><time>2026-05-01T15:15:20Z</time></trkpt><trkpt lat="48.58269074204456" lon="3.2983763474095196"><ele>157.66666666666666</ele><time>2026-05-01T15:15:21Z</time></trkpt><trkpt lat="48.58252060965791" lon="3.298350380485505"><ele>158.0</ele><time>2026-05-01T15:15:22Z</time></trkpt><trkpt lat="48.5823888741278" lon="3.2983501575549483"><ele>158.0</ele><time>2026-05-01T15:15:23Z</time></trkpt><trkpt lat="48.58227540163604" lon="3.298351513834421"><ele>158.0</ele><time>2026-05-01T15:15:24Z</time></trkpt><trkpt lat="48.58196062428276" lon="3.2982488894048996"><ele>158.0</ele><time>2026-05-01T15:15:25Z</time></trkpt><trkpt lat="48.58176376181161" lon="3.298233943489913"><ele>157.0</ele><time>2026-05-01T15:15:26Z</time></trkpt><trkpt lat="48.58156306741685" lon="3.2981984886193856"><ele>156.0</ele><time>2026-05-01T15:15:27Z</time></trkpt><trkpt lat="48.58136091249235" lon="3.2981590876240623"><ele>155.0</ele><time>2026-05-01T15:15:28Z</time></trkpt><trkpt lat="48.58116128330377" lon="3.298125510254766"><ele>155.0</ele><time>2026-05-01T15:15:29Z</time></trkpt><trkpt lat="48.58097714863641" lon="3.2980986395838134"><ele>155.0</ele><time>2026-05-01T15:15:30Z</time></trkpt><trkpt lat="48.58081897485952" lon="3.298078314013941"><ele>155.0</ele><time>2026-05-01T15:15:31Z</time></trkpt><trkpt lat="48.58068129134795" lon="3.2980612071800004"><ele>155.2</ele><time>2026-05-01T15:15:32Z</time></trkpt><trkpt lat="48.580560635750366" lon="3.2980490465312653"><ele>155.4</ele><time>2026-05-01T15:15:33Z</time></trkpt><trkpt lat="48.58046340405533" lon="3.298023380554038"><ele>155.6</ele><time>2026-05-01T15:15:34Z</time></trkpt><trkpt lat="48.58038234946638" lon="3.2980117285572423"><ele>155.8</ele><time>2026-05-01T15:15:35Z</time></trkpt><trkpt lat="48.580283975558544" lon="3.2979938674210167"><ele>156.0</ele><time>2026-05-01T15:15:37Z</time></trkpt><trkpt lat="48.580225228694424" lon="3.298182505328412"><ele>156.25</ele><time>2026-05-01T15:15:39Z</time></trkpt><trkpt lat="48.5801923299073" lon="3.2983477804261887"><ele>156.5</ele><time>2026-05-01T15:15:40Z</time></trkpt><trkpt lat="48.58014369353" lon="3.2985209667213105"><ele>156.75</ele><time>2026-05-01T15:15:41Z</time></trkpt><trkpt lat="48.580086099722514" lon="3.2986997273555807"><ele>157.0</ele><time>2026-05-01T15:15:42Z</time></trkpt><trkpt lat="48.58002455272729" lon="3.2989008568929825"><ele>158.0</ele><time>2026-05-01T15:15:43Z</time></trkpt><trkpt lat="48.57996006017199" lon="3.29910880507398"><ele>159.0</ele><time>2026-05-01T15:15:44Z</time></trkpt><trkpt lat="48.579885179102995" lon="3.299318801167145"><ele>160.0</ele><time>2026-05-01T15:15:45Z</time></trkpt><trkpt lat="48.57981172212366" lon="3.299538797500224"><ele>160.66666666666669</ele><time>2026-05-01T15:15:46Z</time></trkpt><trkpt lat="48.57973267386701" lon="3.2997705863185662"><ele>161.33333333333334</ele><time>2026-05-01T15:15:47Z</time></trkpt><trkpt lat="48.57966285271386" lon="3.300000510510309"><ele>162.0</ele><time>2026-05-01T15:15:48Z</time></trkpt><trkpt lat="48.579586396985654" lon="3.3002296157591915"><ele>162.66666666666666</ele><time>2026-05-01T15:15:49Z</time></trkpt><trkpt lat="48.579503769835036" lon="3.300463537452172"><ele>163.33333333333331</ele><time>2026-05-01T15:15:50Z</time></trkpt><trkpt lat="48.57941416006653" lon="3.300699351520455"><ele>164.0</ele><time>2026-05-01T15:15:51Z</time></trkpt><trkpt lat="48.57935081397393" lon="3.300882395503801"><ele>164.0</ele><time>2026-05-01T15:15:52Z</time></trkpt><trkpt lat="48.5792865525845" lon="3.3010395065094706"><ele>164.0</ele><time>2026-05-01T15:15:53Z</time></trkpt><trkpt lat="48.57921486016382" lon="3.3012155607647826"><ele>164.0</ele><time>2026-05-01T15:15:54Z</time></trkpt><trkpt lat="48.5791334744621" lon="3.301383482299445"><ele>164.0</ele><time>2026-05-01T15:15:55Z</time></trkpt><trkpt lat="48.57904613564869" lon="3.301546137626134"><ele>163.75</ele><time>2026-05-01T15:15:56Z</time></trkpt><trkpt lat="48.57895340331733" lon="3.3017021095862282"><ele>163.5</ele><time>2026-05-01T15:15:57Z</time></trkpt><trkpt lat="48.57886487608603" lon="3.3018665601811357"><ele>163.25</ele><time>2026-05-01T15:15:58Z</time></trkpt><trkpt lat="48.578777475561296" lon="3.3020256249596627"><ele>163.0</ele><time>2026-05-01T15:15:59Z</time></trkpt><trkpt lat="48.57868190280952" lon="3.302179593238055"><ele>162.5</ele><time>2026-05-01T15:16:00Z</time></trkpt><trkpt lat="48.57858115672314" lon="3.302329025929269"><ele>162.0</ele><time>2026-05-01T15:16:01Z</time></trkpt><trkpt lat="48.57847746287786" lon="3.302470108086814"><ele>161.5</ele><time>2026-05-01T15:16:02Z</time></trkpt><trkpt lat="48.57836682201728" lon="3.3026025198127384"><ele>161.0</ele><time>2026-05-01T15:16:03Z</time></trkpt><trkpt lat="48.57825998824866" lon="3.302745340796839"><ele>161.0</ele><time>2026-05-01T15:16:04Z</time></trkpt><trkpt lat="48.578156158478386" lon="3.3028958722679977"><ele>161.0</ele><time>2026-05-01T15:16:05Z</time></trkpt><trkpt lat="48.57805645211265" lon="3.303048600009855"><ele>161.0</ele><time>2026-05-01T15:16:06Z</time></trkpt><trkpt lat="48.57796171622785" lon="3.303219958272155"><ele>161.0</ele><time>2026-05-01T15:16:07Z</time></trkpt><trkpt lat="48.57787014790454" lon="3.30342367961627"><ele>160.0</ele><time>2026-05-01T15:16:08Z</time></trkpt><trkpt lat="48.577789621214784" lon="3.303658581473356"><ele>159.0</ele><time>2026-05-01T15:16:09Z</time></trkpt><trkpt lat="48.577706925103" lon="3.303924283202163"><ele>158.0</ele><time>2026-05-01T15:16:10Z</time></trkpt><trkpt lat="48.57763331884672" lon="3.3041675470299814"><ele>157.66666666666666</ele><time>2026-05-01T15:16:11Z</time></trkpt><trkpt lat="48.57755757328975" lon="3.3043971949643165"><ele>157.33333333333334</ele><time>2026-05-01T15:16:12Z</time></trkpt><trkpt lat="48.57747009196607" lon="3.3046507941201497"><ele>157.0</ele><time>2026-05-01T15:16:13Z</time></trkpt><trkpt lat="48.57739881425008" lon="3.304871993729324"><ele>156.79999999999998</ele><time>2026-05-01T15:16:14Z</time></trkpt><trkpt lat="48.577328430916275" lon="3.3050525854288324"><ele>156.6</ele><time>2026-05-01T15:16:15Z</time></trkpt><trkpt lat="48.577268591080525" lon="3.305209979471456"><ele>156.39999999999998</ele><time>2026-05-01T15:16:16Z</time></trkpt><trkpt lat="48.57722214255848" lon="3.3053478697334655"><ele>156.2</ele><time>2026-05-01T15:16:17Z</time></trkpt><trkpt lat="48.57718011392164" lon="3.3054580908992253"><ele>156.0</ele><time>2026-05-01T15:16:18Z</time></trkpt><trkpt lat="48.57712737199666" lon="3.3055804095281136"><ele>155.5</ele><time>2026-05-01T15:16:20Z</time></trkpt><trkpt lat="48.577099368203136" lon="3.305679881350391"><ele>155.0</ele><time>2026-05-01T15:16:43Z</time></trkpt><trkpt lat="48.57703774457843" lon="3.305810103948535"><ele>154.5</ele><time>2026-05-01T15:16:44Z</time></trkpt><trkpt lat="48.57698265284307" lon="3.305991568388305"><ele>154.0</ele><time>2026-05-01T15:16:45Z</time></trkpt><trkpt lat="48.57691741746408" lon="3.3061970975275172"><ele>154.33333333333334</ele><time>2026-05-01T15:16:46Z</time></trkpt><trkpt lat="48.57684713448596" lon="3.306418401028932"><ele>154.66666666666666</ele><time>2026-05-01T15:16:47Z</time></trkpt><trkpt lat="48.576774691792096" lon="3.306648329390607"><ele>155.0</ele><time>2026-05-01T15:16:48Z</time></trkpt><trkpt lat="48.5766976676664" lon="3.306895375105352"><ele>155.0</ele><time>2026-05-01T15:16:49Z</time></trkpt><trkpt lat="48.57663481141198" lon="3.307101534341213"><ele>155.0</ele><time>2026-05-01T15:16:50Z</time></trkpt><trkpt lat="48.576578972189076" lon="3.3072846789214916"><ele>155.0</ele><time>2026-05-01T15:16:51Z</time></trkpt><trkpt lat="48.576529455720745" lon="3.3074470856328584"><ele>155.0</ele><time>2026-05-01T15:16:52Z</time></trkpt><trkpt lat="48.57648893824842" lon="3.3075843166888044"><ele>155.16666666666666</ele><time>2026-05-01T15:16:53Z</time></trkpt><trkpt lat="48.5764569162811" lon="3.3076981207788245"><ele>155.33333333333331</ele><time>2026-05-01T15:16:54Z</time></trkpt><trkpt lat="48.576432701987486" lon="3.3077937834376354"><ele>155.5</ele><time>2026-05-01T15:16:55Z</time></trkpt><trkpt lat="48.576407173067395" lon="3.3079319127310445"><ele>155.66666666666666</ele><time>2026-05-01T15:16:57Z</time></trkpt><trkpt lat="48.57639401727354" lon="3.308079715364053"><ele>155.83333333333334</ele><time>2026-05-01T15:17:01Z</time></trkpt><trkpt lat="48.57639083679679" lon="3.3081822365224465"><ele>156.0</ele><time>2026-05-01T15:17:02Z</time></trkpt><trkpt lat="48.5763638441374" lon="3.3082987813604547"><ele>156.0</ele><time>2026-05-01T15:17:03Z</time></trkpt><trkpt lat="48.57633603152269" lon="3.308419605280893"><ele>156.0</ele><time>2026-05-01T15:17:04Z</time></trkpt><trkpt lat="48.57631416062842" lon="3.3085541171728927"><ele>156.0</ele><time>2026-05-01T15:17:05Z</time></trkpt><trkpt lat="48.576291484005026" lon="3.3086935836628517"><ele>156.0</ele><time>2026-05-01T15:17:06Z</time></trkpt><trkpt lat="48.576268112471475" lon="3.308837324137949"><ele>156.0</ele><time>2026-05-01T15:17:07Z</time></trkpt><trkpt lat="48.576244745797496" lon="3.3089848898577636"><ele>156.0</ele><time>2026-05-01T15:17:08Z</time></trkpt><trkpt lat="48.576220729071316" lon="3.3091358594629803"><ele>156.0</ele><time>2026-05-01T15:17:09Z</time></trkpt><trkpt lat="48.57619486396898" lon="3.309289818428416"><ele>156.0</ele><time>2026-05-01T15:17:10Z</time></trkpt><trkpt lat="48.57616911609987" lon="3.309445729629938"><ele>156.0</ele><time>2026-05-01T15:17:11Z</time></trkpt><trkpt lat="48.576144013134574" lon="3.3096029487566594"><ele>156.0</ele><time>2026-05-01T15:17:12Z</time></trkpt><trkpt lat="48.576118928640994" lon="3.309758981055146"><ele>156.0</ele><time>2026-05-01T15:17:13Z</time></trkpt><trkpt lat="48.57609277592803" lon="3.3099128602367673"><ele>156.0</ele><time>2026-05-01T15:17:14Z</time></trkpt><trkpt lat="48.57606599913762" lon="3.3100632698683334"><ele>156.0</ele><time>2026-05-01T15:17:15Z</time></trkpt><trkpt lat="48.57604196099512" lon="3.3101977879825615"><ele>156.0</ele><time>2026-05-01T15:17:16Z</time></trkpt><trkpt lat="48.57602237065704" lon="3.3103026282220775"><ele>156.0</ele><time>2026-05-01T15:17:17Z</time></trkpt><trkpt lat="48.57598717848622" lon="3.3104524516455105"><ele>156.2</ele><time>2026-05-01T15:17:19Z</time></trkpt><trkpt lat="48.576129142947316" lon="3.310611140675153"><ele>156.39999999999998</ele><time>2026-05-01T15:17:21Z</time></trkpt><trkpt lat="48.57619982135522" lon="3.3106035776659892"><ele>156.6</ele><time>2026-05-01T15:17:22Z</time></trkpt><trkpt lat="48.57626844696099" lon="3.31062367480388"><ele>156.79999999999998</ele><time>2026-05-01T15:17:23Z</time></trkpt><trkpt lat="48.576337944695446" lon="3.310624300423284"><ele>157.0</ele><time>2026-05-01T15:17:24Z</time></trkpt><trkpt lat="48.576413916776445" lon="3.310627079826014"><ele>157.0</ele><time>2026-05-01T15:17:25Z</time></trkpt><trkpt lat="48.57649299441899" lon="3.310630301291954"><ele>157.0</ele><time>2026-05-01T15:17:26Z</time></trkpt><trkpt lat="48.57657598300985" lon="3.310640167436496"><ele>157.0</ele><time>2026-05-01T15:17:27Z</time></trkpt><trkpt lat="48.57666155885496" lon="3.310647809240216"><ele>157.0</ele><time>2026-05-01T15:17:28Z</time></trkpt><trkpt lat="48.57674202809751" lon="3.3106842636972553"><ele>157.0</ele><time>2026-05-01T15:17:29Z</time></trkpt><trkpt lat="48.576831931310196" lon="3.3106666289944107"><ele>157.0</ele><time>2026-05-01T15:17:30Z</time></trkpt><trkpt lat="48.576921464467915" lon="3.3106808927553177"><ele>157.0</ele><time>2026-05-01T15:17:31Z</time></trkpt><trkpt lat="48.57700749028794" lon="3.310691735283326"><ele>157.0</ele><time>2026-05-01T15:17:32Z</time></trkpt><trkpt lat="48.57709597918851" lon="3.310702016688832"><ele>157.0</ele><time>2026-05-01T15:17:33Z</time></trkpt><trkpt lat="48.577187457616844" lon="3.3107139750257604"><ele>157.0</ele><time>2026-05-01T15:17:34Z</time></trkpt><trkpt lat="48.577281758104995" lon="3.310727696925351"><ele>157.0</ele><time>2026-05-01T15:17:35Z</time></trkpt><trkpt lat="48.57737952866654" lon="3.310733916764792"><ele>157.0</ele><time>2026-05-01T15:17:36Z</time></trkpt><trkpt lat="48.57748244055007" lon="3.3107419040994617"><ele>157.0</ele><time>2026-05-01T15:17:37Z</time></trkpt><trkpt lat="48.57759040841302" lon="3.310758571590172"><ele>157.0</ele><time>2026-05-01T15:17:38Z</time></trkpt><trkpt lat="48.57770048527785" lon="3.310773818567124"><ele>157.0</ele><time>2026-05-01T15:17:39Z</time></trkpt><trkpt lat="48.57781129184403" lon="3.3108004723637396"><ele>157.0</ele><time>2026-05-01T15:17:40Z</time></trkpt><trkpt lat="48.57792462653285" lon="3.3108284617799506"><ele>157.25</ele><time>2026-05-01T15:17:41Z</time></trkpt><trkpt lat="48.57804410376353" lon="3.3108594114360677"><ele>157.5</ele><time>2026-05-01T15:17:42Z</time></trkpt><trkpt lat="48.57816902088676" lon="3.3109065097290076"><ele>157.75</ele><time>2026-05-01T15:17:43Z</time></trkpt><trkpt lat="48.57830981502111" lon="3.310959007366563"><ele>158.0</ele><time>2026-05-01T15:17:44Z</time></trkpt><trkpt lat="48.5784511328791" lon="3.311019206915874"><ele>158.0</ele><time>2026-05-01T15:17:45Z</time></trkpt><trkpt lat="48.57859802356618" lon="3.3110778211154295"><ele>158.0</ele><time>2026-05-01T15:17:46Z</time></trkpt><trkpt lat="48.57874728548488" lon="3.311130587489718"><ele>158.0</ele><time>2026-05-01T15:17:47Z</time></trkpt><trkpt lat="48.57889832250329" lon="3.3111821401244272"><ele>158.33333333333331</ele><time>2026-05-01T15:17:48Z</time></trkpt><trkpt lat="48.5790460856241" lon="3.311237667503904"><ele>158.66666666666666</ele><time>2026-05-01T15:17:49Z</time></trkpt><trkpt lat="48.57920157010423" lon="3.311277552130172"><ele>159.0</ele><time>2026-05-01T15:17:50Z</time></trkpt><trkpt lat="48.579351414273475" lon="3.31130616051496"><ele>159.0</ele><time>2026-05-01T15:17:51Z</time></trkpt><trkpt lat="48.57950769846536" lon="3.311314483641357"><ele>159.0</ele><time>2026-05-01T15:17:52Z</time></trkpt><trkpt lat="48.57966131736179" lon="3.3113468941006206"><ele>159.0</ele><time>2026-05-01T15:17:53Z</time></trkpt><trkpt lat="48.579816667582605" lon="3.3113602655128416"><ele>159.66666666666666</ele><time>2026-05-01T15:17:54Z</time></trkpt><trkpt lat="48.57997349818552" lon="3.311374353240536"><ele>160.33333333333331</ele><time>2026-05-01T15:17:55Z</time></trkpt><trkpt lat="48.58012492985598" lon="3.311384924419"><ele>161.0</ele><time>2026-05-01T15:17:56Z</time></trkpt><trkpt lat="48.58028614142838" lon="3.3114204624276313"><ele>162.0</ele><time>2026-05-01T15:17:57Z</time></trkpt><trkpt lat="48.58044086076278" lon="3.311425812081883"><ele>163.0</ele><time>2026-05-01T15:17:58Z</time></trkpt><trkpt lat="48.58059195796285" lon="3.3114389363171384"><ele>164.0</ele><time>2026-05-01T15:17:59Z</time></trkpt><trkpt lat="48.580747782031885" lon="3.311427845339063"><ele>164.0</ele><time>2026-05-01T15:18:00Z</time></trkpt><trkpt lat="48.58090443725798" lon="3.3114097712162636"><ele>164.0</ele><time>2026-05-01T15:18:01Z</time></trkpt><trkpt lat="48.581068577578094" lon="3.3114537644550683"><ele>164.0</ele><time>2026-05-01T15:18:02Z</time></trkpt><trkpt lat="48.58122870679553" lon="3.3114363179533286"><ele>164.2</ele><time>2026-05-01T15:18:03Z</time></trkpt><trkpt lat="48.58129413886161" lon="3.3115060401392125"><ele>164.39999999999998</ele><time>2026-05-01T15:18:04Z</time></trkpt><trkpt lat="48.58139007952995" lon="3.311508272002241"><ele>164.6</ele><time>2026-05-01T15:18:05Z</time></trkpt><trkpt lat="48.58149533818433" lon="3.3115124704931334"><ele>164.8</ele><time>2026-05-01T15:18:06Z</time></trkpt><trkpt lat="48.58160498206018" lon="3.3115077333666245"><ele>165.0</ele><time>2026-05-01T15:18:07Z</time></trkpt><trkpt lat="48.58171576144179" lon="3.31149363508531"><ele>165.0</ele><time>2026-05-01T15:18:08Z</time></trkpt><trkpt lat="48.58182751966885" lon="3.3114777280818184"><ele>165.0</ele><time>2026-05-01T15:18:09Z</time></trkpt><trkpt lat="48.58193805866027" lon="3.3114616165910977"><ele>165.0</ele><time>2026-05-01T15:18:10Z</time></trkpt><trkpt lat="48.582027758409644" lon="3.3114427643178006"><ele>165.0</ele><time>2026-05-01T15:18:11Z</time></trkpt><trkpt lat="48.58210891431589" lon="3.3114440030445706"><ele>165.0</ele><time>2026-05-01T15:18:13Z</time></trkpt><trkpt lat="48.582138755453926" lon="3.3115448057331003"><ele>165.0</ele><time>2026-05-01T15:18:16Z</time></trkpt><trkpt lat="48.58210914176397" lon="3.3116483712160845"><ele>165.0</ele><time>2026-05-01T15:18:17.001Z</time></trkpt><trkpt lat="48.58205935014482" lon="3.311797643082785"><ele>165.0</ele><time>2026-05-01T15:18:18.001Z</time></trkpt><trkpt lat="48.58200527744203" lon="3.311972572975965"><ele>165.0</ele><time>2026-05-01T15:18:19.001Z</time></trkpt><trkpt lat="48.581940786002875" lon="3.3121596112152534"><ele>165.66666666666666</ele><time>2026-05-01T15:18:20.001Z</time></trkpt><trkpt lat="48.581879324391906" lon="3.3123456469588346"><ele>166.33333333333331</ele><time>2026-05-01T15:18:21.001Z</time></trkpt><trkpt lat="48.58181047153456" lon="3.3125468677626073"><ele>167.0</ele><time>2026-05-01T15:18:22.001Z</time></trkpt><trkpt lat="48.58174070224853" lon="3.3127714329411617"><ele>167.0</ele><time>2026-05-01T15:18:23.001Z</time></trkpt><trkpt lat="48.58166436489459" lon="3.313001096064233"><ele>167.0</ele><time>2026-05-01T15:18:24Z</time></trkpt><trkpt lat="48.58158252406899" lon="3.3132467619810617"><ele>167.0</ele><time>2026-05-01T15:18:25Z</time></trkpt><trkpt lat="48.58149380747831" lon="3.3134984705243418"><ele>166.33333333333331</ele><time>2026-05-01T15:18:26Z</time></trkpt><trkpt lat="48.58140543562403" lon="3.3137882756640407"><ele>165.66666666666666</ele><time>2026-05-01T15:18:27Z</time></trkpt><trkpt lat="48.5813144362934" lon="3.3140646754985745"><ele>165.0</ele><time>2026-05-01T15:18:28Z</time></trkpt><trkpt lat="48.581220482189885" lon="3.314347859063303"><ele>163.66666666666666</ele><time>2026-05-01T15:18:29Z</time></trkpt><trkpt lat="48.5811294625341" lon="3.3146295919446764"><ele>162.33333333333331</ele><time>2026-05-01T15:18:30Z</time></trkpt><trkpt lat="48.581039595449596" lon="3.314922930716671"><ele>161.0</ele><time>2026-05-01T15:18:31Z</time></trkpt><trkpt lat="48.580945544135595" lon="3.3152186251129683"><ele>160.66666666666666</ele><time>2026-05-01T15:18:32Z</time></trkpt><trkpt lat="48.58084933718656" lon="3.315518582330427"><ele>160.33333333333334</ele><time>2026-05-01T15:18:33Z</time></trkpt><trkpt lat="48.580748295774406" lon="3.315811198105631"><ele>160.0</ele><time>2026-05-01T15:18:34Z</time></trkpt><trkpt lat="48.580652117141824" lon="3.3161128761210343"><ele>159.0</ele><time>2026-05-01T15:18:35Z</time></trkpt><trkpt lat="48.58055644037589" lon="3.3164150988245336"><ele>158.0</ele><time>2026-05-01T15:18:36Z</time></trkpt><trkpt lat="48.58046356275597" lon="3.3166974586008524"><ele>157.0</ele><time>2026-05-01T15:18:37Z</time></trkpt><trkpt lat="48.580384640461745" lon="3.3169436101110583"><ele>157.33333333333334</ele><time>2026-05-01T15:18:38Z</time></trkpt><trkpt lat="48.58031126444296" lon="3.31716309966278"><ele>157.66666666666666</ele><time>2026-05-01T15:18:39Z</time></trkpt><trkpt lat="48.580245585365226" lon="3.317367824996895"><ele>158.0</ele><time>2026-05-01T15:18:40Z</time></trkpt><trkpt lat="48.580179475440545" lon="3.3175759777863667"><ele>157.6</ele><time>2026-05-01T15:18:41Z</time></trkpt><trkpt lat="48.5801224197262" lon="3.317763877831618"><ele>157.20000000000002</ele><time>2026-05-01T15:18:42Z</time></trkpt><trkpt lat="48.5800757016479" lon="3.3179250812607677"><ele>156.8</ele><time>2026-05-01T15:18:43Z</time></trkpt><trkpt lat="48.580032005196806" lon="3.3180546995196685"><ele>156.4</ele><time>2026-05-01T15:18:44Z</time></trkpt><trkpt lat="48.58000247862225" lon="3.318141897494526"><ele>156.0</ele><time>2026-05-01T15:18:45Z</time></trkpt><trkpt lat="48.58000510584677" lon="3.3182473218635193"><ele>156.0</ele><time>2026-05-01T15:18:53Z</time></trkpt><trkpt lat="48.58006013060272" lon="3.318321407112634"><ele>156.0</ele><time>2026-05-01T15:18:54Z</time></trkpt><trkpt lat="48.58016566680777" lon="3.3183873213307287"><ele>156.0</ele><time>2026-05-01T15:18:55Z</time></trkpt><trkpt lat="48.58028341809333" lon="3.3184840894596825"><ele>156.0</ele><time>2026-05-01T15:18:56Z</time></trkpt><trkpt lat="48.5804049942858" lon="3.318612872087433"><ele>156.0</ele><time>2026-05-01T15:18:57Z</time></trkpt><trkpt lat="48.58054993190873" lon="3.3187165579458817"><ele>156.0</ele><time>2026-05-01T15:18:58Z</time></trkpt><trkpt lat="48.58069971097249" lon="3.318848665437224"><ele>156.0</ele><time>2026-05-01T15:18:59Z</time></trkpt><trkpt lat="48.58086821823601" lon="3.3189843356151263"><ele>156.0</ele><time>2026-05-01T15:19:00Z</time></trkpt><trkpt lat="48.581019670670024" lon="3.3191205599301847"><ele>156.0</ele><time>2026-05-01T15:19:01Z</time></trkpt><trkpt lat="48.58118844712377" lon="3.3192635246675066"><ele>156.0</ele><time>2026-05-01T15:19:02Z</time></trkpt><trkpt lat="48.58136744231198" lon="3.31941718024751"><ele>156.0</ele><time>2026-05-01T15:19:03Z</time></trkpt><trkpt lat="48.58154794834358" lon="3.3195739371248787"><ele>156.0</ele><time>2026-05-01T15:19:04Z</time></trkpt><trkpt lat="48.581734334178655" lon="3.3197310903830353"><ele>156.0</ele><time>2026-05-01T15:19:05Z</time></trkpt><trkpt lat="48.58192113577948" lon="3.319893048946641"><ele>156.33333333333334</ele><time>2026-05-01T15:19:06Z</time></trkpt><trkpt lat="48.582109506390175" lon="3.320056968090729"><ele>156.66666666666669</ele><time>2026-05-01T15:19:07Z</time></trkpt><trkpt lat="48.58230168931264" lon="3.320219551233376"><ele>157.0</ele><time>2026-05-01T15:19:08Z</time></trkpt><trkpt lat="48.5824973777418" lon="3.3203835595052427"><ele>157.0</ele><time>2026-05-01T15:19:09Z</time></trkpt><trkpt lat="48.58268526857148" lon="3.320566392792269"><ele>157.0</ele><time>2026-05-01T15:19:10Z</time></trkpt><trkpt lat="48.58286373372865" lon="3.320719512854435"><ele>157.0</ele><time>2026-05-01T15:19:11Z</time></trkpt><trkpt lat="48.58301960310872" lon="3.320853246408072"><ele>157.75</ele><time>2026-05-01T15:19:12Z</time></trkpt><trkpt lat="48.58315360954403" lon="3.3209412246330983"><ele>158.5</ele><time>2026-05-01T15:19:13Z</time></trkpt><trkpt lat="48.58325446386351" lon="3.3210555053487036"><ele>159.25</ele><time>2026-05-01T15:19:14Z</time></trkpt><trkpt lat="48.58335113833895" lon="3.321139338778504"><ele>160.0</ele><time>2026-05-01T15:19:15Z</time></trkpt><trkpt lat="48.5834347138033" lon="3.3212118128231776"><ele>160.0</ele><time>2026-05-01T15:19:16Z</time></trkpt><trkpt lat="48.583511478769694" lon="3.3212783809004742"><ele>160.0</ele><time>2026-05-01T15:19:17Z</time></trkpt><trkpt lat="48.58357207600054" lon="3.321386466077355"><ele>160.0</ele><time>2026-05-01T15:19:19Z</time></trkpt><trkpt lat="48.583439262352385" lon="3.3215345229783195"><ele>160.0</ele><time>2026-05-01T15:19:21Z</time></trkpt><trkpt lat="48.58334914901391" lon="3.321669963329913"><ele>160.0</ele><time>2026-05-01T15:19:22Z</time></trkpt><trkpt lat="48.583249755812595" lon="3.321818584457533"><ele>160.0</ele><time>2026-05-01T15:19:23Z</time></trkpt><trkpt lat="48.58314325583061" lon="3.321981419884719"><ele>160.0</ele><time>2026-05-01T15:19:24Z</time></trkpt><trkpt lat="48.58302820334194" lon="3.322152749615152"><ele>160.0</ele><time>2026-05-01T15:19:25Z</time></trkpt><trkpt lat="48.582904953972665" lon="3.3223320392712643"><ele>160.0</ele><time>2026-05-01T15:19:26Z</time></trkpt><trkpt lat="48.58277484304578" lon="3.3225207064070537"><ele>160.0</ele><time>2026-05-01T15:19:27Z</time></trkpt><trkpt lat="48.58264292731328" lon="3.3227119902957005"><ele>159.33333333333334</ele><time>2026-05-01T15:19:28Z</time></trkpt><trkpt lat="48.58250816041414" lon="3.322915247487636"><ele>158.66666666666666</ele><time>2026-05-01T15:19:29Z</time></trkpt><trkpt lat="48.58237060846831" lon="3.3231279337031694"><ele>158.0</ele><time>2026-05-01T15:19:30Z</time></trkpt><trkpt lat="48.582227715923715" lon="3.323348877684383"><ele>158.0</ele><time>2026-05-01T15:19:31Z</time></trkpt><trkpt lat="48.58208714825324" lon="3.323566226879911"><ele>158.0</ele><time>2026-05-01T15:19:32Z</time></trkpt><trkpt lat="48.581954189285774" lon="3.3237679933113458"><ele>158.0</ele><time>2026-05-01T15:19:33Z</time></trkpt><trkpt lat="48.581832271110265" lon="3.3239485672781792"><ele>158.33333333333331</ele><time>2026-05-01T15:19:34Z</time></trkpt><trkpt lat="48.58170782084524" lon="3.324130272837353"><ele>158.66666666666666</ele><time>2026-05-01T15:19:35Z</time></trkpt><trkpt lat="48.581575278751096" lon="3.3243330806941254"><ele>159.0</ele><time>2026-05-01T15:19:36Z</time></trkpt><trkpt lat="48.581444824837185" lon="3.3245268106839614"><ele>159.0</ele><time>2026-05-01T15:19:37Z</time></trkpt><trkpt lat="48.581308711860785" lon="3.3246898081705054"><ele>159.0</ele><time>2026-05-01T15:19:38Z</time></trkpt><trkpt lat="48.581156742349314" lon="3.324836477593431"><ele>159.0</ele><time>2026-05-01T15:19:39Z</time></trkpt><trkpt lat="48.580992050325264" lon="3.3249840450922936"><ele>158.33333333333334</ele><time>2026-05-01T15:19:40Z</time></trkpt><trkpt lat="48.58082989456206" lon="3.3251298457003275"><ele>157.66666666666669</ele><time>2026-05-01T15:19:41Z</time></trkpt><trkpt lat="48.58070300275688" lon="3.3252467170784934"><ele>157.0</ele><time>2026-05-01T15:19:42Z</time></trkpt><trkpt lat="48.5805893338838" lon="3.325351763600354"><ele>157.0</ele><time>2026-05-01T15:19:43Z</time></trkpt><trkpt lat="48.580492121757246" lon="3.3254462901719104"><ele>157.0</ele><time>2026-05-01T15:19:44Z</time></trkpt><trkpt lat="48.58040358806917" lon="3.3255363537312905"><ele>157.0</ele><time>2026-05-01T15:19:45Z</time></trkpt><trkpt lat="48.580335979321156" lon="3.325599976978432"><ele>157.0</ele><time>2026-05-01T15:19:46Z</time></trkpt><trkpt lat="48.58024915198662" lon="3.3256829015090883"><ele>157.0</ele><time>2026-05-01T15:19:48Z</time></trkpt><trkpt lat="48.58017780767552" lon="3.325714419981726"><ele>156.66666666666669</ele><time>2026-05-01T15:19:50Z</time></trkpt><trkpt lat="48.580327243151274" lon="3.3259668974186996"><ele>156.33333333333334</ele><time>2026-05-01T15:19:52Z</time></trkpt><trkpt lat="48.58041043533935" lon="3.3260990986834584"><ele>156.0</ele><time>2026-05-01T15:19:53Z</time></trkpt><trkpt lat="48.58049113842139" lon="3.3262524292823534"><ele>156.75</ele><time>2026-05-01T15:19:54Z</time></trkpt><trkpt lat="48.580583097427564" lon="3.3264001011041393"><ele>157.5</ele><time>2026-05-01T15:19:55Z</time></trkpt><trkpt lat="48.58068598238133" lon="3.3265501222454255"><ele>158.25</ele><time>2026-05-01T15:19:56Z</time></trkpt><trkpt lat="48.580805396164045" lon="3.3266944718525733"><ele>159.0</ele><time>2026-05-01T15:19:57Z</time></trkpt><trkpt lat="48.5809404580272" lon="3.3268169041222593"><ele>159.0</ele><time>2026-05-01T15:19:58Z</time></trkpt><trkpt lat="48.581098507211436" lon="3.3268980488679425"><ele>159.0</ele><time>2026-05-01T15:19:59Z</time></trkpt><trkpt lat="48.581254747510485" lon="3.3269673355164966"><ele>159.0</ele><time>2026-05-01T15:20:00.001Z</time></trkpt><trkpt lat="48.581414157253924" lon="3.3270640572680756"><ele>159.33333333333334</ele><time>2026-05-01T15:20:01.001Z</time></trkpt><trkpt lat="48.58154495979841" lon="3.3271488554276556"><ele>159.66666666666669</ele><time>2026-05-01T15:20:02.001Z</time></trkpt><trkpt lat="48.58167348275484" lon="3.327282919834754"><ele>160.0</ele><time>2026-05-01T15:20:03.001Z</time></trkpt><trkpt lat="48.58179856341465" lon="3.32745737616759"><ele>159.33333333333334</ele><time>2026-05-01T15:20:04.001Z</time></trkpt><trkpt lat="48.581935131002744" lon="3.327634058808641"><ele>158.66666666666666</ele><time>2026-05-01T15:20:05.001Z</time></trkpt><trkpt lat="48.582075006736304" lon="3.3278113654558656"><ele>158.0</ele><time>2026-05-01T15:20:06.001Z</time></trkpt><trkpt lat="48.582222765339296" lon="3.327993243393467"><ele>157.66666666666666</ele><time>2026-05-01T15:20:07.001Z</time></trkpt><trkpt lat="48.58236847596352" lon="3.3281769957007534"><ele>157.33333333333334</ele><time>2026-05-01T15:20:08.001Z</time></trkpt><trkpt lat="48.582525179037454" lon="3.328350961194724"><ele>157.0</ele><time>2026-05-01T15:20:09.001Z</time></trkpt><trkpt lat="48.58268663085376" lon="3.3285270073592472"><ele>157.0</ele><time>2026-05-01T15:20:10.001Z</time></trkpt><trkpt lat="48.58284187940805" lon="3.328723149656686"><ele>157.0</ele><time>2026-05-01T15:20:11.001Z</time></trkpt><trkpt lat="48.5829922889139" lon="3.3289108292747467"><ele>157.0</ele><time>2026-05-01T15:20:12.001Z</time></trkpt><trkpt lat="48.583144885693656" lon="3.329099836118249"><ele>157.66666666666669</ele><time>2026-05-01T15:20:13.001Z</time></trkpt><trkpt lat="48.58330047001724" lon="3.3292836350643995"><ele>158.33333333333334</ele><time>2026-05-01T15:20:14.001Z</time></trkpt><trkpt lat="48.583443450281976" lon="3.3294750754359694"><ele>159.0</ele><time>2026-05-01T15:20:15.001Z</time></trkpt><trkpt lat="48.58358909097036" lon="3.3296593003543213"><ele>159.33333333333334</ele><time>2026-05-01T15:20:16.001Z</time></trkpt><trkpt lat="48.58373819089847" lon="3.3298315413408655"><ele>159.66666666666669</ele><time>2026-05-01T15:20:17.001Z</time></trkpt><trkpt lat="48.58387058878058" lon="3.3299780117810447"><ele>160.0</ele><time>2026-05-01T15:20:18.001Z</time></trkpt><trkpt lat="48.583996234937764" lon="3.330132146802808"><ele>160.0</ele><time>2026-05-01T15:20:19.001Z</time></trkpt><trkpt lat="48.58413059536917" lon="3.33030911461793"><ele>160.0</ele><time>2026-05-01T15:20:20.001Z</time></trkpt><trkpt lat="48.584261022662155" lon="3.3304768638647464"><ele>160.0</ele><time>2026-05-01T15:20:21.001Z</time></trkpt><trkpt lat="48.584368321167155" lon="3.330600065290351"><ele>160.25</ele><time>2026-05-01T15:20:22.001Z</time></trkpt><trkpt lat="48.58447309962557" lon="3.3307039351739474"><ele>160.5</ele><time>2026-05-01T15:20:23.001Z</time></trkpt><trkpt lat="48.58456373354982" lon="3.330820079636615"><ele>160.75</ele><time>2026-05-01T15:20:24.001Z</time></trkpt><trkpt lat="48.58462482414722" lon="3.330980665243205"><ele>161.0</ele><time>2026-05-01T15:20:25.001Z</time></trkpt><trkpt lat="48.584701268681734" lon="3.331152989919228"><ele>161.33333333333331</ele><time>2026-05-01T15:20:26.001Z</time></trkpt><trkpt lat="48.58478476056044" lon="3.3313519880371585"><ele>161.66666666666666</ele><time>2026-05-01T15:20:27.001Z</time></trkpt><trkpt lat="48.58486694284793" lon="3.3315618039788064"><ele>162.0</ele><time>2026-05-01T15:20:28.001Z</time></trkpt><trkpt lat="48.58495934094525" lon="3.3317645644109106"><ele>162.33333333333334</ele><time>2026-05-01T15:20:29.001Z</time></trkpt><trkpt lat="48.58504842444154" lon="3.331970087099433"><ele>162.66666666666669</ele><time>2026-05-01T15:20:30Z</time></trkpt><trkpt lat="48.5851321302169" lon="3.3322030255693385"><ele>163.0</ele><time>2026-05-01T15:20:31Z</time></trkpt><trkpt lat="48.58520710526605" lon="3.3324239246103984"><ele>163.66666666666669</ele><time>2026-05-01T15:20:32Z</time></trkpt><trkpt lat="48.58530115525949" lon="3.332631610413898"><ele>164.33333333333334</ele><time>2026-05-01T15:20:33Z</time></trkpt><trkpt lat="48.58540084094495" lon="3.332869351401858"><ele>165.0</ele><time>2026-05-01T15:20:34Z</time></trkpt><trkpt lat="48.58549458793845" lon="3.333098994220661"><ele>165.33333333333334</ele><time>2026-05-01T15:20:35Z</time></trkpt><trkpt lat="48.58557782472934" lon="3.3333189118111504"><ele>165.66666666666669</ele><time>2026-05-01T15:20:36Z</time></trkpt><trkpt lat="48.58567452476164" lon="3.3335590641308026"><ele>166.0</ele><time>2026-05-01T15:20:37Z</time></trkpt><trkpt lat="48.58576058065751" lon="3.33379035590124"><ele>166.0</ele><time>2026-05-01T15:20:38Z</time></trkpt><trkpt lat="48.58584865454478" lon="3.3340302157213193"><ele>166.0</ele><time>2026-05-01T15:20:39Z</time></trkpt><trkpt lat="48.585939133565766" lon="3.3342612375031684"><ele>166.0</ele><time>2026-05-01T15:20:40Z</time></trkpt><trkpt lat="48.586039604977614" lon="3.33448531742063"><ele>166.0</ele><time>2026-05-01T15:20:41Z</time></trkpt><trkpt lat="48.5861401497671" lon="3.334720768339248"><ele>166.0</ele><time>2026-05-01T15:20:42Z</time></trkpt><trkpt lat="48.58624103100182" lon="3.334961150493556"><ele>166.0</ele><time>2026-05-01T15:20:43Z</time></trkpt><trkpt lat="48.58634447614508" lon="3.335206561901422"><ele>166.33333333333334</ele><time>2026-05-01T15:20:44Z</time></trkpt><trkpt lat="48.586448242706076" lon="3.3354543938756276"><ele>166.66666666666666</ele><time>2026-05-01T15:20:45Z</time></trkpt><trkpt lat="48.58655475827505" lon="3.335704514897164"><ele>167.0</ele><time>2026-05-01T15:20:46Z</time></trkpt><trkpt lat="48.586661417037995" lon="3.335957200151993"><ele>167.0</ele><time>2026-05-01T15:20:47Z</time></trkpt><trkpt lat="48.586759389098724" lon="3.3361593150868205"><ele>167.0</ele><time>2026-05-01T15:20:48Z</time></trkpt><trkpt lat="48.5868285520868" lon="3.3363380562329823"><ele>167.0</ele><time>2026-05-01T15:20:49Z</time></trkpt><trkpt lat="48.586895085130486" lon="3.3364864234818477"><ele>167.0</ele><time>2026-05-01T15:20:50Z</time></trkpt><trkpt lat="48.586947390953206" lon="3.3366088005145556"><ele>166.8</ele><time>2026-05-01T15:20:51Z</time></trkpt><trkpt lat="48.586994461996866" lon="3.336706005817012"><ele>166.6</ele><time>2026-05-01T15:20:52Z</time></trkpt><trkpt lat="48.58696681254351" lon="3.336876366250422"><ele>166.4</ele><time>2026-05-01T15:20:54Z</time></trkpt><trkpt lat="48.58688271091565" lon="3.3369468396745448"><ele>166.20000000000002</ele><time>2026-05-01T15:20:55Z</time></trkpt><trkpt lat="48.58677214323988" lon="3.337024431151028"><ele>166.0</ele><time>2026-05-01T15:20:56Z</time></trkpt><trkpt lat="48.58665491595701" lon="3.3371377487653247"><ele>166.0</ele><time>2026-05-01T15:20:57Z</time></trkpt><trkpt lat="48.58652777407234" lon="3.337266101994725"><ele>166.0</ele><time>2026-05-01T15:20:58Z</time></trkpt><trkpt lat="48.58639776363693" lon="3.33741676135653"><ele>166.0</ele><time>2026-05-01T15:20:59Z</time></trkpt><trkpt lat="48.58627248076685" lon="3.33757875305589"><ele>165.33333333333334</ele><time>2026-05-01T15:21:00Z</time></trkpt><trkpt lat="48.58612446452934" lon="3.337746314063231"><ele>164.66666666666666</ele><time>2026-05-01T15:21:01Z</time></trkpt><trkpt lat="48.58596701498512" lon="3.3379142206408647"><ele>164.0</ele><time>2026-05-01T15:21:02Z</time></trkpt><trkpt lat="48.585805388775164" lon="3.3380809344532363"><ele>163.66666666666666</ele><time>2026-05-01T15:21:03Z</time></trkpt><trkpt lat="48.58564036322864" lon="3.338233256661227"><ele>163.33333333333334</ele><time>2026-05-01T15:21:04Z</time></trkpt><trkpt lat="48.58545699440951" lon="3.3383619617933697"><ele>163.0</ele><time>2026-05-01T15:21:05Z</time></trkpt><trkpt lat="48.585264444705935" lon="3.3384761187646843"><ele>163.0</ele><time>2026-05-01T15:21:06Z</time></trkpt><trkpt lat="48.58506555943912" lon="3.3385819378347077"><ele>163.0</ele><time>2026-05-01T15:21:07Z</time></trkpt><trkpt lat="48.58486407592842" lon="3.3386907541642374"><ele>163.0</ele><time>2026-05-01T15:21:08Z</time></trkpt><trkpt lat="48.58465876005608" lon="3.338799572595171"><ele>162.33333333333334</ele><time>2026-05-01T15:21:09Z</time></trkpt><trkpt lat="48.58446110583012" lon="3.3389107494284604"><ele>161.66666666666666</ele><time>2026-05-01T15:21:10Z</time></trkpt><trkpt lat="48.58428383900083" lon="3.3389918521074478"><ele>161.0</ele><time>2026-05-01T15:21:11Z</time></trkpt><trkpt lat="48.58412790517045" lon="3.339076616429684"><ele>161.0</ele><time>2026-05-01T15:21:12Z</time></trkpt><trkpt lat="48.58397996087028" lon="3.3391591318330947"><ele>161.0</ele><time>2026-05-01T15:21:13Z</time></trkpt><trkpt lat="48.583845198221255" lon="3.339227443687412"><ele>161.0</ele><time>2026-05-01T15:21:14Z</time></trkpt><trkpt lat="48.58372355295218" lon="3.3392985097248853"><ele>161.0</ele><time>2026-05-01T15:21:15Z</time></trkpt><trkpt lat="48.583613119533325" lon="3.3393487781633007"><ele>160.60000000000002</ele><time>2026-05-01T15:21:16Z</time></trkpt><trkpt lat="48.583518166897846" lon="3.339396916898095"><ele>160.20000000000002</ele><time>2026-05-01T15:21:17Z</time></trkpt><trkpt lat="48.58344749153428" lon="3.339447382417014"><ele>159.8</ele><time>2026-05-01T15:21:18Z</time></trkpt><trkpt lat="48.583387161298006" lon="3.339500086743814"><ele>159.4</ele><time>2026-05-01T15:21:20Z</time></trkpt><trkpt lat="48.58327016784851" lon="3.3395737023750685"><ele>159.0</ele><time>2026-05-01T15:21:22Z</time></trkpt><trkpt lat="48.58315822433367" lon="3.339651124407899"><ele>159.0</ele><time>2026-05-01T15:21:23Z</time></trkpt><trkpt lat="48.583076517753575" lon="3.3397038437541697"><ele>159.0</ele><time>2026-05-01T15:21:24Z</time></trkpt><trkpt lat="48.58295161021527" lon="3.3397926008122396"><ele>159.0</ele><time>2026-05-01T15:21:25Z</time></trkpt><trkpt lat="48.582823555162584" lon="3.3398819437943263"><ele>159.0</ele><time>2026-05-01T15:21:26Z</time></trkpt><trkpt lat="48.58268919617444" lon="3.339972063229193"><ele>158.33333333333334</ele><time>2026-05-01T15:21:27Z</time></trkpt><trkpt lat="48.58255510711997" lon="3.3400726200165547"><ele>157.66666666666669</ele><time>2026-05-01T15:21:28Z</time></trkpt><trkpt lat="48.58241753019538" lon="3.3401811705752262"><ele>157.0</ele><time>2026-05-01T15:21:29Z</time></trkpt><trkpt lat="48.5822828649249" lon="3.3403019879285494"><ele>157.0</ele><time>2026-05-01T15:21:30Z</time></trkpt><trkpt lat="48.582145908853015" lon="3.3404220442979744"><ele>157.0</ele><time>2026-05-01T15:21:31Z</time></trkpt><trkpt lat="48.58200861101028" lon="3.3405391039023"><ele>157.0</ele><time>2026-05-01T15:21:32Z</time></trkpt><trkpt lat="48.58186414247117" lon="3.340637202385446"><ele>157.75</ele><time>2026-05-01T15:21:33Z</time></trkpt><trkpt lat="48.58172890287893" lon="3.340753770017989"><ele>158.5</ele><time>2026-05-01T15:21:34Z</time></trkpt><trkpt lat="48.58159084829735" lon="3.3408384747855884"><ele>159.25</ele><time>2026-05-01T15:21:35Z</time></trkpt><trkpt lat="48.58145234968535" lon="3.340901357554952"><ele>160.0</ele><time>2026-05-01T15:21:36Z</time></trkpt><trkpt lat="48.58133020755942" lon="3.3409558178662313"><ele>160.0</ele><time>2026-05-01T15:21:37Z</time></trkpt><trkpt lat="48.58123249898679" lon="3.341006940383906"><ele>160.0</ele><time>2026-05-01T15:21:38Z</time></trkpt><trkpt lat="48.581144882734286" lon="3.3410550808240314"><ele>160.0</ele><time>2026-05-01T15:21:39Z</time></trkpt><trkpt lat="48.58104285662789" lon="3.34111374761588"><ele>160.0</ele><time>2026-05-01T15:21:40Z</time></trkpt><trkpt lat="48.58092800706509" lon="3.341178828148594"><ele>160.0</ele><time>2026-05-01T15:21:41Z</time></trkpt><trkpt lat="48.5808011280262" lon="3.3412476211849094"><ele>160.33333333333334</ele><time>2026-05-01T15:21:42Z</time></trkpt><trkpt lat="48.580656273492444" lon="3.3413194326533464"><ele>160.66666666666666</ele><time>2026-05-01T15:21:43Z</time></trkpt><trkpt lat="48.58050706632782" lon="3.3414026309383376"><ele>161.0</ele><time>2026-05-01T15:21:44Z</time></trkpt><trkpt lat="48.58034674530595" lon="3.341493031936953"><ele>161.66666666666666</ele><time>2026-05-01T15:21:45Z</time></trkpt><trkpt lat="48.58017452836977" lon="3.3415838191006055"><ele>162.33333333333334</ele><time>2026-05-01T15:21:46Z</time></trkpt><trkpt lat="48.58000744110362" lon="3.3416762519462915"><ele>163.0</ele><time>2026-05-01T15:21:47Z</time></trkpt><trkpt lat="48.57983085737886" lon="3.3417649927962176"><ele>163.0</ele><time>2026-05-01T15:21:48Z</time></trkpt><trkpt lat="48.57965175916664" lon="3.3418566526112015"><ele>163.0</ele><time>2026-05-01T15:21:49Z</time></trkpt><trkpt lat="48.57946957273036" lon="3.34194948434268"><ele>163.0</ele><time>2026-05-01T15:21:50Z</time></trkpt><trkpt lat="48.579283386106" lon="3.342033604665227"><ele>163.33333333333334</ele><time>2026-05-01T15:21:51Z</time></trkpt><trkpt lat="48.57909470770521" lon="3.3421212295123333"><ele>163.66666666666666</ele><time>2026-05-01T15:21:52Z</time></trkpt><trkpt lat="48.57890934506082" lon="3.342232519373358"><ele>164.0</ele><time>2026-05-01T15:21:53Z</time></trkpt><trkpt lat="48.57871782903933" lon="3.342335470265475"><ele>165.0</ele><time>2026-05-01T15:21:54Z</time></trkpt><trkpt lat="48.57852332138521" lon="3.342433094378433"><ele>166.0</ele><time>2026-05-01T15:21:55Z</time></trkpt><trkpt lat="48.578328444626635" lon="3.342525863510465"><ele>167.0</ele><time>2026-05-01T15:21:56Z</time></trkpt><trkpt lat="48.578161807979015" lon="3.342618083919936"><ele>167.0</ele><time>2026-05-01T15:21:57Z</time></trkpt><trkpt lat="48.57800713601188" lon="3.3426995721523762"><ele>167.0</ele><time>2026-05-01T15:21:58Z</time></trkpt><trkpt lat="48.57784680684764" lon="3.342789151293947"><ele>167.0</ele><time>2026-05-01T15:21:59Z</time></trkpt><trkpt lat="48.57767791418056" lon="3.342884684535511"><ele>167.0</ele><time>2026-05-01T15:22:00.001Z</time></trkpt><trkpt lat="48.577503737533426" lon="3.342992831043949"><ele>167.0</ele><time>2026-05-01T15:22:01.001Z</time></trkpt><trkpt lat="48.577323224056634" lon="3.3430929437265653"><ele>167.0</ele><time>2026-05-01T15:22:02.001Z</time></trkpt><trkpt lat="48.57713904695387" lon="3.343203008769627"><ele>166.33333333333331</ele><time>2026-05-01T15:22:03.001Z</time></trkpt><trkpt lat="48.57695126864319" lon="3.343324357362622"><ele>165.66666666666666</ele><time>2026-05-01T15:22:04.001Z</time></trkpt><trkpt lat="48.576758548710536" lon="3.343446419675065"><ele>165.0</ele><time>2026-05-01T15:22:05.001Z</time></trkpt><trkpt lat="48.57656971306784" lon="3.3435749292718304"><ele>165.0</ele><time>2026-05-01T15:22:06.001Z</time></trkpt><trkpt lat="48.57638380303451" lon="3.343721255816037"><ele>165.0</ele><time>2026-05-01T15:22:07.001Z</time></trkpt><trkpt lat="48.576201802209056" lon="3.343897224581642"><ele>165.0</ele><time>2026-05-01T15:22:08.001Z</time></trkpt><trkpt lat="48.57602416583679" lon="3.344089781847244"><ele>164.0</ele><time>2026-05-01T15:22:09.001Z</time></trkpt><trkpt lat="48.575876362526216" lon="3.3442626800463855"><ele>163.0</ele><time>2026-05-01T15:22:10.001Z</time></trkpt><trkpt lat="48.575735753247514" lon="3.344403710702806"><ele>162.0</ele><time>2026-05-01T15:22:11.001Z</time></trkpt><trkpt lat="48.575608793839656" lon="3.3445214666258183"><ele>162.0</ele><time>2026-05-01T15:22:12.001Z</time></trkpt><trkpt lat="48.57549848499005" lon="3.34461616956389"><ele>162.0</ele><time>2026-05-01T15:22:13.001Z</time></trkpt><trkpt lat="48.57539545291317" lon="3.344679335208686"><ele>162.0</ele><time>2026-05-01T15:22:14.001Z</time></trkpt><trkpt lat="48.57530741238146" lon="3.3447593481996303"><ele>162.0</ele><time>2026-05-01T15:22:15.001Z</time></trkpt><trkpt lat="48.57523096401748" lon="3.344843235032041"><ele>162.0</ele><time>2026-05-01T15:22:16.001Z</time></trkpt><trkpt lat="48.57516870703459" lon="3.3449182432642357"><ele>161.5</ele><time>2026-05-01T15:22:17.001Z</time></trkpt><trkpt lat="48.575118618273684" lon="3.3449901598668124"><ele>161.0</ele><time>2026-05-01T15:22:18.001Z</time></trkpt><trkpt lat="48.575035186905765" lon="3.345091781742566"><ele>160.5</ele><time>2026-05-01T15:22:20.001Z</time></trkpt><trkpt lat="48.57497341299446" lon="3.345151358702788"><ele>160.0</ele><time>2026-05-01T15:22:22.001Z</time></trkpt><trkpt lat="48.57488220739985" lon="3.3452573940817882"><ele>159.5</ele><time>2026-05-01T15:22:24.001Z</time></trkpt><trkpt lat="48.57482634683275" lon="3.345317742548514"><ele>159.0</ele><time>2026-05-01T15:22:25.001Z</time></trkpt><trkpt lat="48.574771011866204" lon="3.34537671025879"><ele>159.0</ele><time>2026-05-01T15:22:26.001Z</time></trkpt><trkpt lat="48.574663009361274" lon="3.3454816658506803"><ele>159.0</ele><time>2026-05-01T15:22:28.001Z</time></trkpt><trkpt lat="48.57456783060787" lon="3.345561363979165"><ele>159.0</ele><time>2026-05-01T15:22:31.001Z</time></trkpt><trkpt lat="48.57446898799647" lon="3.3456353017072926"><ele>159.0</ele><time>2026-05-01T15:22:33.001Z</time></trkpt><trkpt lat="48.574391863343344" lon="3.3456875011792473"><ele>159.0</ele><time>2026-05-01T15:22:34.001Z</time></trkpt><trkpt lat="48.57429990900141" lon="3.3457453619228565"><ele>158.5</ele><time>2026-05-01T15:22:35.001Z</time></trkpt><trkpt lat="48.57419215176578" lon="3.345811434898161"><ele>158.0</ele><time>2026-05-01T15:22:36.001Z</time></trkpt><trkpt lat="48.574073820724315" lon="3.3458810971506767"><ele>157.5</ele><time>2026-05-01T15:22:37.001Z</time></trkpt><trkpt lat="48.57394946290814" lon="3.3459611992899543"><ele>157.0</ele><time>2026-05-01T15:22:38.001Z</time></trkpt><trkpt lat="48.57382455653271" lon="3.346064945662695"><ele>157.0</ele><time>2026-05-01T15:22:39.001Z</time></trkpt><trkpt lat="48.57370296343776" lon="3.346191862327282"><ele>157.0</ele><time>2026-05-01T15:22:40.001Z</time></trkpt><trkpt lat="48.57357873712334" lon="3.3463178564156513"><ele>157.0</ele><time>2026-05-01T15:22:41.001Z</time></trkpt><trkpt lat="48.57344831237027" lon="3.346440585178272"><ele>156.33333333333334</ele><time>2026-05-01T15:22:42Z</time></trkpt><trkpt lat="48.573315475451935" lon="3.346560177538669"><ele>155.66666666666666</ele><time>2026-05-01T15:22:43Z</time></trkpt><trkpt lat="48.5731826564313" lon="3.3466873347470734"><ele>155.0</ele><time>2026-05-01T15:22:44Z</time></trkpt><trkpt lat="48.573046254806734" lon="3.3468108012736546"><ele>155.0</ele><time>2026-05-01T15:22:45Z</time></trkpt><trkpt lat="48.57290725636815" lon="3.346939360542427"><ele>155.0</ele><time>2026-05-01T15:22:46Z</time></trkpt><trkpt lat="48.572773050144626" lon="3.347054523285516"><ele>155.0</ele><time>2026-05-01T15:22:47Z</time></trkpt><trkpt lat="48.57265362694036" lon="3.3471661273326494"><ele>154.4</ele><time>2026-05-01T15:22:48Z</time></trkpt><trkpt lat="48.57254643202789" lon="3.3472593292282156"><ele>153.8</ele><time>2026-05-01T15:22:49Z</time></trkpt><trkpt lat="48.57245387587525" lon="3.3473451489460193"><ele>153.2</ele><time>2026-05-01T15:22:50Z</time></trkpt><trkpt lat="48.572375686638175" lon="3.3474216691069896"><ele>152.6</ele><time>2026-05-01T15:22:51Z</time></trkpt><trkpt lat="48.5723083769953" lon="3.347486596159314"><ele>152.0</ele><time>2026-05-01T15:22:52Z</time></trkpt><trkpt lat="48.5722310954589" lon="3.347493111995033"><ele>152.0</ele><time>2026-05-01T15:22:53Z</time></trkpt><trkpt lat="48.572174025682166" lon="3.347546846127542"><ele>152.0</ele><time>2026-05-01T15:22:55Z</time></trkpt><trkpt lat="48.572083771074226" lon="3.347631825491564"><ele>152.0</ele><time>2026-05-01T15:22:58Z</time></trkpt><trkpt lat="48.57201135194559" lon="3.347699371244177"><ele>152.0</ele><time>2026-05-01T15:22:59Z</time></trkpt><trkpt lat="48.57192035788454" lon="3.347781621824109"><ele>152.0</ele><time>2026-05-01T15:23:00Z</time></trkpt><trkpt lat="48.57182139245085" lon="3.3478689862259596"><ele>152.0</ele><time>2026-05-01T15:23:01Z</time></trkpt><trkpt lat="48.571721175298116" lon="3.34795745561647"><ele>152.0</ele><time>2026-05-01T15:23:02Z</time></trkpt><trkpt lat="48.57162292676771" lon="3.348044187151826"><ele>152.0</ele><time>2026-05-01T15:23:03Z</time></trkpt><trkpt lat="48.571523489176585" lon="3.3481319683631328"><ele>152.0</ele><time>2026-05-01T15:23:04Z</time></trkpt><trkpt lat="48.57142351698095" lon="3.3482201287435616"><ele>152.0</ele><time>2026-05-01T15:23:05Z</time></trkpt><trkpt lat="48.57132191080504" lon="3.348308843318462"><ele>152.0</ele><time>2026-05-01T15:23:06Z</time></trkpt><trkpt lat="48.57122062112474" lon="3.3483914000950525"><ele>152.0</ele><time>2026-05-01T15:23:07Z</time></trkpt><trkpt lat="48.57111632958207" lon="3.3484715726810133"><ele>152.0</ele><time>2026-05-01T15:23:08Z</time></trkpt><trkpt lat="48.57101540337605" lon="3.348545877395414"><ele>152.0</ele><time>2026-05-01T15:23:09Z</time></trkpt><trkpt lat="48.570921995064836" lon="3.348614013425497"><ele>152.0</ele><time>2026-05-01T15:23:10Z</time></trkpt><trkpt lat="48.57083965364767" lon="3.3486677106462266"><ele>152.0</ele><time>2026-05-01T15:23:11Z</time></trkpt><trkpt lat="48.57076408129945" lon="3.3487148783586576"><ele>152.0</ele><time>2026-05-01T15:23:12Z</time></trkpt><trkpt lat="48.570693378339904" lon="3.348758917576397"><ele>152.0</ele><time>2026-05-01T15:23:13Z</time></trkpt><trkpt lat="48.57062054848061" lon="3.3488086876691607"><ele>152.0</ele><time>2026-05-01T15:23:14Z</time></trkpt><trkpt lat="48.570552914164374" lon="3.348860677825059"><ele>152.28571428571428</ele><time>2026-05-01T15:23:15Z</time></trkpt><trkpt lat="48.570487500860885" lon="3.3489107789527797"><ele>152.57142857142858</ele><time>2026-05-01T15:23:16Z</time></trkpt><trkpt lat="48.57042200349755" lon="3.3489547264349566"><ele>152.85714285714286</ele><time>2026-05-01T15:23:17Z</time></trkpt><trkpt lat="48.57035345008103" lon="3.3489962209805038"><ele>153.14285714285714</ele><time>2026-05-01T15:23:18Z</time></trkpt><trkpt lat="48.57028449786163" lon="3.3490407523534627"><ele>153.42857142857144</ele><time>2026-05-01T15:23:19Z</time></trkpt><trkpt lat="48.57022038382881" lon="3.3490894287478983"><ele>153.71428571428572</ele><time>2026-05-01T15:23:20Z</time></trkpt><trkpt lat="48.57015520134839" lon="3.3491403370922086"><ele>154.0</ele><time>2026-05-01T15:23:21Z</time></trkpt><trkpt lat="48.57008984947758" lon="3.349194655624476"><ele>154.5</ele><time>2026-05-01T15:23:22Z</time></trkpt><trkpt lat="48.57002529391392" lon="3.3492563251492413"><ele>155.0</ele><time>2026-05-01T15:23:23Z</time></trkpt><trkpt lat="48.569962258815366" lon="3.34932641321964"><ele>155.5</ele><time>2026-05-01T15:23:24Z</time></trkpt><trkpt lat="48.569898818712396" lon="3.3494014190654102"><ele>156.0</ele><time>2026-05-01T15:23:25Z</time></trkpt><trkpt lat="48.56983683583901" lon="3.3494872168243095"><ele>156.5</ele><time>2026-05-01T15:23:26Z</time></trkpt><trkpt lat="48.5697819435073" lon="3.349581366255506"><ele>157.0</ele><time>2026-05-01T15:23:27Z</time></trkpt><trkpt lat="48.56973253696457" lon="3.349669115053764"><ele>157.33333333333334</ele><time>2026-05-01T15:23:28Z</time></trkpt><trkpt lat="48.56967916271511" lon="3.34975965118865"><ele>157.66666666666669</ele><time>2026-05-01T15:23:29Z</time></trkpt><trkpt lat="48.56961915184268" lon="3.349841816374251"><ele>158.0</ele><time>2026-05-01T15:23:30Z</time></trkpt><trkpt lat="48.56955372260745" lon="3.3499036995504454"><ele>158.33333333333334</ele><time>2026-05-01T15:23:31Z</time></trkpt><trkpt lat="48.56947948591596" lon="3.349972392282297"><ele>158.66666666666666</ele><time>2026-05-01T15:23:32Z</time></trkpt><trkpt lat="48.569391480720824" lon="3.350045757130843"><ele>159.0</ele><time>2026-05-01T15:23:33Z</time></trkpt><trkpt lat="48.569289995465155" lon="3.3501184869240506"><ele>159.0</ele><time>2026-05-01T15:23:34Z</time></trkpt><trkpt lat="48.56917835572474" lon="3.3501939613651146"><ele>159.0</ele><time>2026-05-01T15:23:35Z</time></trkpt><trkpt lat="48.569065501727714" lon="3.3502683602467864"><ele>159.0</ele><time>2026-05-01T15:23:36Z</time></trkpt><trkpt lat="48.56894915084012" lon="3.3503521703983545"><ele>159.0</ele><time>2026-05-01T15:23:37Z</time></trkpt><trkpt lat="48.56883245459038" lon="3.3504437557758275"><ele>159.0</ele><time>2026-05-01T15:23:38Z</time></trkpt><trkpt lat="48.56871230612842" lon="3.3505412660453593"><ele>159.0</ele><time>2026-05-01T15:23:39Z</time></trkpt><trkpt lat="48.568587272328294" lon="3.35063942882166"><ele>159.0</ele><time>2026-05-01T15:23:40Z</time></trkpt><trkpt lat="48.568454920235986" lon="3.3507365712233974"><ele>159.0</ele><time>2026-05-01T15:23:41Z</time></trkpt><trkpt lat="48.568317704418995" lon="3.3508170140593445"><ele>158.75</ele><time>2026-05-01T15:23:42Z</time></trkpt><trkpt lat="48.568174972086766" lon="3.3508918343303336"><ele>158.5</ele><time>2026-05-01T15:23:43Z</time></trkpt><trkpt lat="48.568040779130136" lon="3.350954759003991"><ele>158.25</ele><time>2026-05-01T15:23:44Z</time></trkpt><trkpt lat="48.56791685701496" lon="3.350998758320302"><ele>158.0</ele><time>2026-05-01T15:23:45Z</time></trkpt><trkpt lat="48.56778948409123" lon="3.351031628736841"><ele>158.0</ele><time>2026-05-01T15:23:46Z</time></trkpt><trkpt lat="48.56767267264685" lon="3.3509981315424544"><ele>158.0</ele><time>2026-05-01T15:23:47Z</time></trkpt><trkpt lat="48.56752875661694" lon="3.3513250112420314"><ele>158.0</ele><time>2026-05-01T15:23:48Z</time></trkpt><trkpt lat="48.567376706823744" lon="3.35142468091368"><ele>157.0</ele><time>2026-05-01T15:23:49Z</time></trkpt><trkpt lat="48.56721984830875" lon="3.3515174922119986"><ele>156.0</ele><time>2026-05-01T15:23:50Z</time></trkpt><trkpt lat="48.56704622704785" lon="3.351633761905367"><ele>155.0</ele><time>2026-05-01T15:23:51Z</time></trkpt><trkpt lat="48.56686618222601" lon="3.3517509635129525"><ele>154.66666666666666</ele><time>2026-05-01T15:23:52Z</time></trkpt><trkpt lat="48.56668643358473" lon="3.3518623330156925"><ele>154.33333333333334</ele><time>2026-05-01T15:23:53Z</time></trkpt><trkpt lat="48.56651179809016" lon="3.351980823646725"><ele>154.0</ele><time>2026-05-01T15:23:54Z</time></trkpt><trkpt lat="48.56633852342637" lon="3.3520881603862023"><ele>153.33333333333334</ele><time>2026-05-01T15:23:55Z</time></trkpt><trkpt lat="48.5661604014347" lon="3.3521902176250227"><ele>152.66666666666666</ele><time>2026-05-01T15:23:56Z</time></trkpt><trkpt lat="48.56598441561357" lon="3.3522955856957184"><ele>152.0</ele><time>2026-05-01T15:23:57Z</time></trkpt><trkpt lat="48.565814688699554" lon="3.3524142247758904"><ele>151.33333333333331</ele><time>2026-05-01T15:23:58Z</time></trkpt><trkpt lat="48.5656415507125" lon="3.352525075904217"><ele>150.66666666666666</ele><time>2026-05-01T15:23:59Z</time></trkpt><trkpt lat="48.56547115129411" lon="3.3526501617164444"><ele>150.0</ele><time>2026-05-01T15:24:00Z</time></trkpt><trkpt lat="48.56531574375233" lon="3.3527689319212284"><ele>150.0</ele><time>2026-05-01T15:24:01Z</time></trkpt><trkpt lat="48.56517880057903" lon="3.352879379364628"><ele>150.0</ele><time>2026-05-01T15:24:02Z</time></trkpt><trkpt lat="48.56505577737829" lon="3.352981192233164"><ele>150.0</ele><time>2026-05-01T15:24:03Z</time></trkpt><trkpt lat="48.56493100083504" lon="3.35308868438257"><ele>150.0</ele><time>2026-05-01T15:24:04Z</time></trkpt><trkpt lat="48.564800414985086" lon="3.3531993774087683"><ele>150.0</ele><time>2026-05-01T15:24:05Z</time></trkpt><trkpt lat="48.56466507640565" lon="3.3533130034494048"><ele>150.0</ele><time>2026-05-01T15:24:06Z</time></trkpt><trkpt lat="48.564522362142846" lon="3.3534310707273236"><ele>150.0</ele><time>2026-05-01T15:24:07Z</time></trkpt><trkpt lat="48.564372762452386" lon="3.353549616609181"><ele>150.0</ele><time>2026-05-01T15:24:08Z</time></trkpt><trkpt lat="48.564246828999416" lon="3.3536611076062517"><ele>150.0</ele><time>2026-05-01T15:24:09Z</time></trkpt><trkpt lat="48.56413900868832" lon="3.3537466603100685"><ele>150.0</ele><time>2026-05-01T15:24:10Z</time></trkpt><trkpt lat="48.56404386081369" lon="3.353825941623512"><ele>150.0</ele><time>2026-05-01T15:24:11Z</time></trkpt><trkpt lat="48.56395141583364" lon="3.353896692982547"><ele>149.25</ele><time>2026-05-01T15:24:12Z</time></trkpt><trkpt lat="48.56384197273408" lon="3.3539667388419385"><ele>148.5</ele><time>2026-05-01T15:24:13Z</time></trkpt><trkpt lat="48.563719641090835" lon="3.3540581940425085"><ele>147.75</ele><time>2026-05-01T15:24:14Z</time></trkpt><trkpt lat="48.563590958471345" lon="3.354180932559111"><ele>147.0</ele><time>2026-05-01T15:24:15Z</time></trkpt><trkpt lat="48.56345779657429" lon="3.354311530222855"><ele>147.0</ele><time>2026-05-01T15:24:16Z</time></trkpt><trkpt lat="48.56330874186646" lon="3.35443764652415"><ele>147.0</ele><time>2026-05-01T15:24:17Z</time></trkpt><trkpt lat="48.563170263496296" lon="3.3545800833604695"><ele>147.0</ele><time>2026-05-01T15:24:18Z</time></trkpt><trkpt lat="48.56300902689448" lon="3.3547182976632692"><ele>146.66666666666666</ele><time>2026-05-01T15:24:19Z</time></trkpt><trkpt lat="48.56284421686047" lon="3.3548573206932115"><ele>146.33333333333331</ele><time>2026-05-01T15:24:20Z</time></trkpt><trkpt lat="48.562687858180965" lon="3.3550154008758417"><ele>146.0</ele><time>2026-05-01T15:24:21Z</time></trkpt><trkpt lat="48.56253944373195" lon="3.3551461082657177"><ele>146.0</ele><time>2026-05-01T15:24:22Z</time></trkpt><trkpt lat="48.562397450197246" lon="3.3552775564166324"><ele>146.0</ele><time>2026-05-01T15:24:23Z</time></trkpt><trkpt lat="48.56224372332525" lon="3.355422103227686"><ele>146.0</ele><time>2026-05-01T15:24:24Z</time></trkpt><trkpt lat="48.5620762400687" lon="3.3555684695527015"><ele>145.33333333333331</ele><time>2026-05-01T15:24:25Z</time></trkpt><trkpt lat="48.561910485912726" lon="3.355691835070568"><ele>144.66666666666666</ele><time>2026-05-01T15:24:26Z</time></trkpt><trkpt lat="48.56175475243093" lon="3.355824312465437"><ele>144.0</ele><time>2026-05-01T15:24:27Z</time></trkpt><trkpt lat="48.561580996380414" lon="3.355947494321941"><ele>144.0</ele><time>2026-05-01T15:24:28Z</time></trkpt><trkpt lat="48.56143343077658" lon="3.3560522848822467"><ele>144.0</ele><time>2026-05-01T15:24:29Z</time></trkpt><trkpt lat="48.56127603383099" lon="3.356165460148843"><ele>144.0</ele><time>2026-05-01T15:24:30Z</time></trkpt><trkpt lat="48.56110097541027" lon="3.356242127931627"><ele>143.33333333333334</ele><time>2026-05-01T15:24:31Z</time></trkpt><trkpt lat="48.5609253541922" lon="3.3563436261813386"><ele>142.66666666666669</ele><time>2026-05-01T15:24:32Z</time></trkpt><trkpt lat="48.56074180728237" lon="3.3564399720758793"><ele>142.0</ele><time>2026-05-01T15:24:33Z</time></trkpt><trkpt lat="48.56056938772969" lon="3.356548044634057"><ele>141.33333333333334</ele><time>2026-05-01T15:24:34Z</time></trkpt><trkpt lat="48.5604041383743" lon="3.3566538410488653"><ele>140.66666666666666</ele><time>2026-05-01T15:24:35Z</time></trkpt><trkpt lat="48.560236316774144" lon="3.3567501523589907"><ele>140.0</ele><time>2026-05-01T15:24:36Z</time></trkpt><trkpt lat="48.56008719874532" lon="3.3568347062419437"><ele>138.66666666666666</ele><time>2026-05-01T15:24:37Z</time></trkpt><trkpt lat="48.55995183105938" lon="3.3569592682620617"><ele>137.33333333333334</ele><time>2026-05-01T15:24:38Z</time></trkpt><trkpt lat="48.55983164676949" lon="3.3571026665244443"><ele>136.0</ele><time>2026-05-01T15:24:39Z</time></trkpt><trkpt lat="48.55970143810458" lon="3.3572198945624003"><ele>135.5</ele><time>2026-05-01T15:24:40Z</time></trkpt><trkpt lat="48.55955376385773" lon="3.357311730983196"><ele>135.0</ele><time>2026-05-01T15:24:41Z</time></trkpt><trkpt lat="48.55942508420847" lon="3.357376415139101"><ele>134.5</ele><time>2026-05-01T15:24:42Z</time></trkpt><trkpt lat="48.55931247466261" lon="3.357441965333445"><ele>134.0</ele><time>2026-05-01T15:24:43Z</time></trkpt><trkpt lat="48.55920743216257" lon="3.357482695873033"><ele>133.4</ele><time>2026-05-01T15:24:44Z</time></trkpt><trkpt lat="48.559103631948226" lon="3.357507026057576"><ele>132.8</ele><time>2026-05-01T15:24:45Z</time></trkpt><trkpt lat="48.55898915985639" lon="3.3575283626800934"><ele>132.2</ele><time>2026-05-01T15:24:46Z</time></trkpt><trkpt lat="48.55886869889294" lon="3.3575480860189284"><ele>131.6</ele><time>2026-05-01T15:24:47Z</time></trkpt><trkpt lat="48.55876141745479" lon="3.3575503494626013"><ele>131.0</ele><time>2026-05-01T15:24:48Z</time></trkpt><trkpt lat="48.558662632318985" lon="3.357557810238557"><ele>129.2</ele><time>2026-05-01T15:24:49Z</time></trkpt><trkpt lat="48.55856043424652" lon="3.357577513687794"><ele>127.39999999999999</ele><time>2026-05-01T15:24:50Z</time></trkpt><trkpt lat="48.55845773759996" lon="3.357558051391648"><ele>125.6</ele><time>2026-05-01T15:24:51Z</time></trkpt><trkpt lat="48.558351171906956" lon="3.3575366603553918"><ele>123.8</ele><time>2026-05-01T15:24:52Z</time></trkpt><trkpt lat="48.558245232032604" lon="3.3575287275042647"><ele>122.0</ele><time>2026-05-01T15:24:53Z</time></trkpt><trkpt lat="48.55815394969884" lon="3.357558461561351"><ele>121.99999999999999</ele><time>2026-05-01T15:24:54Z</time></trkpt><trkpt lat="48.55807392742135" lon="3.357611314517009"><ele>122.0</ele><time>2026-05-01T15:24:55Z</time></trkpt><trkpt lat="48.55800117817079" lon="3.357656012299963"><ele>122.0</ele><time>2026-05-01T15:24:56Z</time></trkpt><trkpt lat="48.55792806708873" lon="3.3576620560511166"><ele>122.0</ele><time>2026-05-01T15:24:57Z</time></trkpt><trkpt lat="48.55786002679928" lon="3.3576554855559575"><ele>121.99999999999999</ele><time>2026-05-01T15:24:58Z</time></trkpt><trkpt lat="48.557745660783524" lon="3.3575797510027328"><ele>122.0</ele><time>2026-05-01T15:25:00Z</time></trkpt><trkpt lat="48.55768745393387" lon="3.357493522997393"><ele>120.66666666666666</ele><time>2026-05-01T15:25:01Z</time></trkpt><trkpt lat="48.55764492808387" lon="3.3573671138311796"><ele>119.33333333333333</ele><time>2026-05-01T15:25:02Z</time></trkpt><trkpt lat="48.55762824187725" lon="3.3572206837763257"><ele>118.0</ele><time>2026-05-01T15:25:03Z</time></trkpt><trkpt lat="48.55762719237962" lon="3.3570890506644226"><ele>116.66666666666666</ele><time>2026-05-01T15:25:04Z</time></trkpt><trkpt lat="48.55759964285924" lon="3.356989306278588"><ele>115.33333333333333</ele><time>2026-05-01T15:25:05Z</time></trkpt><trkpt lat="48.55750739052807" lon="3.356970262090688"><ele>114.0</ele><time>2026-05-01T15:25:07Z</time></trkpt><trkpt lat="48.55739821810394" lon="3.3570108977860613"><ele>114.0</ele><time>2026-05-01T15:25:20Z</time></trkpt><trkpt lat="48.55734244332185" lon="3.357072102585958"><ele>114.0</ele><time>2026-05-01T15:25:21Z</time></trkpt><trkpt lat="48.557311346318926" lon="3.3571769033024483"><ele>114.0</ele><time>2026-05-01T15:25:22Z</time></trkpt><trkpt lat="48.55731602439541" lon="3.35731554045091"><ele>114.0</ele><time>2026-05-01T15:25:23Z</time></trkpt><trkpt lat="48.55733931674041" lon="3.3574586017185455"><ele>114.0</ele><time>2026-05-01T15:25:24Z</time></trkpt><trkpt lat="48.55736271079231" lon="3.35759332314241"><ele>114.0</ele><time>2026-05-01T15:25:25Z</time></trkpt><trkpt lat="48.55734581148107" lon="3.3577048663664044"><ele>113.83333333333333</ele><time>2026-05-01T15:25:26Z</time></trkpt><trkpt lat="48.557301124815005" lon="3.357813252541312"><ele>113.66666666666666</ele><time>2026-05-01T15:25:27Z</time></trkpt><trkpt lat="48.55723831724707" lon="3.357860210342161"><ele>113.5</ele><time>2026-05-01T15:25:28Z</time></trkpt><trkpt lat="48.55717221278668" lon="3.3578671187168774"><ele>113.33333333333333</ele><time>2026-05-01T15:25:29Z</time></trkpt><trkpt lat="48.5571071127336" lon="3.3578781177250865"><ele>113.16666666666666</ele><time>2026-05-01T15:25:30Z</time></trkpt><trkpt lat="48.557005509327595" lon="3.357924360096856"><ele>113.0</ele><time>2026-05-01T15:25:32Z</time></trkpt><trkpt lat="48.55695955577061" lon="3.3580478389271473"><ele>110.66666666666666</ele><time>2026-05-01T15:25:34Z</time></trkpt><trkpt lat="48.556962637194296" lon="3.3582354057501598"><ele>108.33333333333333</ele><time>2026-05-01T15:25:36Z</time></trkpt><trkpt lat="48.55696101948566" lon="3.35833455878319"><ele>106.0</ele><time>2026-05-01T15:25:37Z</time></trkpt><trkpt lat="48.556939736822194" lon="3.3584242173169137"><ele>103.66666666666666</ele><time>2026-05-01T15:25:38Z</time></trkpt><trkpt lat="48.55686528528446" lon="3.3584669113611185"><ele>101.33333333333333</ele><time>2026-05-01T15:25:39Z</time></trkpt><trkpt lat="48.55681017520824" lon="3.3585183279842936"><ele>99.0</ele><time>2026-05-01T15:25:40Z</time></trkpt><trkpt lat="48.55674828485756" lon="3.3585941182159855"><ele>99.0</ele><time>2026-05-01T15:25:41Z</time></trkpt><trkpt lat="48.55668622738173" lon="3.358670113157239"><ele>99.0</ele><time>2026-05-01T15:25:42Z</time></trkpt><trkpt lat="48.556617934960755" lon="3.3587437213110207"><ele>99.0</ele><time>2026-05-01T15:25:43Z</time></trkpt><trkpt lat="48.556548392353214" lon="3.3588085362361344"><ele>99.0</ele><time>2026-05-01T15:25:44Z</time></trkpt><trkpt lat="48.55642988990044" lon="3.358857885720488"><ele>99.0</ele><time>2026-05-01T15:25:46Z</time></trkpt><trkpt lat="48.556365071469834" lon="3.358854149579643"><ele>99.0</ele><time>2026-05-01T15:25:47Z</time></trkpt><trkpt lat="48.55629041749075" lon="3.358829533223078"><ele>99.0</ele><time>2026-05-01T15:25:48Z</time></trkpt><trkpt lat="48.556211252443276" lon="3.3587953459327236"><ele>99.0</ele><time>2026-05-01T15:25:49Z</time></trkpt><trkpt lat="48.55613206169428" lon="3.358777413346359"><ele>99.0</ele><time>2026-05-01T15:25:50Z</time></trkpt><trkpt lat="48.55605079788784" lon="3.358762320964594"><ele>99.0</ele><time>2026-05-01T15:25:51Z</time></trkpt><trkpt lat="48.555963703915936" lon="3.3587444117049094"><ele>99.0</ele><time>2026-05-01T15:25:52Z</time></trkpt><trkpt lat="48.55587715037633" lon="3.358723191134197"><ele>99.0</ele><time>2026-05-01T15:25:53Z</time></trkpt><trkpt lat="48.55578590443106" lon="3.358699040333641"><ele>98.6</ele><time>2026-05-01T15:25:54Z</time></trkpt><trkpt lat="48.55569432069313" lon="3.358673854168281"><ele>98.2</ele><time>2026-05-01T15:25:55Z</time></trkpt><trkpt lat="48.55560031395785" lon="3.358645431447671"><ele>97.8</ele><time>2026-05-01T15:25:56Z</time></trkpt><trkpt lat="48.555508385687205" lon="3.3586088096428637"><ele>97.39999999999999</ele><time>2026-05-01T15:25:57Z</time></trkpt><trkpt lat="48.55542396417325" lon="3.3585493350972357"><ele>97.0</ele><time>2026-05-01T15:25:58Z</time></trkpt><trkpt lat="48.55533400266971" lon="3.3584781221331856"><ele>98.8</ele><time>2026-05-01T15:25:59Z</time></trkpt><trkpt lat="48.555249687155296" lon="3.358401935410221"><ele>100.6</ele><time>2026-05-01T15:26:00Z</time></trkpt><trkpt lat="48.55515885911346" lon="3.3583325605081056"><ele>102.39999999999999</ele><time>2026-05-01T15:26:01Z</time></trkpt><trkpt lat="48.55509825640373" lon="3.3582098802405573"><ele>104.19999999999999</ele><time>2026-05-01T15:26:02Z</time></trkpt><trkpt lat="48.55503367523522" lon="3.3580932672963395"><ele>106.0</ele><time>2026-05-01T15:26:03Z</time></trkpt><trkpt lat="48.554971241752135" lon="3.357958594360648"><ele>106.0</ele><time>2026-05-01T15:26:04Z</time></trkpt><trkpt lat="48.55491752088543" lon="3.357815539372687"><ele>106.0</ele><time>2026-05-01T15:26:05Z</time></trkpt><trkpt lat="48.554872867570815" lon="3.3576610850809647"><ele>106.0</ele><time>2026-05-01T15:26:06Z</time></trkpt><trkpt lat="48.55483500227251" lon="3.35750562807478"><ele>106.0</ele><time>2026-05-01T15:26:07Z</time></trkpt><trkpt lat="48.554801332893376" lon="3.357357761721061"><ele>106.0</ele><time>2026-05-01T15:26:08Z</time></trkpt><trkpt lat="48.554760106833236" lon="3.357240627714699"><ele>105.4</ele><time>2026-05-01T15:26:09Z</time></trkpt><trkpt lat="48.554741353239336" lon="3.357117226091732"><ele>104.8</ele><time>2026-05-01T15:26:10Z</time></trkpt><trkpt lat="48.55471829580933" lon="3.357014881003333"><ele>104.2</ele><time>2026-05-01T15:26:11Z</time></trkpt><trkpt lat="48.55468432075636" lon="3.356869608153678"><ele>103.60000000000001</ele><time>2026-05-01T15:26:13Z</time></trkpt><trkpt lat="48.55464566078818" lon="3.356739548635418"><ele>103.0</ele><time>2026-05-01T15:26:15Z</time></trkpt><trkpt lat="48.554553297534035" lon="3.356944940485324"><ele>103.0</ele><time>2026-05-01T15:26:22Z</time></trkpt><trkpt lat="48.5545493003886" lon="3.3571330325906583"><ele>103.0</ele><time>2026-05-01T15:26:23Z</time></trkpt><trkpt lat="48.55457092005567" lon="3.357338094423164"><ele>103.0</ele><time>2026-05-01T15:26:24Z</time></trkpt><trkpt lat="48.554591942214074" lon="3.3575508266178646"><ele>103.0</ele><time>2026-05-01T15:26:25Z</time></trkpt><trkpt lat="48.5546018209868" lon="3.357725038063986"><ele>103.60000000000001</ele><time>2026-05-01T15:26:26Z</time></trkpt><trkpt lat="48.554599432910635" lon="3.3578538672298515"><ele>104.2</ele><time>2026-05-01T15:26:27Z</time></trkpt><trkpt lat="48.554610443526414" lon="3.35796478240529"><ele>104.8</ele><time>2026-05-01T15:26:29Z</time></trkpt><trkpt lat="48.55465004085403" lon="3.358097783594431"><ele>105.4</ele><time>2026-05-01T15:26:52Z</time></trkpt><trkpt lat="48.554672473724494" lon="3.3582509974944674"><ele>106.0</ele><time>2026-05-01T15:26:53Z</time></trkpt><trkpt lat="48.5547108856625" lon="3.3584339211539387"><ele>106.33333333333334</ele><time>2026-05-01T15:26:54Z</time></trkpt><trkpt lat="48.554738320488376" lon="3.358643745467692"><ele>106.66666666666666</ele><time>2026-05-01T15:26:55Z</time></trkpt><trkpt lat="48.55476797708872" lon="3.358876129226446"><ele>107.0</ele><time>2026-05-01T15:26:56Z</time></trkpt><trkpt lat="48.554801528105756" lon="3.359121062843678"><ele>108.33333333333333</ele><time>2026-05-01T15:26:57Z</time></trkpt><trkpt lat="48.554837537363866" lon="3.3593748592138293"><ele>109.66666666666666</ele><time>2026-05-01T15:26:58Z</time></trkpt><trkpt lat="48.55487170539347" lon="3.359654349334047"><ele>111.0</ele><time>2026-05-01T15:26:59Z</time></trkpt><trkpt lat="48.55492155237821" lon="3.3599517122011515"><ele>111.33333333333334</ele><time>2026-05-01T15:27:00Z</time></trkpt><trkpt lat="48.554971641520254" lon="3.3602147318464866"><ele>111.66666666666667</ele><time>2026-05-01T15:27:01Z</time></trkpt><trkpt lat="48.55506689921219" lon="3.360499232768036"><ele>112.0</ele><time>2026-05-01T15:27:02Z</time></trkpt><trkpt lat="48.5551832038796" lon="3.3607726225935495"><ele>112.66666666666667</ele><time>2026-05-01T15:27:03Z</time></trkpt><trkpt lat="48.55532026883357" lon="3.3610243285024897"><ele>113.33333333333334</ele><time>2026-05-01T15:27:04Z</time></trkpt><trkpt lat="48.55545839940835" lon="3.3612743079536207"><ele>114.0</ele><time>2026-05-01T15:27:05Z</time></trkpt><trkpt lat="48.555577373925104" lon="3.361522165811755"><ele>114.66666666666666</ele><time>2026-05-01T15:27:06Z</time></trkpt><trkpt lat="48.55567360709242" lon="3.361745368815752"><ele>115.33333333333333</ele><time>2026-05-01T15:27:07Z</time></trkpt><trkpt lat="48.555746063781854" lon="3.3620173901963017"><ele>116.0</ele><time>2026-05-01T15:27:08Z</time></trkpt><trkpt lat="48.55582306122291" lon="3.3622807298417734"><ele>116.0</ele><time>2026-05-01T15:27:09Z</time></trkpt><trkpt lat="48.55588402181355" lon="3.36251417620884"><ele>116.0</ele><time>2026-05-01T15:27:10Z</time></trkpt><trkpt lat="48.555934469841105" lon="3.362722783020426"><ele>116.0</ele><time>2026-05-01T15:27:11Z</time></trkpt><trkpt lat="48.55596339548454" lon="3.3628950853342716"><ele>116.0</ele><time>2026-05-01T15:27:12Z</time></trkpt><trkpt lat="48.55597564483569" lon="3.3630168929198145"><ele>116.0</ele><time>2026-05-01T15:27:13Z</time></trkpt><trkpt lat="48.55595959788501" lon="3.3631098166155935"><ele>116.0</ele><time>2026-05-01T15:27:15Z</time></trkpt><trkpt lat="48.55574696238748" lon="3.362850610196403"><ele>116.0</ele><time>2026-05-01T15:27:23Z</time></trkpt><trkpt lat="48.555619031647474" lon="3.3626948091526097"><ele>116.0</ele><time>2026-05-01T15:27:24Z</time></trkpt><trkpt lat="48.55551014627807" lon="3.3625509434726175"><ele>116.0</ele><time>2026-05-01T15:27:25Z</time></trkpt><trkpt lat="48.55539346124367" lon="3.362392052261661"><ele>116.0</ele><time>2026-05-01T15:27:26Z</time></trkpt><trkpt lat="48.55527269847493" lon="3.362226162434881"><ele>117.0</ele><time>2026-05-01T15:27:27Z</time></trkpt><trkpt lat="48.55514052452331" lon="3.3620628594989355"><ele>118.0</ele><time>2026-05-01T15:27:28Z</time></trkpt><trkpt lat="48.55501390494226" lon="3.3618723675866993"><ele>119.0</ele><time>2026-05-01T15:27:29Z</time></trkpt><trkpt lat="48.55487748610419" lon="3.361692216238017"><ele>119.0</ele><time>2026-05-01T15:27:30Z</time></trkpt><trkpt lat="48.554745222534194" lon="3.3615197440803835"><ele>119.0</ele><time>2026-05-01T15:27:31Z</time></trkpt><trkpt lat="48.55461123996238" lon="3.3613474255387294"><ele>119.0</ele><time>2026-05-01T15:27:32Z</time></trkpt><trkpt lat="48.554477714557564" lon="3.3611759820312574"><ele>121.0</ele><time>2026-05-01T15:27:33Z</time></trkpt><trkpt lat="48.55434190138893" lon="3.3610018920893223"><ele>123.0</ele><time>2026-05-01T15:27:34Z</time></trkpt><trkpt lat="48.554205823889816" lon="3.3608308994201415"><ele>125.0</ele><time>2026-05-01T15:27:35Z</time></trkpt><trkpt lat="48.55406962561036" lon="3.360665240253363"><ele>124.66666666666666</ele><time>2026-05-01T15:27:36Z</time></trkpt><trkpt lat="48.55393644843564" lon="3.3605084545541626"><ele>124.33333333333334</ele><time>2026-05-01T15:27:37Z</time></trkpt><trkpt lat="48.553801846604784" lon="3.3603590219712194"><ele>124.0</ele><time>2026-05-01T15:27:38Z</time></trkpt><trkpt lat="48.55366261855643" lon="3.3602165202025653"><ele>125.66666666666667</ele><time>2026-05-01T15:27:39Z</time></trkpt><trkpt lat="48.553515117617835" lon="3.3600752121901256"><ele>127.33333333333334</ele><time>2026-05-01T15:27:40Z</time></trkpt><trkpt lat="48.553368235990355" lon="3.35994639275241"><ele>129.0</ele><time>2026-05-01T15:27:41Z</time></trkpt><trkpt lat="48.55323491531478" lon="3.3598366673347018"><ele>129.0</ele><time>2026-05-01T15:27:42Z</time></trkpt><trkpt lat="48.55312379804723" lon="3.3597533133666126"><ele>129.0</ele><time>2026-05-01T15:27:43Z</time></trkpt><trkpt lat="48.553016588719515" lon="3.359698857143222"><ele>129.0</ele><time>2026-05-01T15:27:44Z</time></trkpt><trkpt lat="48.552914669974996" lon="3.3596247220869717"><ele>129.0</ele><time>2026-05-01T15:27:45Z</time></trkpt><trkpt lat="48.552813969939315" lon="3.3595397974937318"><ele>129.25</ele><time>2026-05-01T15:27:46Z</time></trkpt><trkpt lat="48.55269686308071" lon="3.3594668321655936"><ele>129.5</ele><time>2026-05-01T15:27:47Z</time></trkpt><trkpt lat="48.552554182156214" lon="3.359405618973894"><ele>129.75</ele><time>2026-05-01T15:27:48Z</time></trkpt><trkpt lat="48.55240755481305" lon="3.3593146287197753"><ele>130.0</ele><time>2026-05-01T15:27:49Z</time></trkpt><trkpt lat="48.55225140179197" lon="3.3592160546595413"><ele>130.0</ele><time>2026-05-01T15:27:50Z</time></trkpt><trkpt lat="48.55209066768775" lon="3.3591199799098623"><ele>130.0</ele><time>2026-05-01T15:27:51Z</time></trkpt><trkpt lat="48.55191493636589" lon="3.3590121181556496"><ele>130.0</ele><time>2026-05-01T15:27:52Z</time></trkpt><trkpt lat="48.55175038770113" lon="3.3588839796949013"><ele>130.66666666666669</ele><time>2026-05-01T15:27:53Z</time></trkpt><trkpt lat="48.55157042817414" lon="3.358774977476316"><ele>131.33333333333334</ele><time>2026-05-01T15:27:54Z</time></trkpt><trkpt lat="48.55138019976362" lon="3.3586849717759373"><ele>132.0</ele><time>2026-05-01T15:27:55Z</time></trkpt><trkpt lat="48.55119262891855" lon="3.358569350685107"><ele>133.33333333333334</ele><time>2026-05-01T15:27:56Z</time></trkpt><trkpt lat="48.5510025966276" lon="3.358449739919514"><ele>134.66666666666669</ele><time>2026-05-01T15:27:57Z</time></trkpt><trkpt lat="48.550809626761676" lon="3.358328406936883"><ele>136.0</ele><time>2026-05-01T15:27:58Z</time></trkpt><trkpt lat="48.55062064641484" lon="3.3582133104890293"><ele>136.0</ele><time>2026-05-01T15:27:59Z</time></trkpt><trkpt lat="48.55045443870232" lon="3.358109795237707"><ele>136.0</ele><time>2026-05-01T15:28:00Z</time></trkpt><trkpt lat="48.55031249943813" lon="3.3580165464372222"><ele>136.0</ele><time>2026-05-01T15:28:01Z</time></trkpt><trkpt lat="48.55019089940144" lon="3.3579347586030495"><ele>137.2</ele><time>2026-05-01T15:28:02Z</time></trkpt><trkpt lat="48.5500913383263" lon="3.357868138471587"><ele>138.39999999999998</ele><time>2026-05-01T15:28:03Z</time></trkpt><trkpt lat="48.55002151871312" lon="3.3578155157502447"><ele>139.6</ele><time>2026-05-01T15:28:04Z</time></trkpt><trkpt lat="48.54996184952347" lon="3.357746471971209"><ele>140.79999999999998</ele><time>2026-05-01T15:28:06Z</time></trkpt><trkpt lat="48.55001314425466" lon="3.357827435370628"><ele>142.0</ele><time>2026-05-01T15:28:08Z</time></trkpt><trkpt lat="48.549988236266174" lon="3.358029180603409"><ele>142.16666666666669</ele><time>2026-05-01T15:28:11Z</time></trkpt><trkpt lat="48.55004018655571" lon="3.35812707265813"><ele>142.33333333333334</ele><time>2026-05-01T15:28:15Z</time></trkpt><trkpt lat="48.550089125720646" lon="3.3582090827195197"><ele>142.5</ele><time>2026-05-01T15:28:16Z</time></trkpt><trkpt lat="48.55014566624362" lon="3.3583029087995118"><ele>142.66666666666666</ele><time>2026-05-01T15:28:17Z</time></trkpt><trkpt lat="48.55020206289275" lon="3.3584148769904725"><ele>142.83333333333331</ele><time>2026-05-01T15:28:18Z</time></trkpt><trkpt lat="48.55026443712202" lon="3.3585318424387203"><ele>143.0</ele><time>2026-05-01T15:28:19Z</time></trkpt><trkpt lat="48.550321671982" lon="3.3586672625499068"><ele>143.0</ele><time>2026-05-01T15:28:20Z</time></trkpt><trkpt lat="48.55037350095726" lon="3.358818732042701"><ele>143.0</ele><time>2026-05-01T15:28:21Z</time></trkpt><trkpt lat="48.55042796271008" lon="3.358985889682677"><ele>143.0</ele><time>2026-05-01T15:28:22Z</time></trkpt><trkpt lat="48.550502552691526" lon="3.3591496175109854"><ele>143.0</ele><time>2026-05-01T15:28:23Z</time></trkpt><trkpt lat="48.55058828690201" lon="3.3593111698800997"><ele>141.5</ele><time>2026-05-01T15:28:24Z</time></trkpt><trkpt lat="48.55067455422667" lon="3.359482945916288"><ele>140.0</ele><time>2026-05-01T15:28:25Z</time></trkpt><trkpt lat="48.55077181668471" lon="3.3596490378587607"><ele>138.5</ele><time>2026-05-01T15:28:26Z</time></trkpt><trkpt lat="48.55086586494067" lon="3.3598280202735356"><ele>137.0</ele><time>2026-05-01T15:28:27Z</time></trkpt><trkpt lat="48.55096702476489" lon="3.3600032097787125"><ele>137.0</ele><time>2026-05-01T15:28:28Z</time></trkpt><trkpt lat="48.55107250987568" lon="3.360183597955058"><ele>137.0</ele><time>2026-05-01T15:28:29Z</time></trkpt><trkpt lat="48.551171472871424" lon="3.360375899357566"><ele>137.0</ele><time>2026-05-01T15:28:30Z</time></trkpt><trkpt lat="48.55128010815683" lon="3.360563168528649"><ele>136.33333333333331</ele><time>2026-05-01T15:28:31Z</time></trkpt><trkpt lat="48.55138866256123" lon="3.3607485510157105"><ele>135.66666666666666</ele><time>2026-05-01T15:28:32Z</time></trkpt><trkpt lat="48.55149486525394" lon="3.360940933456698"><ele>135.0</ele><time>2026-05-01T15:28:33Z</time></trkpt><trkpt lat="48.55159299091162" lon="3.3611444945163194"><ele>135.0</ele><time>2026-05-01T15:28:34Z</time></trkpt><trkpt lat="48.55167928339182" lon="3.361361471705835"><ele>135.0</ele><time>2026-05-01T15:28:35Z</time></trkpt><trkpt lat="48.551748764418726" lon="3.3615921291910364"><ele>135.0</ele><time>2026-05-01T15:28:36Z</time></trkpt><trkpt lat="48.55181102495175" lon="3.3618339478302808"><ele>135.0</ele><time>2026-05-01T15:28:37Z</time></trkpt><trkpt lat="48.551863084946895" lon="3.3620739713048353"><ele>135.0</ele><time>2026-05-01T15:28:38Z</time></trkpt><trkpt lat="48.55189525235198" lon="3.3623266728978183"><ele>135.0</ele><time>2026-05-01T15:28:39Z</time></trkpt><trkpt lat="48.55190623849696" lon="3.3625817130866276"><ele>134.66666666666666</ele><time>2026-05-01T15:28:40Z</time></trkpt><trkpt lat="48.55189138570603" lon="3.3628359976659583"><ele>134.33333333333331</ele><time>2026-05-01T15:28:41Z</time></trkpt><trkpt lat="48.551871172118204" lon="3.3631051239062604"><ele>134.0</ele><time>2026-05-01T15:28:42Z</time></trkpt><trkpt lat="48.551849464112536" lon="3.3633709994622656"><ele>133.66666666666666</ele><time>2026-05-01T15:28:43Z</time></trkpt><trkpt lat="48.5518307766869" lon="3.363641497173744"><ele>133.33333333333334</ele><time>2026-05-01T15:28:44Z</time></trkpt><trkpt lat="48.5518218296375" lon="3.363912823343077"><ele>133.0</ele><time>2026-05-01T15:28:45Z</time></trkpt><trkpt lat="48.551809152509" lon="3.3641817652841337"><ele>132.66666666666669</ele><time>2026-05-01T15:28:46Z</time></trkpt><trkpt lat="48.55178634076429" lon="3.3644359194540376"><ele>132.33333333333334</ele><time>2026-05-01T15:28:47Z</time></trkpt><trkpt lat="48.55176240558204" lon="3.364660020565161"><ele>132.0</ele><time>2026-05-01T15:28:48Z</time></trkpt><trkpt lat="48.55172742796827" lon="3.364890217981362"><ele>131.33333333333334</ele><time>2026-05-01T15:28:49Z</time></trkpt><trkpt lat="48.551692435014694" lon="3.3651169544901047"><ele>130.66666666666669</ele><time>2026-05-01T15:28:50Z</time></trkpt><trkpt lat="48.551670639248535" lon="3.365342520941932"><ele>130.0</ele><time>2026-05-01T15:28:51Z</time></trkpt><trkpt lat="48.55165908949792" lon="3.3655823887022125"><ele>130.0</ele><time>2026-05-01T15:28:52Z</time></trkpt><trkpt lat="48.55166326832681" lon="3.3658340407488354"><ele>130.0</ele><time>2026-05-01T15:28:53Z</time></trkpt><trkpt lat="48.551671653188606" lon="3.366091859477272"><ele>130.0</ele><time>2026-05-01T15:28:54Z</time></trkpt><trkpt lat="48.55167372895938" lon="3.36634777808985"><ele>131.0</ele><time>2026-05-01T15:28:55Z</time></trkpt><trkpt lat="48.55169020469572" lon="3.3666338289561595"><ele>132.0</ele><time>2026-05-01T15:28:56Z</time></trkpt><trkpt lat="48.55167095675852" lon="3.366957531382698"><ele>133.0</ele><time>2026-05-01T15:28:57Z</time></trkpt><trkpt lat="48.55171059304563" lon="3.367157072959688"><ele>133.33333333333334</ele><time>2026-05-01T15:28:58Z</time></trkpt><trkpt lat="48.55173571534596" lon="3.3673845405309115"><ele>133.66666666666666</ele><time>2026-05-01T15:28:59Z</time></trkpt><trkpt lat="48.55172793755216" lon="3.367641657714257"><ele>134.0</ele><time>2026-05-01T15:29:00Z</time></trkpt><trkpt lat="48.551727190951176" lon="3.367841997907719"><ele>134.0</ele><time>2026-05-01T15:29:01Z</time></trkpt><trkpt lat="48.55172807535953" lon="3.3680341432578405"><ele>134.0</ele><time>2026-05-01T15:29:02Z</time></trkpt><trkpt lat="48.551738762322" lon="3.3682434277120463"><ele>134.0</ele><time>2026-05-01T15:29:03Z</time></trkpt><trkpt lat="48.55174338179475" lon="3.3684589478641622"><ele>134.0</ele><time>2026-05-01T15:29:04Z</time></trkpt><trkpt lat="48.55174868298891" lon="3.3686839195083724"><ele>134.66666666666666</ele><time>2026-05-01T15:29:05Z</time></trkpt><trkpt lat="48.55175761933394" lon="3.368916537456517"><ele>135.33333333333334</ele><time>2026-05-01T15:29:06Z</time></trkpt><trkpt lat="48.55176125001973" lon="3.369143803514112"><ele>136.0</ele><time>2026-05-01T15:29:07Z</time></trkpt><trkpt lat="48.55176047594029" lon="3.3693712797455433"><ele>136.0</ele><time>2026-05-01T15:29:08Z</time></trkpt><trkpt lat="48.551771986981606" lon="3.3695840224107574"><ele>136.0</ele><time>2026-05-01T15:29:09Z</time></trkpt><trkpt lat="48.55179068399997" lon="3.369791386784897"><ele>136.0</ele><time>2026-05-01T15:29:10Z</time></trkpt><trkpt lat="48.551799364242065" lon="3.369976209415355"><ele>136.0</ele><time>2026-05-01T15:29:11Z</time></trkpt><trkpt lat="48.55180200243552" lon="3.370128818991142"><ele>136.25</ele><time>2026-05-01T15:29:12Z</time></trkpt><trkpt lat="48.55180191832878" lon="3.370289928557033"><ele>136.5</ele><time>2026-05-01T15:29:13Z</time></trkpt><trkpt lat="48.55180511318423" lon="3.370460641329273"><ele>136.75</ele><time>2026-05-01T15:29:14Z</time></trkpt><trkpt lat="48.55180428479375" lon="3.37063819193421"><ele>137.0</ele><time>2026-05-01T15:29:15Z</time></trkpt><trkpt lat="48.55180858824891" lon="3.3708252585681993"><ele>137.0</ele><time>2026-05-01T15:29:16Z</time></trkpt><trkpt lat="48.551819360455305" lon="3.3709973014732926"><ele>137.0</ele><time>2026-05-01T15:29:17Z</time></trkpt><trkpt lat="48.55182135705341" lon="3.3711504709925433"><ele>137.0</ele><time>2026-05-01T15:29:18Z</time></trkpt><trkpt lat="48.551823686275085" lon="3.3713035368093114"><ele>137.0</ele><time>2026-05-01T15:29:19Z</time></trkpt><trkpt lat="48.55183111537597" lon="3.371466022921846"><ele>137.0</ele><time>2026-05-01T15:29:20Z</time></trkpt><trkpt lat="48.55184790851126" lon="3.3716309734398267"><ele>137.0</ele><time>2026-05-01T15:29:21Z</time></trkpt><trkpt lat="48.55186837964562" lon="3.3717813696466665"><ele>137.0</ele><time>2026-05-01T15:29:22Z</time></trkpt><trkpt lat="48.55188774300015" lon="3.371916784710174"><ele>137.0</ele><time>2026-05-01T15:29:23Z</time></trkpt><trkpt lat="48.551922094473355" lon="3.372057554663571"><ele>137.0</ele><time>2026-05-01T15:29:24Z</time></trkpt><trkpt lat="48.55196208249961" lon="3.3721887721513317"><ele>137.0</ele><time>2026-05-01T15:29:25Z</time></trkpt><trkpt lat="48.551994787385034" lon="3.3723138150383005"><ele>136.5</ele><time>2026-05-01T15:29:26Z</time></trkpt><trkpt lat="48.55203694726257" lon="3.3724225961944767"><ele>136.0</ele><time>2026-05-01T15:29:27Z</time></trkpt><trkpt lat="48.55209777112895" lon="3.372515603853695"><ele>135.5</ele><time>2026-05-01T15:29:28Z</time></trkpt><trkpt lat="48.552159061517294" lon="3.3725937733141294"><ele>135.0</ele><time>2026-05-01T15:29:29Z</time></trkpt><trkpt lat="48.552229601426646" lon="3.3726360881834654"><ele>134.5</ele><time>2026-05-01T15:29:30Z</time></trkpt><trkpt lat="48.55229709134674" lon="3.3726690406006057"><ele>134.0</ele><time>2026-05-01T15:29:31Z</time></trkpt><trkpt lat="48.55237366026656" lon="3.372694705216128"><ele>134.0</ele><time>2026-05-01T15:29:33Z</time></trkpt><trkpt lat="48.5524787721067" lon="3.3727351722515664"><ele>134.0</ele><time>2026-05-01T15:29:36Z</time></trkpt><trkpt lat="48.552541373603084" lon="3.3727869501725394"><ele>134.0</ele><time>2026-05-01T15:29:37Z</time></trkpt><trkpt lat="48.55262644620427" lon="3.372841465455473"><ele>134.0</ele><time>2026-05-01T15:29:38Z</time></trkpt><trkpt lat="48.552695307615394" lon="3.372917541332973"><ele>134.0</ele><time>2026-05-01T15:29:39Z</time></trkpt><trkpt lat="48.55273284280345" lon="3.3730063146172835"><ele>134.0</ele><time>2026-05-01T15:29:40Z</time></trkpt><trkpt lat="48.55276371862939" lon="3.3730980864197644"><ele>134.25</ele><time>2026-05-01T15:29:41Z</time></trkpt><trkpt lat="48.55281334726485" lon="3.3732388524442696"><ele>134.5</ele><time>2026-05-01T15:29:43Z</time></trkpt><trkpt lat="48.55288046440355" lon="3.3734525623877403"><ele>134.75</ele><time>2026-05-01T15:29:45Z</time></trkpt><trkpt lat="48.552927748513284" lon="3.3735843046494325"><ele>135.0</ele><time>2026-05-01T15:29:46Z</time></trkpt><trkpt lat="48.552971107424774" lon="3.3737155888298678"><ele>136.5</ele><time>2026-05-01T15:29:47Z</time></trkpt><trkpt lat="48.55301935130909" lon="3.373884640960407"><ele>138.0</ele><time>2026-05-01T15:29:48Z</time></trkpt><trkpt lat="48.553053067040345" lon="3.374058927720903"><ele>139.5</ele><time>2026-05-01T15:29:49Z</time></trkpt><trkpt lat="48.55309252589672" lon="3.3742214631458647"><ele>141.0</ele><time>2026-05-01T15:29:50Z</time></trkpt><trkpt lat="48.553130234679976" lon="3.3744058184568644"><ele>141.0</ele><time>2026-05-01T15:29:51Z</time></trkpt><trkpt lat="48.55317819237344" lon="3.3745493426796656"><ele>141.0</ele><time>2026-05-01T15:29:52Z</time></trkpt><trkpt lat="48.55321403978746" lon="3.3747145671106513"><ele>141.0</ele><time>2026-05-01T15:29:53Z</time></trkpt><trkpt lat="48.5532501112917" lon="3.374852213204132"><ele>141.0</ele><time>2026-05-01T15:29:54Z</time></trkpt><trkpt lat="48.5532802944426" lon="3.3749800696206687"><ele>141.0</ele><time>2026-05-01T15:29:55Z</time></trkpt><trkpt lat="48.553302333396196" lon="3.3750919782113806"><ele>141.66666666666666</ele><time>2026-05-01T15:29:56Z</time></trkpt><trkpt lat="48.55331654167946" lon="3.3751851243265496"><ele>142.33333333333334</ele><time>2026-05-01T15:29:57Z</time></trkpt><trkpt lat="48.55335451448117" lon="3.3752811416976845"><ele>143.0</ele><time>2026-05-01T15:29:58Z</time></trkpt><trkpt lat="48.553398883111036" lon="3.3753850391143168"><ele>143.66666666666669</ele><time>2026-05-01T15:29:59Z</time></trkpt><trkpt lat="48.55345270932625" lon="3.3755037075032672"><ele>144.33333333333334</ele><time>2026-05-01T15:30:00Z</time></trkpt><trkpt lat="48.55351680713566" lon="3.375636566053723"><ele>145.0</ele><time>2026-05-01T15:30:01Z</time></trkpt><trkpt lat="48.55357779068851" lon="3.3757541232397497"><ele>145.75</ele><time>2026-05-01T15:30:02Z</time></trkpt><trkpt lat="48.553637776373044" lon="3.3758905963708274"><ele>146.5</ele><time>2026-05-01T15:30:03Z</time></trkpt><trkpt lat="48.55370071517761" lon="3.376028917073927"><ele>147.25</ele><time>2026-05-01T15:30:04Z</time></trkpt><trkpt lat="48.553766437532765" lon="3.3761764571736146"><ele>148.0</ele><time>2026-05-01T15:30:05Z</time></trkpt><trkpt lat="48.553820968482114" lon="3.3763274828851135"><ele>148.25</ele><time>2026-05-01T15:30:06Z</time></trkpt><trkpt lat="48.55387100038181" lon="3.376480790460217"><ele>148.5</ele><time>2026-05-01T15:30:07Z</time></trkpt><trkpt lat="48.553909600956366" lon="3.3766376860634595"><ele>148.75</ele><time>2026-05-01T15:30:08Z</time></trkpt><trkpt lat="48.55395094666982" lon="3.3767928427790497"><ele>149.0</ele><time>2026-05-01T15:30:09Z</time></trkpt><trkpt lat="48.553996100890636" lon="3.3769581864262235"><ele>149.0</ele><time>2026-05-01T15:30:10Z</time></trkpt><trkpt lat="48.55403349131693" lon="3.377105931852237"><ele>149.0</ele><time>2026-05-01T15:30:11Z</time></trkpt><trkpt lat="48.5540721718017" lon="3.3772610353724817"><ele>149.0</ele><time>2026-05-01T15:30:12Z</time></trkpt><trkpt lat="48.55411731988149" lon="3.3774130532739837"><ele>149.0</ele><time>2026-05-01T15:30:13Z</time></trkpt><trkpt lat="48.554157772401794" lon="3.3775832630003224"><ele>149.0</ele><time>2026-05-01T15:30:14Z</time></trkpt><trkpt lat="48.55419255139249" lon="3.3777465467567187"><ele>149.0</ele><time>2026-05-01T15:30:15Z</time></trkpt><trkpt lat="48.55424012497376" lon="3.3779001536504167"><ele>149.0</ele><time>2026-05-01T15:30:16Z</time></trkpt><trkpt lat="48.554294429246596" lon="3.3780455092881025"><ele>149.0</ele><time>2026-05-01T15:30:17Z</time></trkpt><trkpt lat="48.55435458816739" lon="3.3781931285636193"><ele>149.0</ele><time>2026-05-01T15:30:18Z</time></trkpt><trkpt lat="48.554403480138404" lon="3.378334147495694"><ele>149.0</ele><time>2026-05-01T15:30:19Z</time></trkpt><trkpt lat="48.554430243710044" lon="3.378454882211244"><ele>148.8</ele><time>2026-05-01T15:30:20Z</time></trkpt><trkpt lat="48.55445828823075" lon="3.3785877050862005"><ele>148.60000000000002</ele><time>2026-05-01T15:30:21Z</time></trkpt><trkpt lat="48.5544878901138" lon="3.378681234771546"><ele>148.4</ele><time>2026-05-01T15:30:23Z</time></trkpt><trkpt lat="48.55444009332804" lon="3.3787605465192283"><ele>148.20000000000002</ele><time>2026-05-01T15:30:42Z</time></trkpt><trkpt lat="48.55433067154007" lon="3.378789347479893"><ele>148.0</ele><time>2026-05-01T15:30:44Z</time></trkpt><trkpt lat="48.55420880186355" lon="3.378855772745073"><ele>147.66666666666669</ele><time>2026-05-01T15:30:46Z</time></trkpt><trkpt lat="48.554136560044455" lon="3.3788946089287992"><ele>147.33333333333334</ele><time>2026-05-01T15:30:47Z</time></trkpt><trkpt lat="48.55406190963495" lon="3.3789308473353397"><ele>147.0</ele><time>2026-05-01T15:30:48Z</time></trkpt><trkpt lat="48.55400735358732" lon="3.378979681177758"><ele>146.66666666666666</ele><time>2026-05-01T15:30:49Z</time></trkpt><trkpt lat="48.55390414063129" lon="3.3790395043494996"><ele>146.33333333333331</ele><time>2026-05-01T15:30:51Z</time></trkpt><trkpt lat="48.55380032509811" lon="3.379110398074474"><ele>146.0</ele><time>2026-05-01T15:30:53Z</time></trkpt><trkpt lat="48.55373724762014" lon="3.37914640277737"><ele>146.83333333333331</ele><time>2026-05-01T15:30:54Z</time></trkpt><trkpt lat="48.55361833019754" lon="3.379211492956333"><ele>147.66666666666666</ele><time>2026-05-01T15:30:56Z</time></trkpt><trkpt lat="48.553544416506405" lon="3.3792490576334093"><ele>148.5</ele><time>2026-05-01T15:30:57Z</time></trkpt><trkpt lat="48.55347846429907" lon="3.3793086372317673"><ele>149.33333333333334</ele><time>2026-05-01T15:30:58Z</time></trkpt><trkpt lat="48.553414283006326" lon="3.379349689928756"><ele>150.16666666666669</ele><time>2026-05-01T15:30:59Z</time></trkpt><trkpt lat="48.55335169608558" lon="3.3793830746266607"><ele>151.0</ele><time>2026-05-01T15:31:00Z</time></trkpt><trkpt lat="48.55329375134907" lon="3.379439498526821"><ele>151.0</ele><time>2026-05-01T15:31:01Z</time></trkpt><trkpt lat="48.55323165252121" lon="3.379496425161739"><ele>151.0</ele><time>2026-05-01T15:31:02Z</time></trkpt><trkpt lat="48.55316457880255" lon="3.379527284185903"><ele>151.0</ele><time>2026-05-01T15:31:03Z</time></trkpt><trkpt lat="48.55309861584907" lon="3.379604216277492"><ele>151.0</ele><time>2026-05-01T15:31:04Z</time></trkpt><trkpt lat="48.55303773050506" lon="3.379677944835329"><ele>151.0</ele><time>2026-05-01T15:31:05Z</time></trkpt><trkpt lat="48.55296373473898" lon="3.3797431256867756"><ele>151.0</ele><time>2026-05-01T15:31:06Z</time></trkpt><trkpt lat="48.552881024693264" lon="3.3798044881545506"><ele>151.6</ele><time>2026-05-01T15:31:07Z</time></trkpt><trkpt lat="48.55278957768762" lon="3.379869887439427"><ele>152.2</ele><time>2026-05-01T15:31:08Z</time></trkpt><trkpt lat="48.55270381398541" lon="3.3799349235798184"><ele>152.8</ele><time>2026-05-01T15:31:09Z</time></trkpt><trkpt lat="48.552621002374956" lon="3.380006606800486"><ele>153.4</ele><time>2026-05-01T15:31:10Z</time></trkpt><trkpt lat="48.55252821322636" lon="3.380074861572544"><ele>154.0</ele><time>2026-05-01T15:31:11Z</time></trkpt><trkpt lat="48.55244717749662" lon="3.3801318549060606"><ele>154.0</ele><time>2026-05-01T15:31:12Z</time></trkpt><trkpt lat="48.55237301793812" lon="3.380225371269075"><ele>154.0</ele><time>2026-05-01T15:31:13Z</time></trkpt><trkpt lat="48.55230149391166" lon="3.380295981489827"><ele>154.0</ele><time>2026-05-01T15:31:14Z</time></trkpt><trkpt lat="48.55222605949804" lon="3.380367609940968"><ele>154.0</ele><time>2026-05-01T15:31:15Z</time></trkpt><trkpt lat="48.55214358312166" lon="3.380467339736232"><ele>154.0</ele><time>2026-05-01T15:31:16Z</time></trkpt><trkpt lat="48.55205540057648" lon="3.380550574633255"><ele>154.4</ele><time>2026-05-01T15:31:17Z</time></trkpt><trkpt lat="48.551984664471796" lon="3.3806519262699797"><ele>154.8</ele><time>2026-05-01T15:31:18Z</time></trkpt><trkpt lat="48.551918061460256" lon="3.3807455799060566"><ele>155.2</ele><time>2026-05-01T15:31:19Z</time></trkpt><trkpt lat="48.55184627437469" lon="3.380847621204499"><ele>155.6</ele><time>2026-05-01T15:31:20Z</time></trkpt><trkpt lat="48.55177276412064" lon="3.3809341517527938"><ele>156.0</ele><time>2026-05-01T15:31:21Z</time></trkpt><trkpt lat="48.55171559416145" lon="3.381048769846673"><ele>156.0</ele><time>2026-05-01T15:31:22Z</time></trkpt><trkpt lat="48.55165854578557" lon="3.3811474747691066"><ele>156.0</ele><time>2026-05-01T15:31:23Z</time></trkpt><trkpt lat="48.55157443214941" lon="3.381249758932936"><ele>156.0</ele><time>2026-05-01T15:31:24Z</time></trkpt><trkpt lat="48.55149950181608" lon="3.3813443875683364"><ele>156.0</ele><time>2026-05-01T15:31:25Z</time></trkpt><trkpt lat="48.55142592438678" lon="3.381445590918975"><ele>156.0</ele><time>2026-05-01T15:31:26Z</time></trkpt><trkpt lat="48.55135190792239" lon="3.3815342544095914"><ele>156.4</ele><time>2026-05-01T15:31:27Z</time></trkpt><trkpt lat="48.55126080938468" lon="3.3816131015068094"><ele>156.8</ele><time>2026-05-01T15:31:28Z</time></trkpt><trkpt lat="48.55118022713236" lon="3.3816804768842843"><ele>157.20000000000002</ele><time>2026-05-01T15:31:29Z</time></trkpt><trkpt lat="48.551096017108385" lon="3.3817530579362014"><ele>157.6</ele><time>2026-05-01T15:31:30Z</time></trkpt><trkpt lat="48.55102142644116" lon="3.381816542424635"><ele>158.0</ele><time>2026-05-01T15:31:31Z</time></trkpt><trkpt lat="48.55094481222764" lon="3.3819055539993625"><ele>158.5</ele><time>2026-05-01T15:31:32Z</time></trkpt><trkpt lat="48.55088274034637" lon="3.382016522092983"><ele>159.0</ele><time>2026-05-01T15:31:33Z</time></trkpt><trkpt lat="48.55083436875779" lon="3.3821155184729097"><ele>159.5</ele><time>2026-05-01T15:31:34Z</time></trkpt><trkpt lat="48.550785826086035" lon="3.3822108424560087"><ele>160.0</ele><time>2026-05-01T15:31:35Z</time></trkpt><trkpt lat="48.550735842637074" lon="3.3823094836088288"><ele>160.5</ele><time>2026-05-01T15:31:36Z</time></trkpt><trkpt lat="48.55068722516343" lon="3.3824184613698045"><ele>161.0</ele><time>2026-05-01T15:31:37Z</time></trkpt><trkpt lat="48.55063504374888" lon="3.382522761193766"><ele>161.20000000000002</ele><time>2026-05-01T15:31:38Z</time></trkpt><trkpt lat="48.55057595889227" lon="3.3826480203635763"><ele>161.4</ele><time>2026-05-01T15:31:39Z</time></trkpt><trkpt lat="48.55051621542157" lon="3.3827604077279583"><ele>161.6</ele><time>2026-05-01T15:31:40Z</time></trkpt><trkpt lat="48.550448939805705" lon="3.382878229083837"><ele>161.8</ele><time>2026-05-01T15:31:41Z</time></trkpt><trkpt lat="48.55037971586909" lon="3.3830035388344215"><ele>162.0</ele><time>2026-05-01T15:31:42Z</time></trkpt><trkpt lat="48.55032784408744" lon="3.3831005375497214"><ele>162.6</ele><time>2026-05-01T15:31:43Z</time></trkpt><trkpt lat="48.55026675401176" lon="3.3832006482115755"><ele>163.2</ele><time>2026-05-01T15:31:45Z</time></trkpt><trkpt lat="48.55017414820049" lon="3.3832740088589324"><ele>163.8</ele><time>2026-05-01T15:31:54Z</time></trkpt><trkpt lat="48.550096082450075" lon="3.383319588560575"><ele>164.4</ele><time>2026-05-01T15:31:55Z</time></trkpt><trkpt lat="48.55001594972367" lon="3.383420607490411"><ele>165.0</ele><time>2026-05-01T15:31:57Z</time></trkpt><trkpt lat="48.55002642679353" lon="3.3835998458252403"><ele>165.0</ele><time>2026-05-01T15:31:59Z</time></trkpt><trkpt lat="48.55005177448443" lon="3.3837411315237182"><ele>165.0</ele><time>2026-05-01T15:32:00Z</time></trkpt><trkpt lat="48.550078147722715" lon="3.3839131742723985"><ele>165.0</ele><time>2026-05-01T15:32:01Z</time></trkpt><trkpt lat="48.55011195387885" lon="3.384106826687427"><ele>165.0</ele><time>2026-05-01T15:32:02Z</time></trkpt><trkpt lat="48.550145162447436" lon="3.3843085914131157"><ele>165.5</ele><time>2026-05-01T15:32:03Z</time></trkpt><trkpt lat="48.550178765958904" lon="3.384503577928156"><ele>166.0</ele><time>2026-05-01T15:32:04Z</time></trkpt><trkpt lat="48.550213262026034" lon="3.384698798230859"><ele>166.5</ele><time>2026-05-01T15:32:05Z</time></trkpt><trkpt lat="48.5502438145711" lon="3.384895149558539"><ele>167.0</ele><time>2026-05-01T15:32:06Z</time></trkpt><trkpt lat="48.55027052605158" lon="3.3850944476086027"><ele>167.25</ele><time>2026-05-01T15:32:07Z</time></trkpt><trkpt lat="48.550299382739524" lon="3.385299880232468"><ele>167.5</ele><time>2026-05-01T15:32:08Z</time></trkpt><trkpt lat="48.55032016859332" lon="3.3855063933154392"><ele>167.75</ele><time>2026-05-01T15:32:09Z</time></trkpt><trkpt lat="48.55032946994057" lon="3.3857151323545147"><ele>168.0</ele><time>2026-05-01T15:32:10Z</time></trkpt><trkpt lat="48.550343767116665" lon="3.3859251460248863"><ele>168.0</ele><time>2026-05-01T15:32:11Z</time></trkpt><trkpt lat="48.550353653070204" lon="3.3861312602389813"><ele>168.0</ele><time>2026-05-01T15:32:12Z</time></trkpt><trkpt lat="48.550376520554146" lon="3.3863095824617115"><ele>168.0</ele><time>2026-05-01T15:32:13Z</time></trkpt><trkpt lat="48.55039488187811" lon="3.38645246942105"><ele>168.0</ele><time>2026-05-01T15:32:14Z</time></trkpt><trkpt lat="48.550391505813046" lon="3.386574830398169"><ele>168.0</ele><time>2026-05-01T15:32:15Z</time></trkpt><trkpt lat="48.55037638497334" lon="3.386668613917494"><ele>168.0</ele><time>2026-05-01T15:32:16Z</time></trkpt><trkpt lat="48.55034825011834" lon="3.386769833439816"><ele>168.0</ele><time>2026-05-01T15:32:18Z</time></trkpt><trkpt lat="48.55028482532145" lon="3.386807419768329"><ele>168.0</ele><time>2026-05-01T15:32:56Z</time></trkpt><trkpt lat="48.55032647994231" lon="3.386692625692948"><ele>168.0</ele><time>2026-05-01T15:32:58Z</time></trkpt><trkpt lat="48.55036609279853" lon="3.3866058897803546"><ele>168.0</ele><time>2026-05-01T15:32:59Z</time></trkpt><trkpt lat="48.5503744689158" lon="3.3865055990593853"><ele>168.0</ele><time>2026-05-01T15:33:00Z</time></trkpt><trkpt lat="48.55035785658412" lon="3.3863866347915406"><ele>168.0</ele><time>2026-05-01T15:33:01Z</time></trkpt><trkpt lat="48.55035229338593" lon="3.386248004368755"><ele>168.0</ele><time>2026-05-01T15:33:02Z</time></trkpt><trkpt lat="48.55034704063423" lon="3.3860778941654064"><ele>168.0</ele><time>2026-05-01T15:33:03Z</time></trkpt><trkpt lat="48.55033079380867" lon="3.385876637311045"><ele>168.0</ele><time>2026-05-01T15:33:04Z</time></trkpt><trkpt lat="48.55031368183143" lon="3.385660998833391"><ele>168.0</ele><time>2026-05-01T15:33:05Z</time></trkpt><trkpt lat="48.550294918811424" lon="3.385419388444581"><ele>168.33333333333334</ele><time>2026-05-01T15:33:06Z</time></trkpt><trkpt lat="48.5502820694955" lon="3.3851652214736476"><ele>168.66666666666669</ele><time>2026-05-01T15:33:07Z</time></trkpt><trkpt lat="48.55023987595069" lon="3.3849187274293357"><ele>169.0</ele><time>2026-05-01T15:33:08Z</time></trkpt><trkpt lat="48.55017691810431" lon="3.3847307726408347"><ele>168.33333333333334</ele><time>2026-05-01T15:33:09Z</time></trkpt><trkpt lat="48.5500900428865" lon="3.384620968463888"><ele>167.66666666666666</ele><time>2026-05-01T15:33:10Z</time></trkpt><trkpt lat="48.550116202909685" lon="3.384198598917195"><ele>167.0</ele><time>2026-05-01T15:33:11Z</time></trkpt><trkpt lat="48.550081763894475" lon="3.3839815783132834"><ele>166.6</ele><time>2026-05-01T15:33:12Z</time></trkpt><trkpt lat="48.55005174166564" lon="3.3837973835086927"><ele>166.2</ele><time>2026-05-01T15:33:13Z</time></trkpt><trkpt lat="48.550023238636726" lon="3.383633707836297"><ele>165.8</ele><time>2026-05-01T15:33:14Z</time></trkpt><trkpt lat="48.55000141063298" lon="3.3835150772844615"><ele>165.4</ele><time>2026-05-01T15:33:15Z</time></trkpt><trkpt lat="48.5499999051047" lon="3.383351031225128"><ele>165.0</ele><time>2026-05-01T15:33:17Z</time></trkpt><trkpt lat="48.55008247905864" lon="3.38324577098253"><ele>165.0</ele><time>2026-05-01T15:33:19Z</time></trkpt><trkpt lat="48.55014916192595" lon="3.383200210920515"><ele>165.0</ele><time>2026-05-01T15:33:20Z</time></trkpt><trkpt lat="48.55024124893687" lon="3.3831599409540365"><ele>165.0</ele><time>2026-05-01T15:33:21Z</time></trkpt><trkpt lat="48.550352038310386" lon="3.383132190202662"><ele>165.0</ele><time>2026-05-01T15:33:22Z</time></trkpt><trkpt lat="48.550481314778025" lon="3.383111644338095"><ele>165.0</ele><time>2026-05-01T15:33:23Z</time></trkpt><trkpt lat="48.550608620524905" lon="3.3830767567142"><ele>164.5</ele><time>2026-05-01T15:33:24Z</time></trkpt><trkpt lat="48.55074958860567" lon="3.383036516217857"><ele>164.0</ele><time>2026-05-01T15:33:25Z</time></trkpt><trkpt lat="48.550885642421335" lon="3.3829839791408465"><ele>163.5</ele><time>2026-05-01T15:33:26Z</time></trkpt><trkpt lat="48.551040925536384" lon="3.382940374828588"><ele>163.0</ele><time>2026-05-01T15:33:27Z</time></trkpt><trkpt lat="48.55120876362617" lon="3.3828897347554108"><ele>161.0</ele><time>2026-05-01T15:33:28Z</time></trkpt><trkpt lat="48.55137756010479" lon="3.382836903024873"><ele>159.0</ele><time>2026-05-01T15:33:29Z</time></trkpt><trkpt lat="48.55154363558666" lon="3.382780796175359"><ele>157.0</ele><time>2026-05-01T15:33:30Z</time></trkpt><trkpt lat="48.551727099351986" lon="3.3827206839985338"><ele>157.0</ele><time>2026-05-01T15:33:31Z</time></trkpt><trkpt lat="48.55188650514305" lon="3.382664014351658"><ele>157.0</ele><time>2026-05-01T15:33:32Z</time></trkpt><trkpt lat="48.552049477203376" lon="3.382611349366181"><ele>157.0</ele><time>2026-05-01T15:33:33Z</time></trkpt><trkpt lat="48.55221432977828" lon="3.38256226623973"><ele>156.33333333333334</ele><time>2026-05-01T15:33:34Z</time></trkpt><trkpt lat="48.55237960606515" lon="3.38251301403253"><ele>155.66666666666666</ele><time>2026-05-01T15:33:35Z</time></trkpt><trkpt lat="48.55254272226527" lon="3.382460528334078"><ele>155.0</ele><time>2026-05-01T15:33:36Z</time></trkpt><trkpt lat="48.55269966194134" lon="3.3824219726180447"><ele>155.0</ele><time>2026-05-01T15:33:37Z</time></trkpt><trkpt lat="48.55285197898039" lon="3.382370786211755"><ele>155.0</ele><time>2026-05-01T15:33:38Z</time></trkpt><trkpt lat="48.552978535559035" lon="3.382335568592584"><ele>155.0</ele><time>2026-05-01T15:33:39Z</time></trkpt><trkpt lat="48.55310220744237" lon="3.3822778141241496"><ele>155.0</ele><time>2026-05-01T15:33:40Z</time></trkpt><trkpt lat="48.55323600840024" lon="3.3822261392125323"><ele>154.5</ele><time>2026-05-01T15:33:41Z</time></trkpt><trkpt lat="48.55337067030915" lon="3.382166749276331"><ele>154.0</ele><time>2026-05-01T15:33:42Z</time></trkpt><trkpt lat="48.553510564775586" lon="3.382112161002352"><ele>153.5</ele><time>2026-05-01T15:33:43Z</time></trkpt><trkpt lat="48.55364962451197" lon="3.382060343557769"><ele>153.0</ele><time>2026-05-01T15:33:44Z</time></trkpt><trkpt lat="48.55378132158574" lon="3.381997133729333"><ele>153.0</ele><time>2026-05-01T15:33:45Z</time></trkpt><trkpt lat="48.55391749836339" lon="3.3819412626958214"><ele>153.0</ele><time>2026-05-01T15:33:46Z</time></trkpt><trkpt lat="48.55405077049545" lon="3.3818891533782307"><ele>153.0</ele><time>2026-05-01T15:33:47Z</time></trkpt><trkpt lat="48.55419147060347" lon="3.381832635227137"><ele>153.0</ele><time>2026-05-01T15:33:48Z</time></trkpt><trkpt lat="48.554335529196386" lon="3.381777314922732"><ele>153.0</ele><time>2026-05-01T15:33:49Z</time></trkpt><trkpt lat="48.55448290254346" lon="3.3817241700399276"><ele>153.0</ele><time>2026-05-01T15:33:50Z</time></trkpt><trkpt lat="48.55462392913133" lon="3.381668309947728"><ele>153.0</ele><time>2026-05-01T15:33:51Z</time></trkpt><trkpt lat="48.55476626869314" lon="3.3816184335904382"><ele>153.0</ele><time>2026-05-01T15:33:52Z</time></trkpt><trkpt lat="48.55488233053513" lon="3.3815875063779908"><ele>152.66666666666666</ele><time>2026-05-01T15:33:53Z</time></trkpt><trkpt lat="48.554962386024116" lon="3.38155205855613"><ele>152.33333333333334</ele><time>2026-05-01T15:33:54Z</time></trkpt><trkpt lat="48.555053568473525" lon="3.3815159772293986"><ele>152.0</ele><time>2026-05-01T15:33:56Z</time></trkpt><trkpt lat="48.5551099388313" lon="3.381471432537536"><ele>151.66666666666669</ele><time>2026-05-01T15:34:02Z</time></trkpt><trkpt lat="48.555194586006486" lon="3.3814838761192183"><ele>151.33333333333334</ele><time>2026-05-01T15:34:16Z</time></trkpt><trkpt lat="48.555275575512724" lon="3.381470734337114"><ele>151.0</ele><time>2026-05-01T15:34:19Z</time></trkpt><trkpt lat="48.55538190696951" lon="3.3814482510297528"><ele>150.6</ele><time>2026-05-01T15:34:21Z</time></trkpt><trkpt lat="48.55546230858838" lon="3.3814388985385126"><ele>150.2</ele><time>2026-05-01T15:34:22Z</time></trkpt><trkpt lat="48.55555443693742" lon="3.3814288753371016"><ele>149.8</ele><time>2026-05-01T15:34:23Z</time></trkpt><trkpt lat="48.55565342803182" lon="3.38141388085644"><ele>149.4</ele><time>2026-05-01T15:34:24Z</time></trkpt><trkpt lat="48.5557684495251" lon="3.38140108343372"><ele>149.0</ele><time>2026-05-01T15:34:25Z</time></trkpt><trkpt lat="48.55588838374632" lon="3.3813912083848283"><ele>149.0</ele><time>2026-05-01T15:34:26Z</time></trkpt><trkpt lat="48.556012727266086" lon="3.3813684757176175"><ele>149.0</ele><time>2026-05-01T15:34:27Z</time></trkpt><trkpt lat="48.55614106961718" lon="3.381355060626975"><ele>149.0</ele><time>2026-05-01T15:34:28Z</time></trkpt><trkpt lat="48.55627490994328" lon="3.3813356610694005"><ele>149.0</ele><time>2026-05-01T15:34:29Z</time></trkpt><trkpt lat="48.556409305112126" lon="3.3813219136235846"><ele>148.0</ele><time>2026-05-01T15:34:30Z</time></trkpt><trkpt lat="48.556545620183584" lon="3.381300795421382"><ele>147.0</ele><time>2026-05-01T15:34:31Z</time></trkpt><trkpt lat="48.556680762217695" lon="3.381282802320006"><ele>146.0</ele><time>2026-05-01T15:34:32Z</time></trkpt><trkpt lat="48.55681620162712" lon="3.381253238864819"><ele>145.0</ele><time>2026-05-01T15:34:33Z</time></trkpt><trkpt lat="48.5569402546011" lon="3.3812301632503083"><ele>144.83333333333334</ele><time>2026-05-01T15:34:34Z</time></trkpt><trkpt lat="48.55704909867395" lon="3.3812101691081815"><ele>144.66666666666669</ele><time>2026-05-01T15:34:35Z</time></trkpt><trkpt lat="48.55714528039603" lon="3.381206198289942"><ele>144.5</ele><time>2026-05-01T15:34:36Z</time></trkpt><trkpt lat="48.557232105137885" lon="3.381190284622957"><ele>144.33333333333334</ele><time>2026-05-01T15:34:37Z</time></trkpt><trkpt lat="48.55730244594992" lon="3.381177773101218"><ele>144.16666666666666</ele><time>2026-05-01T15:34:38Z</time></trkpt><trkpt lat="48.557372280298566" lon="3.381184995892608"><ele>144.0</ele><time>2026-05-01T15:34:40Z</time></trkpt><trkpt lat="48.55744627236547" lon="3.3812563630555834"><ele>144.5</ele><time>2026-05-01T15:35:07Z</time></trkpt><trkpt lat="48.557443511773926" lon="3.3813949250256212"><ele>145.0</ele><time>2026-05-01T15:35:08Z</time></trkpt><trkpt lat="48.55739898227937" lon="3.381599805113961"><ele>145.5</ele><time>2026-05-01T15:35:09Z</time></trkpt><trkpt lat="48.557390472287146" lon="3.381810525706692"><ele>146.0</ele><time>2026-05-01T15:35:10Z</time></trkpt><trkpt lat="48.557381433621146" lon="3.382034337001673"><ele>146.66666666666666</ele><time>2026-05-01T15:35:11Z</time></trkpt><trkpt lat="48.55737166540987" lon="3.3822762129219215"><ele>147.33333333333334</ele><time>2026-05-01T15:35:12Z</time></trkpt><trkpt lat="48.55736163810072" lon="3.382529109570345"><ele>148.0</ele><time>2026-05-01T15:35:13Z</time></trkpt><trkpt lat="48.55735145954353" lon="3.382800244216977"><ele>148.33333333333334</ele><time>2026-05-01T15:35:14Z</time></trkpt><trkpt lat="48.557341243315285" lon="3.3830723823790536"><ele>148.66666666666666</ele><time>2026-05-01T15:35:15Z</time></trkpt><trkpt lat="48.55733042835324" lon="3.383360469475311"><ele>149.0</ele><time>2026-05-01T15:35:16Z</time></trkpt><trkpt lat="48.557319269440946" lon="3.3836577186853036"><ele>148.66666666666666</ele><time>2026-05-01T15:35:17Z</time></trkpt><trkpt lat="48.55730801547908" lon="3.3839624706451996"><ele>148.33333333333334</ele><time>2026-05-01T15:35:18Z</time></trkpt><trkpt lat="48.55729676008344" lon="3.384271067474435"><ele>148.0</ele><time>2026-05-01T15:35:19Z</time></trkpt><trkpt lat="48.55728460950858" lon="3.3845842493501874"><ele>149.0</ele><time>2026-05-01T15:35:20Z</time></trkpt><trkpt lat="48.55727105542974" lon="3.3849004794016846"><ele>150.0</ele><time>2026-05-01T15:35:21Z</time></trkpt><trkpt lat="48.55725608314187" lon="3.3852222615221677"><ele>151.0</ele><time>2026-05-01T15:35:22Z</time></trkpt><trkpt lat="48.55723540896697" lon="3.385530035182628"><ele>151.0</ele><time>2026-05-01T15:35:23Z</time></trkpt><trkpt lat="48.557199402717195" lon="3.3858341807623478"><ele>151.0</ele><time>2026-05-01T15:35:24Z</time></trkpt><trkpt lat="48.55715030895734" lon="3.386140846997273"><ele>151.0</ele><time>2026-05-01T15:35:25Z</time></trkpt><trkpt lat="48.55710171119969" lon="3.386396823711438"><ele>151.0</ele><time>2026-05-01T15:35:26Z</time></trkpt><trkpt lat="48.55707165733967" lon="3.386566647648049"><ele>151.0</ele><time>2026-05-01T15:35:27Z</time></trkpt><trkpt lat="48.55704608396843" lon="3.3866802779980407"><ele>151.0</ele><time>2026-05-01T15:35:28Z</time></trkpt><trkpt lat="48.5570092384211" lon="3.3867814826632854"><ele>151.0</ele><time>2026-05-01T15:35:30Z</time></trkpt><trkpt lat="48.55716225552083" lon="3.386856152196843"><ele>151.0</ele><time>2026-05-01T15:35:31Z</time></trkpt><trkpt lat="48.55727778608107" lon="3.3868753030201386"><ele>151.0</ele><time>2026-05-01T15:35:32Z</time></trkpt><trkpt lat="48.55741229380795" lon="3.3869111673208776"><ele>151.0</ele><time>2026-05-01T15:35:33Z</time></trkpt><trkpt lat="48.55756088362202" lon="3.3869604309580823"><ele>151.0</ele><time>2026-05-01T15:35:34Z</time></trkpt><trkpt lat="48.55771711662115" lon="3.3870155443228493"><ele>151.0</ele><time>2026-05-01T15:35:35Z</time></trkpt><trkpt lat="48.557883456825834" lon="3.387068584719028"><ele>151.0</ele><time>2026-05-01T15:35:36Z</time></trkpt><trkpt lat="48.55805490298243" lon="3.3871340014789664"><ele>151.0</ele><time>2026-05-01T15:35:37Z</time></trkpt><trkpt lat="48.558238000620435" lon="3.387198931708052"><ele>151.0</ele><time>2026-05-01T15:35:38Z</time></trkpt><trkpt lat="48.55840947295029" lon="3.3872547014748204"><ele>151.0</ele><time>2026-05-01T15:35:39Z</time></trkpt><trkpt lat="48.558590966730485" lon="3.387317968408488"><ele>151.0</ele><time>2026-05-01T15:35:40Z</time></trkpt><trkpt lat="48.55877504872265" lon="3.3873764217947797"><ele>151.0</ele><time>2026-05-01T15:35:41Z</time></trkpt><trkpt lat="48.558959577947256" lon="3.3874427525419017"><ele>151.0</ele><time>2026-05-01T15:35:42Z</time></trkpt><trkpt lat="48.55914570360785" lon="3.3875176382863335"><ele>151.0</ele><time>2026-05-01T15:35:43Z</time></trkpt><trkpt lat="48.55933464735068" lon="3.387581290661042"><ele>151.0</ele><time>2026-05-01T15:35:44Z</time></trkpt><trkpt lat="48.559521721926835" lon="3.3876438724330438"><ele>151.33333333333334</ele><time>2026-05-01T15:35:45Z</time></trkpt><trkpt lat="48.55970919019383" lon="3.387720565094926"><ele>151.66666666666666</ele><time>2026-05-01T15:35:46Z</time></trkpt><trkpt lat="48.5598872362727" lon="3.387773215430974"><ele>152.0</ele><time>2026-05-01T15:35:47Z</time></trkpt><trkpt lat="48.56003411939191" lon="3.387827949454768"><ele>152.0</ele><time>2026-05-01T15:35:48Z</time></trkpt><trkpt lat="48.560189715807894" lon="3.387878181157584"><ele>152.0</ele><time>2026-05-01T15:35:49Z</time></trkpt><trkpt lat="48.560341361650984" lon="3.387925769310018"><ele>152.0</ele><time>2026-05-01T15:35:50Z</time></trkpt><trkpt lat="48.5604981854573" lon="3.3879819281494554"><ele>152.66666666666666</ele><time>2026-05-01T15:35:51Z</time></trkpt><trkpt lat="48.56065421805234" lon="3.388032470352238"><ele>153.33333333333334</ele><time>2026-05-01T15:35:52Z</time></trkpt><trkpt lat="48.56080935223191" lon="3.388079714921919"><ele>154.0</ele><time>2026-05-01T15:35:53Z</time></trkpt><trkpt lat="48.560966807876284" lon="3.388143914749282"><ele>154.0</ele><time>2026-05-01T15:35:54Z</time></trkpt><trkpt lat="48.56111604555494" lon="3.388179299421518"><ele>154.0</ele><time>2026-05-01T15:35:55Z</time></trkpt><trkpt lat="48.561297401195866" lon="3.388270551812659"><ele>154.0</ele><time>2026-05-01T15:35:56Z</time></trkpt><trkpt lat="48.56146216515701" lon="3.388313181560672"><ele>154.75</ele><time>2026-05-01T15:35:57Z</time></trkpt><trkpt lat="48.56163348807066" lon="3.3883666496190887"><ele>155.5</ele><time>2026-05-01T15:35:58Z</time></trkpt><trkpt lat="48.561771437810734" lon="3.388422174235572"><ele>156.25</ele><time>2026-05-01T15:35:59Z</time></trkpt><trkpt lat="48.561888186896695" lon="3.3884806401347185"><ele>157.0</ele><time>2026-05-01T15:36:00Z</time></trkpt><trkpt lat="48.561985545998205" lon="3.388517253625001"><ele>157.5</ele><time>2026-05-01T15:36:01Z</time></trkpt><trkpt lat="48.56206504182087" lon="3.3885376732446497"><ele>158.0</ele><time>2026-05-01T15:36:02Z</time></trkpt><trkpt lat="48.562143169286195" lon="3.388567543762649"><ele>158.5</ele><time>2026-05-01T15:36:03Z</time></trkpt><trkpt lat="48.56223065454691" lon="3.3885261728580645"><ele>159.0</ele><time>2026-05-01T15:36:07Z</time></trkpt><trkpt lat="48.56224517054073" lon="3.3884312018957177"><ele>159.5</ele><time>2026-05-01T15:36:08Z</time></trkpt><trkpt lat="48.56225159991403" lon="3.388278456181087"><ele>160.0</ele><time>2026-05-01T15:36:09Z</time></trkpt><trkpt lat="48.56227272209882" lon="3.388095609628573"><ele>160.0</ele><time>2026-05-01T15:36:10Z</time></trkpt><trkpt lat="48.56230213008278" lon="3.3878973737866627"><ele>160.0</ele><time>2026-05-01T15:36:11Z</time></trkpt><trkpt lat="48.56232887302126" lon="3.3876848230383856"><ele>160.0</ele><time>2026-05-01T15:36:12Z</time></trkpt><trkpt lat="48.56235935769256" lon="3.3874616481151265"><ele>160.0</ele><time>2026-05-01T15:36:13Z</time></trkpt><trkpt lat="48.56239663098656" lon="3.3872264464325395"><ele>160.0</ele><time>2026-05-01T15:36:14Z</time></trkpt><trkpt lat="48.56243613182396" lon="3.3869865291715024"><ele>160.0</ele><time>2026-05-01T15:36:15Z</time></trkpt><trkpt lat="48.56247709674879" lon="3.3867472510910357"><ele>160.0</ele><time>2026-05-01T15:36:16Z</time></trkpt><trkpt lat="48.562510934391604" lon="3.386500571807723"><ele>160.33333333333334</ele><time>2026-05-01T15:36:17Z</time></trkpt><trkpt lat="48.56255570586194" lon="3.386252863256009"><ele>160.66666666666666</ele><time>2026-05-01T15:36:18Z</time></trkpt><trkpt lat="48.56259225230182" lon="3.385998640514899"><ele>161.0</ele><time>2026-05-01T15:36:19Z</time></trkpt><trkpt lat="48.5626446934344" lon="3.3857524254382763"><ele>160.33333333333331</ele><time>2026-05-01T15:36:20Z</time></trkpt><trkpt lat="48.56269672707182" lon="3.3854995264232057"><ele>159.66666666666666</ele><time>2026-05-01T15:36:21Z</time></trkpt><trkpt lat="48.56273934806975" lon="3.385235716918747"><ele>159.0</ele><time>2026-05-01T15:36:22Z</time></trkpt><trkpt lat="48.562782434164326" lon="3.3849692297302947"><ele>159.0</ele><time>2026-05-01T15:36:23Z</time></trkpt><trkpt lat="48.562822993570904" lon="3.3846919720391275"><ele>159.0</ele><time>2026-05-01T15:36:24Z</time></trkpt><trkpt lat="48.56286463821749" lon="3.3844039569931605"><ele>159.0</ele><time>2026-05-01T15:36:25Z</time></trkpt><trkpt lat="48.56290865600331" lon="3.384115076949524"><ele>157.66666666666666</ele><time>2026-05-01T15:36:26Z</time></trkpt><trkpt lat="48.56295741534465" lon="3.3838311821842644"><ele>156.33333333333331</ele><time>2026-05-01T15:36:27Z</time></trkpt><trkpt lat="48.56300792045052" lon="3.3835431961824467"><ele>155.0</ele><time>2026-05-01T15:36:28Z</time></trkpt><trkpt lat="48.56306584409043" lon="3.383254778366181"><ele>154.0</ele><time>2026-05-01T15:36:29Z</time></trkpt><trkpt lat="48.563120287168296" lon="3.382955974517716"><ele>153.0</ele><time>2026-05-01T15:36:30Z</time></trkpt><trkpt lat="48.56317180336295" lon="3.382649417144685"><ele>152.0</ele><time>2026-05-01T15:36:31Z</time></trkpt><trkpt lat="48.563230787513895" lon="3.3823448633294855"><ele>151.66666666666666</ele><time>2026-05-01T15:36:32Z</time></trkpt><trkpt lat="48.56328889396855" lon="3.382036045895815"><ele>151.33333333333334</ele><time>2026-05-01T15:36:33Z</time></trkpt><trkpt lat="48.56334854094522" lon="3.381725337673901"><ele>151.0</ele><time>2026-05-01T15:36:34Z</time></trkpt><trkpt lat="48.563397560080034" lon="3.3814127491390646"><ele>150.33333333333334</ele><time>2026-05-01T15:36:35Z</time></trkpt><trkpt lat="48.56344981563278" lon="3.3810995738733745"><ele>149.66666666666666</ele><time>2026-05-01T15:36:36Z</time></trkpt><trkpt lat="48.56349298323701" lon="3.380809334620292"><ele>149.0</ele><time>2026-05-01T15:36:37Z</time></trkpt><trkpt lat="48.56352430365747" lon="3.380571153031396"><ele>148.8</ele><time>2026-05-01T15:36:38Z</time></trkpt><trkpt lat="48.56356225982375" lon="3.380373481725316"><ele>148.60000000000002</ele><time>2026-05-01T15:36:39Z</time></trkpt><trkpt lat="48.56359147399112" lon="3.380217654788832"><ele>148.4</ele><time>2026-05-01T15:36:40Z</time></trkpt><trkpt lat="48.56361309480593" lon="3.3800916780977506"><ele>148.20000000000002</ele><time>2026-05-01T15:36:41Z</time></trkpt><trkpt lat="48.56363632877008" lon="3.3799750824204042"><ele>148.0</ele><time>2026-05-01T15:36:42Z</time></trkpt><trkpt lat="48.56365658187027" lon="3.3798244890969"><ele>147.75</ele><time>2026-05-01T15:36:43Z</time></trkpt><trkpt lat="48.563685154365245" lon="3.379638634107161"><ele>147.5</ele><time>2026-05-01T15:36:44Z</time></trkpt><trkpt lat="48.563713560529486" lon="3.37940749042512"><ele>147.25</ele><time>2026-05-01T15:36:45Z</time></trkpt><trkpt lat="48.563750976300696" lon="3.3791691933623205"><ele>147.0</ele><time>2026-05-01T15:36:46Z</time></trkpt><trkpt lat="48.56377858528757" lon="3.3789438182895455"><ele>146.4</ele><time>2026-05-01T15:36:47Z</time></trkpt><trkpt lat="48.563801699885005" lon="3.378767726599808"><ele>145.79999999999998</ele><time>2026-05-01T15:36:48Z</time></trkpt><trkpt lat="48.563825860169565" lon="3.3786152973267103"><ele>145.2</ele><time>2026-05-01T15:36:49Z</time></trkpt><trkpt lat="48.563853141433036" lon="3.378485172355642"><ele>144.6</ele><time>2026-05-01T15:36:50Z</time></trkpt><trkpt lat="48.56388962409349" lon="3.3783457619626462"><ele>144.0</ele><time>2026-05-01T15:36:51Z</time></trkpt><trkpt lat="48.56392393837747" lon="3.3782078313845947"><ele>144.0</ele><time>2026-05-01T15:36:52Z</time></trkpt><trkpt lat="48.56394039812254" lon="3.3780972641078257"><ele>144.0</ele><time>2026-05-01T15:36:53Z</time></trkpt><trkpt lat="48.564021307573384" lon="3.37806271142887"><ele>144.0</ele><time>2026-05-01T15:36:56Z</time></trkpt><trkpt lat="48.56413155149713" lon="3.3782214198377036"><ele>144.0</ele><time>2026-05-01T15:36:58Z</time></trkpt><trkpt lat="48.564207388589836" lon="3.378344841534072"><ele>144.0</ele><time>2026-05-01T15:36:59Z</time></trkpt><trkpt lat="48.564300334589184" lon="3.37846994951354"><ele>144.0</ele><time>2026-05-01T15:37:00Z</time></trkpt><trkpt lat="48.56439545527719" lon="3.3786100472542597"><ele>144.0</ele><time>2026-05-01T15:37:01Z</time></trkpt><trkpt lat="48.56449607362402" lon="3.378749804030805"><ele>144.0</ele><time>2026-05-01T15:37:02Z</time></trkpt><trkpt lat="48.56460119446812" lon="3.378891807952512"><ele>144.0</ele><time>2026-05-01T15:37:03Z</time></trkpt><trkpt lat="48.564716190811225" lon="3.379028398054843"><ele>144.33333333333334</ele><time>2026-05-01T15:37:04Z</time></trkpt><trkpt lat="48.56484103930542" lon="3.3791567579125297"><ele>144.66666666666669</ele><time>2026-05-01T15:37:05Z</time></trkpt><trkpt lat="48.56496875602509" lon="3.379277994604746"><ele>145.0</ele><time>2026-05-01T15:37:06Z</time></trkpt><trkpt lat="48.56509480678944" lon="3.3794027582320467"><ele>145.0</ele><time>2026-05-01T15:37:07Z</time></trkpt><trkpt lat="48.56521836427396" lon="3.3795388732252367"><ele>145.0</ele><time>2026-05-01T15:37:08Z</time></trkpt><trkpt lat="48.56534400883967" lon="3.379671457685178"><ele>145.0</ele><time>2026-05-01T15:37:09Z</time></trkpt><trkpt lat="48.56547355274483" lon="3.379803623188762"><ele>144.66666666666669</ele><time>2026-05-01T15:37:10Z</time></trkpt><trkpt lat="48.565601619435924" lon="3.379944553280339"><ele>144.33333333333334</ele><time>2026-05-01T15:37:11Z</time></trkpt><trkpt lat="48.56573347195726" lon="3.3800853771779917"><ele>144.0</ele><time>2026-05-01T15:37:12Z</time></trkpt><trkpt lat="48.565867981385665" lon="3.380226160243607"><ele>144.0</ele><time>2026-05-01T15:37:13Z</time></trkpt><trkpt lat="48.566006249370666" lon="3.380385797914692"><ele>144.0</ele><time>2026-05-01T15:37:14Z</time></trkpt><trkpt lat="48.566151187176025" lon="3.3805486454466847"><ele>144.0</ele><time>2026-05-01T15:37:15Z</time></trkpt><trkpt lat="48.566302856381476" lon="3.380718408930024"><ele>144.0</ele><time>2026-05-01T15:37:16Z</time></trkpt><trkpt lat="48.56644634195225" lon="3.380887676605031"><ele>144.0</ele><time>2026-05-01T15:37:17Z</time></trkpt><trkpt lat="48.566573479824285" lon="3.3810448926276067"><ele>144.0</ele><time>2026-05-01T15:37:18Z</time></trkpt><trkpt lat="48.56666826116822" lon="3.3811894543608023"><ele>144.0</ele><time>2026-05-01T15:37:19Z</time></trkpt><trkpt lat="48.56675387109933" lon="3.3813032635325317"><ele>144.0</ele><time>2026-05-01T15:37:20Z</time></trkpt><trkpt lat="48.566812299878045" lon="3.3813830988749447"><ele>144.0</ele><time>2026-05-01T15:37:21Z</time></trkpt><trkpt lat="48.56687545593538" lon="3.3814526276060195"><ele>144.0</ele><time>2026-05-01T15:37:22Z</time></trkpt><trkpt lat="48.56696874491168" lon="3.38148131428631"><ele>144.0</ele><time>2026-05-01T15:37:23Z</time></trkpt><trkpt lat="48.56709665909375" lon="3.3814939873352055"><ele>144.0</ele><time>2026-05-01T15:37:24Z</time></trkpt><trkpt lat="48.5672384140897" lon="3.381506084822907"><ele>144.0</ele><time>2026-05-01T15:37:25Z</time></trkpt><trkpt lat="48.567396062755925" lon="3.381538257840073"><ele>144.0</ele><time>2026-05-01T15:37:26Z</time></trkpt><trkpt lat="48.5675601068183" lon="3.3815756051601475"><ele>144.0</ele><time>2026-05-01T15:37:27Z</time></trkpt><trkpt lat="48.567709290640515" lon="3.381620433512728"><ele>144.0</ele><time>2026-05-01T15:37:28Z</time></trkpt><trkpt lat="48.5678451455161" lon="3.381676266321823"><ele>144.0</ele><time>2026-05-01T15:37:29Z</time></trkpt><trkpt lat="48.56798730448822" lon="3.3817782663221005"><ele>143.0</ele><time>2026-05-01T15:37:30Z</time></trkpt><trkpt lat="48.568121377302965" lon="3.3819196808037413"><ele>142.0</ele><time>2026-05-01T15:37:31Z</time></trkpt><trkpt lat="48.568236492303846" lon="3.382109086692309"><ele>141.0</ele><time>2026-05-01T15:37:32Z</time></trkpt><trkpt lat="48.5683681569535" lon="3.382297614636157"><ele>141.0</ele><time>2026-05-01T15:37:33Z</time></trkpt><trkpt lat="48.56849964228105" lon="3.382468098210425"><ele>141.0</ele><time>2026-05-01T15:37:34Z</time></trkpt><trkpt lat="48.56864830253879" lon="3.3826485841686336"><ele>141.0</ele><time>2026-05-01T15:37:35Z</time></trkpt><trkpt lat="48.5688066751575" lon="3.3828182608747537"><ele>141.0</ele><time>2026-05-01T15:37:36Z</time></trkpt><trkpt lat="48.56896792603262" lon="3.3829775033921434"><ele>141.0</ele><time>2026-05-01T15:37:37Z</time></trkpt><trkpt lat="48.569127549818425" lon="3.3831423146926296"><ele>141.0</ele><time>2026-05-01T15:37:38Z</time></trkpt><trkpt lat="48.56929093497375" lon="3.383304395977803"><ele>141.0</ele><time>2026-05-01T15:37:39Z</time></trkpt><trkpt lat="48.56945703365775" lon="3.3834627103930472"><ele>141.0</ele><time>2026-05-01T15:37:40Z</time></trkpt><trkpt lat="48.569626749739555" lon="3.383616683414077"><ele>141.0</ele><time>2026-05-01T15:37:41Z</time></trkpt><trkpt lat="48.569793966426026" lon="3.3837683933583755"><ele>141.66666666666666</ele><time>2026-05-01T15:37:42Z</time></trkpt><trkpt lat="48.56996156270066" lon="3.3839192234870383"><ele>142.33333333333331</ele><time>2026-05-01T15:37:43Z</time></trkpt><trkpt lat="48.57012768372157" lon="3.3840687375762215"><ele>143.0</ele><time>2026-05-01T15:37:44Z</time></trkpt><trkpt lat="48.57029852568079" lon="3.384209311387194"><ele>143.33333333333331</ele><time>2026-05-01T15:37:45Z</time></trkpt><trkpt lat="48.57047059671198" lon="3.3843459087840877"><ele>143.66666666666666</ele><time>2026-05-01T15:37:46Z</time></trkpt><trkpt lat="48.57064702925872" lon="3.384480156281315"><ele>144.0</ele><time>2026-05-01T15:37:47Z</time></trkpt><trkpt lat="48.57082401411943" lon="3.38461945796563"><ele>144.0</ele><time>2026-05-01T15:37:48Z</time></trkpt><trkpt lat="48.57099946178861" lon="3.3847605305981814"><ele>144.0</ele><time>2026-05-01T15:37:49Z</time></trkpt><trkpt lat="48.57117769634084" lon="3.3848970046267994"><ele>144.0</ele><time>2026-05-01T15:37:50Z</time></trkpt><trkpt lat="48.571355574240485" lon="3.385028563987607"><ele>144.0</ele><time>2026-05-01T15:37:51Z</time></trkpt><trkpt lat="48.571530716193394" lon="3.3851775831272164"><ele>144.0</ele><time>2026-05-01T15:37:52Z</time></trkpt><trkpt lat="48.57170947899882" lon="3.3853280917865227"><ele>144.0</ele><time>2026-05-01T15:37:53Z</time></trkpt><trkpt lat="48.571890352654876" lon="3.3854723719043256"><ele>143.66666666666666</ele><time>2026-05-01T15:37:54Z</time></trkpt><trkpt lat="48.57207154985845" lon="3.3856204713602325"><ele>143.33333333333331</ele><time>2026-05-01T15:37:55Z</time></trkpt><trkpt lat="48.57225504442832" lon="3.3857710519027187"><ele>143.0</ele><time>2026-05-01T15:37:56Z</time></trkpt><trkpt lat="48.572427433466956" lon="3.385909608919066"><ele>143.0</ele><time>2026-05-01T15:37:57Z</time></trkpt><trkpt lat="48.572576132522805" lon="3.386030262470133"><ele>143.0</ele><time>2026-05-01T15:37:58Z</time></trkpt><trkpt lat="48.57270872595751" lon="3.386142421417009"><ele>143.0</ele><time>2026-05-01T15:37:59Z</time></trkpt><trkpt lat="48.57282926466426" lon="3.386236592534147"><ele>142.66666666666666</ele><time>2026-05-01T15:38:00Z</time></trkpt><trkpt lat="48.572936682161725" lon="3.3863216288150397"><ele>142.33333333333331</ele><time>2026-05-01T15:38:01Z</time></trkpt><trkpt lat="48.57301916889451" lon="3.386385576096828"><ele>142.0</ele><time>2026-05-01T15:38:02Z</time></trkpt><trkpt lat="48.57308501251962" lon="3.3864270452201355"><ele>141.66666666666666</ele><time>2026-05-01T15:38:03Z</time></trkpt><trkpt lat="48.573151168285825" lon="3.38642242617331"><ele>141.33333333333334</ele><time>2026-05-01T15:38:32Z</time></trkpt><trkpt lat="48.57322156833196" lon="3.3864353854052838"><ele>141.0</ele><time>2026-05-01T15:38:33Z</time></trkpt><trkpt lat="48.573325518767156" lon="3.3864476437803175"><ele>141.0</ele><time>2026-05-01T15:38:34Z</time></trkpt><trkpt lat="48.57344901573593" lon="3.3864534522275"><ele>141.0</ele><time>2026-05-01T15:38:35Z</time></trkpt><trkpt lat="48.57358615727625" lon="3.3864649503014626"><ele>141.0</ele><time>2026-05-01T15:38:36Z</time></trkpt><trkpt lat="48.57372617658884" lon="3.386498786398153"><ele>141.0</ele><time>2026-05-01T15:38:37Z</time></trkpt><trkpt lat="48.57388027369749" lon="3.3865294275421607"><ele>139.66666666666666</ele><time>2026-05-01T15:38:38Z</time></trkpt><trkpt lat="48.57403831885487" lon="3.3865815964478667"><ele>138.33333333333331</ele><time>2026-05-01T15:38:39Z</time></trkpt><trkpt lat="48.574178860493234" lon="3.3866605583043756"><ele>137.0</ele><time>2026-05-01T15:38:40Z</time></trkpt><trkpt lat="48.57430952516741" lon="3.386739265457038"><ele>137.0</ele><time>2026-05-01T15:38:41Z</time></trkpt><trkpt lat="48.57443730644455" lon="3.386843461255483"><ele>137.0</ele><time>2026-05-01T15:38:42Z</time></trkpt><trkpt lat="48.574568760710605" lon="3.386950166972928"><ele>137.0</ele><time>2026-05-01T15:38:43Z</time></trkpt><trkpt lat="48.57468967955226" lon="3.387065261948794"><ele>137.0</ele><time>2026-05-01T15:38:44Z</time></trkpt><trkpt lat="48.57480438097212" lon="3.387185474051414"><ele>136.6</ele><time>2026-05-01T15:38:45Z</time></trkpt><trkpt lat="48.574899843221" lon="3.3872969144451717"><ele>136.2</ele><time>2026-05-01T15:38:46Z</time></trkpt><trkpt lat="48.574977059052564" lon="3.3874142222989887"><ele>135.8</ele><time>2026-05-01T15:38:47Z</time></trkpt><trkpt lat="48.57504756495699" lon="3.3875199993442386"><ele>135.4</ele><time>2026-05-01T15:38:48Z</time></trkpt><trkpt lat="48.57511451607255" lon="3.3876588041618017"><ele>135.0</ele><time>2026-05-01T15:38:49Z</time></trkpt><trkpt lat="48.57518564722173" lon="3.3878042771079087"><ele>135.0</ele><time>2026-05-01T15:38:50Z</time></trkpt><trkpt lat="48.57524180678828" lon="3.3879626349195973"><ele>135.0</ele><time>2026-05-01T15:38:51Z</time></trkpt><trkpt lat="48.575292437496906" lon="3.388096716367808"><ele>135.0</ele><time>2026-05-01T15:38:52Z</time></trkpt><trkpt lat="48.575343984336925" lon="3.3882237435255957"><ele>135.0</ele><time>2026-05-01T15:38:53Z</time></trkpt><trkpt lat="48.575388080888324" lon="3.3883305318035246"><ele>135.0</ele><time>2026-05-01T15:38:54Z</time></trkpt><trkpt lat="48.57544421113122" lon="3.3884188027587796"><ele>134.16666666666666</ele><time>2026-05-01T15:38:56Z</time></trkpt><trkpt lat="48.57552443762543" lon="3.3884223522982846"><ele>133.33333333333334</ele><time>2026-05-01T15:39:03Z</time></trkpt><trkpt lat="48.57563631868745" lon="3.3883138382705416"><ele>132.5</ele><time>2026-05-01T15:39:05Z</time></trkpt><trkpt lat="48.57569900194824" lon="3.3882550787829837"><ele>131.66666666666669</ele><time>2026-05-01T15:39:06Z</time></trkpt><trkpt lat="48.5757681748356" lon="3.3881988152477556"><ele>130.83333333333334</ele><time>2026-05-01T15:39:07Z</time></trkpt><trkpt lat="48.575838596009696" lon="3.388141659189789"><ele>130.0</ele><time>2026-05-01T15:39:08Z</time></trkpt><trkpt lat="48.57590600778717" lon="3.3880889022512286"><ele>130.0</ele><time>2026-05-01T15:39:09Z</time></trkpt><trkpt lat="48.576004628465" lon="3.3880089747854933"><ele>130.0</ele><time>2026-05-01T15:39:11Z</time></trkpt><trkpt lat="48.576081187636724" lon="3.3879481535492757"><ele>130.0</ele><time>2026-05-01T15:39:26Z</time></trkpt><trkpt lat="48.57618112109571" lon="3.3878715751888877"><ele>130.0</ele><time>2026-05-01T15:39:28Z</time></trkpt><trkpt lat="48.57623907065092" lon="3.3878282198437346"><ele>130.0</ele><time>2026-05-01T15:39:29Z</time></trkpt><trkpt lat="48.57630374597025" lon="3.3877692434040423"><ele>130.0</ele><time>2026-05-01T15:39:30Z</time></trkpt><trkpt lat="48.576372727230954" lon="3.3877051021811617"><ele>130.0</ele><time>2026-05-01T15:39:31Z</time></trkpt><trkpt lat="48.57644577016066" lon="3.387635405905288"><ele>130.0</ele><time>2026-05-01T15:39:32Z</time></trkpt><trkpt lat="48.5765219956394" lon="3.3875740699232857"><ele>130.0</ele><time>2026-05-01T15:39:33Z</time></trkpt><trkpt lat="48.57659595700932" lon="3.387506855686901"><ele>130.0</ele><time>2026-05-01T15:39:34Z</time></trkpt><trkpt lat="48.57666364979756" lon="3.3874411037557457"><ele>130.0</ele><time>2026-05-01T15:39:35Z</time></trkpt><trkpt lat="48.57672250113978" lon="3.387387732290935"><ele>130.0</ele><time>2026-05-01T15:39:36Z</time></trkpt><trkpt lat="48.57682549474953" lon="3.387293657981802"><ele>130.0</ele><time>2026-05-01T15:39:38Z</time></trkpt><trkpt lat="48.57688293057134" lon="3.3872452951477365"><ele>130.0</ele><time>2026-05-01T15:39:39Z</time></trkpt><trkpt lat="48.57694280944692" lon="3.387202039818706"><ele>130.0</ele><time>2026-05-01T15:39:40Z</time></trkpt><trkpt lat="48.577009255510475" lon="3.387162295782417"><ele>130.0</ele><time>2026-05-01T15:39:41Z</time></trkpt><trkpt lat="48.57708262417642" lon="3.3871245353033013"><ele>130.0</ele><time>2026-05-01T15:39:42Z</time></trkpt><trkpt lat="48.57716016404822" lon="3.3870855860531504"><ele>130.16666666666669</ele><time>2026-05-01T15:39:43Z</time></trkpt><trkpt lat="48.57724037827098" lon="3.3870396891320267"><ele>130.33333333333334</ele><time>2026-05-01T15:39:44Z</time></trkpt><trkpt lat="48.577319823909" lon="3.3869922433651234"><ele>130.5</ele><time>2026-05-01T15:39:45Z</time></trkpt><trkpt lat="48.57739948420489" lon="3.386947190004981"><ele>130.66666666666666</ele><time>2026-05-01T15:39:46Z</time></trkpt><trkpt lat="48.5774763177949" lon="3.38690976640168"><ele>130.83333333333331</ele><time>2026-05-01T15:39:47Z</time></trkpt><trkpt lat="48.57755696620068" lon="3.386876124937476"><ele>131.0</ele><time>2026-05-01T15:39:48Z</time></trkpt><trkpt lat="48.57763667858042" lon="3.386856867104369"><ele>131.0</ele><time>2026-05-01T15:39:49Z</time></trkpt><trkpt lat="48.57771372504038" lon="3.386846841870697"><ele>131.0</ele><time>2026-05-01T15:39:50Z</time></trkpt><trkpt lat="48.57778698567032" lon="3.386836529243368"><ele>131.0</ele><time>2026-05-01T15:39:51Z</time></trkpt><trkpt lat="48.57786622760873" lon="3.38683287435233"><ele>131.0</ele><time>2026-05-01T15:39:52Z</time></trkpt><trkpt lat="48.577940884421054" lon="3.3868337472445074"><ele>131.0</ele><time>2026-05-01T15:39:53Z</time></trkpt><trkpt lat="48.57801081074668" lon="3.3868383294511695"><ele>131.0</ele><time>2026-05-01T15:39:54Z</time></trkpt><trkpt lat="48.578079684378295" lon="3.3868534725407526"><ele>131.0</ele><time>2026-05-01T15:39:55Z</time></trkpt><trkpt lat="48.57818571833424" lon="3.3868903075104013"><ele>131.33333333333331</ele><time>2026-05-01T15:39:57Z</time></trkpt><trkpt lat="48.578254475716875" lon="3.3869218116683433"><ele>131.66666666666666</ele><time>2026-05-01T15:40:00Z</time></trkpt><trkpt lat="48.578363249180484" lon="3.386944309058153"><ele>132.0</ele><time>2026-05-01T15:40:02Z</time></trkpt><trkpt lat="48.57842853572214" lon="3.38694983071839"><ele>132.33333333333334</ele><time>2026-05-01T15:40:03Z</time></trkpt><trkpt lat="48.5784956639492" lon="3.386960189482857"><ele>132.66666666666669</ele><time>2026-05-01T15:40:04Z</time></trkpt><trkpt lat="48.57857053296303" lon="3.387003419897566"><ele>133.0</ele><time>2026-05-01T15:40:05Z</time></trkpt><trkpt lat="48.57865451385176" lon="3.3870281655144403"><ele>133.4</ele><time>2026-05-01T15:40:06Z</time></trkpt><trkpt lat="48.57874419779141" lon="3.3870545915848758"><ele>133.8</ele><time>2026-05-01T15:40:07Z</time></trkpt><trkpt lat="48.57883433240159" lon="3.387081484870854"><ele>134.2</ele><time>2026-05-01T15:40:08Z</time></trkpt><trkpt lat="48.57892669840178" lon="3.387109309781982"><ele>134.6</ele><time>2026-05-01T15:40:09Z</time></trkpt><trkpt lat="48.57901782330078" lon="3.387136760814742"><ele>135.0</ele><time>2026-05-01T15:40:10Z</time></trkpt><trkpt lat="48.57911274525652" lon="3.3871653556998877"><ele>135.0</ele><time>2026-05-01T15:40:11Z</time></trkpt><trkpt lat="48.57921058302905" lon="3.3871717320876167"><ele>135.0</ele><time>2026-05-01T15:40:12Z</time></trkpt><trkpt lat="48.57930568641459" lon="3.387206148032791"><ele>135.0</ele><time>2026-05-01T15:40:13Z</time></trkpt><trkpt lat="48.57940128053469" lon="3.387231776937268"><ele>135.0</ele><time>2026-05-01T15:40:14Z</time></trkpt><trkpt lat="48.57949966314763" lon="3.387261961433396"><ele>135.0</ele><time>2026-05-01T15:40:15Z</time></trkpt><trkpt lat="48.579595896972144" lon="3.3872895619200594"><ele>134.83333333333334</ele><time>2026-05-01T15:40:16Z</time></trkpt><trkpt lat="48.57969160513648" lon="3.387318288027188"><ele>134.66666666666666</ele><time>2026-05-01T15:40:17Z</time></trkpt><trkpt lat="48.57978670498719" lon="3.387350575999671"><ele>134.5</ele><time>2026-05-01T15:40:18Z</time></trkpt><trkpt lat="48.57987888264828" lon="3.3873674279975794"><ele>134.33333333333331</ele><time>2026-05-01T15:40:19Z</time></trkpt><trkpt lat="48.579957938320305" lon="3.387384706854844"><ele>134.16666666666666</ele><time>2026-05-01T15:40:20Z</time></trkpt><trkpt lat="48.58002643721737" lon="3.3874001131131397"><ele>134.0</ele><time>2026-05-01T15:40:21Z</time></trkpt><trkpt lat="48.5801116392562" lon="3.3874237462204695"><ele>134.0</ele><time>2026-05-01T15:40:23Z</time></trkpt><trkpt lat="48.5801726471874" lon="3.387464421590263"><ele>134.0</ele><time>2026-05-01T15:40:26Z</time></trkpt><trkpt lat="48.58021779348227" lon="3.3875423109896925"><ele>134.0</ele><time>2026-05-01T15:40:27Z</time></trkpt><trkpt lat="48.580299960810265" lon="3.3875282953079004"><ele>134.0</ele><time>2026-05-01T15:40:28Z</time></trkpt><trkpt lat="48.58038113825598" lon="3.3875305853472484"><ele>134.0</ele><time>2026-05-01T15:40:29Z</time></trkpt><trkpt lat="48.580468741795045" lon="3.3875227673731385"><ele>134.0</ele><time>2026-05-01T15:40:30Z</time></trkpt><trkpt lat="48.58055999659434" lon="3.387504258021701"><ele>134.0</ele><time>2026-05-01T15:40:31Z</time></trkpt><trkpt lat="48.58066474283946" lon="3.387477865052792"><ele>134.0</ele><time>2026-05-01T15:40:32Z</time></trkpt><trkpt lat="48.5807714175545" lon="3.387448702015147"><ele>134.0</ele><time>2026-05-01T15:40:33Z</time></trkpt><trkpt lat="48.58088156283525" lon="3.387420391850687"><ele>134.0</ele><time>2026-05-01T15:40:34Z</time></trkpt><trkpt lat="48.58099148619869" lon="3.3873919029854056"><ele>134.0</ele><time>2026-05-01T15:40:35Z</time></trkpt><trkpt lat="48.5811033480853" lon="3.387365116553921"><ele>134.4</ele><time>2026-05-01T15:40:36Z</time></trkpt><trkpt lat="48.581213860570756" lon="3.387338642171584"><ele>134.8</ele><time>2026-05-01T15:40:37Z</time></trkpt><trkpt lat="48.581324863918326" lon="3.387312789100659"><ele>135.2</ele><time>2026-05-01T15:40:38Z</time></trkpt><trkpt lat="48.58143418972614" lon="3.387282994406071"><ele>135.6</ele><time>2026-05-01T15:40:39Z</time></trkpt><trkpt lat="48.58154125817335" lon="3.387252545183662"><ele>136.0</ele><time>2026-05-01T15:40:40Z</time></trkpt><trkpt lat="48.58163969852371" lon="3.3871939520444303"><ele>135.8</ele><time>2026-05-01T15:40:41Z</time></trkpt><trkpt lat="48.581734352963146" lon="3.387127413768479"><ele>135.6</ele><time>2026-05-01T15:40:42Z</time></trkpt><trkpt lat="48.58182940962445" lon="3.3870468314257556"><ele>135.4</ele><time>2026-05-01T15:40:43Z</time></trkpt><trkpt lat="48.581925630376396" lon="3.38696875432778"><ele>135.2</ele><time>2026-05-01T15:40:44Z</time></trkpt><trkpt lat="48.58200625223847" lon="3.3869052642470128"><ele>135.0</ele><time>2026-05-01T15:40:45Z</time></trkpt><trkpt lat="48.582081799757965" lon="3.3868584723589072"><ele>135.8</ele><time>2026-05-01T15:40:46Z</time></trkpt><trkpt lat="48.58217519230958" lon="3.3868046475249187"><ele>136.6</ele><time>2026-05-01T15:40:48Z</time></trkpt><trkpt lat="48.58228290883782" lon="3.3867106353498446"><ele>137.4</ele><time>2026-05-01T15:40:51Z</time></trkpt><trkpt lat="48.58237239975421" lon="3.3866626863065568"><ele>138.2</ele><time>2026-05-01T15:40:52Z</time></trkpt><trkpt lat="48.582477632339625" lon="3.386567274397652"><ele>139.0</ele><time>2026-05-01T15:40:53Z</time></trkpt><trkpt lat="48.58260494602121" lon="3.386500545398378"><ele>139.0</ele><time>2026-05-01T15:40:54Z</time></trkpt><trkpt lat="48.58271420696991" lon="3.3864457729197013"><ele>139.0</ele><time>2026-05-01T15:40:55Z</time></trkpt><trkpt lat="48.5828088105965" lon="3.3864049966683796"><ele>139.0</ele><time>2026-05-01T15:40:56Z</time></trkpt><trkpt lat="48.58288115940457" lon="3.386371529162435"><ele>139.0</ele><time>2026-05-01T15:40:57Z</time></trkpt><trkpt lat="48.58297373487534" lon="3.38632943770629"><ele>139.0</ele><time>2026-05-01T15:40:59Z</time></trkpt><trkpt lat="48.58304138082764" lon="3.386291424250442"><ele>138.8</ele><time>2026-05-01T15:41:00Z</time></trkpt><trkpt lat="48.583123338944" lon="3.3862474024310307"><ele>138.60000000000002</ele><time>2026-05-01T15:41:01Z</time></trkpt><trkpt lat="48.583222344216296" lon="3.386193121186789"><ele>138.4</ele><time>2026-05-01T15:41:02Z</time></trkpt><trkpt lat="48.583323490308594" lon="3.3861353790872704"><ele>138.20000000000002</ele><time>2026-05-01T15:41:03Z</time></trkpt><trkpt lat="48.583432322137796" lon="3.3860675572689325"><ele>138.0</ele><time>2026-05-01T15:41:04Z</time></trkpt><trkpt lat="48.58354172059767" lon="3.3859903332497905"><ele>138.0</ele><time>2026-05-01T15:41:05Z</time></trkpt><trkpt lat="48.58364929808827" lon="3.385899629291729"><ele>138.0</ele><time>2026-05-01T15:41:06Z</time></trkpt><trkpt lat="48.58376154053496" lon="3.385797746867706"><ele>138.0</ele><time>2026-05-01T15:41:07Z</time></trkpt><trkpt lat="48.58387405041174" lon="3.385694174518218"><ele>138.0</ele><time>2026-05-01T15:41:08Z</time></trkpt><trkpt lat="48.583987189048415" lon="3.3855802837609086"><ele>137.75</ele><time>2026-05-01T15:41:09Z</time></trkpt><trkpt lat="48.584103990321644" lon="3.3854658841401704"><ele>137.5</ele><time>2026-05-01T15:41:10Z</time></trkpt><trkpt lat="48.58422123674507" lon="3.3853544980813965"><ele>137.25</ele><time>2026-05-01T15:41:11Z</time></trkpt><trkpt lat="48.58433946217264" lon="3.3852339333298103"><ele>137.0</ele><time>2026-05-01T15:41:12Z</time></trkpt><trkpt lat="48.58445782812998" lon="3.385114295805264"><ele>137.5</ele><time>2026-05-01T15:41:13Z</time></trkpt><trkpt lat="48.58457673001338" lon="3.384998888653197"><ele>138.0</ele><time>2026-05-01T15:41:14Z</time></trkpt><trkpt lat="48.584697165524844" lon="3.3848826170296933"><ele>138.5</ele><time>2026-05-01T15:41:15Z</time></trkpt><trkpt lat="48.584813527654276" lon="3.3847661026607203"><ele>139.0</ele><time>2026-05-01T15:41:16Z</time></trkpt><trkpt lat="48.584930404888425" lon="3.384654389271792"><ele>139.0</ele><time>2026-05-01T15:41:17Z</time></trkpt><trkpt lat="48.585041404643704" lon="3.384540760902801"><ele>139.0</ele><time>2026-05-01T15:41:18Z</time></trkpt><trkpt lat="48.58515357218831" lon="3.384428131692933"><ele>139.0</ele><time>2026-05-01T15:41:19Z</time></trkpt><trkpt lat="48.58526905362039" lon="3.3843174660903186"><ele>139.0</ele><time>2026-05-01T15:41:20Z</time></trkpt><trkpt lat="48.58539626186805" lon="3.384210176032559"><ele>139.66666666666669</ele><time>2026-05-01T15:41:21Z</time></trkpt><trkpt lat="48.58554378518224" lon="3.384108343487642"><ele>140.33333333333334</ele><time>2026-05-01T15:41:22Z</time></trkpt><trkpt lat="48.58570350748498" lon="3.3840245520798398"><ele>141.0</ele><time>2026-05-01T15:41:23Z</time></trkpt><trkpt lat="48.58583257881885" lon="3.383970458100014"><ele>141.0</ele><time>2026-05-01T15:41:24Z</time></trkpt><trkpt lat="48.58602772341041" lon="3.3839294064356955"><ele>141.0</ele><time>2026-05-01T15:41:25Z</time></trkpt><trkpt lat="48.586223515524196" lon="3.3838712305487353"><ele>141.0</ele><time>2026-05-01T15:41:26Z</time></trkpt><trkpt lat="48.586415861599775" lon="3.3838156490368716"><ele>142.0</ele><time>2026-05-01T15:41:27Z</time></trkpt><trkpt lat="48.5866111952102" lon="3.383732269491019"><ele>143.0</ele><time>2026-05-01T15:41:28Z</time></trkpt><trkpt lat="48.5868121299471" lon="3.383672410237114"><ele>144.0</ele><time>2026-05-01T15:41:29Z</time></trkpt><trkpt lat="48.58701577682533" lon="3.383615398216953"><ele>145.33333333333334</ele><time>2026-05-01T15:41:30Z</time></trkpt><trkpt lat="48.587192856898135" lon="3.383560635279201"><ele>146.66666666666669</ele><time>2026-05-01T15:41:31Z</time></trkpt><trkpt lat="48.58735559212966" lon="3.3835476650049108"><ele>148.0</ele><time>2026-05-01T15:41:32Z</time></trkpt><trkpt lat="48.58750118472851" lon="3.383514990384014"><ele>148.0</ele><time>2026-05-01T15:41:33Z</time></trkpt><trkpt lat="48.58763599716356" lon="3.38348748553749"><ele>148.0</ele><time>2026-05-01T15:41:34Z</time></trkpt><trkpt lat="48.5877746052361" lon="3.3834433728269038"><ele>148.0</ele><time>2026-05-01T15:41:35Z</time></trkpt><trkpt lat="48.58792576244614" lon="3.3833850123251192"><ele>148.0</ele><time>2026-05-01T15:41:36Z</time></trkpt><trkpt lat="48.58808617818054" lon="3.3833092731474412"><ele>148.5</ele><time>2026-05-01T15:41:37Z</time></trkpt><trkpt lat="48.588235113439175" lon="3.383258298840139"><ele>149.0</ele><time>2026-05-01T15:41:38Z</time></trkpt><trkpt lat="48.58837442979813" lon="3.383197929274889"><ele>149.5</ele><time>2026-05-01T15:41:39Z</time></trkpt><trkpt lat="48.58850897487363" lon="3.3831237448672344"><ele>150.0</ele><time>2026-05-01T15:41:40Z</time></trkpt><trkpt lat="48.58863984665185" lon="3.383055833354902"><ele>150.8</ele><time>2026-05-01T15:41:41Z</time></trkpt><trkpt lat="48.58874852833228" lon="3.382978731249953"><ele>151.6</ele><time>2026-05-01T15:41:42Z</time></trkpt><trkpt lat="48.588824826514" lon="3.3829245539238677"><ele>152.4</ele><time>2026-05-01T15:41:43Z</time></trkpt><trkpt lat="48.588906583746166" lon="3.3828414351434786"><ele>153.2</ele><time>2026-05-01T15:41:45Z</time></trkpt><trkpt lat="48.588968411300044" lon="3.3830250743423838"><ele>154.0</ele><time>2026-05-01T15:41:47Z</time></trkpt><trkpt lat="48.58896768363422" lon="3.3831838278063344"><ele>154.0</ele><time>2026-05-01T15:41:48Z</time></trkpt><trkpt lat="48.58896068095031" lon="3.383436487643261"><ele>154.0</ele><time>2026-05-01T15:41:49Z</time></trkpt><trkpt lat="48.58898697137895" lon="3.383643377654947"><ele>154.0</ele><time>2026-05-01T15:41:50Z</time></trkpt><trkpt lat="48.58901316719686" lon="3.3838701699887093"><ele>153.66666666666669</ele><time>2026-05-01T15:41:51Z</time></trkpt><trkpt lat="48.58904531746255" lon="3.3841093574469223"><ele>153.33333333333334</ele><time>2026-05-01T15:41:52Z</time></trkpt><trkpt lat="48.58907750458404" lon="3.3843666504586"><ele>153.0</ele><time>2026-05-01T15:41:53Z</time></trkpt><trkpt lat="48.58911717790715" lon="3.384629796506232"><ele>153.33333333333334</ele><time>2026-05-01T15:41:54Z</time></trkpt><trkpt lat="48.58915742886048" lon="3.384909900113862"><ele>153.66666666666669</ele><time>2026-05-01T15:41:55Z</time></trkpt><trkpt lat="48.589194426949184" lon="3.38519714008459"><ele>154.0</ele><time>2026-05-01T15:41:56Z</time></trkpt><trkpt lat="48.589223761772615" lon="3.385492300657365"><ele>154.0</ele><time>2026-05-01T15:41:57Z</time></trkpt><trkpt lat="48.58926652937832" lon="3.385784066193527"><ele>154.0</ele><time>2026-05-01T15:41:58Z</time></trkpt><trkpt lat="48.58929610453104" lon="3.38605504745693"><ele>154.0</ele><time>2026-05-01T15:41:59Z</time></trkpt><trkpt lat="48.589329703849764" lon="3.386287196670092"><ele>154.0</ele><time>2026-05-01T15:42:00Z</time></trkpt><trkpt lat="48.589356028953674" lon="3.386483543594708"><ele>154.0</ele><time>2026-05-01T15:42:01Z</time></trkpt><trkpt lat="48.58938207773749" lon="3.3866656358575047"><ele>154.0</ele><time>2026-05-01T15:42:02Z</time></trkpt><trkpt lat="48.58940584931325" lon="3.3868286894871336"><ele>154.0</ele><time>2026-05-01T15:42:03Z</time></trkpt><trkpt lat="48.5894244811222" lon="3.3870149762959127"><ele>154.75</ele><time>2026-05-01T15:42:04Z</time></trkpt><trkpt lat="48.58944450374339" lon="3.387229330706793"><ele>155.5</ele><time>2026-05-01T15:42:05Z</time></trkpt><trkpt lat="48.58946589897793" lon="3.387413604965558"><ele>156.25</ele><time>2026-05-01T15:42:06Z</time></trkpt><trkpt lat="48.58949003578351" lon="3.387561443748875"><ele>157.0</ele><time>2026-05-01T15:42:07Z</time></trkpt><trkpt lat="48.58950717552491" lon="3.387686379864411"><ele>157.8</ele><time>2026-05-01T15:42:08Z</time></trkpt><trkpt lat="48.58953492248814" lon="3.387785523343825"><ele>158.6</ele><time>2026-05-01T15:42:09Z</time></trkpt><trkpt lat="48.58958470138143" lon="3.387878437795199"><ele>159.4</ele><time>2026-05-01T15:42:10Z</time></trkpt><trkpt lat="48.58968469983171" lon="3.3879754221944784"><ele>160.20000000000002</ele><time>2026-05-01T15:42:11Z</time></trkpt><trkpt lat="48.58977443689644" lon="3.388101204218936"><ele>161.0</ele><time>2026-05-01T15:42:12Z</time></trkpt><trkpt lat="48.58986244384322" lon="3.3882153897862026"><ele>161.16666666666666</ele><time>2026-05-01T15:42:13Z</time></trkpt><trkpt lat="48.58992893590927" lon="3.3883086514217995"><ele>161.33333333333331</ele><time>2026-05-01T15:42:14Z</time></trkpt><trkpt lat="48.58999362006979" lon="3.388381532749763"><ele>161.5</ele><time>2026-05-01T15:42:15Z</time></trkpt><trkpt lat="48.590047116374684" lon="3.3884685584518777"><ele>161.66666666666666</ele><time>2026-05-01T15:42:16Z</time></trkpt><trkpt lat="48.5901122742555" lon="3.3885633159801216"><ele>161.83333333333334</ele><time>2026-05-01T15:42:17Z</time></trkpt><trkpt lat="48.59015694506916" lon="3.388639439341391"><ele>162.0</ele><time>2026-05-01T15:42:18Z</time></trkpt><trkpt lat="48.59019005003626" lon="3.3887798621514693"><ele>161.5</ele><time>2026-05-01T15:42:20Z</time></trkpt><trkpt lat="48.59019475580073" lon="3.388891740657375"><ele>161.0</ele><time>2026-05-01T15:42:21Z</time></trkpt><trkpt lat="48.59020802635554" lon="3.389024545723957"><ele>160.5</ele><time>2026-05-01T15:42:22Z</time></trkpt><trkpt lat="48.59023007699038" lon="3.3891542250887685"><ele>160.0</ele><time>2026-05-01T15:42:23Z</time></trkpt><trkpt lat="48.59024827968947" lon="3.3892934722397143"><ele>159.5</ele><time>2026-05-01T15:42:24Z</time></trkpt><trkpt lat="48.590278372612445" lon="3.389442112000963"><ele>159.0</ele><time>2026-05-01T15:42:25Z</time></trkpt><trkpt lat="48.590307051738954" lon="3.389527349848974"><ele>158.8</ele><time>2026-05-01T15:42:26Z</time></trkpt><trkpt lat="48.59035212749048" lon="3.3896884262817717"><ele>158.60000000000002</ele><time>2026-05-01T15:42:28Z</time></trkpt><trkpt lat="48.59038761266147" lon="3.3897758386949195"><ele>158.4</ele><time>2026-05-01T15:42:29Z</time></trkpt><trkpt lat="48.59043620897031" lon="3.3898924945976643"><ele>158.20000000000002</ele><time>2026-05-01T15:42:31Z</time></trkpt><trkpt lat="48.59045836989208" lon="3.390050074629675"><ele>158.0</ele><time>2026-05-01T15:42:37Z</time></trkpt><trkpt lat="48.59045597842038" lon="3.390183758347336"><ele>158.0</ele><time>2026-05-01T15:42:38Z</time></trkpt><trkpt lat="48.59042810460295" lon="3.390326843409231"><ele>158.0</ele><time>2026-05-01T15:42:39Z</time></trkpt><trkpt lat="48.590413373348824" lon="3.3904837169686433"><ele>158.0</ele><time>2026-05-01T15:42:40Z</time></trkpt><trkpt lat="48.590385003454" lon="3.3906368678142136"><ele>158.0</ele><time>2026-05-01T15:42:41Z</time></trkpt><trkpt lat="48.59038193049772" lon="3.390792782034002"><ele>158.0</ele><time>2026-05-01T15:42:42Z</time></trkpt><trkpt lat="48.59038817015351" lon="3.390952094573986"><ele>157.6</ele><time>2026-05-01T15:42:43Z</time></trkpt><trkpt lat="48.590384366806894" lon="3.3911130153302658"><ele>157.20000000000002</ele><time>2026-05-01T15:42:44Z</time></trkpt><trkpt lat="48.59038864367475" lon="3.3912816476671526"><ele>156.8</ele><time>2026-05-01T15:42:45Z</time></trkpt><trkpt lat="48.590390914662215" lon="3.3914482080171124"><ele>156.4</ele><time>2026-05-01T15:42:46Z</time></trkpt><trkpt lat="48.590400218196436" lon="3.39161470225625"><ele>156.0</ele><time>2026-05-01T15:42:47Z</time></trkpt><trkpt lat="48.59039622600689" lon="3.3917697486221194"><ele>156.0</ele><time>2026-05-01T15:42:48Z</time></trkpt><trkpt lat="48.59038559902153" lon="3.3919388310017125"><ele>156.0</ele><time>2026-05-01T15:42:49Z</time></trkpt><trkpt lat="48.590367014410766" lon="3.3921047126633868"><ele>156.0</ele><time>2026-05-01T15:42:50Z</time></trkpt><trkpt lat="48.590368318454864" lon="3.3922686940553937"><ele>156.0</ele><time>2026-05-01T15:42:51Z</time></trkpt><trkpt lat="48.59036999120181" lon="3.392427433032467"><ele>156.0</ele><time>2026-05-01T15:42:52Z</time></trkpt><trkpt lat="48.59036333241565" lon="3.3925595455210926"><ele>156.0</ele><time>2026-05-01T15:42:53Z</time></trkpt><trkpt lat="48.59035337280356" lon="3.392662351905037"><ele>156.0</ele><time>2026-05-01T15:42:54Z</time></trkpt><trkpt lat="48.590330694180615" lon="3.3927629750537376"><ele>156.0</ele><time>2026-05-01T15:42:55Z</time></trkpt><trkpt lat="48.59028918753999" lon="3.392845300810935"><ele>156.0</ele><time>2026-05-01T15:42:56Z</time></trkpt><trkpt lat="48.5902202606516" lon="3.3929980902607078"><ele>156.0</ele><time>2026-05-01T15:42:58Z</time></trkpt><trkpt lat="48.59017246084688" lon="3.3931635611039743"><ele>156.0</ele><time>2026-05-01T15:43:00Z</time></trkpt><trkpt lat="48.590206672452446" lon="3.393057464018318"><ele>156.0</ele><time>2026-05-01T15:43:16Z</time></trkpt><trkpt lat="48.590239608567025" lon="3.392950942695882"><ele>156.0</ele><time>2026-05-01T15:43:17Z</time></trkpt><trkpt lat="48.59028220649387" lon="3.3928562289164055"><ele>156.0</ele><time>2026-05-01T15:43:18Z</time></trkpt><trkpt lat="48.590319686878324" lon="3.392752340071931"><ele>156.0</ele><time>2026-05-01T15:43:19Z</time></trkpt><trkpt lat="48.5903549750757" lon="3.3926472579034224"><ele>156.0</ele><time>2026-05-01T15:43:20Z</time></trkpt><trkpt lat="48.5903696487349" lon="3.392514805979933"><ele>156.0</ele><time>2026-05-01T15:43:21Z</time></trkpt><trkpt lat="48.59036574870472" lon="3.3923613365701137"><ele>156.0</ele><time>2026-05-01T15:43:22Z</time></trkpt><trkpt lat="48.59036678416403" lon="3.392216100523339"><ele>156.0</ele><time>2026-05-01T15:43:23Z</time></trkpt><trkpt lat="48.590367120124554" lon="3.3920607859346497"><ele>156.0</ele><time>2026-05-01T15:43:24Z</time></trkpt><trkpt lat="48.59038152490373" lon="3.3918991435920818"><ele>156.0</ele><time>2026-05-01T15:43:25Z</time></trkpt><trkpt lat="48.5903930478932" lon="3.3917309769737805"><ele>156.0</ele><time>2026-05-01T15:43:26Z</time></trkpt><trkpt lat="48.59039689116844" lon="3.391561242522325"><ele>156.0</ele><time>2026-05-01T15:43:27Z</time></trkpt><trkpt lat="48.590397873721" lon="3.3913991486371207"><ele>156.0</ele><time>2026-05-01T15:43:28Z</time></trkpt><trkpt lat="48.59038944249883" lon="3.3912374922786217"><ele>156.0</ele><time>2026-05-01T15:43:29Z</time></trkpt><trkpt lat="48.59039122725564" lon="3.3910788039709243"><ele>156.0</ele><time>2026-05-01T15:43:30Z</time></trkpt><trkpt lat="48.59038931293304" lon="3.390921078603355"><ele>156.0</ele><time>2026-05-01T15:43:31Z</time></trkpt><trkpt lat="48.59038689834507" lon="3.390763702430315"><ele>156.0</ele><time>2026-05-01T15:43:32Z</time></trkpt><trkpt lat="48.59040346762588" lon="3.390619858313405"><ele>156.0</ele><time>2026-05-01T15:43:33Z</time></trkpt><trkpt lat="48.59041191328616" lon="3.3904716118104083"><ele>156.0</ele><time>2026-05-01T15:43:34Z</time></trkpt><trkpt lat="48.590416726834746" lon="3.3903242513337717"><ele>156.0</ele><time>2026-05-01T15:43:35Z</time></trkpt><trkpt lat="48.59043266700632" lon="3.3901703373370515"><ele>156.0</ele><time>2026-05-01T15:43:36Z</time></trkpt><trkpt lat="48.590433465035545" lon="3.3900099754802504"><ele>156.33333333333334</ele><time>2026-05-01T15:43:37Z</time></trkpt><trkpt lat="48.5904291010566" lon="3.389876172315224"><ele>156.66666666666666</ele><time>2026-05-01T15:43:38Z</time></trkpt><trkpt lat="48.59041042609706" lon="3.389772318869948"><ele>157.0</ele><time>2026-05-01T15:43:39Z</time></trkpt><trkpt lat="48.590363874074356" lon="3.3896690880292977"><ele>157.33333333333331</ele><time>2026-05-01T15:43:40Z</time></trkpt><trkpt lat="48.59030237959741" lon="3.389568240991537"><ele>157.66666666666666</ele><time>2026-05-01T15:43:41Z</time></trkpt><trkpt lat="48.590258864893684" lon="3.389442916349311"><ele>158.0</ele><time>2026-05-01T15:43:42Z</time></trkpt><trkpt lat="48.59023643367828" lon="3.389300309389699"><ele>158.20000000000002</ele><time>2026-05-01T15:43:43Z</time></trkpt><trkpt lat="48.59021911154667" lon="3.389153506645145"><ele>158.4</ele><time>2026-05-01T15:43:44Z</time></trkpt><trkpt lat="48.590191639481176" lon="3.389006613541351"><ele>158.60000000000002</ele><time>2026-05-01T15:43:45Z</time></trkpt><trkpt lat="48.59017210527468" lon="3.388849500625108"><ele>158.8</ele><time>2026-05-01T15:43:46Z</time></trkpt><trkpt lat="48.590162380402795" lon="3.3887255026194776"><ele>159.0</ele><time>2026-05-01T15:43:47Z</time></trkpt><trkpt lat="48.59013937661145" lon="3.388632887628689"><ele>159.6</ele><time>2026-05-01T15:43:48Z</time></trkpt><trkpt lat="48.59009081618469" lon="3.388541845419392"><ele>160.2</ele><time>2026-05-01T15:43:49Z</time></trkpt><trkpt lat="48.59001596156209" lon="3.3884475241233636"><ele>160.79999999999998</ele><time>2026-05-01T15:43:50Z</time></trkpt><trkpt lat="48.589933455788" lon="3.388339658564284"><ele>161.4</ele><time>2026-05-01T15:43:51Z</time></trkpt><trkpt lat="48.58985059626509" lon="3.3882181536817186"><ele>162.0</ele><time>2026-05-01T15:43:52Z</time></trkpt><trkpt lat="48.58974737565321" lon="3.3880964512664438"><ele>161.8</ele><time>2026-05-01T15:43:53Z</time></trkpt><trkpt lat="48.589658324309774" lon="3.387976791877931"><ele>161.6</ele><time>2026-05-01T15:43:54Z</time></trkpt><trkpt lat="48.58959218112507" lon="3.3878654231939653"><ele>161.4</ele><time>2026-05-01T15:43:55Z</time></trkpt><trkpt lat="48.58952751866412" lon="3.3877717141692667"><ele>161.20000000000002</ele><time>2026-05-01T15:43:56Z</time></trkpt><trkpt lat="48.58948622380107" lon="3.387675112673383"><ele>161.0</ele><time>2026-05-01T15:43:57Z</time></trkpt><trkpt lat="48.58947047405418" lon="3.387535987290612"><ele>160.20000000000002</ele><time>2026-05-01T15:43:58Z</time></trkpt><trkpt lat="48.58945335509579" lon="3.387373918652542"><ele>159.4</ele><time>2026-05-01T15:43:59Z</time></trkpt><trkpt lat="48.58943011964697" lon="3.3872127701384636"><ele>158.6</ele><time>2026-05-01T15:44:00Z</time></trkpt><trkpt lat="48.589414924888494" lon="3.387043255522139"><ele>157.8</ele><time>2026-05-01T15:44:01Z</time></trkpt><trkpt lat="48.58939593765839" lon="3.3868680413223187"><ele>157.0</ele><time>2026-05-01T15:44:02Z</time></trkpt><trkpt lat="48.58937288826456" lon="3.3866914557620333"><ele>156.25</ele><time>2026-05-01T15:44:03Z</time></trkpt><trkpt lat="48.58935342477707" lon="3.386516582256057"><ele>155.5</ele><time>2026-05-01T15:44:04Z</time></trkpt><trkpt lat="48.589331016073814" lon="3.3863373050142056"><ele>154.75</ele><time>2026-05-01T15:44:05Z</time></trkpt><trkpt lat="48.589304865905646" lon="3.386154952597479"><ele>154.0</ele><time>2026-05-01T15:44:06Z</time></trkpt><trkpt lat="48.589277674761775" lon="3.385960161554047"><ele>154.0</ele><time>2026-05-01T15:44:07Z</time></trkpt><trkpt lat="48.58924976193067" lon="3.3857615354959973"><ele>154.0</ele><time>2026-05-01T15:44:08Z</time></trkpt><trkpt lat="48.589225725487054" lon="3.385552537687016"><ele>154.0</ele><time>2026-05-01T15:44:09Z</time></trkpt><trkpt lat="48.589201716199064" lon="3.3853349569932463"><ele>154.0</ele><time>2026-05-01T15:44:10Z</time></trkpt><trkpt lat="48.5891719435463" lon="3.385114733869054"><ele>154.0</ele><time>2026-05-01T15:44:11Z</time></trkpt><trkpt lat="48.58914443639275" lon="3.384889719954528"><ele>154.0</ele><time>2026-05-01T15:44:12Z</time></trkpt><trkpt lat="48.589116132034604" lon="3.3846525932380644"><ele>154.0</ele><time>2026-05-01T15:44:13Z</time></trkpt><trkpt lat="48.589081078476994" lon="3.3844217710467603"><ele>154.0</ele><time>2026-05-01T15:44:14Z</time></trkpt><trkpt lat="48.58904703480363" lon="3.38418533402711"><ele>154.0</ele><time>2026-05-01T15:44:15Z</time></trkpt><trkpt lat="48.589019115774065" lon="3.3839509799771905"><ele>154.0</ele><time>2026-05-01T15:44:16Z</time></trkpt><trkpt lat="48.5889890304908" lon="3.383751751584117"><ele>154.0</ele><time>2026-05-01T15:44:17Z</time></trkpt><trkpt lat="48.58896486284578" lon="3.3835719176037378"><ele>154.0</ele><time>2026-05-01T15:44:18Z</time></trkpt><trkpt lat="48.58894878070045" lon="3.38340783652277"><ele>154.0</ele><time>2026-05-01T15:44:19Z</time></trkpt><trkpt lat="48.58893435653945" lon="3.38326076014617"><ele>154.0</ele><time>2026-05-01T15:44:20Z</time></trkpt><trkpt lat="48.58891244607156" lon="3.383114962262346"><ele>154.0</ele><time>2026-05-01T15:44:21Z</time></trkpt><trkpt lat="48.58890180253564" lon="3.3829889924584298"><ele>154.2</ele><time>2026-05-01T15:44:22Z</time></trkpt><trkpt lat="48.58892263346105" lon="3.3828043178579272"><ele>154.4</ele><time>2026-05-01T15:44:24Z</time></trkpt><trkpt lat="48.589029331259994" lon="3.38277295847951"><ele>154.6</ele><time>2026-05-01T15:44:26Z</time></trkpt><trkpt lat="48.58909612110528" lon="3.3827186500466935"><ele>154.8</ele><time>2026-05-01T15:44:27Z</time></trkpt><trkpt lat="48.58917983826691" lon="3.3826520275015763"><ele>155.0</ele><time>2026-05-01T15:44:28Z</time></trkpt><trkpt lat="48.58927287431046" lon="3.3825965846458024"><ele>155.0</ele><time>2026-05-01T15:44:29Z</time></trkpt><trkpt lat="48.58938720599656" lon="3.382531900526142"><ele>155.0</ele><time>2026-05-01T15:44:30Z</time></trkpt><trkpt lat="48.58950992097602" lon="3.382493691196826"><ele>155.0</ele><time>2026-05-01T15:44:31Z</time></trkpt><trkpt lat="48.58961940100869" lon="3.3824574272020906"><ele>155.0</ele><time>2026-05-01T15:44:32Z</time></trkpt><trkpt lat="48.589718224880066" lon="3.382422408799959"><ele>156.2</ele><time>2026-05-01T15:44:33Z</time></trkpt><trkpt lat="48.58981221213297" lon="3.38240124336508"><ele>157.4</ele><time>2026-05-01T15:44:34Z</time></trkpt><trkpt lat="48.58990446601403" lon="3.3823620658187346"><ele>158.60000000000002</ele><time>2026-05-01T15:44:35Z</time></trkpt><trkpt lat="48.58999249016924" lon="3.382348192364723"><ele>159.8</ele><time>2026-05-01T15:44:36Z</time></trkpt><trkpt lat="48.59008700005229" lon="3.3823326557968003"><ele>161.0</ele><time>2026-05-01T15:44:37Z</time></trkpt><trkpt lat="48.590194770158384" lon="3.382324183845892"><ele>161.0</ele><time>2026-05-01T15:44:38Z</time></trkpt><trkpt lat="48.59029537414748" lon="3.382329573975024"><ele>161.0</ele><time>2026-05-01T15:44:39Z</time></trkpt><trkpt lat="48.59039902895665" lon="3.3823172621826196"><ele>161.0</ele><time>2026-05-01T15:44:40Z</time></trkpt><trkpt lat="48.5905048336969" lon="3.38230413688695"><ele>161.0</ele><time>2026-05-01T15:44:41Z</time></trkpt><trkpt lat="48.59061087967738" lon="3.3822892654312393"><ele>161.0</ele><time>2026-05-01T15:44:42Z</time></trkpt><trkpt lat="48.59070952218366" lon="3.382272888615225"><ele>161.0</ele><time>2026-05-01T15:44:43Z</time></trkpt><trkpt lat="48.59081514122653" lon="3.382245601090357"><ele>161.0</ele><time>2026-05-01T15:44:44Z</time></trkpt><trkpt lat="48.590918519906545" lon="3.382226473989271"><ele>161.0</ele><time>2026-05-01T15:44:45Z</time></trkpt><trkpt lat="48.59102094292322" lon="3.382201811178552"><ele>161.0</ele><time>2026-05-01T15:44:46Z</time></trkpt><trkpt lat="48.59112503805626" lon="3.382173495393425"><ele>161.0</ele><time>2026-05-01T15:44:47Z</time></trkpt><trkpt lat="48.591219494013785" lon="3.3821442660114127"><ele>160.8</ele><time>2026-05-01T15:44:48Z</time></trkpt><trkpt lat="48.59132306459905" lon="3.3821265755479746"><ele>160.60000000000002</ele><time>2026-05-01T15:44:49Z</time></trkpt><trkpt lat="48.59141972404211" lon="3.3820948031568445"><ele>160.4</ele><time>2026-05-01T15:44:50Z</time></trkpt><trkpt lat="48.59151304677294" lon="3.3820652804808646"><ele>160.2</ele><time>2026-05-01T15:44:51Z</time></trkpt><trkpt lat="48.591584586972814" lon="3.38203596471762"><ele>160.0</ele><time>2026-05-01T15:44:52Z</time></trkpt><trkpt lat="48.59168911865535" lon="3.3819913858862116"><ele>160.0</ele><time>2026-05-01T15:44:54Z</time></trkpt><trkpt lat="48.59175795038519" lon="3.381944224585191"><ele>160.0</ele><time>2026-05-01T15:44:56Z</time></trkpt><trkpt lat="48.59179177303639" lon="3.381844161444937"><ele>160.0</ele><time>2026-05-01T15:44:58Z</time></trkpt><trkpt lat="48.591747090916094" lon="3.3817226000825884"><ele>160.0</ele><time>2026-05-01T15:44:59Z</time></trkpt><trkpt lat="48.59173047355188" lon="3.381618240784598"><ele>160.0</ele><time>2026-05-01T15:45:00Z</time></trkpt><trkpt lat="48.59171213620798" lon="3.3814971689242483"><ele>160.0</ele><time>2026-05-01T15:45:01Z</time></trkpt><trkpt lat="48.591691279484415" lon="3.3813701032864905"><ele>160.0</ele><time>2026-05-01T15:45:02Z</time></trkpt><trkpt lat="48.59166760492554" lon="3.3812351788532684"><ele>160.0</ele><time>2026-05-01T15:45:03Z</time></trkpt><trkpt lat="48.5916412018635" lon="3.3810984332754064"><ele>160.0</ele><time>2026-05-01T15:45:04Z</time></trkpt><trkpt lat="48.591613551972955" lon="3.3809631937414286"><ele>160.0</ele><time>2026-05-01T15:45:05Z</time></trkpt><trkpt lat="48.59158740157141" lon="3.380833794624546"><ele>160.0</ele><time>2026-05-01T15:45:06Z</time></trkpt><trkpt lat="48.591566465170466" lon="3.3807046654195894"><ele>160.0</ele><time>2026-05-01T15:45:07Z</time></trkpt><trkpt lat="48.591555798883185" lon="3.3805780228277755"><ele>160.0</ele><time>2026-05-01T15:45:08Z</time></trkpt><trkpt lat="48.59155292399552" lon="3.380453959792505"><ele>160.0</ele><time>2026-05-01T15:45:09Z</time></trkpt><trkpt lat="48.59155371205003" lon="3.3803316688771585"><ele>160.0</ele><time>2026-05-01T15:45:10Z</time></trkpt><trkpt lat="48.59155863637094" lon="3.3802120827523496"><ele>160.0</ele><time>2026-05-01T15:45:11Z</time></trkpt><trkpt lat="48.5915604444247" lon="3.380092475590756"><ele>160.0</ele><time>2026-05-01T15:45:12Z</time></trkpt><trkpt lat="48.591554226294896" lon="3.379970724971836"><ele>159.83333333333334</ele><time>2026-05-01T15:45:13Z</time></trkpt><trkpt lat="48.59153303528604" lon="3.379850536421168"><ele>159.66666666666669</ele><time>2026-05-01T15:45:14Z</time></trkpt><trkpt lat="48.59151203968579" lon="3.379728130570106"><ele>159.5</ele><time>2026-05-01T15:45:15Z</time></trkpt><trkpt lat="48.59148823059673" lon="3.379604766961919"><ele>159.33333333333334</ele><time>2026-05-01T15:45:16Z</time></trkpt><trkpt lat="48.59146546019283" lon="3.379476321033063"><ele>159.16666666666666</ele><time>2026-05-01T15:45:17Z</time></trkpt><trkpt lat="48.591440460486005" lon="3.3793411373775126"><ele>159.0</ele><time>2026-05-01T15:45:18Z</time></trkpt><trkpt lat="48.59141563354047" lon="3.3792047528109377"><ele>159.0</ele><time>2026-05-01T15:45:19Z</time></trkpt><trkpt lat="48.59138539031331" lon="3.379068960898626"><ele>159.0</ele><time>2026-05-01T15:45:20Z</time></trkpt><trkpt lat="48.59134389677515" lon="3.378942349823678"><ele>159.0</ele><time>2026-05-01T15:45:21Z</time></trkpt><trkpt lat="48.59130520011204" lon="3.3788046272927654"><ele>159.0</ele><time>2026-05-01T15:45:22Z</time></trkpt><trkpt lat="48.591243971915695" lon="3.3786787819969133"><ele>159.0</ele><time>2026-05-01T15:45:23Z</time></trkpt><trkpt lat="48.59117128426847" lon="3.3785767939421705"><ele>158.4</ele><time>2026-05-01T15:45:24Z</time></trkpt><trkpt lat="48.591123532279795" lon="3.3784514768520526"><ele>157.8</ele><time>2026-05-01T15:45:25Z</time></trkpt><trkpt lat="48.5911024510226" lon="3.3783146587436397"><ele>157.2</ele><time>2026-05-01T15:45:26Z</time></trkpt><trkpt lat="48.59105696885887" lon="3.378199362346146"><ele>156.6</ele><time>2026-05-01T15:45:27Z</time></trkpt><trkpt lat="48.59104246873909" lon="3.378061875801131"><ele>156.0</ele><time>2026-05-01T15:45:28Z</time></trkpt><trkpt lat="48.59100182899842" lon="3.3779391623752155"><ele>156.0</ele><time>2026-05-01T15:45:29Z</time></trkpt><trkpt lat="48.59097117555475" lon="3.377810805616668"><ele>156.0</ele><time>2026-05-01T15:45:30Z</time></trkpt><trkpt lat="48.590943652970786" lon="3.3776899475084172"><ele>156.0</ele><time>2026-05-01T15:45:31Z</time></trkpt><trkpt lat="48.59090825986996" lon="3.3775827096891287"><ele>156.0</ele><time>2026-05-01T15:45:32Z</time></trkpt><trkpt lat="48.59087953449391" lon="3.377476630037325"><ele>156.0</ele><time>2026-05-01T15:45:33Z</time></trkpt><trkpt lat="48.590844000210005" lon="3.377371043992763"><ele>156.0</ele><time>2026-05-01T15:45:34Z</time></trkpt><trkpt lat="48.59080712619556" lon="3.377257491555133"><ele>156.33333333333334</ele><time>2026-05-01T15:45:35Z</time></trkpt><trkpt lat="48.59077452196221" lon="3.377144555441484"><ele>156.66666666666666</ele><time>2026-05-01T15:45:36Z</time></trkpt><trkpt lat="48.59073573160334" lon="3.3770273038438536"><ele>157.0</ele><time>2026-05-01T15:45:37Z</time></trkpt><trkpt lat="48.590699636453486" lon="3.3769064672967852"><ele>157.33333333333331</ele><time>2026-05-01T15:45:38Z</time></trkpt><trkpt lat="48.59066376030699" lon="3.3767820543232103"><ele>157.66666666666666</ele><time>2026-05-01T15:45:39Z</time></trkpt><trkpt lat="48.59062406674849" lon="3.3766588259123074"><ele>158.0</ele><time>2026-05-01T15:45:40Z</time></trkpt><trkpt lat="48.5905886837497" lon="3.3765290436870683"><ele>158.0</ele><time>2026-05-01T15:45:41Z</time></trkpt><trkpt lat="48.59054777087794" lon="3.3764016118531743"><ele>158.0</ele><time>2026-05-01T15:45:42Z</time></trkpt><trkpt lat="48.59051218611806" lon="3.3762754362827905"><ele>158.0</ele><time>2026-05-01T15:45:43Z</time></trkpt><trkpt lat="48.59048683677852" lon="3.3761388775366465"><ele>158.0</ele><time>2026-05-01T15:45:44Z</time></trkpt><trkpt lat="48.59044942772883" lon="3.3760126478177144"><ele>158.0</ele><time>2026-05-01T15:45:45Z</time></trkpt><trkpt lat="48.59041372605927" lon="3.3758871720315593"><ele>158.20000000000002</ele><time>2026-05-01T15:45:46Z</time></trkpt><trkpt lat="48.5903810196284" lon="3.375764411137632"><ele>158.4</ele><time>2026-05-01T15:45:47Z</time></trkpt><trkpt lat="48.590348892792136" lon="3.375642359376774"><ele>158.60000000000002</ele><time>2026-05-01T15:45:48Z</time></trkpt><trkpt lat="48.59030083832044" lon="3.3755237154620246"><ele>158.8</ele><time>2026-05-01T15:45:49Z</time></trkpt><trkpt lat="48.59026978013952" lon="3.375393178462806"><ele>159.0</ele><time>2026-05-01T15:45:50Z</time></trkpt><trkpt lat="48.59023400477242" lon="3.3752566537558533"><ele>159.0</ele><time>2026-05-01T15:45:51Z</time></trkpt><trkpt lat="48.59019613570128" lon="3.375111017004605"><ele>159.0</ele><time>2026-05-01T15:45:52Z</time></trkpt><trkpt lat="48.590155325011544" lon="3.374959371943718"><ele>159.0</ele><time>2026-05-01T15:45:53Z</time></trkpt><trkpt lat="48.590110764181055" lon="3.3748000739445057"><ele>159.0</ele><time>2026-05-01T15:45:54Z</time></trkpt><trkpt lat="48.59006340281886" lon="3.3746263378073733"><ele>159.5</ele><time>2026-05-01T15:45:55Z</time></trkpt><trkpt lat="48.59001721344426" lon="3.374445786433441"><ele>160.0</ele><time>2026-05-01T15:45:56Z</time></trkpt><trkpt lat="48.58997172243787" lon="3.3742635902459877"><ele>160.5</ele><time>2026-05-01T15:45:57Z</time></trkpt><trkpt lat="48.58992603625118" lon="3.374074081678548"><ele>161.0</ele><time>2026-05-01T15:45:58Z</time></trkpt><trkpt lat="48.58988180601705" lon="3.373885878885714"><ele>161.0</ele><time>2026-05-01T15:45:59Z</time></trkpt><trkpt lat="48.58983636706378" lon="3.373694296979771"><ele>161.0</ele><time>2026-05-01T15:46:00Z</time></trkpt><trkpt lat="48.58979194771092" lon="3.3735051650043313"><ele>161.0</ele><time>2026-05-01T15:46:01Z</time></trkpt><trkpt lat="48.58975104398391" lon="3.373309835826611"><ele>161.0</ele><time>2026-05-01T15:46:02Z</time></trkpt><trkpt lat="48.589711010847445" lon="3.3731142342475215"><ele>161.25</ele><time>2026-05-01T15:46:03Z</time></trkpt><trkpt lat="48.58967188324767" lon="3.372922343496202"><ele>161.5</ele><time>2026-05-01T15:46:04Z</time></trkpt><trkpt lat="48.58963485874166" lon="3.3727510640278635"><ele>161.75</ele><time>2026-05-01T15:46:05Z</time></trkpt><trkpt lat="48.58959591303277" lon="3.3725902777362644"><ele>162.0</ele><time>2026-05-01T15:46:06Z</time></trkpt><trkpt lat="48.58955334867069" lon="3.3724219690932475"><ele>162.0</ele><time>2026-05-01T15:46:07Z</time></trkpt><trkpt lat="48.58952323080914" lon="3.372230275545279"><ele>162.0</ele><time>2026-05-01T15:46:08Z</time></trkpt><trkpt lat="48.58947849185351" lon="3.3720188666475113"><ele>162.0</ele><time>2026-05-01T15:46:09Z</time></trkpt><trkpt lat="48.58942350274755" lon="3.3717882479059846"><ele>162.0</ele><time>2026-05-01T15:46:10Z</time></trkpt><trkpt lat="48.589364419307685" lon="3.3715476194906207"><ele>162.33333333333334</ele><time>2026-05-01T15:46:11Z</time></trkpt><trkpt lat="48.58930275779351" lon="3.3713121450710326"><ele>162.66666666666669</ele><time>2026-05-01T15:46:12Z</time></trkpt><trkpt lat="48.58924672199713" lon="3.3710320750392535"><ele>163.0</ele><time>2026-05-01T15:46:13Z</time></trkpt><trkpt lat="48.589189864238264" lon="3.370759593503571"><ele>163.66666666666669</ele><time>2026-05-01T15:46:14Z</time></trkpt><trkpt lat="48.58912894879122" lon="3.370482230659283"><ele>164.33333333333334</ele><time>2026-05-01T15:46:15Z</time></trkpt><trkpt lat="48.589063121114144" lon="3.370194019157488"><ele>165.0</ele><time>2026-05-01T15:46:16Z</time></trkpt><trkpt lat="48.589011921970176" lon="3.36994737017149"><ele>165.0</ele><time>2026-05-01T15:46:17Z</time></trkpt><trkpt lat="48.58895733415463" lon="3.369705688120581"><ele>165.0</ele><time>2026-05-01T15:46:18Z</time></trkpt><trkpt lat="48.58890599305045" lon="3.36945900434961"><ele>165.0</ele><time>2026-05-01T15:46:19Z</time></trkpt><trkpt lat="48.588857231051534" lon="3.369216338926635"><ele>165.0</ele><time>2026-05-01T15:46:20Z</time></trkpt><trkpt lat="48.588802458217934" lon="3.3689741969461005"><ele>165.0</ele><time>2026-05-01T15:46:21Z</time></trkpt><trkpt lat="48.588753738666824" lon="3.3687610958807226"><ele>165.0</ele><time>2026-05-01T15:46:22Z</time></trkpt><trkpt lat="48.58871868644473" lon="3.3685652623582913"><ele>165.2</ele><time>2026-05-01T15:46:23Z</time></trkpt><trkpt lat="48.58868250509587" lon="3.3683957500373"><ele>165.4</ele><time>2026-05-01T15:46:24Z</time></trkpt><trkpt lat="48.58864589544628" lon="3.368254512909695"><ele>165.60000000000002</ele><time>2026-05-01T15:46:25Z</time></trkpt><trkpt lat="48.588616285379196" lon="3.368152021440834"><ele>165.8</ele><time>2026-05-01T15:46:26Z</time></trkpt><trkpt lat="48.588622098857655" lon="3.3680130735355167"><ele>166.0</ele><time>2026-05-01T15:46:28Z</time></trkpt><trkpt lat="48.58870333574497" lon="3.3679835483300615"><ele>166.0</ele><time>2026-05-01T15:46:30Z</time></trkpt><trkpt lat="48.58880971964128" lon="3.3679640328478158"><ele>166.0</ele><time>2026-05-01T15:46:31Z</time></trkpt><trkpt lat="48.588928735975365" lon="3.3679422000140398"><ele>166.0</ele><time>2026-05-01T15:46:32Z</time></trkpt><trkpt lat="48.58906324218609" lon="3.36791752564787"><ele>166.0</ele><time>2026-05-01T15:46:33Z</time></trkpt><trkpt lat="48.58921321601286" lon="3.3678900138662153"><ele>166.0</ele><time>2026-05-01T15:46:34Z</time></trkpt><trkpt lat="48.589370002761044" lon="3.3678611425063596"><ele>166.0</ele><time>2026-05-01T15:46:35Z</time></trkpt><trkpt lat="48.58953484867086" lon="3.367830473497287"><ele>166.0</ele><time>2026-05-01T15:46:36Z</time></trkpt><trkpt lat="48.589703301468234" lon="3.367799133443214"><ele>166.0</ele><time>2026-05-01T15:46:37Z</time></trkpt><trkpt lat="48.58987453181475" lon="3.3677672766321396"><ele>166.0</ele><time>2026-05-01T15:46:38Z</time></trkpt><trkpt lat="48.590053662887584" lon="3.367733949924391"><ele>166.0</ele><time>2026-05-01T15:46:39Z</time></trkpt><trkpt lat="48.59023932502778" lon="3.3676994081331126"><ele>165.33333333333334</ele><time>2026-05-01T15:46:40Z</time></trkpt><trkpt lat="48.59043391456221" lon="3.3676635229944876"><ele>164.66666666666666</ele><time>2026-05-01T15:46:41Z</time></trkpt><trkpt lat="48.59062824278725" lon="3.3676278598770204"><ele>164.0</ele><time>2026-05-01T15:46:42Z</time></trkpt><trkpt lat="48.590826951444775" lon="3.3675913928597034"><ele>164.0</ele><time>2026-05-01T15:46:43Z</time></trkpt><trkpt lat="48.59102729047682" lon="3.367554626644751"><ele>164.0</ele><time>2026-05-01T15:46:44Z</time></trkpt><trkpt lat="48.59122833848616" lon="3.3675177303180606"><ele>164.0</ele><time>2026-05-01T15:46:45Z</time></trkpt><trkpt lat="48.5914297464655" lon="3.3674807679287113"><ele>163.66666666666666</ele><time>2026-05-01T15:46:46Z</time></trkpt><trkpt lat="48.5916327218237" lon="3.367443016717201"><ele>163.33333333333334</ele><time>2026-05-01T15:46:47Z</time></trkpt><trkpt lat="48.59183741030214" lon="3.367404074859583"><ele>163.0</ele><time>2026-05-01T15:46:48Z</time></trkpt><trkpt lat="48.59204337688842" lon="3.367364889828723"><ele>162.33333333333334</ele><time>2026-05-01T15:46:49Z</time></trkpt><trkpt lat="48.592249938796556" lon="3.3673255922290113"><ele>161.66666666666666</ele><time>2026-05-01T15:46:50Z</time></trkpt><trkpt lat="48.5924560876554" lon="3.367286372517585"><ele>161.0</ele><time>2026-05-01T15:46:51Z</time></trkpt><trkpt lat="48.59266129707085" lon="3.367247673700928"><ele>160.66666666666666</ele><time>2026-05-01T15:46:52Z</time></trkpt><trkpt lat="48.59286050986633" lon="3.3672102713655043"><ele>160.33333333333334</ele><time>2026-05-01T15:46:53Z</time></trkpt><trkpt lat="48.59306886379127" lon="3.3671495797250226"><ele>160.0</ele><time>2026-05-01T15:46:54Z</time></trkpt><trkpt lat="48.59324703305681" lon="3.3671174601115705"><ele>159.66666666666669</ele><time>2026-05-01T15:46:55Z</time></trkpt><trkpt lat="48.593410964342496" lon="3.3670860656484467"><ele>159.33333333333334</ele><time>2026-05-01T15:46:56Z</time></trkpt><trkpt lat="48.59356111332675" lon="3.367054175187172"><ele>159.0</ele><time>2026-05-01T15:46:57Z</time></trkpt><trkpt lat="48.593722744264504" lon="3.3670265829565036"><ele>158.6</ele><time>2026-05-01T15:46:58Z</time></trkpt><trkpt lat="48.593868564495025" lon="3.3670050952969457"><ele>158.2</ele><time>2026-05-01T15:46:59Z</time></trkpt><trkpt lat="48.593996579428975" lon="3.3669841468875203"><ele>157.79999999999998</ele><time>2026-05-01T15:47:00Z</time></trkpt><trkpt lat="48.59409100355073" lon="3.3669636373500875"><ele>157.4</ele><time>2026-05-01T15:47:01Z</time></trkpt><trkpt lat="48.59416870199499" lon="3.366952508152205"><ele>157.0</ele><time>2026-05-01T15:47:02Z</time></trkpt><trkpt lat="48.594232970988756" lon="3.3669646757935756"><ele>157.0</ele><time>2026-05-01T15:47:03Z</time></trkpt><trkpt lat="48.59432757217309" lon="3.3670810114610106"><ele>157.0</ele><time>2026-05-01T15:47:05Z</time></trkpt><trkpt lat="48.59439626893002" lon="3.3671431429673024"><ele>157.0</ele><time>2026-05-01T15:47:06Z</time></trkpt><trkpt lat="48.594475186947314" lon="3.367213223942879"><ele>157.0</ele><time>2026-05-01T15:47:07Z</time></trkpt><trkpt lat="48.5945478976328" lon="3.3672665822779386"><ele>157.0</ele><time>2026-05-01T15:47:08Z</time></trkpt><trkpt lat="48.594623906185454" lon="3.367315982006112"><ele>157.75</ele><time>2026-05-01T15:47:10Z</time></trkpt><trkpt lat="48.59463944843259" lon="3.3671412158989753"><ele>158.5</ele><time>2026-05-01T15:47:17Z</time></trkpt><trkpt lat="48.59458394660378" lon="3.3670522637532048"><ele>159.25</ele><time>2026-05-01T15:47:18Z</time></trkpt><trkpt lat="48.59459753229884" lon="3.367315857434291"><ele>160.0</ele><time>2026-05-01T15:47:21Z</time></trkpt><trkpt lat="48.59470237360138" lon="3.367379210533122"><ele>160.0</ele><time>2026-05-01T15:47:22Z</time></trkpt><trkpt lat="48.59478796470798" lon="3.3674182234105725"><ele>160.0</ele><time>2026-05-01T15:47:23Z</time></trkpt><trkpt lat="48.5948904204133" lon="3.3674605761728778"><ele>160.0</ele><time>2026-05-01T15:47:24Z</time></trkpt><trkpt lat="48.59522570012572" lon="3.366740211364726"><ele>160.33333333333334</ele><time>2026-05-01T15:47:25Z</time></trkpt><trkpt lat="48.59537204067558" lon="3.3666708828630463"><ele>160.66666666666666</ele><time>2026-05-01T15:47:26Z</time></trkpt><trkpt lat="48.59553104183971" lon="3.3665973820298722"><ele>161.0</ele><time>2026-05-01T15:47:27Z</time></trkpt><trkpt lat="48.59568879832373" lon="3.3665175500427367"><ele>161.0</ele><time>2026-05-01T15:47:28Z</time></trkpt><trkpt lat="48.595844650534495" lon="3.366436106071571"><ele>161.0</ele><time>2026-05-01T15:47:29Z</time></trkpt><trkpt lat="48.595999473192485" lon="3.366356175872298"><ele>161.0</ele><time>2026-05-01T15:47:30Z</time></trkpt><trkpt lat="48.59614934932847" lon="3.366275576762486"><ele>159.66666666666666</ele><time>2026-05-01T15:47:31Z</time></trkpt><trkpt lat="48.59630185204765" lon="3.366201783303875"><ele>158.33333333333334</ele><time>2026-05-01T15:47:32Z</time></trkpt><trkpt lat="48.59645352386968" lon="3.3661175415084825"><ele>157.0</ele><time>2026-05-01T15:47:33Z</time></trkpt><trkpt lat="48.59661051749278" lon="3.366032735406452"><ele>157.0</ele><time>2026-05-01T15:47:34Z</time></trkpt><trkpt lat="48.59676917078097" lon="3.3659528994502375"><ele>157.0</ele><time>2026-05-01T15:47:35Z</time></trkpt><trkpt lat="48.596931954152794" lon="3.365879395332749"><ele>157.0</ele><time>2026-05-01T15:47:36Z</time></trkpt><trkpt lat="48.59710224916084" lon="3.365805031417295"><ele>156.66666666666669</ele><time>2026-05-01T15:47:37Z</time></trkpt><trkpt lat="48.59726900746625" lon="3.365720243782469"><ele>156.33333333333334</ele><time>2026-05-01T15:47:38Z</time></trkpt><trkpt lat="48.597432363984574" lon="3.3656424339623734"><ele>156.0</ele><time>2026-05-01T15:47:39Z</time></trkpt><trkpt lat="48.59757799502054" lon="3.365571719514821"><ele>155.75</ele><time>2026-05-01T15:47:40Z</time></trkpt><trkpt lat="48.59771187500349" lon="3.3655104842180186"><ele>155.5</ele><time>2026-05-01T15:47:41Z</time></trkpt><trkpt lat="48.59784867381975" lon="3.3654460023504984"><ele>155.25</ele><time>2026-05-01T15:47:42Z</time></trkpt><trkpt lat="48.59798245430433" lon="3.3653788489022274"><ele>155.0</ele><time>2026-05-01T15:47:43Z</time></trkpt><trkpt lat="48.598113174037245" lon="3.3653062591287246"><ele>155.75</ele><time>2026-05-01T15:47:44Z</time></trkpt><trkpt lat="48.59824747119777" lon="3.365232367122714"><ele>156.5</ele><time>2026-05-01T15:47:45Z</time></trkpt><trkpt lat="48.59838161625178" lon="3.3651670468865547"><ele>157.25</ele><time>2026-05-01T15:47:46Z</time></trkpt><trkpt lat="48.59851629745716" lon="3.365105029304761"><ele>158.0</ele><time>2026-05-01T15:47:47Z</time></trkpt><trkpt lat="48.598654857575475" lon="3.36503477790259"><ele>158.33333333333331</ele><time>2026-05-01T15:47:48Z</time></trkpt><trkpt lat="48.598804930707324" lon="3.364965923986191"><ele>158.66666666666666</ele><time>2026-05-01T15:47:49Z</time></trkpt><trkpt lat="48.59896264078143" lon="3.3648949598733897"><ele>159.0</ele><time>2026-05-01T15:47:50Z</time></trkpt><trkpt lat="48.59912089025207" lon="3.3648264058673227"><ele>159.0</ele><time>2026-05-01T15:47:51Z</time></trkpt><trkpt lat="48.59927504100541" lon="3.364745719941479"><ele>159.0</ele><time>2026-05-01T15:47:52Z</time></trkpt><trkpt lat="48.59942822262932" lon="3.3646630987277697"><ele>159.0</ele><time>2026-05-01T15:47:53Z</time></trkpt><trkpt lat="48.59958200925409" lon="3.364578739571689"><ele>160.0</ele><time>2026-05-01T15:47:54Z</time></trkpt><trkpt lat="48.599742439408125" lon="3.3644981958686335"><ele>161.0</ele><time>2026-05-01T15:47:55Z</time></trkpt><trkpt lat="48.59991136804959" lon="3.3644096426086625"><ele>162.0</ele><time>2026-05-01T15:47:56Z</time></trkpt><trkpt lat="48.600079653622494" lon="3.3643248661638805"><ele>162.0</ele><time>2026-05-01T15:47:57Z</time></trkpt><trkpt lat="48.60021225588649" lon="3.364245827873774"><ele>162.0</ele><time>2026-05-01T15:47:58Z</time></trkpt><trkpt lat="48.60032961990964" lon="3.3641944805542776"><ele>162.0</ele><time>2026-05-01T15:47:59Z</time></trkpt><trkpt lat="48.60042829435334" lon="3.364154539522021"><ele>162.0</ele><time>2026-05-01T15:48:00Z</time></trkpt><trkpt lat="48.60051636010245" lon="3.3641096759118407"><ele>161.75</ele><time>2026-05-01T15:48:01Z</time></trkpt><trkpt lat="48.60060698037363" lon="3.3640601882550483"><ele>161.5</ele><time>2026-05-01T15:48:02Z</time></trkpt><trkpt lat="48.60070179445776" lon="3.3639919534908724"><ele>161.25</ele><time>2026-05-01T15:48:03Z</time></trkpt><trkpt lat="48.60080223162856" lon="3.363883430398233"><ele>161.0</ele><time>2026-05-01T15:48:04Z</time></trkpt><trkpt lat="48.600910727626065" lon="3.3637616096577694"><ele>161.0</ele><time>2026-05-01T15:48:05Z</time></trkpt><trkpt lat="48.60102748568778" lon="3.363640934565745"><ele>161.0</ele><time>2026-05-01T15:48:06Z</time></trkpt><trkpt lat="48.601148911131034" lon="3.3635324118249676"><ele>161.0</ele><time>2026-05-01T15:48:07Z</time></trkpt><trkpt lat="48.60126293466725" lon="3.363401407675931"><ele>161.0</ele><time>2026-05-01T15:48:08Z</time></trkpt><trkpt lat="48.601383376749624" lon="3.3632739128354467"><ele>160.66666666666666</ele><time>2026-05-01T15:48:09Z</time></trkpt><trkpt lat="48.6015084626704" lon="3.363148986836748"><ele>160.33333333333334</ele><time>2026-05-01T15:48:10Z</time></trkpt><trkpt lat="48.6016343671215" lon="3.363017941179018"><ele>160.0</ele><time>2026-05-01T15:48:11Z</time></trkpt><trkpt lat="48.601766061458505" lon="3.36289922236201"><ele>160.0</ele><time>2026-05-01T15:48:12Z</time></trkpt><trkpt lat="48.60189293141969" lon="3.3627760037933547"><ele>160.0</ele><time>2026-05-01T15:48:13Z</time></trkpt><trkpt lat="48.602015947032456" lon="3.3626406704416896"><ele>160.0</ele><time>2026-05-01T15:48:14Z</time></trkpt><trkpt lat="48.60213907661264" lon="3.362497405698446"><ele>160.5</ele><time>2026-05-01T15:48:15Z</time></trkpt><trkpt lat="48.60226972658977" lon="3.362372301267941"><ele>161.0</ele><time>2026-05-01T15:48:16Z</time></trkpt><trkpt lat="48.60239741591881" lon="3.3622494375468404"><ele>161.5</ele><time>2026-05-01T15:48:17Z</time></trkpt><trkpt lat="48.60251033760255" lon="3.362135486511553"><ele>162.0</ele><time>2026-05-01T15:48:18Z</time></trkpt><trkpt lat="48.60261596102674" lon="3.362025279426578"><ele>162.0</ele><time>2026-05-01T15:48:19Z</time></trkpt><trkpt lat="48.60272909636552" lon="3.3619091997489168"><ele>162.0</ele><time>2026-05-01T15:48:20Z</time></trkpt><trkpt lat="48.60283928373539" lon="3.361791629624413"><ele>162.0</ele><time>2026-05-01T15:48:21Z</time></trkpt><trkpt lat="48.60295527042611" lon="3.361679518893229"><ele>162.0</ele><time>2026-05-01T15:48:22Z</time></trkpt><trkpt lat="48.60306481470029" lon="3.3615577958797487"><ele>161.75</ele><time>2026-05-01T15:48:23Z</time></trkpt><trkpt lat="48.60315556523723" lon="3.361426947687712"><ele>161.5</ele><time>2026-05-01T15:48:24Z</time></trkpt><trkpt lat="48.60323004815759" lon="3.361274204372731"><ele>161.25</ele><time>2026-05-01T15:48:25Z</time></trkpt><trkpt lat="48.60328072699829" lon="3.3610908295056454"><ele>161.0</ele><time>2026-05-01T15:48:26Z</time></trkpt><trkpt lat="48.60333895063593" lon="3.3609123219273527"><ele>160.75</ele><time>2026-05-01T15:48:27Z</time></trkpt><trkpt lat="48.60339367070832" lon="3.3607269353030857"><ele>160.5</ele><time>2026-05-01T15:48:28Z</time></trkpt><trkpt lat="48.60345196272792" lon="3.36054360897919"><ele>160.25</ele><time>2026-05-01T15:48:29Z</time></trkpt><trkpt lat="48.60350955401328" lon="3.360365905197188"><ele>160.0</ele><time>2026-05-01T15:48:30Z</time></trkpt><trkpt lat="48.603574033844126" lon="3.3601694465516276"><ele>160.0</ele><time>2026-05-01T15:48:31Z</time></trkpt><trkpt lat="48.60362827941799" lon="3.359996230473059"><ele>160.0</ele><time>2026-05-01T15:48:32Z</time></trkpt><trkpt lat="48.60368483289961" lon="3.3598228411904962"><ele>160.0</ele><time>2026-05-01T15:48:33Z</time></trkpt><trkpt lat="48.60374124838335" lon="3.359639839779227"><ele>160.0</ele><time>2026-05-01T15:48:34Z</time></trkpt><trkpt lat="48.60379078094662" lon="3.3594658147760144"><ele>160.25</ele><time>2026-05-01T15:48:35Z</time></trkpt><trkpt lat="48.603841708910686" lon="3.359296622298673"><ele>160.5</ele><time>2026-05-01T15:48:36Z</time></trkpt><trkpt lat="48.603901314506615" lon="3.3591219928546776"><ele>160.75</ele><time>2026-05-01T15:48:37Z</time></trkpt><trkpt lat="48.603959200668015" lon="3.35894033373467"><ele>161.0</ele><time>2026-05-01T15:48:38Z</time></trkpt><trkpt lat="48.604027153956615" lon="3.3587533503491303"><ele>161.0</ele><time>2026-05-01T15:48:39Z</time></trkpt><trkpt lat="48.604090780328065" lon="3.3585579519089075"><ele>161.0</ele><time>2026-05-01T15:48:40Z</time></trkpt><trkpt lat="48.604158453054566" lon="3.358349638609809"><ele>161.0</ele><time>2026-05-01T15:48:41Z</time></trkpt><trkpt lat="48.60422866426995" lon="3.358142932200104"><ele>161.0</ele><time>2026-05-01T15:48:42Z</time></trkpt><trkpt lat="48.60429512809778" lon="3.35793637317694"><ele>161.0</ele><time>2026-05-01T15:48:43Z</time></trkpt><trkpt lat="48.60435919748933" lon="3.3577203855333773"><ele>161.0</ele><time>2026-05-01T15:48:44Z</time></trkpt><trkpt lat="48.60442731735494" lon="3.3575071809753334"><ele>161.0</ele><time>2026-05-01T15:48:45Z</time></trkpt><trkpt lat="48.60450086152584" lon="3.3572820801027907"><ele>161.0</ele><time>2026-05-01T15:48:46Z</time></trkpt><trkpt lat="48.60456942386614" lon="3.357053392054273"><ele>161.0</ele><time>2026-05-01T15:48:47Z</time></trkpt><trkpt lat="48.60462493270099" lon="3.356845576903694"><ele>161.33333333333331</ele><time>2026-05-01T15:48:48Z</time></trkpt><trkpt lat="48.604698193756676" lon="3.356630849945522"><ele>161.66666666666666</ele><time>2026-05-01T15:48:49Z</time></trkpt><trkpt lat="48.604782099963366" lon="3.3564293216910026"><ele>162.0</ele><time>2026-05-01T15:48:50Z</time></trkpt><trkpt lat="48.604838151988076" lon="3.3562404944793967"><ele>162.2</ele><time>2026-05-01T15:48:51Z</time></trkpt><trkpt lat="48.60486974620782" lon="3.356068643773867"><ele>162.39999999999998</ele><time>2026-05-01T15:48:52Z</time></trkpt><trkpt lat="48.6049133835317" lon="3.355918564548062"><ele>162.60000000000002</ele><time>2026-05-01T15:48:53Z</time></trkpt><trkpt lat="48.60495850463113" lon="3.3558017459981704"><ele>162.8</ele><time>2026-05-01T15:48:54Z</time></trkpt><trkpt lat="48.60498643797007" lon="3.3556454279331795"><ele>163.0</ele><time>2026-05-01T15:48:56Z</time></trkpt><trkpt lat="48.60500761695688" lon="3.355538332951414"><ele>163.0</ele><time>2026-05-01T15:48:59Z</time></trkpt><trkpt lat="48.6049799700864" lon="3.3556880266215483"><ele>163.0</ele><time>2026-05-01T15:49:11Z</time></trkpt><trkpt lat="48.604998898176184" lon="3.355785031294799"><ele>163.0</ele><time>2026-05-01T15:49:17Z</time></trkpt><trkpt lat="48.605064928283376" lon="3.3558895454131012"><ele>163.0</ele><time>2026-05-01T15:49:18Z</time></trkpt><trkpt lat="48.60515292529061" lon="3.3559951743722864"><ele>163.0</ele><time>2026-05-01T15:49:19Z</time></trkpt><trkpt lat="48.605248672999835" lon="3.356125638512837"><ele>163.25</ele><time>2026-05-01T15:49:20Z</time></trkpt><trkpt lat="48.60535437106637" lon="3.356261955209063"><ele>163.5</ele><time>2026-05-01T15:49:21Z</time></trkpt><trkpt lat="48.605467831596606" lon="3.3564163797036266"><ele>163.75</ele><time>2026-05-01T15:49:22Z</time></trkpt><trkpt lat="48.605582454149655" lon="3.3565766283688996"><ele>164.0</ele><time>2026-05-01T15:49:23Z</time></trkpt><trkpt lat="48.60570955067373" lon="3.3567318150270045"><ele>164.0</ele><time>2026-05-01T15:49:24Z</time></trkpt><trkpt lat="48.60583200199167" lon="3.356891768437846"><ele>164.0</ele><time>2026-05-01T15:49:25Z</time></trkpt><trkpt lat="48.60595360486924" lon="3.3570554278695965"><ele>164.0</ele><time>2026-05-01T15:49:26Z</time></trkpt><trkpt lat="48.60606978877506" lon="3.357223870071627"><ele>164.66666666666666</ele><time>2026-05-01T15:49:27Z</time></trkpt><trkpt lat="48.606192570758424" lon="3.3573755152393487"><ele>165.33333333333334</ele><time>2026-05-01T15:49:28Z</time></trkpt><trkpt lat="48.606317947515635" lon="3.357511656452984"><ele>166.0</ele><time>2026-05-01T15:49:29Z</time></trkpt><trkpt lat="48.60644181630207" lon="3.357681722988559"><ele>166.0</ele><time>2026-05-01T15:49:30Z</time></trkpt><trkpt lat="48.60656295355084" lon="3.3578388188079464"><ele>166.0</ele><time>2026-05-01T15:49:31Z</time></trkpt><trkpt lat="48.606685851876634" lon="3.357998772302981"><ele>166.0</ele><time>2026-05-01T15:49:32Z</time></trkpt><trkpt lat="48.60681047480222" lon="3.358157519633572"><ele>166.0</ele><time>2026-05-01T15:49:33Z</time></trkpt><trkpt lat="48.606933914870865" lon="3.3583261146107417"><ele>166.0</ele><time>2026-05-01T15:49:34Z</time></trkpt><trkpt lat="48.607055358754714" lon="3.3584996513047103"><ele>166.0</ele><time>2026-05-01T15:49:35Z</time></trkpt><trkpt lat="48.60717129587225" lon="3.358670276501488"><ele>166.66666666666669</ele><time>2026-05-01T15:49:36Z</time></trkpt><trkpt lat="48.6072916586523" lon="3.358840538592123"><ele>167.33333333333334</ele><time>2026-05-01T15:49:37Z</time></trkpt><trkpt lat="48.6074064128154" lon="3.3590165715567744"><ele>168.0</ele><time>2026-05-01T15:49:38Z</time></trkpt><trkpt lat="48.60751937198219" lon="3.3591879619811715"><ele>168.0</ele><time>2026-05-01T15:49:39Z</time></trkpt><trkpt lat="48.60762811716347" lon="3.3593688484713025"><ele>168.0</ele><time>2026-05-01T15:49:40Z</time></trkpt><trkpt lat="48.607731687748156" lon="3.3595519512036502"><ele>168.0</ele><time>2026-05-01T15:49:41Z</time></trkpt><trkpt lat="48.607834281668396" lon="3.3597345924489836"><ele>168.0</ele><time>2026-05-01T15:49:42Z</time></trkpt><trkpt lat="48.60792133819966" lon="3.3598943029460275"><ele>168.0</ele><time>2026-05-01T15:49:43Z</time></trkpt><trkpt lat="48.60801788937138" lon="3.360054132027823"><ele>168.0</ele><time>2026-05-01T15:49:44Z</time></trkpt><trkpt lat="48.60810692542148" lon="3.360202195553019"><ele>168.0</ele><time>2026-05-01T15:49:45Z</time></trkpt><trkpt lat="48.60819505151764" lon="3.360347774329459"><ele>168.0</ele><time>2026-05-01T15:49:46Z</time></trkpt><trkpt lat="48.60828585846453" lon="3.360473860997329"><ele>168.0</ele><time>2026-05-01T15:49:47Z</time></trkpt><trkpt lat="48.60837993124318" lon="3.3605907275670113"><ele>168.0</ele><time>2026-05-01T15:49:48Z</time></trkpt><trkpt lat="48.60847014279754" lon="3.360705164841871"><ele>168.0</ele><time>2026-05-01T15:49:49Z</time></trkpt><trkpt lat="48.60856057479673" lon="3.3608297570392907"><ele>167.5</ele><time>2026-05-01T15:49:50Z</time></trkpt><trkpt lat="48.608648976934944" lon="3.360944848354615"><ele>167.0</ele><time>2026-05-01T15:49:51Z</time></trkpt><trkpt lat="48.608732030951046" lon="3.361063110518956"><ele>166.5</ele><time>2026-05-01T15:49:52Z</time></trkpt><trkpt lat="48.608813546509346" lon="3.3611810450940656"><ele>166.0</ele><time>2026-05-01T15:49:53Z</time></trkpt><trkpt lat="48.608892591171895" lon="3.361294681625504"><ele>166.8</ele><time>2026-05-01T15:49:54Z</time></trkpt><trkpt lat="48.608964897818495" lon="3.361416729853132"><ele>167.60000000000002</ele><time>2026-05-01T15:49:55Z</time></trkpt><trkpt lat="48.6090358388062" lon="3.361533356104323"><ele>168.4</ele><time>2026-05-01T15:49:56Z</time></trkpt><trkpt lat="48.609106646517894" lon="3.3616400954780015"><ele>169.2</ele><time>2026-05-01T15:49:57Z</time></trkpt><trkpt lat="48.60916833420764" lon="3.361736525113893"><ele>170.0</ele><time>2026-05-01T15:49:58Z</time></trkpt><trkpt lat="48.60922385264244" lon="3.3618231453613383"><ele>170.0</ele><time>2026-05-01T15:49:59Z</time></trkpt><trkpt lat="48.60926032555396" lon="3.361941591466199"><ele>170.0</ele><time>2026-05-01T15:50:00Z</time></trkpt><trkpt lat="48.60931502715836" lon="3.3620261801696296"><ele>170.0</ele><time>2026-05-01T15:50:01Z</time></trkpt><trkpt lat="48.6093669286654" lon="3.3621064388941457"><ele>170.0</ele><time>2026-05-01T15:50:02Z</time></trkpt><trkpt lat="48.6094202439352" lon="3.3621888838093685"><ele>170.0</ele><time>2026-05-01T15:50:03Z</time></trkpt><trkpt lat="48.60947921771271" lon="3.3622800788559104"><ele>170.0</ele><time>2026-05-01T15:50:04Z</time></trkpt><trkpt lat="48.60953647913679" lon="3.3623729209005546"><ele>170.16666666666666</ele><time>2026-05-01T15:50:05Z</time></trkpt><trkpt lat="48.60959272787282" lon="3.362463861910441"><ele>170.33333333333331</ele><time>2026-05-01T15:50:06Z</time></trkpt><trkpt lat="48.60964893944688" lon="3.3625567605913735"><ele>170.5</ele><time>2026-05-01T15:50:07Z</time></trkpt><trkpt lat="48.609708322397005" lon="3.362654900481057"><ele>170.66666666666666</ele><time>2026-05-01T15:50:08Z</time></trkpt><trkpt lat="48.609766201342545" lon="3.3627560213751533"><ele>170.83333333333334</ele><time>2026-05-01T15:50:09Z</time></trkpt><trkpt lat="48.60981803527613" lon="3.3628513137302765"><ele>171.0</ele><time>2026-05-01T15:50:10Z</time></trkpt><trkpt lat="48.609864705646046" lon="3.362943269652331"><ele>170.99999999999997</ele><time>2026-05-01T15:50:11Z</time></trkpt><trkpt lat="48.60992117826975" lon="3.363020135448105"><ele>171.0</ele><time>2026-05-01T15:50:12Z</time></trkpt><trkpt lat="48.60995027087013" lon="3.3631294694824208"><ele>171.0</ele><time>2026-05-01T15:50:13Z</time></trkpt><trkpt lat="48.6099905129709" lon="3.363221678108484"><ele>171.0</ele><time>2026-05-01T15:50:14Z</time></trkpt><trkpt lat="48.61002875276335" lon="3.3633092987547735"><ele>171.0</ele><time>2026-05-01T15:50:15Z</time></trkpt><trkpt lat="48.61008056200065" lon="3.363385948476472"><ele>170.99999999999997</ele><time>2026-05-01T15:50:16Z</time></trkpt><trkpt lat="48.610118119933496" lon="3.363482020718132"><ele>171.0</ele><time>2026-05-01T15:50:17Z</time></trkpt><trkpt lat="48.61015719320666" lon="3.3635822827035238"><ele>170.83333333333334</ele><time>2026-05-01T15:50:18Z</time></trkpt><trkpt lat="48.61020191037011" lon="3.363680197315861"><ele>170.66666666666666</ele><time>2026-05-01T15:50:19Z</time></trkpt><trkpt lat="48.61023343187722" lon="3.3637925681864624"><ele>170.5</ele><time>2026-05-01T15:50:20Z</time></trkpt><trkpt lat="48.61027736374398" lon="3.363897364142739"><ele>170.33333333333331</ele><time>2026-05-01T15:50:21Z</time></trkpt><trkpt lat="48.61032184169345" lon="3.364003462737909"><ele>170.16666666666666</ele><time>2026-05-01T15:50:22Z</time></trkpt><trkpt lat="48.61036497122676" lon="3.364106344794935"><ele>170.0</ele><time>2026-05-01T15:50:23Z</time></trkpt><trkpt lat="48.61040538512687" lon="3.364202748923326"><ele>169.8</ele><time>2026-05-01T15:50:24Z</time></trkpt><trkpt lat="48.61044240524732" lon="3.364291046479693"><ele>169.6</ele><time>2026-05-01T15:50:25Z</time></trkpt><trkpt lat="48.6105227157228" lon="3.3644352122157413"><ele>169.39999999999998</ele><time>2026-05-01T15:50:27Z</time></trkpt><trkpt lat="48.6105736460401" lon="3.3645775028658487"><ele>169.2</ele><time>2026-05-01T15:50:29Z</time></trkpt><trkpt lat="48.610652490649564" lon="3.3646927611987474"><ele>169.0</ele><time>2026-05-01T15:50:54Z</time></trkpt><trkpt lat="48.61074627184795" lon="3.364825911303103"><ele>169.0</ele><time>2026-05-01T15:50:56Z</time></trkpt><trkpt lat="48.610811829851" lon="3.3648884178186864"><ele>169.0</ele><time>2026-05-01T15:50:57Z</time></trkpt><trkpt lat="48.61086530372038" lon="3.3649845585342786"><ele>169.0</ele><time>2026-05-01T15:50:58Z</time></trkpt><trkpt lat="48.61092190786647" lon="3.3650806171158676"><ele>169.0</ele><time>2026-05-01T15:50:59Z</time></trkpt><trkpt lat="48.61098183841673" lon="3.3651872725407106"><ele>169.0</ele><time>2026-05-01T15:51:00Z</time></trkpt><trkpt lat="48.6110413065589" lon="3.3653014448013985"><ele>169.0</ele><time>2026-05-01T15:51:01Z</time></trkpt><trkpt lat="48.61110138566964" lon="3.3654135227053015"><ele>168.39999999999998</ele><time>2026-05-01T15:51:02Z</time></trkpt><trkpt lat="48.61116521266676" lon="3.3655255031918587"><ele>167.8</ele><time>2026-05-01T15:51:03Z</time></trkpt><trkpt lat="48.61122963335324" lon="3.3656429842096465"><ele>167.2</ele><time>2026-05-01T15:51:04Z</time></trkpt><trkpt lat="48.61130239416613" lon="3.3657505446772347"><ele>166.60000000000002</ele><time>2026-05-01T15:51:05Z</time></trkpt><trkpt lat="48.61137547098113" lon="3.3658626407935652"><ele>166.0</ele><time>2026-05-01T15:51:06Z</time></trkpt><trkpt lat="48.611453529049136" lon="3.3659689269919504"><ele>166.0</ele><time>2026-05-01T15:51:07Z</time></trkpt><trkpt lat="48.61153615961084" lon="3.366067238493051"><ele>166.0</ele><time>2026-05-01T15:51:08Z</time></trkpt><trkpt lat="48.61161829835786" lon="3.366171246216716"><ele>166.0</ele><time>2026-05-01T15:51:09Z</time></trkpt><trkpt lat="48.611704778919" lon="3.366275950103696"><ele>166.0</ele><time>2026-05-01T15:51:10Z</time></trkpt><trkpt lat="48.61179425057632" lon="3.366381771205597"><ele>166.0</ele><time>2026-05-01T15:51:11Z</time></trkpt><trkpt lat="48.61188707898515" lon="3.3664891737635343"><ele>166.0</ele><time>2026-05-01T15:51:12Z</time></trkpt><trkpt lat="48.611980373685114" lon="3.3665973011848713"><ele>166.0</ele><time>2026-05-01T15:51:13Z</time></trkpt><trkpt lat="48.61207602972637" lon="3.36670291180212"><ele>166.0</ele><time>2026-05-01T15:51:14Z</time></trkpt><trkpt lat="48.61217257860644" lon="3.3668175849052457"><ele>166.0</ele><time>2026-05-01T15:51:15Z</time></trkpt><trkpt lat="48.6122705512361" lon="3.3669404347613856"><ele>166.0</ele><time>2026-05-01T15:51:16Z</time></trkpt><trkpt lat="48.61237330918693" lon="3.367054646767584"><ele>166.0</ele><time>2026-05-01T15:51:17Z</time></trkpt><trkpt lat="48.6124735511087" lon="3.367177159129647"><ele>166.0</ele><time>2026-05-01T15:51:18Z</time></trkpt><trkpt lat="48.61257078541851" lon="3.3672949895210857"><ele>166.0</ele><time>2026-05-01T15:51:19Z</time></trkpt><trkpt lat="48.61265256206452" lon="3.36737369424609"><ele>166.0</ele><time>2026-05-01T15:51:20Z</time></trkpt><trkpt lat="48.61274552315347" lon="3.367495510311946"><ele>166.0</ele><time>2026-05-01T15:51:21Z</time></trkpt><trkpt lat="48.61282573815933" lon="3.3675796397794437"><ele>166.0</ele><time>2026-05-01T15:51:22Z</time></trkpt><trkpt lat="48.612907872580415" lon="3.3676682790663897"><ele>166.0</ele><time>2026-05-01T15:51:23Z</time></trkpt><trkpt lat="48.61299894776269" lon="3.367747114299778"><ele>166.0</ele><time>2026-05-01T15:51:24Z</time></trkpt><trkpt lat="48.613099536456595" lon="3.367817176840852"><ele>165.5</ele><time>2026-05-01T15:51:25Z</time></trkpt><trkpt lat="48.613196998679705" lon="3.3679157542693186"><ele>165.0</ele><time>2026-05-01T15:51:26Z</time></trkpt><trkpt lat="48.61329918170808" lon="3.3680162602763914"><ele>164.5</ele><time>2026-05-01T15:51:27Z</time></trkpt><trkpt lat="48.61340713764731" lon="3.3681243643677585"><ele>164.0</ele><time>2026-05-01T15:51:28Z</time></trkpt><trkpt lat="48.61351286979359" lon="3.36824264830397"><ele>164.0</ele><time>2026-05-01T15:51:29Z</time></trkpt><trkpt lat="48.61361985353394" lon="3.368363165646357"><ele>164.0</ele><time>2026-05-01T15:51:30Z</time></trkpt><trkpt lat="48.613729638123694" lon="3.3684829256830486"><ele>164.0</ele><time>2026-05-01T15:51:31Z</time></trkpt><trkpt lat="48.61384880283865" lon="3.3685887912162755"><ele>164.0</ele><time>2026-05-01T15:51:32Z</time></trkpt><trkpt lat="48.613958860991005" lon="3.3687101746996384"><ele>164.0</ele><time>2026-05-01T15:51:33Z</time></trkpt><trkpt lat="48.61407456398306" lon="3.3688303871495497"><ele>164.0</ele><time>2026-05-01T15:51:34Z</time></trkpt><trkpt lat="48.61417631608361" lon="3.3689417399370707"><ele>164.0</ele><time>2026-05-01T15:51:35Z</time></trkpt><trkpt lat="48.61427389898064" lon="3.3690530069341835"><ele>164.0</ele><time>2026-05-01T15:51:36Z</time></trkpt><trkpt lat="48.61437807480098" lon="3.3691525006766763"><ele>163.5</ele><time>2026-05-01T15:51:37Z</time></trkpt><trkpt lat="48.614488237542346" lon="3.3692534731737815"><ele>163.0</ele><time>2026-05-01T15:51:38Z</time></trkpt><trkpt lat="48.614595832287854" lon="3.3693591639416876"><ele>162.5</ele><time>2026-05-01T15:51:39Z</time></trkpt><trkpt lat="48.61470792675728" lon="3.3694700763208716"><ele>162.0</ele><time>2026-05-01T15:51:40Z</time></trkpt><trkpt lat="48.614825332371815" lon="3.369587218479855"><ele>162.0</ele><time>2026-05-01T15:51:41Z</time></trkpt><trkpt lat="48.61494813264601" lon="3.369689124217591"><ele>162.0</ele><time>2026-05-01T15:51:42Z</time></trkpt><trkpt lat="48.61506290106344" lon="3.369804075445181"><ele>162.0</ele><time>2026-05-01T15:51:43Z</time></trkpt><trkpt lat="48.6151793921823" lon="3.369927555536585"><ele>162.0</ele><time>2026-05-01T15:51:44Z</time></trkpt><trkpt lat="48.61530085519082" lon="3.37005332190271"><ele>161.33333333333334</ele><time>2026-05-01T15:51:45Z</time></trkpt><trkpt lat="48.61544756705195" lon="3.370171613014926"><ele>160.66666666666669</ele><time>2026-05-01T15:51:46Z</time></trkpt><trkpt lat="48.615580529191824" lon="3.3703006114479983"><ele>160.0</ele><time>2026-05-01T15:51:47Z</time></trkpt><trkpt lat="48.61572277409218" lon="3.370452939272021"><ele>160.0</ele><time>2026-05-01T15:51:48Z</time></trkpt><trkpt lat="48.61587147213597" lon="3.3706190744871156"><ele>160.0</ele><time>2026-05-01T15:51:49Z</time></trkpt><trkpt lat="48.616036425434125" lon="3.3707809818289793"><ele>160.0</ele><time>2026-05-01T15:51:50Z</time></trkpt><trkpt lat="48.61621068668973" lon="3.3709234745542616"><ele>159.0</ele><time>2026-05-01T15:51:51Z</time></trkpt><trkpt lat="48.61639544559559" lon="3.3710700760160908"><ele>158.0</ele><time>2026-05-01T15:51:52Z</time></trkpt><trkpt lat="48.616557912221396" lon="3.3712334493659872"><ele>157.0</ele><time>2026-05-01T15:51:53Z</time></trkpt><trkpt lat="48.61672454385938" lon="3.371409080335269"><ele>157.0</ele><time>2026-05-01T15:51:54Z</time></trkpt><trkpt lat="48.616893507527294" lon="3.37156977278949"><ele>157.0</ele><time>2026-05-01T15:51:55Z</time></trkpt><trkpt lat="48.61706356348164" lon="3.3717376250944526"><ele>157.0</ele><time>2026-05-01T15:51:56Z</time></trkpt><trkpt lat="48.61723332032363" lon="3.3719118737548954"><ele>157.0</ele><time>2026-05-01T15:51:57Z</time></trkpt><trkpt lat="48.617404991984635" lon="3.372075250851509"><ele>157.0</ele><time>2026-05-01T15:51:58Z</time></trkpt><trkpt lat="48.617576750171736" lon="3.3722343232822363"><ele>157.0</ele><time>2026-05-01T15:51:59Z</time></trkpt><trkpt lat="48.61774577714808" lon="3.3723936596766886"><ele>157.0</ele><time>2026-05-01T15:52:00Z</time></trkpt><trkpt lat="48.61791510020071" lon="3.372560843801461"><ele>157.0</ele><time>2026-05-01T15:52:01Z</time></trkpt><trkpt lat="48.61807943776721" lon="3.3727199393985154"><ele>157.0</ele><time>2026-05-01T15:52:02Z</time></trkpt><trkpt lat="48.618224556622906" lon="3.3728553602711258"><ele>157.0</ele><time>2026-05-01T15:52:03Z</time></trkpt><trkpt lat="48.61835323159921" lon="3.372973663422166"><ele>157.0</ele><time>2026-05-01T15:52:04Z</time></trkpt><trkpt lat="48.61848211698004" lon="3.373085602859913"><ele>157.0</ele><time>2026-05-01T15:52:05Z</time></trkpt><trkpt lat="48.61861303674801" lon="3.3732145724550464"><ele>156.33333333333334</ele><time>2026-05-01T15:52:06Z</time></trkpt><trkpt lat="48.61874826593975" lon="3.3733456152584265"><ele>155.66666666666666</ele><time>2026-05-01T15:52:07Z</time></trkpt><trkpt lat="48.61888870056545" lon="3.373469259374323"><ele>155.0</ele><time>2026-05-01T15:52:08Z</time></trkpt><trkpt lat="48.61902852442704" lon="3.373615287615107"><ele>155.0</ele><time>2026-05-01T15:52:09Z</time></trkpt><trkpt lat="48.61917879224928" lon="3.373762849573951"><ele>155.0</ele><time>2026-05-01T15:52:10Z</time></trkpt><trkpt lat="48.619333508820986" lon="3.373924850128933"><ele>155.0</ele><time>2026-05-01T15:52:11Z</time></trkpt><trkpt lat="48.61948533493388" lon="3.3740818160948582"><ele>154.66666666666666</ele><time>2026-05-01T15:52:12Z</time></trkpt><trkpt lat="48.6196426330875" lon="3.3742475823560785"><ele>154.33333333333334</ele><time>2026-05-01T15:52:13Z</time></trkpt><trkpt lat="48.61980954703858" lon="3.3744226948584632"><ele>154.0</ele><time>2026-05-01T15:52:14Z</time></trkpt><trkpt lat="48.619975040647155" lon="3.374596641521371"><ele>153.66666666666669</ele><time>2026-05-01T15:52:15Z</time></trkpt><trkpt lat="48.62013586558736" lon="3.374763436977327"><ele>153.33333333333334</ele><time>2026-05-01T15:52:16Z</time></trkpt><trkpt lat="48.620260474141716" lon="3.374885789491667"><ele>153.0</ele><time>2026-05-01T15:52:17Z</time></trkpt><trkpt lat="48.62035899573209" lon="3.3749913249695256"><ele>153.0</ele><time>2026-05-01T15:52:18Z</time></trkpt><trkpt lat="48.62044121445941" lon="3.375071479222315"><ele>153.0</ele><time>2026-05-01T15:52:19Z</time></trkpt><trkpt lat="48.62049651069489" lon="3.3751319218714184"><ele>153.0</ele><time>2026-05-01T15:52:20Z</time></trkpt><trkpt lat="48.62051404929593" lon="3.3752262613745954"><ele>153.0</ele><time>2026-05-01T15:53:04Z</time></trkpt><trkpt lat="48.62045490474231" lon="3.375190317986526"><ele>153.0</ele><time>2026-05-01T15:53:06Z</time></trkpt><trkpt lat="48.62041914516873" lon="3.375022931207836"><ele>153.0</ele><time>2026-05-01T15:53:08Z</time></trkpt><trkpt lat="48.62033881247456" lon="3.3749533100094284"><ele>152.75</ele><time>2026-05-01T15:53:09Z</time></trkpt><trkpt lat="48.62025750514448" lon="3.374878445056861"><ele>152.5</ele><time>2026-05-01T15:53:10Z</time></trkpt><trkpt lat="48.62015908514424" lon="3.3747854293394823"><ele>152.25</ele><time>2026-05-01T15:53:11Z</time></trkpt><trkpt lat="48.62005256581126" lon="3.3746746932759657"><ele>152.0</ele><time>2026-05-01T15:53:12Z</time></trkpt><trkpt lat="48.61993999995856" lon="3.3745541810345556"><ele>152.66666666666666</ele><time>2026-05-01T15:53:13Z</time></trkpt><trkpt lat="48.619811036001" lon="3.374427290394966"><ele>153.33333333333334</ele><time>2026-05-01T15:53:14Z</time></trkpt><trkpt lat="48.6196804606812" lon="3.3742941838706564"><ele>154.0</ele><time>2026-05-01T15:53:15Z</time></trkpt><trkpt lat="48.61954254583105" lon="3.374158874482354"><ele>154.0</ele><time>2026-05-01T15:53:16Z</time></trkpt><trkpt lat="48.61940578475887" lon="3.3740099830544565"><ele>154.0</ele><time>2026-05-01T15:53:17Z</time></trkpt><trkpt lat="48.61926760300012" lon="3.3738529297083715"><ele>154.0</ele><time>2026-05-01T15:53:18Z</time></trkpt><trkpt lat="48.61913103139118" lon="3.3737060848647475"><ele>154.25</ele><time>2026-05-01T15:53:19Z</time></trkpt><trkpt lat="48.61901887469217" lon="3.37358502427852"><ele>154.5</ele><time>2026-05-01T15:53:20Z</time></trkpt><trkpt lat="48.61891669454853" lon="3.373475672963465"><ele>154.75</ele><time>2026-05-01T15:53:21Z</time></trkpt><trkpt lat="48.61882896927861" lon="3.3733672271981403"><ele>155.0</ele><time>2026-05-01T15:53:22Z</time></trkpt><trkpt lat="48.61875154651471" lon="3.373245136575676"><ele>155.0</ele><time>2026-05-01T15:53:23Z</time></trkpt><trkpt lat="48.61868930752856" lon="3.373117156402472"><ele>155.0</ele><time>2026-05-01T15:53:24Z</time></trkpt><trkpt lat="48.618634142342756" lon="3.37298078299015"><ele>155.0</ele><time>2026-05-01T15:53:25Z</time></trkpt><trkpt lat="48.61857599339825" lon="3.3728279752753436"><ele>155.0</ele><time>2026-05-01T15:53:26Z</time></trkpt><trkpt lat="48.61852015675573" lon="3.3726559292803246"><ele>155.5</ele><time>2026-05-01T15:53:27Z</time></trkpt><trkpt lat="48.61847756227299" lon="3.3725049433174688"><ele>156.0</ele><time>2026-05-01T15:53:28Z</time></trkpt><trkpt lat="48.61842717017877" lon="3.3723620810971826"><ele>156.5</ele><time>2026-05-01T15:53:29Z</time></trkpt><trkpt lat="48.61836829988496" lon="3.3721772755934154"><ele>157.0</ele><time>2026-05-01T15:53:30Z</time></trkpt><trkpt lat="48.61831100320258" lon="3.3719858955230357"><ele>157.0</ele><time>2026-05-01T15:53:31Z</time></trkpt><trkpt lat="48.61825369433502" lon="3.3717857609584363"><ele>157.0</ele><time>2026-05-01T15:53:32Z</time></trkpt><trkpt lat="48.61818745023661" lon="3.371585583758713"><ele>157.0</ele><time>2026-05-01T15:53:33Z</time></trkpt><trkpt lat="48.61812673853051" lon="3.371364151916875"><ele>157.0</ele><time>2026-05-01T15:53:34Z</time></trkpt><trkpt lat="48.61805354316601" lon="3.3711467035030163"><ele>157.0</ele><time>2026-05-01T15:53:35Z</time></trkpt><trkpt lat="48.61798466457434" lon="3.3709319563876816"><ele>157.0</ele><time>2026-05-01T15:53:36Z</time></trkpt><trkpt lat="48.617917359366" lon="3.3707096914202586"><ele>157.33333333333334</ele><time>2026-05-01T15:53:37Z</time></trkpt><trkpt lat="48.61784818206737" lon="3.3704758591511776"><ele>157.66666666666666</ele><time>2026-05-01T15:53:38Z</time></trkpt><trkpt lat="48.617773855014576" lon="3.3702377573353433"><ele>158.0</ele><time>2026-05-01T15:53:39Z</time></trkpt><trkpt lat="48.61769926613541" lon="3.3699985097148972"><ele>158.0</ele><time>2026-05-01T15:53:40Z</time></trkpt><trkpt lat="48.617622534637114" lon="3.3697525481975203"><ele>158.0</ele><time>2026-05-01T15:53:41Z</time></trkpt><trkpt lat="48.617550351793" lon="3.369489597761281"><ele>158.0</ele><time>2026-05-01T15:53:42Z</time></trkpt><trkpt lat="48.61747981242207" lon="3.3692362064160433"><ele>158.0</ele><time>2026-05-01T15:53:43Z</time></trkpt><trkpt lat="48.61741417934794" lon="3.369136676658763"><ele>158.0</ele><time>2026-05-01T15:53:44Z</time></trkpt><trkpt lat="48.617357274060176" lon="3.3689671337829146"><ele>158.0</ele><time>2026-05-01T15:53:45Z</time></trkpt><trkpt lat="48.61729015609871" lon="3.3687958298955616"><ele>158.0</ele><time>2026-05-01T15:53:46Z</time></trkpt><trkpt lat="48.61719631964053" lon="3.3686310960393495"><ele>158.0</ele><time>2026-05-01T15:53:47Z</time></trkpt><trkpt lat="48.6170894291307" lon="3.3684579408926463"><ele>158.0</ele><time>2026-05-01T15:53:48Z</time></trkpt><trkpt lat="48.616971928774" lon="3.368289139994615"><ele>158.0</ele><time>2026-05-01T15:53:49Z</time></trkpt><trkpt lat="48.61685485467116" lon="3.3681112046316652"><ele>158.33333333333331</ele><time>2026-05-01T15:53:50Z</time></trkpt><trkpt lat="48.61673612507841" lon="3.3679368266298044"><ele>158.66666666666666</ele><time>2026-05-01T15:53:51Z</time></trkpt><trkpt lat="48.61661185394345" lon="3.3677632169679756"><ele>159.0</ele><time>2026-05-01T15:53:52Z</time></trkpt><trkpt lat="48.61649205959617" lon="3.3675705282696717"><ele>159.0</ele><time>2026-05-01T15:53:53Z</time></trkpt><trkpt lat="48.61637483879805" lon="3.367376155951014"><ele>159.0</ele><time>2026-05-01T15:53:54Z</time></trkpt><trkpt lat="48.61625369270312" lon="3.367176164204435"><ele>159.0</ele><time>2026-05-01T15:53:55Z</time></trkpt><trkpt lat="48.61613117947371" lon="3.3669811790798425"><ele>159.66666666666666</ele><time>2026-05-01T15:53:56Z</time></trkpt><trkpt lat="48.61601274317267" lon="3.366777072977542"><ele>160.33333333333331</ele><time>2026-05-01T15:53:57Z</time></trkpt><trkpt lat="48.615896795118964" lon="3.36656655968409"><ele>161.0</ele><time>2026-05-01T15:53:58Z</time></trkpt><trkpt lat="48.615771104892914" lon="3.366360231585067"><ele>161.33333333333331</ele><time>2026-05-01T15:53:59Z</time></trkpt><trkpt lat="48.61563336674091" lon="3.366164052088992"><ele>161.66666666666666</ele><time>2026-05-01T15:54:00Z</time></trkpt><trkpt lat="48.61550303260023" lon="3.365947493111676"><ele>162.0</ele><time>2026-05-01T15:54:01Z</time></trkpt><trkpt lat="48.61537145175113" lon="3.365731469896644"><ele>162.33333333333334</ele><time>2026-05-01T15:54:02Z</time></trkpt><trkpt lat="48.61523981386453" lon="3.3655131068654662"><ele>162.66666666666669</ele><time>2026-05-01T15:54:03Z</time></trkpt><trkpt lat="48.615100917211606" lon="3.3652984829472175"><ele>163.0</ele><time>2026-05-01T15:54:04Z</time></trkpt><trkpt lat="48.61498397023347" lon="3.3651031898434565"><ele>163.0</ele><time>2026-05-01T15:54:05Z</time></trkpt><trkpt lat="48.61487941609618" lon="3.364939581550065"><ele>163.0</ele><time>2026-05-01T15:54:06Z</time></trkpt><trkpt lat="48.614791028472354" lon="3.3648069839192662"><ele>163.0</ele><time>2026-05-01T15:54:07Z</time></trkpt><trkpt lat="48.6147208806575" lon="3.3646967889141477"><ele>163.0</ele><time>2026-05-01T15:54:08Z</time></trkpt><trkpt lat="48.6146663028323" lon="3.3646114334729313"><ele>163.4</ele><time>2026-05-01T15:54:09Z</time></trkpt><trkpt lat="48.614612150712254" lon="3.364501859946605"><ele>163.8</ele><time>2026-05-01T15:54:11Z</time></trkpt><trkpt lat="48.61470275777186" lon="3.364411033770919"><ele>164.2</ele><time>2026-05-01T15:54:13Z</time></trkpt><trkpt lat="48.61479320183596" lon="3.364397073929417"><ele>164.6</ele><time>2026-05-01T15:54:14Z</time></trkpt><trkpt lat="48.614902930931244" lon="3.364334857586103"><ele>165.0</ele><time>2026-05-01T15:54:15Z</time></trkpt><trkpt lat="48.61502190051535" lon="3.3642826946764735"><ele>165.0</ele><time>2026-05-01T15:54:16Z</time></trkpt><trkpt lat="48.61515205988129" lon="3.3641983547943006"><ele>165.0</ele><time>2026-05-01T15:54:17Z</time></trkpt><trkpt lat="48.61529381558488" lon="3.364117351230056"><ele>165.0</ele><time>2026-05-01T15:54:18Z</time></trkpt><trkpt lat="48.61544362990484" lon="3.364028091642258"><ele>164.33333333333334</ele><time>2026-05-01T15:54:19Z</time></trkpt><trkpt lat="48.61559804079009" lon="3.363925186707535"><ele>163.66666666666669</ele><time>2026-05-01T15:54:20Z</time></trkpt><trkpt lat="48.61576578781495" lon="3.363829184525626"><ele>163.0</ele><time>2026-05-01T15:54:21Z</time></trkpt><trkpt lat="48.61593358100677" lon="3.3637194586212"><ele>163.0</ele><time>2026-05-01T15:54:22Z</time></trkpt><trkpt lat="48.61612115544864" lon="3.363618910355048"><ele>163.0</ele><time>2026-05-01T15:54:23Z</time></trkpt><trkpt lat="48.61629608796863" lon="3.363506792648469"><ele>163.0</ele><time>2026-05-01T15:54:24Z</time></trkpt><trkpt lat="48.6164701549342" lon="3.3633972841704227"><ele>163.0</ele><time>2026-05-01T15:54:25Z</time></trkpt><trkpt lat="48.61664103425658" lon="3.36328134413209"><ele>163.0</ele><time>2026-05-01T15:54:26Z</time></trkpt><trkpt lat="48.61682094999142" lon="3.363177605931742"><ele>163.0</ele><time>2026-05-01T15:54:27Z</time></trkpt><trkpt lat="48.61700110545694" lon="3.3630830139865955"><ele>162.75</ele><time>2026-05-01T15:54:28Z</time></trkpt><trkpt lat="48.61714909198687" lon="3.362997275111133"><ele>162.5</ele><time>2026-05-01T15:54:29Z</time></trkpt><trkpt lat="48.61727722263942" lon="3.3629272903681584"><ele>162.25</ele><time>2026-05-01T15:54:30Z</time></trkpt><trkpt lat="48.61739095506977" lon="3.362859939165743"><ele>162.0</ele><time>2026-05-01T15:54:31Z</time></trkpt><trkpt lat="48.61747871423294" lon="3.36276877593189"><ele>162.0</ele><time>2026-05-01T15:54:32Z</time></trkpt><trkpt lat="48.61756812906" lon="3.3626445968171716"><ele>162.0</ele><time>2026-05-01T15:54:33Z</time></trkpt><trkpt lat="48.61766078252124" lon="3.3624822808228862"><ele>162.0</ele><time>2026-05-01T15:54:34Z</time></trkpt><trkpt lat="48.61772232539308" lon="3.3623027547639244"><ele>162.0</ele><time>2026-05-01T15:54:35Z</time></trkpt><trkpt lat="48.61779658083867" lon="3.362130746833344"><ele>161.6</ele><time>2026-05-01T15:54:36Z</time></trkpt><trkpt lat="48.617857751545" lon="3.3619882657028994"><ele>161.2</ele><time>2026-05-01T15:54:37Z</time></trkpt><trkpt lat="48.61791056237743" lon="3.361860768359486"><ele>160.8</ele><time>2026-05-01T15:54:38Z</time></trkpt><trkpt lat="48.61795889444146" lon="3.361720274291385"><ele>160.4</ele><time>2026-05-01T15:54:39Z</time></trkpt><trkpt lat="48.6179954819415" lon="3.361578710336351"><ele>160.0</ele><time>2026-05-01T15:54:40Z</time></trkpt><trkpt lat="48.618038514466384" lon="3.3614559774301074"><ele>159.8</ele><time>2026-05-01T15:54:41Z</time></trkpt><trkpt lat="48.61807975389749" lon="3.361334295719383"><ele>159.6</ele><time>2026-05-01T15:54:42Z</time></trkpt><trkpt lat="48.61812265747623" lon="3.3612081875989226"><ele>159.4</ele><time>2026-05-01T15:54:43Z</time></trkpt><trkpt lat="48.618172816483934" lon="3.3610772829216797"><ele>159.2</ele><time>2026-05-01T15:54:44Z</time></trkpt><trkpt lat="48.61825086063953" lon="3.3609613109944227"><ele>159.0</ele><time>2026-05-01T15:54:45Z</time></trkpt><trkpt lat="48.618342182450455" lon="3.360828915304694"><ele>159.0</ele><time>2026-05-01T15:54:46Z</time></trkpt><trkpt lat="48.61844218244182" lon="3.360693370934233"><ele>159.0</ele><time>2026-05-01T15:54:47Z</time></trkpt><trkpt lat="48.61854936347688" lon="3.3605424972859708"><ele>159.0</ele><time>2026-05-01T15:54:48Z</time></trkpt><trkpt lat="48.61865939753691" lon="3.3603776852460228"><ele>159.0</ele><time>2026-05-01T15:54:49Z</time></trkpt><trkpt lat="48.6187833673705" lon="3.3602126743752367"><ele>158.66666666666666</ele><time>2026-05-01T15:54:50Z</time></trkpt><trkpt lat="48.61890888312321" lon="3.3600345735232002"><ele>158.33333333333331</ele><time>2026-05-01T15:54:51Z</time></trkpt><trkpt lat="48.619047758277" lon="3.3598498919955406"><ele>158.0</ele><time>2026-05-01T15:54:52Z</time></trkpt><trkpt lat="48.61917445096458" lon="3.3596457435501477"><ele>158.0</ele><time>2026-05-01T15:54:53Z</time></trkpt><trkpt lat="48.61930349051025" lon="3.3594539332085898"><ele>158.0</ele><time>2026-05-01T15:54:54Z</time></trkpt><trkpt lat="48.61942488602741" lon="3.3592483611965887"><ele>158.0</ele><time>2026-05-01T15:54:55Z</time></trkpt><trkpt lat="48.61955943827049" lon="3.359043995167651"><ele>158.66666666666666</ele><time>2026-05-01T15:54:56Z</time></trkpt><trkpt lat="48.6196915672195" lon="3.3588488390150375"><ele>159.33333333333334</ele><time>2026-05-01T15:54:57Z</time></trkpt><trkpt lat="48.61981572545002" lon="3.3586401847067995"><ele>160.0</ele><time>2026-05-01T15:54:58Z</time></trkpt><trkpt lat="48.619937088332065" lon="3.3584406417452084"><ele>160.0</ele><time>2026-05-01T15:54:59Z</time></trkpt><trkpt lat="48.620063792904354" lon="3.3582561961592075"><ele>160.0</ele><time>2026-05-01T15:55:00Z</time></trkpt><trkpt lat="48.6201708903326" lon="3.358076610110635"><ele>160.0</ele><time>2026-05-01T15:55:01Z</time></trkpt><trkpt lat="48.62026205130475" lon="3.357950794914485"><ele>160.0</ele><time>2026-05-01T15:55:02Z</time></trkpt><trkpt lat="48.620330079288735" lon="3.3578480153738393"><ele>160.0</ele><time>2026-05-01T15:55:03Z</time></trkpt><trkpt lat="48.620372654139246" lon="3.357749838120995"><ele>160.0</ele><time>2026-05-01T15:55:04Z</time></trkpt><trkpt lat="48.620435593981654" lon="3.357627979860945"><ele>160.0</ele><time>2026-05-01T15:55:06Z</time></trkpt><trkpt lat="48.620499763885505" lon="3.357637405996093"><ele>160.0</ele><time>2026-05-01T15:55:42Z</time></trkpt><trkpt lat="48.62057416860777" lon="3.357694998929435"><ele>160.0</ele><time>2026-05-01T15:55:43Z</time></trkpt><trkpt lat="48.62066692164182" lon="3.3578088380462447"><ele>160.0</ele><time>2026-05-01T15:55:44Z</time></trkpt><trkpt lat="48.620775812790306" lon="3.3578976735728903"><ele>160.0</ele><time>2026-05-01T15:55:45Z</time></trkpt><trkpt lat="48.62089308546628" lon="3.3579933469127337"><ele>160.0</ele><time>2026-05-01T15:55:46Z</time></trkpt><trkpt lat="48.62103196248429" lon="3.3580798644655223"><ele>160.0</ele><time>2026-05-01T15:55:47Z</time></trkpt><trkpt lat="48.62117437740114" lon="3.3582055000441704"><ele>159.66666666666669</ele><time>2026-05-01T15:55:48Z</time></trkpt><trkpt lat="48.62133066604813" lon="3.358323668604115"><ele>159.33333333333334</ele><time>2026-05-01T15:55:49Z</time></trkpt><trkpt lat="48.62148957851254" lon="3.3584828824540867"><ele>159.0</ele><time>2026-05-01T15:55:50Z</time></trkpt><trkpt lat="48.6216542090155" lon="3.3586186097843056"><ele>159.0</ele><time>2026-05-01T15:55:51Z</time></trkpt><trkpt lat="48.62182082766331" lon="3.358754427729762"><ele>159.0</ele><time>2026-05-01T15:55:52Z</time></trkpt><trkpt lat="48.6219715885829" lon="3.358877008510967"><ele>159.0</ele><time>2026-05-01T15:55:53Z</time></trkpt><trkpt lat="48.62210657211829" lon="3.358986761006641"><ele>158.75</ele><time>2026-05-01T15:55:54Z</time></trkpt><trkpt lat="48.62223071207164" lon="3.359087696797328"><ele>158.5</ele><time>2026-05-01T15:55:55Z</time></trkpt><trkpt lat="48.62234855272715" lon="3.3591835107501686"><ele>158.25</ele><time>2026-05-01T15:55:56Z</time></trkpt><trkpt lat="48.622474324757" lon="3.359259292888074"><ele>158.0</ele><time>2026-05-01T15:55:57Z</time></trkpt><trkpt lat="48.62257951703867" lon="3.3593487125493455"><ele>158.0</ele><time>2026-05-01T15:55:58Z</time></trkpt><trkpt lat="48.62266299598695" lon="3.359418775735809"><ele>158.0</ele><time>2026-05-01T15:55:59Z</time></trkpt><trkpt lat="48.6227173882637" lon="3.35948340377703"><ele>158.0</ele><time>2026-05-01T15:56:05Z</time></trkpt><trkpt lat="48.62279436182061" lon="3.359522206671348"><ele>158.0</ele><time>2026-05-01T15:56:07Z</time></trkpt><trkpt lat="48.62289089524679" lon="3.359603659798658"><ele>158.0</ele><time>2026-05-01T15:56:09Z</time></trkpt><trkpt lat="48.62295494586522" lon="3.3596385043731822"><ele>158.0</ele><time>2026-05-01T15:56:10Z</time></trkpt><trkpt lat="48.623020839490586" lon="3.359669146172667"><ele>157.5</ele><time>2026-05-01T15:56:11Z</time></trkpt><trkpt lat="48.623261500135996" lon="3.359212767995039"><ele>157.0</ele><time>2026-05-01T15:56:12Z</time></trkpt><trkpt lat="48.62335082230101" lon="3.359179958407255"><ele>157.0</ele><time>2026-05-01T15:56:13Z</time></trkpt><trkpt lat="48.62343117287204" lon="3.359157908723399"><ele>157.0</ele><time>2026-05-01T15:56:14Z</time></trkpt><trkpt lat="48.62351874398307" lon="3.359078374841373"><ele>157.0</ele><time>2026-05-01T15:56:16Z</time></trkpt><trkpt lat="48.62349263734631" lon="3.3589230455696355"><ele>157.0</ele><time>2026-05-01T15:56:18Z</time></trkpt><trkpt lat="48.62348379708318" lon="3.358810310231349"><ele>157.0</ele><time>2026-05-01T15:56:19Z</time></trkpt><trkpt lat="48.62347552708488" lon="3.3586886445820023"><ele>157.0</ele><time>2026-05-01T15:56:20Z</time></trkpt><trkpt lat="48.623462674815535" lon="3.3585642063853696"><ele>157.0</ele><time>2026-05-01T15:56:21Z</time></trkpt><trkpt lat="48.62345432593592" lon="3.3584304501262903"><ele>157.0</ele><time>2026-05-01T15:56:22Z</time></trkpt><trkpt lat="48.623443180683516" lon="3.358291743659057"><ele>157.0</ele><time>2026-05-01T15:56:23Z</time></trkpt><trkpt lat="48.623428356566215" lon="3.3581456327905514"><ele>157.0</ele><time>2026-05-01T15:56:24Z</time></trkpt><trkpt lat="48.62341749708083" lon="3.357995700637228"><ele>157.0</ele><time>2026-05-01T15:56:25Z</time></trkpt><trkpt lat="48.62340732163396" lon="3.3578448251220125"><ele>157.0</ele><time>2026-05-01T15:56:26Z</time></trkpt><trkpt lat="48.623395194039915" lon="3.357690326785854"><ele>157.0</ele><time>2026-05-01T15:56:27Z</time></trkpt><trkpt lat="48.62338641955848" lon="3.3575271316499276"><ele>157.0</ele><time>2026-05-01T15:56:28Z</time></trkpt><trkpt lat="48.623368464708406" lon="3.3573604507107317"><ele>157.0</ele><time>2026-05-01T15:56:29Z</time></trkpt><trkpt lat="48.623355963977744" lon="3.3571876252194848"><ele>157.0</ele><time>2026-05-01T15:56:30Z</time></trkpt><trkpt lat="48.62334067202036" lon="3.3570072893668126"><ele>157.25</ele><time>2026-05-01T15:56:31Z</time></trkpt><trkpt lat="48.62332480248885" lon="3.3568232967381513"><ele>157.5</ele><time>2026-05-01T15:56:32Z</time></trkpt><trkpt lat="48.62331372139323" lon="3.3566308921954535"><ele>157.75</ele><time>2026-05-01T15:56:33Z</time></trkpt><trkpt lat="48.6233008517977" lon="3.356419993075201"><ele>158.0</ele><time>2026-05-01T15:56:34Z</time></trkpt><trkpt lat="48.62328368918095" lon="3.3561874347182807"><ele>158.0</ele><time>2026-05-01T15:56:35Z</time></trkpt><trkpt lat="48.62326496854004" lon="3.3559451498354473"><ele>158.0</ele><time>2026-05-01T15:56:36Z</time></trkpt><trkpt lat="48.623244384724316" lon="3.3556893094852978"><ele>158.0</ele><time>2026-05-01T15:56:37Z</time></trkpt><trkpt lat="48.62322340706814" lon="3.355426818798723"><ele>158.0</ele><time>2026-05-01T15:56:38Z</time></trkpt><trkpt lat="48.62320072188793" lon="3.355159438459569"><ele>158.0</ele><time>2026-05-01T15:56:39Z</time></trkpt><trkpt lat="48.62318077739457" lon="3.3548816101273586"><ele>158.0</ele><time>2026-05-01T15:56:40Z</time></trkpt><trkpt lat="48.62316274698758" lon="3.3546130109746573"><ele>158.33333333333331</ele><time>2026-05-01T15:56:41Z</time></trkpt><trkpt lat="48.62314265228422" lon="3.354292021368298"><ele>158.66666666666666</ele><time>2026-05-01T15:56:42Z</time></trkpt><trkpt lat="48.62312150687537" lon="3.3539893856153435"><ele>159.0</ele><time>2026-05-01T15:56:43Z</time></trkpt><trkpt lat="48.62310308138036" lon="3.3536867869510014"><ele>159.0</ele><time>2026-05-01T15:56:44Z</time></trkpt><trkpt lat="48.62308113954881" lon="3.353393230898046"><ele>159.0</ele><time>2026-05-01T15:56:45Z</time></trkpt><trkpt lat="48.623062820864426" lon="3.3531012996642713"><ele>159.0</ele><time>2026-05-01T15:56:46Z</time></trkpt><trkpt lat="48.62304109049528" lon="3.3528104911437504"><ele>159.0</ele><time>2026-05-01T15:56:47Z</time></trkpt><trkpt lat="48.62302215336982" lon="3.3525199598980104"><ele>159.0</ele><time>2026-05-01T15:56:48Z</time></trkpt><trkpt lat="48.62300206329477" lon="3.352228849785227"><ele>159.0</ele><time>2026-05-01T15:56:49Z</time></trkpt><trkpt lat="48.62298122991271" lon="3.3519448750032868"><ele>159.66666666666666</ele><time>2026-05-01T15:56:50Z</time></trkpt><trkpt lat="48.62296344515699" lon="3.3516621556998145"><ele>160.33333333333331</ele><time>2026-05-01T15:56:51Z</time></trkpt><trkpt lat="48.62294155719879" lon="3.351376500536355"><ele>161.0</ele><time>2026-05-01T15:56:52Z</time></trkpt><trkpt lat="48.6229226513995" lon="3.351092386722519"><ele>161.0</ele><time>2026-05-01T15:56:53Z</time></trkpt><trkpt lat="48.622902107830434" lon="3.3508059743265903"><ele>161.0</ele><time>2026-05-01T15:56:54Z</time></trkpt><trkpt lat="48.6228816675318" lon="3.3505201864682745"><ele>161.0</ele><time>2026-05-01T15:56:55Z</time></trkpt><trkpt lat="48.62284897707203" lon="3.3502309816632083"><ele>161.0</ele><time>2026-05-01T15:56:56Z</time></trkpt><trkpt lat="48.62283429875485" lon="3.3499434352128343"><ele>161.0</ele><time>2026-05-01T15:56:57Z</time></trkpt><trkpt lat="48.622813779157894" lon="3.349671923760161"><ele>161.0</ele><time>2026-05-01T15:56:58Z</time></trkpt><trkpt lat="48.62278814511013" lon="3.349406782469087"><ele>161.0</ele><time>2026-05-01T15:56:59Z</time></trkpt><trkpt lat="48.622766674854844" lon="3.34913592226952"><ele>161.0</ele><time>2026-05-01T15:57:00Z</time></trkpt><trkpt lat="48.62274437981835" lon="3.34885955991841"><ele>161.0</ele><time>2026-05-01T15:57:01Z</time></trkpt><trkpt lat="48.62272621477198" lon="3.348576295067863"><ele>161.0</ele><time>2026-05-01T15:57:02Z</time></trkpt><trkpt lat="48.622711610278174" lon="3.348337862231061"><ele>161.0</ele><time>2026-05-01T15:57:03Z</time></trkpt><trkpt lat="48.62268489809621" lon="3.3481677543418367"><ele>161.0</ele><time>2026-05-01T15:57:04Z</time></trkpt><trkpt lat="48.62267407820323" lon="3.34799714328538"><ele>161.0</ele><time>2026-05-01T15:57:05Z</time></trkpt><trkpt lat="48.62267458869519" lon="3.3478692803454515"><ele>161.0</ele><time>2026-05-01T15:57:06Z</time></trkpt><trkpt lat="48.622684119790506" lon="3.347774531189313"><ele>161.0</ele><time>2026-05-01T15:57:07Z</time></trkpt><trkpt lat="48.62273085619182" lon="3.3476938229846875"><ele>161.0</ele><time>2026-05-01T15:57:08Z</time></trkpt><trkpt lat="48.622807894655324" lon="3.347607595810337"><ele>161.0</ele><time>2026-05-01T15:57:09Z</time></trkpt><trkpt lat="48.62289897089212" lon="3.3475226725985543"><ele>161.0</ele><time>2026-05-01T15:57:10Z</time></trkpt><trkpt lat="48.62299913814684" lon="3.3474043906328363"><ele>161.5</ele><time>2026-05-01T15:57:11Z</time></trkpt><trkpt lat="48.62310448973957" lon="3.3472778726422714"><ele>162.0</ele><time>2026-05-01T15:57:12Z</time></trkpt><trkpt lat="48.62320641552331" lon="3.3471294116318764"><ele>162.5</ele><time>2026-05-01T15:57:13Z</time></trkpt><trkpt lat="48.62331620443961" lon="3.3469684197910734"><ele>163.0</ele><time>2026-05-01T15:57:14Z</time></trkpt><trkpt lat="48.62343155063688" lon="3.346809619510519"><ele>163.33333333333334</ele><time>2026-05-01T15:57:15Z</time></trkpt><trkpt lat="48.623558442196135" lon="3.34665602903585"><ele>163.66666666666666</ele><time>2026-05-01T15:57:16Z</time></trkpt><trkpt lat="48.62368036833122" lon="3.3464839827424564"><ele>164.0</ele><time>2026-05-01T15:57:17Z</time></trkpt><trkpt lat="48.62379090090602" lon="3.346340851983413"><ele>164.16666666666666</ele><time>2026-05-01T15:57:18Z</time></trkpt><trkpt lat="48.62387228594208" lon="3.3462400353221473"><ele>164.33333333333331</ele><time>2026-05-01T15:57:19Z</time></trkpt><trkpt lat="48.62391876058009" lon="3.3461556810539035"><ele>164.5</ele><time>2026-05-01T15:57:20Z</time></trkpt><trkpt lat="48.62398619803905" lon="3.3461224002688352"><ele>164.66666666666666</ele><time>2026-05-01T15:57:22Z</time></trkpt><trkpt lat="48.62401943941312" lon="3.3462072280819197"><ele>164.83333333333334</ele><time>2026-05-01T15:57:23Z</time></trkpt><trkpt lat="48.62404170479086" lon="3.346324963386834"><ele>165.0</ele><time>2026-05-01T15:57:24Z</time></trkpt><trkpt lat="48.624083250128045" lon="3.3464430754968806"><ele>165.0</ele><time>2026-05-01T15:57:25Z</time></trkpt><trkpt lat="48.624144861358225" lon="3.346558427851473"><ele>165.0</ele><time>2026-05-01T15:57:26Z</time></trkpt><trkpt lat="48.62420979221231" lon="3.3467139010305575"><ele>165.0</ele><time>2026-05-01T15:57:27Z</time></trkpt><trkpt lat="48.62428023984074" lon="3.346887039964456"><ele>165.0</ele><time>2026-05-01T15:57:28Z</time></trkpt><trkpt lat="48.6243536619988" lon="3.3470687058912962"><ele>165.0</ele><time>2026-05-01T15:57:29Z</time></trkpt><trkpt lat="48.62443222051927" lon="3.3472536703730853"><ele>165.0</ele><time>2026-05-01T15:57:30Z</time></trkpt><trkpt lat="48.624510579686174" lon="3.347441185223896"><ele>165.0</ele><time>2026-05-01T15:57:31Z</time></trkpt><trkpt lat="48.62459074115605" lon="3.347647628940418"><ele>165.0</ele><time>2026-05-01T15:57:32Z</time></trkpt><trkpt lat="48.624675254441314" lon="3.347854759305291"><ele>165.0</ele><time>2026-05-01T15:57:33Z</time></trkpt><trkpt lat="48.624770205198544" lon="3.348056209201529"><ele>165.0</ele><time>2026-05-01T15:57:34Z</time></trkpt><trkpt lat="48.624865978032155" lon="3.348270600821274"><ele>165.0</ele><time>2026-05-01T15:57:35Z</time></trkpt><trkpt lat="48.62495658255283" lon="3.3484845198942113"><ele>165.0</ele><time>2026-05-01T15:57:36Z</time></trkpt><trkpt lat="48.62504975434415" lon="3.3487075095130128"><ele>165.0</ele><time>2026-05-01T15:57:37Z</time></trkpt><trkpt lat="48.62514471117102" lon="3.3489260720668916"><ele>164.66666666666666</ele><time>2026-05-01T15:57:38Z</time></trkpt><trkpt lat="48.6252589088606" lon="3.3491295266356347"><ele>164.33333333333331</ele><time>2026-05-01T15:57:39Z</time></trkpt><trkpt lat="48.625377650573874" lon="3.349336285661325"><ele>164.0</ele><time>2026-05-01T15:57:40Z</time></trkpt><trkpt lat="48.6255007925405" lon="3.3495373488815887"><ele>164.0</ele><time>2026-05-01T15:57:41Z</time></trkpt><trkpt lat="48.62563328682663" lon="3.349742855081607"><ele>164.0</ele><time>2026-05-01T15:57:42Z</time></trkpt><trkpt lat="48.625764580976735" lon="3.349946065609427"><ele>164.0</ele><time>2026-05-01T15:57:43Z</time></trkpt><trkpt lat="48.62590105385513" lon="3.350135981561143"><ele>164.0</ele><time>2026-05-01T15:57:44Z</time></trkpt><trkpt lat="48.62604206221865" lon="3.3502964804323327"><ele>164.0</ele><time>2026-05-01T15:57:45Z</time></trkpt><trkpt lat="48.6261857045908" lon="3.3504928674769894"><ele>164.0</ele><time>2026-05-01T15:57:46Z</time></trkpt><trkpt lat="48.626321192227316" lon="3.3506951062679424"><ele>163.0</ele><time>2026-05-01T15:57:47Z</time></trkpt><trkpt lat="48.62646465805028" lon="3.3508937225340283"><ele>162.0</ele><time>2026-05-01T15:57:48Z</time></trkpt><trkpt lat="48.626585093242575" lon="3.351087231114067"><ele>161.0</ele><time>2026-05-01T15:57:49Z</time></trkpt><trkpt lat="48.62672263217839" lon="3.35124637334371"><ele>161.0</ele><time>2026-05-01T15:57:50Z</time></trkpt><trkpt lat="48.62688095910564" lon="3.35138207451006"><ele>161.0</ele><time>2026-05-01T15:57:51Z</time></trkpt><trkpt lat="48.62701300433117" lon="3.3515337771370795"><ele>161.0</ele><time>2026-05-01T15:57:52Z</time></trkpt><trkpt lat="48.627123315284614" lon="3.3516618374647242"><ele>160.8</ele><time>2026-05-01T15:57:53Z</time></trkpt><trkpt lat="48.627220744737905" lon="3.351760116590609"><ele>160.60000000000002</ele><time>2026-05-01T15:57:54Z</time></trkpt><trkpt lat="48.62730793584453" lon="3.3518462009488013"><ele>160.4</ele><time>2026-05-01T15:57:55Z</time></trkpt><trkpt lat="48.62738478919383" lon="3.3519476407401316"><ele>160.2</ele><time>2026-05-01T15:57:56Z</time></trkpt><trkpt lat="48.627478040477605" lon="3.35203275592837"><ele>160.0</ele><time>2026-05-01T15:57:57Z</time></trkpt><trkpt lat="48.627549218659944" lon="3.3521129704478594"><ele>160.0</ele><time>2026-05-01T15:57:58Z</time></trkpt><trkpt lat="48.62760692811055" lon="3.3521751835475744"><ele>160.0</ele><time>2026-05-01T15:57:59Z</time></trkpt><trkpt lat="48.62766369012032" lon="3.352229510342282"><ele>160.0</ele><time>2026-05-01T15:58:00Z</time></trkpt><trkpt lat="48.6277265536553" lon="3.352281599938196"><ele>160.0</ele><time>2026-05-01T15:58:01Z</time></trkpt><trkpt lat="48.627794560840115" lon="3.352337780272794"><ele>160.0</ele><time>2026-05-01T15:58:02Z</time></trkpt><trkpt lat="48.62786910699767" lon="3.3523964834294646"><ele>160.0</ele><time>2026-05-01T15:58:03Z</time></trkpt><trkpt lat="48.62795159180017" lon="3.352442697095465"><ele>159.6</ele><time>2026-05-01T15:58:04Z</time></trkpt><trkpt lat="48.62803717841708" lon="3.3524949473526697"><ele>159.2</ele><time>2026-05-01T15:58:05Z</time></trkpt><trkpt lat="48.628126470256575" lon="3.3525303221078726"><ele>158.8</ele><time>2026-05-01T15:58:06Z</time></trkpt><trkpt lat="48.62821597595433" lon="3.3525806761626105"><ele>158.4</ele><time>2026-05-01T15:58:07Z</time></trkpt><trkpt lat="48.628310379943244" lon="3.352636724649222"><ele>158.0</ele><time>2026-05-01T15:58:08Z</time></trkpt><trkpt lat="48.62840238486077" lon="3.3527043029787458"><ele>158.0</ele><time>2026-05-01T15:58:09Z</time></trkpt><trkpt lat="48.628493641007594" lon="3.3527648715250757"><ele>158.0</ele><time>2026-05-01T15:58:10Z</time></trkpt><trkpt lat="48.62857245899677" lon="3.352806918079174"><ele>158.0</ele><time>2026-05-01T15:58:11Z</time></trkpt><trkpt lat="48.62863251130318" lon="3.3528360145915648"><ele>158.0</ele><time>2026-05-01T15:58:12Z</time></trkpt><trkpt lat="48.628722428615234" lon="3.35287749480709"><ele>158.0</ele><time>2026-05-01T15:58:20Z</time></trkpt><trkpt lat="48.62878669015212" lon="3.3529116372348287"><ele>158.0</ele><time>2026-05-01T15:58:21Z</time></trkpt><trkpt lat="48.628851540333336" lon="3.352945396197858"><ele>158.0</ele><time>2026-05-01T15:58:22Z</time></trkpt><trkpt lat="48.62892066496757" lon="3.3529788080478826"><ele>158.0</ele><time>2026-05-01T15:58:23Z</time></trkpt><trkpt lat="48.628994362908756" lon="3.3530105963958547"><ele>158.0</ele><time>2026-05-01T15:58:24Z</time></trkpt><trkpt lat="48.629071812133816" lon="3.353043127657366"><ele>158.0</ele><time>2026-05-01T15:58:25Z</time></trkpt><trkpt lat="48.62915571508479" lon="3.3530642473515155"><ele>158.0</ele><time>2026-05-01T15:58:26Z</time></trkpt><trkpt lat="48.629240444414975" lon="3.3530949848105727"><ele>158.0</ele><time>2026-05-01T15:58:27Z</time></trkpt><trkpt lat="48.629325023919485" lon="3.3531246262985746"><ele>158.16666666666666</ele><time>2026-05-01T15:58:28Z</time></trkpt><trkpt lat="48.62941268266141" lon="3.3531513455574"><ele>158.33333333333331</ele><time>2026-05-01T15:58:29Z</time></trkpt><trkpt lat="48.629496730512514" lon="3.3531597564286835"><ele>158.5</ele><time>2026-05-01T15:58:30Z</time></trkpt><trkpt lat="48.62956787610528" lon="3.3531657502914305"><ele>158.66666666666666</ele><time>2026-05-01T15:58:31Z</time></trkpt><trkpt lat="48.62966096168255" lon="3.3531872914081995"><ele>158.83333333333334</ele><time>2026-05-01T15:58:33Z</time></trkpt><trkpt lat="48.62956579101767" lon="3.3531415690656994"><ele>159.0</ele><time>2026-05-01T15:58:52Z</time></trkpt><trkpt lat="48.62944824752262" lon="3.3531357989263286"><ele>159.0</ele><time>2026-05-01T15:58:54Z</time></trkpt><trkpt lat="48.62937879381676" lon="3.3531237278782"><ele>159.0</ele><time>2026-05-01T15:58:55Z</time></trkpt><trkpt lat="48.62930087662664" lon="3.353101284908843"><ele>159.0</ele><time>2026-05-01T15:58:56Z</time></trkpt><trkpt lat="48.629210662549895" lon="3.3530827816071627"><ele>159.0</ele><time>2026-05-01T15:58:57Z</time></trkpt><trkpt lat="48.62911690501637" lon="3.3530699696895874"><ele>159.0</ele><time>2026-05-01T15:58:58Z</time></trkpt><trkpt lat="48.62901980415958" lon="3.353040143610253"><ele>159.0</ele><time>2026-05-01T15:58:59Z</time></trkpt><trkpt lat="48.62891442776812" lon="3.3530006289681276"><ele>158.75</ele><time>2026-05-01T15:59:00Z</time></trkpt><trkpt lat="48.62880933997544" lon="3.352942146329608"><ele>158.5</ele><time>2026-05-01T15:59:01Z</time></trkpt><trkpt lat="48.62869680280232" lon="3.3528695809500584"><ele>158.25</ele><time>2026-05-01T15:59:02Z</time></trkpt><trkpt lat="48.62858285023686" lon="3.3528177975656956"><ele>158.0</ele><time>2026-05-01T15:59:03Z</time></trkpt><trkpt lat="48.62846834162055" lon="3.3527564206421414"><ele>158.0</ele><time>2026-05-01T15:59:04Z</time></trkpt><trkpt lat="48.628350708509295" lon="3.352698779528367"><ele>158.0</ele><time>2026-05-01T15:59:05Z</time></trkpt><trkpt lat="48.62822950542759" lon="3.352629395649008"><ele>158.0</ele><time>2026-05-01T15:59:06Z</time></trkpt><trkpt lat="48.628115245800785" lon="3.352559995940665"><ele>158.0</ele><time>2026-05-01T15:59:07Z</time></trkpt><trkpt lat="48.62799483823128" lon="3.352484534335661"><ele>158.0</ele><time>2026-05-01T15:59:08Z</time></trkpt><trkpt lat="48.62786951505329" lon="3.3524180410549134"><ele>158.0</ele><time>2026-05-01T15:59:09Z</time></trkpt><trkpt lat="48.62775352601786" lon="3.352335662326201"><ele>158.0</ele><time>2026-05-01T15:59:10Z</time></trkpt><trkpt lat="48.62764069620037" lon="3.352242428146511"><ele>158.0</ele><time>2026-05-01T15:59:11Z</time></trkpt><trkpt lat="48.627530730526864" lon="3.352125345341047"><ele>158.5</ele><time>2026-05-01T15:59:12Z</time></trkpt><trkpt lat="48.62742013533171" lon="3.3520071441248978"><ele>159.0</ele><time>2026-05-01T15:59:13Z</time></trkpt><trkpt lat="48.62730433119474" lon="3.351881964071979"><ele>159.5</ele><time>2026-05-01T15:59:14Z</time></trkpt><trkpt lat="48.62719062421591" lon="3.3517633834296987"><ele>160.0</ele><time>2026-05-01T15:59:15Z</time></trkpt><trkpt lat="48.62708392525832" lon="3.3516435854913706"><ele>160.33333333333334</ele><time>2026-05-01T15:59:16Z</time></trkpt><trkpt lat="48.62696090937534" lon="3.351508110299587"><ele>160.66666666666666</ele><time>2026-05-01T15:59:17Z</time></trkpt><trkpt lat="48.626836607824636" lon="3.3513734373832187"><ele>161.0</ele><time>2026-05-01T15:59:18Z</time></trkpt><trkpt lat="48.62672441285019" lon="3.351227925892726"><ele>161.0</ele><time>2026-05-01T15:59:19Z</time></trkpt><trkpt lat="48.62659890237497" lon="3.35108393500489"><ele>161.0</ele><time>2026-05-01T15:59:20Z</time></trkpt><trkpt lat="48.62647424494262" lon="3.3509334367031696"><ele>161.0</ele><time>2026-05-01T15:59:21Z</time></trkpt><trkpt lat="48.626349875575606" lon="3.3507715093428208"><ele>161.0</ele><time>2026-05-01T15:59:22Z</time></trkpt><trkpt lat="48.626225270693524" lon="3.3505991902830456"><ele>161.0</ele><time>2026-05-01T15:59:23Z</time></trkpt><trkpt lat="48.62610423171229" lon="3.3504149061138873"><ele>161.0</ele><time>2026-05-01T15:59:24Z</time></trkpt><trkpt lat="48.62598331963519" lon="3.3502272053368554"><ele>162.0</ele><time>2026-05-01T15:59:25Z</time></trkpt><trkpt lat="48.625852451350276" lon="3.350056553595636"><ele>163.0</ele><time>2026-05-01T15:59:26Z</time></trkpt><trkpt lat="48.62571750660148" lon="3.3498774326553797"><ele>164.0</ele><time>2026-05-01T15:59:27Z</time></trkpt><trkpt lat="48.6255877838707" lon="3.349684550617875"><ele>164.0</ele><time>2026-05-01T15:59:28Z</time></trkpt><trkpt lat="48.625448635534" lon="3.349490638347564"><ele>164.0</ele><time>2026-05-01T15:59:29Z</time></trkpt><trkpt lat="48.62532124346737" lon="3.3492784797367103"><ele>164.0</ele><time>2026-05-01T15:59:30Z</time></trkpt><trkpt lat="48.62520414056683" lon="3.3490516725628576"><ele>164.33333333333331</ele><time>2026-05-01T15:59:31Z</time></trkpt><trkpt lat="48.62509266616047" lon="3.348814909202044"><ele>164.66666666666666</ele><time>2026-05-01T15:59:32Z</time></trkpt><trkpt lat="48.62497876830665" lon="3.348585950492445"><ele>165.0</ele><time>2026-05-01T15:59:33Z</time></trkpt><trkpt lat="48.62487255054698" lon="3.3483461250178594"><ele>165.0</ele><time>2026-05-01T15:59:34Z</time></trkpt><trkpt lat="48.62476639242762" lon="3.348103507695142"><ele>165.0</ele><time>2026-05-01T15:59:35Z</time></trkpt><trkpt lat="48.62466419261158" lon="3.3478565618996274"><ele>165.0</ele><time>2026-05-01T15:59:36Z</time></trkpt><trkpt lat="48.62456625888614" lon="3.34760240688649"><ele>165.0</ele><time>2026-05-01T15:59:37Z</time></trkpt><trkpt lat="48.62445066871084" lon="3.3473546813350095"><ele>165.0</ele><time>2026-05-01T15:59:38Z</time></trkpt><trkpt lat="48.624348809727316" lon="3.347096431180934"><ele>165.0</ele><time>2026-05-01T15:59:39Z</time></trkpt><trkpt lat="48.62424848826063" lon="3.3468341182336703"><ele>165.0</ele><time>2026-05-01T15:59:40Z</time></trkpt><trkpt lat="48.62414496298818" lon="3.34657284498368"><ele>165.0</ele><time>2026-05-01T15:59:41Z</time></trkpt><trkpt lat="48.62405651107239" lon="3.346342054406441"><ele>165.0</ele><time>2026-05-01T15:59:42Z</time></trkpt><trkpt lat="48.62397327747493" lon="3.3461506265048833"><ele>165.33333333333334</ele><time>2026-05-01T15:59:43Z</time></trkpt><trkpt lat="48.6238873510661" lon="3.345967421714172"><ele>165.66666666666669</ele><time>2026-05-01T15:59:44Z</time></trkpt><trkpt lat="48.62380479072592" lon="3.34577844569711"><ele>166.0</ele><time>2026-05-01T15:59:45Z</time></trkpt><trkpt lat="48.62372832788083" lon="3.3455766242358456"><ele>166.0</ele><time>2026-05-01T15:59:46Z</time></trkpt><trkpt lat="48.623643756131294" lon="3.3453691472413754"><ele>166.0</ele><time>2026-05-01T15:59:47Z</time></trkpt><trkpt lat="48.62355482862023" lon="3.345155171741878"><ele>166.0</ele><time>2026-05-01T15:59:48Z</time></trkpt><trkpt lat="48.62345937521767" lon="3.344941885428864"><ele>166.0</ele><time>2026-05-01T15:59:49Z</time></trkpt><trkpt lat="48.62336338446627" lon="3.3447232136223324"><ele>166.0</ele><time>2026-05-01T15:59:50Z</time></trkpt><trkpt lat="48.623260829481026" lon="3.344482520514025"><ele>166.0</ele><time>2026-05-01T15:59:51Z</time></trkpt><trkpt lat="48.62317919030553" lon="3.3442536698451466"><ele>166.0</ele><time>2026-05-01T15:59:52Z</time></trkpt><trkpt lat="48.62308669932414" lon="3.344037073646674"><ele>166.0</ele><time>2026-05-01T15:59:53Z</time></trkpt><trkpt lat="48.62298572612524" lon="3.343816139985626"><ele>166.0</ele><time>2026-05-01T15:59:54Z</time></trkpt><trkpt lat="48.62288603264784" lon="3.3435820122733695"><ele>166.0</ele><time>2026-05-01T15:59:55Z</time></trkpt><trkpt lat="48.62279131002625" lon="3.3433499846980963"><ele>166.0</ele><time>2026-05-01T15:59:56Z</time></trkpt><trkpt lat="48.62267566278847" lon="3.3431131411679154"><ele>166.0</ele><time>2026-05-01T15:59:57Z</time></trkpt><trkpt lat="48.62256076778411" lon="3.3428816501961984"><ele>166.66666666666669</ele><time>2026-05-01T15:59:58Z</time></trkpt><trkpt lat="48.62244791000203" lon="3.342639953416587"><ele>167.33333333333334</ele><time>2026-05-01T15:59:59Z</time></trkpt><trkpt lat="48.62232567609931" lon="3.3424119492665887"><ele>168.0</ele><time>2026-05-01T16:00:00Z</time></trkpt><trkpt lat="48.62221395566181" lon="3.342180376862992"><ele>168.66666666666666</ele><time>2026-05-01T16:00:01Z</time></trkpt><trkpt lat="48.62209969967729" lon="3.341949896771093"><ele>169.33333333333331</ele><time>2026-05-01T16:00:02Z</time></trkpt><trkpt lat="48.62199674262991" lon="3.3417649153641014"><ele>170.0</ele><time>2026-05-01T16:00:03Z</time></trkpt><trkpt lat="48.62190995704078" lon="3.3415998160428746"><ele>170.25</ele><time>2026-05-01T16:00:04Z</time></trkpt><trkpt lat="48.621836989472726" lon="3.341456528319527"><ele>170.5</ele><time>2026-05-01T16:00:05Z</time></trkpt><trkpt lat="48.62176793456116" lon="3.3413219444850446"><ele>170.75</ele><time>2026-05-01T16:00:06Z</time></trkpt><trkpt lat="48.621701000322986" lon="3.341196974972373"><ele>171.0</ele><time>2026-05-01T16:00:07Z</time></trkpt><trkpt lat="48.621626678967694" lon="3.3410692729435216"><ele>171.0</ele><time>2026-05-01T16:00:08Z</time></trkpt><trkpt lat="48.621549425946604" lon="3.340936220344147"><ele>171.0</ele><time>2026-05-01T16:00:09Z</time></trkpt><trkpt lat="48.62147093439172" lon="3.3407903471494635"><ele>171.0</ele><time>2026-05-01T16:00:10Z</time></trkpt><trkpt lat="48.62139134039433" lon="3.3406400296672065"><ele>171.0</ele><time>2026-05-01T16:00:11Z</time></trkpt><trkpt lat="48.62132143489072" lon="3.340495109946331"><ele>171.0</ele><time>2026-05-01T16:00:12Z</time></trkpt><trkpt lat="48.621256640444436" lon="3.340365286030417"><ele>171.0</ele><time>2026-05-01T16:00:13Z</time></trkpt><trkpt lat="48.62118710300306" lon="3.340238935147476"><ele>171.0</ele><time>2026-05-01T16:00:14Z</time></trkpt><trkpt lat="48.62112644752297" lon="3.3401266522051354"><ele>171.0</ele><time>2026-05-01T16:00:15Z</time></trkpt><trkpt lat="48.62107961889492" lon="3.340039420180349"><ele>171.0</ele><time>2026-05-01T16:00:16Z</time></trkpt><trkpt lat="48.621035475379315" lon="3.339952595865897"><ele>171.0</ele><time>2026-05-01T16:00:18Z</time></trkpt><trkpt lat="48.620984614339314" lon="3.3398344372102096"><ele>171.0</ele><time>2026-05-01T16:00:31Z</time></trkpt><trkpt lat="48.620938287093296" lon="3.3397487017541985"><ele>171.0</ele><time>2026-05-01T16:00:32Z</time></trkpt><trkpt lat="48.6208863091898" lon="3.339655656762965"><ele>171.0</ele><time>2026-05-01T16:00:33Z</time></trkpt><trkpt lat="48.62083216287358" lon="3.339546324769871"><ele>171.0</ele><time>2026-05-01T16:00:34Z</time></trkpt><trkpt lat="48.6207708596168" lon="3.3394335187820663"><ele>171.0</ele><time>2026-05-01T16:00:35Z</time></trkpt><trkpt lat="48.62070594217087" lon="3.339306028949403"><ele>170.5</ele><time>2026-05-01T16:00:36Z</time></trkpt><trkpt lat="48.62063693037384" lon="3.339181335963249"><ele>170.0</ele><time>2026-05-01T16:00:37Z</time></trkpt><trkpt lat="48.620547060178524" lon="3.3390724491578627"><ele>169.5</ele><time>2026-05-01T16:00:38Z</time></trkpt><trkpt lat="48.62045337048549" lon="3.3389658852800226"><ele>169.0</ele><time>2026-05-01T16:00:39Z</time></trkpt><trkpt lat="48.620355570987066" lon="3.338868547883749"><ele>169.0</ele><time>2026-05-01T16:00:40Z</time></trkpt><trkpt lat="48.62024942351154" lon="3.3387888051363697"><ele>169.0</ele><time>2026-05-01T16:00:41Z</time></trkpt><trkpt lat="48.620148969615734" lon="3.338696510028698"><ele>169.0</ele><time>2026-05-01T16:00:42Z</time></trkpt><trkpt lat="48.62004565688768" lon="3.33861609811405"><ele>169.0</ele><time>2026-05-01T16:00:43Z</time></trkpt><trkpt lat="48.61996017283225" lon="3.3385476317542317"><ele>169.0</ele><time>2026-05-01T16:00:44Z</time></trkpt><trkpt lat="48.61988852482944" lon="3.33848149018846"><ele>169.0</ele><time>2026-05-01T16:00:45Z</time></trkpt><trkpt lat="48.619821622416026" lon="3.3384124220986506"><ele>169.0</ele><time>2026-05-01T16:00:46Z</time></trkpt><trkpt lat="48.619759993449954" lon="3.3383468000866956"><ele>169.0</ele><time>2026-05-01T16:00:48Z</time></trkpt><trkpt lat="48.61978324244334" lon="3.338229968027766"><ele>169.0</ele><time>2026-05-01T16:00:55Z</time></trkpt><trkpt lat="48.61979942461447" lon="3.3381356360098056"><ele>169.0</ele><time>2026-05-01T16:00:56Z</time></trkpt><trkpt lat="48.61981087975633" lon="3.3380223078702373"><ele>169.0</ele><time>2026-05-01T16:00:57Z</time></trkpt><trkpt lat="48.61982281937998" lon="3.337892142352077"><ele>168.79999999999998</ele><time>2026-05-01T16:00:58Z</time></trkpt><trkpt lat="48.61983862382873" lon="3.337755952210704"><ele>168.6</ele><time>2026-05-01T16:00:59Z</time></trkpt><trkpt lat="48.61985709486631" lon="3.337611645696774"><ele>168.4</ele><time>2026-05-01T16:01:00Z</time></trkpt><trkpt lat="48.61988217829239" lon="3.3374663329302034"><ele>168.2</ele><time>2026-05-01T16:01:01Z</time></trkpt><trkpt lat="48.619920406046546" lon="3.337323430528583"><ele>168.0</ele><time>2026-05-01T16:01:02Z</time></trkpt><trkpt lat="48.61996126047096" lon="3.337182788249496"><ele>168.0</ele><time>2026-05-01T16:01:03Z</time></trkpt><trkpt lat="48.61999576984886" lon="3.3370524449515684"><ele>168.0</ele><time>2026-05-01T16:01:04Z</time></trkpt><trkpt lat="48.62002274468918" lon="3.3369525800404967"><ele>168.0</ele><time>2026-05-01T16:01:05Z</time></trkpt><trkpt lat="48.62002621664769" lon="3.3367854376128143"><ele>168.0</ele><time>2026-05-01T16:01:07Z</time></trkpt><trkpt lat="48.61997713666889" lon="3.3367149564455425"><ele>168.0</ele><time>2026-05-01T16:01:08Z</time></trkpt><trkpt lat="48.61991337033907" lon="3.3366561298803017"><ele>168.0</ele><time>2026-05-01T16:01:09Z</time></trkpt><trkpt lat="48.619842520511334" lon="3.336607414348446"><ele>168.0</ele><time>2026-05-01T16:01:10Z</time></trkpt><trkpt lat="48.61977402874511" lon="3.3365460783029692"><ele>168.0</ele><time>2026-05-01T16:01:11Z</time></trkpt><trkpt lat="48.619706328835015" lon="3.336480193332885"><ele>168.0</ele><time>2026-05-01T16:01:12Z</time></trkpt><trkpt lat="48.61964028766035" lon="3.3364115179282106"><ele>168.0</ele><time>2026-05-01T16:01:13Z</time></trkpt><trkpt lat="48.61957737424331" lon="3.3363451614615625"><ele>168.0</ele><time>2026-05-01T16:01:14Z</time></trkpt><trkpt lat="48.61951936124374" lon="3.3362856108937686"><ele>168.0</ele><time>2026-05-01T16:01:15Z</time></trkpt><trkpt lat="48.61946948266028" lon="3.3362001829492423"><ele>168.0</ele><time>2026-05-01T16:01:17Z</time></trkpt><trkpt lat="48.61950033398493" lon="3.3360683751309237"><ele>168.0</ele><time>2026-05-01T16:01:19Z</time></trkpt><trkpt lat="48.61953374437416" lon="3.335976468025172"><ele>168.0</ele><time>2026-05-01T16:01:20Z</time></trkpt><trkpt lat="48.61957100489462" lon="3.3358637131989517"><ele>168.0</ele><time>2026-05-01T16:01:21Z</time></trkpt><trkpt lat="48.6196108465223" lon="3.3357423519715317"><ele>168.0</ele><time>2026-05-01T16:01:22Z</time></trkpt><trkpt lat="48.619649288951855" lon="3.3356054625235148"><ele>168.0</ele><time>2026-05-01T16:01:23Z</time></trkpt><trkpt lat="48.61968738727774" lon="3.335465773740416"><ele>167.8</ele><time>2026-05-01T16:01:24Z</time></trkpt><trkpt lat="48.61973144726004" lon="3.3353277065505726"><ele>167.60000000000002</ele><time>2026-05-01T16:01:25Z</time></trkpt><trkpt lat="48.61978029362072" lon="3.33519167054919"><ele>167.39999999999998</ele><time>2026-05-01T16:01:26Z</time></trkpt><trkpt lat="48.61982898424247" lon="3.335056992886315"><ele>167.2</ele><time>2026-05-01T16:01:27Z</time></trkpt><trkpt lat="48.61987431759824" lon="3.334928016239181"><ele>167.0</ele><time>2026-05-01T16:01:28Z</time></trkpt><trkpt lat="48.61991523844274" lon="3.334813602170876"><ele>166.8</ele><time>2026-05-01T16:01:29Z</time></trkpt><trkpt lat="48.61995243449466" lon="3.334714530305106"><ele>166.6</ele><time>2026-05-01T16:01:30Z</time></trkpt><trkpt lat="48.62000506495902" lon="3.334563610708144"><ele>166.4</ele><time>2026-05-01T16:01:32Z</time></trkpt><trkpt lat="48.62008314893864" lon="3.3345110813321344"><ele>166.20000000000002</ele><time>2026-05-01T16:01:36Z</time></trkpt><trkpt lat="48.62019370387634" lon="3.334571725653826"><ele>166.0</ele><time>2026-05-01T16:01:38Z</time></trkpt><trkpt lat="48.62026864326069" lon="3.3346158024287167"><ele>166.0</ele><time>2026-05-01T16:01:39Z</time></trkpt><trkpt lat="48.62035837555218" lon="3.3346447398768637"><ele>166.0</ele><time>2026-05-01T16:01:40Z</time></trkpt><trkpt lat="48.62045911607977" lon="3.3346813298955307"><ele>166.0</ele><time>2026-05-01T16:01:41Z</time></trkpt><trkpt lat="48.620575917933415" lon="3.334727081783501"><ele>166.0</ele><time>2026-05-01T16:01:42Z</time></trkpt><trkpt lat="48.620712205101555" lon="3.334772391792329"><ele>166.0</ele><time>2026-05-01T16:01:43Z</time></trkpt><trkpt lat="48.620848526043964" lon="3.3348487717457815"><ele>166.0</ele><time>2026-05-01T16:01:44Z</time></trkpt><trkpt lat="48.62099322041892" lon="3.3349032254631084"><ele>166.0</ele><time>2026-05-01T16:01:45Z</time></trkpt><trkpt lat="48.62114952485653" lon="3.334959499292832"><ele>166.0</ele><time>2026-05-01T16:01:46Z</time></trkpt><trkpt lat="48.62130528826953" lon="3.335015578339203"><ele>166.0</ele><time>2026-05-01T16:01:47Z</time></trkpt><trkpt lat="48.62147229542844" lon="3.335074364577461"><ele>166.0</ele><time>2026-05-01T16:01:48Z</time></trkpt><trkpt lat="48.621637549824364" lon="3.335118119280864"><ele>166.0</ele><time>2026-05-01T16:01:49Z</time></trkpt><trkpt lat="48.621799761850454" lon="3.335136330110765"><ele>166.0</ele><time>2026-05-01T16:01:50Z</time></trkpt><trkpt lat="48.621956819754224" lon="3.335176602387475"><ele>166.0</ele><time>2026-05-01T16:01:51Z</time></trkpt><trkpt lat="48.622108232714375" lon="3.3352004522570193"><ele>165.75</ele><time>2026-05-01T16:01:52Z</time></trkpt><trkpt lat="48.62224657947766" lon="3.3352195491171357"><ele>165.5</ele><time>2026-05-01T16:01:53Z</time></trkpt><trkpt lat="48.62237220196217" lon="3.335247293240645"><ele>165.25</ele><time>2026-05-01T16:01:54Z</time></trkpt><trkpt lat="48.62248614876018" lon="3.3352705525835096"><ele>165.0</ele><time>2026-05-01T16:01:55Z</time></trkpt><trkpt lat="48.622585592750234" lon="3.335287147172185"><ele>165.0</ele><time>2026-05-01T16:01:56Z</time></trkpt><trkpt lat="48.622670877204" lon="3.3353102466141347"><ele>165.0</ele><time>2026-05-01T16:01:57Z</time></trkpt><trkpt lat="48.622766182947885" lon="3.335324519833312"><ele>165.0</ele><time>2026-05-01T16:01:59Z</time></trkpt><trkpt lat="48.622894543516445" lon="3.3353450953420642"><ele>165.0</ele><time>2026-05-01T16:02:01Z</time></trkpt><trkpt lat="48.62300449595314" lon="3.3353688496582765"><ele>165.0</ele><time>2026-05-01T16:02:02Z</time></trkpt><trkpt lat="48.62313467844898" lon="3.335391042636342"><ele>164.33333333333334</ele><time>2026-05-01T16:02:03Z</time></trkpt><trkpt lat="48.62327893258606" lon="3.3354049596568194"><ele>163.66666666666669</ele><time>2026-05-01T16:02:04Z</time></trkpt><trkpt lat="48.62343784342527" lon="3.335419935654568"><ele>163.0</ele><time>2026-05-01T16:02:05Z</time></trkpt><trkpt lat="48.62360687356384" lon="3.3354379790229913"><ele>162.66666666666669</ele><time>2026-05-01T16:02:06Z</time></trkpt><trkpt lat="48.623782508170144" lon="3.335450040946778"><ele>162.33333333333334</ele><time>2026-05-01T16:02:07Z</time></trkpt><trkpt lat="48.62396889140614" lon="3.335463388436554"><ele>162.0</ele><time>2026-05-01T16:02:08Z</time></trkpt><trkpt lat="48.62417019444156" lon="3.3354771131136545"><ele>162.0</ele><time>2026-05-01T16:02:09Z</time></trkpt><trkpt lat="48.62437280999126" lon="3.3354913538330164"><ele>162.0</ele><time>2026-05-01T16:02:10Z</time></trkpt><trkpt lat="48.624582009216695" lon="3.335503200129265"><ele>162.0</ele><time>2026-05-01T16:02:11Z</time></trkpt><trkpt lat="48.62479544580563" lon="3.3355146474187483"><ele>162.33333333333334</ele><time>2026-05-01T16:02:12Z</time></trkpt><trkpt lat="48.62500913720319" lon="3.3355325257837816"><ele>162.66666666666669</ele><time>2026-05-01T16:02:13Z</time></trkpt><trkpt lat="48.625217987590354" lon="3.3355490954021803"><ele>163.0</ele><time>2026-05-01T16:02:14Z</time></trkpt><trkpt lat="48.62542587808202" lon="3.335563421511475"><ele>163.0</ele><time>2026-05-01T16:02:15Z</time></trkpt><trkpt lat="48.625632123447545" lon="3.3355820043696442"><ele>163.0</ele><time>2026-05-01T16:02:16Z</time></trkpt><trkpt lat="48.62583657591936" lon="3.3355987579510824"><ele>163.0</ele><time>2026-05-01T16:02:17Z</time></trkpt><trkpt lat="48.626042664458694" lon="3.3356135458039504"><ele>163.0</ele><time>2026-05-01T16:02:18Z</time></trkpt><trkpt lat="48.62625179192488" lon="3.3356359707696233"><ele>163.0</ele><time>2026-05-01T16:02:19Z</time></trkpt><trkpt lat="48.62646191063494" lon="3.33565357267836"><ele>163.0</ele><time>2026-05-01T16:02:20Z</time></trkpt><trkpt lat="48.62666419644332" lon="3.33564954738677"><ele>163.0</ele><time>2026-05-01T16:02:21Z</time></trkpt><trkpt lat="48.62687564174104" lon="3.335663072124167"><ele>163.0</ele><time>2026-05-01T16:02:22Z</time></trkpt><trkpt lat="48.627085940613" lon="3.335683355185089"><ele>163.0</ele><time>2026-05-01T16:02:23Z</time></trkpt><trkpt lat="48.62729474707811" lon="3.3357002655505656"><ele>162.0</ele><time>2026-05-01T16:02:24Z</time></trkpt><trkpt lat="48.62750615876083" lon="3.3357106127190006"><ele>161.0</ele><time>2026-05-01T16:02:25Z</time></trkpt><trkpt lat="48.627716128029526" lon="3.3357277929216327"><ele>160.0</ele><time>2026-05-01T16:02:26Z</time></trkpt><trkpt lat="48.62792420043793" lon="3.3357528522971536"><ele>159.33333333333334</ele><time>2026-05-01T16:02:27Z</time></trkpt><trkpt lat="48.62813145536396" lon="3.3357664374037723"><ele>158.66666666666666</ele><time>2026-05-01T16:02:28Z</time></trkpt><trkpt lat="48.62834241244266" lon="3.3357810014083857"><ele>158.0</ele><time>2026-05-01T16:02:29Z</time></trkpt><trkpt lat="48.62856150924172" lon="3.3357953472190705"><ele>157.0</ele><time>2026-05-01T16:02:30Z</time></trkpt><trkpt lat="48.62878730109985" lon="3.3358112296443174"><ele>156.0</ele><time>2026-05-01T16:02:31Z</time></trkpt><trkpt lat="48.62901452008876" lon="3.3358274581651877"><ele>156.0</ele><time>2026-05-01T16:02:32Z</time></trkpt><trkpt lat="48.6292428059481" lon="3.335841538582491"><ele>156.0</ele><time>2026-05-01T16:02:33Z</time></trkpt><trkpt lat="48.62946853835434" lon="3.3358524163677967"><ele>155.5</ele><time>2026-05-01T16:02:34Z</time></trkpt><trkpt lat="48.62969482420875" lon="3.3358660296137645"><ele>155.0</ele><time>2026-05-01T16:02:35Z</time></trkpt><trkpt lat="48.629922224754615" lon="3.335878433197552"><ele>155.0</ele><time>2026-05-01T16:02:36Z</time></trkpt><trkpt lat="48.63015271182664" lon="3.3358883227447023"><ele>155.0</ele><time>2026-05-01T16:02:37Z</time></trkpt><trkpt lat="48.63038426665351" lon="3.3358867685757057"><ele>154.5</ele><time>2026-05-01T16:02:38Z</time></trkpt><trkpt lat="48.63061553266801" lon="3.335866569566952"><ele>154.0</ele><time>2026-05-01T16:02:39Z</time></trkpt><trkpt lat="48.630848382013454" lon="3.335832941073931"><ele>154.0</ele><time>2026-05-01T16:02:40Z</time></trkpt><trkpt lat="48.63107935116641" lon="3.3357841480768733"><ele>154.0</ele><time>2026-05-01T16:02:41Z</time></trkpt><trkpt lat="48.6313104915628" lon="3.3357365608918927"><ele>154.0</ele><time>2026-05-01T16:02:42Z</time></trkpt><trkpt lat="48.63154260448512" lon="3.3357025497165878"><ele>154.0</ele><time>2026-05-01T16:02:43Z</time></trkpt><trkpt lat="48.63177304477844" lon="3.3356502180344347"><ele>154.0</ele><time>2026-05-01T16:02:44Z</time></trkpt><trkpt lat="48.63200362837235" lon="3.3355909691365397"><ele>154.0</ele><time>2026-05-01T16:02:45Z</time></trkpt><trkpt lat="48.63223150194248" lon="3.3355313787574548"><ele>154.5</ele><time>2026-05-01T16:02:46Z</time></trkpt><trkpt lat="48.6324582050541" lon="3.3354495001392435"><ele>155.0</ele><time>2026-05-01T16:02:47Z</time></trkpt><trkpt lat="48.632687496009055" lon="3.3354037466017226"><ele>155.5</ele><time>2026-05-01T16:02:48Z</time></trkpt><trkpt lat="48.632915004925955" lon="3.335356994673489"><ele>156.0</ele><time>2026-05-01T16:02:49Z</time></trkpt><trkpt lat="48.6331429368629" lon="3.3353164922138583"><ele>156.0</ele><time>2026-05-01T16:02:50Z</time></trkpt><trkpt lat="48.633372760460375" lon="3.33527019460887"><ele>156.0</ele><time>2026-05-01T16:02:51Z</time></trkpt><trkpt lat="48.63360188687769" lon="3.335217352774404"><ele>156.66666666666666</ele><time>2026-05-01T16:02:52Z</time></trkpt><trkpt lat="48.633825553490134" lon="3.33516249644154"><ele>157.33333333333331</ele><time>2026-05-01T16:02:53Z</time></trkpt><trkpt lat="48.63402498833362" lon="3.335113339108037"><ele>158.0</ele><time>2026-05-01T16:02:54Z</time></trkpt><trkpt lat="48.634203218844114" lon="3.3350695013003446"><ele>158.0</ele><time>2026-05-01T16:02:55Z</time></trkpt><trkpt lat="48.6343635705437" lon="3.3350311145454254"><ele>158.0</ele><time>2026-05-01T16:02:56Z</time></trkpt><trkpt lat="48.634522301397745" lon="3.3350001415483432"><ele>158.0</ele><time>2026-05-01T16:02:57Z</time></trkpt><trkpt lat="48.6346679650267" lon="3.334971434921325"><ele>158.75</ele><time>2026-05-01T16:02:58Z</time></trkpt><trkpt lat="48.63481048456376" lon="3.3349432785996243"><ele>159.5</ele><time>2026-05-01T16:02:59Z</time></trkpt><trkpt lat="48.63494813703543" lon="3.334907461211541"><ele>160.25</ele><time>2026-05-01T16:03:00Z</time></trkpt><trkpt lat="48.63508205311651" lon="3.334862643059437"><ele>161.0</ele><time>2026-05-01T16:03:01Z</time></trkpt><trkpt lat="48.635208902604354" lon="3.3348079181421366"><ele>161.25</ele><time>2026-05-01T16:03:02Z</time></trkpt><trkpt lat="48.635334341436085" lon="3.334752668521556"><ele>161.5</ele><time>2026-05-01T16:03:03Z</time></trkpt><trkpt lat="48.63545695016907" lon="3.334704611236663"><ele>161.75</ele><time>2026-05-01T16:03:04Z</time></trkpt><trkpt lat="48.635573243280035" lon="3.33465360468311"><ele>162.0</ele><time>2026-05-01T16:03:05Z</time></trkpt><trkpt lat="48.635686676951245" lon="3.334607577773686"><ele>162.0</ele><time>2026-05-01T16:03:06Z</time></trkpt><trkpt lat="48.63579017047081" lon="3.3345732891647177"><ele>162.0</ele><time>2026-05-01T16:03:07Z</time></trkpt><trkpt lat="48.63587643552072" lon="3.3345520010432725"><ele>162.0</ele><time>2026-05-01T16:03:08Z</time></trkpt><trkpt lat="48.635951211992534" lon="3.3345422499362614"><ele>162.0</ele><time>2026-05-01T16:03:09Z</time></trkpt><trkpt lat="48.63601674557524" lon="3.334522695587597"><ele>162.0</ele><time>2026-05-01T16:03:10Z</time></trkpt><trkpt lat="48.63609290089062" lon="3.334502328520943"><ele>162.0</ele><time>2026-05-01T16:03:11Z</time></trkpt><trkpt lat="48.63619672619902" lon="3.3344892804443296"><ele>162.0</ele><time>2026-05-01T16:03:13Z</time></trkpt><trkpt lat="48.63625316784896" lon="3.3344278093733855"><ele>162.0</ele><time>2026-05-01T16:03:15Z</time></trkpt><trkpt lat="48.63622100836633" lon="3.3342573019038806"><ele>162.0</ele><time>2026-05-01T16:03:17Z</time></trkpt><trkpt lat="48.6361827698706" lon="3.3341456089263253"><ele>162.0</ele><time>2026-05-01T16:03:18Z</time></trkpt><trkpt lat="48.63614332152275" lon="3.3340197045697337"><ele>162.0</ele><time>2026-05-01T16:03:19Z</time></trkpt><trkpt lat="48.636099469734056" lon="3.3338832859133176"><ele>162.0</ele><time>2026-05-01T16:03:20Z</time></trkpt><trkpt lat="48.6360458755903" lon="3.333743722415167"><ele>162.0</ele><time>2026-05-01T16:03:21Z</time></trkpt><trkpt lat="48.63598516931784" lon="3.3336051683820997"><ele>162.0</ele><time>2026-05-01T16:03:22Z</time></trkpt><trkpt lat="48.63592693522585" lon="3.3334707253427047"><ele>162.0</ele><time>2026-05-01T16:03:23Z</time></trkpt><trkpt lat="48.6358698285763" lon="3.3333380928960463"><ele>162.0</ele><time>2026-05-01T16:03:24Z</time></trkpt><trkpt lat="48.63581023130277" lon="3.333224464384014"><ele>162.0</ele><time>2026-05-01T16:03:25Z</time></trkpt><trkpt lat="48.63575112666322" lon="3.333109704999714"><ele>162.0</ele><time>2026-05-01T16:03:26Z</time></trkpt><trkpt lat="48.635689322595745" lon="3.3330021986031855"><ele>162.0</ele><time>2026-05-01T16:03:27Z</time></trkpt><trkpt lat="48.63563285257352" lon="3.332889968451706"><ele>162.0</ele><time>2026-05-01T16:03:28Z</time></trkpt><trkpt lat="48.63558275365308" lon="3.3327749845097077"><ele>162.0</ele><time>2026-05-01T16:03:29Z</time></trkpt><trkpt lat="48.63553519889531" lon="3.332665476241907"><ele>161.8</ele><time>2026-05-01T16:03:30Z</time></trkpt><trkpt lat="48.63549377041321" lon="3.3325506106326075"><ele>161.6</ele><time>2026-05-01T16:03:31Z</time></trkpt><trkpt lat="48.63546748907665" lon="3.3324142381644477"><ele>161.4</ele><time>2026-05-01T16:03:32Z</time></trkpt><trkpt lat="48.63545677566763" lon="3.3322667679954905"><ele>161.20000000000002</ele><time>2026-05-01T16:03:33Z</time></trkpt><trkpt lat="48.635464421035664" lon="3.3321150911667012"><ele>161.0</ele><time>2026-05-01T16:03:34Z</time></trkpt><trkpt lat="48.63548265035324" lon="3.331965676531289"><ele>160.8</ele><time>2026-05-01T16:03:35Z</time></trkpt><trkpt lat="48.63550787654056" lon="3.331816020908364"><ele>160.60000000000002</ele><time>2026-05-01T16:03:36Z</time></trkpt><trkpt lat="48.63553798175408" lon="3.3316639125150327"><ele>160.4</ele><time>2026-05-01T16:03:37Z</time></trkpt><trkpt lat="48.635573020491954" lon="3.331509412511237"><ele>160.2</ele><time>2026-05-01T16:03:38Z</time></trkpt><trkpt lat="48.63560975725422" lon="3.3313503004508243"><ele>160.0</ele><time>2026-05-01T16:03:39Z</time></trkpt><trkpt lat="48.635640907595906" lon="3.3311845711280017"><ele>160.0</ele><time>2026-05-01T16:03:40Z</time></trkpt><trkpt lat="48.63566943209071" lon="3.3310292364889804"><ele>160.0</ele><time>2026-05-01T16:03:41Z</time></trkpt><trkpt lat="48.6356918958528" lon="3.330898624648398"><ele>160.0</ele><time>2026-05-01T16:03:42Z</time></trkpt><trkpt lat="48.63571200642929" lon="3.330788021679026"><ele>160.0</ele><time>2026-05-01T16:03:43Z</time></trkpt><trkpt lat="48.63573615109716" lon="3.330658817186299"><ele>160.0</ele><time>2026-05-01T16:03:45Z</time></trkpt><trkpt lat="48.6358343702231" lon="3.330630511676906"><ele>160.0</ele><time>2026-05-01T16:03:47Z</time></trkpt><trkpt lat="48.63591374571765" lon="3.3306596078491655"><ele>160.0</ele><time>2026-05-01T16:03:48Z</time></trkpt><trkpt lat="48.636009300389205" lon="3.3307021038745352"><ele>160.0</ele><time>2026-05-01T16:03:49Z</time></trkpt><trkpt lat="48.63610640485403" lon="3.330754940548395"><ele>160.0</ele><time>2026-05-01T16:03:50Z</time></trkpt><trkpt lat="48.63621225253083" lon="3.3308013342250216"><ele>160.0</ele><time>2026-05-01T16:03:51Z</time></trkpt><trkpt lat="48.63632205718246" lon="3.330843052794033"><ele>160.5</ele><time>2026-05-01T16:03:52Z</time></trkpt><trkpt lat="48.63643829845425" lon="3.3308689053914633"><ele>161.0</ele><time>2026-05-01T16:03:53Z</time></trkpt><trkpt lat="48.636560360900845" lon="3.330890037397198"><ele>161.5</ele><time>2026-05-01T16:03:54Z</time></trkpt><trkpt lat="48.636683296125995" lon="3.3309141991850777"><ele>162.0</ele><time>2026-05-01T16:03:55Z</time></trkpt><trkpt lat="48.636813849890146" lon="3.3309204363702425"><ele>162.0</ele><time>2026-05-01T16:03:56Z</time></trkpt><trkpt lat="48.63696131394453" lon="3.330901941133236"><ele>162.0</ele><time>2026-05-01T16:03:57Z</time></trkpt><trkpt lat="48.63711726403098" lon="3.330875330202007"><ele>162.0</ele><time>2026-05-01T16:03:58Z</time></trkpt><trkpt lat="48.63727942127677" lon="3.3308475576062953"><ele>162.0</ele><time>2026-05-01T16:03:59Z</time></trkpt><trkpt lat="48.63744558644636" lon="3.3308097096318043"><ele>162.0</ele><time>2026-05-01T16:04:00Z</time></trkpt><trkpt lat="48.63761721562175" lon="3.3307961165982225"><ele>162.0</ele><time>2026-05-01T16:04:01Z</time></trkpt><trkpt lat="48.63779651341997" lon="3.330827990072502"><ele>162.33333333333334</ele><time>2026-05-01T16:04:02Z</time></trkpt><trkpt lat="48.63796596105767" lon="3.3308928291567077"><ele>162.66666666666669</ele><time>2026-05-01T16:04:03Z</time></trkpt><trkpt lat="48.638144452572874" lon="3.3309593971219082"><ele>163.0</ele><time>2026-05-01T16:04:04Z</time></trkpt><trkpt lat="48.63832427200831" lon="3.3310314906234115"><ele>163.0</ele><time>2026-05-01T16:04:05Z</time></trkpt><trkpt lat="48.638503553525716" lon="3.331103919407253"><ele>163.0</ele><time>2026-05-01T16:04:06Z</time></trkpt><trkpt lat="48.638681215377275" lon="3.331171732387513"><ele>163.0</ele><time>2026-05-01T16:04:07Z</time></trkpt><trkpt lat="48.63886027734407" lon="3.3312440511635626"><ele>163.66666666666669</ele><time>2026-05-01T16:04:08Z</time></trkpt><trkpt lat="48.63903572695009" lon="3.331325017311837"><ele>164.33333333333334</ele><time>2026-05-01T16:04:09Z</time></trkpt><trkpt lat="48.63920374842004" lon="3.3313928525625776"><ele>165.0</ele><time>2026-05-01T16:04:10Z</time></trkpt><trkpt lat="48.63938281867366" lon="3.331480299297503"><ele>164.66666666666666</ele><time>2026-05-01T16:04:11Z</time></trkpt><trkpt lat="48.63955652020668" lon="3.331582499000635"><ele>164.33333333333331</ele><time>2026-05-01T16:04:12Z</time></trkpt><trkpt lat="48.63972253888747" lon="3.331682288944681"><ele>164.0</ele><time>2026-05-01T16:04:13Z</time></trkpt><trkpt lat="48.63988748196877" lon="3.3317902155492143"><ele>164.0</ele><time>2026-05-01T16:04:14Z</time></trkpt><trkpt lat="48.640050701172626" lon="3.331893477197499"><ele>164.0</ele><time>2026-05-01T16:04:15Z</time></trkpt><trkpt lat="48.64021053023479" lon="3.3319865766766283"><ele>164.0</ele><time>2026-05-01T16:04:16Z</time></trkpt><trkpt lat="48.64038724550827" lon="3.3320793293739475"><ele>164.66666666666666</ele><time>2026-05-01T16:04:17Z</time></trkpt><trkpt lat="48.640553368583596" lon="3.3321396365741784"><ele>165.33333333333334</ele><time>2026-05-01T16:04:18Z</time></trkpt><trkpt lat="48.64071734512406" lon="3.3321689016435343"><ele>166.0</ele><time>2026-05-01T16:04:19Z</time></trkpt><trkpt lat="48.64089180850606" lon="3.3321737080512315"><ele>166.0</ele><time>2026-05-01T16:04:20Z</time></trkpt><trkpt lat="48.64107152851211" lon="3.3321435622454385"><ele>166.0</ele><time>2026-05-01T16:04:21Z</time></trkpt><trkpt lat="48.64125771636669" lon="3.332090478079053"><ele>166.0</ele><time>2026-05-01T16:04:22Z</time></trkpt><trkpt lat="48.641445193568984" lon="3.3320206238667547"><ele>166.0</ele><time>2026-05-01T16:04:23Z</time></trkpt><trkpt lat="48.64162503291181" lon="3.3319568308371807"><ele>166.0</ele><time>2026-05-01T16:04:24Z</time></trkpt><trkpt lat="48.64178525284154" lon="3.331900308908436"><ele>166.0</ele><time>2026-05-01T16:04:25Z</time></trkpt><trkpt lat="48.6419374267844" lon="3.331843096988499"><ele>165.33333333333334</ele><time>2026-05-01T16:04:26Z</time></trkpt><trkpt lat="48.642084683815874" lon="3.33176726956103"><ele>164.66666666666666</ele><time>2026-05-01T16:04:27Z</time></trkpt><trkpt lat="48.64222981652988" lon="3.331694444591142"><ele>164.0</ele><time>2026-05-01T16:04:28Z</time></trkpt><trkpt lat="48.64235850830332" lon="3.3315934718777593"><ele>164.0</ele><time>2026-05-01T16:04:29Z</time></trkpt><trkpt lat="48.64247113593396" lon="3.3314929214723668"><ele>164.0</ele><time>2026-05-01T16:04:30Z</time></trkpt><trkpt lat="48.64256619349029" lon="3.331408352369194"><ele>164.0</ele><time>2026-05-01T16:04:31Z</time></trkpt><trkpt lat="48.64263880404308" lon="3.331353147244359"><ele>164.0</ele><time>2026-05-01T16:04:32Z</time></trkpt><trkpt lat="48.64270177399891" lon="3.331306909235263"><ele>164.0</ele><time>2026-05-01T16:04:34Z</time></trkpt><trkpt lat="48.64277338645966" lon="3.3313799366112513"><ele>164.2</ele><time>2026-05-01T16:04:59Z</time></trkpt><trkpt lat="48.642823818896176" lon="3.3314658496064475"><ele>164.39999999999998</ele><time>2026-05-01T16:05:00Z</time></trkpt><trkpt lat="48.642893608997575" lon="3.3315817125002942"><ele>164.6</ele><time>2026-05-01T16:05:01Z</time></trkpt><trkpt lat="48.64297603866438" lon="3.331714612492468"><ele>164.8</ele><time>2026-05-01T16:05:02Z</time></trkpt><trkpt lat="48.64307320347939" lon="3.3318580793737"><ele>165.0</ele><time>2026-05-01T16:05:03Z</time></trkpt><trkpt lat="48.6431820982642" lon="3.332014152260558"><ele>165.0</ele><time>2026-05-01T16:05:04Z</time></trkpt><trkpt lat="48.64329734644275" lon="3.3321793862676965"><ele>165.0</ele><time>2026-05-01T16:05:05Z</time></trkpt><trkpt lat="48.643420205630804" lon="3.332348639752404"><ele>165.0</ele><time>2026-05-01T16:05:06Z</time></trkpt><trkpt lat="48.643543706155256" lon="3.332528296726426"><ele>164.33333333333334</ele><time>2026-05-01T16:05:07Z</time></trkpt><trkpt lat="48.64366999883233" lon="3.3327175544416123"><ele>163.66666666666669</ele><time>2026-05-01T16:05:08Z</time></trkpt><trkpt lat="48.64380002960705" lon="3.3329076800928856"><ele>163.0</ele><time>2026-05-01T16:05:09Z</time></trkpt><trkpt lat="48.643930424178464" lon="3.3331003851676346"><ele>163.0</ele><time>2026-05-01T16:05:10Z</time></trkpt><trkpt lat="48.64406380092581" lon="3.3332933623934693"><ele>163.0</ele><time>2026-05-01T16:05:11Z</time></trkpt><trkpt lat="48.64419763551562" lon="3.3334878035993305"><ele>163.0</ele><time>2026-05-01T16:05:12Z</time></trkpt><trkpt lat="48.64432955776116" lon="3.3336877775712086"><ele>163.0</ele><time>2026-05-01T16:05:13Z</time></trkpt><trkpt lat="48.6444597634702" lon="3.333893045672997"><ele>163.0</ele><time>2026-05-01T16:05:14Z</time></trkpt><trkpt lat="48.64459167009238" lon="3.3340984755691148"><ele>163.0</ele><time>2026-05-01T16:05:15Z</time></trkpt><trkpt lat="48.64471170757931" lon="3.334315638135979"><ele>162.66666666666669</ele><time>2026-05-01T16:05:16Z</time></trkpt><trkpt lat="48.64482195534907" lon="3.3345429200357715"><ele>162.33333333333334</ele><time>2026-05-01T16:05:17Z</time></trkpt><trkpt lat="48.6448995140323" lon="3.3347733795951147"><ele>162.0</ele><time>2026-05-01T16:05:18Z</time></trkpt><trkpt lat="48.64493169078093" lon="3.3349931611090127"><ele>162.0</ele><time>2026-05-01T16:05:19Z</time></trkpt><trkpt lat="48.644931280739904" lon="3.3351810247106637"><ele>162.0</ele><time>2026-05-01T16:05:20Z</time></trkpt><trkpt lat="48.64491657285607" lon="3.335302129186076"><ele>162.0</ele><time>2026-05-01T16:05:21Z</time></trkpt><trkpt lat="48.64490299709774" lon="3.3354259189684257"><ele>162.0</ele><time>2026-05-01T16:05:23Z</time></trkpt><trkpt lat="48.644986175391175" lon="3.335548620822199"><ele>162.0</ele><time>2026-05-01T16:05:27Z</time></trkpt><trkpt lat="48.645103099778176" lon="3.3356006905583198"><ele>161.75</ele><time>2026-05-01T16:05:28Z</time></trkpt><trkpt lat="48.64523001616837" lon="3.335661045903901"><ele>161.5</ele><time>2026-05-01T16:05:29Z</time></trkpt><trkpt lat="48.64536773243877" lon="3.3357205548046536"><ele>161.25</ele><time>2026-05-01T16:05:30Z</time></trkpt><trkpt lat="48.64551506001025" lon="3.3357886264749537"><ele>161.0</ele><time>2026-05-01T16:05:31Z</time></trkpt><trkpt lat="48.645674435878355" lon="3.3358628111951667"><ele>161.0</ele><time>2026-05-01T16:05:32Z</time></trkpt><trkpt lat="48.645840611683795" lon="3.335935738754614"><ele>161.0</ele><time>2026-05-01T16:05:33Z</time></trkpt><trkpt lat="48.646018910747316" lon="3.3360126580935905"><ele>161.0</ele><time>2026-05-01T16:05:34Z</time></trkpt><trkpt lat="48.64619304140056" lon="3.336099201593086"><ele>160.66666666666666</ele><time>2026-05-01T16:05:35Z</time></trkpt><trkpt lat="48.64636924135541" lon="3.3361827583385155"><ele>160.33333333333334</ele><time>2026-05-01T16:05:36Z</time></trkpt><trkpt lat="48.64656360796242" lon="3.3362831442510124"><ele>160.0</ele><time>2026-05-01T16:05:37Z</time></trkpt><trkpt lat="48.64676436167307" lon="3.3363750988158936"><ele>160.33333333333334</ele><time>2026-05-01T16:05:38Z</time></trkpt><trkpt lat="48.64697068760668" lon="3.3364714716190425"><ele>160.66666666666666</ele><time>2026-05-01T16:05:39Z</time></trkpt><trkpt lat="48.64717882524032" lon="3.3365699947513114"><ele>161.0</ele><time>2026-05-01T16:05:40Z</time></trkpt><trkpt lat="48.64739228903875" lon="3.3366637728649553"><ele>161.0</ele><time>2026-05-01T16:05:41Z</time></trkpt><trkpt lat="48.647608347759196" lon="3.336757053676175"><ele>161.0</ele><time>2026-05-01T16:05:42Z</time></trkpt><trkpt lat="48.64782377169144" lon="3.336848362716073"><ele>161.0</ele><time>2026-05-01T16:05:43Z</time></trkpt><trkpt lat="48.648044976572905" lon="3.3369520907419523"><ele>160.33333333333331</ele><time>2026-05-01T16:05:44Z</time></trkpt><trkpt lat="48.648266108329764" lon="3.337055850167956"><ele>159.66666666666666</ele><time>2026-05-01T16:05:45Z</time></trkpt><trkpt lat="48.648475087593376" lon="3.337146945872379"><ele>159.0</ele><time>2026-05-01T16:05:46Z</time></trkpt><trkpt lat="48.648703580614196" lon="3.3372514289886084"><ele>158.5</ele><time>2026-05-01T16:05:47Z</time></trkpt><trkpt lat="48.6489322399134" lon="3.337359197683974"><ele>158.0</ele><time>2026-05-01T16:05:48Z</time></trkpt><trkpt lat="48.64916196721802" lon="3.3374643260225674"><ele>158.0</ele><time>2026-05-01T16:05:49Z</time></trkpt><trkpt lat="48.6493948240242" lon="3.3375678841370093"><ele>158.0</ele><time>2026-05-01T16:05:50Z</time></trkpt><trkpt lat="48.64962237483851" lon="3.3376957754396077"><ele>158.0</ele><time>2026-05-01T16:05:51Z</time></trkpt><trkpt lat="48.64985645563688" lon="3.3378024797442833"><ele>158.0</ele><time>2026-05-01T16:05:52Z</time></trkpt><trkpt lat="48.65009452097405" lon="3.3379120646977123"><ele>155.5</ele><time>2026-05-01T16:05:53Z</time></trkpt><trkpt lat="48.650339172485566" lon="3.337998077863019"><ele>153.0</ele><time>2026-05-01T16:05:54Z</time></trkpt><trkpt lat="48.650577463902096" lon="3.3381082860399935"><ele>153.0</ele><time>2026-05-01T16:05:55Z</time></trkpt><trkpt lat="48.6508140991373" lon="3.338242869535491"><ele>153.0</ele><time>2026-05-01T16:05:56Z</time></trkpt><trkpt lat="48.651061166377566" lon="3.338329460221937"><ele>152.5</ele><time>2026-05-01T16:05:57Z</time></trkpt><trkpt lat="48.65130468194912" lon="3.33843981637042"><ele>152.0</ele><time>2026-05-01T16:05:58Z</time></trkpt><trkpt lat="48.65155049000201" lon="3.3385465815914337"><ele>152.0</ele><time>2026-05-01T16:05:59Z</time></trkpt><trkpt lat="48.651796128950046" lon="3.3386492485672936"><ele>152.0</ele><time>2026-05-01T16:06:00Z</time></trkpt><trkpt lat="48.65204238898956" lon="3.3387259450845908"><ele>152.5</ele><time>2026-05-01T16:06:01Z</time></trkpt><trkpt lat="48.6522920118162" lon="3.338773570636809"><ele>153.0</ele><time>2026-05-01T16:06:02Z</time></trkpt><trkpt lat="48.652538957241255" lon="3.3388249363009743"><ele>153.0</ele><time>2026-05-01T16:06:03Z</time></trkpt><trkpt lat="48.652783090155815" lon="3.3388752383150173"><ele>153.0</ele><time>2026-05-01T16:06:04Z</time></trkpt><trkpt lat="48.65300111960883" lon="3.338928743880636"><ele>153.33333333333334</ele><time>2026-05-01T16:06:05Z</time></trkpt><trkpt lat="48.653196713301064" lon="3.3389812773505967"><ele>153.66666666666669</ele><time>2026-05-01T16:06:06Z</time></trkpt><trkpt lat="48.653378497328475" lon="3.3390377802247793"><ele>154.0</ele><time>2026-05-01T16:06:07Z</time></trkpt><trkpt lat="48.6535563094503" lon="3.339099700777118"><ele>153.66666666666669</ele><time>2026-05-01T16:06:08Z</time></trkpt><trkpt lat="48.653730954852996" lon="3.3391577050385366"><ele>153.33333333333334</ele><time>2026-05-01T16:06:09Z</time></trkpt><trkpt lat="48.65392485770795" lon="3.3392359192029586"><ele>153.0</ele><time>2026-05-01T16:06:10Z</time></trkpt><trkpt lat="48.65412485633486" lon="3.3393203441056962"><ele>153.0</ele><time>2026-05-01T16:06:11Z</time></trkpt><trkpt lat="48.65432808074166" lon="3.3394050750926008"><ele>153.0</ele><time>2026-05-01T16:06:12Z</time></trkpt><trkpt lat="48.65452815855467" lon="3.339485873497499"><ele>153.0</ele><time>2026-05-01T16:06:13Z</time></trkpt><trkpt lat="48.65472865708637" lon="3.3395645122340736"><ele>153.0</ele><time>2026-05-01T16:06:14Z</time></trkpt><trkpt lat="48.65492679590144" lon="3.3396277129981162"><ele>153.0</ele><time>2026-05-01T16:06:15Z</time></trkpt><trkpt lat="48.65512333486504" lon="3.3397110101254492"><ele>153.0</ele><time>2026-05-01T16:06:16Z</time></trkpt><trkpt lat="48.655338222498145" lon="3.3396744534886325"><ele>153.0</ele><time>2026-05-01T16:06:17Z</time></trkpt><trkpt lat="48.65555133329046" lon="3.3396637797701185"><ele>153.0</ele><time>2026-05-01T16:06:18Z</time></trkpt><trkpt lat="48.655768175968355" lon="3.3396626416945274"><ele>153.0</ele><time>2026-05-01T16:06:19Z</time></trkpt><trkpt lat="48.655987135116646" lon="3.3396678910893334"><ele>153.66666666666666</ele><time>2026-05-01T16:06:20Z</time></trkpt><trkpt lat="48.65620664293483" lon="3.3396716057102362"><ele>154.33333333333331</ele><time>2026-05-01T16:06:21Z</time></trkpt><trkpt lat="48.65642326421437" lon="3.3396738397275834"><ele>155.0</ele><time>2026-05-01T16:06:22Z</time></trkpt><trkpt lat="48.656613548951945" lon="3.3396768827335914"><ele>155.0</ele><time>2026-05-01T16:06:23Z</time></trkpt><trkpt lat="48.656782202745084" lon="3.339680227479067"><ele>155.0</ele><time>2026-05-01T16:06:24Z</time></trkpt><trkpt lat="48.656942657562084" lon="3.3396840658857254"><ele>155.0</ele><time>2026-05-01T16:06:25Z</time></trkpt><trkpt lat="48.65710025192324" lon="3.3396847896968205"><ele>154.66666666666666</ele><time>2026-05-01T16:06:26Z</time></trkpt><trkpt lat="48.657253531363374" lon="3.3396840429860957"><ele>154.33333333333334</ele><time>2026-05-01T16:06:27Z</time></trkpt><trkpt lat="48.65740537443829" lon="3.339690363628914"><ele>154.0</ele><time>2026-05-01T16:06:28Z</time></trkpt><trkpt lat="48.65755744813916" lon="3.3396973972714554"><ele>154.0</ele><time>2026-05-01T16:06:29Z</time></trkpt><trkpt lat="48.657704713734844" lon="3.3397015056141353"><ele>154.0</ele><time>2026-05-01T16:06:30Z</time></trkpt><trkpt lat="48.65784165659197" lon="3.3396973931818406"><ele>154.0</ele><time>2026-05-01T16:06:31Z</time></trkpt><trkpt lat="48.6579978279154" lon="3.3397074901184336"><ele>154.0</ele><time>2026-05-01T16:06:32Z</time></trkpt><trkpt lat="48.65814864541954" lon="3.3397319960808356"><ele>153.66666666666669</ele><time>2026-05-01T16:06:33Z</time></trkpt><trkpt lat="48.658299265600945" lon="3.339767801170068"><ele>153.33333333333334</ele><time>2026-05-01T16:06:34Z</time></trkpt><trkpt lat="48.65845180039219" lon="3.339816233443306"><ele>153.0</ele><time>2026-05-01T16:06:35Z</time></trkpt><trkpt lat="48.6585980716784" lon="3.33987908727853"><ele>152.0</ele><time>2026-05-01T16:06:36Z</time></trkpt><trkpt lat="48.658745754887704" lon="3.339947211632313"><ele>151.0</ele><time>2026-05-01T16:06:37Z</time></trkpt><trkpt lat="48.65889689067111" lon="3.3400093842330274"><ele>150.0</ele><time>2026-05-01T16:06:38Z</time></trkpt><trkpt lat="48.65904922513055" lon="3.3400626170187886"><ele>150.0</ele><time>2026-05-01T16:06:39Z</time></trkpt><trkpt lat="48.65920321474288" lon="3.340103318925078"><ele>150.0</ele><time>2026-05-01T16:06:40Z</time></trkpt><trkpt lat="48.65936430004526" lon="3.3401420223118152"><ele>150.0</ele><time>2026-05-01T16:06:41Z</time></trkpt><trkpt lat="48.65954010570321" lon="3.340179558807009"><ele>150.66666666666666</ele><time>2026-05-01T16:06:42Z</time></trkpt><trkpt lat="48.65972442967594" lon="3.3402151758000573"><ele>151.33333333333331</ele><time>2026-05-01T16:06:43Z</time></trkpt><trkpt lat="48.65991994668491" lon="3.340253762899766"><ele>152.0</ele><time>2026-05-01T16:06:44Z</time></trkpt><trkpt lat="48.66011946166916" lon="3.3402900540980722"><ele>152.33333333333331</ele><time>2026-05-01T16:06:45Z</time></trkpt><trkpt lat="48.66032047726709" lon="3.3403289565559757"><ele>152.66666666666666</ele><time>2026-05-01T16:06:46Z</time></trkpt><trkpt lat="48.66052481785852" lon="3.3403642977451713"><ele>153.0</ele><time>2026-05-01T16:06:47Z</time></trkpt><trkpt lat="48.66073378315028" lon="3.3403960623812217"><ele>153.0</ele><time>2026-05-01T16:06:48Z</time></trkpt><trkpt lat="48.660946382009364" lon="3.3404124122412675"><ele>153.0</ele><time>2026-05-01T16:06:49Z</time></trkpt><trkpt lat="48.661164645540396" lon="3.3404116796511674"><ele>153.0</ele><time>2026-05-01T16:06:50Z</time></trkpt><trkpt lat="48.661387547041734" lon="3.3403997277356194"><ele>153.33333333333334</ele><time>2026-05-01T16:06:51Z</time></trkpt><trkpt lat="48.66159674065176" lon="3.3403874608455975"><ele>153.66666666666669</ele><time>2026-05-01T16:06:52Z</time></trkpt><trkpt lat="48.661787966126" lon="3.3403787893404036"><ele>154.0</ele><time>2026-05-01T16:06:53Z</time></trkpt><trkpt lat="48.66195742690804" lon="3.3403780448873452"><ele>153.33333333333334</ele><time>2026-05-01T16:06:54Z</time></trkpt><trkpt lat="48.662143757629444" lon="3.340398691044899"><ele>152.66666666666666</ele><time>2026-05-01T16:06:55Z</time></trkpt><trkpt lat="48.66233721329324" lon="3.34045557282702"><ele>152.0</ele><time>2026-05-01T16:06:56Z</time></trkpt><trkpt lat="48.6625360800313" lon="3.3405400457431074"><ele>152.0</ele><time>2026-05-01T16:06:57Z</time></trkpt><trkpt lat="48.662733366206425" lon="3.340665869565823"><ele>152.0</ele><time>2026-05-01T16:06:58Z</time></trkpt><trkpt lat="48.66293512190298" lon="3.3407787309780628"><ele>152.0</ele><time>2026-05-01T16:06:59Z</time></trkpt><trkpt lat="48.6631422794431" lon="3.340890525304267"><ele>151.66666666666666</ele><time>2026-05-01T16:07:00Z</time></trkpt><trkpt lat="48.66335203800204" lon="3.3410069005079515"><ele>151.33333333333334</ele><time>2026-05-01T16:07:01Z</time></trkpt><trkpt lat="48.66356316183532" lon="3.341124940362526"><ele>151.0</ele><time>2026-05-01T16:07:02Z</time></trkpt><trkpt lat="48.66377488852716" lon="3.341250048867413"><ele>151.0</ele><time>2026-05-01T16:07:03Z</time></trkpt><trkpt lat="48.66398960384037" lon="3.3413720435118885"><ele>151.0</ele><time>2026-05-01T16:07:04Z</time></trkpt><trkpt lat="48.66420786212676" lon="3.3414930205972944"><ele>151.0</ele><time>2026-05-01T16:07:05Z</time></trkpt><trkpt lat="48.664427945620886" lon="3.341613136668653"><ele>151.0</ele><time>2026-05-01T16:07:06Z</time></trkpt><trkpt lat="48.664650313248714" lon="3.3417320203278793"><ele>150.5</ele><time>2026-05-01T16:07:07Z</time></trkpt><trkpt lat="48.66487349506079" lon="3.341850329113589"><ele>150.0</ele><time>2026-05-01T16:07:08Z</time></trkpt><trkpt lat="48.66509888264481" lon="3.3419654618143664"><ele>150.0</ele><time>2026-05-01T16:07:09Z</time></trkpt><trkpt lat="48.6653264562035" lon="3.3420764624711445"><ele>150.0</ele><time>2026-05-01T16:07:10Z</time></trkpt><trkpt lat="48.66555678667889" lon="3.342182083724009"><ele>150.5</ele><time>2026-05-01T16:07:11Z</time></trkpt><trkpt lat="48.66578857105405" lon="3.3422846516954015"><ele>151.0</ele><time>2026-05-01T16:07:12Z</time></trkpt><trkpt lat="48.66602132583934" lon="3.3423913454798355"><ele>151.0</ele><time>2026-05-01T16:07:13Z</time></trkpt><trkpt lat="48.66625487429291" lon="3.3425037793482066"><ele>151.0</ele><time>2026-05-01T16:07:14Z</time></trkpt><trkpt lat="48.66648806439481" lon="3.342615615885175"><ele>151.0</ele><time>2026-05-01T16:07:15Z</time></trkpt><trkpt lat="48.66672321076528" lon="3.342729812483186"><ele>151.0</ele><time>2026-05-01T16:07:16Z</time></trkpt><trkpt lat="48.666959697877765" lon="3.342841820208859"><ele>149.5</ele><time>2026-05-01T16:07:17Z</time></trkpt><trkpt lat="48.66719520092484" lon="3.3429524449513135"><ele>148.0</ele><time>2026-05-01T16:07:18Z</time></trkpt><trkpt lat="48.66742894130755" lon="3.3430659969043335"><ele>148.0</ele><time>2026-05-01T16:07:19Z</time></trkpt><trkpt lat="48.6676654673491" lon="3.343178236009339"><ele>148.0</ele><time>2026-05-01T16:07:20Z</time></trkpt><trkpt lat="48.66789979657825" lon="3.34328714330492"><ele>147.0</ele><time>2026-05-01T16:07:21Z</time></trkpt><trkpt lat="48.66813845011554" lon="3.3433933625208856"><ele>146.0</ele><time>2026-05-01T16:07:22Z</time></trkpt><trkpt lat="48.66837689224839" lon="3.343486989156315"><ele>145.0</ele><time>2026-05-01T16:07:23Z</time></trkpt><trkpt lat="48.66861959816372" lon="3.3435611762953865"><ele>144.0</ele><time>2026-05-01T16:07:24Z</time></trkpt><trkpt lat="48.66886310632866" lon="3.3436239051844576"><ele>144.0</ele><time>2026-05-01T16:07:25Z</time></trkpt><trkpt lat="48.66910237861549" lon="3.3437073816436516"><ele>144.0</ele><time>2026-05-01T16:07:26Z</time></trkpt><trkpt lat="48.66935149363959" lon="3.3437420692417663"><ele>143.5</ele><time>2026-05-01T16:07:27Z</time></trkpt><trkpt lat="48.66959237480776" lon="3.3438247847085223"><ele>143.0</ele><time>2026-05-01T16:07:28Z</time></trkpt><trkpt lat="48.66983882758494" lon="3.3438643112446136"><ele>143.0</ele><time>2026-05-01T16:07:29Z</time></trkpt><trkpt lat="48.670087893307716" lon="3.3439278266660533"><ele>143.0</ele><time>2026-05-01T16:07:30Z</time></trkpt><trkpt lat="48.67033899451017" lon="3.3439863737896496"><ele>143.0</ele><time>2026-05-01T16:07:31Z</time></trkpt><trkpt lat="48.67058473782536" lon="3.3440421455754037"><ele>143.0</ele><time>2026-05-01T16:07:32Z</time></trkpt><trkpt lat="48.67083584095821" lon="3.3441033653117263"><ele>143.0</ele><time>2026-05-01T16:07:33Z</time></trkpt><trkpt lat="48.6710855751199" lon="3.34416389153429"><ele>143.0</ele><time>2026-05-01T16:07:34Z</time></trkpt><trkpt lat="48.67132275023717" lon="3.3442223266026354"><ele>142.33333333333331</ele><time>2026-05-01T16:07:35Z</time></trkpt><trkpt lat="48.6715307672091" lon="3.344274762303716"><ele>141.66666666666666</ele><time>2026-05-01T16:07:36Z</time></trkpt><trkpt lat="48.671722185569266" lon="3.3443254347174496"><ele>141.0</ele><time>2026-05-01T16:07:37Z</time></trkpt><trkpt lat="48.67190047569421" lon="3.344374178029434"><ele>140.0</ele><time>2026-05-01T16:07:38Z</time></trkpt><trkpt lat="48.67207881124511" lon="3.3444186106487788"><ele>139.0</ele><time>2026-05-01T16:07:39Z</time></trkpt><trkpt lat="48.67226196973135" lon="3.344459314942779"><ele>138.0</ele><time>2026-05-01T16:07:40Z</time></trkpt><trkpt lat="48.67244696754492" lon="3.3444994947185975"><ele>138.0</ele><time>2026-05-01T16:07:41Z</time></trkpt><trkpt lat="48.672631210751156" lon="3.3445445948075982"><ele>138.0</ele><time>2026-05-01T16:07:42Z</time></trkpt><trkpt lat="48.67281274074053" lon="3.3445911625075553"><ele>138.0</ele><time>2026-05-01T16:07:43Z</time></trkpt><trkpt lat="48.672990446966764" lon="3.3446448295627618"><ele>136.66666666666666</ele><time>2026-05-01T16:07:44Z</time></trkpt><trkpt lat="48.67316402412596" lon="3.3447064781748614"><ele>135.33333333333331</ele><time>2026-05-01T16:07:45Z</time></trkpt><trkpt lat="48.67332831168258" lon="3.344793478176443"><ele>134.0</ele><time>2026-05-01T16:07:46Z</time></trkpt><trkpt lat="48.673482026704605" lon="3.344910517838772"><ele>134.0</ele><time>2026-05-01T16:07:47Z</time></trkpt><trkpt lat="48.6736409869194" lon="3.345025981742864"><ele>134.0</ele><time>2026-05-01T16:07:48Z</time></trkpt><trkpt lat="48.673800729839314" lon="3.345138954993337"><ele>134.0</ele><time>2026-05-01T16:07:49Z</time></trkpt><trkpt lat="48.67396026459535" lon="3.345254304720288"><ele>134.0</ele><time>2026-05-01T16:07:50Z</time></trkpt><trkpt lat="48.6741177811414" lon="3.3453684011782596"><ele>134.0</ele><time>2026-05-01T16:07:51Z</time></trkpt><trkpt lat="48.67427436563143" lon="3.3454756688877496"><ele>134.0</ele><time>2026-05-01T16:07:52Z</time></trkpt><trkpt lat="48.67442425140029" lon="3.345584408601995"><ele>134.0</ele><time>2026-05-01T16:07:53Z</time></trkpt><trkpt lat="48.67457072617907" lon="3.3456896208300204"><ele>134.0</ele><time>2026-05-01T16:07:54Z</time></trkpt><trkpt lat="48.67471627679435" lon="3.345799605091645"><ele>134.0</ele><time>2026-05-01T16:07:55Z</time></trkpt><trkpt lat="48.67486666920168" lon="3.3459102924244304"><ele>134.0</ele><time>2026-05-01T16:07:56Z</time></trkpt><trkpt lat="48.675021991559845" lon="3.3460225611446126"><ele>134.0</ele><time>2026-05-01T16:07:57Z</time></trkpt><trkpt lat="48.675163364690256" lon="3.34617040037156"><ele>134.0</ele><time>2026-05-01T16:07:58Z</time></trkpt><trkpt lat="48.675305230102104" lon="3.3463248543350295"><ele>135.0</ele><time>2026-05-01T16:07:59Z</time></trkpt><trkpt lat="48.67545485798825" lon="3.346471681842869"><ele>136.0</ele><time>2026-05-01T16:08:00Z</time></trkpt><trkpt lat="48.67559408225887" lon="3.3466487108326857"><ele>137.0</ele><time>2026-05-01T16:08:01Z</time></trkpt><trkpt lat="48.6757369034863" lon="3.3468093203138447"><ele>137.0</ele><time>2026-05-01T16:08:02Z</time></trkpt><trkpt lat="48.675885227476186" lon="3.3469552342815034"><ele>137.0</ele><time>2026-05-01T16:08:03Z</time></trkpt><trkpt lat="48.67603616983561" lon="3.3470913182843227"><ele>137.0</ele><time>2026-05-01T16:08:04Z</time></trkpt><trkpt lat="48.67618490957551" lon="3.3472155258131275"><ele>138.33333333333331</ele><time>2026-05-01T16:08:05Z</time></trkpt><trkpt lat="48.676331151737806" lon="3.347339283812314"><ele>139.66666666666666</ele><time>2026-05-01T16:08:06Z</time></trkpt><trkpt lat="48.67646453138886" lon="3.347459160688291"><ele>141.0</ele><time>2026-05-01T16:08:07Z</time></trkpt><trkpt lat="48.67658832817826" lon="3.3475828419902482"><ele>141.0</ele><time>2026-05-01T16:08:08Z</time></trkpt><trkpt lat="48.67670521746782" lon="3.347706451973079"><ele>141.0</ele><time>2026-05-01T16:08:09Z</time></trkpt><trkpt lat="48.676814161044405" lon="3.347833915636059"><ele>141.0</ele><time>2026-05-01T16:08:10Z</time></trkpt><trkpt lat="48.676916388722056" lon="3.3479570752585106"><ele>141.0</ele><time>2026-05-01T16:08:11Z</time></trkpt><trkpt lat="48.67701876393294" lon="3.3480817967858347"><ele>141.5</ele><time>2026-05-01T16:08:12Z</time></trkpt><trkpt lat="48.677120793584" lon="3.3482023145895004"><ele>142.0</ele><time>2026-05-01T16:08:13Z</time></trkpt><trkpt lat="48.67722528042017" lon="3.3483341238465547"><ele>142.5</ele><time>2026-05-01T16:08:14Z</time></trkpt><trkpt lat="48.67733748281629" lon="3.3484693390650877"><ele>143.0</ele><time>2026-05-01T16:08:15Z</time></trkpt><trkpt lat="48.677452602673206" lon="3.3486092838009265"><ele>143.0</ele><time>2026-05-01T16:08:16Z</time></trkpt><trkpt lat="48.67757087139067" lon="3.3487523515713082"><ele>143.0</ele><time>2026-05-01T16:08:17Z</time></trkpt><trkpt lat="48.677688779846626" lon="3.3488999994289905"><ele>143.0</ele><time>2026-05-01T16:08:18Z</time></trkpt><trkpt lat="48.67780718132526" lon="3.349054486030559"><ele>143.66666666666666</ele><time>2026-05-01T16:08:19Z</time></trkpt><trkpt lat="48.67792437461255" lon="3.3492082681782325"><ele>144.33333333333334</ele><time>2026-05-01T16:08:20Z</time></trkpt><trkpt lat="48.67804679654181" lon="3.349360331327881"><ele>145.0</ele><time>2026-05-01T16:08:21Z</time></trkpt><trkpt lat="48.678171081836965" lon="3.3495135668170657"><ele>145.0</ele><time>2026-05-01T16:08:22Z</time></trkpt><trkpt lat="48.67829625701845" lon="3.349670410271707"><ele>145.0</ele><time>2026-05-01T16:08:23Z</time></trkpt><trkpt lat="48.67842284756299" lon="3.3498278034229"><ele>145.0</ele><time>2026-05-01T16:08:24Z</time></trkpt><trkpt lat="48.67855243608892" lon="3.349991954253261"><ele>145.66666666666669</ele><time>2026-05-01T16:08:25Z</time></trkpt><trkpt lat="48.678686808184196" lon="3.3501552778696997"><ele>146.33333333333334</ele><time>2026-05-01T16:08:26Z</time></trkpt><trkpt lat="48.678822875562346" lon="3.350324923288354"><ele>147.0</ele><time>2026-05-01T16:08:27Z</time></trkpt><trkpt lat="48.67895347945202" lon="3.350488347599211"><ele>147.0</ele><time>2026-05-01T16:08:28Z</time></trkpt><trkpt lat="48.679086241373795" lon="3.3506658032059047"><ele>147.0</ele><time>2026-05-01T16:08:29Z</time></trkpt><trkpt lat="48.679196958243466" lon="3.3508112660793046"><ele>147.0</ele><time>2026-05-01T16:08:30Z</time></trkpt><trkpt lat="48.67928378335698" lon="3.3509692032124927"><ele>147.0</ele><time>2026-05-01T16:08:31Z</time></trkpt><trkpt lat="48.67936786275919" lon="3.3511248861056395"><ele>147.0</ele><time>2026-05-01T16:08:32Z</time></trkpt><trkpt lat="48.67942634143171" lon="3.351274156886949"><ele>147.0</ele><time>2026-05-01T16:08:33Z</time></trkpt><trkpt lat="48.67946456778416" lon="3.3513959908354183"><ele>147.0</ele><time>2026-05-01T16:08:34Z</time></trkpt><trkpt lat="48.67948457903454" lon="3.3515020271400626"><ele>147.0</ele><time>2026-05-01T16:08:35Z</time></trkpt><trkpt lat="48.67949839416418" lon="3.3516575294677065"><ele>147.2</ele><time>2026-05-01T16:08:37Z</time></trkpt><trkpt lat="48.67965049055864" lon="3.3516117679463244"><ele>147.39999999999998</ele><time>2026-05-01T16:08:39Z</time></trkpt><trkpt lat="48.67967311765746" lon="3.3515099928927667"><ele>147.60000000000002</ele><time>2026-05-01T16:08:40Z</time></trkpt><trkpt lat="48.67970075402409" lon="3.3513921920654184"><ele>147.8</ele><time>2026-05-01T16:08:41Z</time></trkpt><trkpt lat="48.67973547460168" lon="3.351231941417944"><ele>148.0</ele><time>2026-05-01T16:08:42Z</time></trkpt><trkpt lat="48.679789745309094" lon="3.35105533714211"><ele>148.0</ele><time>2026-05-01T16:08:43Z</time></trkpt><trkpt lat="48.67985893871179" lon="3.350878324898924"><ele>148.0</ele><time>2026-05-01T16:08:44Z</time></trkpt><trkpt lat="48.67993525755837" lon="3.350683672999727"><ele>148.0</ele><time>2026-05-01T16:08:45Z</time></trkpt><trkpt lat="48.680012575424996" lon="3.350488436976824"><ele>148.0</ele><time>2026-05-01T16:08:46Z</time></trkpt><trkpt lat="48.68008820253557" lon="3.350289632606479"><ele>148.0</ele><time>2026-05-01T16:08:47Z</time></trkpt><trkpt lat="48.68016986421387" lon="3.350090819164963"><ele>148.0</ele><time>2026-05-01T16:08:48Z</time></trkpt><trkpt lat="48.68025333399856" lon="3.3498835596963987"><ele>148.0</ele><time>2026-05-01T16:08:49Z</time></trkpt><trkpt lat="48.68033981148046" lon="3.3496778544145585"><ele>148.0</ele><time>2026-05-01T16:08:50Z</time></trkpt><trkpt lat="48.680437048636655" lon="3.349467699736648"><ele>148.0</ele><time>2026-05-01T16:08:51Z</time></trkpt><trkpt lat="48.680522461593384" lon="3.3492613126179522"><ele>148.0</ele><time>2026-05-01T16:08:52Z</time></trkpt><trkpt lat="48.680600185875015" lon="3.3490549446545335"><ele>147.66666666666669</ele><time>2026-05-01T16:08:53Z</time></trkpt><trkpt lat="48.680683390048635" lon="3.348845937997723"><ele>147.33333333333334</ele><time>2026-05-01T16:08:54Z</time></trkpt><trkpt lat="48.680760305031924" lon="3.348632119348475"><ele>147.0</ele><time>2026-05-01T16:08:55Z</time></trkpt><trkpt lat="48.68083470095927" lon="3.3484133294301164"><ele>147.0</ele><time>2026-05-01T16:08:56Z</time></trkpt><trkpt lat="48.68090840121354" lon="3.3481939867687824"><ele>147.0</ele><time>2026-05-01T16:08:57Z</time></trkpt><trkpt lat="48.68097516449956" lon="3.3479675661879416"><ele>147.0</ele><time>2026-05-01T16:08:58Z</time></trkpt><trkpt lat="48.68104206609611" lon="3.3477434939861905"><ele>147.0</ele><time>2026-05-01T16:08:59Z</time></trkpt><trkpt lat="48.681106918693416" lon="3.347525199825979"><ele>147.0</ele><time>2026-05-01T16:09:00Z</time></trkpt><trkpt lat="48.68116007894243" lon="3.347337956515962"><ele>147.0</ele><time>2026-05-01T16:09:01Z</time></trkpt><trkpt lat="48.681208656398795" lon="3.3471892229888827"><ele>147.0</ele><time>2026-05-01T16:09:02Z</time></trkpt><trkpt lat="48.68125694695067" lon="3.347055201924759"><ele>147.0</ele><time>2026-05-01T16:09:03Z</time></trkpt><trkpt lat="48.68130582578113" lon="3.3469250415147673"><ele>147.0</ele><time>2026-05-01T16:09:04Z</time></trkpt><trkpt lat="48.681356101086465" lon="3.3467580206600815"><ele>147.0</ele><time>2026-05-01T16:09:05Z</time></trkpt><trkpt lat="48.68138772770971" lon="3.3465441582495683"><ele>147.0</ele><time>2026-05-01T16:09:06Z</time></trkpt><trkpt lat="48.681431217271204" lon="3.3463157819851554"><ele>147.0</ele><time>2026-05-01T16:09:07Z</time></trkpt><trkpt lat="48.681485573896886" lon="3.346078373006037"><ele>147.0</ele><time>2026-05-01T16:09:08Z</time></trkpt><trkpt lat="48.68152795162962" lon="3.345830936118284"><ele>147.0</ele><time>2026-05-01T16:09:09Z</time></trkpt><trkpt lat="48.68157086890843" lon="3.3455713763293966"><ele>147.33333333333334</ele><time>2026-05-01T16:09:10Z</time></trkpt><trkpt lat="48.68162103268499" lon="3.3452915599464466"><ele>147.66666666666669</ele><time>2026-05-01T16:09:11Z</time></trkpt><trkpt lat="48.68166999955737" lon="3.3450471478685158"><ele>148.0</ele><time>2026-05-01T16:09:12Z</time></trkpt><trkpt lat="48.68171095319185" lon="3.3448241997900223"><ele>148.33333333333334</ele><time>2026-05-01T16:09:13Z</time></trkpt><trkpt lat="48.68174872699151" lon="3.344581082336242"><ele>148.66666666666666</ele><time>2026-05-01T16:09:14Z</time></trkpt><trkpt lat="48.68180669304087" lon="3.3443161705741167"><ele>149.0</ele><time>2026-05-01T16:09:15Z</time></trkpt><trkpt lat="48.68186447279128" lon="3.3440593023393697"><ele>149.33333333333331</ele><time>2026-05-01T16:09:16Z</time></trkpt><trkpt lat="48.68192207997604" lon="3.343800221941821"><ele>149.66666666666666</ele><time>2026-05-01T16:09:17Z</time></trkpt><trkpt lat="48.6819834897778" lon="3.34353885433807"><ele>150.0</ele><time>2026-05-01T16:09:18Z</time></trkpt><trkpt lat="48.68205384433703" lon="3.343279297473078"><ele>149.66666666666666</ele><time>2026-05-01T16:09:19Z</time></trkpt><trkpt lat="48.682139486902656" lon="3.343022890917935"><ele>149.33333333333331</ele><time>2026-05-01T16:09:20Z</time></trkpt><trkpt lat="48.68225403138517" lon="3.342794923182657"><ele>149.0</ele><time>2026-05-01T16:09:21Z</time></trkpt><trkpt lat="48.68236889045318" lon="3.3425682745322627"><ele>149.0</ele><time>2026-05-01T16:09:22Z</time></trkpt><trkpt lat="48.68246979004174" lon="3.3423532305685626"><ele>149.0</ele><time>2026-05-01T16:09:23Z</time></trkpt><trkpt lat="48.68256130347544" lon="3.34217765279934"><ele>149.0</ele><time>2026-05-01T16:09:24Z</time></trkpt><trkpt lat="48.68263852626395" lon="3.342001047024245"><ele>149.0</ele><time>2026-05-01T16:09:25Z</time></trkpt><trkpt lat="48.68270534728694" lon="3.341783268084439"><ele>149.0</ele><time>2026-05-01T16:09:26Z</time></trkpt><trkpt lat="48.68276991104477" lon="3.341538881928559"><ele>149.0</ele><time>2026-05-01T16:09:27Z</time></trkpt><trkpt lat="48.682826453400104" lon="3.3412943525432217"><ele>149.0</ele><time>2026-05-01T16:09:28Z</time></trkpt><trkpt lat="48.682886142532794" lon="3.341077693086677"><ele>149.0</ele><time>2026-05-01T16:09:29Z</time></trkpt><trkpt lat="48.682928589634855" lon="3.340897393863731"><ele>149.0</ele><time>2026-05-01T16:09:30Z</time></trkpt><trkpt lat="48.68296933684865" lon="3.3407461636801457"><ele>149.0</ele><time>2026-05-01T16:09:31Z</time></trkpt><trkpt lat="48.68301282407594" lon="3.340608303715808"><ele>148.83333333333331</ele><time>2026-05-01T16:09:32Z</time></trkpt><trkpt lat="48.68304750896973" lon="3.3404902163340666"><ele>148.66666666666666</ele><time>2026-05-01T16:09:33Z</time></trkpt><trkpt lat="48.68308396594334" lon="3.3403991915152487"><ele>148.5</ele><time>2026-05-01T16:09:34Z</time></trkpt><trkpt lat="48.68312009330896" lon="3.340299012241698"><ele>148.33333333333334</ele><time>2026-05-01T16:09:35Z</time></trkpt><trkpt lat="48.6831719733021" lon="3.3401820178578023"><ele>148.16666666666669</ele><time>2026-05-01T16:09:36Z</time></trkpt><trkpt lat="48.68322717977483" lon="3.340035158432978"><ele>148.0</ele><time>2026-05-01T16:09:37Z</time></trkpt><trkpt lat="48.68328356812869" lon="3.3398591999108187"><ele>147.75</ele><time>2026-05-01T16:09:38Z</time></trkpt><trkpt lat="48.68334864386162" lon="3.339670295862069"><ele>147.5</ele><time>2026-05-01T16:09:39Z</time></trkpt><trkpt lat="48.683427740200216" lon="3.3394698573838877"><ele>147.25</ele><time>2026-05-01T16:09:40Z</time></trkpt><trkpt lat="48.683498208062616" lon="3.3392772015364796"><ele>147.0</ele><time>2026-05-01T16:09:41Z</time></trkpt><trkpt lat="48.68356549990211" lon="3.339076152803381"><ele>147.66666666666666</ele><time>2026-05-01T16:09:42Z</time></trkpt><trkpt lat="48.683628202725004" lon="3.338865980240895"><ele>148.33333333333331</ele><time>2026-05-01T16:09:43Z</time></trkpt><trkpt lat="48.68369442028159" lon="3.338636587861881"><ele>149.0</ele><time>2026-05-01T16:09:44Z</time></trkpt><trkpt lat="48.68375958532384" lon="3.338399137341036"><ele>149.0</ele><time>2026-05-01T16:09:45Z</time></trkpt><trkpt lat="48.68382615253667" lon="3.3381637491735847"><ele>149.0</ele><time>2026-05-01T16:09:46Z</time></trkpt><trkpt lat="48.683908463814795" lon="3.3379235740373634"><ele>149.0</ele><time>2026-05-01T16:09:47Z</time></trkpt><trkpt lat="48.68400322749919" lon="3.3376742639000296"><ele>148.0</ele><time>2026-05-01T16:09:48Z</time></trkpt><trkpt lat="48.684075383019966" lon="3.3374415677747837"><ele>147.0</ele><time>2026-05-01T16:09:49Z</time></trkpt><trkpt lat="48.684157928534916" lon="3.3371983589772976"><ele>146.0</ele><time>2026-05-01T16:09:50Z</time></trkpt><trkpt lat="48.6842500624903" lon="3.3369461959120517"><ele>145.33333333333331</ele><time>2026-05-01T16:09:51Z</time></trkpt><trkpt lat="48.684336341402386" lon="3.3366817429837288"><ele>144.66666666666666</ele><time>2026-05-01T16:09:52Z</time></trkpt><trkpt lat="48.684436389450525" lon="3.336424309077876"><ele>144.0</ele><time>2026-05-01T16:09:53Z</time></trkpt><trkpt lat="48.68452003802756" lon="3.336155347766363"><ele>143.66666666666666</ele><time>2026-05-01T16:09:54Z</time></trkpt><trkpt lat="48.6846106693273" lon="3.335884015607181"><ele>143.33333333333331</ele><time>2026-05-01T16:09:55Z</time></trkpt><trkpt lat="48.68470676072553" lon="3.335618272299141"><ele>143.0</ele><time>2026-05-01T16:09:56Z</time></trkpt><trkpt lat="48.684804396084154" lon="3.3353496795907986"><ele>142.66666666666666</ele><time>2026-05-01T16:09:57Z</time></trkpt><trkpt lat="48.68489577652251" lon="3.3350870308055685"><ele>142.33333333333334</ele><time>2026-05-01T16:09:58Z</time></trkpt><trkpt lat="48.684977285434194" lon="3.3348122731267305"><ele>142.0</ele><time>2026-05-01T16:09:59Z</time></trkpt><trkpt lat="48.685066129738644" lon="3.3345558771826798"><ele>142.0</ele><time>2026-05-01T16:10:00Z</time></trkpt><trkpt lat="48.68514962962734" lon="3.334303054551135"><ele>142.0</ele><time>2026-05-01T16:10:01Z</time></trkpt><trkpt lat="48.685240007733675" lon="3.334049034477113"><ele>142.0</ele><time>2026-05-01T16:10:02Z</time></trkpt><trkpt lat="48.68532500914895" lon="3.333790481405136"><ele>142.0</ele><time>2026-05-01T16:10:03Z</time></trkpt><trkpt lat="48.68541297661814" lon="3.333536178241048"><ele>142.0</ele><time>2026-05-01T16:10:04Z</time></trkpt><trkpt lat="48.68549333338257" lon="3.3332968565054593"><ele>142.0</ele><time>2026-05-01T16:10:05Z</time></trkpt><trkpt lat="48.68555744481226" lon="3.333104972482097"><ele>142.0</ele><time>2026-05-01T16:10:06Z</time></trkpt><trkpt lat="48.68561208616319" lon="3.3329416020513056"><ele>142.0</ele><time>2026-05-01T16:10:07Z</time></trkpt><trkpt lat="48.6856617136114" lon="3.3327755426088213"><ele>142.0</ele><time>2026-05-01T16:10:08Z</time></trkpt><trkpt lat="48.685708873869864" lon="3.3326279309362823"><ele>142.0</ele><time>2026-05-01T16:10:09Z</time></trkpt><trkpt lat="48.68575215258586" lon="3.3324997578154956"><ele>142.0</ele><time>2026-05-01T16:10:10Z</time></trkpt><trkpt lat="48.68579017534929" lon="3.332387193432032"><ele>142.0</ele><time>2026-05-01T16:10:11Z</time></trkpt><trkpt lat="48.68582198599988" lon="3.3322956192663447"><ele>142.0</ele><time>2026-05-01T16:10:12Z</time></trkpt><trkpt lat="48.68586892262979" lon="3.3321695983323782"><ele>142.0</ele><time>2026-05-01T16:10:14Z</time></trkpt><trkpt lat="48.68591633240425" lon="3.332021863594456"><ele>142.0</ele><time>2026-05-01T16:10:16Z</time></trkpt><trkpt lat="48.68595511382469" lon="3.3319352753341156"><ele>142.0</ele><time>2026-05-01T16:10:17Z</time></trkpt><trkpt lat="48.68606035639738" lon="3.331925967385121"><ele>142.0</ele><time>2026-05-01T16:10:20Z</time></trkpt><trkpt lat="48.68611583888929" lon="3.3319918861766795"><ele>142.0</ele><time>2026-05-01T16:10:21Z</time></trkpt><trkpt lat="48.68617156291731" lon="3.3320858914927705"><ele>142.0</ele><time>2026-05-01T16:10:22Z</time></trkpt><trkpt lat="48.68623502126383" lon="3.3321857539848896"><ele>142.0</ele><time>2026-05-01T16:10:23Z</time></trkpt><trkpt lat="48.68630721607876" lon="3.3322854797336743"><ele>142.0</ele><time>2026-05-01T16:10:24Z</time></trkpt><trkpt lat="48.686386836449515" lon="3.3323973292944298"><ele>142.0</ele><time>2026-05-01T16:10:25Z</time></trkpt><trkpt lat="48.68646135185963" lon="3.33250789287448"><ele>142.4</ele><time>2026-05-01T16:10:26Z</time></trkpt><trkpt lat="48.6865436414449" lon="3.3326218311419873"><ele>142.79999999999998</ele><time>2026-05-01T16:10:27Z</time></trkpt><trkpt lat="48.686631380202485" lon="3.332729018108256"><ele>143.2</ele><time>2026-05-01T16:10:28Z</time></trkpt><trkpt lat="48.68671785996723" lon="3.3328300593730162"><ele>143.6</ele><time>2026-05-01T16:10:29Z</time></trkpt><trkpt lat="48.686802783827915" lon="3.332937668577335"><ele>144.0</ele><time>2026-05-01T16:10:30Z</time></trkpt><trkpt lat="48.68688496059985" lon="3.333044200345118"><ele>144.6</ele><time>2026-05-01T16:10:31Z</time></trkpt><trkpt lat="48.68696417455605" lon="3.3331547201252425"><ele>145.2</ele><time>2026-05-01T16:10:32Z</time></trkpt><trkpt lat="48.687041760417976" lon="3.3332641785577044"><ele>145.79999999999998</ele><time>2026-05-01T16:10:33Z</time></trkpt><trkpt lat="48.687120623835526" lon="3.333373357494488"><ele>146.4</ele><time>2026-05-01T16:10:34Z</time></trkpt><trkpt lat="48.68720299734891" lon="3.3334753720028893"><ele>147.0</ele><time>2026-05-01T16:10:35Z</time></trkpt><trkpt lat="48.687282134598135" lon="3.3335827309629646"><ele>147.0</ele><time>2026-05-01T16:10:36Z</time></trkpt><trkpt lat="48.6873612179274" lon="3.333686464912371"><ele>147.0</ele><time>2026-05-01T16:10:37Z</time></trkpt><trkpt lat="48.68743874271515" lon="3.333792059553328"><ele>147.0</ele><time>2026-05-01T16:10:38Z</time></trkpt><trkpt lat="48.687514820217714" lon="3.333900262183579"><ele>147.0</ele><time>2026-05-01T16:10:39Z</time></trkpt><trkpt lat="48.68759254564696" lon="3.3340052363795336"><ele>147.0</ele><time>2026-05-01T16:10:40Z</time></trkpt><trkpt lat="48.68767329465811" lon="3.3341101904256227"><ele>147.2</ele><time>2026-05-01T16:10:41Z</time></trkpt><trkpt lat="48.68775636168209" lon="3.334208309470631"><ele>147.39999999999998</ele><time>2026-05-01T16:10:42Z</time></trkpt><trkpt lat="48.68783677482103" lon="3.3343080462186787"><ele>147.60000000000002</ele><time>2026-05-01T16:10:43Z</time></trkpt><trkpt lat="48.68790782183316" lon="3.3344111697329706"><ele>147.8</ele><time>2026-05-01T16:10:44Z</time></trkpt><trkpt lat="48.68797906863853" lon="3.3345155802943025"><ele>148.0</ele><time>2026-05-01T16:10:45Z</time></trkpt><trkpt lat="48.68805093317734" lon="3.3346143527042775"><ele>148.20000000000002</ele><time>2026-05-01T16:10:46Z</time></trkpt><trkpt lat="48.688125758142334" lon="3.3347114276097063"><ele>148.4</ele><time>2026-05-01T16:10:47Z</time></trkpt><trkpt lat="48.68820084500696" lon="3.3348134143439743"><ele>148.60000000000002</ele><time>2026-05-01T16:10:48Z</time></trkpt><trkpt lat="48.68828268858066" lon="3.334922631568969"><ele>148.8</ele><time>2026-05-01T16:10:49Z</time></trkpt><trkpt lat="48.68837208666966" lon="3.3350408986563873"><ele>149.0</ele><time>2026-05-01T16:10:50Z</time></trkpt><trkpt lat="48.688463694649066" lon="3.335162211429951"><ele>149.0</ele><time>2026-05-01T16:10:51Z</time></trkpt><trkpt lat="48.68855831402862" lon="3.3352896715130043"><ele>149.0</ele><time>2026-05-01T16:10:52Z</time></trkpt><trkpt lat="48.68866372209493" lon="3.3354363629900687"><ele>149.0</ele><time>2026-05-01T16:10:53Z</time></trkpt><trkpt lat="48.688770168490876" lon="3.335576453503213"><ele>149.0</ele><time>2026-05-01T16:10:54Z</time></trkpt><trkpt lat="48.68887302345269" lon="3.3357500584411865"><ele>150.0</ele><time>2026-05-01T16:10:55Z</time></trkpt><trkpt lat="48.68899365954084" lon="3.33591798638315"><ele>151.0</ele><time>2026-05-01T16:10:56Z</time></trkpt><trkpt lat="48.68913030258405" lon="3.336067753743403"><ele>152.0</ele><time>2026-05-01T16:10:57Z</time></trkpt><trkpt lat="48.68925981177643" lon="3.3362371019717663"><ele>152.33333333333331</ele><time>2026-05-01T16:10:58Z</time></trkpt><trkpt lat="48.689391728184965" lon="3.336421359908881"><ele>152.66666666666666</ele><time>2026-05-01T16:10:59Z</time></trkpt><trkpt lat="48.6895202484607" lon="3.336600818285626"><ele>153.0</ele><time>2026-05-01T16:11:00Z</time></trkpt><trkpt lat="48.68965626625229" lon="3.336790774070889"><ele>154.0</ele><time>2026-05-01T16:11:01Z</time></trkpt><trkpt lat="48.689795597489805" lon="3.336962577567468"><ele>155.0</ele><time>2026-05-01T16:11:02Z</time></trkpt><trkpt lat="48.68992024140544" lon="3.3371325317027747"><ele>156.0</ele><time>2026-05-01T16:11:03Z</time></trkpt><trkpt lat="48.690042712962175" lon="3.3372977328841382"><ele>156.0</ele><time>2026-05-01T16:11:04Z</time></trkpt><trkpt lat="48.69016273222526" lon="3.3374697188192077"><ele>156.0</ele><time>2026-05-01T16:11:05Z</time></trkpt><trkpt lat="48.69028921298525" lon="3.3376364400983496"><ele>156.0</ele><time>2026-05-01T16:11:06Z</time></trkpt><trkpt lat="48.69040246159827" lon="3.3377816550787025"><ele>156.6</ele><time>2026-05-01T16:11:07Z</time></trkpt><trkpt lat="48.69050689500234" lon="3.3379164614318353"><ele>157.2</ele><time>2026-05-01T16:11:08Z</time></trkpt><trkpt lat="48.69059724078677" lon="3.3380313611563417"><ele>157.8</ele><time>2026-05-01T16:11:09Z</time></trkpt><trkpt lat="48.69067789746053" lon="3.338129452789595"><ele>158.4</ele><time>2026-05-01T16:11:10Z</time></trkpt><trkpt lat="48.69074329665473" lon="3.338203187136995"><ele>159.0</ele><time>2026-05-01T16:11:11Z</time></trkpt><trkpt lat="48.690822675813166" lon="3.33829317848278"><ele>159.0</ele><time>2026-05-01T16:11:13Z</time></trkpt><trkpt lat="48.69089822259273" lon="3.3384004158082794"><ele>159.0</ele><time>2026-05-01T16:11:18Z</time></trkpt><trkpt lat="48.69096901122273" lon="3.338471776973595"><ele>159.0</ele><time>2026-05-01T16:11:19Z</time></trkpt><trkpt lat="48.691007407826355" lon="3.338102942030833"><ele>159.0</ele><time>2026-05-01T16:11:20Z</time></trkpt><trkpt lat="48.69102447571825" lon="3.337942978188951"><ele>160.5</ele><time>2026-05-01T16:11:21Z</time></trkpt><trkpt lat="48.69139462823961" lon="3.337842682408594"><ele>162.0</ele><time>2026-05-01T16:11:22Z</time></trkpt><trkpt lat="48.69150337552526" lon="3.337705959635126"><ele>162.0</ele><time>2026-05-01T16:11:23Z</time></trkpt><trkpt lat="48.691618344981634" lon="3.3375427095122223"><ele>162.0</ele><time>2026-05-01T16:11:24Z</time></trkpt><trkpt lat="48.69173191882858" lon="3.3374150195695065"><ele>162.0</ele><time>2026-05-01T16:11:25Z</time></trkpt><trkpt lat="48.69184462151299" lon="3.337291160673068"><ele>162.0</ele><time>2026-05-01T16:11:26Z</time></trkpt><trkpt lat="48.69196480323119" lon="3.337178276504744"><ele>162.0</ele><time>2026-05-01T16:11:27Z</time></trkpt><trkpt lat="48.692083813019984" lon="3.33705919650275"><ele>162.0</ele><time>2026-05-01T16:11:28Z</time></trkpt><trkpt lat="48.69220643892607" lon="3.3369398016101743"><ele>162.0</ele><time>2026-05-01T16:11:29Z</time></trkpt><trkpt lat="48.69232989892166" lon="3.3368332490803674"><ele>162.0</ele><time>2026-05-01T16:11:30Z</time></trkpt><trkpt lat="48.69245507515901" lon="3.336725124857788"><ele>162.0</ele><time>2026-05-01T16:11:31Z</time></trkpt><trkpt lat="48.692585146062406" lon="3.336625957192196"><ele>162.0</ele><time>2026-05-01T16:11:32Z</time></trkpt><trkpt lat="48.69271719456442" lon="3.3365284169929375"><ele>162.0</ele><time>2026-05-01T16:11:33Z</time></trkpt><trkpt lat="48.692852631308284" lon="3.3364449944118966"><ele>162.0</ele><time>2026-05-01T16:11:34Z</time></trkpt><trkpt lat="48.692986869685974" lon="3.3363582764122146"><ele>162.39999999999998</ele><time>2026-05-01T16:11:35Z</time></trkpt><trkpt lat="48.69310166194838" lon="3.336282832367805"><ele>162.79999999999998</ele><time>2026-05-01T16:11:36Z</time></trkpt><trkpt lat="48.69320076258593" lon="3.3362179833437797"><ele>163.2</ele><time>2026-05-01T16:11:37Z</time></trkpt><trkpt lat="48.69328573211037" lon="3.336160152172832"><ele>163.6</ele><time>2026-05-01T16:11:38Z</time></trkpt><trkpt lat="48.69335402556644" lon="3.336120076212206"><ele>164.0</ele><time>2026-05-01T16:11:39Z</time></trkpt><trkpt lat="48.69346071180638" lon="3.336071056867884"><ele>164.0</ele><time>2026-05-01T16:11:41Z</time></trkpt><trkpt lat="48.693528965390925" lon="3.336042936141233"><ele>164.0</ele><time>2026-05-01T16:11:42Z</time></trkpt><trkpt lat="48.69361958145481" lon="3.335995525417745"><ele>164.0</ele><time>2026-05-01T16:11:43Z</time></trkpt><trkpt lat="48.69371265559778" lon="3.3359467779043506"><ele>164.0</ele><time>2026-05-01T16:11:44Z</time></trkpt><trkpt lat="48.69381399525071" lon="3.335891293005214"><ele>164.0</ele><time>2026-05-01T16:11:45Z</time></trkpt><trkpt lat="48.6939185595352" lon="3.335831273281032"><ele>163.75</ele><time>2026-05-01T16:11:46Z</time></trkpt><trkpt lat="48.69402834625671" lon="3.3357661744736453"><ele>163.5</ele><time>2026-05-01T16:11:47Z</time></trkpt><trkpt lat="48.694138917224386" lon="3.335699611050532"><ele>163.25</ele><time>2026-05-01T16:11:48Z</time></trkpt><trkpt lat="48.69425449263398" lon="3.3356403095374563"><ele>163.0</ele><time>2026-05-01T16:11:49Z</time></trkpt><trkpt lat="48.69437546945009" lon="3.335589667790239"><ele>163.0</ele><time>2026-05-01T16:11:50Z</time></trkpt><trkpt lat="48.69449679520217" lon="3.3355253211642353"><ele>163.0</ele><time>2026-05-01T16:11:51Z</time></trkpt><trkpt lat="48.694623440129966" lon="3.335461206295358"><ele>163.0</ele><time>2026-05-01T16:11:52Z</time></trkpt><trkpt lat="48.6947583345092" lon="3.3354037970469417"><ele>163.0</ele><time>2026-05-01T16:11:53Z</time></trkpt><trkpt lat="48.69488464699038" lon="3.335342926195554"><ele>163.0</ele><time>2026-05-01T16:11:54Z</time></trkpt><trkpt lat="48.69501671964926" lon="3.335285218710744"><ele>163.0</ele><time>2026-05-01T16:11:55Z</time></trkpt><trkpt lat="48.69513804888813" lon="3.335232628042682"><ele>163.0</ele><time>2026-05-01T16:11:56Z</time></trkpt><trkpt lat="48.69524256943094" lon="3.3351840225954654"><ele>163.0</ele><time>2026-05-01T16:11:57Z</time></trkpt><trkpt lat="48.69535338266769" lon="3.33516194561967"><ele>163.0</ele><time>2026-05-01T16:11:58Z</time></trkpt><trkpt lat="48.69547110189872" lon="3.3351454450318725"><ele>163.0</ele><time>2026-05-01T16:11:59Z</time></trkpt><trkpt lat="48.69558987032214" lon="3.335121097023351"><ele>163.0</ele><time>2026-05-01T16:12:00Z</time></trkpt><trkpt lat="48.69571080108902" lon="3.335101185392744"><ele>163.0</ele><time>2026-05-01T16:12:01Z</time></trkpt><trkpt lat="48.69583017338142" lon="3.335073409455568"><ele>163.0</ele><time>2026-05-01T16:12:02Z</time></trkpt><trkpt lat="48.69594836744914" lon="3.33506486781865"><ele>163.0</ele><time>2026-05-01T16:12:03Z</time></trkpt><trkpt lat="48.696060227858304" lon="3.3350320641274176"><ele>163.0</ele><time>2026-05-01T16:12:04Z</time></trkpt><trkpt lat="48.69616825402314" lon="3.33501316519443"><ele>163.0</ele><time>2026-05-01T16:12:05Z</time></trkpt><trkpt lat="48.6962790855514" lon="3.334979270196683"><ele>163.0</ele><time>2026-05-01T16:12:06Z</time></trkpt><trkpt lat="48.696382018872676" lon="3.334937384597431"><ele>163.0</ele><time>2026-05-01T16:12:07Z</time></trkpt><trkpt lat="48.69648574080781" lon="3.3348922114337856"><ele>163.0</ele><time>2026-05-01T16:12:08Z</time></trkpt><trkpt lat="48.69658923598875" lon="3.334829747081426"><ele>163.0</ele><time>2026-05-01T16:12:09Z</time></trkpt><trkpt lat="48.696680966730604" lon="3.334773232749428"><ele>163.0</ele><time>2026-05-01T16:12:10Z</time></trkpt><trkpt lat="48.6967577824306" lon="3.3347140052216133"><ele>163.16666666666669</ele><time>2026-05-01T16:12:11Z</time></trkpt><trkpt lat="48.69682053503905" lon="3.334631532631523"><ele>163.33333333333334</ele><time>2026-05-01T16:12:12Z</time></trkpt><trkpt lat="48.696873118328355" lon="3.334530842887927"><ele>163.5</ele><time>2026-05-01T16:12:13Z</time></trkpt><trkpt lat="48.69691189780906" lon="3.334419893686638"><ele>163.66666666666666</ele><time>2026-05-01T16:12:14Z</time></trkpt><trkpt lat="48.69694640696378" lon="3.3343031298720693"><ele>163.83333333333331</ele><time>2026-05-01T16:12:15Z</time></trkpt><trkpt lat="48.6969771534614" lon="3.334190856004291"><ele>164.0</ele><time>2026-05-01T16:12:16Z</time></trkpt><trkpt lat="48.69700870482957" lon="3.334102470233597"><ele>164.2</ele><time>2026-05-01T16:12:17Z</time></trkpt><trkpt lat="48.69705833671078" lon="3.3340049486544876"><ele>164.39999999999998</ele><time>2026-05-01T16:12:19Z</time></trkpt><trkpt lat="48.697148905245704" lon="3.333994630355391"><ele>164.6</ele><time>2026-05-01T16:12:22Z</time></trkpt><trkpt lat="48.697279187833296" lon="3.334078509225742"><ele>164.8</ele><time>2026-05-01T16:12:24Z</time></trkpt><trkpt lat="48.697355886855064" lon="3.3341236838507933"><ele>165.0</ele><time>2026-05-01T16:12:25Z</time></trkpt><trkpt lat="48.697431089193685" lon="3.334208680194521"><ele>165.0</ele><time>2026-05-01T16:12:26Z</time></trkpt><trkpt lat="48.69752169211768" lon="3.3342785303755487"><ele>165.0</ele><time>2026-05-01T16:12:27Z</time></trkpt><trkpt lat="48.69761981497738" lon="3.3343478978773358"><ele>165.0</ele><time>2026-05-01T16:12:28Z</time></trkpt><trkpt lat="48.69772424564593" lon="3.3343900588514925"><ele>165.0</ele><time>2026-05-01T16:12:29Z</time></trkpt><trkpt lat="48.69781598563443" lon="3.334351405820408"><ele>165.0</ele><time>2026-05-01T16:12:30Z</time></trkpt><trkpt lat="48.69788779241289" lon="3.3345555117079004"><ele>165.2</ele><time>2026-05-01T16:12:31Z</time></trkpt><trkpt lat="48.69796346627523" lon="3.3346426330509007"><ele>165.4</ele><time>2026-05-01T16:12:32Z</time></trkpt><trkpt lat="48.698041800609154" lon="3.334734353982156"><ele>165.60000000000002</ele><time>2026-05-01T16:12:33Z</time></trkpt><trkpt lat="48.69813105442018" lon="3.334806662573191"><ele>165.8</ele><time>2026-05-01T16:12:34Z</time></trkpt><trkpt lat="48.69822636318238" lon="3.334861362004807"><ele>166.0</ele><time>2026-05-01T16:12:35Z</time></trkpt><trkpt lat="48.69831966096328" lon="3.3349140626639118"><ele>166.0</ele><time>2026-05-01T16:12:36Z</time></trkpt><trkpt lat="48.698415474669225" lon="3.334959839370877"><ele>166.0</ele><time>2026-05-01T16:12:37Z</time></trkpt><trkpt lat="48.698513200523855" lon="3.335008242600456"><ele>166.0</ele><time>2026-05-01T16:12:38Z</time></trkpt><trkpt lat="48.69861163606188" lon="3.3350420170087807"><ele>166.0</ele><time>2026-05-01T16:12:39Z</time></trkpt><trkpt lat="48.698709204164956" lon="3.3350812719206666"><ele>166.0</ele><time>2026-05-01T16:12:40Z</time></trkpt><trkpt lat="48.69880460091547" lon="3.335141038508644"><ele>166.4</ele><time>2026-05-01T16:12:41Z</time></trkpt><trkpt lat="48.698904616813216" lon="3.335175963618409"><ele>166.8</ele><time>2026-05-01T16:12:42Z</time></trkpt><trkpt lat="48.69900754256353" lon="3.335211904759898"><ele>167.20000000000002</ele><time>2026-05-01T16:12:43Z</time></trkpt><trkpt lat="48.69911783587631" lon="3.3352191246491105"><ele>167.60000000000002</ele><time>2026-05-01T16:12:44Z</time></trkpt><trkpt lat="48.69922682619319" lon="3.3352561710037834"><ele>168.0</ele><time>2026-05-01T16:12:45Z</time></trkpt><trkpt lat="48.69933537814974" lon="3.335297666181902"><ele>168.0</ele><time>2026-05-01T16:12:46Z</time></trkpt><trkpt lat="48.69945199196051" lon="3.3352964828447935"><ele>168.0</ele><time>2026-05-01T16:12:47Z</time></trkpt><trkpt lat="48.69956144338723" lon="3.335303933023377"><ele>168.0</ele><time>2026-05-01T16:12:48Z</time></trkpt><trkpt lat="48.69967216561545" lon="3.3353097946469767"><ele>168.0</ele><time>2026-05-01T16:12:49Z</time></trkpt><trkpt lat="48.6997838503428" lon="3.3353204193832346"><ele>168.0</ele><time>2026-05-01T16:12:50Z</time></trkpt><trkpt lat="48.69989642735802" lon="3.3353272396837252"><ele>168.0</ele><time>2026-05-01T16:12:51Z</time></trkpt><trkpt lat="48.70000835849788" lon="3.335340775838818"><ele>168.0</ele><time>2026-05-01T16:12:52Z</time></trkpt><trkpt lat="48.70012189232831" lon="3.3353518994778066"><ele>168.0</ele><time>2026-05-01T16:12:53Z</time></trkpt><trkpt lat="48.700238479928366" lon="3.3353399508928763"><ele>168.0</ele><time>2026-05-01T16:12:54Z</time></trkpt><trkpt lat="48.700334591292815" lon="3.3353503083684943"><ele>168.0</ele><time>2026-05-01T16:12:55Z</time></trkpt><trkpt lat="48.70042036926724" lon="3.3353415336846584"><ele>168.60000000000002</ele><time>2026-05-01T16:12:56Z</time></trkpt><trkpt lat="48.70049797623695" lon="3.3353343283638313"><ele>169.20000000000002</ele><time>2026-05-01T16:12:57Z</time></trkpt><trkpt lat="48.70062377014863" lon="3.3352791593489424"><ele>169.8</ele><time>2026-05-01T16:12:59Z</time></trkpt><trkpt lat="48.700638308917796" lon="3.335172271397775"><ele>170.4</ele><time>2026-05-01T16:13:00Z</time></trkpt><trkpt lat="48.7006301120304" lon="3.3350362490057903"><ele>171.0</ele><time>2026-05-01T16:13:01Z</time></trkpt><trkpt lat="48.70064355920289" lon="3.334863754081849"><ele>171.0</ele><time>2026-05-01T16:13:02Z</time></trkpt><trkpt lat="48.70067873951872" lon="3.3346729516077542"><ele>171.0</ele><time>2026-05-01T16:13:03Z</time></trkpt><trkpt lat="48.70073057320942" lon="3.334473010620297"><ele>171.0</ele><time>2026-05-01T16:13:04Z</time></trkpt><trkpt lat="48.70079470123581" lon="3.3342652690456513"><ele>171.0</ele><time>2026-05-01T16:13:05Z</time></trkpt><trkpt lat="48.70088250544108" lon="3.334050074682143"><ele>171.0</ele><time>2026-05-01T16:13:06Z</time></trkpt><trkpt lat="48.70096196133524" lon="3.333821151637322"><ele>171.0</ele><time>2026-05-01T16:13:07Z</time></trkpt><trkpt lat="48.70105728311832" lon="3.3335882765565024"><ele>171.0</ele><time>2026-05-01T16:13:08Z</time></trkpt><trkpt lat="48.70114547100208" lon="3.3333537226414367"><ele>172.0</ele><time>2026-05-01T16:13:09Z</time></trkpt><trkpt lat="48.70123879844444" lon="3.3331172852015025"><ele>173.0</ele><time>2026-05-01T16:13:10Z</time></trkpt><trkpt lat="48.701336463700294" lon="3.332870133557835"><ele>174.0</ele><time>2026-05-01T16:13:11Z</time></trkpt><trkpt lat="48.70142985383175" lon="3.332655978226202"><ele>174.0</ele><time>2026-05-01T16:13:12Z</time></trkpt><trkpt lat="48.70149901261061" lon="3.3324577774430018"><ele>174.0</ele><time>2026-05-01T16:13:13Z</time></trkpt><trkpt lat="48.7015624513513" lon="3.332277857098313"><ele>174.0</ele><time>2026-05-01T16:13:14Z</time></trkpt><trkpt lat="48.701634506047625" lon="3.3321058339735097"><ele>174.0</ele><time>2026-05-01T16:13:15Z</time></trkpt><trkpt lat="48.7017170683863" lon="3.3319063769215926"><ele>173.33333333333334</ele><time>2026-05-01T16:13:16Z</time></trkpt><trkpt lat="48.70178963998001" lon="3.331674214316506"><ele>172.66666666666669</ele><time>2026-05-01T16:13:17Z</time></trkpt><trkpt lat="48.70186719834178" lon="3.3314345273992028"><ele>172.0</ele><time>2026-05-01T16:13:18Z</time></trkpt><trkpt lat="48.70195648373468" lon="3.331196721485597"><ele>172.0</ele><time>2026-05-01T16:13:19Z</time></trkpt><trkpt lat="48.7020402322614" lon="3.33096131273341"><ele>172.0</ele><time>2026-05-01T16:13:20Z</time></trkpt><trkpt lat="48.702122962630234" lon="3.3307226859457426"><ele>172.0</ele><time>2026-05-01T16:13:21Z</time></trkpt><trkpt lat="48.702221408124636" lon="3.330489880451679"><ele>171.0</ele><time>2026-05-01T16:13:22Z</time></trkpt><trkpt lat="48.702332959269604" lon="3.330277378230423"><ele>170.0</ele><time>2026-05-01T16:13:23Z</time></trkpt><trkpt lat="48.70243326713349" lon="3.3300743301587405"><ele>169.0</ele><time>2026-05-01T16:13:24Z</time></trkpt><trkpt lat="48.70253321349442" lon="3.3298809312550177"><ele>168.66666666666669</ele><time>2026-05-01T16:13:25Z</time></trkpt><trkpt lat="48.702646413254264" lon="3.32968587649605"><ele>168.33333333333334</ele><time>2026-05-01T16:13:26Z</time></trkpt><trkpt lat="48.70277038874872" lon="3.3294841770916186"><ele>168.0</ele><time>2026-05-01T16:13:27Z</time></trkpt><trkpt lat="48.70289371823537" lon="3.3292813697034593"><ele>168.66666666666666</ele><time>2026-05-01T16:13:28Z</time></trkpt><trkpt lat="48.70300438389637" lon="3.3290619485991826"><ele>169.33333333333331</ele><time>2026-05-01T16:13:29Z</time></trkpt><trkpt lat="48.70312031349138" lon="3.328844240728153"><ele>170.0</ele><time>2026-05-01T16:13:30Z</time></trkpt><trkpt lat="48.70324416269976" lon="3.3286219789937137"><ele>170.0</ele><time>2026-05-01T16:13:31Z</time></trkpt><trkpt lat="48.70336661037967" lon="3.328401279075123"><ele>170.0</ele><time>2026-05-01T16:13:32Z</time></trkpt><trkpt lat="48.7034893148948" lon="3.328182174613619"><ele>170.0</ele><time>2026-05-01T16:13:33Z</time></trkpt><trkpt lat="48.70358847544909" lon="3.32801745279436"><ele>170.25</ele><time>2026-05-01T16:13:34Z</time></trkpt><trkpt lat="48.7036845730254" lon="3.3278721601855277"><ele>170.5</ele><time>2026-05-01T16:13:35Z</time></trkpt><trkpt lat="48.703791978159835" lon="3.3277339102654637"><ele>170.75</ele><time>2026-05-01T16:13:36Z</time></trkpt><trkpt lat="48.703890788302424" lon="3.3275646088327924"><ele>171.0</ele><time>2026-05-01T16:13:37Z</time></trkpt><trkpt lat="48.703989507622175" lon="3.3273694625877837"><ele>171.0</ele><time>2026-05-01T16:13:38Z</time></trkpt><trkpt lat="48.70409522493328" lon="3.3271544885248763"><ele>171.0</ele><time>2026-05-01T16:13:39Z</time></trkpt><trkpt lat="48.70418986571636" lon="3.3269612766443406"><ele>171.0</ele><time>2026-05-01T16:13:40Z</time></trkpt><trkpt lat="48.704282791948415" lon="3.3267715806619274"><ele>171.0</ele><time>2026-05-01T16:13:41Z</time></trkpt><trkpt lat="48.7043821693795" lon="3.326592227602858"><ele>171.0</ele><time>2026-05-01T16:13:42Z</time></trkpt><trkpt lat="48.704491242118145" lon="3.326404570561042"><ele>171.0</ele><time>2026-05-01T16:13:43Z</time></trkpt><trkpt lat="48.704595311404105" lon="3.326197446797971"><ele>170.33333333333334</ele><time>2026-05-01T16:13:44Z</time></trkpt><trkpt lat="48.70470688358213" lon="3.3259739404723216"><ele>169.66666666666669</ele><time>2026-05-01T16:13:45Z</time></trkpt><trkpt lat="48.70482797187242" lon="3.3257502475305536"><ele>169.0</ele><time>2026-05-01T16:13:46Z</time></trkpt><trkpt lat="48.704939885647846" lon="3.3255431250689007"><ele>168.66666666666669</ele><time>2026-05-01T16:13:47Z</time></trkpt><trkpt lat="48.70502700780028" lon="3.325351045260857"><ele>168.33333333333334</ele><time>2026-05-01T16:13:48Z</time></trkpt><trkpt lat="48.70510980633904" lon="3.3251677917442115"><ele>168.0</ele><time>2026-05-01T16:13:49Z</time></trkpt><trkpt lat="48.70514516596413" lon="3.324937307382114"><ele>168.0</ele><time>2026-05-01T16:13:50Z</time></trkpt><trkpt lat="48.70514147794816" lon="3.3246735863317016"><ele>168.0</ele><time>2026-05-01T16:13:51Z</time></trkpt><trkpt lat="48.70511943715655" lon="3.3243965792614514"><ele>168.0</ele><time>2026-05-01T16:13:52Z</time></trkpt><trkpt lat="48.70510581271114" lon="3.324105145870062"><ele>167.0</ele><time>2026-05-01T16:13:53Z</time></trkpt><trkpt lat="48.70509909042528" lon="3.323819099852516"><ele>166.0</ele><time>2026-05-01T16:13:54Z</time></trkpt><trkpt lat="48.70508536240947" lon="3.3235338446970015"><ele>165.0</ele><time>2026-05-01T16:13:55Z</time></trkpt><trkpt lat="48.70507698458887" lon="3.323236880526384"><ele>164.66666666666666</ele><time>2026-05-01T16:13:56Z</time></trkpt><trkpt lat="48.705086131483476" lon="3.3229289850504284"><ele>164.33333333333331</ele><time>2026-05-01T16:13:57Z</time></trkpt><trkpt lat="48.70508841055714" lon="3.3226137340244226"><ele>164.0</ele><time>2026-05-01T16:13:58Z</time></trkpt><trkpt lat="48.70507907998403" lon="3.3223077798974363"><ele>163.33333333333331</ele><time>2026-05-01T16:13:59Z</time></trkpt><trkpt lat="48.705062659196464" lon="3.321997393775409"><ele>162.66666666666666</ele><time>2026-05-01T16:14:00Z</time></trkpt><trkpt lat="48.70505290482522" lon="3.321674230348479"><ele>162.0</ele><time>2026-05-01T16:14:01Z</time></trkpt><trkpt lat="48.70504471568991" lon="3.3213525015018175"><ele>161.66666666666666</ele><time>2026-05-01T16:14:02Z</time></trkpt><trkpt lat="48.70504328651286" lon="3.3210335510926203"><ele>161.33333333333331</ele><time>2026-05-01T16:14:03Z</time></trkpt><trkpt lat="48.705044956356815" lon="3.320753378739142"><ele>161.0</ele><time>2026-05-01T16:14:04Z</time></trkpt><trkpt lat="48.70503414710207" lon="3.3205337002050666"><ele>161.0</ele><time>2026-05-01T16:14:05Z</time></trkpt><trkpt lat="48.70503397144579" lon="3.3203540074984095"><ele>161.0</ele><time>2026-05-01T16:14:06Z</time></trkpt><trkpt lat="48.705035992699905" lon="3.3202065936262013"><ele>161.0</ele><time>2026-05-01T16:14:07Z</time></trkpt><trkpt lat="48.7050498390551" lon="3.3200906725563613"><ele>161.0</ele><time>2026-05-01T16:14:09Z</time></trkpt><trkpt lat="48.705165779037415" lon="3.3200792688855936"><ele>161.0</ele><time>2026-05-01T16:14:30Z</time></trkpt><trkpt lat="48.70527216762794" lon="3.32012213833395"><ele>161.0</ele><time>2026-05-01T16:14:31Z</time></trkpt><trkpt lat="48.70536154666691" lon="3.3201409652570075"><ele>161.0</ele><time>2026-05-01T16:14:32Z</time></trkpt><trkpt lat="48.70549451244946" lon="3.3201845383351896"><ele>161.0</ele><time>2026-05-01T16:14:33Z</time></trkpt><trkpt lat="48.70560595642655" lon="3.3202256315774124"><ele>161.0</ele><time>2026-05-01T16:14:34Z</time></trkpt><trkpt lat="48.70569497592955" lon="3.320249741630379"><ele>161.0</ele><time>2026-05-01T16:14:35Z</time></trkpt><trkpt lat="48.70578684310523" lon="3.320283347254652"><ele>161.0</ele><time>2026-05-01T16:14:36Z</time></trkpt><trkpt lat="48.70587359922934" lon="3.3203084726104515"><ele>161.0</ele><time>2026-05-01T16:14:37Z</time></trkpt><trkpt lat="48.70596200216021" lon="3.320335289053791"><ele>161.0</ele><time>2026-05-01T16:14:38Z</time></trkpt><trkpt lat="48.70606751815938" lon="3.3203660465344806"><ele>161.0</ele><time>2026-05-01T16:14:39Z</time></trkpt><trkpt lat="48.706182291465375" lon="3.3203981081553176"><ele>161.0</ele><time>2026-05-01T16:14:40Z</time></trkpt><trkpt lat="48.70630389549501" lon="3.320425398819647"><ele>161.5</ele><time>2026-05-01T16:14:41Z</time></trkpt><trkpt lat="48.7064310290115" lon="3.320461980028291"><ele>162.0</ele><time>2026-05-01T16:14:42Z</time></trkpt><trkpt lat="48.70656113016245" lon="3.320495859879925"><ele>162.5</ele><time>2026-05-01T16:14:43Z</time></trkpt><trkpt lat="48.706693300205075" lon="3.3205269265078323"><ele>163.0</ele><time>2026-05-01T16:14:44Z</time></trkpt><trkpt lat="48.70682668700578" lon="3.320549639785869"><ele>163.4</ele><time>2026-05-01T16:14:45Z</time></trkpt><trkpt lat="48.70693729746742" lon="3.3205660080447617"><ele>163.8</ele><time>2026-05-01T16:14:46Z</time></trkpt><trkpt lat="48.70702847900099" lon="3.3205659126549376"><ele>164.2</ele><time>2026-05-01T16:14:47Z</time></trkpt><trkpt lat="48.707127602609425" lon="3.3204866203013337"><ele>164.6</ele><time>2026-05-01T16:14:48Z</time></trkpt><trkpt lat="48.707246683536354" lon="3.3203992874751442"><ele>165.0</ele><time>2026-05-01T16:14:49Z</time></trkpt><trkpt lat="48.70737559581584" lon="3.320299224291828"><ele>165.0</ele><time>2026-05-01T16:14:50Z</time></trkpt><trkpt lat="48.70750497327681" lon="3.3201803507255354"><ele>165.0</ele><time>2026-05-01T16:14:51Z</time></trkpt><trkpt lat="48.70762585569407" lon="3.320034578845935"><ele>165.0</ele><time>2026-05-01T16:14:52Z</time></trkpt><trkpt lat="48.70774287267705" lon="3.3198791877209044"><ele>165.75</ele><time>2026-05-01T16:14:53Z</time></trkpt><trkpt lat="48.70786057515125" lon="3.31971930782609"><ele>166.5</ele><time>2026-05-01T16:14:54Z</time></trkpt><trkpt lat="48.707976621717094" lon="3.3195539763579"><ele>167.25</ele><time>2026-05-01T16:14:55Z</time></trkpt><trkpt lat="48.70807253532996" lon="3.319432074742411"><ele>168.0</ele><time>2026-05-01T16:14:56Z</time></trkpt><trkpt lat="48.70819649689468" lon="3.319331425172186"><ele>168.0</ele><time>2026-05-01T16:14:57Z</time></trkpt><trkpt lat="48.70834224575563" lon="3.3192784266433"><ele>168.0</ele><time>2026-05-01T16:14:58Z</time></trkpt><trkpt lat="48.70849279394892" lon="3.3192292804226606"><ele>168.0</ele><time>2026-05-01T16:14:59Z</time></trkpt><trkpt lat="48.708650293902" lon="3.3191927200037705"><ele>168.66666666666666</ele><time>2026-05-01T16:15:00Z</time></trkpt><trkpt lat="48.7088065816531" lon="3.319151449437463"><ele>169.33333333333331</ele><time>2026-05-01T16:15:01Z</time></trkpt><trkpt lat="48.70896817863041" lon="3.3190975710206674"><ele>170.0</ele><time>2026-05-01T16:15:02Z</time></trkpt><trkpt lat="48.709126905156474" lon="3.3190399697990154"><ele>170.0</ele><time>2026-05-01T16:15:03Z</time></trkpt><trkpt lat="48.70928762484526" lon="3.3189906872791552"><ele>170.0</ele><time>2026-05-01T16:15:04Z</time></trkpt><trkpt lat="48.70943929798648" lon="3.3189353787641496"><ele>170.0</ele><time>2026-05-01T16:15:05Z</time></trkpt><trkpt lat="48.70959956514274" lon="3.3188657990768444"><ele>170.0</ele><time>2026-05-01T16:15:06Z</time></trkpt><trkpt lat="48.709763527781995" lon="3.3187899833811527"><ele>170.0</ele><time>2026-05-01T16:15:07Z</time></trkpt><trkpt lat="48.70992677761652" lon="3.3187158982923384"><ele>170.0</ele><time>2026-05-01T16:15:08Z</time></trkpt><trkpt lat="48.7100896313103" lon="3.3186533771835975"><ele>169.33333333333331</ele><time>2026-05-01T16:15:09Z</time></trkpt><trkpt lat="48.71026440680586" lon="3.3185963510248238"><ele>168.66666666666666</ele><time>2026-05-01T16:15:10Z</time></trkpt><trkpt lat="48.71042388521596" lon="3.3185290645741543"><ele>168.0</ele><time>2026-05-01T16:15:11Z</time></trkpt><trkpt lat="48.710578507019" lon="3.318456331680036"><ele>168.0</ele><time>2026-05-01T16:15:12Z</time></trkpt><trkpt lat="48.71074540032524" lon="3.318396532062377"><ele>168.0</ele><time>2026-05-01T16:15:13Z</time></trkpt><trkpt lat="48.71091487891051" lon="3.3183396875734346"><ele>168.0</ele><time>2026-05-01T16:15:14Z</time></trkpt><trkpt lat="48.7110802274477" lon="3.3182763687888714"><ele>167.5</ele><time>2026-05-01T16:15:15Z</time></trkpt><trkpt lat="48.711237865859594" lon="3.3182134787243998"><ele>167.0</ele><time>2026-05-01T16:15:16Z</time></trkpt><trkpt lat="48.71136594317312" lon="3.318163979507628"><ele>166.5</ele><time>2026-05-01T16:15:17Z</time></trkpt><trkpt lat="48.71147342551889" lon="3.3181207666010146"><ele>166.0</ele><time>2026-05-01T16:15:18Z</time></trkpt><trkpt lat="48.71155709322028" lon="3.318081495449275"><ele>166.14285714285714</ele><time>2026-05-01T16:15:19Z</time></trkpt><trkpt lat="48.711618034389915" lon="3.318041378960754"><ele>166.2857142857143</ele><time>2026-05-01T16:15:20Z</time></trkpt><trkpt lat="48.71165143259833" lon="3.3179142776871977"><ele>166.42857142857144</ele><time>2026-05-01T16:15:22Z</time></trkpt><trkpt lat="48.71161939957361" lon="3.317820992633698"><ele>166.57142857142856</ele><time>2026-05-01T16:15:23Z</time></trkpt><trkpt lat="48.71156392670069" lon="3.3177714977292774"><ele>166.71428571428572</ele><time>2026-05-01T16:15:24Z</time></trkpt><trkpt lat="48.711528347031596" lon="3.3176477547957273"><ele>166.85714285714286</ele><time>2026-05-01T16:15:26Z</time></trkpt><trkpt lat="48.711508065614304" lon="3.3175468678345306"><ele>167.0</ele><time>2026-05-01T16:15:27Z</time></trkpt><trkpt lat="48.71145393770348" lon="3.317433239084742"><ele>167.0</ele><time>2026-05-01T16:15:28Z</time></trkpt><trkpt lat="48.7114006472585" lon="3.3172815591013376"><ele>167.0</ele><time>2026-05-01T16:15:29Z</time></trkpt><trkpt lat="48.71134847661118" lon="3.317100585820427"><ele>167.0</ele><time>2026-05-01T16:15:30Z</time></trkpt><trkpt lat="48.71129359428194" lon="3.316903484609459"><ele>167.0</ele><time>2026-05-01T16:15:31Z</time></trkpt><trkpt lat="48.711219894747636" lon="3.3167342324415072"><ele>167.16666666666666</ele><time>2026-05-01T16:15:32Z</time></trkpt><trkpt lat="48.71118107801565" lon="3.3166043603202238"><ele>167.33333333333331</ele><time>2026-05-01T16:15:33Z</time></trkpt><trkpt lat="48.71115224800937" lon="3.3164968141865456"><ele>167.5</ele><time>2026-05-01T16:15:34Z</time></trkpt><trkpt lat="48.71113136250944" lon="3.316405288086195"><ele>167.66666666666666</ele><time>2026-05-01T16:15:35Z</time></trkpt><trkpt lat="48.71109659982404" lon="3.316302701974859"><ele>167.83333333333334</ele><time>2026-05-01T16:15:36Z</time></trkpt><trkpt lat="48.71104155897913" lon="3.3161864925771285"><ele>168.0</ele><time>2026-05-01T16:15:37Z</time></trkpt><trkpt lat="48.710985218851405" lon="3.3160474662626083"><ele>168.0</ele><time>2026-05-01T16:15:38Z</time></trkpt><trkpt lat="48.710940051898554" lon="3.3158923623924816"><ele>168.0</ele><time>2026-05-01T16:15:39Z</time></trkpt><trkpt lat="48.71089264827825" lon="3.3157248566730977"><ele>168.0</ele><time>2026-05-01T16:15:40Z</time></trkpt><trkpt lat="48.71082532808442" lon="3.315561983243937"><ele>168.0</ele><time>2026-05-01T16:15:41Z</time></trkpt><trkpt lat="48.710766255229885" lon="3.3153721965314897"><ele>168.5</ele><time>2026-05-01T16:15:42Z</time></trkpt><trkpt lat="48.71071708091108" lon="3.3151652613865865"><ele>169.0</ele><time>2026-05-01T16:15:43Z</time></trkpt><trkpt lat="48.71065956010342" lon="3.3149636207434936"><ele>169.5</ele><time>2026-05-01T16:15:44Z</time></trkpt><trkpt lat="48.710612163283415" lon="3.3147465390454864"><ele>170.0</ele><time>2026-05-01T16:15:45Z</time></trkpt><trkpt lat="48.7105878061923" lon="3.3145021163318944"><ele>170.33333333333331</ele><time>2026-05-01T16:15:46Z</time></trkpt><trkpt lat="48.710561294631866" lon="3.31425868492686"><ele>170.66666666666666</ele><time>2026-05-01T16:15:47Z</time></trkpt><trkpt lat="48.710526370919695" lon="3.314011258309587"><ele>171.0</ele><time>2026-05-01T16:15:48Z</time></trkpt><trkpt lat="48.71048246334936" lon="3.313762052649089"><ele>171.33333333333334</ele><time>2026-05-01T16:15:49Z</time></trkpt><trkpt lat="48.710437187461466" lon="3.31350210905619"><ele>171.66666666666669</ele><time>2026-05-01T16:15:50Z</time></trkpt><trkpt lat="48.71039855687393" lon="3.313245145202998"><ele>172.0</ele><time>2026-05-01T16:15:51Z</time></trkpt><trkpt lat="48.71035205743889" lon="3.3129637735426174"><ele>172.0</ele><time>2026-05-01T16:15:52Z</time></trkpt><trkpt lat="48.71027828955369" lon="3.3126703491870253"><ele>172.0</ele><time>2026-05-01T16:15:53Z</time></trkpt><trkpt lat="48.7102158836132" lon="3.3123491455228598"><ele>172.0</ele><time>2026-05-01T16:15:54Z</time></trkpt><trkpt lat="48.71025650101789" lon="3.3121672276514382"><ele>172.66666666666669</ele><time>2026-05-01T16:15:55Z</time></trkpt><trkpt lat="48.71025623753418" lon="3.3118857892568383"><ele>173.33333333333334</ele><time>2026-05-01T16:15:56Z</time></trkpt><trkpt lat="48.71027413926777" lon="3.3116014421473703"><ele>174.0</ele><time>2026-05-01T16:15:57Z</time></trkpt><trkpt lat="48.710294696390555" lon="3.311315894244717"><ele>174.66666666666666</ele><time>2026-05-01T16:15:58Z</time></trkpt><trkpt lat="48.71030334501444" lon="3.3110247452084014"><ele>175.33333333333331</ele><time>2026-05-01T16:15:59Z</time></trkpt><trkpt lat="48.7103108154618" lon="3.3107366604168487"><ele>176.0</ele><time>2026-05-01T16:16:00Z</time></trkpt><trkpt lat="48.7103278862739" lon="3.3104515439474786"><ele>176.0</ele><time>2026-05-01T16:16:01Z</time></trkpt><trkpt lat="48.710339776005455" lon="3.310172337123715"><ele>176.0</ele><time>2026-05-01T16:16:02Z</time></trkpt><trkpt lat="48.71034902582087" lon="3.309889908842435"><ele>176.0</ele><time>2026-05-01T16:16:03Z</time></trkpt><trkpt lat="48.71034926308101" lon="3.309599941567198"><ele>176.0</ele><time>2026-05-01T16:16:04Z</time></trkpt><trkpt lat="48.71036515913601" lon="3.3093202065790157"><ele>176.0</ele><time>2026-05-01T16:16:05Z</time></trkpt><trkpt lat="48.71037450223182" lon="3.3090357635403547"><ele>176.0</ele><time>2026-05-01T16:16:06Z</time></trkpt><trkpt lat="48.710380920989564" lon="3.3087455892443316"><ele>176.0</ele><time>2026-05-01T16:16:07Z</time></trkpt><trkpt lat="48.71038673628693" lon="3.308452955679613"><ele>176.0</ele><time>2026-05-01T16:16:08Z</time></trkpt><trkpt lat="48.710388182666875" lon="3.3082031171616815"><ele>176.0</ele><time>2026-05-01T16:16:09Z</time></trkpt><trkpt lat="48.71039790515665" lon="3.3079958691033244"><ele>176.0</ele><time>2026-05-01T16:16:10Z</time></trkpt><trkpt lat="48.71040938951059" lon="3.307804607819125"><ele>176.0</ele><time>2026-05-01T16:16:11Z</time></trkpt><trkpt lat="48.71041399408478" lon="3.307647870613376"><ele>176.0</ele><time>2026-05-01T16:16:12Z</time></trkpt><trkpt lat="48.71041721683916" lon="3.307494451163081"><ele>176.0</ele><time>2026-05-01T16:16:13Z</time></trkpt><trkpt lat="48.710423258206696" lon="3.3073366448579895"><ele>176.0</ele><time>2026-05-01T16:16:14Z</time></trkpt><trkpt lat="48.7104346812303" lon="3.307177966542636"><ele>176.20000000000002</ele><time>2026-05-01T16:16:15Z</time></trkpt><trkpt lat="48.710442400275966" lon="3.307013007651358"><ele>176.4</ele><time>2026-05-01T16:16:16Z</time></trkpt><trkpt lat="48.71044590146344" lon="3.306850738311918"><ele>176.6</ele><time>2026-05-01T16:16:17Z</time></trkpt><trkpt lat="48.71044500635463" lon="3.3067008154546693"><ele>176.8</ele><time>2026-05-01T16:16:18Z</time></trkpt><trkpt lat="48.71044400506114" lon="3.3065819319143253"><ele>177.0</ele><time>2026-05-01T16:16:19Z</time></trkpt><trkpt lat="48.71044660682322" lon="3.3064852979098966"><ele>177.0</ele><time>2026-05-01T16:16:20Z</time></trkpt><trkpt lat="48.710475542220664" lon="3.3063257138974844"><ele>177.0</ele><time>2026-05-01T16:16:22Z</time></trkpt><trkpt lat="48.71048108107451" lon="3.306209442019022"><ele>177.0</ele><time>2026-05-01T16:16:24Z</time></trkpt><trkpt lat="48.7105035161564" lon="3.3061173645379394"><ele>177.0</ele><time>2026-05-01T16:16:26Z</time></trkpt><trkpt lat="48.710802086202165" lon="3.3059803165750155"><ele>177.0</ele><time>2026-05-01T16:16:28Z</time></trkpt><trkpt lat="48.71088920644323" lon="3.305898965190083"><ele>177.0</ele><time>2026-05-01T16:16:29Z</time></trkpt><trkpt lat="48.71098853368018" lon="3.305813971663466"><ele>177.0</ele><time>2026-05-01T16:16:30Z</time></trkpt><trkpt lat="48.71109156586816" lon="3.3057328014071956"><ele>177.0</ele><time>2026-05-01T16:16:31Z</time></trkpt><trkpt lat="48.7111875242103" lon="3.305649039866421"><ele>177.0</ele><time>2026-05-01T16:16:32Z</time></trkpt><trkpt lat="48.71126807091775" lon="3.305578572981398"><ele>177.0</ele><time>2026-05-01T16:16:33Z</time></trkpt><trkpt lat="48.71133696538466" lon="3.3055053004056725"><ele>177.0</ele><time>2026-05-01T16:16:34Z</time></trkpt><trkpt lat="48.71140071171717" lon="3.3054099049555843"><ele>177.0</ele><time>2026-05-01T16:16:35Z</time></trkpt><trkpt lat="48.71145558566945" lon="3.3052934949368735"><ele>177.0</ele><time>2026-05-01T16:16:36Z</time></trkpt><trkpt lat="48.71150262596127" lon="3.3051579869329526"><ele>177.0</ele><time>2026-05-01T16:16:37Z</time></trkpt><trkpt lat="48.71154082345852" lon="3.305009524488424"><ele>177.0</ele><time>2026-05-01T16:16:38Z</time></trkpt><trkpt lat="48.71157182140224" lon="3.304847044178241"><ele>177.0</ele><time>2026-05-01T16:16:39Z</time></trkpt><trkpt lat="48.711606223493796" lon="3.30467524111082"><ele>177.0</ele><time>2026-05-01T16:16:40Z</time></trkpt><trkpt lat="48.71164381768847" lon="3.3044946628150758"><ele>177.0</ele><time>2026-05-01T16:16:41Z</time></trkpt><trkpt lat="48.71168443731442" lon="3.3043115059894257"><ele>176.5</ele><time>2026-05-01T16:16:42Z</time></trkpt><trkpt lat="48.7117214617899" lon="3.304123565562082"><ele>176.0</ele><time>2026-05-01T16:16:43Z</time></trkpt><trkpt lat="48.71176017344523" lon="3.3039341246479226"><ele>175.5</ele><time>2026-05-01T16:16:44Z</time></trkpt><trkpt lat="48.71179542024113" lon="3.303740955306553"><ele>175.0</ele><time>2026-05-01T16:16:45Z</time></trkpt><trkpt lat="48.711835069329226" lon="3.3035485948782966"><ele>174.75</ele><time>2026-05-01T16:16:46Z</time></trkpt><trkpt lat="48.711873739913976" lon="3.30336085437321"><ele>174.5</ele><time>2026-05-01T16:16:47Z</time></trkpt><trkpt lat="48.711939344074295" lon="3.303184884781488"><ele>174.25</ele><time>2026-05-01T16:16:48Z</time></trkpt><trkpt lat="48.71197726257997" lon="3.3029981017817076"><ele>174.0</ele><time>2026-05-01T16:16:49Z</time></trkpt><trkpt lat="48.71201519823507" lon="3.3028112128929776"><ele>174.0</ele><time>2026-05-01T16:16:50Z</time></trkpt><trkpt lat="48.712052668761146" lon="3.302626188938086"><ele>174.0</ele><time>2026-05-01T16:16:51Z</time></trkpt><trkpt lat="48.71209044551892" lon="3.30243965285702"><ele>174.0</ele><time>2026-05-01T16:16:52Z</time></trkpt><trkpt lat="48.7121272438506" lon="3.3022579481002445"><ele>174.0</ele><time>2026-05-01T16:16:53Z</time></trkpt><trkpt lat="48.712164234520685" lon="3.3020752936041435"><ele>174.0</ele><time>2026-05-01T16:16:54Z</time></trkpt><trkpt lat="48.71220091188178" lon="3.3018941861816318"><ele>174.0</ele><time>2026-05-01T16:16:55Z</time></trkpt><trkpt lat="48.712237658672095" lon="3.301712735928591"><ele>174.0</ele><time>2026-05-01T16:16:56Z</time></trkpt><trkpt lat="48.71227418379956" lon="3.301532380213209"><ele>174.0</ele><time>2026-05-01T16:16:57Z</time></trkpt><trkpt lat="48.71230981882093" lon="3.3013564197116603"><ele>174.2</ele><time>2026-05-01T16:16:58Z</time></trkpt><trkpt lat="48.71234563607785" lon="3.3011795593586095"><ele>174.39999999999998</ele><time>2026-05-01T16:16:59Z</time></trkpt><trkpt lat="48.712379551076474" lon="3.3010120920752817"><ele>174.6</ele><time>2026-05-01T16:17:00Z</time></trkpt><trkpt lat="48.712410704948056" lon="3.3008582588362447"><ele>174.8</ele><time>2026-05-01T16:17:01Z</time></trkpt><trkpt lat="48.71244067291181" lon="3.3007102814282794"><ele>175.0</ele><time>2026-05-01T16:17:02Z</time></trkpt><trkpt lat="48.712468965899454" lon="3.30057443637551"><ele>175.0</ele><time>2026-05-01T16:17:03Z</time></trkpt><trkpt lat="48.71249361128612" lon="3.3004600051277024"><ele>175.0</ele><time>2026-05-01T16:17:04Z</time></trkpt><trkpt lat="48.712505909296524" lon="3.3003578608952675"><ele>175.0</ele><time>2026-05-01T16:17:05Z</time></trkpt><trkpt lat="48.71258482893998" lon="3.3002538568920374"><ele>175.0</ele><time>2026-05-01T16:17:07Z</time></trkpt><trkpt lat="48.71264806263384" lon="3.3002516940779913"><ele>175.0</ele><time>2026-05-01T16:17:08Z</time></trkpt><trkpt lat="48.71271430590777" lon="3.300274187283656"><ele>175.0</ele><time>2026-05-01T16:17:09Z</time></trkpt><trkpt lat="48.71278185815501" lon="3.3003076929606596"><ele>174.4</ele><time>2026-05-01T16:17:10Z</time></trkpt><trkpt lat="48.712857039277516" lon="3.300349238511785"><ele>173.8</ele><time>2026-05-01T16:17:11Z</time></trkpt><trkpt lat="48.712926774294964" lon="3.3003930133186947"><ele>173.2</ele><time>2026-05-01T16:17:12Z</time></trkpt><trkpt lat="48.712985672174945" lon="3.300429936414722"><ele>172.6</ele><time>2026-05-01T16:17:13Z</time></trkpt><trkpt lat="48.713094324981206" lon="3.3004791967288423"><ele>172.0</ele><time>2026-05-01T16:17:15Z</time></trkpt><trkpt lat="48.71322524739031" lon="3.3004176827300817"><ele>172.0</ele><time>2026-05-01T16:17:17Z</time></trkpt><trkpt lat="48.71323015189017" lon="3.3002561873665117"><ele>172.0</ele><time>2026-05-01T16:17:18Z</time></trkpt><trkpt lat="48.71324192461549" lon="3.3001339992969156"><ele>172.0</ele><time>2026-05-01T16:17:19Z</time></trkpt><trkpt lat="48.71327710203345" lon="3.3000135822280656"><ele>172.0</ele><time>2026-05-01T16:17:20Z</time></trkpt><trkpt lat="48.713303156205676" lon="3.2998445780116494"><ele>172.0</ele><time>2026-05-01T16:17:21Z</time></trkpt><trkpt lat="48.71333467999425" lon="3.2996506035468216"><ele>172.0</ele><time>2026-05-01T16:17:22Z</time></trkpt><trkpt lat="48.713367909878876" lon="3.2994480588292476"><ele>172.0</ele><time>2026-05-01T16:17:23Z</time></trkpt><trkpt lat="48.713394477563355" lon="3.299227164771702"><ele>172.0</ele><time>2026-05-01T16:17:24Z</time></trkpt><trkpt lat="48.7134370581221" lon="3.2990053759797724"><ele>172.0</ele><time>2026-05-01T16:17:25Z</time></trkpt><trkpt lat="48.71348785617865" lon="3.2987839761581648"><ele>172.0</ele><time>2026-05-01T16:17:26Z</time></trkpt><trkpt lat="48.71357420482129" lon="3.298564878435719"><ele>172.0</ele><time>2026-05-01T16:17:27Z</time></trkpt><trkpt lat="48.71364559982856" lon="3.298340591037971"><ele>172.0</ele><time>2026-05-01T16:17:28Z</time></trkpt><trkpt lat="48.71372050980996" lon="3.298105261342884"><ele>172.33333333333334</ele><time>2026-05-01T16:17:29Z</time></trkpt><trkpt lat="48.71378280383406" lon="3.2978565622082376"><ele>172.66666666666666</ele><time>2026-05-01T16:17:30Z</time></trkpt><trkpt lat="48.71386715581264" lon="3.297606838386657"><ele>173.0</ele><time>2026-05-01T16:17:31Z</time></trkpt><trkpt lat="48.71395126692833" lon="3.2973435703688154"><ele>173.0</ele><time>2026-05-01T16:17:32Z</time></trkpt><trkpt lat="48.71403491687274" lon="3.297083762818965"><ele>173.0</ele><time>2026-05-01T16:17:33Z</time></trkpt><trkpt lat="48.714107687085395" lon="3.2968542441551447"><ele>173.0</ele><time>2026-05-01T16:17:34Z</time></trkpt><trkpt lat="48.71416736352552" lon="3.2966502525876864"><ele>173.0</ele><time>2026-05-01T16:17:35Z</time></trkpt><trkpt lat="48.71423466765055" lon="3.2964896205368674"><ele>173.0</ele><time>2026-05-01T16:17:36Z</time></trkpt><trkpt lat="48.714282462490075" lon="3.2963382442205913"><ele>173.0</ele><time>2026-05-01T16:17:37Z</time></trkpt><trkpt lat="48.71431345097649" lon="3.2962069044830633"><ele>173.0</ele><time>2026-05-01T16:17:38Z</time></trkpt><trkpt lat="48.71434291249936" lon="3.296088599314833"><ele>173.0</ele><time>2026-05-01T16:17:39Z</time></trkpt><trkpt lat="48.71438994513191" lon="3.2959978240825247"><ele>172.60000000000002</ele><time>2026-05-01T16:17:40Z</time></trkpt><trkpt lat="48.714418728782185" lon="3.295906660203644"><ele>172.20000000000002</ele><time>2026-05-01T16:17:41Z</time></trkpt><trkpt lat="48.714446223258" lon="3.295812238030734"><ele>171.8</ele><time>2026-05-01T16:17:42Z</time></trkpt><trkpt lat="48.71449002583564" lon="3.2957259717512537"><ele>171.4</ele><time>2026-05-01T16:17:43Z</time></trkpt><trkpt lat="48.71464196714881" lon="3.2957308311926767"><ele>171.0</ele><time>2026-05-01T16:17:44Z</time></trkpt><trkpt lat="48.71478010368569" lon="3.2956964693222788"><ele>171.0</ele><time>2026-05-01T16:17:45Z</time></trkpt><trkpt lat="48.71493687920029" lon="3.2956642255120308"><ele>171.0</ele><time>2026-05-01T16:17:46Z</time></trkpt><trkpt lat="48.71510628209461" lon="3.295622394471076"><ele>171.0</ele><time>2026-05-01T16:17:47Z</time></trkpt><trkpt lat="48.71529224820311" lon="3.2955695404323935"><ele>169.33333333333334</ele><time>2026-05-01T16:17:48Z</time></trkpt><trkpt lat="48.715477467946044" lon="3.2955164061272995"><ele>167.66666666666669</ele><time>2026-05-01T16:17:49Z</time></trkpt><trkpt lat="48.715675130860454" lon="3.2954610715553"><ele>166.0</ele><time>2026-05-01T16:17:50Z</time></trkpt><trkpt lat="48.71588447590624" lon="3.2954073230699668"><ele>165.33333333333334</ele><time>2026-05-01T16:17:51Z</time></trkpt><trkpt lat="48.716100017583095" lon="3.295352296336466"><ele>164.66666666666666</ele><time>2026-05-01T16:17:52Z</time></trkpt><trkpt lat="48.71632040503757" lon="3.2952936511544877"><ele>164.0</ele><time>2026-05-01T16:17:53Z</time></trkpt><trkpt lat="48.71654727077996" lon="3.2952300323643064"><ele>164.0</ele><time>2026-05-01T16:17:54Z</time></trkpt><trkpt lat="48.71677663519074" lon="3.295165483044684"><ele>164.0</ele><time>2026-05-01T16:17:55Z</time></trkpt><trkpt lat="48.71701140803851" lon="3.295095724145722"><ele>163.0</ele><time>2026-05-01T16:17:56Z</time></trkpt><trkpt lat="48.71724686379891" lon="3.295030718461582"><ele>162.0</ele><time>2026-05-01T16:17:57Z</time></trkpt><trkpt lat="48.71748378262981" lon="3.2949675006144"><ele>162.0</ele><time>2026-05-01T16:17:58Z</time></trkpt><trkpt lat="48.717721271201896" lon="3.2949087671264974"><ele>162.0</ele><time>2026-05-01T16:17:59Z</time></trkpt><trkpt lat="48.71796114197508" lon="3.294850388074894"><ele>161.5</ele><time>2026-05-01T16:18:00Z</time></trkpt><trkpt lat="48.718203618087266" lon="3.2947902432635927"><ele>161.0</ele><time>2026-05-01T16:18:01Z</time></trkpt><trkpt lat="48.71844411439449" lon="3.294722506216506"><ele>161.5</ele><time>2026-05-01T16:18:02Z</time></trkpt><trkpt lat="48.71868305750253" lon="3.2946549503721023"><ele>162.0</ele><time>2026-05-01T16:18:03Z</time></trkpt><trkpt lat="48.718922627857836" lon="3.29458728666104"><ele>162.0</ele><time>2026-05-01T16:18:04Z</time></trkpt><trkpt lat="48.71916145034078" lon="3.2945211254716433"><ele>162.0</ele><time>2026-05-01T16:18:05Z</time></trkpt><trkpt lat="48.71940043526506" lon="3.2944590717268305"><ele>162.0</ele><time>2026-05-01T16:18:06Z</time></trkpt><trkpt lat="48.71963885954978" lon="3.2943962106923848"><ele>162.0</ele><time>2026-05-01T16:18:07Z</time></trkpt><trkpt lat="48.71987894873541" lon="3.294332748051912"><ele>162.0</ele><time>2026-05-01T16:18:08Z</time></trkpt><trkpt lat="48.72011932489713" lon="3.2942655845455557"><ele>162.0</ele><time>2026-05-01T16:18:09Z</time></trkpt><trkpt lat="48.72036149791438" lon="3.2941977704015586"><ele>161.5</ele><time>2026-05-01T16:18:10Z</time></trkpt><trkpt lat="48.72060337148153" lon="3.294131192220627"><ele>161.0</ele><time>2026-05-01T16:18:11Z</time></trkpt><trkpt lat="48.72084544777116" lon="3.294061755311339"><ele>161.0</ele><time>2026-05-01T16:18:12Z</time></trkpt><trkpt lat="48.7210879190889" lon="3.293998872883866"><ele>161.0</ele><time>2026-05-01T16:18:13Z</time></trkpt><trkpt lat="48.721333254433425" lon="3.293935309796307"><ele>161.0</ele><time>2026-05-01T16:18:14Z</time></trkpt><trkpt lat="48.72157785537759" lon="3.2938709033362756"><ele>161.0</ele><time>2026-05-01T16:18:15Z</time></trkpt><trkpt lat="48.72182324816072" lon="3.2938050926387015"><ele>160.5</ele><time>2026-05-01T16:18:16Z</time></trkpt><trkpt lat="48.72206874580518" lon="3.2937375924753862"><ele>160.0</ele><time>2026-05-01T16:18:17Z</time></trkpt><trkpt lat="48.72231372563988" lon="3.2936717962515423"><ele>160.0</ele><time>2026-05-01T16:18:18Z</time></trkpt><trkpt lat="48.722558271871755" lon="3.2936044208614903"><ele>160.0</ele><time>2026-05-01T16:18:19Z</time></trkpt><trkpt lat="48.72280178891223" lon="3.2935376528475895"><ele>159.5</ele><time>2026-05-01T16:18:20Z</time></trkpt><trkpt lat="48.72304233354901" lon="3.293470501422261"><ele>159.0</ele><time>2026-05-01T16:18:21Z</time></trkpt><trkpt lat="48.723287173978406" lon="3.2934027874805274"><ele>159.0</ele><time>2026-05-01T16:18:22Z</time></trkpt><trkpt lat="48.72352957482297" lon="3.2933409323950706"><ele>159.0</ele><time>2026-05-01T16:18:23Z</time></trkpt><trkpt lat="48.723770427425166" lon="3.293275691905443"><ele>160.0</ele><time>2026-05-01T16:18:24Z</time></trkpt><trkpt lat="48.72401338155386" lon="3.2932110789858107"><ele>161.0</ele><time>2026-05-01T16:18:25Z</time></trkpt><trkpt lat="48.72425366615231" lon="3.293144059268726"><ele>160.0</ele><time>2026-05-01T16:18:26Z</time></trkpt><trkpt lat="48.7244950244377" lon="3.293076713007966"><ele>159.0</ele><time>2026-05-01T16:18:27Z</time></trkpt><trkpt lat="48.724736183691135" lon="3.293009805749673"><ele>159.0</ele><time>2026-05-01T16:18:28Z</time></trkpt><trkpt lat="48.724977093775564" lon="3.2929453256550087"><ele>159.0</ele><time>2026-05-01T16:18:29Z</time></trkpt><trkpt lat="48.72521831692082" lon="3.292881744677149"><ele>159.0</ele><time>2026-05-01T16:18:30Z</time></trkpt><trkpt lat="48.72545831717913" lon="3.2928219376218113"><ele>159.0</ele><time>2026-05-01T16:18:31Z</time></trkpt><trkpt lat="48.725698697834886" lon="3.292756264457781"><ele>159.0</ele><time>2026-05-01T16:18:32Z</time></trkpt><trkpt lat="48.72593722237361" lon="3.292691009343088"><ele>159.0</ele><time>2026-05-01T16:18:33Z</time></trkpt><trkpt lat="48.726177038448654" lon="3.2926261294378354"><ele>159.5</ele><time>2026-05-01T16:18:34Z</time></trkpt><trkpt lat="48.72641366307863" lon="3.292558689751101"><ele>160.0</ele><time>2026-05-01T16:18:35Z</time></trkpt><trkpt lat="48.726650938623585" lon="3.292494284736399"><ele>160.0</ele><time>2026-05-01T16:18:36Z</time></trkpt><trkpt lat="48.726887643728034" lon="3.2924272838315765"><ele>160.0</ele><time>2026-05-01T16:18:37Z</time></trkpt><trkpt lat="48.727123227926754" lon="3.2923595093121842"><ele>160.5</ele><time>2026-05-01T16:18:38Z</time></trkpt><trkpt lat="48.72735927367727" lon="3.2922955575495494"><ele>161.0</ele><time>2026-05-01T16:18:39Z</time></trkpt><trkpt lat="48.72759618826291" lon="3.2922308302190535"><ele>163.0</ele><time>2026-05-01T16:18:40Z</time></trkpt><trkpt lat="48.7278323441837" lon="3.2921670260704126"><ele>165.0</ele><time>2026-05-01T16:18:41Z</time></trkpt><trkpt lat="48.72806919913421" lon="3.2921035714719906"><ele>165.0</ele><time>2026-05-01T16:18:42Z</time></trkpt><trkpt lat="48.72830525649565" lon="3.2920416458685713"><ele>165.0</ele><time>2026-05-01T16:18:43Z</time></trkpt><trkpt lat="48.728541108446144" lon="3.2919785254494314"><ele>166.0</ele><time>2026-05-01T16:18:44Z</time></trkpt><trkpt lat="48.72877802874881" lon="3.2919156886112266"><ele>167.0</ele><time>2026-05-01T16:18:45Z</time></trkpt><trkpt lat="48.729013699159374" lon="3.2918543189249148"><ele>167.0</ele><time>2026-05-01T16:18:46Z</time></trkpt><trkpt lat="48.729249607103014" lon="3.2917931134032887"><ele>167.0</ele><time>2026-05-01T16:18:47Z</time></trkpt><trkpt lat="48.72948234845832" lon="3.291728094232295"><ele>166.0</ele><time>2026-05-01T16:18:48Z</time></trkpt><trkpt lat="48.72971856561836" lon="3.2916608616001346"><ele>165.0</ele><time>2026-05-01T16:18:49Z</time></trkpt><trkpt lat="48.729943510742494" lon="3.291605732410001"><ele>165.0</ele><time>2026-05-01T16:18:50Z</time></trkpt><trkpt lat="48.73014351718521" lon="3.2915490954904185"><ele>165.0</ele><time>2026-05-01T16:18:51Z</time></trkpt><trkpt lat="48.73033823481081" lon="3.291493899265979"><ele>165.0</ele><time>2026-05-01T16:18:52Z</time></trkpt><trkpt lat="48.73052390643047" lon="3.2914461097525125"><ele>164.33333333333334</ele><time>2026-05-01T16:18:53Z</time></trkpt><trkpt lat="48.73070411334871" lon="3.2913994981782237"><ele>163.66666666666669</ele><time>2026-05-01T16:18:54Z</time></trkpt><trkpt lat="48.73088701944221" lon="3.291350227490967"><ele>163.0</ele><time>2026-05-01T16:18:55Z</time></trkpt><trkpt lat="48.73107669720607" lon="3.2912986434051508"><ele>163.0</ele><time>2026-05-01T16:18:56Z</time></trkpt><trkpt lat="48.73127728464877" lon="3.2912441128684855"><ele>163.0</ele><time>2026-05-01T16:18:57Z</time></trkpt><trkpt lat="48.73148530638168" lon="3.291194187152047"><ele>163.0</ele><time>2026-05-01T16:18:58Z</time></trkpt><trkpt lat="48.73169751511891" lon="3.2911401081775615"><ele>163.0</ele><time>2026-05-01T16:18:59Z</time></trkpt><trkpt lat="48.731910960224205" lon="3.291079674276122"><ele>163.0</ele><time>2026-05-01T16:19:00Z</time></trkpt><trkpt lat="48.73212733736836" lon="3.291015713940522"><ele>163.0</ele><time>2026-05-01T16:19:01Z</time></trkpt><trkpt lat="48.732344663460935" lon="3.2909530120397217"><ele>163.0</ele><time>2026-05-01T16:19:02Z</time></trkpt><trkpt lat="48.73256609773332" lon="3.2908890563049"><ele>163.0</ele><time>2026-05-01T16:19:03Z</time></trkpt><trkpt lat="48.732789102972895" lon="3.290832268498704"><ele>163.0</ele><time>2026-05-01T16:19:04Z</time></trkpt><trkpt lat="48.73301430506578" lon="3.290771688096358"><ele>163.0</ele><time>2026-05-01T16:19:05Z</time></trkpt><trkpt lat="48.73323334285995" lon="3.290706638425976"><ele>163.0</ele><time>2026-05-01T16:19:06Z</time></trkpt><trkpt lat="48.73342108375034" lon="3.2906525399524895"><ele>163.0</ele><time>2026-05-01T16:19:07Z</time></trkpt><trkpt lat="48.73357795792162" lon="3.2906103333366117"><ele>163.0</ele><time>2026-05-01T16:19:08Z</time></trkpt><trkpt lat="48.73370271894722" lon="3.2905805457241493"><ele>163.0</ele><time>2026-05-01T16:19:09Z</time></trkpt><trkpt lat="48.73379191163874" lon="3.2905608245005022"><ele>163.0</ele><time>2026-05-01T16:19:10Z</time></trkpt><trkpt lat="48.73385924833993" lon="3.290435861068382"><ele>163.0</ele><time>2026-05-01T16:19:12Z</time></trkpt><trkpt lat="48.733842815552244" lon="3.2902092666944154"><ele>163.0</ele><time>2026-05-01T16:19:14Z</time></trkpt><trkpt lat="48.7338396266277" lon="3.2900355626873696"><ele>163.0</ele><time>2026-05-01T16:19:15Z</time></trkpt><trkpt lat="48.73383662366174" lon="3.2898387938597056"><ele>163.0</ele><time>2026-05-01T16:19:16Z</time></trkpt><trkpt lat="48.73383609144538" lon="3.2896283994295787"><ele>163.0</ele><time>2026-05-01T16:19:17Z</time></trkpt><trkpt lat="48.73382610963845" lon="3.2894016242345927"><ele>163.0</ele><time>2026-05-01T16:19:18Z</time></trkpt><trkpt lat="48.733820041705876" lon="3.2891655931577612"><ele>162.66666666666669</ele><time>2026-05-01T16:19:19Z</time></trkpt><trkpt lat="48.733813655274645" lon="3.2889144227148375"><ele>162.33333333333334</ele><time>2026-05-01T16:19:20Z</time></trkpt><trkpt lat="48.733806708218616" lon="3.288652783753622"><ele>162.0</ele><time>2026-05-01T16:19:21Z</time></trkpt><trkpt lat="48.73380273554109" lon="3.288374455021586"><ele>162.0</ele><time>2026-05-01T16:19:22Z</time></trkpt><trkpt lat="48.73379550078732" lon="3.2880911971452886"><ele>162.0</ele><time>2026-05-01T16:19:23Z</time></trkpt><trkpt lat="48.733788507864894" lon="3.2878031223789126"><ele>162.0</ele><time>2026-05-01T16:19:24Z</time></trkpt><trkpt lat="48.733780055885596" lon="3.2875088215951602"><ele>162.0</ele><time>2026-05-01T16:19:25Z</time></trkpt><trkpt lat="48.73377944973924" lon="3.2872703502603193"><ele>162.0</ele><time>2026-05-01T16:19:26Z</time></trkpt><trkpt lat="48.73377578798848" lon="3.287056202911616"><ele>162.0</ele><time>2026-05-01T16:19:27Z</time></trkpt><trkpt lat="48.733765098630286" lon="3.2868697872066246"><ele>162.0</ele><time>2026-05-01T16:19:28Z</time></trkpt><trkpt lat="48.73375705016429" lon="3.2867030566208184"><ele>162.0</ele><time>2026-05-01T16:19:29Z</time></trkpt><trkpt lat="48.733755939903624" lon="3.2865720964813825"><ele>162.0</ele><time>2026-05-01T16:19:30Z</time></trkpt><trkpt lat="48.73377552673448" lon="3.286437113106438"><ele>162.0</ele><time>2026-05-01T16:19:31Z</time></trkpt><trkpt lat="48.733827772857936" lon="3.286282946251488"><ele>162.0</ele><time>2026-05-01T16:19:32Z</time></trkpt><trkpt lat="48.73391155672361" lon="3.2861172919611583"><ele>162.0</ele><time>2026-05-01T16:19:33Z</time></trkpt><trkpt lat="48.73400363219206" lon="3.285946502210151"><ele>162.0</ele><time>2026-05-01T16:19:34Z</time></trkpt><trkpt lat="48.734099346958764" lon="3.2857746977561084"><ele>162.0</ele><time>2026-05-01T16:19:35Z</time></trkpt><trkpt lat="48.73418895109519" lon="3.28559616322103"><ele>162.0</ele><time>2026-05-01T16:19:36Z</time></trkpt><trkpt lat="48.734273018551654" lon="3.2853988757460892"><ele>162.33333333333334</ele><time>2026-05-01T16:19:37Z</time></trkpt><trkpt lat="48.73435975069885" lon="3.2851822695401385"><ele>162.66666666666669</ele><time>2026-05-01T16:19:38Z</time></trkpt><trkpt lat="48.734441312367984" lon="3.2849537311242987"><ele>163.0</ele><time>2026-05-01T16:19:39Z</time></trkpt><trkpt lat="48.73452848946464" lon="3.2847220747326134"><ele>162.0</ele><time>2026-05-01T16:19:40Z</time></trkpt><trkpt lat="48.73462285940192" lon="3.284502194602177"><ele>161.0</ele><time>2026-05-01T16:19:41Z</time></trkpt><trkpt lat="48.73471975238412" lon="3.284262241093031"><ele>160.0</ele><time>2026-05-01T16:19:42Z</time></trkpt><trkpt lat="48.73482409809701" lon="3.2840201453748374"><ele>159.66666666666669</ele><time>2026-05-01T16:19:43Z</time></trkpt><trkpt lat="48.73491431918915" lon="3.2837937133920025"><ele>159.33333333333334</ele><time>2026-05-01T16:19:44Z</time></trkpt><trkpt lat="48.7349979889763" lon="3.283581459350933"><ele>159.0</ele><time>2026-05-01T16:19:45Z</time></trkpt><trkpt lat="48.735073290419145" lon="3.28341001101287"><ele>159.0</ele><time>2026-05-01T16:19:46Z</time></trkpt><trkpt lat="48.73514432238685" lon="3.2832455267328298"><ele>159.0</ele><time>2026-05-01T16:19:47Z</time></trkpt><trkpt lat="48.73520459207871" lon="3.2830839725625864"><ele>159.0</ele><time>2026-05-01T16:19:48Z</time></trkpt><trkpt lat="48.73526276292526" lon="3.2829468443715726"><ele>159.0</ele><time>2026-05-01T16:19:49Z</time></trkpt><trkpt lat="48.735295406332654" lon="3.2828508711861106"><ele>159.0</ele><time>2026-05-01T16:19:50Z</time></trkpt><trkpt lat="48.73529347085571" lon="3.282745844820484"><ele>159.0</ele><time>2026-05-01T16:19:51Z</time></trkpt><trkpt lat="48.73523633411779" lon="3.2826218037991985"><ele>159.0</ele><time>2026-05-01T16:19:52Z</time></trkpt><trkpt lat="48.73515506660128" lon="3.282528274422404"><ele>159.0</ele><time>2026-05-01T16:19:53Z</time></trkpt><trkpt lat="48.7350558307377" lon="3.282473062488178"><ele>159.0</ele><time>2026-05-01T16:19:54Z</time></trkpt><trkpt lat="48.734955885676015" lon="3.282393737098454"><ele>159.0</ele><time>2026-05-01T16:19:55Z</time></trkpt><trkpt lat="48.73485124805054" lon="3.28227105543398"><ele>158.25</ele><time>2026-05-01T16:19:56Z</time></trkpt><trkpt lat="48.734745816054335" lon="3.2821119041900033"><ele>157.5</ele><time>2026-05-01T16:19:57Z</time></trkpt><trkpt lat="48.73466645421506" lon="3.2819536301250722"><ele>156.75</ele><time>2026-05-01T16:19:58Z</time></trkpt><trkpt lat="48.73461953791055" lon="3.2818037210229107"><ele>156.0</ele><time>2026-05-01T16:19:59Z</time></trkpt><trkpt lat="48.73459318665595" lon="3.2816822072820973"><ele>156.0</ele><time>2026-05-01T16:20:00Z</time></trkpt><trkpt lat="48.734613314446705" lon="3.281512083922593"><ele>156.0</ele><time>2026-05-01T16:20:02Z</time></trkpt><trkpt lat="48.73465657772507" lon="3.2814272220252496"><ele>156.0</ele><time>2026-05-01T16:20:03Z</time></trkpt><trkpt lat="48.73470038953888" lon="3.2813130499020695"><ele>156.0</ele><time>2026-05-01T16:20:04Z</time></trkpt><trkpt lat="48.73473412521545" lon="3.281174780677909"><ele>156.0</ele><time>2026-05-01T16:20:05Z</time></trkpt><trkpt lat="48.73477386511856" lon="3.281026164899395"><ele>155.75</ele><time>2026-05-01T16:20:06Z</time></trkpt><trkpt lat="48.73481721306851" lon="3.280870987505818"><ele>155.5</ele><time>2026-05-01T16:20:07Z</time></trkpt><trkpt lat="48.734866719404444" lon="3.280718905876285"><ele>155.25</ele><time>2026-05-01T16:20:08Z</time></trkpt><trkpt lat="48.73492709659603" lon="3.2805696835000577"><ele>155.0</ele><time>2026-05-01T16:20:09Z</time></trkpt><trkpt lat="48.73499963151009" lon="3.2804285175221413"><ele>154.83333333333331</ele><time>2026-05-01T16:20:10Z</time></trkpt><trkpt lat="48.73507342717928" lon="3.2803160332494623"><ele>154.66666666666666</ele><time>2026-05-01T16:20:11Z</time></trkpt><trkpt lat="48.73514738909675" lon="3.280239742262589"><ele>154.5</ele><time>2026-05-01T16:20:12Z</time></trkpt><trkpt lat="48.735223202005855" lon="3.2801850376875166"><ele>154.33333333333334</ele><time>2026-05-01T16:20:13Z</time></trkpt><trkpt lat="48.73529012621545" lon="3.280137163167472"><ele>154.16666666666669</ele><time>2026-05-01T16:20:14Z</time></trkpt><trkpt lat="48.73534941865721" lon="3.2801008648840986"><ele>154.0</ele><time>2026-05-01T16:20:15Z</time></trkpt><trkpt lat="48.735409327987064" lon="3.2800671209731074"><ele>154.0</ele><time>2026-05-01T16:20:16Z</time></trkpt><trkpt lat="48.735469048313895" lon="3.280009585758495"><ele>154.0</ele><time>2026-05-01T16:20:17Z</time></trkpt><trkpt lat="48.73550723031862" lon="3.2799174223619048"><ele>154.0</ele><time>2026-05-01T16:20:18Z</time></trkpt><trkpt lat="48.73550564822275" lon="3.2797604279902117"><ele>154.0</ele><time>2026-05-01T16:20:20Z</time></trkpt><trkpt lat="48.73550274996455" lon="3.279571799076617"><ele>154.0</ele><time>2026-05-01T16:20:22Z</time></trkpt><trkpt lat="48.73549230581078" lon="3.279448932803214"><ele>154.16666666666669</ele><time>2026-05-01T16:20:23Z</time></trkpt><trkpt lat="48.73548160714863" lon="3.2793230724587406"><ele>154.33333333333334</ele><time>2026-05-01T16:20:24Z</time></trkpt><trkpt lat="48.73547030277778" lon="3.279190086493506"><ele>154.5</ele><time>2026-05-01T16:20:25Z</time></trkpt><trkpt lat="48.735458835907" lon="3.2790551888458244"><ele>154.66666666666666</ele><time>2026-05-01T16:20:26Z</time></trkpt><trkpt lat="48.73544763452052" lon="3.2789234143981116"><ele>154.83333333333331</ele><time>2026-05-01T16:20:27Z</time></trkpt><trkpt lat="48.73543628416522" lon="3.2787898874650208"><ele>155.0</ele><time>2026-05-01T16:20:28Z</time></trkpt><trkpt lat="48.735424476353195" lon="3.2786534702458248"><ele>155.33333333333331</ele><time>2026-05-01T16:20:29Z</time></trkpt><trkpt lat="48.73541209850708" lon="3.278514682660342"><ele>155.66666666666666</ele><time>2026-05-01T16:20:30Z</time></trkpt><trkpt lat="48.73540059375222" lon="3.2783856846838386"><ele>156.0</ele><time>2026-05-01T16:20:31Z</time></trkpt><trkpt lat="48.73538961329716" lon="3.2782625654572493"><ele>156.33333333333334</ele><time>2026-05-01T16:20:32Z</time></trkpt><trkpt lat="48.73537857520217" lon="3.2781387999429006"><ele>156.66666666666669</ele><time>2026-05-01T16:20:33Z</time></trkpt><trkpt lat="48.73536779806376" lon="3.2780179604223263"><ele>157.0</ele><time>2026-05-01T16:20:34Z</time></trkpt><trkpt lat="48.73535712488878" lon="3.277898286600626"><ele>157.0</ele><time>2026-05-01T16:20:35Z</time></trkpt><trkpt lat="48.73534656023063" lon="3.277779829532247"><ele>157.0</ele><time>2026-05-01T16:20:36Z</time></trkpt><trkpt lat="48.73533603898309" lon="3.2776618592079854"><ele>157.0</ele><time>2026-05-01T16:20:37Z</time></trkpt><trkpt lat="48.73532575425411" lon="3.277546540869985"><ele>157.0</ele><time>2026-05-01T16:20:38Z</time></trkpt><trkpt lat="48.73531559135472" lon="3.277432588549676"><ele>157.0</ele><time>2026-05-01T16:20:39Z</time></trkpt><trkpt lat="48.73530544315898" lon="3.277318801098237"><ele>157.0</ele><time>2026-05-01T16:20:40Z</time></trkpt><trkpt lat="48.73529598758292" lon="3.277204163059191"><ele>157.33333333333334</ele><time>2026-05-01T16:20:41Z</time></trkpt><trkpt lat="48.73527045584924" lon="3.2770922141727516"><ele>157.66666666666669</ele><time>2026-05-01T16:20:42Z</time></trkpt><trkpt lat="48.735266109630516" lon="3.276979015010871"><ele>158.0</ele><time>2026-05-01T16:20:43Z</time></trkpt><trkpt lat="48.73525379255408" lon="3.276870304745818"><ele>158.33333333333334</ele><time>2026-05-01T16:20:44Z</time></trkpt><trkpt lat="48.73524901193184" lon="3.2767736432606576"><ele>158.66666666666666</ele><time>2026-05-01T16:20:45Z</time></trkpt><trkpt lat="48.735249084048796" lon="3.276645014605186"><ele>159.0</ele><time>2026-05-01T16:20:47Z</time></trkpt><trkpt lat="48.73525315594999" lon="3.2765207447623106"><ele>159.0</ele><time>2026-05-01T16:20:50Z</time></trkpt><trkpt lat="48.73515476066141" lon="3.276344972744594"><ele>159.0</ele><time>2026-05-01T16:20:52Z</time></trkpt><trkpt lat="48.73509924423141" lon="3.2762649181695207"><ele>159.0</ele><time>2026-05-01T16:20:53Z</time></trkpt><trkpt lat="48.73505327700297" lon="3.276195054303888"><ele>159.0</ele><time>2026-05-01T16:20:54Z</time></trkpt><trkpt lat="48.73504619655634" lon="3.27602027007935"><ele>159.0</ele><time>2026-05-01T16:20:56Z</time></trkpt><trkpt lat="48.73507103848853" lon="3.275912819154872"><ele>159.0</ele><time>2026-05-01T16:20:57Z</time></trkpt><trkpt lat="48.73509244563838" lon="3.275799426267412"><ele>159.0</ele><time>2026-05-01T16:20:58Z</time></trkpt><trkpt lat="48.735115737944255" lon="3.2756835464576533"><ele>159.0</ele><time>2026-05-01T16:20:59Z</time></trkpt><trkpt lat="48.73513844268882" lon="3.2755644870610836"><ele>159.0</ele><time>2026-05-01T16:21:00Z</time></trkpt><trkpt lat="48.73516456344853" lon="3.275441878806803"><ele>159.0</ele><time>2026-05-01T16:21:01Z</time></trkpt><trkpt lat="48.73518817527196" lon="3.275317324977852"><ele>159.0</ele><time>2026-05-01T16:21:02Z</time></trkpt><trkpt lat="48.73521137315712" lon="3.27518854806011"><ele>159.16666666666666</ele><time>2026-05-01T16:21:03Z</time></trkpt><trkpt lat="48.735239581985596" lon="3.27506333029899"><ele>159.33333333333334</ele><time>2026-05-01T16:21:04Z</time></trkpt><trkpt lat="48.73527071476696" lon="3.2749425759360826"><ele>159.5</ele><time>2026-05-01T16:21:05Z</time></trkpt><trkpt lat="48.735302175326815" lon="3.2748271537781246"><ele>159.66666666666669</ele><time>2026-05-01T16:21:06Z</time></trkpt><trkpt lat="48.73534127421934" lon="3.2747198775310657"><ele>159.83333333333334</ele><time>2026-05-01T16:21:07Z</time></trkpt><trkpt lat="48.73539231029119" lon="3.274637408432587"><ele>160.0</ele><time>2026-05-01T16:21:08Z</time></trkpt><trkpt lat="48.73545313504068" lon="3.274572723088508"><ele>160.16666666666669</ele><time>2026-05-01T16:21:09Z</time></trkpt><trkpt lat="48.735525576176755" lon="3.274529581404985"><ele>160.33333333333334</ele><time>2026-05-01T16:21:10Z</time></trkpt><trkpt lat="48.7356102831654" lon="3.2745369882493045"><ele>160.5</ele><time>2026-05-01T16:21:11Z</time></trkpt><trkpt lat="48.73569369707506" lon="3.274517652823122"><ele>160.66666666666666</ele><time>2026-05-01T16:21:12Z</time></trkpt><trkpt lat="48.73578060437146" lon="3.274497507625879"><ele>160.83333333333331</ele><time>2026-05-01T16:21:13Z</time></trkpt><trkpt lat="48.73586893820247" lon="3.274477031754648"><ele>161.0</ele><time>2026-05-01T16:21:14Z</time></trkpt><trkpt lat="48.735954519944116" lon="3.2743201561711133"><ele>160.75</ele><time>2026-05-01T16:21:15Z</time></trkpt><trkpt lat="48.7360545809675" lon="3.274251266542664"><ele>160.5</ele><time>2026-05-01T16:21:16Z</time></trkpt><trkpt lat="48.73615805895837" lon="3.2741806752095783"><ele>160.25</ele><time>2026-05-01T16:21:17Z</time></trkpt><trkpt lat="48.736265753818856" lon="3.2741012026438243"><ele>160.0</ele><time>2026-05-01T16:21:18Z</time></trkpt><trkpt lat="48.736375538768925" lon="3.274013592620128"><ele>160.0</ele><time>2026-05-01T16:21:19Z</time></trkpt><trkpt lat="48.73648948315628" lon="3.273912373026496"><ele>160.0</ele><time>2026-05-01T16:21:20Z</time></trkpt><trkpt lat="48.73660315689186" lon="3.27380900524185"><ele>160.0</ele><time>2026-05-01T16:21:21Z</time></trkpt><trkpt lat="48.736721054690534" lon="3.2737065932465534"><ele>160.0</ele><time>2026-05-01T16:21:22Z</time></trkpt><trkpt lat="48.736839756516964" lon="3.2736060346601987"><ele>160.0</ele><time>2026-05-01T16:21:23Z</time></trkpt><trkpt lat="48.73696093616072" lon="3.273505662250984"><ele>160.0</ele><time>2026-05-01T16:21:24Z</time></trkpt><trkpt lat="48.73708001658662" lon="3.2733963334160485"><ele>160.0</ele><time>2026-05-01T16:21:25Z</time></trkpt><trkpt lat="48.73720055014946" lon="3.2732886291575642"><ele>160.0</ele><time>2026-05-01T16:21:26Z</time></trkpt><trkpt lat="48.73732179810045" lon="3.273184669257791"><ele>159.75</ele><time>2026-05-01T16:21:27Z</time></trkpt><trkpt lat="48.73744879694588" lon="3.2730786265611225"><ele>159.5</ele><time>2026-05-01T16:21:28Z</time></trkpt><trkpt lat="48.73757092200433" lon="3.27295493081613"><ele>159.25</ele><time>2026-05-01T16:21:29Z</time></trkpt><trkpt lat="48.73768307428096" lon="3.272807839357727"><ele>159.0</ele><time>2026-05-01T16:21:30Z</time></trkpt><trkpt lat="48.737779938971585" lon="3.272636782026633"><ele>158.5</ele><time>2026-05-01T16:21:31Z</time></trkpt><trkpt lat="48.73787165028074" lon="3.272479805839828"><ele>158.0</ele><time>2026-05-01T16:21:32Z</time></trkpt><trkpt lat="48.73796011815949" lon="3.2723070126415146"><ele>157.5</ele><time>2026-05-01T16:21:33Z</time></trkpt><trkpt lat="48.7380493627681" lon="3.272136600161956"><ele>157.0</ele><time>2026-05-01T16:21:34Z</time></trkpt><trkpt lat="48.738143657058394" lon="3.2719746114373995"><ele>156.5</ele><time>2026-05-01T16:21:35Z</time></trkpt><trkpt lat="48.738234490280824" lon="3.2718070380726005"><ele>156.0</ele><time>2026-05-01T16:21:36Z</time></trkpt><trkpt lat="48.73832682219474" lon="3.271642434666952"><ele>155.5</ele><time>2026-05-01T16:21:37Z</time></trkpt><trkpt lat="48.73842251239028" lon="3.271470470960612"><ele>155.0</ele><time>2026-05-01T16:21:38Z</time></trkpt><trkpt lat="48.73851517540905" lon="3.2712970173493234"><ele>155.0</ele><time>2026-05-01T16:21:39Z</time></trkpt><trkpt lat="48.73861487865848" lon="3.271127545701134"><ele>155.0</ele><time>2026-05-01T16:21:40Z</time></trkpt><trkpt lat="48.73870934283563" lon="3.2709597162039867"><ele>155.0</ele><time>2026-05-01T16:21:41Z</time></trkpt><trkpt lat="48.73880577144527" lon="3.2707945720190446"><ele>155.0</ele><time>2026-05-01T16:21:42Z</time></trkpt><trkpt lat="48.738887953878944" lon="3.2706408497528674"><ele>154.5</ele><time>2026-05-01T16:21:43Z</time></trkpt><trkpt lat="48.73896090849909" lon="3.2705039203071964"><ele>154.0</ele><time>2026-05-01T16:21:44Z</time></trkpt><trkpt lat="48.739024095216585" lon="3.2703526807648706"><ele>153.5</ele><time>2026-05-01T16:21:45Z</time></trkpt><trkpt lat="48.739077439310165" lon="3.2701866685014194"><ele>153.0</ele><time>2026-05-01T16:21:46Z</time></trkpt><trkpt lat="48.73910001610635" lon="3.2699922358957316"><ele>153.0</ele><time>2026-05-01T16:21:47Z</time></trkpt><trkpt lat="48.7391048279022" lon="3.2697964602992062"><ele>153.0</ele><time>2026-05-01T16:21:48Z</time></trkpt><trkpt lat="48.739116125096366" lon="3.2695843181277575"><ele>153.0</ele><time>2026-05-01T16:21:49Z</time></trkpt><trkpt lat="48.73914736321739" lon="3.2693624895569884"><ele>153.0</ele><time>2026-05-01T16:21:50Z</time></trkpt><trkpt lat="48.73919670903804" lon="3.269141630808191"><ele>153.0</ele><time>2026-05-01T16:21:51Z</time></trkpt><trkpt lat="48.739247242802556" lon="3.268958912627444"><ele>153.0</ele><time>2026-05-01T16:21:52Z</time></trkpt><trkpt lat="48.739294561265325" lon="3.268798155005176"><ele>153.0</ele><time>2026-05-01T16:21:53Z</time></trkpt><trkpt lat="48.73933274540022" lon="3.268670093098443"><ele>153.0</ele><time>2026-05-01T16:21:54Z</time></trkpt><trkpt lat="48.73934815751998" lon="3.2685687941903945"><ele>153.0</ele><time>2026-05-01T16:21:55Z</time></trkpt><trkpt lat="48.73926556896273" lon="3.2684649867989375"><ele>153.5</ele><time>2026-05-01T16:21:58Z</time></trkpt><trkpt lat="48.739161321350714" lon="3.268511957021461"><ele>154.0</ele><time>2026-05-01T16:21:59Z</time></trkpt><trkpt lat="48.73903671034671" lon="3.2685426220009717"><ele>154.5</ele><time>2026-05-01T16:22:00Z</time></trkpt><trkpt lat="48.7389024594993" lon="3.2685496846958073"><ele>155.0</ele><time>2026-05-01T16:22:01Z</time></trkpt><trkpt lat="48.73875334760753" lon="3.2685246398012717"><ele>155.0</ele><time>2026-05-01T16:22:02Z</time></trkpt><trkpt lat="48.73858673412539" lon="3.268539667361676"><ele>155.0</ele><time>2026-05-01T16:22:03Z</time></trkpt><trkpt lat="48.73842078881958" lon="3.268557688780745"><ele>155.0</ele><time>2026-05-01T16:22:04Z</time></trkpt><trkpt lat="48.73828525255927" lon="3.268572195707189"><ele>154.8</ele><time>2026-05-01T16:22:05Z</time></trkpt><trkpt lat="48.73817235453775" lon="3.2685802256062093"><ele>154.6</ele><time>2026-05-01T16:22:06Z</time></trkpt><trkpt lat="48.73806083355449" lon="3.2685885081118182"><ele>154.4</ele><time>2026-05-01T16:22:07Z</time></trkpt><trkpt lat="48.73796484171055" lon="3.2685961398291985"><ele>154.2</ele><time>2026-05-01T16:22:08Z</time></trkpt><trkpt lat="48.73788323877501" lon="3.2686026275729976"><ele>154.0</ele><time>2026-05-01T16:22:09Z</time></trkpt><trkpt lat="48.73781534270156" lon="3.268608025569045"><ele>154.0</ele><time>2026-05-01T16:22:10Z</time></trkpt><trkpt lat="48.73773793431891" lon="3.2685840373319484"><ele>154.0</ele><time>2026-05-01T16:22:12Z</time></trkpt><trkpt lat="48.737778070730215" lon="3.2682400615372336"><ele>154.0</ele><time>2026-05-01T16:22:14Z</time></trkpt><trkpt lat="48.73778519501916" lon="3.268060092501778"><ele>154.0</ele><time>2026-05-01T16:22:15Z</time></trkpt><trkpt lat="48.73779825712901" lon="3.26785227252463"><ele>154.0</ele><time>2026-05-01T16:22:16Z</time></trkpt><trkpt lat="48.73782164498632" lon="3.267633513838411"><ele>154.0</ele><time>2026-05-01T16:22:17Z</time></trkpt><trkpt lat="48.73783816784145" lon="3.2674067598465797"><ele>154.0</ele><time>2026-05-01T16:22:18Z</time></trkpt><trkpt lat="48.737860294577146" lon="3.2671690846214747"><ele>154.0</ele><time>2026-05-01T16:22:19Z</time></trkpt><trkpt lat="48.73787771750268" lon="3.266918633237663"><ele>154.0</ele><time>2026-05-01T16:22:20Z</time></trkpt><trkpt lat="48.73789901876127" lon="3.266675592093276"><ele>154.0</ele><time>2026-05-01T16:22:21Z</time></trkpt><trkpt lat="48.737918917624036" lon="3.2664216707954323"><ele>154.33333333333334</ele><time>2026-05-01T16:22:22Z</time></trkpt><trkpt lat="48.7379386876697" lon="3.2661691808037983"><ele>154.66666666666666</ele><time>2026-05-01T16:22:23Z</time></trkpt><trkpt lat="48.737960501121655" lon="3.2659046682690285"><ele>155.0</ele><time>2026-05-01T16:22:24Z</time></trkpt><trkpt lat="48.737982739542296" lon="3.2656205176969366"><ele>156.0</ele><time>2026-05-01T16:22:25Z</time></trkpt><trkpt lat="48.738015115616115" lon="3.2652842452332114"><ele>157.0</ele><time>2026-05-01T16:22:26Z</time></trkpt><trkpt lat="48.73805291856045" lon="3.2648844190808513"><ele>157.66666666666669</ele><time>2026-05-01T16:22:27Z</time></trkpt><trkpt lat="48.738082929392846" lon="3.2645229477590565"><ele>158.33333333333334</ele><time>2026-05-01T16:22:29Z</time></trkpt><trkpt lat="48.73810732079291" lon="3.264230550732938"><ele>159.0</ele><time>2026-05-01T16:22:30Z</time></trkpt><trkpt lat="48.73812895331201" lon="3.2639441280500874"><ele>159.33333333333334</ele><time>2026-05-01T16:22:31Z</time></trkpt><trkpt lat="48.73815400583208" lon="3.2636491258290996"><ele>159.66666666666669</ele><time>2026-05-01T16:22:32Z</time></trkpt><trkpt lat="48.73818227708653" lon="3.2633545938860586"><ele>160.0</ele><time>2026-05-01T16:22:33Z</time></trkpt><trkpt lat="48.73820853380499" lon="3.2630626787220836"><ele>160.33333333333334</ele><time>2026-05-01T16:22:34Z</time></trkpt><trkpt lat="48.7382257153017" lon="3.2627643304259983"><ele>160.66666666666666</ele><time>2026-05-01T16:22:35Z</time></trkpt><trkpt lat="48.738249331468424" lon="3.262466233765197"><ele>161.0</ele><time>2026-05-01T16:22:36Z</time></trkpt><trkpt lat="48.73827184303289" lon="3.262169825918281"><ele>161.0</ele><time>2026-05-01T16:22:37Z</time></trkpt><trkpt lat="48.73829467806244" lon="3.261871328721725"><ele>161.0</ele><time>2026-05-01T16:22:38Z</time></trkpt><trkpt lat="48.73831973516372" lon="3.2615856294178855"><ele>161.0</ele><time>2026-05-01T16:22:39Z</time></trkpt><trkpt lat="48.738341008163715" lon="3.261346987426143"><ele>161.0</ele><time>2026-05-01T16:22:40Z</time></trkpt><trkpt lat="48.73836155592077" lon="3.261109252855814"><ele>161.0</ele><time>2026-05-01T16:22:41Z</time></trkpt><trkpt lat="48.738384293815386" lon="3.2608595868055357"><ele>161.0</ele><time>2026-05-01T16:22:42Z</time></trkpt><trkpt lat="48.73840846076777" lon="3.260587954740928"><ele>160.66666666666666</ele><time>2026-05-01T16:22:43Z</time></trkpt><trkpt lat="48.73843138427128" lon="3.2603166681959816"><ele>160.33333333333334</ele><time>2026-05-01T16:22:44Z</time></trkpt><trkpt lat="48.738449441338446" lon="3.2600363515070496"><ele>160.0</ele><time>2026-05-01T16:22:45Z</time></trkpt><trkpt lat="48.73847411703466" lon="3.2597449206092604"><ele>159.66666666666669</ele><time>2026-05-01T16:22:46Z</time></trkpt><trkpt lat="48.73849827320378" lon="3.259450860449728"><ele>159.33333333333334</ele><time>2026-05-01T16:22:47Z</time></trkpt><trkpt lat="48.738526444603025" lon="3.259150419926847"><ele>159.0</ele><time>2026-05-01T16:22:48Z</time></trkpt><trkpt lat="48.73855329934222" lon="3.258854221046004"><ele>158.5</ele><time>2026-05-01T16:22:49Z</time></trkpt><trkpt lat="48.73856754169243" lon="3.258592429950051"><ele>158.0</ele><time>2026-05-01T16:22:50Z</time></trkpt><trkpt lat="48.73858792098646" lon="3.258362984829018"><ele>157.5</ele><time>2026-05-01T16:22:51Z</time></trkpt><trkpt lat="48.738604792427466" lon="3.25820356170108"><ele>157.0</ele><time>2026-05-01T16:22:52Z</time></trkpt><trkpt lat="48.738610462614375" lon="3.258052384283252"><ele>156.79999999999998</ele><time>2026-05-01T16:22:53Z</time></trkpt><trkpt lat="48.738620961598336" lon="3.2579441733434495"><ele>156.6</ele><time>2026-05-01T16:22:54Z</time></trkpt><trkpt lat="48.738641147773656" lon="3.25783363425896"><ele>156.39999999999998</ele><time>2026-05-01T16:22:56Z</time></trkpt><trkpt lat="48.73856573589525" lon="3.2577519498155545"><ele>156.2</ele><time>2026-05-01T16:22:58Z</time></trkpt><trkpt lat="48.738458428286016" lon="3.257750710709303"><ele>156.0</ele><time>2026-05-01T16:22:59Z</time></trkpt><trkpt lat="48.738337741582676" lon="3.257722843266079"><ele>156.5</ele><time>2026-05-01T16:23:00Z</time></trkpt><trkpt lat="48.73820706809963" lon="3.2576809352667246"><ele>157.0</ele><time>2026-05-01T16:23:01Z</time></trkpt><trkpt lat="48.738061921403585" lon="3.257634772339212"><ele>157.5</ele><time>2026-05-01T16:23:02Z</time></trkpt><trkpt lat="48.73791091145845" lon="3.2576055633489016"><ele>158.0</ele><time>2026-05-01T16:23:03Z</time></trkpt><trkpt lat="48.73775213476129" lon="3.257568240051619"><ele>159.0</ele><time>2026-05-01T16:23:04Z</time></trkpt><trkpt lat="48.737579858977995" lon="3.257519967829218"><ele>160.0</ele><time>2026-05-01T16:23:05Z</time></trkpt><trkpt lat="48.7373957010272" lon="3.2574560524067975"><ele>161.0</ele><time>2026-05-01T16:23:06Z</time></trkpt><trkpt lat="48.73722082342334" lon="3.257394964857703"><ele>161.0</ele><time>2026-05-01T16:23:07Z</time></trkpt><trkpt lat="48.73705589602196" lon="3.25733239218759"><ele>161.0</ele><time>2026-05-01T16:23:08Z</time></trkpt><trkpt lat="48.7369115814914" lon="3.257265875677498"><ele>161.0</ele><time>2026-05-01T16:23:09Z</time></trkpt><trkpt lat="48.73677711194519" lon="3.2571912830504335"><ele>161.25</ele><time>2026-05-01T16:23:10Z</time></trkpt><trkpt lat="48.73664499525659" lon="3.2570898272672846"><ele>161.5</ele><time>2026-05-01T16:23:11Z</time></trkpt><trkpt lat="48.736530019148226" lon="3.2570136883083807"><ele>161.75</ele><time>2026-05-01T16:23:12Z</time></trkpt><trkpt lat="48.73643637447231" lon="3.256952091150971"><ele>162.0</ele><time>2026-05-01T16:23:13Z</time></trkpt><trkpt lat="48.736346723088744" lon="3.256915272442998"><ele>162.0</ele><time>2026-05-01T16:23:14Z</time></trkpt><trkpt lat="48.73627007896911" lon="3.256883100321375"><ele>162.0</ele><time>2026-05-01T16:23:15Z</time></trkpt><trkpt lat="48.736172926332465" lon="3.2568529033964215"><ele>162.0</ele><time>2026-05-01T16:23:17Z</time></trkpt><trkpt lat="48.73617163871734" lon="3.2567273524333955"><ele>162.0</ele><time>2026-05-01T16:23:19Z</time></trkpt><trkpt lat="48.736211711925456" lon="3.256520849361485"><ele>162.0</ele><time>2026-05-01T16:23:21Z</time></trkpt><trkpt lat="48.73623828733986" lon="3.256385413692604"><ele>161.8</ele><time>2026-05-01T16:23:22Z</time></trkpt><trkpt lat="48.73625877881501" lon="3.2562342914987745"><ele>161.6</ele><time>2026-05-01T16:23:23Z</time></trkpt><trkpt lat="48.73628137666991" lon="3.2560880641333263"><ele>161.4</ele><time>2026-05-01T16:23:24Z</time></trkpt><trkpt lat="48.736302787357005" lon="3.2559429351699154"><ele>161.20000000000002</ele><time>2026-05-01T16:23:25Z</time></trkpt><trkpt lat="48.73633105553387" lon="3.255789052864857"><ele>161.0</ele><time>2026-05-01T16:23:26Z</time></trkpt><trkpt lat="48.73634867992325" lon="3.2556349156819064"><ele>161.8</ele><time>2026-05-01T16:23:27Z</time></trkpt><trkpt lat="48.73636141938862" lon="3.2554727510912027"><ele>162.60000000000002</ele><time>2026-05-01T16:23:28Z</time></trkpt><trkpt lat="48.736376699495366" lon="3.2553146716520764"><ele>163.4</ele><time>2026-05-01T16:23:29Z</time></trkpt><trkpt lat="48.73639340929195" lon="3.255155505760109"><ele>164.2</ele><time>2026-05-01T16:23:30Z</time></trkpt><trkpt lat="48.73640056998145" lon="3.255004414193734"><ele>165.0</ele><time>2026-05-01T16:23:31Z</time></trkpt><trkpt lat="48.73638946322741" lon="3.2548685487616873"><ele>165.6</ele><time>2026-05-01T16:23:32Z</time></trkpt><trkpt lat="48.73637626781297" lon="3.254728050159907"><ele>166.2</ele><time>2026-05-01T16:23:33Z</time></trkpt><trkpt lat="48.73637388565877" lon="3.2545792980970694"><ele>166.8</ele><time>2026-05-01T16:23:34Z</time></trkpt><trkpt lat="48.736369715863304" lon="3.254434418146455"><ele>167.4</ele><time>2026-05-01T16:23:35Z</time></trkpt><trkpt lat="48.736367949363625" lon="3.254288769754938"><ele>168.0</ele><time>2026-05-01T16:23:36Z</time></trkpt><trkpt lat="48.73636651836339" lon="3.254139579913616"><ele>168.0</ele><time>2026-05-01T16:23:37Z</time></trkpt><trkpt lat="48.73637082948454" lon="3.2539890622819527"><ele>168.0</ele><time>2026-05-01T16:23:38Z</time></trkpt><trkpt lat="48.73637683043263" lon="3.2538362291761707"><ele>168.0</ele><time>2026-05-01T16:23:39Z</time></trkpt><trkpt lat="48.736366143629574" lon="3.2536707590049376"><ele>168.0</ele><time>2026-05-01T16:23:40Z</time></trkpt><trkpt lat="48.736367158526306" lon="3.253519798934786"><ele>168.0</ele><time>2026-05-01T16:23:41Z</time></trkpt><trkpt lat="48.73637307412493" lon="3.2533747467964926"><ele>168.2</ele><time>2026-05-01T16:23:42Z</time></trkpt><trkpt lat="48.73638445012399" lon="3.253222853444484"><ele>168.4</ele><time>2026-05-01T16:23:43Z</time></trkpt><trkpt lat="48.736393572800054" lon="3.2530658128440018"><ele>168.6</ele><time>2026-05-01T16:23:44Z</time></trkpt><trkpt lat="48.73639652165816" lon="3.252915509984435"><ele>168.79999999999998</ele><time>2026-05-01T16:23:45Z</time></trkpt><trkpt lat="48.73640033999713" lon="3.2527528304242037"><ele>169.0</ele><time>2026-05-01T16:23:46Z</time></trkpt><trkpt lat="48.7364056527542" lon="3.2525681841540104"><ele>168.6</ele><time>2026-05-01T16:23:47Z</time></trkpt><trkpt lat="48.73642755802832" lon="3.2523946916400113"><ele>168.2</ele><time>2026-05-01T16:23:48Z</time></trkpt><trkpt lat="48.7364379670625" lon="3.252228089555979"><ele>167.79999999999998</ele><time>2026-05-01T16:23:49Z</time></trkpt><trkpt lat="48.7364587909777" lon="3.252087859364965"><ele>167.39999999999998</ele><time>2026-05-01T16:23:50Z</time></trkpt><trkpt lat="48.736488559159206" lon="3.2519488898825473"><ele>167.0</ele><time>2026-05-01T16:23:51Z</time></trkpt><trkpt lat="48.736519437717796" lon="3.251832533734027"><ele>166.39999999999998</ele><time>2026-05-01T16:23:52Z</time></trkpt><trkpt lat="48.73653780373051" lon="3.251715061256089"><ele>165.79999999999998</ele><time>2026-05-01T16:23:53Z</time></trkpt><trkpt lat="48.73655766812011" lon="3.251560030383712"><ele>165.2</ele><time>2026-05-01T16:23:54Z</time></trkpt><trkpt lat="48.736578265498196" lon="3.2513842955937196"><ele>164.6</ele><time>2026-05-01T16:23:55Z</time></trkpt><trkpt lat="48.73659691292742" lon="3.251219983652549"><ele>164.0</ele><time>2026-05-01T16:23:56Z</time></trkpt><trkpt lat="48.73661011745837" lon="3.251121236252787"><ele>164.0</ele><time>2026-05-01T16:23:57Z</time></trkpt><trkpt lat="48.73660246071293" lon="3.251303059658639"><ele>164.0</ele><time>2026-05-01T16:24:17Z</time></trkpt><trkpt lat="48.73656616300695" lon="3.251439183714412"><ele>164.0</ele><time>2026-05-01T16:24:18Z</time></trkpt><trkpt lat="48.736534852896334" lon="3.25156318079783"><ele>164.0</ele><time>2026-05-01T16:24:19Z</time></trkpt><trkpt lat="48.736541270195254" lon="3.251721513884983"><ele>164.0</ele><time>2026-05-01T16:24:21Z</time></trkpt><trkpt lat="48.736650905640765" lon="3.2517669051008022"><ele>163.79999999999998</ele><time>2026-05-01T16:24:23Z</time></trkpt><trkpt lat="48.736729558368296" lon="3.2517309061232016"><ele>163.6</ele><time>2026-05-01T16:24:24Z</time></trkpt><trkpt lat="48.73682489761561" lon="3.2517203283394083"><ele>163.4</ele><time>2026-05-01T16:24:25Z</time></trkpt><trkpt lat="48.73692729102574" lon="3.251718705589418"><ele>163.2</ele><time>2026-05-01T16:24:26Z</time></trkpt><trkpt lat="48.73703019151735" lon="3.2517279100836247"><ele>163.0</ele><time>2026-05-01T16:24:27Z</time></trkpt><trkpt lat="48.73714081863024" lon="3.251737959287377"><ele>162.75</ele><time>2026-05-01T16:24:28Z</time></trkpt><trkpt lat="48.73725555071065" lon="3.251748953604185"><ele>162.5</ele><time>2026-05-01T16:24:29Z</time></trkpt><trkpt lat="48.73737609237217" lon="3.251747556035552"><ele>162.25</ele><time>2026-05-01T16:24:30Z</time></trkpt><trkpt lat="48.73749916544414" lon="3.251748670406128"><ele>162.0</ele><time>2026-05-01T16:24:31Z</time></trkpt><trkpt lat="48.737625859732404" lon="3.251741609131509"><ele>161.5</ele><time>2026-05-01T16:24:32Z</time></trkpt><trkpt lat="48.737755133863985" lon="3.2517482736472805"><ele>161.0</ele><time>2026-05-01T16:24:33Z</time></trkpt><trkpt lat="48.73788540739785" lon="3.251752213789923"><ele>160.5</ele><time>2026-05-01T16:24:34Z</time></trkpt><trkpt lat="48.73801527130116" lon="3.2517539707046708"><ele>160.0</ele><time>2026-05-01T16:24:35Z</time></trkpt><trkpt lat="48.73814948669412" lon="3.2517549296369577"><ele>160.0</ele><time>2026-05-01T16:24:36Z</time></trkpt><trkpt lat="48.73828261325091" lon="3.251752890390932"><ele>160.0</ele><time>2026-05-01T16:24:37Z</time></trkpt><trkpt lat="48.73841903404211" lon="3.251755932955896"><ele>160.0</ele><time>2026-05-01T16:24:38Z</time></trkpt><trkpt lat="48.7385556678531" lon="3.251762318585067"><ele>160.0</ele><time>2026-05-01T16:24:39Z</time></trkpt><trkpt lat="48.738685883126" lon="3.251752212672041"><ele>160.0</ele><time>2026-05-01T16:24:40Z</time></trkpt><trkpt lat="48.73881463753576" lon="3.251754640712167"><ele>160.0</ele><time>2026-05-01T16:24:41Z</time></trkpt><trkpt lat="48.738944368889484" lon="3.251768783135074"><ele>160.0</ele><time>2026-05-01T16:24:42Z</time></trkpt><trkpt lat="48.739091535077755" lon="3.2517821897517587"><ele>160.0</ele><time>2026-05-01T16:24:43Z</time></trkpt><trkpt lat="48.73924608809759" lon="3.2517885622132257"><ele>159.75</ele><time>2026-05-01T16:24:44Z</time></trkpt><trkpt lat="48.73939780123325" lon="3.2517846139882147"><ele>159.5</ele><time>2026-05-01T16:24:45Z</time></trkpt><trkpt lat="48.73954539077432" lon="3.251766624637168"><ele>159.25</ele><time>2026-05-01T16:24:46Z</time></trkpt><trkpt lat="48.73968906601316" lon="3.251730986161604"><ele>159.0</ele><time>2026-05-01T16:24:47Z</time></trkpt><trkpt lat="48.73982878268739" lon="3.2516917489556207"><ele>159.0</ele><time>2026-05-01T16:24:48Z</time></trkpt><trkpt lat="48.739974166646626" lon="3.251665847904537"><ele>159.0</ele><time>2026-05-01T16:24:49Z</time></trkpt><trkpt lat="48.740119113145944" lon="3.2516401871987535"><ele>159.0</ele><time>2026-05-01T16:24:50Z</time></trkpt><trkpt lat="48.740266763818084" lon="3.251595856016361"><ele>159.0</ele><time>2026-05-01T16:24:51Z</time></trkpt><trkpt lat="48.74041577249456" lon="3.2515513654274795"><ele>158.0</ele><time>2026-05-01T16:24:52Z</time></trkpt><trkpt lat="48.740565193666036" lon="3.251511091007901"><ele>157.0</ele><time>2026-05-01T16:24:53Z</time></trkpt><trkpt lat="48.740714746640585" lon="3.2514775929620257"><ele>156.0</ele><time>2026-05-01T16:24:54Z</time></trkpt><trkpt lat="48.74087117501346" lon="3.2514440441853"><ele>156.0</ele><time>2026-05-01T16:24:55Z</time></trkpt><trkpt lat="48.74102535570334" lon="3.2514135960791535"><ele>156.0</ele><time>2026-05-01T16:24:56Z</time></trkpt><trkpt lat="48.74118379469539" lon="3.2513811478595906"><ele>156.0</ele><time>2026-05-01T16:24:57Z</time></trkpt><trkpt lat="48.741352999724455" lon="3.2513468272964214"><ele>155.66666666666666</ele><time>2026-05-01T16:24:58Z</time></trkpt><trkpt lat="48.741529914897" lon="3.2513066635234793"><ele>155.33333333333331</ele><time>2026-05-01T16:24:59Z</time></trkpt><trkpt lat="48.74171138891013" lon="3.251265677868871"><ele>155.0</ele><time>2026-05-01T16:25:00Z</time></trkpt><trkpt lat="48.74189185892859" lon="3.2512155998111067"><ele>154.66666666666666</ele><time>2026-05-01T16:25:01Z</time></trkpt><trkpt lat="48.74206882183249" lon="3.2511303427930143"><ele>154.33333333333334</ele><time>2026-05-01T16:25:02Z</time></trkpt><trkpt lat="48.74223579497747" lon="3.251035030141386"><ele>154.0</ele><time>2026-05-01T16:25:03Z</time></trkpt><trkpt lat="48.74243050704203" lon="3.250936898678837"><ele>154.0</ele><time>2026-05-01T16:25:04Z</time></trkpt><trkpt lat="48.74260466473029" lon="3.250792242207041"><ele>154.0</ele><time>2026-05-01T16:25:05Z</time></trkpt><trkpt lat="48.74277621967198" lon="3.2506443439244412"><ele>154.0</ele><time>2026-05-01T16:25:06Z</time></trkpt><trkpt lat="48.742945168123256" lon="3.2504892078392724"><ele>154.0</ele><time>2026-05-01T16:25:07Z</time></trkpt><trkpt lat="48.74311537680253" lon="3.2503370009395454"><ele>154.0</ele><time>2026-05-01T16:25:08Z</time></trkpt><trkpt lat="48.74328599752582" lon="3.250187989552342"><ele>154.0</ele><time>2026-05-01T16:25:09Z</time></trkpt><trkpt lat="48.743456086121284" lon="3.250026718348163"><ele>153.66666666666669</ele><time>2026-05-01T16:25:10Z</time></trkpt><trkpt lat="48.74363537411392" lon="3.2498699759673686"><ele>153.33333333333334</ele><time>2026-05-01T16:25:11Z</time></trkpt><trkpt lat="48.74379592107587" lon="3.249724451591589"><ele>153.0</ele><time>2026-05-01T16:25:12Z</time></trkpt><trkpt lat="48.743931961075994" lon="3.2495952757007482"><ele>152.5</ele><time>2026-05-01T16:25:13Z</time></trkpt><trkpt lat="48.7440562671867" lon="3.2494863870179675"><ele>152.0</ele><time>2026-05-01T16:25:14Z</time></trkpt><trkpt lat="48.74416810811684" lon="3.249393793865102"><ele>151.5</ele><time>2026-05-01T16:25:15Z</time></trkpt><trkpt lat="48.744267186183315" lon="3.2493023273177535"><ele>151.0</ele><time>2026-05-01T16:25:16Z</time></trkpt><trkpt lat="48.744356789975264" lon="3.2492433447920983"><ele>150.75</ele><time>2026-05-01T16:25:17Z</time></trkpt><trkpt lat="48.74446071268811" lon="3.2492123342977557"><ele>150.5</ele><time>2026-05-01T16:25:18Z</time></trkpt><trkpt lat="48.744594725735304" lon="3.2491798460354047"><ele>150.25</ele><time>2026-05-01T16:25:19Z</time></trkpt><trkpt lat="48.74474110472909" lon="3.249138156083989"><ele>150.0</ele><time>2026-05-01T16:25:20Z</time></trkpt><trkpt lat="48.74489319126731" lon="3.2490935234405884"><ele>150.0</ele><time>2026-05-01T16:25:21Z</time></trkpt><trkpt lat="48.745048184542846" lon="3.249050440031079"><ele>150.0</ele><time>2026-05-01T16:25:22Z</time></trkpt><trkpt lat="48.745203797370095" lon="3.2490136572272563"><ele>150.0</ele><time>2026-05-01T16:25:23Z</time></trkpt><trkpt lat="48.74535553186259" lon="3.248977710689863"><ele>149.66666666666666</ele><time>2026-05-01T16:25:24Z</time></trkpt><trkpt lat="48.74550520163678" lon="3.2489396659511667"><ele>149.33333333333331</ele><time>2026-05-01T16:25:25Z</time></trkpt><trkpt lat="48.7456645068103" lon="3.248920069827863"><ele>149.0</ele><time>2026-05-01T16:25:26Z</time></trkpt><trkpt lat="48.74582729508793" lon="3.248884832408296"><ele>149.0</ele><time>2026-05-01T16:25:27Z</time></trkpt><trkpt lat="48.745986318899355" lon="3.2488719888061643"><ele>149.0</ele><time>2026-05-01T16:25:28Z</time></trkpt><trkpt lat="48.746148762618034" lon="3.2488648149052777"><ele>149.0</ele><time>2026-05-01T16:25:29Z</time></trkpt><trkpt lat="48.74631283434741" lon="3.2488520774012635"><ele>149.0</ele><time>2026-05-01T16:25:30Z</time></trkpt><trkpt lat="48.74647660973804" lon="3.248843990875634"><ele>149.0</ele><time>2026-05-01T16:25:31Z</time></trkpt><trkpt lat="48.74664144204388" lon="3.248833107874342"><ele>149.0</ele><time>2026-05-01T16:25:32Z</time></trkpt><trkpt lat="48.7468094267738" lon="3.24883785494766"><ele>148.66666666666666</ele><time>2026-05-01T16:25:33Z</time></trkpt><trkpt lat="48.74697965765018" lon="3.2488448974430897"><ele>148.33333333333334</ele><time>2026-05-01T16:25:34Z</time></trkpt><trkpt lat="48.74714745842624" lon="3.248865432060295"><ele>148.0</ele><time>2026-05-01T16:25:35Z</time></trkpt><trkpt lat="48.74731191087226" lon="3.248883385793031"><ele>148.0</ele><time>2026-05-01T16:25:36Z</time></trkpt><trkpt lat="48.74747852845306" lon="3.248905069286719"><ele>148.0</ele><time>2026-05-01T16:25:37Z</time></trkpt><trkpt lat="48.747636419184886" lon="3.248918801771155"><ele>148.0</ele><time>2026-05-01T16:25:38Z</time></trkpt><trkpt lat="48.747773946581454" lon="3.2489388234959278"><ele>148.0</ele><time>2026-05-01T16:25:39Z</time></trkpt><trkpt lat="48.74789663396083" lon="3.2489641365372517"><ele>148.0</ele><time>2026-05-01T16:25:40Z</time></trkpt><trkpt lat="48.7480071432791" lon="3.248980166468638"><ele>148.0</ele><time>2026-05-01T16:25:41Z</time></trkpt><trkpt lat="48.74810125301014" lon="3.248981528749685"><ele>148.0</ele><time>2026-05-01T16:25:42Z</time></trkpt><trkpt lat="48.74818519478239" lon="3.248993146359919"><ele>148.0</ele><time>2026-05-01T16:25:43Z</time></trkpt><trkpt lat="48.74825080452215" lon="3.2490046277675364"><ele>148.0</ele><time>2026-05-01T16:25:44Z</time></trkpt><trkpt lat="48.748343502083515" lon="3.2490161032612503"><ele>148.0</ele><time>2026-05-01T16:25:46Z</time></trkpt><trkpt lat="48.74840841646308" lon="3.249025816321844"><ele>148.0</ele><time>2026-05-01T16:25:49Z</time></trkpt><trkpt lat="48.74847787147829" lon="3.2490191811491083"><ele>148.0</ele><time>2026-05-01T16:25:54Z</time></trkpt><trkpt lat="48.74857049490987" lon="3.24901594356935"><ele>148.0</ele><time>2026-05-01T16:26:02Z</time></trkpt><trkpt lat="48.74868249893547" lon="3.2489559709397744"><ele>148.0</ele><time>2026-05-01T16:26:04Z</time></trkpt><trkpt lat="48.74874419415632" lon="3.248910147719661"><ele>148.4</ele><time>2026-05-01T16:26:05Z</time></trkpt><trkpt lat="48.74881226185472" lon="3.2488687650996813"><ele>148.8</ele><time>2026-05-01T16:26:06Z</time></trkpt><trkpt lat="48.74891524833544" lon="3.2488129081031856"><ele>149.2</ele><time>2026-05-01T16:26:08Z</time></trkpt><trkpt lat="48.74904178113259" lon="3.2488425786139197"><ele>149.6</ele><time>2026-05-01T16:26:10Z</time></trkpt><trkpt lat="48.74911673128476" lon="3.2488747063551675"><ele>150.0</ele><time>2026-05-01T16:26:11Z</time></trkpt><trkpt lat="48.749194492427065" lon="3.2489130081992355"><ele>150.0</ele><time>2026-05-01T16:26:12Z</time></trkpt><trkpt lat="48.74927678923228" lon="3.2489526830582998"><ele>150.0</ele><time>2026-05-01T16:26:13Z</time></trkpt><trkpt lat="48.74936091254408" lon="3.2489907300210987"><ele>150.0</ele><time>2026-05-01T16:26:14Z</time></trkpt><trkpt lat="48.74946223417077" lon="3.249019237953319"><ele>150.0</ele><time>2026-05-01T16:26:15Z</time></trkpt><trkpt lat="48.749560990115434" lon="3.2490555975437228"><ele>150.0</ele><time>2026-05-01T16:26:16Z</time></trkpt><trkpt lat="48.74964308057671" lon="3.249077094112804"><ele>151.6</ele><time>2026-05-01T16:26:17Z</time></trkpt><trkpt lat="48.74973231650753" lon="3.249106202643993"><ele>153.2</ele><time>2026-05-01T16:26:18Z</time></trkpt><trkpt lat="48.74982967404199" lon="3.2491359848861365"><ele>154.8</ele><time>2026-05-01T16:26:19Z</time></trkpt><trkpt lat="48.74991666312164" lon="3.2491675408264697"><ele>156.4</ele><time>2026-05-01T16:26:20Z</time></trkpt><trkpt lat="48.75000245662292" lon="3.2491885011520125"><ele>158.0</ele><time>2026-05-01T16:26:21Z</time></trkpt><trkpt lat="48.750099871611916" lon="3.2492235436126644"><ele>157.4</ele><time>2026-05-01T16:26:22Z</time></trkpt><trkpt lat="48.750209098352784" lon="3.2492697281232115"><ele>156.8</ele><time>2026-05-01T16:26:23Z</time></trkpt><trkpt lat="48.75031087848553" lon="3.249308591094725"><ele>156.2</ele><time>2026-05-01T16:26:24Z</time></trkpt><trkpt lat="48.75040814597612" lon="3.24933346664348"><ele>155.6</ele><time>2026-05-01T16:26:25Z</time></trkpt><trkpt lat="48.750509872160755" lon="3.2493415878874323"><ele>155.0</ele><time>2026-05-01T16:26:26Z</time></trkpt><trkpt lat="48.75059967823009" lon="3.2494084009777824"><ele>155.0</ele><time>2026-05-01T16:26:28Z</time></trkpt><trkpt lat="48.75069973798985" lon="3.2494250064546644"><ele>155.0</ele><time>2026-05-01T16:26:33Z</time></trkpt><trkpt lat="48.7508247659893" lon="3.249421001671956"><ele>155.0</ele><time>2026-05-01T16:26:35Z</time></trkpt><trkpt lat="48.75089557435216" lon="3.249438267568411"><ele>155.0</ele><time>2026-05-01T16:26:36Z</time></trkpt><trkpt lat="48.75096936204259" lon="3.2494566227305737"><ele>155.0</ele><time>2026-05-01T16:26:37Z</time></trkpt><trkpt lat="48.75104647367802" lon="3.2494738982915607"><ele>154.5</ele><time>2026-05-01T16:26:38Z</time></trkpt><trkpt lat="48.75112434805048" lon="3.2494950805192326"><ele>154.0</ele><time>2026-05-01T16:26:39Z</time></trkpt><trkpt lat="48.75120213415281" lon="3.2495167852977684"><ele>153.5</ele><time>2026-05-01T16:26:40Z</time></trkpt><trkpt lat="48.75128384765823" lon="3.249528504093885"><ele>153.0</ele><time>2026-05-01T16:26:41Z</time></trkpt><trkpt lat="48.75136668302674" lon="3.249538260811551"><ele>152.5</ele><time>2026-05-01T16:26:42Z</time></trkpt><trkpt lat="48.75145071062254" lon="3.249558131115923"><ele>152.0</ele><time>2026-05-01T16:26:43Z</time></trkpt><trkpt lat="48.751540400999" lon="3.249581530799437"><ele>152.0</ele><time>2026-05-01T16:26:44Z</time></trkpt><trkpt lat="48.751631100609764" lon="3.249603083883527"><ele>152.0</ele><time>2026-05-01T16:26:45Z</time></trkpt><trkpt lat="48.75172465362766" lon="3.2496222119732527"><ele>152.0</ele><time>2026-05-01T16:26:46Z</time></trkpt><trkpt lat="48.751819076539384" lon="3.249648211913141"><ele>152.0</ele><time>2026-05-01T16:26:47Z</time></trkpt><trkpt lat="48.75191533771356" lon="3.2496809597784537"><ele>152.0</ele><time>2026-05-01T16:26:48Z</time></trkpt><trkpt lat="48.75201869152909" lon="3.2497128961180786"><ele>152.0</ele><time>2026-05-01T16:26:49Z</time></trkpt><trkpt lat="48.75212406021376" lon="3.2497452752299414"><ele>152.0</ele><time>2026-05-01T16:26:50Z</time></trkpt><trkpt lat="48.75222890944823" lon="3.249785333807402"><ele>152.0</ele><time>2026-05-01T16:26:51Z</time></trkpt><trkpt lat="48.75233386937905" lon="3.2498365970480614"><ele>152.0</ele><time>2026-05-01T16:26:52Z</time></trkpt><trkpt lat="48.75244141665146" lon="3.2498975982177183"><ele>152.0</ele><time>2026-05-01T16:26:53Z</time></trkpt><trkpt lat="48.75254956959879" lon="3.2499580808289945"><ele>152.25</ele><time>2026-05-01T16:26:54Z</time></trkpt><trkpt lat="48.752656346341475" lon="3.2500322718258308"><ele>152.5</ele><time>2026-05-01T16:26:55Z</time></trkpt><trkpt lat="48.75276206844639" lon="3.25011060070975"><ele>152.75</ele><time>2026-05-01T16:26:56Z</time></trkpt><trkpt lat="48.75287037301417" lon="3.250178363468964"><ele>153.0</ele><time>2026-05-01T16:26:57Z</time></trkpt><trkpt lat="48.75298270097483" lon="3.2502502906472777"><ele>153.25</ele><time>2026-05-01T16:26:58Z</time></trkpt><trkpt lat="48.75309099458947" lon="3.2503309302728076"><ele>153.5</ele><time>2026-05-01T16:26:59Z</time></trkpt><trkpt lat="48.753201885887755" lon="3.2504046025175035"><ele>153.75</ele><time>2026-05-01T16:27:00Z</time></trkpt><trkpt lat="48.75331098140529" lon="3.2504831374887524"><ele>154.0</ele><time>2026-05-01T16:27:01Z</time></trkpt><trkpt lat="48.75341543773249" lon="3.2505700928447947"><ele>154.0</ele><time>2026-05-01T16:27:02Z</time></trkpt><trkpt lat="48.753517898278936" lon="3.2506639322383615"><ele>154.0</ele><time>2026-05-01T16:27:03Z</time></trkpt><trkpt lat="48.75361534369059" lon="3.2507663434753313"><ele>154.0</ele><time>2026-05-01T16:27:04Z</time></trkpt><trkpt lat="48.75370689059205" lon="3.2508700494765246"><ele>154.0</ele><time>2026-05-01T16:27:05Z</time></trkpt><trkpt lat="48.75378863307026" lon="3.2509611499265114"><ele>154.0</ele><time>2026-05-01T16:27:06Z</time></trkpt><trkpt lat="48.753857619374315" lon="3.251030186382077"><ele>154.0</ele><time>2026-05-01T16:27:07Z</time></trkpt><trkpt lat="48.75391743848514" lon="3.251092177011117"><ele>154.0</ele><time>2026-05-01T16:27:08Z</time></trkpt><trkpt lat="48.75399383867463" lon="3.2511991188782297"><ele>154.0</ele><time>2026-05-01T16:27:10Z</time></trkpt><trkpt lat="48.75408999304191" lon="3.2509360846009367"><ele>154.0</ele><time>2026-05-01T16:27:13Z</time></trkpt><trkpt lat="48.75412684312145" lon="3.250790550088904"><ele>154.0</ele><time>2026-05-01T16:27:14Z</time></trkpt><trkpt lat="48.754172743287576" lon="3.2506129812482634"><ele>154.0</ele><time>2026-05-01T16:27:15Z</time></trkpt><trkpt lat="48.75422274060331" lon="3.250432427796483"><ele>154.0</ele><time>2026-05-01T16:27:16Z</time></trkpt><trkpt lat="48.75427371744482" lon="3.250262487727159"><ele>154.0</ele><time>2026-05-01T16:27:17Z</time></trkpt><trkpt lat="48.75432329788375" lon="3.2500843252993397"><ele>154.0</ele><time>2026-05-01T16:27:18Z</time></trkpt><trkpt lat="48.754365705607626" lon="3.249894165164259"><ele>154.0</ele><time>2026-05-01T16:27:19Z</time></trkpt><trkpt lat="48.75440811946405" lon="3.249698642009683"><ele>154.0</ele><time>2026-05-01T16:27:20Z</time></trkpt><trkpt lat="48.75446072374794" lon="3.249503080879671"><ele>154.0</ele><time>2026-05-01T16:27:21Z</time></trkpt><trkpt lat="48.754513642893976" lon="3.2493034943174544"><ele>154.0</ele><time>2026-05-01T16:27:22Z</time></trkpt><trkpt lat="48.75457041462037" lon="3.249108999818221"><ele>154.0</ele><time>2026-05-01T16:27:23Z</time></trkpt><trkpt lat="48.75462561043236" lon="3.2489109584403244"><ele>154.0</ele><time>2026-05-01T16:27:24Z</time></trkpt><trkpt lat="48.754675530256456" lon="3.2487087035229787"><ele>154.0</ele><time>2026-05-01T16:27:25Z</time></trkpt><trkpt lat="48.75473042239404" lon="3.248513069320313"><ele>154.0</ele><time>2026-05-01T16:27:26Z</time></trkpt><trkpt lat="48.75478485468937" lon="3.2483127303288475"><ele>154.0</ele><time>2026-05-01T16:27:27Z</time></trkpt><trkpt lat="48.75483971955686" lon="3.248115830040895"><ele>154.0</ele><time>2026-05-01T16:27:28Z</time></trkpt><trkpt lat="48.75489240913424" lon="3.2479192979460105"><ele>155.0</ele><time>2026-05-01T16:27:29Z</time></trkpt><trkpt lat="48.75494165087417" lon="3.2477188471555545"><ele>156.0</ele><time>2026-05-01T16:27:30Z</time></trkpt><trkpt lat="48.75499310533564" lon="3.2475211414355614"><ele>157.0</ele><time>2026-05-01T16:27:31Z</time></trkpt><trkpt lat="48.75504638253912" lon="3.247324380515075"><ele>158.0</ele><time>2026-05-01T16:27:32Z</time></trkpt><trkpt lat="48.755099381835386" lon="3.247126968895329"><ele>158.0</ele><time>2026-05-01T16:27:33Z</time></trkpt><trkpt lat="48.755157775529064" lon="3.2469335685931626"><ele>158.0</ele><time>2026-05-01T16:27:34Z</time></trkpt><trkpt lat="48.755214103719375" lon="3.2467391334562725"><ele>158.0</ele><time>2026-05-01T16:27:35Z</time></trkpt><trkpt lat="48.75526985354116" lon="3.2465226999913583"><ele>158.0</ele><time>2026-05-01T16:27:36Z</time></trkpt><trkpt lat="48.75532921769429" lon="3.2463295324614823"><ele>156.75</ele><time>2026-05-01T16:27:37Z</time></trkpt><trkpt lat="48.75538428438746" lon="3.2461229003653567"><ele>155.5</ele><time>2026-05-01T16:27:38Z</time></trkpt><trkpt lat="48.75544127730874" lon="3.2459157053669276"><ele>154.25</ele><time>2026-05-01T16:27:39Z</time></trkpt><trkpt lat="48.755500446547686" lon="3.24571619670306"><ele>153.0</ele><time>2026-05-01T16:27:40Z</time></trkpt><trkpt lat="48.75556137779644" lon="3.2455171769820486"><ele>153.0</ele><time>2026-05-01T16:27:41Z</time></trkpt><trkpt lat="48.75561715915536" lon="3.245308509860165"><ele>153.0</ele><time>2026-05-01T16:27:42Z</time></trkpt><trkpt lat="48.7556772354719" lon="3.2451198362116567"><ele>153.0</ele><time>2026-05-01T16:27:43Z</time></trkpt><trkpt lat="48.75573574079011" lon="3.2449205944079944"><ele>153.0</ele><time>2026-05-01T16:27:44Z</time></trkpt><trkpt lat="48.755782160658555" lon="3.2447454035508554"><ele>153.66666666666666</ele><time>2026-05-01T16:27:45Z</time></trkpt><trkpt lat="48.75582646751474" lon="3.2445826969772815"><ele>154.33333333333334</ele><time>2026-05-01T16:27:46Z</time></trkpt><trkpt lat="48.75586359866418" lon="3.2444474500411276"><ele>155.0</ele><time>2026-05-01T16:27:47Z</time></trkpt><trkpt lat="48.75589143299614" lon="3.244337683392159"><ele>155.66666666666669</ele><time>2026-05-01T16:27:48Z</time></trkpt><trkpt lat="48.755919992248465" lon="3.2442516310654224"><ele>156.33333333333334</ele><time>2026-05-01T16:27:49Z</time></trkpt><trkpt lat="48.755914832325445" lon="3.2441144651197824"><ele>157.0</ele><time>2026-05-01T16:27:51Z</time></trkpt><trkpt lat="48.755866397861894" lon="3.244051581261838"><ele>157.0</ele><time>2026-05-01T16:27:52Z</time></trkpt><trkpt lat="48.75578195003948" lon="3.2440195177988143"><ele>157.0</ele><time>2026-05-01T16:27:53Z</time></trkpt><trkpt lat="48.75568607741323" lon="3.2440104779154644"><ele>157.0</ele><time>2026-05-01T16:27:54Z</time></trkpt><trkpt lat="48.75557621020533" lon="3.2439986266371776"><ele>157.0</ele><time>2026-05-01T16:27:55Z</time></trkpt><trkpt lat="48.75545051772643" lon="3.243982440657943"><ele>157.0</ele><time>2026-05-01T16:27:56Z</time></trkpt><trkpt lat="48.7553173438448" lon="3.2439470439313802"><ele>157.0</ele><time>2026-05-01T16:27:57Z</time></trkpt><trkpt lat="48.75518369734711" lon="3.243900722174674"><ele>157.0</ele><time>2026-05-01T16:27:58Z</time></trkpt><trkpt lat="48.75507920745824" lon="3.243862967268237"><ele>157.0</ele><time>2026-05-01T16:27:59Z</time></trkpt><trkpt lat="48.754977534290205" lon="3.243830506340138"><ele>157.0</ele><time>2026-05-01T16:28:00Z</time></trkpt><trkpt lat="48.75487415081927" lon="3.243779612370113"><ele>157.0</ele><time>2026-05-01T16:28:01Z</time></trkpt><trkpt lat="48.75476601298395" lon="3.2437254715750172"><ele>157.0</ele><time>2026-05-01T16:28:02Z</time></trkpt><trkpt lat="48.75465086572566" lon="3.243668796830781"><ele>157.0</ele><time>2026-05-01T16:28:03Z</time></trkpt><trkpt lat="48.75452952417939" lon="3.243622086944915"><ele>157.0</ele><time>2026-05-01T16:28:04Z</time></trkpt><trkpt lat="48.75440993215975" lon="3.243550341394495"><ele>156.0</ele><time>2026-05-01T16:28:05Z</time></trkpt><trkpt lat="48.754294780026044" lon="3.243474835017485"><ele>155.0</ele><time>2026-05-01T16:28:06Z</time></trkpt><trkpt lat="48.75418348492656" lon="3.24339705296514"><ele>154.0</ele><time>2026-05-01T16:28:07Z</time></trkpt><trkpt lat="48.75406365115601" lon="3.2433225458327963"><ele>153.0</ele><time>2026-05-01T16:28:08Z</time></trkpt><trkpt lat="48.753929297987916" lon="3.2432544196802207"><ele>153.0</ele><time>2026-05-01T16:28:09Z</time></trkpt><trkpt lat="48.75379212632318" lon="3.243174678176783"><ele>153.0</ele><time>2026-05-01T16:28:10Z</time></trkpt><trkpt lat="48.753648015814655" lon="3.2431009038883407"><ele>153.0</ele><time>2026-05-01T16:28:11Z</time></trkpt><trkpt lat="48.75350688203702" lon="3.24301837277519"><ele>152.5</ele><time>2026-05-01T16:28:12Z</time></trkpt><trkpt lat="48.75336646071519" lon="3.24294029460924"><ele>152.0</ele><time>2026-05-01T16:28:13Z</time></trkpt><trkpt lat="48.753229100399395" lon="3.2428595368198443"><ele>151.5</ele><time>2026-05-01T16:28:14Z</time></trkpt><trkpt lat="48.753094947712135" lon="3.242778333531549"><ele>151.0</ele><time>2026-05-01T16:28:15Z</time></trkpt><trkpt lat="48.752962938631605" lon="3.2426996410207933"><ele>151.0</ele><time>2026-05-01T16:28:16Z</time></trkpt><trkpt lat="48.75283610470792" lon="3.2426071453651137"><ele>151.0</ele><time>2026-05-01T16:28:17Z</time></trkpt><trkpt lat="48.75271211382601" lon="3.242519323233964"><ele>151.0</ele><time>2026-05-01T16:28:18Z</time></trkpt><trkpt lat="48.75260174768122" lon="3.242421872463578"><ele>151.0</ele><time>2026-05-01T16:28:19Z</time></trkpt><trkpt lat="48.752497790715566" lon="3.2423371183946212"><ele>150.5</ele><time>2026-05-01T16:28:20Z</time></trkpt><trkpt lat="48.752414051241686" lon="3.2422555538739286"><ele>150.0</ele><time>2026-05-01T16:28:21Z</time></trkpt><trkpt lat="48.75233871670166" lon="3.2421949621599055"><ele>149.5</ele><time>2026-05-01T16:28:22Z</time></trkpt><trkpt lat="48.75228105937069" lon="3.242148573008308"><ele>149.0</ele><time>2026-05-01T16:28:23Z</time></trkpt><trkpt lat="48.752202356744604" lon="3.242062800717071"><ele>148.5</ele><time>2026-05-01T16:28:25Z</time></trkpt><trkpt lat="48.75219324254018" lon="3.2419190872523376"><ele>148.0</ele><time>2026-05-01T16:28:27Z</time></trkpt><trkpt lat="48.75221426902209" lon="3.2418239598022427"><ele>148.0</ele><time>2026-05-01T16:28:28Z</time></trkpt><trkpt lat="48.75223177599128" lon="3.2417187775115495"><ele>148.0</ele><time>2026-05-01T16:28:29Z</time></trkpt><trkpt lat="48.75222237520502" lon="3.241601655422436"><ele>148.0</ele><time>2026-05-01T16:28:30Z</time></trkpt><trkpt lat="48.75217126482155" lon="3.241488491026366"><ele>148.0</ele><time>2026-05-01T16:28:31Z</time></trkpt><trkpt lat="48.75211036249194" lon="3.2413610268062856"><ele>148.0</ele><time>2026-05-01T16:28:32Z</time></trkpt><trkpt lat="48.75202525040797" lon="3.241241565619198"><ele>147.75</ele><time>2026-05-01T16:28:33Z</time></trkpt><trkpt lat="48.75193090903667" lon="3.2411097119772196"><ele>147.5</ele><time>2026-05-01T16:28:34Z</time></trkpt><trkpt lat="48.751847540768175" lon="3.2410051059158955"><ele>147.25</ele><time>2026-05-01T16:28:35Z</time></trkpt><trkpt lat="48.751745650954916" lon="3.2409071311202933"><ele>147.0</ele><time>2026-05-01T16:28:36Z</time></trkpt><trkpt lat="48.75163979631275" lon="3.240814132610835"><ele>146.79999999999998</ele><time>2026-05-01T16:28:37Z</time></trkpt><trkpt lat="48.751541487665264" lon="3.240737222150931"><ele>146.6</ele><time>2026-05-01T16:28:38Z</time></trkpt><trkpt lat="48.7514572148658" lon="3.240674593510835"><ele>146.39999999999998</ele><time>2026-05-01T16:28:39Z</time></trkpt><trkpt lat="48.75138126214296" lon="3.240618216748362"><ele>146.2</ele><time>2026-05-01T16:28:40Z</time></trkpt><trkpt lat="48.751301073755734" lon="3.240559259772519"><ele>146.0</ele><time>2026-05-01T16:28:41Z</time></trkpt><trkpt lat="48.751214863322375" lon="3.240496670608644"><ele>145.6</ele><time>2026-05-01T16:28:42Z</time></trkpt><trkpt lat="48.751125299086695" lon="3.2404342697704758"><ele>145.2</ele><time>2026-05-01T16:28:43Z</time></trkpt><trkpt lat="48.75103082110101" lon="3.2403751414052584"><ele>144.8</ele><time>2026-05-01T16:28:44Z</time></trkpt><trkpt lat="48.75093453859685" lon="3.2403188946820474"><ele>144.4</ele><time>2026-05-01T16:28:45Z</time></trkpt><trkpt lat="48.750836391875566" lon="3.240263471958936"><ele>144.0</ele><time>2026-05-01T16:28:46Z</time></trkpt><trkpt lat="48.750735980014504" lon="3.2402061100101127"><ele>144.0</ele><time>2026-05-01T16:28:47Z</time></trkpt><trkpt lat="48.750633874862125" lon="3.240144986883339"><ele>144.0</ele><time>2026-05-01T16:28:48Z</time></trkpt><trkpt lat="48.750530232711355" lon="3.240082943396648"><ele>144.0</ele><time>2026-05-01T16:28:49Z</time></trkpt><trkpt lat="48.750427291407355" lon="3.240021319620748"><ele>144.0</ele><time>2026-05-01T16:28:50Z</time></trkpt><trkpt lat="48.75032012116342" lon="3.239984164292826"><ele>144.0</ele><time>2026-05-01T16:28:51Z</time></trkpt><trkpt lat="48.75022357889475" lon="3.239916250694997"><ele>144.4</ele><time>2026-05-01T16:28:52Z</time></trkpt><trkpt lat="48.75012771176849" lon="3.2398531797098795"><ele>144.8</ele><time>2026-05-01T16:28:53Z</time></trkpt><trkpt lat="48.75004134006424" lon="3.2397694022022305"><ele>145.2</ele><time>2026-05-01T16:28:54Z</time></trkpt><trkpt lat="48.74994630594206" lon="3.2397296441017254"><ele>145.6</ele><time>2026-05-01T16:28:55Z</time></trkpt><trkpt lat="48.749872831480765" lon="3.239663157968481"><ele>146.0</ele><time>2026-05-01T16:28:56Z</time></trkpt><trkpt lat="48.74980694813824" lon="3.2396123457333346"><ele>146.0</ele><time>2026-05-01T16:28:57Z</time></trkpt><trkpt lat="48.7497522944437" lon="3.239538829547826"><ele>146.0</ele><time>2026-05-01T16:28:58Z</time></trkpt><trkpt lat="48.74971269123359" lon="3.239446798453173"><ele>146.0</ele><time>2026-05-01T16:28:59Z</time></trkpt><trkpt lat="48.74965890797155" lon="3.2393699743671367"><ele>146.0</ele><time>2026-05-01T16:29:00Z</time></trkpt><trkpt lat="48.74959726110432" lon="3.2392955474986995"><ele>146.0</ele><time>2026-05-01T16:29:01Z</time></trkpt><trkpt lat="48.749519211592684" lon="3.2392483670271672"><ele>146.0</ele><time>2026-05-01T16:29:02Z</time></trkpt><trkpt lat="48.74945020303082" lon="3.2391754971459474"><ele>146.0</ele><time>2026-05-01T16:29:03Z</time></trkpt><trkpt lat="48.74938320889925" lon="3.239095856423243"><ele>146.0</ele><time>2026-05-01T16:29:04Z</time></trkpt><trkpt lat="48.74931080021957" lon="3.2390008394524608"><ele>146.0</ele><time>2026-05-01T16:29:05Z</time></trkpt><trkpt lat="48.74923805883334" lon="3.2389073594506868"><ele>146.0</ele><time>2026-05-01T16:29:06Z</time></trkpt><trkpt lat="48.74916078670683" lon="3.238816480116904"><ele>146.0</ele><time>2026-05-01T16:29:07Z</time></trkpt><trkpt lat="48.74907785262835" lon="3.2387460752695327"><ele>146.4</ele><time>2026-05-01T16:29:08Z</time></trkpt><trkpt lat="48.748989705783906" lon="3.238684921986601"><ele>146.8</ele><time>2026-05-01T16:29:09Z</time></trkpt><trkpt lat="48.74890212358533" lon="3.238634276070094"><ele>147.20000000000002</ele><time>2026-05-01T16:29:10Z</time></trkpt><trkpt lat="48.74881243744538" lon="3.2385846101247426"><ele>147.6</ele><time>2026-05-01T16:29:11Z</time></trkpt><trkpt lat="48.74872341478553" lon="3.2385407367675154"><ele>148.0</ele><time>2026-05-01T16:29:12Z</time></trkpt><trkpt lat="48.748635400236765" lon="3.238497111909742"><ele>148.0</ele><time>2026-05-01T16:29:13Z</time></trkpt><trkpt lat="48.7485514468012" lon="3.238451386919305"><ele>148.0</ele><time>2026-05-01T16:29:14Z</time></trkpt><trkpt lat="48.74846739208578" lon="3.2384053676333764"><ele>148.0</ele><time>2026-05-01T16:29:15Z</time></trkpt><trkpt lat="48.74838265733875" lon="3.238358412547757"><ele>148.0</ele><time>2026-05-01T16:29:16Z</time></trkpt><trkpt lat="48.74830138841284" lon="3.238312315877736"><ele>148.0</ele><time>2026-05-01T16:29:17Z</time></trkpt><trkpt lat="48.74821724056181" lon="3.238269415993623"><ele>148.0</ele><time>2026-05-01T16:29:18Z</time></trkpt><trkpt lat="48.74813618010144" lon="3.2382198380971614"><ele>148.0</ele><time>2026-05-01T16:29:19Z</time></trkpt><trkpt lat="48.74805487087328" lon="3.2381609553692994"><ele>148.0</ele><time>2026-05-01T16:29:20Z</time></trkpt><trkpt lat="48.747971327694586" lon="3.238092974271833"><ele>148.0</ele><time>2026-05-01T16:29:21Z</time></trkpt><trkpt lat="48.7478851183151" lon="3.238043651326769"><ele>148.0</ele><time>2026-05-01T16:29:22Z</time></trkpt><trkpt lat="48.74779707909223" lon="3.2379734296805096"><ele>148.0</ele><time>2026-05-01T16:29:23Z</time></trkpt><trkpt lat="48.74770660702912" lon="3.23789500966778"><ele>147.5</ele><time>2026-05-01T16:29:24Z</time></trkpt><trkpt lat="48.74761493221559" lon="3.237812636245235"><ele>147.0</ele><time>2026-05-01T16:29:25Z</time></trkpt><trkpt lat="48.74751745776548" lon="3.237727223836454"><ele>146.5</ele><time>2026-05-01T16:29:26Z</time></trkpt><trkpt lat="48.747420955606806" lon="3.2376340961336174"><ele>146.0</ele><time>2026-05-01T16:29:27Z</time></trkpt><trkpt lat="48.747321502141034" lon="3.2375350007654364"><ele>146.0</ele><time>2026-05-01T16:29:28Z</time></trkpt><trkpt lat="48.74721971425045" lon="3.2374356837276634"><ele>146.0</ele><time>2026-05-01T16:29:29Z</time></trkpt><trkpt lat="48.74712143666093" lon="3.2373360434841203"><ele>146.0</ele><time>2026-05-01T16:29:30Z</time></trkpt><trkpt lat="48.747018894502276" lon="3.237233389655211"><ele>146.0</ele><time>2026-05-01T16:29:31Z</time></trkpt><trkpt lat="48.74691389536169" lon="3.2371352177462347"><ele>146.25</ele><time>2026-05-01T16:29:32Z</time></trkpt><trkpt lat="48.74680700417382" lon="3.2370443935542124"><ele>146.5</ele><time>2026-05-01T16:29:33Z</time></trkpt><trkpt lat="48.74669943406684" lon="3.23695534625925"><ele>146.75</ele><time>2026-05-01T16:29:34Z</time></trkpt><trkpt lat="48.74658799107444" lon="3.2368677810241056"><ele>147.0</ele><time>2026-05-01T16:29:35Z</time></trkpt><trkpt lat="48.74646301983988" lon="3.2367755239444427"><ele>147.0</ele><time>2026-05-01T16:29:36Z</time></trkpt><trkpt lat="48.746328659402394" lon="3.236677163119912"><ele>147.0</ele><time>2026-05-01T16:29:37Z</time></trkpt><trkpt lat="48.74618170338235" lon="3.2365635649383204"><ele>147.0</ele><time>2026-05-01T16:29:38Z</time></trkpt><trkpt lat="48.74602970896293" lon="3.2364411779396787"><ele>147.33333333333334</ele><time>2026-05-01T16:29:39Z</time></trkpt><trkpt lat="48.74586578452607" lon="3.2363153619794627"><ele>147.66666666666669</ele><time>2026-05-01T16:29:40Z</time></trkpt><trkpt lat="48.745724617399325" lon="3.2361780861018823"><ele>148.0</ele><time>2026-05-01T16:29:41Z</time></trkpt><trkpt lat="48.745571962833154" lon="3.2360634677011055"><ele>148.0</ele><time>2026-05-01T16:29:42Z</time></trkpt><trkpt lat="48.745446372121776" lon="3.2359737017762007"><ele>148.0</ele><time>2026-05-01T16:29:43Z</time></trkpt><trkpt lat="48.74533896292164" lon="3.2358948682984128"><ele>148.0</ele><time>2026-05-01T16:29:44Z</time></trkpt><trkpt lat="48.74525288381018" lon="3.235835847393795"><ele>148.0</ele><time>2026-05-01T16:29:45Z</time></trkpt><trkpt lat="48.745184213854046" lon="3.2357817694123514"><ele>148.0</ele><time>2026-05-01T16:29:46Z</time></trkpt><trkpt lat="48.745131565420486" lon="3.2357115107786587"><ele>148.4</ele><time>2026-05-01T16:29:47Z</time></trkpt><trkpt lat="48.74508601982143" lon="3.2356284309675862"><ele>148.8</ele><time>2026-05-01T16:29:48Z</time></trkpt><trkpt lat="48.74506874295057" lon="3.2354860234955307"><ele>149.2</ele><time>2026-05-01T16:29:49Z</time></trkpt><trkpt lat="48.74507916202729" lon="3.2353149060869555"><ele>149.6</ele><time>2026-05-01T16:29:50Z</time></trkpt><trkpt lat="48.74509598379038" lon="3.2351195826734465"><ele>150.0</ele><time>2026-05-01T16:29:51Z</time></trkpt><trkpt lat="48.74511246666253" lon="3.234903767028082"><ele>150.0</ele><time>2026-05-01T16:29:52Z</time></trkpt><trkpt lat="48.74512478406951" lon="3.234669227023029"><ele>150.0</ele><time>2026-05-01T16:29:53Z</time></trkpt><trkpt lat="48.74513900120505" lon="3.234418988474783"><ele>150.0</ele><time>2026-05-01T16:29:54Z</time></trkpt><trkpt lat="48.74515530199212" lon="3.2341570056879547"><ele>150.25</ele><time>2026-05-01T16:29:55Z</time></trkpt><trkpt lat="48.74517023913788" lon="3.2338959714407642"><ele>150.5</ele><time>2026-05-01T16:29:56Z</time></trkpt><trkpt lat="48.74518373271999" lon="3.2336797596134743"><ele>150.75</ele><time>2026-05-01T16:29:57Z</time></trkpt><trkpt lat="48.745196981959666" lon="3.2335026610390556"><ele>151.0</ele><time>2026-05-01T16:29:58Z</time></trkpt><trkpt lat="48.7452120860704" lon="3.2333443001096995"><ele>151.0</ele><time>2026-05-01T16:29:59Z</time></trkpt><trkpt lat="48.74522169564098" lon="3.2332094142331624"><ele>151.0</ele><time>2026-05-01T16:30:00Z</time></trkpt><trkpt lat="48.745212852666796" lon="3.233085883635272"><ele>151.0</ele><time>2026-05-01T16:30:01Z</time></trkpt><trkpt lat="48.74516840423852" lon="3.232982723018587"><ele>151.0</ele><time>2026-05-01T16:30:02Z</time></trkpt><trkpt lat="48.745086282773514" lon="3.2328948073216"><ele>151.0</ele><time>2026-05-01T16:30:03Z</time></trkpt><trkpt lat="48.74497528741102" lon="3.232830027892684"><ele>151.0</ele><time>2026-05-01T16:30:04Z</time></trkpt><trkpt lat="48.7448532587287" lon="3.2327415627812885"><ele>151.0</ele><time>2026-05-01T16:30:05Z</time></trkpt><trkpt lat="48.74471964931104" lon="3.2326499485818805"><ele>151.0</ele><time>2026-05-01T16:30:06Z</time></trkpt><trkpt lat="48.74458048088722" lon="3.232548773947853"><ele>151.0</ele><time>2026-05-01T16:30:07Z</time></trkpt><trkpt lat="48.74443865300307" lon="3.2324434075690758"><ele>150.66666666666669</ele><time>2026-05-01T16:30:08Z</time></trkpt><trkpt lat="48.74429429320787" lon="3.2323389713172723"><ele>150.33333333333334</ele><time>2026-05-01T16:30:09Z</time></trkpt><trkpt lat="48.74414333693111" lon="3.2322207945672816"><ele>150.0</ele><time>2026-05-01T16:30:10Z</time></trkpt><trkpt lat="48.74398576114975" lon="3.2321024696248495"><ele>150.0</ele><time>2026-05-01T16:30:11Z</time></trkpt><trkpt lat="48.743827280636395" lon="3.2319807533027136"><ele>150.0</ele><time>2026-05-01T16:30:12Z</time></trkpt><trkpt lat="48.74367028824131" lon="3.231862446087542"><ele>150.0</ele><time>2026-05-01T16:30:13Z</time></trkpt><trkpt lat="48.7435079563949" lon="3.231747529783292"><ele>150.66666666666666</ele><time>2026-05-01T16:30:14Z</time></trkpt><trkpt lat="48.7433493355835" lon="3.231639115290022"><ele>151.33333333333331</ele><time>2026-05-01T16:30:15Z</time></trkpt><trkpt lat="48.74317296674222" lon="3.2314948355491313"><ele>152.0</ele><time>2026-05-01T16:30:16Z</time></trkpt><trkpt lat="48.74300050132433" lon="3.2313654259181708"><ele>152.0</ele><time>2026-05-01T16:30:17Z</time></trkpt><trkpt lat="48.742827096911775" lon="3.2312334538385157"><ele>152.0</ele><time>2026-05-01T16:30:18Z</time></trkpt><trkpt lat="48.74264623240415" lon="3.231100001686052"><ele>152.0</ele><time>2026-05-01T16:30:19Z</time></trkpt><trkpt lat="48.742466391767216" lon="3.2309742888912107"><ele>151.66666666666666</ele><time>2026-05-01T16:30:20Z</time></trkpt><trkpt lat="48.742285861324774" lon="3.2308428184436826"><ele>151.33333333333334</ele><time>2026-05-01T16:30:21Z</time></trkpt><trkpt lat="48.74210996803994" lon="3.2307073935170965"><ele>151.0</ele><time>2026-05-01T16:30:22Z</time></trkpt><trkpt lat="48.741934744321185" lon="3.230569098644365"><ele>151.66666666666669</ele><time>2026-05-01T16:30:23Z</time></trkpt><trkpt lat="48.74175964909157" lon="3.230440665228833"><ele>152.33333333333334</ele><time>2026-05-01T16:30:24Z</time></trkpt><trkpt lat="48.741579192622886" lon="3.230307942245404"><ele>153.0</ele><time>2026-05-01T16:30:25Z</time></trkpt><trkpt lat="48.7414007790439" lon="3.2301741077581023"><ele>153.0</ele><time>2026-05-01T16:30:26Z</time></trkpt><trkpt lat="48.74123260049292" lon="3.2300491466162082"><ele>153.0</ele><time>2026-05-01T16:30:27Z</time></trkpt><trkpt lat="48.741089318391104" lon="3.229948367842598"><ele>153.0</ele><time>2026-05-01T16:30:28Z</time></trkpt><trkpt lat="48.740971848307964" lon="3.229864991502096"><ele>153.0</ele><time>2026-05-01T16:30:29Z</time></trkpt><trkpt lat="48.740890465745764" lon="3.229819881306893"><ele>153.0</ele><time>2026-05-01T16:30:30Z</time></trkpt><trkpt lat="48.74083073293493" lon="3.2297709549238496"><ele>153.0</ele><time>2026-05-01T16:30:31Z</time></trkpt><trkpt lat="48.74073824511075" lon="3.2297047454538537"><ele>153.0</ele><time>2026-05-01T16:30:33Z</time></trkpt><trkpt lat="48.74069314910083" lon="3.2298103573465524"><ele>153.0</ele><time>2026-05-01T16:30:47Z</time></trkpt><trkpt lat="48.74067709862186" lon="3.2299306052942782"><ele>153.0</ele><time>2026-05-01T16:30:48Z</time></trkpt><trkpt lat="48.74068525705838" lon="3.23006233385473"><ele>153.0</ele><time>2026-05-01T16:30:49Z</time></trkpt><trkpt lat="48.740689211932576" lon="3.2302302869910835"><ele>153.0</ele><time>2026-05-01T16:30:50Z</time></trkpt><trkpt lat="48.74068215196578" lon="3.2304131596310284"><ele>153.0</ele><time>2026-05-01T16:30:51Z</time></trkpt><trkpt lat="48.74066513202721" lon="3.2306155033595636"><ele>153.0</ele><time>2026-05-01T16:30:52Z</time></trkpt><trkpt lat="48.74065554210381" lon="3.2308293134913018"><ele>153.0</ele><time>2026-05-01T16:30:53Z</time></trkpt><trkpt lat="48.74064360723127" lon="3.231045880567309"><ele>153.0</ele><time>2026-05-01T16:30:54Z</time></trkpt><trkpt lat="48.74062992752491" lon="3.2312737119055424"><ele>153.0</ele><time>2026-05-01T16:30:55Z</time></trkpt><trkpt lat="48.740614790616" lon="3.231505830712138"><ele>153.0</ele><time>2026-05-01T16:30:56Z</time></trkpt><trkpt lat="48.7406011607597" lon="3.231747349912768"><ele>153.0</ele><time>2026-05-01T16:30:57Z</time></trkpt><trkpt lat="48.74058272603581" lon="3.2319865959822445"><ele>153.0</ele><time>2026-05-01T16:30:58Z</time></trkpt><trkpt lat="48.74057854863777" lon="3.2322316945036467"><ele>153.0</ele><time>2026-05-01T16:30:59Z</time></trkpt><trkpt lat="48.74055899985734" lon="3.2324809950190883"><ele>153.0</ele><time>2026-05-01T16:31:00Z</time></trkpt><trkpt lat="48.74055061579822" lon="3.232730143435836"><ele>153.0</ele><time>2026-05-01T16:31:01Z</time></trkpt><trkpt lat="48.74053931449583" lon="3.232981567816251"><ele>153.0</ele><time>2026-05-01T16:31:02Z</time></trkpt><trkpt lat="48.74052820171331" lon="3.2332197002529934"><ele>153.0</ele><time>2026-05-01T16:31:03Z</time></trkpt><trkpt lat="48.74049984062892" lon="3.2334465996780124"><ele>153.0</ele><time>2026-05-01T16:31:04Z</time></trkpt><trkpt lat="48.740487200015444" lon="3.2336465186289653"><ele>153.0</ele><time>2026-05-01T16:31:05Z</time></trkpt><trkpt lat="48.74048701707513" lon="3.233804646926892"><ele>153.0</ele><time>2026-05-01T16:31:06Z</time></trkpt><trkpt lat="48.740477630157244" lon="3.233943884005604"><ele>153.0</ele><time>2026-05-01T16:31:07Z</time></trkpt><trkpt lat="48.74047732998998" lon="3.2340694253092406"><ele>153.0</ele><time>2026-05-01T16:31:08Z</time></trkpt><trkpt lat="48.74047399090429" lon="3.2341716052060945"><ele>153.0</ele><time>2026-05-01T16:31:09Z</time></trkpt><trkpt lat="48.74043923171393" lon="3.234319085208789"><ele>153.0</ele><time>2026-05-01T16:31:11Z</time></trkpt><trkpt lat="48.74036917163518" lon="3.2343458304112582"><ele>153.0</ele><time>2026-05-01T16:31:12Z</time></trkpt><trkpt lat="48.740280532503114" lon="3.2343283790067248"><ele>153.0</ele><time>2026-05-01T16:31:13Z</time></trkpt><trkpt lat="48.74017328056773" lon="3.234300738033752"><ele>153.5</ele><time>2026-05-01T16:31:14Z</time></trkpt><trkpt lat="48.74006621430646" lon="3.234300587907266"><ele>154.0</ele><time>2026-05-01T16:31:15Z</time></trkpt><trkpt lat="48.73994838893591" lon="3.2342993452393958"><ele>154.5</ele><time>2026-05-01T16:31:16Z</time></trkpt><trkpt lat="48.73982267187707" lon="3.2342897043116383"><ele>155.0</ele><time>2026-05-01T16:31:17Z</time></trkpt><trkpt lat="48.739697670010095" lon="3.2342821110387985"><ele>155.0</ele><time>2026-05-01T16:31:18Z</time></trkpt><trkpt lat="48.73956245614023" lon="3.2342955203599075"><ele>155.0</ele><time>2026-05-01T16:31:19Z</time></trkpt><trkpt lat="48.73941767052992" lon="3.234300366716926"><ele>155.0</ele><time>2026-05-01T16:31:20Z</time></trkpt><trkpt lat="48.73926517628217" lon="3.234277705649955"><ele>155.0</ele><time>2026-05-01T16:31:21Z</time></trkpt><trkpt lat="48.73910558848631" lon="3.234273236969219"><ele>155.66666666666666</ele><time>2026-05-01T16:31:22Z</time></trkpt><trkpt lat="48.738947288370305" lon="3.234254507841052"><ele>156.33333333333334</ele><time>2026-05-01T16:31:23Z</time></trkpt><trkpt lat="48.738780940582785" lon="3.234267083177406"><ele>157.0</ele><time>2026-05-01T16:31:24Z</time></trkpt><trkpt lat="48.738612320424075" lon="3.2342670935370887"><ele>157.66666666666669</ele><time>2026-05-01T16:31:25Z</time></trkpt><trkpt lat="48.73845211136269" lon="3.234253213543585"><ele>158.33333333333334</ele><time>2026-05-01T16:31:26Z</time></trkpt><trkpt lat="48.738280450147414" lon="3.2342631363210996"><ele>159.0</ele><time>2026-05-01T16:31:27Z</time></trkpt><trkpt lat="48.73810986147982" lon="3.2342627544553175"><ele>159.0</ele><time>2026-05-01T16:31:28Z</time></trkpt><trkpt lat="48.73793423710488" lon="3.234263916715189"><ele>159.0</ele><time>2026-05-01T16:31:29Z</time></trkpt><trkpt lat="48.73776510738846" lon="3.234241603415523"><ele>159.0</ele><time>2026-05-01T16:31:30Z</time></trkpt><trkpt lat="48.73758716257443" lon="3.2342430718285846"><ele>159.0</ele><time>2026-05-01T16:31:31Z</time></trkpt><trkpt lat="48.73741892152309" lon="3.234247692540928"><ele>159.0</ele><time>2026-05-01T16:31:32Z</time></trkpt><trkpt lat="48.7372332758797" lon="3.2342430852808177"><ele>159.0</ele><time>2026-05-01T16:31:33Z</time></trkpt><trkpt lat="48.73705742000241" lon="3.2342359498966244"><ele>159.33333333333334</ele><time>2026-05-01T16:31:34Z</time></trkpt><trkpt lat="48.73687664710866" lon="3.2342285005467097"><ele>159.66666666666669</ele><time>2026-05-01T16:31:35Z</time></trkpt><trkpt lat="48.736699527482884" lon="3.2342422927654058"><ele>160.0</ele><time>2026-05-01T16:31:36Z</time></trkpt><trkpt lat="48.73651268054991" lon="3.2342432101162775"><ele>160.0</ele><time>2026-05-01T16:31:37Z</time></trkpt><trkpt lat="48.73634020598127" lon="3.234237474281112"><ele>160.0</ele><time>2026-05-01T16:31:38Z</time></trkpt><trkpt lat="48.736147711781406" lon="3.234225629301818"><ele>160.0</ele><time>2026-05-01T16:31:39Z</time></trkpt><trkpt lat="48.73595082906005" lon="3.234227486529361"><ele>160.0</ele><time>2026-05-01T16:31:40Z</time></trkpt><trkpt lat="48.73575859332441" lon="3.234233030249747"><ele>160.0</ele><time>2026-05-01T16:31:41Z</time></trkpt><trkpt lat="48.7355644712935" lon="3.2342277695010333"><ele>160.0</ele><time>2026-05-01T16:31:42Z</time></trkpt><trkpt lat="48.73536596243872" lon="3.2342228759984173"><ele>160.0</ele><time>2026-05-01T16:31:43Z</time></trkpt><trkpt lat="48.73516288510894" lon="3.234211785446917"><ele>160.0</ele><time>2026-05-01T16:31:44Z</time></trkpt><trkpt lat="48.734961498518004" lon="3.234202920088972"><ele>160.0</ele><time>2026-05-01T16:31:45Z</time></trkpt><trkpt lat="48.73475873132094" lon="3.2342095176378485"><ele>160.0</ele><time>2026-05-01T16:31:46Z</time></trkpt><trkpt lat="48.734557354939156" lon="3.2342163130630137"><ele>160.0</ele><time>2026-05-01T16:31:47Z</time></trkpt><trkpt lat="48.73436184983297" lon="3.2342100819617494"><ele>160.0</ele><time>2026-05-01T16:31:48Z</time></trkpt><trkpt lat="48.73416399339089" lon="3.2342039057267957"><ele>160.33333333333334</ele><time>2026-05-01T16:31:49Z</time></trkpt><trkpt lat="48.733969876942105" lon="3.234201151223352"><ele>160.66666666666666</ele><time>2026-05-01T16:31:50Z</time></trkpt><trkpt lat="48.733781257122985" lon="3.2342046568202667"><ele>161.0</ele><time>2026-05-01T16:31:51Z</time></trkpt><trkpt lat="48.7335910541417" lon="3.2341920849574164"><ele>161.33333333333331</ele><time>2026-05-01T16:31:52Z</time></trkpt><trkpt lat="48.73339838318587" lon="3.234184923355524"><ele>161.66666666666666</ele><time>2026-05-01T16:31:53Z</time></trkpt><trkpt lat="48.73322924233243" lon="3.2341854683426328"><ele>162.0</ele><time>2026-05-01T16:31:54Z</time></trkpt><trkpt lat="48.73308063982305" lon="3.234176265513366"><ele>162.0</ele><time>2026-05-01T16:31:55Z</time></trkpt><trkpt lat="48.73295357507392" lon="3.2341698131938594"><ele>162.0</ele><time>2026-05-01T16:31:56Z</time></trkpt><trkpt lat="48.73284278265522" lon="3.2341707409739726"><ele>162.0</ele><time>2026-05-01T16:31:57Z</time></trkpt><trkpt lat="48.73275153831166" lon="3.2341793435624955"><ele>162.0</ele><time>2026-05-01T16:31:58Z</time></trkpt><trkpt lat="48.732684070983616" lon="3.2341844155934045"><ele>162.0</ele><time>2026-05-01T16:31:59Z</time></trkpt><trkpt lat="48.73260952042646" lon="3.234257462510409"><ele>162.0</ele><time>2026-05-01T16:32:01Z</time></trkpt><trkpt lat="48.732599891967766" lon="3.234457473572723"><ele>162.0</ele><time>2026-05-01T16:32:03Z</time></trkpt><trkpt lat="48.732608555334316" lon="3.234589384775162"><ele>162.0</ele><time>2026-05-01T16:32:04Z</time></trkpt><trkpt lat="48.73261744686418" lon="3.2347343557349553"><ele>162.0</ele><time>2026-05-01T16:32:05Z</time></trkpt><trkpt lat="48.732626535177374" lon="3.2348912449441345"><ele>162.0</ele><time>2026-05-01T16:32:06Z</time></trkpt><trkpt lat="48.7326139753418" lon="3.235058622485387"><ele>162.0</ele><time>2026-05-01T16:32:07Z</time></trkpt><trkpt lat="48.73261962911264" lon="3.235234727483473"><ele>162.0</ele><time>2026-05-01T16:32:08Z</time></trkpt><trkpt lat="48.73262552802954" lon="3.2354184683246263"><ele>162.0</ele><time>2026-05-01T16:32:09Z</time></trkpt><trkpt lat="48.7326411267289" lon="3.2356000456577867"><ele>162.0</ele><time>2026-05-01T16:32:10Z</time></trkpt><trkpt lat="48.73265002305684" lon="3.2357577128977457"><ele>162.16666666666666</ele><time>2026-05-01T16:32:11Z</time></trkpt><trkpt lat="48.73265232426558" lon="3.2358912568393055"><ele>162.33333333333334</ele><time>2026-05-01T16:32:12Z</time></trkpt><trkpt lat="48.73265152364596" lon="3.236010058373024"><ele>162.5</ele><time>2026-05-01T16:32:13Z</time></trkpt><trkpt lat="48.73265921749141" lon="3.236126952356966"><ele>162.66666666666669</ele><time>2026-05-01T16:32:14Z</time></trkpt><trkpt lat="48.73266100938841" lon="3.2362536091846"><ele>162.83333333333334</ele><time>2026-05-01T16:32:15Z</time></trkpt><trkpt lat="48.73266287255982" lon="3.2363808704212604"><ele>163.0</ele><time>2026-05-01T16:32:16Z</time></trkpt><trkpt lat="48.73267032766698" lon="3.236507348917541"><ele>163.16666666666669</ele><time>2026-05-01T16:32:17Z</time></trkpt><trkpt lat="48.73267569363841" lon="3.2366264600249437"><ele>163.33333333333334</ele><time>2026-05-01T16:32:18Z</time></trkpt><trkpt lat="48.732677674194065" lon="3.2367480430889053"><ele>163.5</ele><time>2026-05-01T16:32:19Z</time></trkpt><trkpt lat="48.73268222696354" lon="3.236869913159273"><ele>163.66666666666666</ele><time>2026-05-01T16:32:20Z</time></trkpt><trkpt lat="48.73268756325754" lon="3.236992855872954"><ele>163.83333333333331</ele><time>2026-05-01T16:32:21Z</time></trkpt><trkpt lat="48.732686165134496" lon="3.237113515283842"><ele>164.0</ele><time>2026-05-01T16:32:22Z</time></trkpt><trkpt lat="48.732689392111624" lon="3.2372315649798074"><ele>163.85714285714283</ele><time>2026-05-01T16:32:23Z</time></trkpt><trkpt lat="48.73269353792129" lon="3.237351187935053"><ele>163.71428571428572</ele><time>2026-05-01T16:32:24Z</time></trkpt><trkpt lat="48.73269508150619" lon="3.2374630271118403"><ele>163.57142857142856</ele><time>2026-05-01T16:32:25Z</time></trkpt><trkpt lat="48.73269435280628" lon="3.2375756445963804"><ele>163.42857142857142</ele><time>2026-05-01T16:32:26Z</time></trkpt><trkpt lat="48.73267579760128" lon="3.237686909641004"><ele>163.28571428571428</ele><time>2026-05-01T16:32:27Z</time></trkpt><trkpt lat="48.732686688311624" lon="3.2377965387184844"><ele>163.14285714285714</ele><time>2026-05-01T16:32:28Z</time></trkpt><trkpt lat="48.732679265043274" lon="3.2378977298055056"><ele>163.0</ele><time>2026-05-01T16:32:29Z</time></trkpt><trkpt lat="48.73267499113724" lon="3.2379936714706874"><ele>163.0</ele><time>2026-05-01T16:32:30Z</time></trkpt><trkpt lat="48.732670853997156" lon="3.2380948286584617"><ele>163.0</ele><time>2026-05-01T16:32:31Z</time></trkpt><trkpt lat="48.732636005231356" lon="3.2381889544288835"><ele>163.0</ele><time>2026-05-01T16:32:32Z</time></trkpt><trkpt lat="48.732621932184124" lon="3.238301595536937"><ele>163.0</ele><time>2026-05-01T16:32:33Z</time></trkpt><trkpt lat="48.73260615867015" lon="3.2384084460579556"><ele>163.0</ele><time>2026-05-01T16:32:34Z</time></trkpt><trkpt lat="48.732590093729804" lon="3.2385148515032602"><ele>163.0</ele><time>2026-05-01T16:32:35Z</time></trkpt><trkpt lat="48.7325730442647" lon="3.2386277778988237"><ele>163.0</ele><time>2026-05-01T16:32:36Z</time></trkpt><trkpt lat="48.73255581641867" lon="3.238738483030996"><ele>163.0</ele><time>2026-05-01T16:32:37Z</time></trkpt><trkpt lat="48.732539280246876" lon="3.2388444659470084"><ele>163.0</ele><time>2026-05-01T16:32:38Z</time></trkpt><trkpt lat="48.732521979438665" lon="3.2389553495203303"><ele>163.0</ele><time>2026-05-01T16:32:39Z</time></trkpt><trkpt lat="48.73249566253649" lon="3.239125417243774"><ele>163.0</ele><time>2026-05-01T16:32:41Z</time></trkpt><trkpt lat="48.73246191823791" lon="3.2392512975625825"><ele>163.0</ele><time>2026-05-01T16:32:43Z</time></trkpt><trkpt lat="48.732363345890896" lon="3.2392097643144995"><ele>163.0</ele><time>2026-05-01T16:32:45Z</time></trkpt><trkpt lat="48.73229473678491" lon="3.239172596430022"><ele>163.0</ele><time>2026-05-01T16:32:46Z</time></trkpt><trkpt lat="48.732211318694375" lon="3.2391411948954123"><ele>163.0</ele><time>2026-05-01T16:32:47Z</time></trkpt><trkpt lat="48.73212522045796" lon="3.239123096353141"><ele>163.0</ele><time>2026-05-01T16:32:48Z</time></trkpt><trkpt lat="48.73203670882971" lon="3.239102866199679"><ele>163.0</ele><time>2026-05-01T16:32:49Z</time></trkpt><trkpt lat="48.731938026077906" lon="3.2390847597248174"><ele>163.0</ele><time>2026-05-01T16:32:50Z</time></trkpt><trkpt lat="48.73183317844225" lon="3.2390846652742855"><ele>162.8</ele><time>2026-05-01T16:32:51Z</time></trkpt><trkpt lat="48.73173153982513" lon="3.2390929507553397"><ele>162.60000000000002</ele><time>2026-05-01T16:32:52Z</time></trkpt><trkpt lat="48.73162345535817" lon="3.239090119260808"><ele>162.39999999999998</ele><time>2026-05-01T16:32:53Z</time></trkpt><trkpt lat="48.731510246784225" lon="3.2391012977035363"><ele>162.2</ele><time>2026-05-01T16:32:54Z</time></trkpt><trkpt lat="48.73139824459188" lon="3.2391328063818388"><ele>162.0</ele><time>2026-05-01T16:32:55Z</time></trkpt><trkpt lat="48.73128134934275" lon="3.239177956009623"><ele>162.0</ele><time>2026-05-01T16:32:56Z</time></trkpt><trkpt lat="48.73115100322097" lon="3.2392182878830007"><ele>162.0</ele><time>2026-05-01T16:32:57Z</time></trkpt><trkpt lat="48.73099827997474" lon="3.239227101208097"><ele>162.0</ele><time>2026-05-01T16:32:58Z</time></trkpt><trkpt lat="48.730838396679474" lon="3.2392613659754415"><ele>162.0</ele><time>2026-05-01T16:32:59Z</time></trkpt><trkpt lat="48.73067699599756" lon="3.239346414010971"><ele>161.66666666666666</ele><time>2026-05-01T16:33:00Z</time></trkpt><trkpt lat="48.7305225902747" lon="3.2394568506615284"><ele>161.33333333333331</ele><time>2026-05-01T16:33:01Z</time></trkpt><trkpt lat="48.730368747554394" lon="3.2395671053984008"><ele>161.0</ele><time>2026-05-01T16:33:02Z</time></trkpt><trkpt lat="48.73023546820645" lon="3.239662108504932"><ele>160.5</ele><time>2026-05-01T16:33:03Z</time></trkpt><trkpt lat="48.73011425197829" lon="3.23975246883039"><ele>160.0</ele><time>2026-05-01T16:33:04Z</time></trkpt><trkpt lat="48.72998168950884" lon="3.239823712416938"><ele>159.5</ele><time>2026-05-01T16:33:05Z</time></trkpt><trkpt lat="48.729824624801545" lon="3.239846628306037"><ele>159.0</ele><time>2026-05-01T16:33:06Z</time></trkpt><trkpt lat="48.72965830542702" lon="3.2398801515881073"><ele>159.0</ele><time>2026-05-01T16:33:07Z</time></trkpt><trkpt lat="48.72948127658515" lon="3.239910379810072"><ele>159.0</ele><time>2026-05-01T16:33:08Z</time></trkpt><trkpt lat="48.72929692700909" lon="3.2399345405597817"><ele>159.0</ele><time>2026-05-01T16:33:09Z</time></trkpt><trkpt lat="48.729105798985536" lon="3.23995886345107"><ele>158.66666666666666</ele><time>2026-05-01T16:33:10Z</time></trkpt><trkpt lat="48.72891650060562" lon="3.240003657040906"><ele>158.33333333333331</ele><time>2026-05-01T16:33:11Z</time></trkpt><trkpt lat="48.728730161079405" lon="3.2400881431687374"><ele>158.0</ele><time>2026-05-01T16:33:12Z</time></trkpt><trkpt lat="48.72854819010974" lon="3.2402049540100175"><ele>157.66666666666666</ele><time>2026-05-01T16:33:13Z</time></trkpt><trkpt lat="48.728371261364536" lon="3.2403258095911696"><ele>157.33333333333334</ele><time>2026-05-01T16:33:14Z</time></trkpt><trkpt lat="48.728195775796685" lon="3.240413312088035"><ele>157.0</ele><time>2026-05-01T16:33:15Z</time></trkpt><trkpt lat="48.72801016372307" lon="3.2404193357265867"><ele>157.0</ele><time>2026-05-01T16:33:16Z</time></trkpt><trkpt lat="48.72782436739697" lon="3.2404176535028997"><ele>157.0</ele><time>2026-05-01T16:33:17Z</time></trkpt><trkpt lat="48.727632959185435" lon="3.2404317409650973"><ele>157.0</ele><time>2026-05-01T16:33:18Z</time></trkpt><trkpt lat="48.727443954016245" lon="3.2404707388698903"><ele>157.33333333333334</ele><time>2026-05-01T16:33:19Z</time></trkpt><trkpt lat="48.72725027430165" lon="3.2404779493939113"><ele>157.66666666666666</ele><time>2026-05-01T16:33:20Z</time></trkpt><trkpt lat="48.72705627679964" lon="3.2404874622524082"><ele>158.0</ele><time>2026-05-01T16:33:21Z</time></trkpt><trkpt lat="48.726858763344524" lon="3.240500849451348"><ele>158.33333333333331</ele><time>2026-05-01T16:33:22Z</time></trkpt><trkpt lat="48.726668980369766" lon="3.2405163402297594"><ele>158.66666666666666</ele><time>2026-05-01T16:33:23Z</time></trkpt><trkpt lat="48.72647676083631" lon="3.2405394449698957"><ele>159.0</ele><time>2026-05-01T16:33:24Z</time></trkpt><trkpt lat="48.72627850772718" lon="3.240559594103964"><ele>159.0</ele><time>2026-05-01T16:33:25Z</time></trkpt><trkpt lat="48.72607998589969" lon="3.2405816733019313"><ele>159.0</ele><time>2026-05-01T16:33:26Z</time></trkpt><trkpt lat="48.72587909892757" lon="3.240602954539048"><ele>159.0</ele><time>2026-05-01T16:33:27Z</time></trkpt><trkpt lat="48.7256794392619" lon="3.240629514573702"><ele>159.66666666666666</ele><time>2026-05-01T16:33:28Z</time></trkpt><trkpt lat="48.72547890702009" lon="3.2406482251176487"><ele>160.33333333333331</ele><time>2026-05-01T16:33:29Z</time></trkpt><trkpt lat="48.72527829342157" lon="3.2406761528805084"><ele>161.0</ele><time>2026-05-01T16:33:30Z</time></trkpt><trkpt lat="48.72508324839427" lon="3.240701419577599"><ele>161.66666666666666</ele><time>2026-05-01T16:33:31Z</time></trkpt><trkpt lat="48.72488969473164" lon="3.240717537047197"><ele>162.33333333333334</ele><time>2026-05-01T16:33:32Z</time></trkpt><trkpt lat="48.72469459929695" lon="3.2407353758212056"><ele>163.0</ele><time>2026-05-01T16:33:33Z</time></trkpt><trkpt lat="48.72450131520547" lon="3.240750194345363"><ele>163.66666666666669</ele><time>2026-05-01T16:33:34Z</time></trkpt><trkpt lat="48.724308379132715" lon="3.240778401054021"><ele>164.33333333333334</ele><time>2026-05-01T16:33:35Z</time></trkpt><trkpt lat="48.72410922494132" lon="3.240810242414281"><ele>165.0</ele><time>2026-05-01T16:33:36Z</time></trkpt><trkpt lat="48.72391910675955" lon="3.2408120958173137"><ele>165.0</ele><time>2026-05-01T16:33:37Z</time></trkpt><trkpt lat="48.723723302360526" lon="3.240845362241293"><ele>165.0</ele><time>2026-05-01T16:33:38Z</time></trkpt><trkpt lat="48.72353141959756" lon="3.240874050448717"><ele>165.0</ele><time>2026-05-01T16:33:39Z</time></trkpt><trkpt lat="48.72333701636194" lon="3.24092866315728"><ele>165.0</ele><time>2026-05-01T16:33:40Z</time></trkpt><trkpt lat="48.72315112533172" lon="3.241045455285514"><ele>165.0</ele><time>2026-05-01T16:33:41Z</time></trkpt><trkpt lat="48.72297166649766" lon="3.241174359986795"><ele>165.0</ele><time>2026-05-01T16:33:42Z</time></trkpt><trkpt lat="48.722811103946974" lon="3.2412945982231105"><ele>164.75</ele><time>2026-05-01T16:33:43Z</time></trkpt><trkpt lat="48.72266667337771" lon="3.241393883201469"><ele>164.5</ele><time>2026-05-01T16:33:44Z</time></trkpt><trkpt lat="48.72253362625363" lon="3.241469109231175"><ele>164.25</ele><time>2026-05-01T16:33:45Z</time></trkpt><trkpt lat="48.72241461024608" lon="3.241548367955364"><ele>164.0</ele><time>2026-05-01T16:33:46Z</time></trkpt><trkpt lat="48.72230024205939" lon="3.241617719614973"><ele>164.0</ele><time>2026-05-01T16:33:47Z</time></trkpt><trkpt lat="48.72218341881972" lon="3.241691334088518"><ele>164.0</ele><time>2026-05-01T16:33:48Z</time></trkpt><trkpt lat="48.72206519890335" lon="3.241765196980572"><ele>164.0</ele><time>2026-05-01T16:33:49Z</time></trkpt><trkpt lat="48.72194332781552" lon="3.241831821425699"><ele>164.0</ele><time>2026-05-01T16:33:50Z</time></trkpt><trkpt lat="48.72182963087387" lon="3.241903583250385"><ele>164.0</ele><time>2026-05-01T16:33:51Z</time></trkpt><trkpt lat="48.72171038484911" lon="3.241965580917169"><ele>164.0</ele><time>2026-05-01T16:33:52Z</time></trkpt><trkpt lat="48.721592285331724" lon="3.2420402020778827"><ele>164.0</ele><time>2026-05-01T16:33:53Z</time></trkpt><trkpt lat="48.72147528574756" lon="3.242117392856504"><ele>164.0</ele><time>2026-05-01T16:33:54Z</time></trkpt><trkpt lat="48.72135736317718" lon="3.2421860073001434"><ele>164.0</ele><time>2026-05-01T16:33:55Z</time></trkpt><trkpt lat="48.721237482833416" lon="3.2422446057799927"><ele>164.0</ele><time>2026-05-01T16:33:56Z</time></trkpt><trkpt lat="48.721126641227535" lon="3.2423073876336925"><ele>164.0</ele><time>2026-05-01T16:33:57Z</time></trkpt><trkpt lat="48.721028451141144" lon="3.242360336345084"><ele>164.0</ele><time>2026-05-01T16:33:58Z</time></trkpt><trkpt lat="48.72092913850826" lon="3.2424164893999947"><ele>164.0</ele><time>2026-05-01T16:33:59Z</time></trkpt><trkpt lat="48.720829011544964" lon="3.2424627985558665"><ele>164.0</ele><time>2026-05-01T16:34:00Z</time></trkpt><trkpt lat="48.72073371106688" lon="3.2425063723783913"><ele>164.0</ele><time>2026-05-01T16:34:01Z</time></trkpt><trkpt lat="48.720645747152815" lon="3.2425557430794254"><ele>164.0</ele><time>2026-05-01T16:34:02Z</time></trkpt><trkpt lat="48.72056405671595" lon="3.2426018923917663"><ele>164.0</ele><time>2026-05-01T16:34:03Z</time></trkpt><trkpt lat="48.7204903671397" lon="3.242640324784107"><ele>164.0</ele><time>2026-05-01T16:34:04Z</time></trkpt><trkpt lat="48.72042944327734" lon="3.242675024280904"><ele>164.0</ele><time>2026-05-01T16:34:05Z</time></trkpt><trkpt lat="48.720348214371825" lon="3.2427195030856373"><ele>164.0</ele><time>2026-05-01T16:34:07Z</time></trkpt><trkpt lat="48.72026905282236" lon="3.242777657778172"><ele>164.0</ele><time>2026-05-01T16:34:11Z</time></trkpt><trkpt lat="48.72016347505611" lon="3.242857934452752"><ele>164.0</ele><time>2026-05-01T16:34:13Z</time></trkpt><trkpt lat="48.720100893390736" lon="3.2428900852885048"><ele>164.0</ele><time>2026-05-01T16:34:14Z</time></trkpt><trkpt lat="48.72003783976161" lon="3.242927474022251"><ele>163.99999999999997</ele><time>2026-05-01T16:34:15Z</time></trkpt><trkpt lat="48.71997336452702" lon="3.2429666178924474"><ele>164.0</ele><time>2026-05-01T16:34:16Z</time></trkpt><trkpt lat="48.719908444233326" lon="3.243006844715178"><ele>164.0</ele><time>2026-05-01T16:34:17Z</time></trkpt><trkpt lat="48.71984125848902" lon="3.2430554849040636"><ele>164.0</ele><time>2026-05-01T16:34:18Z</time></trkpt><trkpt lat="48.719774608611644" lon="3.2431124824152135"><ele>164.0</ele><time>2026-05-01T16:34:19Z</time></trkpt><trkpt lat="48.719705152707846" lon="3.2431642142736052"><ele>163.99999999999997</ele><time>2026-05-01T16:34:20Z</time></trkpt><trkpt lat="48.71963312489222" lon="3.2432192783157756"><ele>164.0</ele><time>2026-05-01T16:34:21Z</time></trkpt><trkpt lat="48.719559630975134" lon="3.243276637967211"><ele>164.0</ele><time>2026-05-01T16:34:22Z</time></trkpt><trkpt lat="48.7194843455975" lon="3.243335467217944"><ele>164.0</ele><time>2026-05-01T16:34:23Z</time></trkpt><trkpt lat="48.71940731625575" lon="3.243394028677273"><ele>164.0</ele><time>2026-05-01T16:34:24Z</time></trkpt><trkpt lat="48.71933351893187" lon="3.243461661657409"><ele>164.0</ele><time>2026-05-01T16:34:25Z</time></trkpt><trkpt lat="48.71925694737168" lon="3.2435293609217615"><ele>164.0</ele><time>2026-05-01T16:34:26Z</time></trkpt><trkpt lat="48.719179466879375" lon="3.2435977236745397"><ele>164.0</ele><time>2026-05-01T16:34:27Z</time></trkpt><trkpt lat="48.7190975729422" lon="3.243665250436227"><ele>163.5</ele><time>2026-05-01T16:34:28Z</time></trkpt><trkpt lat="48.71900847778055" lon="3.2437384409943055"><ele>163.0</ele><time>2026-05-01T16:34:29Z</time></trkpt><trkpt lat="48.71890862716488" lon="3.243810656631468"><ele>162.5</ele><time>2026-05-01T16:34:30Z</time></trkpt><trkpt lat="48.71880379703946" lon="3.2438922226205893"><ele>162.0</ele><time>2026-05-01T16:34:31Z</time></trkpt><trkpt lat="48.7186928936735" lon="3.243971169612184"><ele>162.0</ele><time>2026-05-01T16:34:32Z</time></trkpt><trkpt lat="48.71857326076817" lon="3.2440384809403198"><ele>162.0</ele><time>2026-05-01T16:34:33Z</time></trkpt><trkpt lat="48.71844460576502" lon="3.244086015902801"><ele>162.0</ele><time>2026-05-01T16:34:34Z</time></trkpt><trkpt lat="48.71831355443573" lon="3.2441115352463044"><ele>162.0</ele><time>2026-05-01T16:34:35Z</time></trkpt><trkpt lat="48.71818021587893" lon="3.244112850872281"><ele>161.75</ele><time>2026-05-01T16:34:36Z</time></trkpt><trkpt lat="48.71804676048354" lon="3.244107832767318"><ele>161.5</ele><time>2026-05-01T16:34:37Z</time></trkpt><trkpt lat="48.71790954898874" lon="3.244087343053273"><ele>161.25</ele><time>2026-05-01T16:34:38Z</time></trkpt><trkpt lat="48.7177583474008" lon="3.2440483160252036"><ele>161.0</ele><time>2026-05-01T16:34:39Z</time></trkpt><trkpt lat="48.7175924955143" lon="3.244007815662362"><ele>160.33333333333331</ele><time>2026-05-01T16:34:40Z</time></trkpt><trkpt lat="48.7174186187798" lon="3.24395894245375"><ele>159.66666666666666</ele><time>2026-05-01T16:34:41Z</time></trkpt><trkpt lat="48.71724358356931" lon="3.2439020287066516"><ele>159.0</ele><time>2026-05-01T16:34:42Z</time></trkpt><trkpt lat="48.71705254308091" lon="3.2438420598602957"><ele>159.33333333333334</ele><time>2026-05-01T16:34:43Z</time></trkpt><trkpt lat="48.716859814748645" lon="3.243775024112137"><ele>159.66666666666669</ele><time>2026-05-01T16:34:44Z</time></trkpt><trkpt lat="48.71665719795327" lon="3.2437175222801313"><ele>160.0</ele><time>2026-05-01T16:34:45Z</time></trkpt><trkpt lat="48.71645730927903" lon="3.243652988995042"><ele>160.0</ele><time>2026-05-01T16:34:46Z</time></trkpt><trkpt lat="48.716277774266395" lon="3.2435999836588914"><ele>160.0</ele><time>2026-05-01T16:34:47Z</time></trkpt><trkpt lat="48.71611837439584" lon="3.243548556444475"><ele>160.0</ele><time>2026-05-01T16:34:48Z</time></trkpt><trkpt lat="48.71597363119072" lon="3.243506278519124"><ele>160.0</ele><time>2026-05-01T16:34:49Z</time></trkpt><trkpt lat="48.7158341400591" lon="3.2434938241769573"><ele>160.0</ele><time>2026-05-01T16:34:50Z</time></trkpt><trkpt lat="48.715696936739334" lon="3.243498137881905"><ele>160.0</ele><time>2026-05-01T16:34:51Z</time></trkpt><trkpt lat="48.71555659689382" lon="3.2435168511003813"><ele>160.0</ele><time>2026-05-01T16:34:52Z</time></trkpt><trkpt lat="48.71541894231368" lon="3.2435362569027317"><ele>160.0</ele><time>2026-05-01T16:34:53Z</time></trkpt><trkpt lat="48.71527647287208" lon="3.243558593370288"><ele>160.0</ele><time>2026-05-01T16:34:54Z</time></trkpt><trkpt lat="48.715123863288746" lon="3.243580751965472"><ele>160.0</ele><time>2026-05-01T16:34:55Z</time></trkpt><trkpt lat="48.71496728218659" lon="3.2436039449934233"><ele>160.0</ele><time>2026-05-01T16:34:56Z</time></trkpt><trkpt lat="48.714807316251175" lon="3.2436393506812267"><ele>160.0</ele><time>2026-05-01T16:34:57Z</time></trkpt><trkpt lat="48.71464852073933" lon="3.24367392343418"><ele>160.0</ele><time>2026-05-01T16:34:58Z</time></trkpt><trkpt lat="48.71448683969859" lon="3.243716871727941"><ele>160.0</ele><time>2026-05-01T16:34:59Z</time></trkpt><trkpt lat="48.71432413855182" lon="3.243771329543801"><ele>160.0</ele><time>2026-05-01T16:35:00Z</time></trkpt><trkpt lat="48.714163056178634" lon="3.2438334085584573"><ele>160.0</ele><time>2026-05-01T16:35:01Z</time></trkpt><trkpt lat="48.71400198121847" lon="3.243901214501763"><ele>160.0</ele><time>2026-05-01T16:35:02Z</time></trkpt><trkpt lat="48.713837712129084" lon="3.2439631074706736"><ele>160.0</ele><time>2026-05-01T16:35:03Z</time></trkpt><trkpt lat="48.713677542508876" lon="3.244026705952245"><ele>160.0</ele><time>2026-05-01T16:35:04Z</time></trkpt><trkpt lat="48.713519401463074" lon="3.244094047676712"><ele>159.33333333333334</ele><time>2026-05-01T16:35:05Z</time></trkpt><trkpt lat="48.71336376391556" lon="3.244151496603769"><ele>158.66666666666666</ele><time>2026-05-01T16:35:06Z</time></trkpt><trkpt lat="48.7132114404001" lon="3.2442131945981387"><ele>158.0</ele><time>2026-05-01T16:35:07Z</time></trkpt><trkpt lat="48.71306327909953" lon="3.24427441627077"><ele>158.0</ele><time>2026-05-01T16:35:08Z</time></trkpt><trkpt lat="48.71291111194315" lon="3.2443345127298793"><ele>158.0</ele><time>2026-05-01T16:35:09Z</time></trkpt><trkpt lat="48.71275876589315" lon="3.244391924282361"><ele>158.0</ele><time>2026-05-01T16:35:10Z</time></trkpt><trkpt lat="48.712608689364615" lon="3.244453151600083"><ele>156.66666666666666</ele><time>2026-05-01T16:35:11Z</time></trkpt><trkpt lat="48.71245545050164" lon="3.244508237266626"><ele>155.33333333333334</ele><time>2026-05-01T16:35:12Z</time></trkpt><trkpt lat="48.7123010722159" lon="3.24455826967285"><ele>154.0</ele><time>2026-05-01T16:35:13Z</time></trkpt><trkpt lat="48.71214824307632" lon="3.244602079284758"><ele>154.0</ele><time>2026-05-01T16:35:14Z</time></trkpt><trkpt lat="48.711994691011206" lon="3.244647760700915"><ele>154.0</ele><time>2026-05-01T16:35:15Z</time></trkpt><trkpt lat="48.71183799618203" lon="3.244698133670548"><ele>154.0</ele><time>2026-05-01T16:35:16Z</time></trkpt><trkpt lat="48.71168669686389" lon="3.2447545593821867"><ele>153.75</ele><time>2026-05-01T16:35:17Z</time></trkpt><trkpt lat="48.711551337693436" lon="3.244804510123042"><ele>153.5</ele><time>2026-05-01T16:35:18Z</time></trkpt><trkpt lat="48.711433200170795" lon="3.2448469686391417"><ele>153.25</ele><time>2026-05-01T16:35:19Z</time></trkpt><trkpt lat="48.71133270082631" lon="3.244888261642575"><ele>153.0</ele><time>2026-05-01T16:35:20Z</time></trkpt><trkpt lat="48.71124355531166" lon="3.2449187158425197"><ele>153.0</ele><time>2026-05-01T16:35:21Z</time></trkpt><trkpt lat="48.71116850708604" lon="3.2449285393578"><ele>153.0</ele><time>2026-05-01T16:35:22Z</time></trkpt><trkpt lat="48.711102945903946" lon="3.24494016432356"><ele>153.0</ele><time>2026-05-01T16:35:23Z</time></trkpt><trkpt lat="48.71101509735205" lon="3.2449781769029467"><ele>153.0</ele><time>2026-05-01T16:35:25Z</time></trkpt><trkpt lat="48.711005531589834" lon="3.245084281175366"><ele>153.0</ele><time>2026-05-01T16:35:28Z</time></trkpt><trkpt lat="48.71105008275114" lon="3.2451880163791924"><ele>153.0</ele><time>2026-05-01T16:35:29Z</time></trkpt><trkpt lat="48.71116271971465" lon="3.245273667020592"><ele>153.0</ele><time>2026-05-01T16:35:30Z</time></trkpt><trkpt lat="48.71125671783983" lon="3.245385778610223"><ele>153.0</ele><time>2026-05-01T16:35:31Z</time></trkpt><trkpt lat="48.71136572616906" lon="3.2455193617277778"><ele>153.0</ele><time>2026-05-01T16:35:32Z</time></trkpt><trkpt lat="48.711483583588155" lon="3.2456624772753395"><ele>153.0</ele><time>2026-05-01T16:35:33Z</time></trkpt><trkpt lat="48.71161021039272" lon="3.2458199644716794"><ele>152.75</ele><time>2026-05-01T16:35:34Z</time></trkpt><trkpt lat="48.71173746768558" lon="3.2459778848718472"><ele>152.5</ele><time>2026-05-01T16:35:35Z</time></trkpt><trkpt lat="48.71184161286502" lon="3.2461134498779916"><ele>152.25</ele><time>2026-05-01T16:35:36Z</time></trkpt><trkpt lat="48.71194148528569" lon="3.246233996969759"><ele>152.0</ele><time>2026-05-01T16:35:37Z</time></trkpt><trkpt lat="48.71203429580998" lon="3.2463348988489042"><ele>152.0</ele><time>2026-05-01T16:35:38Z</time></trkpt><trkpt lat="48.712101005374926" lon="3.2464497107266843"><ele>152.0</ele><time>2026-05-01T16:35:39Z</time></trkpt><trkpt lat="48.712175858817055" lon="3.2465239253393663"><ele>152.0</ele><time>2026-05-01T16:35:40Z</time></trkpt><trkpt lat="48.71221332560868" lon="3.2466401811872214"><ele>152.0</ele><time>2026-05-01T16:35:41Z</time></trkpt><trkpt lat="48.712186661024525" lon="3.2467896421990345"><ele>152.0</ele><time>2026-05-01T16:35:42Z</time></trkpt><trkpt lat="48.71218176900177" lon="3.246980405088141"><ele>152.0</ele><time>2026-05-01T16:35:43Z</time></trkpt><trkpt lat="48.71219302392685" lon="3.247185868314329"><ele>152.0</ele><time>2026-05-01T16:35:44Z</time></trkpt><trkpt lat="48.71218696337559" lon="3.2474008803439856"><ele>152.0</ele><time>2026-05-01T16:35:45Z</time></trkpt><trkpt lat="48.71216722920419" lon="3.247621158921865"><ele>152.0</ele><time>2026-05-01T16:35:46Z</time></trkpt><trkpt lat="48.712161304407765" lon="3.2478425789287124"><ele>152.0</ele><time>2026-05-01T16:35:47Z</time></trkpt><trkpt lat="48.71215458819614" lon="3.248065997322913"><ele>152.0</ele><time>2026-05-01T16:35:48Z</time></trkpt><trkpt lat="48.71214780167269" lon="3.2482917546520955"><ele>152.0</ele><time>2026-05-01T16:35:49Z</time></trkpt><trkpt lat="48.712142893086025" lon="3.248502333126751"><ele>152.0</ele><time>2026-05-01T16:35:50Z</time></trkpt><trkpt lat="48.712139988024056" lon="3.2486862713547757"><ele>152.0</ele><time>2026-05-01T16:35:51Z</time></trkpt><trkpt lat="48.712137340119504" lon="3.2488539273321626"><ele>152.0</ele><time>2026-05-01T16:35:52Z</time></trkpt><trkpt lat="48.71213576434017" lon="3.2490138352364575"><ele>152.0</ele><time>2026-05-01T16:35:53Z</time></trkpt><trkpt lat="48.71213580736872" lon="3.249163414418533"><ele>152.0</ele><time>2026-05-01T16:35:54Z</time></trkpt><trkpt lat="48.71214937930746" lon="3.2493017521706378"><ele>152.0</ele><time>2026-05-01T16:35:55Z</time></trkpt><trkpt lat="48.71215026054364" lon="3.2494282105469616"><ele>152.0</ele><time>2026-05-01T16:35:56Z</time></trkpt><trkpt lat="48.71214607357552" lon="3.2495533850646936"><ele>152.0</ele><time>2026-05-01T16:35:57Z</time></trkpt><trkpt lat="48.71214214784818" lon="3.249677195074744"><ele>152.0</ele><time>2026-05-01T16:35:58Z</time></trkpt><trkpt lat="48.71210370414307" lon="3.2497864475717964"><ele>152.0</ele><time>2026-05-01T16:35:59Z</time></trkpt><trkpt lat="48.71206999516152" lon="3.249891163926779"><ele>152.0</ele><time>2026-05-01T16:36:00Z</time></trkpt><trkpt lat="48.712039253005706" lon="3.250001684067022"><ele>152.0</ele><time>2026-05-01T16:36:01Z</time></trkpt><trkpt lat="48.711969611024124" lon="3.2500638853337174"><ele>152.33333333333331</ele><time>2026-05-01T16:36:02Z</time></trkpt><trkpt lat="48.71189877328563" lon="3.2501288510603725"><ele>152.66666666666666</ele><time>2026-05-01T16:36:03Z</time></trkpt><trkpt lat="48.71182497485054" lon="3.250185609810621"><ele>153.0</ele><time>2026-05-01T16:36:04Z</time></trkpt><trkpt lat="48.71174632386301" lon="3.2502427382300167"><ele>153.33333333333334</ele><time>2026-05-01T16:36:05Z</time></trkpt><trkpt lat="48.71166275559085" lon="3.250306600404428"><ele>153.66666666666669</ele><time>2026-05-01T16:36:06Z</time></trkpt><trkpt lat="48.71159021966714" lon="3.2504016264896"><ele>154.0</ele><time>2026-05-01T16:36:07Z</time></trkpt><trkpt lat="48.71149551933592" lon="3.2504585183796024"><ele>154.0</ele><time>2026-05-01T16:36:08Z</time></trkpt><trkpt lat="48.711407303187414" lon="3.2505367642952625"><ele>154.0</ele><time>2026-05-01T16:36:09Z</time></trkpt><trkpt lat="48.71131497491146" lon="3.250618657582328"><ele>154.0</ele><time>2026-05-01T16:36:10Z</time></trkpt><trkpt lat="48.71124149366403" lon="3.2507483281573024"><ele>154.0</ele><time>2026-05-01T16:36:11Z</time></trkpt><trkpt lat="48.71114664765219" lon="3.250814411711294"><ele>154.0</ele><time>2026-05-01T16:36:12Z</time></trkpt><trkpt lat="48.71105116671545" lon="3.2508775857962697"><ele>154.4</ele><time>2026-05-01T16:36:13Z</time></trkpt><trkpt lat="48.710959121143645" lon="3.2509487629502076"><ele>154.8</ele><time>2026-05-01T16:36:14Z</time></trkpt><trkpt lat="48.710881650352746" lon="3.2510397990720743"><ele>155.2</ele><time>2026-05-01T16:36:15Z</time></trkpt><trkpt lat="48.71081660965109" lon="3.251160690312821"><ele>155.6</ele><time>2026-05-01T16:36:16Z</time></trkpt><trkpt lat="48.7107457806328" lon="3.2512853949304406"><ele>156.0</ele><time>2026-05-01T16:36:17Z</time></trkpt><trkpt lat="48.710676788230295" lon="3.2514129163953394"><ele>156.8</ele><time>2026-05-01T16:36:18Z</time></trkpt><trkpt lat="48.71060671934606" lon="3.2515455201127037"><ele>157.6</ele><time>2026-05-01T16:36:19Z</time></trkpt><trkpt lat="48.71053378513623" lon="3.2516722766363753"><ele>158.4</ele><time>2026-05-01T16:36:20Z</time></trkpt><trkpt lat="48.71045278870233" lon="3.2517933128750527"><ele>159.2</ele><time>2026-05-01T16:36:21Z</time></trkpt><trkpt lat="48.710369976645204" lon="3.2519082577022465"><ele>160.0</ele><time>2026-05-01T16:36:22Z</time></trkpt><trkpt lat="48.71027937906282" lon="3.2519985469542414"><ele>160.4</ele><time>2026-05-01T16:36:23Z</time></trkpt><trkpt lat="48.71018283873778" lon="3.252072206094199"><ele>160.8</ele><time>2026-05-01T16:36:24Z</time></trkpt><trkpt lat="48.710085924340056" lon="3.2521335022511657"><ele>161.2</ele><time>2026-05-01T16:36:25Z</time></trkpt><trkpt lat="48.70998537070148" lon="3.2521892291036187"><ele>161.6</ele><time>2026-05-01T16:36:26Z</time></trkpt><trkpt lat="48.70988310346912" lon="3.2522455481476107"><ele>162.0</ele><time>2026-05-01T16:36:27Z</time></trkpt><trkpt lat="48.709780304419624" lon="3.2523093958793052"><ele>162.8</ele><time>2026-05-01T16:36:28Z</time></trkpt><trkpt lat="48.70967316959759" lon="3.2523627457690636"><ele>163.6</ele><time>2026-05-01T16:36:29Z</time></trkpt><trkpt lat="48.70956859364199" lon="3.2524137770996857"><ele>164.4</ele><time>2026-05-01T16:36:30Z</time></trkpt><trkpt lat="48.7094621062007" lon="3.252454170396329"><ele>165.20000000000002</ele><time>2026-05-01T16:36:31Z</time></trkpt><trkpt lat="48.70936458945984" lon="3.2525243341143537"><ele>166.0</ele><time>2026-05-01T16:36:32Z</time></trkpt><trkpt lat="48.70926276361389" lon="3.252592235329294"><ele>166.4</ele><time>2026-05-01T16:36:33Z</time></trkpt><trkpt lat="48.70916423160424" lon="3.2526531657433333"><ele>166.8</ele><time>2026-05-01T16:36:34Z</time></trkpt><trkpt lat="48.70906449307777" lon="3.2527079514768404"><ele>167.20000000000002</ele><time>2026-05-01T16:36:35Z</time></trkpt><trkpt lat="48.70896537621264" lon="3.2527538544680628"><ele>167.60000000000002</ele><time>2026-05-01T16:36:36Z</time></trkpt><trkpt lat="48.708889154454305" lon="3.2527986066312673"><ele>168.0</ele><time>2026-05-01T16:36:37Z</time></trkpt><trkpt lat="48.70882591613773" lon="3.2528538598410606"><ele>168.0</ele><time>2026-05-01T16:36:38Z</time></trkpt><trkpt lat="48.70875695294317" lon="3.2528682465685494"><ele>168.0</ele><time>2026-05-01T16:36:39Z</time></trkpt><trkpt lat="48.708692286120225" lon="3.2528649964596776"><ele>168.0</ele><time>2026-05-01T16:36:40Z</time></trkpt><trkpt lat="48.70858992389046" lon="3.25289518494741"><ele>168.0</ele><time>2026-05-01T16:36:42Z</time></trkpt><trkpt lat="48.708518252839774" lon="3.2529307299367907"><ele>168.0</ele><time>2026-05-01T16:36:43Z</time></trkpt><trkpt lat="48.70843623321976" lon="3.2529616348654495"><ele>168.0</ele><time>2026-05-01T16:36:44Z</time></trkpt><trkpt lat="48.7083471301573" lon="3.25299275509751"><ele>168.0</ele><time>2026-05-01T16:36:45Z</time></trkpt><trkpt lat="48.70825059403121" lon="3.2530215563431115"><ele>168.0</ele><time>2026-05-01T16:36:46Z</time></trkpt><trkpt lat="48.70814830504355" lon="3.253058244721705"><ele>168.0</ele><time>2026-05-01T16:36:47Z</time></trkpt><trkpt lat="48.70804126536242" lon="3.253106078917567"><ele>168.0</ele><time>2026-05-01T16:36:48Z</time></trkpt><trkpt lat="48.707929648369884" lon="3.253164414443817"><ele>168.0</ele><time>2026-05-01T16:36:49Z</time></trkpt><trkpt lat="48.70781547720038" lon="3.2532207167730975"><ele>166.75</ele><time>2026-05-01T16:36:50Z</time></trkpt><trkpt lat="48.70770443939692" lon="3.2532725122726647"><ele>165.5</ele><time>2026-05-01T16:36:51Z</time></trkpt><trkpt lat="48.70759138334409" lon="3.253324509265143"><ele>164.25</ele><time>2026-05-01T16:36:52Z</time></trkpt><trkpt lat="48.70747586721927" lon="3.2533709036885656"><ele>163.0</ele><time>2026-05-01T16:36:53Z</time></trkpt><trkpt lat="48.70735814199315" lon="3.25342100607018"><ele>163.0</ele><time>2026-05-01T16:36:54Z</time></trkpt><trkpt lat="48.70723419406249" lon="3.2534745377566336"><ele>163.0</ele><time>2026-05-01T16:36:55Z</time></trkpt><trkpt lat="48.70709325097058" lon="3.25353408317977"><ele>163.0</ele><time>2026-05-01T16:36:56Z</time></trkpt><trkpt lat="48.70693838087691" lon="3.253594639699342"><ele>163.0</ele><time>2026-05-01T16:36:57Z</time></trkpt><trkpt lat="48.70677019680346" lon="3.2536759948448037"><ele>162.0</ele><time>2026-05-01T16:36:58Z</time></trkpt><trkpt lat="48.706600431279334" lon="3.2537452068391137"><ele>161.0</ele><time>2026-05-01T16:36:59Z</time></trkpt><trkpt lat="48.70645991967005" lon="3.253796650808378"><ele>160.0</ele><time>2026-05-01T16:37:00Z</time></trkpt><trkpt lat="48.706338968909" lon="3.253822016265381"><ele>159.0</ele><time>2026-05-01T16:37:01Z</time></trkpt><trkpt lat="48.70623158883983" lon="3.253857577529951"><ele>159.0</ele><time>2026-05-01T16:37:02Z</time></trkpt><trkpt lat="48.70614925457847" lon="3.253874742275593"><ele>159.0</ele><time>2026-05-01T16:37:03Z</time></trkpt><trkpt lat="48.706061581221164" lon="3.2539123156381398"><ele>159.0</ele><time>2026-05-01T16:37:05Z</time></trkpt><trkpt lat="48.706049328386094" lon="3.2540731991488565"><ele>159.0</ele><time>2026-05-01T16:37:07Z</time></trkpt><trkpt lat="48.70607990679328" lon="3.254208664040625"><ele>159.0</ele><time>2026-05-01T16:37:08Z</time></trkpt><trkpt lat="48.70608696271421" lon="3.2543827968564667"><ele>158.5</ele><time>2026-05-01T16:37:09Z</time></trkpt><trkpt lat="48.70608543438597" lon="3.254575525881726"><ele>158.0</ele><time>2026-05-01T16:37:10Z</time></trkpt><trkpt lat="48.706079654734026" lon="3.2547930610023066"><ele>157.5</ele><time>2026-05-01T16:37:11Z</time></trkpt><trkpt lat="48.706073427043016" lon="3.2550124166744063"><ele>157.0</ele><time>2026-05-01T16:37:12Z</time></trkpt><trkpt lat="48.706053179372375" lon="3.255208162107628"><ele>156.66666666666669</ele><time>2026-05-01T16:37:13Z</time></trkpt><trkpt lat="48.7060101922179" lon="3.2554080879767358"><ele>156.33333333333334</ele><time>2026-05-01T16:37:14Z</time></trkpt><trkpt lat="48.705954518581" lon="3.255626212769026"><ele>156.0</ele><time>2026-05-01T16:37:15Z</time></trkpt><trkpt lat="48.70588120654205" lon="3.255841581997798"><ele>156.0</ele><time>2026-05-01T16:37:16Z</time></trkpt><trkpt lat="48.705813120358904" lon="3.256055238516802"><ele>156.0</ele><time>2026-05-01T16:37:17Z</time></trkpt><trkpt lat="48.70573240666829" lon="3.2562662948357257"><ele>156.0</ele><time>2026-05-01T16:37:18Z</time></trkpt><trkpt lat="48.70564035455793" lon="3.2564724029192775"><ele>157.0</ele><time>2026-05-01T16:37:19Z</time></trkpt><trkpt lat="48.70554017379811" lon="3.256672168467221"><ele>158.0</ele><time>2026-05-01T16:37:20Z</time></trkpt><trkpt lat="48.70543230790248" lon="3.256872772085052"><ele>159.0</ele><time>2026-05-01T16:37:21Z</time></trkpt><trkpt lat="48.70532103483685" lon="3.257074568277088"><ele>160.33333333333334</ele><time>2026-05-01T16:37:22Z</time></trkpt><trkpt lat="48.70522086488031" lon="3.257297945256082"><ele>161.66666666666669</ele><time>2026-05-01T16:37:23Z</time></trkpt><trkpt lat="48.7051270992659" lon="3.2575267670661527"><ele>163.0</ele><time>2026-05-01T16:37:24Z</time></trkpt><trkpt lat="48.705048645081796" lon="3.257752316469183"><ele>163.0</ele><time>2026-05-01T16:37:25Z</time></trkpt><trkpt lat="48.704986645144466" lon="3.257954624921576"><ele>163.0</ele><time>2026-05-01T16:37:26Z</time></trkpt><trkpt lat="48.70494148534718" lon="3.258093705753439"><ele>163.0</ele><time>2026-05-01T16:37:27Z</time></trkpt><trkpt lat="48.704882240888146" lon="3.2582217101038857"><ele>163.0</ele><time>2026-05-01T16:37:28Z</time></trkpt><trkpt lat="48.70481547969312" lon="3.2583769074570026"><ele>164.0</ele><time>2026-05-01T16:37:29Z</time></trkpt><trkpt lat="48.70469925647481" lon="3.2587460341842713"><ele>165.0</ele><time>2026-05-01T16:37:30Z</time></trkpt><trkpt lat="48.704643999760705" lon="3.2589380512851305"><ele>166.0</ele><time>2026-05-01T16:37:31Z</time></trkpt><trkpt lat="48.70460770048724" lon="3.2590824386565753"><ele>166.20000000000002</ele><time>2026-05-01T16:37:32Z</time></trkpt><trkpt lat="48.70459642286852" lon="3.259179682436367"><ele>166.4</ele><time>2026-05-01T16:37:33Z</time></trkpt><trkpt lat="48.70454104890349" lon="3.259262070694308"><ele>166.6</ele><time>2026-05-01T16:37:35Z</time></trkpt><trkpt lat="48.7044560804876" lon="3.25926092638077"><ele>166.8</ele><time>2026-05-01T16:37:36Z</time></trkpt><trkpt lat="48.70434385871569" lon="3.259243423381924"><ele>167.0</ele><time>2026-05-01T16:37:37Z</time></trkpt><trkpt lat="48.70421659613358" lon="3.2592343617934634"><ele>167.5</ele><time>2026-05-01T16:37:38Z</time></trkpt><trkpt lat="48.704090482577094" lon="3.2592355296817774"><ele>168.0</ele><time>2026-05-01T16:37:39Z</time></trkpt><trkpt lat="48.70394696029507" lon="3.259276640927014"><ele>168.5</ele><time>2026-05-01T16:37:40Z</time></trkpt><trkpt lat="48.70381038628081" lon="3.259369442942863"><ele>169.0</ele><time>2026-05-01T16:37:41Z</time></trkpt><trkpt lat="48.703687001381404" lon="3.259521771575232"><ele>167.66666666666669</ele><time>2026-05-01T16:37:42Z</time></trkpt><trkpt lat="48.70356175083499" lon="3.2596908061028658"><ele>166.33333333333334</ele><time>2026-05-01T16:37:43Z</time></trkpt><trkpt lat="48.70346682554998" lon="3.259907899694976"><ele>165.0</ele><time>2026-05-01T16:37:44Z</time></trkpt><trkpt lat="48.70339644595066" lon="3.2601138585607097"><ele>164.6</ele><time>2026-05-01T16:37:45Z</time></trkpt><trkpt lat="48.70332297348177" lon="3.2602778481247623"><ele>164.2</ele><time>2026-05-01T16:37:46Z</time></trkpt><trkpt lat="48.70327181776648" lon="3.2604207747616782"><ele>163.8</ele><time>2026-05-01T16:37:47Z</time></trkpt><trkpt lat="48.70323487090195" lon="3.2605532958141237"><ele>163.4</ele><time>2026-05-01T16:37:48Z</time></trkpt><trkpt lat="48.703190923914185" lon="3.260660956650533"><ele>163.0</ele><time>2026-05-01T16:37:49Z</time></trkpt><trkpt lat="48.70312634356899" lon="3.260768080570352"><ele>162.83333333333334</ele><time>2026-05-01T16:37:50Z</time></trkpt><trkpt lat="48.70307022917872" lon="3.260872913461594"><ele>162.66666666666669</ele><time>2026-05-01T16:37:51Z</time></trkpt><trkpt lat="48.703034150164285" lon="3.2609792937884836"><ele>162.5</ele><time>2026-05-01T16:37:52Z</time></trkpt><trkpt lat="48.70301999435554" lon="3.2610986063350325"><ele>162.33333333333334</ele><time>2026-05-01T16:37:53Z</time></trkpt><trkpt lat="48.70297531817512" lon="3.2612046023399315"><ele>162.16666666666666</ele><time>2026-05-01T16:37:54Z</time></trkpt><trkpt lat="48.702956800004124" lon="3.261372377644563"><ele>162.0</ele><time>2026-05-01T16:37:55Z</time></trkpt><trkpt lat="48.702895923870244" lon="3.261536228459994"><ele>161.66666666666666</ele><time>2026-05-01T16:37:56Z</time></trkpt><trkpt lat="48.70282306589329" lon="3.2617197457313876"><ele>161.33333333333331</ele><time>2026-05-01T16:37:57Z</time></trkpt><trkpt lat="48.70274545848794" lon="3.2619225883145573"><ele>161.0</ele><time>2026-05-01T16:37:58Z</time></trkpt><trkpt lat="48.70267123164802" lon="3.2621285354132272"><ele>159.0</ele><time>2026-05-01T16:37:59Z</time></trkpt><trkpt lat="48.702587621471615" lon="3.262318064748718"><ele>157.0</ele><time>2026-05-01T16:38:00Z</time></trkpt><trkpt lat="48.702483865256916" lon="3.262513762535814"><ele>155.0</ele><time>2026-05-01T16:38:01Z</time></trkpt><trkpt lat="48.702366431010844" lon="3.2626993391458528"><ele>155.0</ele><time>2026-05-01T16:38:02Z</time></trkpt><trkpt lat="48.70224225656736" lon="3.262908813613546"><ele>155.0</ele><time>2026-05-01T16:38:03Z</time></trkpt><trkpt lat="48.702120822375605" lon="3.2631247342400718"><ele>155.0</ele><time>2026-05-01T16:38:04Z</time></trkpt><trkpt lat="48.70199483009354" lon="3.263342416903988"><ele>153.33333333333331</ele><time>2026-05-01T16:38:05Z</time></trkpt><trkpt lat="48.70187606911168" lon="3.2635529757706894"><ele>151.66666666666666</ele><time>2026-05-01T16:38:06Z</time></trkpt><trkpt lat="48.701775273632755" lon="3.263735961736379"><ele>150.0</ele><time>2026-05-01T16:38:07Z</time></trkpt><trkpt lat="48.701693535013156" lon="3.2639030284338175"><ele>150.0</ele><time>2026-05-01T16:38:08Z</time></trkpt><trkpt lat="48.7016268438865" lon="3.2640624496296162"><ele>150.0</ele><time>2026-05-01T16:38:09Z</time></trkpt><trkpt lat="48.70157670475061" lon="3.2642080606182025"><ele>150.0</ele><time>2026-05-01T16:38:10Z</time></trkpt><trkpt lat="48.70153224127938" lon="3.264348230294615"><ele>150.0</ele><time>2026-05-01T16:38:11Z</time></trkpt><trkpt lat="48.70149919616452" lon="3.2644783863578115"><ele>150.0</ele><time>2026-05-01T16:38:12Z</time></trkpt><trkpt lat="48.70147403271371" lon="3.264595036894375"><ele>150.0</ele><time>2026-05-01T16:38:13Z</time></trkpt><trkpt lat="48.70145450677875" lon="3.264718853851058"><ele>150.0</ele><time>2026-05-01T16:38:14Z</time></trkpt><trkpt lat="48.701454625640096" lon="3.2648510742498598"><ele>150.0</ele><time>2026-05-01T16:38:15Z</time></trkpt><trkpt lat="48.701462541388096" lon="3.2649918417766735"><ele>150.0</ele><time>2026-05-01T16:38:16Z</time></trkpt><trkpt lat="48.7014681857002" lon="3.265138414779505"><ele>150.0</ele><time>2026-05-01T16:38:17Z</time></trkpt><trkpt lat="48.701471812161834" lon="3.2652829940992674"><ele>150.0</ele><time>2026-05-01T16:38:18Z</time></trkpt><trkpt lat="48.70147848035157" lon="3.2654317849209393"><ele>150.0</ele><time>2026-05-01T16:38:19Z</time></trkpt><trkpt lat="48.70148643335508" lon="3.2655829940955323"><ele>150.0</ele><time>2026-05-01T16:38:20Z</time></trkpt><trkpt lat="48.70149729104315" lon="3.2657374189360637"><ele>150.0</ele><time>2026-05-01T16:38:21Z</time></trkpt><trkpt lat="48.701514031685484" lon="3.265894734628074"><ele>150.0</ele><time>2026-05-01T16:38:22Z</time></trkpt><trkpt lat="48.70153049563603" lon="3.2660524202173327"><ele>150.0</ele><time>2026-05-01T16:38:23Z</time></trkpt><trkpt lat="48.70154246160397" lon="3.266205885348709"><ele>150.0</ele><time>2026-05-01T16:38:24Z</time></trkpt><trkpt lat="48.70154121346077" lon="3.2663590948559893"><ele>150.0</ele><time>2026-05-01T16:38:25Z</time></trkpt><trkpt lat="48.7015408935669" lon="3.266514014949825"><ele>150.0</ele><time>2026-05-01T16:38:26Z</time></trkpt><trkpt lat="48.70154606273595" lon="3.266666467941072"><ele>150.0</ele><time>2026-05-01T16:38:27Z</time></trkpt><trkpt lat="48.70155226388434" lon="3.2668131485952547"><ele>150.0</ele><time>2026-05-01T16:38:28Z</time></trkpt><trkpt lat="48.701559374059684" lon="3.266928314529428"><ele>150.0</ele><time>2026-05-01T16:38:29Z</time></trkpt><trkpt lat="48.7015891700921" lon="3.267089022407877"><ele>150.0</ele><time>2026-05-01T16:38:31Z</time></trkpt><trkpt lat="48.70164032762321" lon="3.267208883214868"><ele>150.0</ele><time>2026-05-01T16:38:33Z</time></trkpt><trkpt lat="48.70162068631074" lon="3.2673098049695453"><ele>150.0</ele><time>2026-05-01T16:38:35Z</time></trkpt><trkpt lat="48.70155190259502" lon="3.267288315272735"><ele>150.0</ele><time>2026-05-01T16:38:37Z</time></trkpt><trkpt lat="48.701483520130054" lon="3.2673035123982905"><ele>149.0</ele><time>2026-05-01T16:38:57Z</time></trkpt><trkpt lat="48.701398474592985" lon="3.2673169956973784"><ele>149.0</ele><time>2026-05-01T16:39:22Z</time></trkpt><trkpt lat="48.70133401598617" lon="3.2672994745190773"><ele>149.0</ele><time>2026-05-01T16:39:24Z</time></trkpt><trkpt lat="48.7012584325311" lon="3.267294447510529"><ele>149.0</ele><time>2026-05-01T16:39:26Z</time></trkpt></trkseg></trk></gpx>